<?xml version='1.0' encoding='UTF-8'?><gpx version="1.1" creator="JPX - https://github.com/jenetics/jpx" xmlns="http://www.topografix.com/GPX/1/1"><trk><trkseg><trkpt lat="45.64611468934075" lon="11.299046287323627"><ele>271.0</ele><time>2026-04-06T11:51:54.016Z</time></trkpt><trkpt lat="45.646077405569685" lon="11.29913792404541"><ele>271.0</ele><time>2026-04-06T11:52:09.017Z</time></trkpt><trkpt lat="45.64608622167212" lon="11.299248859251447"><ele>271.0</ele><time>2026-04-06T11:52:11.017Z</time></trkpt><trkpt lat="45.64607299139675" lon="11.299400059362698"><ele>271.0</ele><time>2026-04-06T11:52:13.018Z</time></trkpt><trkpt lat="45.646074773970994" lon="11.299520676547433"><ele>271.0</ele><time>2026-04-06T11:52:15.017Z</time></trkpt><trkpt lat="45.64607819955177" lon="11.299655635122635"><ele>271.0</ele><time>2026-04-06T11:52:17.016Z</time></trkpt><trkpt lat="45.64608639044295" lon="11.299784081971836"><ele>270.40000000000003</ele><time>2026-04-06T11:52:19.017Z</time></trkpt><trkpt lat="45.64606918891323" lon="11.299903862025184"><ele>269.8</ele><time>2026-04-06T11:52:21.017Z</time></trkpt><trkpt lat="45.64610091586714" lon="11.300030446407684"><ele>269.20000000000005</ele><time>2026-04-06T11:52:23.019Z</time></trkpt><trkpt lat="45.646171399929315" lon="11.300133368712107"><ele>268.6</ele><time>2026-04-06T11:52:25.02Z</time></trkpt><trkpt lat="45.64626223658189" lon="11.300166491253352"><ele>268.0</ele><time>2026-04-06T11:52:27.015Z</time></trkpt><trkpt lat="45.64640220913015" lon="11.30018414427679"><ele>268.0</ele><time>2026-04-06T11:52:29.014Z</time></trkpt><trkpt lat="45.64647198599483" lon="11.300201366833306"><ele>268.0</ele><time>2026-04-06T11:52:30.012Z</time></trkpt><trkpt lat="45.64654148286988" lon="11.300220895697109"><ele>268.0</ele><time>2026-04-06T11:52:31.018Z</time></trkpt><trkpt lat="45.646599964593555" lon="11.300259622897938"><ele>268.0</ele><time>2026-04-06T11:52:32.017Z</time></trkpt><trkpt lat="45.64671898040923" lon="11.30028313267302"><ele>268.0</ele><time>2026-04-06T11:52:34.016Z</time></trkpt><trkpt lat="45.64682846124284" lon="11.300303951181666"><ele>268.0</ele><time>2026-04-06T11:52:36.018Z</time></trkpt><trkpt lat="45.64691979302022" lon="11.300322528453854"><ele>267.66666666666663</ele><time>2026-04-06T11:52:38.016Z</time></trkpt><trkpt lat="45.6469778161721" lon="11.300380585049325"><ele>267.3333333333333</ele><time>2026-04-06T11:52:39.017Z</time></trkpt><trkpt lat="45.64703752143228" lon="11.300445497538863"><ele>267.0</ele><time>2026-04-06T11:52:40.012Z</time></trkpt><trkpt lat="45.647130991435986" lon="11.300565830751289"><ele>266.6666666666667</ele><time>2026-04-06T11:52:42.017Z</time></trkpt><trkpt lat="45.64720034904917" lon="11.30059731206824"><ele>266.33333333333337</ele><time>2026-04-06T11:52:43.013Z</time></trkpt><trkpt lat="45.647191590651055" lon="11.300734913056212"><ele>266.0</ele><time>2026-04-06T11:52:44.017Z</time></trkpt><trkpt lat="45.64718871210266" lon="11.300915531200118"><ele>264.8</ele><time>2026-04-06T11:52:46.017Z</time></trkpt><trkpt lat="45.64721631555302" lon="11.301079328387386"><ele>263.6</ele><time>2026-04-06T11:52:48.021Z</time></trkpt><trkpt lat="45.64721455349727" lon="11.301236279602131"><ele>262.4</ele><time>2026-04-06T11:52:50.018Z</time></trkpt><trkpt lat="45.64722704552729" lon="11.30137769816933"><ele>261.2</ele><time>2026-04-06T11:52:52.017Z</time></trkpt><trkpt lat="45.647173117407235" lon="11.30148733666699"><ele>260.0</ele><time>2026-04-06T11:52:54.017Z</time></trkpt><trkpt lat="45.64704433618463" lon="11.30152225452547"><ele>259.0</ele><time>2026-04-06T11:52:56.018Z</time></trkpt><trkpt lat="45.646970134994845" lon="11.301539196068525"><ele>258.0</ele><time>2026-04-06T11:52:57.015Z</time></trkpt><trkpt lat="45.64688530990502" lon="11.301571259398402"><ele>257.0</ele><time>2026-04-06T11:52:58.017Z</time></trkpt><trkpt lat="45.64679926341371" lon="11.301607406633634"><ele>256.0</ele><time>2026-04-06T11:52:59.017Z</time></trkpt><trkpt lat="45.646719296655824" lon="11.301631948874707"><ele>255.00000000000003</ele><time>2026-04-06T11:53:00.016Z</time></trkpt><trkpt lat="45.646627000543155" lon="11.30166413554212"><ele>254.0</ele><time>2026-04-06T11:53:01.017Z</time></trkpt><trkpt lat="45.64653107232495" lon="11.301697338358474"><ele>253.6</ele><time>2026-04-06T11:53:02.016Z</time></trkpt><trkpt lat="45.646439012214906" lon="11.301728802034848"><ele>253.2</ele><time>2026-04-06T11:53:03.015Z</time></trkpt><trkpt lat="45.646347906433284" lon="11.301762880281125"><ele>252.79999999999998</ele><time>2026-04-06T11:53:04.017Z</time></trkpt><trkpt lat="45.646258929847235" lon="11.301794834698073"><ele>252.39999999999998</ele><time>2026-04-06T11:53:05.017Z</time></trkpt><trkpt lat="45.646162092176326" lon="11.301828720081557"><ele>252.0</ele><time>2026-04-06T11:53:06.011Z</time></trkpt><trkpt lat="45.64605786005135" lon="11.30186942813256"><ele>252.0</ele><time>2026-04-06T11:53:07.01Z</time></trkpt><trkpt lat="45.64595096864914" lon="11.301911908107252"><ele>252.0</ele><time>2026-04-06T11:53:08.017Z</time></trkpt><trkpt lat="45.645835676976326" lon="11.30196113286895"><ele>252.0</ele><time>2026-04-06T11:53:09.017Z</time></trkpt><trkpt lat="45.64572387021123" lon="11.302001015943475"><ele>252.0</ele><time>2026-04-06T11:53:10.017Z</time></trkpt><trkpt lat="45.6456157491947" lon="11.302033535068505"><ele>252.0</ele><time>2026-04-06T11:53:11.016Z</time></trkpt><trkpt lat="45.645504162765974" lon="11.302073845299274"><ele>252.0</ele><time>2026-04-06T11:53:12.017Z</time></trkpt><trkpt lat="45.64539596025927" lon="11.302116001304821"><ele>252.0</ele><time>2026-04-06T11:53:13.016Z</time></trkpt><trkpt lat="45.64528595304551" lon="11.302158621329568"><ele>252.0</ele><time>2026-04-06T11:53:14.016Z</time></trkpt><trkpt lat="45.64517875143288" lon="11.302193940140826"><ele>252.0</ele><time>2026-04-06T11:53:15.016Z</time></trkpt><trkpt lat="45.645077282278756" lon="11.302226982270737"><ele>252.0</ele><time>2026-04-06T11:53:16.016Z</time></trkpt><trkpt lat="45.64497327077567" lon="11.30226250988514"><ele>252.0</ele><time>2026-04-06T11:53:17.015Z</time></trkpt><trkpt lat="45.64487982895905" lon="11.302287844923217"><ele>252.0</ele><time>2026-04-06T11:53:18.017Z</time></trkpt><trkpt lat="45.64480655548662" lon="11.302316685908872"><ele>252.0</ele><time>2026-04-06T11:53:19.017Z</time></trkpt><trkpt lat="45.64474504602951" lon="11.302337664071004"><ele>252.0</ele><time>2026-04-06T11:53:20.017Z</time></trkpt><trkpt lat="45.644679351317926" lon="11.302368858211533"><ele>252.0</ele><time>2026-04-06T11:53:21.017Z</time></trkpt><trkpt lat="45.64457467593537" lon="11.302420970508612"><ele>252.0</ele><time>2026-04-06T11:53:23.016Z</time></trkpt><trkpt lat="45.644450572140364" lon="11.302482314707945"><ele>252.0</ele><time>2026-04-06T11:53:25.016Z</time></trkpt><trkpt lat="45.644367330749176" lon="11.302513311037492"><ele>252.0</ele><time>2026-04-06T11:53:26.017Z</time></trkpt><trkpt lat="45.64427099570293" lon="11.302532595050323"><ele>252.0</ele><time>2026-04-06T11:53:27.017Z</time></trkpt><trkpt lat="45.64417215140475" lon="11.302574366563787"><ele>252.0</ele><time>2026-04-06T11:53:28.018Z</time></trkpt><trkpt lat="45.64406488846524" lon="11.302628900401539"><ele>252.0</ele><time>2026-04-06T11:53:29.013Z</time></trkpt><trkpt lat="45.64396138655819" lon="11.302676379816655"><ele>252.0</ele><time>2026-04-06T11:53:30.017Z</time></trkpt><trkpt lat="45.64386080239693" lon="11.302716893950818"><ele>252.0</ele><time>2026-04-06T11:53:31.017Z</time></trkpt><trkpt lat="45.643758325673176" lon="11.30275802119774"><ele>252.0</ele><time>2026-04-06T11:53:32.016Z</time></trkpt><trkpt lat="45.64365072655308" lon="11.302810770133338"><ele>251.5</ele><time>2026-04-06T11:53:33.018Z</time></trkpt><trkpt lat="45.64354183682098" lon="11.30286721495591"><ele>251.0</ele><time>2026-04-06T11:53:34.016Z</time></trkpt><trkpt lat="45.64342950892264" lon="11.302926709072018"><ele>250.5</ele><time>2026-04-06T11:53:35.017Z</time></trkpt><trkpt lat="45.64331717632142" lon="11.30298846243916"><ele>250.0</ele><time>2026-04-06T11:53:36.014Z</time></trkpt><trkpt lat="45.64320233270661" lon="11.303049351528593"><ele>249.75</ele><time>2026-04-06T11:53:37.016Z</time></trkpt><trkpt lat="45.643087205072945" lon="11.303119956430153"><ele>249.5</ele><time>2026-04-06T11:53:38.017Z</time></trkpt><trkpt lat="45.64297470644012" lon="11.303188609370126"><ele>249.25</ele><time>2026-04-06T11:53:39.016Z</time></trkpt><trkpt lat="45.64285267826123" lon="11.303254716603849"><ele>249.0</ele><time>2026-04-06T11:53:40.017Z</time></trkpt><trkpt lat="45.64273779079637" lon="11.303305505338669"><ele>249.0</ele><time>2026-04-06T11:53:41.016Z</time></trkpt><trkpt lat="45.64260327561868" lon="11.303359161683137"><ele>249.0</ele><time>2026-04-06T11:53:42.018Z</time></trkpt><trkpt lat="45.64248415331248" lon="11.303418993588204"><ele>249.0</ele><time>2026-04-06T11:53:43.012Z</time></trkpt><trkpt lat="45.642365232453116" lon="11.30347420052905"><ele>249.0</ele><time>2026-04-06T11:53:44.013Z</time></trkpt><trkpt lat="45.64224907357233" lon="11.303528875990144"><ele>249.0</ele><time>2026-04-06T11:53:44.997Z</time></trkpt><trkpt lat="45.642136925208554" lon="11.303584571837456"><ele>248.99999999999997</ele><time>2026-04-06T11:53:45.997Z</time></trkpt><trkpt lat="45.64203548526032" lon="11.303633519228866"><ele>248.99999999999997</ele><time>2026-04-06T11:53:46.997Z</time></trkpt><trkpt lat="45.64193530505451" lon="11.303682558275408"><ele>249.0</ele><time>2026-04-06T11:53:47.997Z</time></trkpt><trkpt lat="45.64184102719231" lon="11.303721311579046"><ele>249.0</ele><time>2026-04-06T11:53:48.998Z</time></trkpt><trkpt lat="45.64174916835781" lon="11.30374102909637"><ele>248.5</ele><time>2026-04-06T11:53:49.998Z</time></trkpt><trkpt lat="45.64167046166769" lon="11.303737583140496"><ele>248.0</ele><time>2026-04-06T11:53:50.998Z</time></trkpt><trkpt lat="45.6415868669312" lon="11.303748209522162"><ele>247.5</ele><time>2026-04-06T11:53:51.998Z</time></trkpt><trkpt lat="45.64151300205869" lon="11.30378428316819"><ele>247.0</ele><time>2026-04-06T11:53:52.998Z</time></trkpt><trkpt lat="45.64144987292436" lon="11.303862925589735"><ele>246.5</ele><time>2026-04-06T11:53:53.998Z</time></trkpt><trkpt lat="45.641385848261805" lon="11.303948832182865"><ele>246.0</ele><time>2026-04-06T11:53:54.998Z</time></trkpt><trkpt lat="45.641297922590695" lon="11.303995481785307"><ele>246.0</ele><time>2026-04-06T11:53:55.998Z</time></trkpt><trkpt lat="45.64119725443238" lon="11.304025092634614"><ele>246.00000000000003</ele><time>2026-04-06T11:53:56.999Z</time></trkpt><trkpt lat="45.641094071718946" lon="11.304056544326814"><ele>246.00000000000003</ele><time>2026-04-06T11:53:57.999Z</time></trkpt><trkpt lat="45.640990669270444" lon="11.304108860672327"><ele>246.0</ele><time>2026-04-06T11:53:58.999Z</time></trkpt><trkpt lat="45.640880995167585" lon="11.304163857065255"><ele>246.0</ele><time>2026-04-06T11:53:59.999Z</time></trkpt><trkpt lat="45.64076376103552" lon="11.304218100331966"><ele>245.75</ele><time>2026-04-06T11:54:00.999Z</time></trkpt><trkpt lat="45.64064378702931" lon="11.304270883832436"><ele>245.5</ele><time>2026-04-06T11:54:01.999Z</time></trkpt><trkpt lat="45.64051835694326" lon="11.304328633455004"><ele>245.25</ele><time>2026-04-06T11:54:02.999Z</time></trkpt><trkpt lat="45.640390658395766" lon="11.304389140156603"><ele>245.0</ele><time>2026-04-06T11:54:03.999Z</time></trkpt><trkpt lat="45.64025915312159" lon="11.304449944833411"><ele>244.5</ele><time>2026-04-06T11:54:04.999Z</time></trkpt><trkpt lat="45.64012126527115" lon="11.30451371780794"><ele>244.0</ele><time>2026-04-06T11:54:05.999Z</time></trkpt><trkpt lat="45.63998353857163" lon="11.304578079639665"><ele>243.5</ele><time>2026-04-06T11:54:06.999Z</time></trkpt><trkpt lat="45.63984725369163" lon="11.304640563922522"><ele>243.0</ele><time>2026-04-06T11:54:07.999Z</time></trkpt><trkpt lat="45.639709496316584" lon="11.30470224618453"><ele>242.75</ele><time>2026-04-06T11:54:08.999Z</time></trkpt><trkpt lat="45.63956964041695" lon="11.304766603040678"><ele>242.5</ele><time>2026-04-06T11:54:09.999Z</time></trkpt><trkpt lat="45.63943255975549" lon="11.3048270472211"><ele>242.25</ele><time>2026-04-06T11:54:10.999Z</time></trkpt><trkpt lat="45.63929548609631" lon="11.304894846258723"><ele>242.0</ele><time>2026-04-06T11:54:11.999Z</time></trkpt><trkpt lat="45.639158511993415" lon="11.304963997543291"><ele>242.0</ele><time>2026-04-06T11:54:12.999Z</time></trkpt><trkpt lat="45.63901918610123" lon="11.305032073794163"><ele>242.0</ele><time>2026-04-06T11:54:13.999Z</time></trkpt><trkpt lat="45.63887984092627" lon="11.305096924420083"><ele>242.0</ele><time>2026-04-06T11:54:14.999Z</time></trkpt><trkpt lat="45.63873976200746" lon="11.305164195925231"><ele>242.0</ele><time>2026-04-06T11:54:15.999Z</time></trkpt><trkpt lat="45.638599888030775" lon="11.305226229699286"><ele>241.75</ele><time>2026-04-06T11:54:16.999Z</time></trkpt><trkpt lat="45.638459801448704" lon="11.305290327318396"><ele>241.5</ele><time>2026-04-06T11:54:18Z</time></trkpt><trkpt lat="45.638320903664244" lon="11.305354274428709"><ele>241.25</ele><time>2026-04-06T11:54:19Z</time></trkpt><trkpt lat="45.63818296883104" lon="11.305418909924503"><ele>241.0</ele><time>2026-04-06T11:54:20Z</time></trkpt><trkpt lat="45.638045705083016" lon="11.305483664256485"><ele>241.0</ele><time>2026-04-06T11:54:21Z</time></trkpt><trkpt lat="45.63790787803115" lon="11.305550681968292"><ele>241.0</ele><time>2026-04-06T11:54:22Z</time></trkpt><trkpt lat="45.63777048629276" lon="11.305614318507043"><ele>241.0</ele><time>2026-04-06T11:54:23Z</time></trkpt><trkpt lat="45.637633677447376" lon="11.30567844373525"><ele>241.0</ele><time>2026-04-06T11:54:24Z</time></trkpt><trkpt lat="45.63749663402205" lon="11.305742463142405"><ele>240.5</ele><time>2026-04-06T11:54:25Z</time></trkpt><trkpt lat="45.63735944700469" lon="11.305808526907331"><ele>240.0</ele><time>2026-04-06T11:54:26Z</time></trkpt><trkpt lat="45.637221685764004" lon="11.305874393164949"><ele>239.5</ele><time>2026-04-06T11:54:27Z</time></trkpt><trkpt lat="45.63708392505005" lon="11.305936990072565"><ele>239.0</ele><time>2026-04-06T11:54:28Z</time></trkpt><trkpt lat="45.63694332930105" lon="11.306004712567436"><ele>239.0</ele><time>2026-04-06T11:54:29Z</time></trkpt><trkpt lat="45.63680392815557" lon="11.3060714679269"><ele>239.0</ele><time>2026-04-06T11:54:30Z</time></trkpt><trkpt lat="45.63666284938915" lon="11.306138543946027"><ele>239.0</ele><time>2026-04-06T11:54:31Z</time></trkpt><trkpt lat="45.63652189145201" lon="11.306203329630366"><ele>239.0</ele><time>2026-04-06T11:54:32Z</time></trkpt><trkpt lat="45.6363824537347" lon="11.306266718562789"><ele>239.0</ele><time>2026-04-06T11:54:33Z</time></trkpt><trkpt lat="45.636243516547665" lon="11.306328689508556"><ele>239.0</ele><time>2026-04-06T11:54:34Z</time></trkpt><trkpt lat="45.6361042346992" lon="11.306394697978055"><ele>239.0</ele><time>2026-04-06T11:54:35Z</time></trkpt><trkpt lat="45.6359655050807" lon="11.306455856620422"><ele>239.0</ele><time>2026-04-06T11:54:36Z</time></trkpt><trkpt lat="45.63582560079651" lon="11.30651649288394"><ele>237.75</ele><time>2026-04-06T11:54:37Z</time></trkpt><trkpt lat="45.635686191974465" lon="11.306564636659736"><ele>236.5</ele><time>2026-04-06T11:54:38Z</time></trkpt><trkpt lat="45.63554301516569" lon="11.30660771244736"><ele>235.25</ele><time>2026-04-06T11:54:39Z</time></trkpt><trkpt lat="45.635400297818606" lon="11.306625790729207"><ele>234.0</ele><time>2026-04-06T11:54:40Z</time></trkpt><trkpt lat="45.635253835204445" lon="11.306641106926019"><ele>233.75</ele><time>2026-04-06T11:54:41Z</time></trkpt><trkpt lat="45.635107682594615" lon="11.306652643542318"><ele>233.5</ele><time>2026-04-06T11:54:42Z</time></trkpt><trkpt lat="45.634961386939345" lon="11.306662579575416"><ele>233.25</ele><time>2026-04-06T11:54:43Z</time></trkpt><trkpt lat="45.63481624861765" lon="11.30667185423092"><ele>233.0</ele><time>2026-04-06T11:54:44Z</time></trkpt><trkpt lat="45.634671074196056" lon="11.306683088027802"><ele>233.0</ele><time>2026-04-06T11:54:45Z</time></trkpt><trkpt lat="45.634525211242845" lon="11.306694589144595"><ele>233.0</ele><time>2026-04-06T11:54:46Z</time></trkpt><trkpt lat="45.63438155741398" lon="11.30670728819043"><ele>233.0</ele><time>2026-04-06T11:54:47Z</time></trkpt><trkpt lat="45.63423961344555" lon="11.306717844817207"><ele>233.0</ele><time>2026-04-06T11:54:48Z</time></trkpt><trkpt lat="45.634108409177294" lon="11.30672344363381"><ele>233.25</ele><time>2026-04-06T11:54:49Z</time></trkpt><trkpt lat="45.63397699265986" lon="11.306734045912517"><ele>233.5</ele><time>2026-04-06T11:54:50Z</time></trkpt><trkpt lat="45.63385192039417" lon="11.306744307920798"><ele>233.75</ele><time>2026-04-06T11:54:51Z</time></trkpt><trkpt lat="45.6337309196117" lon="11.306759062645808"><ele>234.0</ele><time>2026-04-06T11:54:52Z</time></trkpt><trkpt lat="45.63360765493775" lon="11.306783882869592"><ele>233.5</ele><time>2026-04-06T11:54:53Z</time></trkpt><trkpt lat="45.63349138566814" lon="11.30681642187348"><ele>233.0</ele><time>2026-04-06T11:54:54Z</time></trkpt><trkpt lat="45.63337935929821" lon="11.306858048286063"><ele>232.5</ele><time>2026-04-06T11:54:55Z</time></trkpt><trkpt lat="45.633274072250124" lon="11.306905557322398"><ele>232.0</ele><time>2026-04-06T11:54:56Z</time></trkpt><trkpt lat="45.63317479169913" lon="11.306954996231067"><ele>232.0</ele><time>2026-04-06T11:54:57Z</time></trkpt><trkpt lat="45.63308099268231" lon="11.30701080038265"><ele>232.0</ele><time>2026-04-06T11:54:58Z</time></trkpt><trkpt lat="45.63299402602286" lon="11.307064360981421"><ele>232.0</ele><time>2026-04-06T11:54:58.999Z</time></trkpt><trkpt lat="45.63290477267297" lon="11.307113752219148"><ele>232.0</ele><time>2026-04-06T11:54:59.999Z</time></trkpt><trkpt lat="45.63281343634494" lon="11.30714924842688"><ele>232.0</ele><time>2026-04-06T11:55:00.999Z</time></trkpt><trkpt lat="45.63271743008992" lon="11.307153328255803"><ele>231.8</ele><time>2026-04-06T11:55:01.999Z</time></trkpt><trkpt lat="45.632617606789765" lon="11.30713165764921"><ele>231.6</ele><time>2026-04-06T11:55:02.999Z</time></trkpt><trkpt lat="45.632525691733136" lon="11.307069219247817"><ele>231.40000000000003</ele><time>2026-04-06T11:55:03.999Z</time></trkpt><trkpt lat="45.63245122549392" lon="11.306968943567417"><ele>231.20000000000002</ele><time>2026-04-06T11:55:04.999Z</time></trkpt><trkpt lat="45.63239350874481" lon="11.30684645962192"><ele>231.0</ele><time>2026-04-06T11:55:05.999Z</time></trkpt><trkpt lat="45.632347253175354" lon="11.306719033661663"><ele>231.0</ele><time>2026-04-06T11:55:06.999Z</time></trkpt><trkpt lat="45.632303470471506" lon="11.306588192606347"><ele>231.00000000000003</ele><time>2026-04-06T11:55:07.999Z</time></trkpt><trkpt lat="45.632246270628734" lon="11.306481902445173"><ele>231.00000000000003</ele><time>2026-04-06T11:55:08.999Z</time></trkpt><trkpt lat="45.63216871664827" lon="11.306399534446076"><ele>231.0</ele><time>2026-04-06T11:55:09.999Z</time></trkpt><trkpt lat="45.63208238876993" lon="11.306333742304268"><ele>231.0</ele><time>2026-04-06T11:55:10.999Z</time></trkpt><trkpt lat="45.63197244268345" lon="11.306344405347039"><ele>231.0</ele><time>2026-04-06T11:55:11.999Z</time></trkpt><trkpt lat="45.63187466524946" lon="11.306367810145671"><ele>231.00000000000003</ele><time>2026-04-06T11:55:12.999Z</time></trkpt><trkpt lat="45.63178294729099" lon="11.306432493743594"><ele>231.00000000000003</ele><time>2026-04-06T11:55:13.999Z</time></trkpt><trkpt lat="45.63170344379943" lon="11.306526884887248"><ele>231.0</ele><time>2026-04-06T11:55:14.999Z</time></trkpt><trkpt lat="45.63164276191675" lon="11.306643568563247"><ele>231.0</ele><time>2026-04-06T11:55:15.999Z</time></trkpt><trkpt lat="45.63160416085473" lon="11.306780469387485"><ele>230.4</ele><time>2026-04-06T11:55:16.999Z</time></trkpt><trkpt lat="45.631591772954266" lon="11.306926297670115"><ele>229.8</ele><time>2026-04-06T11:55:17.999Z</time></trkpt><trkpt lat="45.63159768556962" lon="11.307072670851968"><ele>229.20000000000002</ele><time>2026-04-06T11:55:18.999Z</time></trkpt><trkpt lat="45.63161434732297" lon="11.307221729803288"><ele>228.60000000000002</ele><time>2026-04-06T11:55:19.999Z</time></trkpt><trkpt lat="45.63161988852961" lon="11.30736428147311"><ele>228.0</ele><time>2026-04-06T11:55:20.999Z</time></trkpt><trkpt lat="45.63160257203848" lon="11.307510777628107"><ele>227.4</ele><time>2026-04-06T11:55:21.999Z</time></trkpt><trkpt lat="45.63157671650021" lon="11.30765853359092"><ele>226.8</ele><time>2026-04-06T11:55:22.999Z</time></trkpt><trkpt lat="45.63156446901749" lon="11.307808391945875"><ele>226.2</ele><time>2026-04-06T11:55:23.999Z</time></trkpt><trkpt lat="45.63157201916372" lon="11.307962320360316"><ele>225.6</ele><time>2026-04-06T11:55:24.999Z</time></trkpt><trkpt lat="45.6315881656783" lon="11.308117172298463"><ele>225.0</ele><time>2026-04-06T11:55:25.999Z</time></trkpt><trkpt lat="45.63160496928962" lon="11.308275153092051"><ele>225.0</ele><time>2026-04-06T11:55:26.999Z</time></trkpt><trkpt lat="45.63161311675721" lon="11.308434214374838"><ele>225.0</ele><time>2026-04-06T11:55:27.999Z</time></trkpt><trkpt lat="45.63160408966448" lon="11.308593161396571"><ele>225.0</ele><time>2026-04-06T11:55:28.999Z</time></trkpt><trkpt lat="45.63157283844726" lon="11.30874344543661"><ele>225.0</ele><time>2026-04-06T11:55:29.999Z</time></trkpt><trkpt lat="45.631519118048175" lon="11.308878526058294"><ele>225.0</ele><time>2026-04-06T11:55:30.999Z</time></trkpt><trkpt lat="45.63145695200853" lon="11.308999654349902"><ele>225.8</ele><time>2026-04-06T11:55:31.999Z</time></trkpt><trkpt lat="45.63137933459285" lon="11.309094184546964"><ele>226.6</ele><time>2026-04-06T11:55:32.999Z</time></trkpt><trkpt lat="45.63128772191055" lon="11.309173459276842"><ele>227.39999999999998</ele><time>2026-04-06T11:55:33.999Z</time></trkpt><trkpt lat="45.63119603796615" lon="11.309255481109407"><ele>228.2</ele><time>2026-04-06T11:55:34.999Z</time></trkpt><trkpt lat="45.6311045673784" lon="11.309352573314934"><ele>229.0</ele><time>2026-04-06T11:55:35.999Z</time></trkpt><trkpt lat="45.63100972305835" lon="11.309452676778019"><ele>229.0</ele><time>2026-04-06T11:55:36.999Z</time></trkpt><trkpt lat="45.630910236111276" lon="11.309546386393096"><ele>229.0</ele><time>2026-04-06T11:55:37.999Z</time></trkpt><trkpt lat="45.630803022376696" lon="11.30963425878576"><ele>229.0</ele><time>2026-04-06T11:55:38.999Z</time></trkpt><trkpt lat="45.63068974519304" lon="11.309710915706077"><ele>229.0</ele><time>2026-04-06T11:55:39.999Z</time></trkpt><trkpt lat="45.63057218743873" lon="11.30979215712922"><ele>229.0</ele><time>2026-04-06T11:55:40.999Z</time></trkpt><trkpt lat="45.63045482506406" lon="11.309872155353577"><ele>229.0</ele><time>2026-04-06T11:55:41.999Z</time></trkpt><trkpt lat="45.6303336082786" lon="11.309947863116935"><ele>229.0</ele><time>2026-04-06T11:55:42.999Z</time></trkpt><trkpt lat="45.630210089441235" lon="11.310023329712038"><ele>229.0</ele><time>2026-04-06T11:55:43.999Z</time></trkpt><trkpt lat="45.63008633176084" lon="11.31010250158827"><ele>229.0</ele><time>2026-04-06T11:55:44.999Z</time></trkpt><trkpt lat="45.629963091558125" lon="11.310181370711602"><ele>229.0</ele><time>2026-04-06T11:55:45.999Z</time></trkpt><trkpt lat="45.62983516726303" lon="11.310264484531265"><ele>229.0</ele><time>2026-04-06T11:55:46.999Z</time></trkpt><trkpt lat="45.62970869953432" lon="11.310346184668928"><ele>229.0</ele><time>2026-04-06T11:55:47.999Z</time></trkpt><trkpt lat="45.62958119166818" lon="11.310430001881432"><ele>228.5</ele><time>2026-04-06T11:55:48.999Z</time></trkpt><trkpt lat="45.62945303679415" lon="11.31050917893819"><ele>228.0</ele><time>2026-04-06T11:55:49.999Z</time></trkpt><trkpt lat="45.629323306591004" lon="11.310587852789741"><ele>227.5</ele><time>2026-04-06T11:55:50.999Z</time></trkpt><trkpt lat="45.629195556864616" lon="11.3106660193948"><ele>227.0</ele><time>2026-04-06T11:55:51.999Z</time></trkpt><trkpt lat="45.62906602710109" lon="11.310745045410462"><ele>227.0</ele><time>2026-04-06T11:55:52.999Z</time></trkpt><trkpt lat="45.62893786264873" lon="11.310826039876813"><ele>227.0</ele><time>2026-04-06T11:55:53.999Z</time></trkpt><trkpt lat="45.62880974924807" lon="11.310906163965827"><ele>227.0</ele><time>2026-04-06T11:55:54.999Z</time></trkpt><trkpt lat="45.62868174108382" lon="11.310986932733128"><ele>227.0</ele><time>2026-04-06T11:55:55.999Z</time></trkpt><trkpt lat="45.628553680580396" lon="11.311064255190312"><ele>226.25</ele><time>2026-04-06T11:55:56.999Z</time></trkpt><trkpt lat="45.62842608426919" lon="11.31114473561701"><ele>225.5</ele><time>2026-04-06T11:55:57.999Z</time></trkpt><trkpt lat="45.628298035416485" lon="11.311226647151376"><ele>224.75</ele><time>2026-04-06T11:55:58.999Z</time></trkpt><trkpt lat="45.62816855600204" lon="11.31131067538044"><ele>224.0</ele><time>2026-04-06T11:55:59.999Z</time></trkpt><trkpt lat="45.62804136920846" lon="11.311393329535601"><ele>224.25</ele><time>2026-04-06T11:56:01Z</time></trkpt><trkpt lat="45.62791320861389" lon="11.31147695614974"><ele>224.5</ele><time>2026-04-06T11:56:02Z</time></trkpt><trkpt lat="45.62778489739315" lon="11.311559234157471"><ele>224.75</ele><time>2026-04-06T11:56:03Z</time></trkpt><trkpt lat="45.627657710415576" lon="11.31164315789797"><ele>225.0</ele><time>2026-04-06T11:56:04Z</time></trkpt><trkpt lat="45.62753192187866" lon="11.31173205023645"><ele>224.5</ele><time>2026-04-06T11:56:05Z</time></trkpt><trkpt lat="45.62740578534023" lon="11.311823647734553"><ele>224.0</ele><time>2026-04-06T11:56:06Z</time></trkpt><trkpt lat="45.627281471347054" lon="11.311917193957521"><ele>223.5</ele><time>2026-04-06T11:56:07Z</time></trkpt><trkpt lat="45.62715958047676" lon="11.312014406554852"><ele>223.0</ele><time>2026-04-06T11:56:08Z</time></trkpt><trkpt lat="45.62703871922938" lon="11.312115610954024"><ele>223.0</ele><time>2026-04-06T11:56:09Z</time></trkpt><trkpt lat="45.62691840208149" lon="11.312221168883827"><ele>223.0</ele><time>2026-04-06T11:56:10Z</time></trkpt><trkpt lat="45.62679856573305" lon="11.31232973482302"><ele>223.0</ele><time>2026-04-06T11:56:11Z</time></trkpt><trkpt lat="45.62668041283217" lon="11.312441422600102"><ele>223.0</ele><time>2026-04-06T11:56:12Z</time></trkpt><trkpt lat="45.62656276913256" lon="11.312554478829663"><ele>223.0</ele><time>2026-04-06T11:56:13Z</time></trkpt><trkpt lat="45.626446467321934" lon="11.312671557637605"><ele>223.0</ele><time>2026-04-06T11:56:14Z</time></trkpt><trkpt lat="45.62633115847367" lon="11.312791910712882"><ele>223.0</ele><time>2026-04-06T11:56:15Z</time></trkpt><trkpt lat="45.62621577729036" lon="11.312916567621915"><ele>223.0</ele><time>2026-04-06T11:56:16Z</time></trkpt><trkpt lat="45.6261003897878" lon="11.313036315567325"><ele>222.0</ele><time>2026-04-06T11:56:17Z</time></trkpt><trkpt lat="45.625986678283624" lon="11.31315776275605"><ele>221.0</ele><time>2026-04-06T11:56:18Z</time></trkpt><trkpt lat="45.62587174250778" lon="11.313277650470596"><ele>220.0</ele><time>2026-04-06T11:56:19Z</time></trkpt><trkpt lat="45.62575705217885" lon="11.313397568687353"><ele>219.0</ele><time>2026-04-06T11:56:20Z</time></trkpt><trkpt lat="45.625641490244085" lon="11.31351768456086"><ele>219.0</ele><time>2026-04-06T11:56:21Z</time></trkpt><trkpt lat="45.625525968013626" lon="11.313638417379718"><ele>219.0</ele><time>2026-04-06T11:56:22Z</time></trkpt><trkpt lat="45.62540903496963" lon="11.313761801265485"><ele>219.0</ele><time>2026-04-06T11:56:23Z</time></trkpt><trkpt lat="45.625293091146354" lon="11.31388761601421"><ele>219.0</ele><time>2026-04-06T11:56:24Z</time></trkpt><trkpt lat="45.62517648370941" lon="11.314012999265161"><ele>218.25</ele><time>2026-04-06T11:56:25Z</time></trkpt><trkpt lat="45.62505733893228" lon="11.31413688539916"><ele>217.5</ele><time>2026-04-06T11:56:26Z</time></trkpt><trkpt lat="45.624941104152775" lon="11.314266741719054"><ele>216.75</ele><time>2026-04-06T11:56:27Z</time></trkpt><trkpt lat="45.624827415232176" lon="11.314403519707366"><ele>216.0</ele><time>2026-04-06T11:56:28Z</time></trkpt><trkpt lat="45.62471421468514" lon="11.314538016591746"><ele>216.0</ele><time>2026-04-06T11:56:29Z</time></trkpt><trkpt lat="45.62460364131476" lon="11.314673901332458"><ele>216.0</ele><time>2026-04-06T11:56:30Z</time></trkpt><trkpt lat="45.62449596510391" lon="11.314813518591878"><ele>216.0</ele><time>2026-04-06T11:56:31Z</time></trkpt><trkpt lat="45.62438953551329" lon="11.314953094090102"><ele>216.0</ele><time>2026-04-06T11:56:32Z</time></trkpt><trkpt lat="45.62428400055488" lon="11.315088977333325"><ele>216.25</ele><time>2026-04-06T11:56:33Z</time></trkpt><trkpt lat="45.62418015279235" lon="11.315228117658457"><ele>216.5</ele><time>2026-04-06T11:56:34Z</time></trkpt><trkpt lat="45.624078745492" lon="11.315366886296848"><ele>216.75</ele><time>2026-04-06T11:56:35Z</time></trkpt><trkpt lat="45.62397588006511" lon="11.315508607349548"><ele>217.0</ele><time>2026-04-06T11:56:36Z</time></trkpt><trkpt lat="45.62387308576254" lon="11.315647520070412"><ele>217.0</ele><time>2026-04-06T11:56:37Z</time></trkpt><trkpt lat="45.623769777281524" lon="11.315786734779206"><ele>217.0</ele><time>2026-04-06T11:56:38Z</time></trkpt><trkpt lat="45.62366683764651" lon="11.315923759688205"><ele>217.0</ele><time>2026-04-06T11:56:39Z</time></trkpt><trkpt lat="45.62356448889668" lon="11.316060655306906"><ele>217.0</ele><time>2026-04-06T11:56:40Z</time></trkpt><trkpt lat="45.62346173325003" lon="11.31620050467306"><ele>217.0</ele><time>2026-04-06T11:56:41Z</time></trkpt><trkpt lat="45.623359281177905" lon="11.316338452999906"><ele>217.0</ele><time>2026-04-06T11:56:42Z</time></trkpt><trkpt lat="45.623258756521416" lon="11.316473649058178"><ele>217.0</ele><time>2026-04-06T11:56:43Z</time></trkpt><trkpt lat="45.62315866405943" lon="11.31660827826789"><ele>217.0</ele><time>2026-04-06T11:56:44Z</time></trkpt><trkpt lat="45.623061205243204" lon="11.316739205762508"><ele>216.5</ele><time>2026-04-06T11:56:45Z</time></trkpt><trkpt lat="45.62296767095615" lon="11.316864807974833"><ele>216.0</ele><time>2026-04-06T11:56:46Z</time></trkpt><trkpt lat="45.62287647531302" lon="11.31698271321787"><ele>215.5</ele><time>2026-04-06T11:56:47Z</time></trkpt><trkpt lat="45.62278791652648" lon="11.31708889675959"><ele>215.0</ele><time>2026-04-06T11:56:48Z</time></trkpt><trkpt lat="45.62269706556127" lon="11.31718351408081"><ele>214.8</ele><time>2026-04-06T11:56:49Z</time></trkpt><trkpt lat="45.62260217169067" lon="11.317261327517869"><ele>214.6</ele><time>2026-04-06T11:56:50Z</time></trkpt><trkpt lat="45.62250540436324" lon="11.317321000517472"><ele>214.39999999999998</ele><time>2026-04-06T11:56:51Z</time></trkpt><trkpt lat="45.622415684283034" lon="11.317383352943297"><ele>214.2</ele><time>2026-04-06T11:56:52Z</time></trkpt><trkpt lat="45.62235658486206" lon="11.317491223681083"><ele>214.0</ele><time>2026-04-06T11:56:53Z</time></trkpt><trkpt lat="45.622311849899994" lon="11.317619533243098"><ele>214.0</ele><time>2026-04-06T11:56:54Z</time></trkpt><trkpt lat="45.62226360592374" lon="11.317749550093941"><ele>214.0</ele><time>2026-04-06T11:56:55Z</time></trkpt><trkpt lat="45.62219341546252" lon="11.317880364222397"><ele>214.0</ele><time>2026-04-06T11:56:56Z</time></trkpt><trkpt lat="45.6221144187911" lon="11.318004147015175"><ele>214.0</ele><time>2026-04-06T11:56:57Z</time></trkpt><trkpt lat="45.622027967084186" lon="11.318127960308747"><ele>213.75</ele><time>2026-04-06T11:56:58Z</time></trkpt><trkpt lat="45.621934795767075" lon="11.318254535074237"><ele>213.5</ele><time>2026-04-06T11:56:59Z</time></trkpt><trkpt lat="45.62183367270799" lon="11.318380870815526"><ele>213.25</ele><time>2026-04-06T11:57:00Z</time></trkpt><trkpt lat="45.62173266887237" lon="11.318514801676901"><ele>213.0</ele><time>2026-04-06T11:57:01Z</time></trkpt><trkpt lat="45.62162831546987" lon="11.318650165839323"><ele>213.0</ele><time>2026-04-06T11:57:02Z</time></trkpt><trkpt lat="45.62152156937305" lon="11.318788485020795"><ele>213.0</ele><time>2026-04-06T11:57:03Z</time></trkpt><trkpt lat="45.62141645364334" lon="11.31892643837154"><ele>213.0</ele><time>2026-04-06T11:57:04Z</time></trkpt><trkpt lat="45.621309272148885" lon="11.319066488321381"><ele>213.0</ele><time>2026-04-06T11:57:05Z</time></trkpt><trkpt lat="45.62120025665782" lon="11.319202721961048"><ele>213.0</ele><time>2026-04-06T11:57:06Z</time></trkpt><trkpt lat="45.62109322749895" lon="11.31934013402671"><ele>213.0</ele><time>2026-04-06T11:57:07Z</time></trkpt><trkpt lat="45.62098605087645" lon="11.319481519680114"><ele>213.0</ele><time>2026-04-06T11:57:08Z</time></trkpt><trkpt lat="45.6208789719038" lon="11.319624194891093"><ele>213.0</ele><time>2026-04-06T11:57:09Z</time></trkpt><trkpt lat="45.62077495405129" lon="11.319765278945473"><ele>212.75</ele><time>2026-04-06T11:57:09.999Z</time></trkpt><trkpt lat="45.620672693633615" lon="11.319911196822668"><ele>212.5</ele><time>2026-04-06T11:57:10.999Z</time></trkpt><trkpt lat="45.620572538198914" lon="11.320057991305433"><ele>212.25</ele><time>2026-04-06T11:57:11.999Z</time></trkpt><trkpt lat="45.620478416988085" lon="11.320211005427499"><ele>212.0</ele><time>2026-04-06T11:57:12.999Z</time></trkpt><trkpt lat="45.62039123687376" lon="11.320373702050187"><ele>211.75</ele><time>2026-04-06T11:57:13.999Z</time></trkpt><trkpt lat="45.620306195479465" lon="11.320540711966828"><ele>211.5</ele><time>2026-04-06T11:57:14.999Z</time></trkpt><trkpt lat="45.62022222428082" lon="11.320708170295264"><ele>211.25</ele><time>2026-04-06T11:57:15.999Z</time></trkpt><trkpt lat="45.62013843578217" lon="11.32087589432551"><ele>211.0</ele><time>2026-04-06T11:57:16.999Z</time></trkpt><trkpt lat="45.62005484648719" lon="11.32104661557123"><ele>211.0</ele><time>2026-04-06T11:57:17.999Z</time></trkpt><trkpt lat="45.6199687665899" lon="11.321215855972754"><ele>211.0</ele><time>2026-04-06T11:57:18.999Z</time></trkpt><trkpt lat="45.619880008868" lon="11.321380808350904"><ele>211.0</ele><time>2026-04-06T11:57:19.999Z</time></trkpt><trkpt lat="45.61978986942228" lon="11.321546991579218"><ele>211.0</ele><time>2026-04-06T11:57:20.999Z</time></trkpt><trkpt lat="45.61970187626056" lon="11.321712392182421"><ele>211.0</ele><time>2026-04-06T11:57:21.999Z</time></trkpt><trkpt lat="45.61961466048135" lon="11.321881601136424"><ele>211.0</ele><time>2026-04-06T11:57:22.999Z</time></trkpt><trkpt lat="45.61953132809932" lon="11.322055751141201"><ele>211.0</ele><time>2026-04-06T11:57:23.999Z</time></trkpt><trkpt lat="45.61945463436635" lon="11.322240126983296"><ele>211.0</ele><time>2026-04-06T11:57:24.999Z</time></trkpt><trkpt lat="45.61937808338969" lon="11.322423482467531"><ele>210.33333333333331</ele><time>2026-04-06T11:57:25.999Z</time></trkpt><trkpt lat="45.61929804928626" lon="11.322603889212063"><ele>209.66666666666669</ele><time>2026-04-06T11:57:26.999Z</time></trkpt><trkpt lat="45.61921338972548" lon="11.322781413723012"><ele>209.0</ele><time>2026-04-06T11:57:27.999Z</time></trkpt><trkpt lat="45.6191254514916" lon="11.322957124535671"><ele>209.66666666666669</ele><time>2026-04-06T11:57:28.999Z</time></trkpt><trkpt lat="45.61903704417594" lon="11.323135576826932"><ele>210.33333333333331</ele><time>2026-04-06T11:57:29.999Z</time></trkpt><trkpt lat="45.61895133581097" lon="11.323313972460287"><ele>211.0</ele><time>2026-04-06T11:57:30.999Z</time></trkpt><trkpt lat="45.618865352130115" lon="11.323494241011781"><ele>211.0</ele><time>2026-04-06T11:57:31.999Z</time></trkpt><trkpt lat="45.61877670697711" lon="11.323671621684902"><ele>211.0</ele><time>2026-04-06T11:57:32.999Z</time></trkpt><trkpt lat="45.6186875695504" lon="11.32384859755766"><ele>211.0</ele><time>2026-04-06T11:57:33.999Z</time></trkpt><trkpt lat="45.61859886633645" lon="11.324024616215494"><ele>210.0</ele><time>2026-04-06T11:57:34.999Z</time></trkpt><trkpt lat="45.61850848610446" lon="11.324199055881252"><ele>209.0</ele><time>2026-04-06T11:57:35.999Z</time></trkpt><trkpt lat="45.61841789545243" lon="11.324373264021556"><ele>208.0</ele><time>2026-04-06T11:57:36.999Z</time></trkpt><trkpt lat="45.61832766482216" lon="11.324546814475324"><ele>208.0</ele><time>2026-04-06T11:57:37.999Z</time></trkpt><trkpt lat="45.61823801935708" lon="11.324721988806331"><ele>208.0</ele><time>2026-04-06T11:57:38.999Z</time></trkpt><trkpt lat="45.61814900364685" lon="11.324898346895438"><ele>208.0</ele><time>2026-04-06T11:57:39.999Z</time></trkpt><trkpt lat="45.61806152514804" lon="11.32507430073373"><ele>208.0</ele><time>2026-04-06T11:57:40.999Z</time></trkpt><trkpt lat="45.61797561242441" lon="11.325250231963004"><ele>208.0</ele><time>2026-04-06T11:57:41.999Z</time></trkpt><trkpt lat="45.61789037608612" lon="11.325427151826855"><ele>208.0</ele><time>2026-04-06T11:57:42.999Z</time></trkpt><trkpt lat="45.61780459360264" lon="11.325604071811467"><ele>208.0</ele><time>2026-04-06T11:57:43.999Z</time></trkpt><trkpt lat="45.6177206108554" lon="11.325782442248617"><ele>208.0</ele><time>2026-04-06T11:57:44.999Z</time></trkpt><trkpt lat="45.61763835997853" lon="11.325961879028208"><ele>208.0</ele><time>2026-04-06T11:57:45.999Z</time></trkpt><trkpt lat="45.61755615701465" lon="11.32614136826946"><ele>208.0</ele><time>2026-04-06T11:57:46.999Z</time></trkpt><trkpt lat="45.6174728365334" lon="11.326318354302709"><ele>208.0</ele><time>2026-04-06T11:57:47.999Z</time></trkpt><trkpt lat="45.617387612085494" lon="11.326494898082013"><ele>208.0</ele><time>2026-04-06T11:57:48.999Z</time></trkpt><trkpt lat="45.61730050313628" lon="11.326671061025346"><ele>208.0</ele><time>2026-04-06T11:57:49.999Z</time></trkpt><trkpt lat="45.61721460859973" lon="11.326848509967437"><ele>208.0</ele><time>2026-04-06T11:57:50.999Z</time></trkpt><trkpt lat="45.61712847203389" lon="11.327025288781254"><ele>208.0</ele><time>2026-04-06T11:57:51.999Z</time></trkpt><trkpt lat="45.61703956187031" lon="11.32720312397868"><ele>206.33333333333331</ele><time>2026-04-06T11:57:52.999Z</time></trkpt><trkpt lat="45.616949685467226" lon="11.32737869018223"><ele>204.66666666666669</ele><time>2026-04-06T11:57:53.999Z</time></trkpt><trkpt lat="45.61685782938309" lon="11.327550132559699"><ele>203.0</ele><time>2026-04-06T11:57:54.999Z</time></trkpt><trkpt lat="45.616764152230886" lon="11.327719471593047"><ele>203.0</ele><time>2026-04-06T11:57:55.999Z</time></trkpt><trkpt lat="45.61667124197302" lon="11.327890727194882"><ele>203.0</ele><time>2026-04-06T11:57:57Z</time></trkpt><trkpt lat="45.616581218492065" lon="11.328061455256947"><ele>203.0</ele><time>2026-04-06T11:57:58Z</time></trkpt><trkpt lat="45.6164944675471" lon="11.32823312307674"><ele>203.0</ele><time>2026-04-06T11:57:59Z</time></trkpt><trkpt lat="45.61641130479647" lon="11.32840398563773"><ele>203.5</ele><time>2026-04-06T11:58:00Z</time></trkpt><trkpt lat="45.61632927703171" lon="11.328570325767904"><ele>204.0</ele><time>2026-04-06T11:58:01Z</time></trkpt><trkpt lat="45.61624563891194" lon="11.328733618588435"><ele>204.5</ele><time>2026-04-06T11:58:02Z</time></trkpt><trkpt lat="45.616158248179936" lon="11.328890384067163"><ele>205.0</ele><time>2026-04-06T11:58:03Z</time></trkpt><trkpt lat="45.61606575495933" lon="11.329028934765548"><ele>204.0</ele><time>2026-04-06T11:58:04Z</time></trkpt><trkpt lat="45.615968640119355" lon="11.329150932952633"><ele>203.0</ele><time>2026-04-06T11:58:05Z</time></trkpt><trkpt lat="45.61587491609603" lon="11.329258420521551"><ele>202.0</ele><time>2026-04-06T11:58:06Z</time></trkpt><trkpt lat="45.615773560506575" lon="11.329353459675724"><ele>201.0</ele><time>2026-04-06T11:58:07Z</time></trkpt><trkpt lat="45.61566235326533" lon="11.329406744764253"><ele>201.0</ele><time>2026-04-06T11:58:08Z</time></trkpt><trkpt lat="45.615547331476925" lon="11.329439277018562"><ele>201.0</ele><time>2026-04-06T11:58:09Z</time></trkpt><trkpt lat="45.61544304434626" lon="11.329508829324475"><ele>201.0</ele><time>2026-04-06T11:58:10Z</time></trkpt><trkpt lat="45.61535143149859" lon="11.329614768752315"><ele>201.0</ele><time>2026-04-06T11:58:11Z</time></trkpt><trkpt lat="45.61526681300258" lon="11.329739888547243"><ele>200.25</ele><time>2026-04-06T11:58:12Z</time></trkpt><trkpt lat="45.61516746713842" lon="11.3298401035241"><ele>199.5</ele><time>2026-04-06T11:58:13Z</time></trkpt><trkpt lat="45.615056223171244" lon="11.329913879288368"><ele>198.75</ele><time>2026-04-06T11:58:14Z</time></trkpt><trkpt lat="45.61494010502056" lon="11.329970228384438"><ele>198.0</ele><time>2026-04-06T11:58:15Z</time></trkpt><trkpt lat="45.614825923880204" lon="11.33002089493372"><ele>198.0</ele><time>2026-04-06T11:58:16Z</time></trkpt><trkpt lat="45.6147179765698" lon="11.330069434983375"><ele>198.0</ele><time>2026-04-06T11:58:17Z</time></trkpt><trkpt lat="45.614613014143146" lon="11.33012142948215"><ele>198.0</ele><time>2026-04-06T11:58:18Z</time></trkpt><trkpt lat="45.61450970489815" lon="11.330153546560608"><ele>198.0</ele><time>2026-04-06T11:58:19Z</time></trkpt><trkpt lat="45.61440828531885" lon="11.33015366083062"><ele>198.0</ele><time>2026-04-06T11:58:20Z</time></trkpt><trkpt lat="45.614318217088865" lon="11.330106504541543"><ele>197.83333333333334</ele><time>2026-04-06T11:58:21Z</time></trkpt><trkpt lat="45.61424738476107" lon="11.33004812731837"><ele>197.66666666666669</ele><time>2026-04-06T11:58:22Z</time></trkpt><trkpt lat="45.61417117778117" lon="11.3299749652055"><ele>197.5</ele><time>2026-04-06T11:58:24Z</time></trkpt><trkpt lat="45.61412459822383" lon="11.329891554337614"><ele>197.33333333333334</ele><time>2026-04-06T12:00:32Z</time></trkpt><trkpt lat="45.61403791701688" lon="11.32988336694348"><ele>197.16666666666669</ele><time>2026-04-06T12:00:34Z</time></trkpt><trkpt lat="45.61394000470633" lon="11.329905674836665"><ele>197.0</ele><time>2026-04-06T12:00:36Z</time></trkpt><trkpt lat="45.61381394758833" lon="11.32996898883724"><ele>197.0</ele><time>2026-04-06T12:00:38Z</time></trkpt><trkpt lat="45.61374515361749" lon="11.330048847257792"><ele>197.0</ele><time>2026-04-06T12:00:39Z</time></trkpt><trkpt lat="45.61368739002777" lon="11.330156160639918"><ele>197.0</ele><time>2026-04-06T12:00:40Z</time></trkpt><trkpt lat="45.61365293042071" lon="11.330272804595985"><ele>197.0</ele><time>2026-04-06T12:00:41Z</time></trkpt><trkpt lat="45.613641399554155" lon="11.330394496600736"><ele>197.0</ele><time>2026-04-06T12:00:42Z</time></trkpt><trkpt lat="45.613649623883205" lon="11.330537440186534"><ele>196.75</ele><time>2026-04-06T12:00:43Z</time></trkpt><trkpt lat="45.61367244561558" lon="11.330690188470491"><ele>196.5</ele><time>2026-04-06T12:00:44Z</time></trkpt><trkpt lat="45.61370088775282" lon="11.330858475955113"><ele>196.25</ele><time>2026-04-06T12:00:45Z</time></trkpt><trkpt lat="45.613721062219234" lon="11.331042694740605"><ele>196.0</ele><time>2026-04-06T12:00:46Z</time></trkpt><trkpt lat="45.613715555491495" lon="11.331238178972585"><ele>196.0</ele><time>2026-04-06T12:00:47Z</time></trkpt><trkpt lat="45.61367515000912" lon="11.331419398750995"><ele>196.0</ele><time>2026-04-06T12:00:48Z</time></trkpt><trkpt lat="45.613616025543536" lon="11.33160364107233"><ele>196.0</ele><time>2026-04-06T12:00:49Z</time></trkpt><trkpt lat="45.613553789238246" lon="11.331801306190812"><ele>196.0</ele><time>2026-04-06T12:00:50Z</time></trkpt><trkpt lat="45.61348949515603" lon="11.332012192444616"><ele>195.33333333333331</ele><time>2026-04-06T12:00:51Z</time></trkpt><trkpt lat="45.613416797755924" lon="11.332227005090076"><ele>194.66666666666669</ele><time>2026-04-06T12:00:52Z</time></trkpt><trkpt lat="45.61333521517936" lon="11.332441116121187"><ele>194.0</ele><time>2026-04-06T12:00:53Z</time></trkpt><trkpt lat="45.61324738893789" lon="11.332657416002498"><ele>194.0</ele><time>2026-04-06T12:00:54Z</time></trkpt><trkpt lat="45.61315311047586" lon="11.33287410129576"><ele>194.0</ele><time>2026-04-06T12:00:55Z</time></trkpt><trkpt lat="45.61305240918487" lon="11.33309282225076"><ele>194.0</ele><time>2026-04-06T12:00:56Z</time></trkpt><trkpt lat="45.612946413019756" lon="11.333312357283978"><ele>193.66666666666669</ele><time>2026-04-06T12:00:57Z</time></trkpt><trkpt lat="45.61283696335896" lon="11.333534112647142"><ele>193.33333333333331</ele><time>2026-04-06T12:00:58Z</time></trkpt><trkpt lat="45.612726393748424" lon="11.333759130296498"><ele>193.0</ele><time>2026-04-06T12:00:59Z</time></trkpt><trkpt lat="45.612614915058465" lon="11.333989201020666"><ele>194.0</ele><time>2026-04-06T12:01:00Z</time></trkpt><trkpt lat="45.6125028849681" lon="11.334221013457324"><ele>195.0</ele><time>2026-04-06T12:01:01Z</time></trkpt><trkpt lat="45.612389267574876" lon="11.334455846244827"><ele>196.0</ele><time>2026-04-06T12:01:02Z</time></trkpt><trkpt lat="45.61227566158747" lon="11.334693419234435"><ele>195.33333333333331</ele><time>2026-04-06T12:01:03Z</time></trkpt><trkpt lat="45.6121604758754" lon="11.334932710474241"><ele>194.66666666666669</ele><time>2026-04-06T12:01:04Z</time></trkpt><trkpt lat="45.612044664480536" lon="11.335176951443975"><ele>194.0</ele><time>2026-04-06T12:01:05Z</time></trkpt><trkpt lat="45.61192795048275" lon="11.335423351494708"><ele>193.66666666666669</ele><time>2026-04-06T12:01:06Z</time></trkpt><trkpt lat="45.61181095643583" lon="11.335672346084241"><ele>193.33333333333331</ele><time>2026-04-06T12:01:07Z</time></trkpt><trkpt lat="45.61169371354748" lon="11.33592216155768"><ele>193.0</ele><time>2026-04-06T12:01:08Z</time></trkpt><trkpt lat="45.611576266093444" lon="11.33617412268807"><ele>193.0</ele><time>2026-04-06T12:01:09Z</time></trkpt><trkpt lat="45.611463017125615" lon="11.336430945374884"><ele>193.0</ele><time>2026-04-06T12:01:10Z</time></trkpt><trkpt lat="45.6113566421886" lon="11.33669583416293"><ele>193.0</ele><time>2026-04-06T12:01:11Z</time></trkpt><trkpt lat="45.611254117122115" lon="11.336966474006134"><ele>192.0</ele><time>2026-04-06T12:01:12Z</time></trkpt><trkpt lat="45.611156409780705" lon="11.337242666743823"><ele>191.0</ele><time>2026-04-06T12:01:13Z</time></trkpt><trkpt lat="45.61106180131013" lon="11.337526220578383"><ele>190.0</ele><time>2026-04-06T12:01:14Z</time></trkpt><trkpt lat="45.61096867766768" lon="11.337814044341906"><ele>190.33333333333334</ele><time>2026-04-06T12:01:15Z</time></trkpt><trkpt lat="45.61087384083178" lon="11.3381017830343"><ele>190.66666666666666</ele><time>2026-04-06T12:01:16Z</time></trkpt><trkpt lat="45.61077882574287" lon="11.338392798408098"><ele>191.0</ele><time>2026-04-06T12:01:17Z</time></trkpt><trkpt lat="45.61068399025191" lon="11.338688596727263"><ele>191.0</ele><time>2026-04-06T12:01:18Z</time></trkpt><trkpt lat="45.61059421852102" lon="11.338981422689429"><ele>191.0</ele><time>2026-04-06T12:01:19Z</time></trkpt><trkpt lat="45.61050798634068" lon="11.339273223974592"><ele>191.0</ele><time>2026-04-06T12:01:20Z</time></trkpt><trkpt lat="45.61042446373685" lon="11.339566671505406"><ele>190.33333333333331</ele><time>2026-04-06T12:01:21Z</time></trkpt><trkpt lat="45.61034144039038" lon="11.339860168197104"><ele>189.66666666666666</ele><time>2026-04-06T12:01:22Z</time></trkpt><trkpt lat="45.61025470413141" lon="11.340154629277885"><ele>189.0</ele><time>2026-04-06T12:01:23.015Z</time></trkpt><trkpt lat="45.61016505201601" lon="11.340439938890807"><ele>189.66666666666666</ele><time>2026-04-06T12:01:24.018Z</time></trkpt><trkpt lat="45.61007319815496" lon="11.340718715144492"><ele>190.33333333333331</ele><time>2026-04-06T12:01:25.015Z</time></trkpt><trkpt lat="45.60997100938063" lon="11.34098796901631"><ele>191.0</ele><time>2026-04-06T12:01:26.013Z</time></trkpt><trkpt lat="45.60986190073266" lon="11.341251759359182"><ele>185.0</ele><time>2026-04-06T12:01:27.013Z</time></trkpt><trkpt lat="45.608351618428436" lon="11.344035503585163"><ele>185.0</ele><time>2026-04-06T12:01:31.339Z</time></trkpt><trkpt lat="45.608083858156625" lon="11.344552222489748"><ele>185.0</ele><time>2026-04-06T12:01:32.341Z</time></trkpt><trkpt lat="45.6079566" lon="11.3447995"><ele>185.0</ele><time>2026-04-06T12:01:33.341Z</time></trkpt><trkpt lat="45.607328102966406" lon="11.345987711112336"><ele>183.0</ele><time>2026-04-06T12:01:45Z</time></trkpt><trkpt lat="45.60718571335016" lon="11.346257768019523"><ele>181.0</ele><time>2026-04-06T12:01:46Z</time></trkpt><trkpt lat="45.607032417021074" lon="11.34653066166603"><ele>179.0</ele><time>2026-04-06T12:01:47Z</time></trkpt><trkpt lat="45.60689182403858" lon="11.346811075629551"><ele>177.0</ele><time>2026-04-06T12:01:48Z</time></trkpt><trkpt lat="45.60673695351854" lon="11.347066043030406"><ele>179.0</ele><time>2026-04-06T12:01:49Z</time></trkpt><trkpt lat="45.60659292769889" lon="11.347337424577587"><ele>181.0</ele><time>2026-04-06T12:01:50Z</time></trkpt><trkpt lat="45.60644932103152" lon="11.347607779513849"><ele>181.0</ele><time>2026-04-06T12:01:51Z</time></trkpt><trkpt lat="45.606306778683354" lon="11.347876782909308"><ele>181.0</ele><time>2026-04-06T12:01:52Z</time></trkpt><trkpt lat="45.6061628642083" lon="11.348147528446654"><ele>180.0</ele><time>2026-04-06T12:01:53Z</time></trkpt><trkpt lat="45.60601872612848" lon="11.348422176452383"><ele>179.0</ele><time>2026-04-06T12:01:54Z</time></trkpt><trkpt lat="45.6058859343487" lon="11.348707888056795"><ele>179.0</ele><time>2026-04-06T12:01:55Z</time></trkpt><trkpt lat="45.60573989906498" lon="11.348980694433523"><ele>179.0</ele><time>2026-04-06T12:01:56Z</time></trkpt><trkpt lat="45.60559311045254" lon="11.34925294552516"><ele>179.0</ele><time>2026-04-06T12:01:57Z</time></trkpt><trkpt lat="45.60544602519226" lon="11.349528688549801"><ele>179.0</ele><time>2026-04-06T12:01:58Z</time></trkpt><trkpt lat="45.60529940070541" lon="11.34980680609371"><ele>179.0</ele><time>2026-04-06T12:01:59Z</time></trkpt><trkpt lat="45.60515250425933" lon="11.350083798915184"><ele>179.0</ele><time>2026-04-06T12:02:00Z</time></trkpt><trkpt lat="45.60500498797379" lon="11.350361888612868"><ele>179.5</ele><time>2026-04-06T12:02:01Z</time></trkpt><trkpt lat="45.6048575575488" lon="11.350641886459828"><ele>180.0</ele><time>2026-04-06T12:02:02Z</time></trkpt><trkpt lat="45.60470960804151" lon="11.350921368235424"><ele>180.0</ele><time>2026-04-06T12:02:03Z</time></trkpt><trkpt lat="45.604560434236056" lon="11.351201126985933"><ele>180.0</ele><time>2026-04-06T12:02:04Z</time></trkpt><trkpt lat="45.60441208672066" lon="11.351481389273882"><ele>178.0</ele><time>2026-04-06T12:02:05Z</time></trkpt><trkpt lat="45.604264449823184" lon="11.351761674451325"><ele>176.0</ele><time>2026-04-06T12:02:06Z</time></trkpt><trkpt lat="45.60411662852479" lon="11.352038616147473"><ele>176.0</ele><time>2026-04-06T12:02:07Z</time></trkpt><trkpt lat="45.603968387770905" lon="11.352311332102499"><ele>176.0</ele><time>2026-04-06T12:02:08Z</time></trkpt><trkpt lat="45.60382171295673" lon="11.352585183380382"><ele>176.0</ele><time>2026-04-06T12:02:09Z</time></trkpt><trkpt lat="45.603676149497595" lon="11.352856750978242"><ele>176.0</ele><time>2026-04-06T12:02:10Z</time></trkpt><trkpt lat="45.6035308924053" lon="11.353125867867895"><ele>175.5</ele><time>2026-04-06T12:02:11Z</time></trkpt><trkpt lat="45.60338630359887" lon="11.353395219400163"><ele>175.0</ele><time>2026-04-06T12:02:12Z</time></trkpt><trkpt lat="45.603243371673095" lon="11.353663983597947"><ele>175.0</ele><time>2026-04-06T12:02:13Z</time></trkpt><trkpt lat="45.60309846904168" lon="11.353930798184642"><ele>175.0</ele><time>2026-04-06T12:02:14Z</time></trkpt><trkpt lat="45.60294712285553" lon="11.354190856063925"><ele>174.5</ele><time>2026-04-06T12:02:15Z</time></trkpt><trkpt lat="45.60279007065744" lon="11.354445647472335"><ele>174.0</ele><time>2026-04-06T12:02:16Z</time></trkpt><trkpt lat="45.60262714253581" lon="11.354695510824092"><ele>174.5</ele><time>2026-04-06T12:02:17Z</time></trkpt><trkpt lat="45.602462771057745" lon="11.354943097161295"><ele>175.0</ele><time>2026-04-06T12:02:18Z</time></trkpt><trkpt lat="45.60229724475337" lon="11.355191708191557"><ele>175.0</ele><time>2026-04-06T12:02:19Z</time></trkpt><trkpt lat="45.60213222549042" lon="11.355441745691358"><ele>175.0</ele><time>2026-04-06T12:02:20Z</time></trkpt><trkpt lat="45.60196731844879" lon="11.355691923912907"><ele>174.0</ele><time>2026-04-06T12:02:21Z</time></trkpt><trkpt lat="45.601802988956734" lon="11.355943711666663"><ele>173.0</ele><time>2026-04-06T12:02:22Z</time></trkpt><trkpt lat="45.60163890859881" lon="11.356196779216083"><ele>173.0</ele><time>2026-04-06T12:02:23Z</time></trkpt><trkpt lat="45.60147597988539" lon="11.35644631683937"><ele>173.0</ele><time>2026-04-06T12:02:24Z</time></trkpt><trkpt lat="45.60131250265806" lon="11.356694209891296"><ele>173.0</ele><time>2026-04-06T12:02:25Z</time></trkpt><trkpt lat="45.60115124449457" lon="11.35693944211478"><ele>173.0</ele><time>2026-04-06T12:02:26Z</time></trkpt><trkpt lat="45.600994174968875" lon="11.357176967181127"><ele>173.0</ele><time>2026-04-06T12:02:27Z</time></trkpt><trkpt lat="45.60084204051405" lon="11.357408827849927"><ele>173.0</ele><time>2026-04-06T12:02:28Z</time></trkpt><trkpt lat="45.6006931136597" lon="11.357636688212816"><ele>173.0</ele><time>2026-04-06T12:02:29Z</time></trkpt><trkpt lat="45.60054993098467" lon="11.357855710078308"><ele>172.33333333333331</ele><time>2026-04-06T12:02:30Z</time></trkpt><trkpt lat="45.600411973638934" lon="11.358064659591207"><ele>171.66666666666666</ele><time>2026-04-06T12:02:31Z</time></trkpt><trkpt lat="45.60027824783529" lon="11.358266121044178"><ele>171.0</ele><time>2026-04-06T12:02:32Z</time></trkpt><trkpt lat="45.60014671916002" lon="11.358463922551525"><ele>170.66666666666666</ele><time>2026-04-06T12:02:33Z</time></trkpt><trkpt lat="45.6000151388063" lon="11.35864825999096"><ele>170.33333333333331</ele><time>2026-04-06T12:02:34Z</time></trkpt><trkpt lat="45.59987490251162" lon="11.358812544475299"><ele>170.0</ele><time>2026-04-06T12:02:35Z</time></trkpt><trkpt lat="45.59972483473263" lon="11.35895800075884"><ele>170.0</ele><time>2026-04-06T12:02:36Z</time></trkpt><trkpt lat="45.59956305844793" lon="11.359078027131977"><ele>170.0</ele><time>2026-04-06T12:02:37Z</time></trkpt><trkpt lat="45.59939605903015" lon="11.359177318516405"><ele>170.0</ele><time>2026-04-06T12:02:38Z</time></trkpt><trkpt lat="45.59923025045515" lon="11.359246650048926"><ele>169.66666666666666</ele><time>2026-04-06T12:02:39Z</time></trkpt><trkpt lat="45.59907062089341" lon="11.359301679906613"><ele>169.33333333333334</ele><time>2026-04-06T12:02:40Z</time></trkpt><trkpt lat="45.59891501364514" lon="11.359340360197322"><ele>169.0</ele><time>2026-04-06T12:02:41Z</time></trkpt><trkpt lat="45.59876404508884" lon="11.359360587690427"><ele>167.75</ele><time>2026-04-06T12:02:42Z</time></trkpt><trkpt lat="45.598619550399825" lon="11.359377689005898"><ele>166.5</ele><time>2026-04-06T12:02:43Z</time></trkpt><trkpt lat="45.598492699795706" lon="11.35943475930199"><ele>165.25</ele><time>2026-04-06T12:02:44Z</time></trkpt><trkpt lat="45.5983898791065" lon="11.359540954744357"><ele>164.0</ele><time>2026-04-06T12:02:45Z</time></trkpt><trkpt lat="45.59831674178325" lon="11.359678229625507"><ele>164.0</ele><time>2026-04-06T12:02:46Z</time></trkpt><trkpt lat="45.59827594306378" lon="11.359831836393072"><ele>164.0</ele><time>2026-04-06T12:02:47Z</time></trkpt><trkpt lat="45.59827101792027" lon="11.359994499169442"><ele>164.0</ele><time>2026-04-06T12:02:48Z</time></trkpt><trkpt lat="45.59830361796959" lon="11.360144085808152"><ele>164.0</ele><time>2026-04-06T12:02:49Z</time></trkpt><trkpt lat="45.598371350570275" lon="11.360273788385054"><ele>164.0</ele><time>2026-04-06T12:02:50Z</time></trkpt><trkpt lat="45.59845934733338" lon="11.36036664282944"><ele>164.0</ele><time>2026-04-06T12:02:51Z</time></trkpt><trkpt lat="45.59855482054959" lon="11.360431855812049"><ele>164.0</ele><time>2026-04-06T12:02:52Z</time></trkpt><trkpt lat="45.59864862938026" lon="11.360487965095803"><ele>164.0</ele><time>2026-04-06T12:02:53Z</time></trkpt><trkpt lat="45.59874133476634" lon="11.360547576884516"><ele>164.0</ele><time>2026-04-06T12:02:54Z</time></trkpt><trkpt lat="45.59883455301176" lon="11.360612930243759"><ele>164.6</ele><time>2026-04-06T12:02:55Z</time></trkpt><trkpt lat="45.59892766989494" lon="11.360679475253809"><ele>165.2</ele><time>2026-04-06T12:02:56Z</time></trkpt><trkpt lat="45.5990204322619" lon="11.360747237258183"><ele>165.79999999999998</ele><time>2026-04-06T12:02:57Z</time></trkpt><trkpt lat="45.59911429265873" lon="11.360813947123214"><ele>166.39999999999998</ele><time>2026-04-06T12:02:58Z</time></trkpt><trkpt lat="45.599211927934746" lon="11.360881458000044"><ele>167.0</ele><time>2026-04-06T12:02:59Z</time></trkpt><trkpt lat="45.59931126550538" lon="11.360949847119956"><ele>167.0</ele><time>2026-04-06T12:03:00Z</time></trkpt><trkpt lat="45.599405732590995" lon="11.361016807847667"><ele>167.0</ele><time>2026-04-06T12:03:01Z</time></trkpt><trkpt lat="45.59948968688258" lon="11.361078553564079"><ele>167.0</ele><time>2026-04-06T12:03:02Z</time></trkpt><trkpt lat="45.59956559788062" lon="11.361135203869225"><ele>167.0</ele><time>2026-04-06T12:03:03Z</time></trkpt><trkpt lat="45.599631364844925" lon="11.361205650850648"><ele>167.0</ele><time>2026-04-06T12:03:04Z</time></trkpt><trkpt lat="45.599681048688105" lon="11.361292178607258"><ele>167.0</ele><time>2026-04-06T12:03:05Z</time></trkpt><trkpt lat="45.59971747266002" lon="11.361391096494877"><ele>167.16666666666666</ele><time>2026-04-06T12:03:06Z</time></trkpt><trkpt lat="45.599746551143056" lon="11.361491093835353"><ele>167.33333333333331</ele><time>2026-04-06T12:03:07Z</time></trkpt><trkpt lat="45.599772504982" lon="11.361591332635314"><ele>167.5</ele><time>2026-04-06T12:03:08Z</time></trkpt><trkpt lat="45.59981590914422" lon="11.361685016525957"><ele>167.66666666666666</ele><time>2026-04-06T12:03:09Z</time></trkpt><trkpt lat="45.59988169717085" lon="11.361767025570357"><ele>167.83333333333334</ele><time>2026-04-06T12:03:10Z</time></trkpt><trkpt lat="45.59995324240597" lon="11.361831127975382"><ele>168.0</ele><time>2026-04-06T12:03:11Z</time></trkpt><trkpt lat="45.60002020295026" lon="11.36188979547693"><ele>168.0</ele><time>2026-04-06T12:03:12Z</time></trkpt><trkpt lat="45.60008173389684" lon="11.361958597311183"><ele>168.0</ele><time>2026-04-06T12:03:13Z</time></trkpt><trkpt lat="45.6001349526893" lon="11.362043545058516"><ele>168.0</ele><time>2026-04-06T12:03:14Z</time></trkpt><trkpt lat="45.60017092007134" lon="11.36215035526029"><ele>168.0</ele><time>2026-04-06T12:03:15Z</time></trkpt><trkpt lat="45.60018103326287" lon="11.362270905634212"><ele>168.0</ele><time>2026-04-06T12:03:16Z</time></trkpt><trkpt lat="45.60015925774746" lon="11.362393531625699"><ele>168.0</ele><time>2026-04-06T12:03:17Z</time></trkpt><trkpt lat="45.60012237203056" lon="11.36250956741619"><ele>168.0</ele><time>2026-04-06T12:03:18Z</time></trkpt><trkpt lat="45.600078071834815" lon="11.362626389617102"><ele>168.0</ele><time>2026-04-06T12:03:19Z</time></trkpt><trkpt lat="45.60002807423829" lon="11.36274981250482"><ele>168.0</ele><time>2026-04-06T12:03:20Z</time></trkpt><trkpt lat="45.5999747412747" lon="11.362883008571439"><ele>168.0</ele><time>2026-04-06T12:03:21Z</time></trkpt><trkpt lat="45.599918875466805" lon="11.36302216062093"><ele>168.0</ele><time>2026-04-06T12:03:22Z</time></trkpt><trkpt lat="45.59986275207519" lon="11.363156860224061"><ele>168.2</ele><time>2026-04-06T12:03:23Z</time></trkpt><trkpt lat="45.59980956073637" lon="11.363283663331124"><ele>168.4</ele><time>2026-04-06T12:03:24Z</time></trkpt><trkpt lat="45.599752904344165" lon="11.363412986748942"><ele>168.6</ele><time>2026-04-06T12:03:25Z</time></trkpt><trkpt lat="45.59969583307434" lon="11.363546204997283"><ele>168.79999999999998</ele><time>2026-04-06T12:03:26Z</time></trkpt><trkpt lat="45.59964003828877" lon="11.363686158746493"><ele>169.0</ele><time>2026-04-06T12:03:27Z</time></trkpt><trkpt lat="45.599584646906045" lon="11.363826512365405"><ele>168.6</ele><time>2026-04-06T12:03:28Z</time></trkpt><trkpt lat="45.599528418046816" lon="11.36396716239723"><ele>168.2</ele><time>2026-04-06T12:03:29Z</time></trkpt><trkpt lat="45.599473173403396" lon="11.364103877019778"><ele>167.79999999999998</ele><time>2026-04-06T12:03:30Z</time></trkpt><trkpt lat="45.59941995630976" lon="11.364235437329045"><ele>167.39999999999998</ele><time>2026-04-06T12:03:31Z</time></trkpt><trkpt lat="45.59936623555187" lon="11.364362220902253"><ele>167.0</ele><time>2026-04-06T12:03:32Z</time></trkpt><trkpt lat="45.599314294197804" lon="11.364481902048448"><ele>166.66666666666666</ele><time>2026-04-06T12:03:33Z</time></trkpt><trkpt lat="45.59926695229921" lon="11.36459975094789"><ele>166.33333333333331</ele><time>2026-04-06T12:03:34Z</time></trkpt><trkpt lat="45.59922229025086" lon="11.364712835144198"><ele>166.0</ele><time>2026-04-06T12:03:35Z</time></trkpt><trkpt lat="45.59917898519882" lon="11.36482015629611"><ele>165.66666666666666</ele><time>2026-04-06T12:03:36Z</time></trkpt><trkpt lat="45.5991346884527" lon="11.364923818231219"><ele>165.33333333333334</ele><time>2026-04-06T12:03:37Z</time></trkpt><trkpt lat="45.59909282129368" lon="11.365021020350452"><ele>165.0</ele><time>2026-04-06T12:03:38Z</time></trkpt><trkpt lat="45.59905396165036" lon="11.365111536942784"><ele>164.83333333333334</ele><time>2026-04-06T12:03:39Z</time></trkpt><trkpt lat="45.59901166983341" lon="11.365196761801966"><ele>164.66666666666666</ele><time>2026-04-06T12:03:40Z</time></trkpt><trkpt lat="45.59896241228453" lon="11.365271904095323"><ele>164.5</ele><time>2026-04-06T12:03:41Z</time></trkpt><trkpt lat="45.5989044415244" lon="11.365333384625949"><ele>164.33333333333331</ele><time>2026-04-06T12:03:42Z</time></trkpt><trkpt lat="45.59883856849949" lon="11.365390044201847"><ele>164.16666666666666</ele><time>2026-04-06T12:03:43Z</time></trkpt><trkpt lat="45.5987787412912" lon="11.365462055432832"><ele>164.0</ele><time>2026-04-06T12:03:44Z</time></trkpt><trkpt lat="45.59872356869923" lon="11.365547325119874"><ele>164.33333333333331</ele><time>2026-04-06T12:03:45Z</time></trkpt><trkpt lat="45.598718189376434" lon="11.36567405728406"><ele>164.66666666666666</ele><time>2026-04-06T12:03:46Z</time></trkpt><trkpt lat="45.59870562336015" lon="11.365781891225023"><ele>165.0</ele><time>2026-04-06T12:03:47Z</time></trkpt><trkpt lat="45.59868594854256" lon="11.365892390911833"><ele>165.33333333333334</ele><time>2026-04-06T12:03:48Z</time></trkpt><trkpt lat="45.59864292021367" lon="11.366005081091462"><ele>165.66666666666669</ele><time>2026-04-06T12:03:49Z</time></trkpt><trkpt lat="45.598591457996285" lon="11.36612672798349"><ele>166.0</ele><time>2026-04-06T12:03:50Z</time></trkpt><trkpt lat="45.5985302021895" lon="11.366256584460102"><ele>166.0</ele><time>2026-04-06T12:03:51Z</time></trkpt><trkpt lat="45.59846721959314" lon="11.366392407477997"><ele>166.0</ele><time>2026-04-06T12:03:52Z</time></trkpt><trkpt lat="45.59840172858404" lon="11.366533319568378"><ele>166.0</ele><time>2026-04-06T12:03:53Z</time></trkpt><trkpt lat="45.598332448544205" lon="11.366681049760313"><ele>166.0</ele><time>2026-04-06T12:03:54Z</time></trkpt><trkpt lat="45.59826350750091" lon="11.366829836581053"><ele>166.0</ele><time>2026-04-06T12:03:55Z</time></trkpt><trkpt lat="45.598198427363116" lon="11.366974837269325"><ele>166.0</ele><time>2026-04-06T12:03:56Z</time></trkpt><trkpt lat="45.59813478854754" lon="11.367119735539482"><ele>166.0</ele><time>2026-04-06T12:03:57Z</time></trkpt><trkpt lat="45.59806830740458" lon="11.367268061672416"><ele>166.0</ele><time>2026-04-06T12:03:58Z</time></trkpt><trkpt lat="45.598000750486165" lon="11.36741864123354"><ele>165.75</ele><time>2026-04-06T12:03:59Z</time></trkpt><trkpt lat="45.59793178488093" lon="11.367568669226571"><ele>165.5</ele><time>2026-04-06T12:04:00Z</time></trkpt><trkpt lat="45.59786256734239" lon="11.367720282346491"><ele>165.25</ele><time>2026-04-06T12:04:01Z</time></trkpt><trkpt lat="45.59779332849839" lon="11.367874719974122"><ele>165.0</ele><time>2026-04-06T12:04:02Z</time></trkpt><trkpt lat="45.597722220492315" lon="11.368033091350314"><ele>165.0</ele><time>2026-04-06T12:04:03Z</time></trkpt><trkpt lat="45.59764938213574" lon="11.368194002878717"><ele>165.0</ele><time>2026-04-06T12:04:04Z</time></trkpt><trkpt lat="45.59757341925144" lon="11.368370985091534"><ele>165.0</ele><time>2026-04-06T12:04:05Z</time></trkpt><trkpt lat="45.5974914536243" lon="11.368558861802164"><ele>165.0</ele><time>2026-04-06T12:04:06Z</time></trkpt><trkpt lat="45.59740189388163" lon="11.368746932173492"><ele>164.33333333333334</ele><time>2026-04-06T12:04:07Z</time></trkpt><trkpt lat="45.59730990582167" lon="11.368930667897386"><ele>163.66666666666669</ele><time>2026-04-06T12:04:08Z</time></trkpt><trkpt lat="45.59721844885332" lon="11.369105599309396"><ele>163.0</ele><time>2026-04-06T12:04:09Z</time></trkpt><trkpt lat="45.597128203763866" lon="11.369271740950785"><ele>163.0</ele><time>2026-04-06T12:04:10Z</time></trkpt><trkpt lat="45.59703485583136" lon="11.369436491517737"><ele>163.0</ele><time>2026-04-06T12:04:11Z</time></trkpt><trkpt lat="45.59693899682487" lon="11.369605523541136"><ele>163.0</ele><time>2026-04-06T12:04:12Z</time></trkpt><trkpt lat="45.596840120900524" lon="11.369775445671207"><ele>162.75</ele><time>2026-04-06T12:04:13Z</time></trkpt><trkpt lat="45.596740810858535" lon="11.369941785237007"><ele>162.5</ele><time>2026-04-06T12:04:14Z</time></trkpt><trkpt lat="45.5966436700485" lon="11.370102500823611"><ele>162.25</ele><time>2026-04-06T12:04:15Z</time></trkpt><trkpt lat="45.596550324889066" lon="11.37025591720962"><ele>162.0</ele><time>2026-04-06T12:04:16Z</time></trkpt><trkpt lat="45.596458690763804" lon="11.370407073535784"><ele>161.75</ele><time>2026-04-06T12:04:17Z</time></trkpt><trkpt lat="45.59636593469582" lon="11.370560566224588"><ele>161.5</ele><time>2026-04-06T12:04:18Z</time></trkpt><trkpt lat="45.59626760320004" lon="11.37071729093012"><ele>161.25</ele><time>2026-04-06T12:04:19Z</time></trkpt><trkpt lat="45.59616813992074" lon="11.37088259624034"><ele>161.0</ele><time>2026-04-06T12:04:20Z</time></trkpt><trkpt lat="45.596065960138574" lon="11.371063919758448"><ele>160.66666666666666</ele><time>2026-04-06T12:04:21Z</time></trkpt><trkpt lat="45.595961476127314" lon="11.371247496216826"><ele>160.33333333333334</ele><time>2026-04-06T12:04:22Z</time></trkpt><trkpt lat="45.59582551246962" lon="11.371432558318011"><ele>160.0</ele><time>2026-04-06T12:04:23Z</time></trkpt><trkpt lat="45.595683009892994" lon="11.37161376927044"><ele>160.0</ele><time>2026-04-06T12:04:24Z</time></trkpt><trkpt lat="45.59553748923993" lon="11.371799615485394"><ele>160.0</ele><time>2026-04-06T12:04:25Z</time></trkpt><trkpt lat="45.59539166823249" lon="11.371993451420462"><ele>160.0</ele><time>2026-04-06T12:04:26Z</time></trkpt><trkpt lat="45.59524781728044" lon="11.372193769854386"><ele>159.66666666666669</ele><time>2026-04-06T12:04:27Z</time></trkpt><trkpt lat="45.59510358774206" lon="11.372398207939554"><ele>159.33333333333334</ele><time>2026-04-06T12:04:28Z</time></trkpt><trkpt lat="45.5949552945933" lon="11.372604532187147"><ele>159.0</ele><time>2026-04-06T12:04:29Z</time></trkpt><trkpt lat="45.59480236444575" lon="11.372814268865467"><ele>159.0</ele><time>2026-04-06T12:04:30Z</time></trkpt><trkpt lat="45.59464602477346" lon="11.373023203917226"><ele>159.0</ele><time>2026-04-06T12:04:31Z</time></trkpt><trkpt lat="45.59449445574281" lon="11.373223971986612"><ele>159.0</ele><time>2026-04-06T12:04:32Z</time></trkpt><trkpt lat="45.59434892594207" lon="11.373414202741055"><ele>159.0</ele><time>2026-04-06T12:04:33Z</time></trkpt><trkpt lat="45.594208062936225" lon="11.373595089201633"><ele>159.0</ele><time>2026-04-06T12:04:34Z</time></trkpt><trkpt lat="45.59407145124051" lon="11.373766269832814"><ele>159.0</ele><time>2026-04-06T12:04:35Z</time></trkpt><trkpt lat="45.59393829820621" lon="11.373928202989221"><ele>159.0</ele><time>2026-04-06T12:04:36Z</time></trkpt><trkpt lat="45.593808412977474" lon="11.374081797324187"><ele>159.0</ele><time>2026-04-06T12:04:37Z</time></trkpt><trkpt lat="45.593677728765115" lon="11.374233469683581"><ele>159.0</ele><time>2026-04-06T12:04:38Z</time></trkpt><trkpt lat="45.593546886768806" lon="11.374387856517133"><ele>159.0</ele><time>2026-04-06T12:04:39Z</time></trkpt><trkpt lat="45.59341595927519" lon="11.374543373260739"><ele>159.0</ele><time>2026-04-06T12:04:40Z</time></trkpt><trkpt lat="45.59328424809362" lon="11.374699666783739"><ele>159.0</ele><time>2026-04-06T12:04:41Z</time></trkpt><trkpt lat="45.59315279236081" lon="11.37485193198194"><ele>158.66666666666666</ele><time>2026-04-06T12:04:42Z</time></trkpt><trkpt lat="45.59302503023431" lon="11.374999178581687"><ele>158.33333333333331</ele><time>2026-04-06T12:04:43Z</time></trkpt><trkpt lat="45.59290281147072" lon="11.375138459002198"><ele>158.0</ele><time>2026-04-06T12:04:44Z</time></trkpt><trkpt lat="45.59278442923509" lon="11.375271703167451"><ele>157.25</ele><time>2026-04-06T12:04:45Z</time></trkpt><trkpt lat="45.59266926727868" lon="11.375397917258287"><ele>156.5</ele><time>2026-04-06T12:04:46Z</time></trkpt><trkpt lat="45.59255871313349" lon="11.375516830079189"><ele>155.75</ele><time>2026-04-06T12:04:47Z</time></trkpt><trkpt lat="45.5924616797205" lon="11.3756184028427"><ele>155.0</ele><time>2026-04-06T12:04:48Z</time></trkpt><trkpt lat="45.59237441924691" lon="11.375703295424042"><ele>155.0</ele><time>2026-04-06T12:04:49Z</time></trkpt><trkpt lat="45.59229872472522" lon="11.375775962463536"><ele>155.0</ele><time>2026-04-06T12:04:50Z</time></trkpt><trkpt lat="45.592231963694914" lon="11.375834830983406"><ele>155.0</ele><time>2026-04-06T12:04:51Z</time></trkpt><trkpt lat="45.592169454750874" lon="11.375880692700616"><ele>155.0</ele><time>2026-04-06T12:04:52Z</time></trkpt><trkpt lat="45.59210144894582" lon="11.375911237521894"><ele>155.0</ele><time>2026-04-06T12:04:53Z</time></trkpt><trkpt lat="45.59202601296861" lon="11.375917131925181"><ele>155.0</ele><time>2026-04-06T12:04:54Z</time></trkpt><trkpt lat="45.59194587984537" lon="11.375890856718899"><ele>154.8</ele><time>2026-04-06T12:04:55Z</time></trkpt><trkpt lat="45.59186737767763" lon="11.375839621506383"><ele>154.6</ele><time>2026-04-06T12:04:56Z</time></trkpt><trkpt lat="45.591785171258365" lon="11.37578956981305"><ele>154.4</ele><time>2026-04-06T12:04:57Z</time></trkpt><trkpt lat="45.59169741009745" lon="11.375763633982567"><ele>154.2</ele><time>2026-04-06T12:04:58Z</time></trkpt><trkpt lat="45.59160354469936" lon="11.375778812926091"><ele>154.0</ele><time>2026-04-06T12:04:59Z</time></trkpt><trkpt lat="45.591511788357785" lon="11.375792729016872"><ele>154.0</ele><time>2026-04-06T12:05:00Z</time></trkpt><trkpt lat="45.59143705565437" lon="11.375917589043082"><ele>154.0</ele><time>2026-04-06T12:05:01Z</time></trkpt><trkpt lat="45.59136441289073" lon="11.376020189811781"><ele>154.0</ele><time>2026-04-06T12:05:02Z</time></trkpt><trkpt lat="45.59129761036997" lon="11.376147193428297"><ele>154.0</ele><time>2026-04-06T12:05:03Z</time></trkpt><trkpt lat="45.591209731471764" lon="11.376260390626493"><ele>154.0</ele><time>2026-04-06T12:05:04Z</time></trkpt><trkpt lat="45.59111800633839" lon="11.376378539315448"><ele>153.25</ele><time>2026-04-06T12:05:05Z</time></trkpt><trkpt lat="45.590982228323924" lon="11.37643134631329"><ele>152.5</ele><time>2026-04-06T12:05:06Z</time></trkpt><trkpt lat="45.5908698822019" lon="11.376524042622787"><ele>151.75</ele><time>2026-04-06T12:05:07Z</time></trkpt><trkpt lat="45.590760437181444" lon="11.376604034434083"><ele>151.0</ele><time>2026-04-06T12:05:08Z</time></trkpt><trkpt lat="45.59065279395746" lon="11.376661282083838"><ele>151.0</ele><time>2026-04-06T12:05:09Z</time></trkpt><trkpt lat="45.59054554107764" lon="11.376695688647239"><ele>151.0</ele><time>2026-04-06T12:05:10Z</time></trkpt><trkpt lat="45.59044369143055" lon="11.376703164031817"><ele>151.0</ele><time>2026-04-06T12:05:11Z</time></trkpt><trkpt lat="45.5903508642073" lon="11.376704932520836"><ele>151.0</ele><time>2026-04-06T12:05:12Z</time></trkpt><trkpt lat="45.59026907242736" lon="11.376706034574372"><ele>151.0</ele><time>2026-04-06T12:05:13Z</time></trkpt><trkpt lat="45.59020145464274" lon="11.37671009733408"><ele>150.66666666666669</ele><time>2026-04-06T12:05:14Z</time></trkpt><trkpt lat="45.59010614139666" lon="11.376718515237389"><ele>150.33333333333334</ele><time>2026-04-06T12:05:16Z</time></trkpt><trkpt lat="45.59002006631511" lon="11.376716890995267"><ele>150.0</ele><time>2026-04-06T12:05:18Z</time></trkpt><trkpt lat="45.58993610055877" lon="11.376717588965265"><ele>149.66666666666666</ele><time>2026-04-06T12:05:20Z</time></trkpt><trkpt lat="45.58987298692317" lon="11.37671950485576"><ele>149.33333333333331</ele><time>2026-04-06T12:05:21Z</time></trkpt><trkpt lat="45.589783283069565" lon="11.376724108683925"><ele>149.0</ele><time>2026-04-06T12:05:22Z</time></trkpt><trkpt lat="45.58969028758452" lon="11.376714080614734"><ele>149.0</ele><time>2026-04-06T12:05:23Z</time></trkpt><trkpt lat="45.58958524698152" lon="11.376744853853056"><ele>149.0</ele><time>2026-04-06T12:05:24Z</time></trkpt><trkpt lat="45.58948020877646" lon="11.37674561752171"><ele>149.0</ele><time>2026-04-06T12:05:25Z</time></trkpt><trkpt lat="45.58936063676215" lon="11.376734391057568"><ele>149.0</ele><time>2026-04-06T12:05:26Z</time></trkpt><trkpt lat="45.58921917375078" lon="11.376698087717902"><ele>149.25</ele><time>2026-04-06T12:05:27Z</time></trkpt><trkpt lat="45.58908886618389" lon="11.376618342847793"><ele>149.5</ele><time>2026-04-06T12:05:28Z</time></trkpt><trkpt lat="45.58896511268207" lon="11.37650670545919"><ele>149.75</ele><time>2026-04-06T12:05:29Z</time></trkpt><trkpt lat="45.58883840014059" lon="11.376380047304957"><ele>150.0</ele><time>2026-04-06T12:05:30Z</time></trkpt><trkpt lat="45.58871678105069" lon="11.376254348522833"><ele>150.5</ele><time>2026-04-06T12:05:31Z</time></trkpt><trkpt lat="45.5886025410755" lon="11.376129050701817"><ele>151.0</ele><time>2026-04-06T12:05:32Z</time></trkpt><trkpt lat="45.58847194020005" lon="11.376066524250671"><ele>151.5</ele><time>2026-04-06T12:05:33Z</time></trkpt><trkpt lat="45.58833998518451" lon="11.376062489383983"><ele>152.0</ele><time>2026-04-06T12:05:34Z</time></trkpt><trkpt lat="45.58820812052178" lon="11.37610009486084"><ele>152.0</ele><time>2026-04-06T12:05:35Z</time></trkpt><trkpt lat="45.58807611318604" lon="11.376166975370069"><ele>152.0</ele><time>2026-04-06T12:05:36Z</time></trkpt><trkpt lat="45.58794772244678" lon="11.376283188713924"><ele>152.0</ele><time>2026-04-06T12:05:37Z</time></trkpt><trkpt lat="45.58782349425061" lon="11.376428670464167"><ele>150.66666666666666</ele><time>2026-04-06T12:05:38Z</time></trkpt><trkpt lat="45.587703880342836" lon="11.376606077358765"><ele>149.33333333333334</ele><time>2026-04-06T12:05:39Z</time></trkpt><trkpt lat="45.58758097305276" lon="11.376795319320964"><ele>148.0</ele><time>2026-04-06T12:05:40Z</time></trkpt><trkpt lat="45.587454680045376" lon="11.376996181638413"><ele>148.0</ele><time>2026-04-06T12:05:41Z</time></trkpt><trkpt lat="45.587335865381654" lon="11.377191411445438"><ele>148.0</ele><time>2026-04-06T12:05:42Z</time></trkpt><trkpt lat="45.58722751096091" lon="11.377385411168364"><ele>148.0</ele><time>2026-04-06T12:05:43Z</time></trkpt><trkpt lat="45.58713422573767" lon="11.377584771344619"><ele>148.0</ele><time>2026-04-06T12:05:44Z</time></trkpt><trkpt lat="45.58706150014767" lon="11.377791482381937"><ele>148.0</ele><time>2026-04-06T12:05:45Z</time></trkpt><trkpt lat="45.5870128216683" lon="11.377998494089857"><ele>148.0</ele><time>2026-04-06T12:05:46Z</time></trkpt><trkpt lat="45.586991003090596" lon="11.378205143772568"><ele>148.0</ele><time>2026-04-06T12:05:47Z</time></trkpt><trkpt lat="45.58699607987758" lon="11.378408147647837"><ele>148.0</ele><time>2026-04-06T12:05:48Z</time></trkpt><trkpt lat="45.587039868073646" lon="11.378601036513905"><ele>148.0</ele><time>2026-04-06T12:05:49Z</time></trkpt><trkpt lat="45.58711462762154" lon="11.37878199905659"><ele>148.0</ele><time>2026-04-06T12:05:50Z</time></trkpt><trkpt lat="45.58722003670351" lon="11.37893239235617"><ele>148.25</ele><time>2026-04-06T12:05:51Z</time></trkpt><trkpt lat="45.587346547919715" lon="11.379029742224674"><ele>148.5</ele><time>2026-04-06T12:05:52Z</time></trkpt><trkpt lat="45.58748091320147" lon="11.37906203834522"><ele>148.75</ele><time>2026-04-06T12:05:53Z</time></trkpt><trkpt lat="45.58761556268166" lon="11.37903354613444"><ele>149.0</ele><time>2026-04-06T12:05:54Z</time></trkpt><trkpt lat="45.58774508696757" lon="11.378950775777346"><ele>149.66666666666666</ele><time>2026-04-06T12:05:55Z</time></trkpt><trkpt lat="45.58785475538374" lon="11.37881339188063"><ele>150.33333333333334</ele><time>2026-04-06T12:05:56Z</time></trkpt><trkpt lat="45.58793818965847" lon="11.378634177166846"><ele>151.0</ele><time>2026-04-06T12:05:57Z</time></trkpt><trkpt lat="45.58800792839569" lon="11.378425178312886"><ele>151.0</ele><time>2026-04-06T12:05:58Z</time></trkpt><trkpt lat="45.58808110233173" lon="11.378226455440602"><ele>151.0</ele><time>2026-04-06T12:05:59Z</time></trkpt><trkpt lat="45.58817913105843" lon="11.378052105554762"><ele>151.0</ele><time>2026-04-06T12:06:00Z</time></trkpt><trkpt lat="45.588306204068694" lon="11.377908112195623"><ele>150.0</ele><time>2026-04-06T12:06:01Z</time></trkpt><trkpt lat="45.58846249662171" lon="11.377809871143402"><ele>149.0</ele><time>2026-04-06T12:06:02Z</time></trkpt><trkpt lat="45.58864092896539" lon="11.377764213605904"><ele>148.0</ele><time>2026-04-06T12:06:03Z</time></trkpt><trkpt lat="45.58883429655479" lon="11.377765993345012"><ele>148.0</ele><time>2026-04-06T12:06:04Z</time></trkpt><trkpt lat="45.58903990857976" lon="11.377787432040549"><ele>148.0</ele><time>2026-04-06T12:06:05Z</time></trkpt><trkpt lat="45.58926158090857" lon="11.37781246754653"><ele>148.0</ele><time>2026-04-06T12:06:06Z</time></trkpt><trkpt lat="45.58948436729301" lon="11.377841748044768"><ele>148.0</ele><time>2026-04-06T12:06:07Z</time></trkpt><trkpt lat="45.589714985739256" lon="11.377876488882656"><ele>148.0</ele><time>2026-04-06T12:06:08Z</time></trkpt><trkpt lat="45.58995512494412" lon="11.377923308993376"><ele>148.0</ele><time>2026-04-06T12:06:09Z</time></trkpt><trkpt lat="45.59020303093269" lon="11.37798128992812"><ele>148.0</ele><time>2026-04-06T12:06:10.013Z</time></trkpt><trkpt lat="45.590452702028514" lon="11.378045181973738"><ele>150.5</ele><time>2026-04-06T12:06:11.018Z</time></trkpt><trkpt lat="45.59069994739713" lon="11.37812274877607"><ele>153.0</ele><time>2026-04-06T12:06:12Z</time></trkpt><trkpt lat="45.59094446832516" lon="11.378237882762262"><ele>153.5</ele><time>2026-04-06T12:06:13Z</time></trkpt><trkpt lat="45.59119615601595" lon="11.378353934756213"><ele>154.0</ele><time>2026-04-06T12:06:14Z</time></trkpt><trkpt lat="45.59144899709887" lon="11.378478612563825"><ele>154.0</ele><time>2026-04-06T12:06:15Z</time></trkpt><trkpt lat="45.591698636080004" lon="11.378615567040189"><ele>154.0</ele><time>2026-04-06T12:06:16Z</time></trkpt><trkpt lat="45.591953639555605" lon="11.378765786363445"><ele>153.0</ele><time>2026-04-06T12:06:17Z</time></trkpt><trkpt lat="45.59221354949893" lon="11.378930252307434"><ele>152.0</ele><time>2026-04-06T12:06:18.017Z</time></trkpt><trkpt lat="45.592470554486184" lon="11.379100366869642"><ele>152.0</ele><time>2026-04-06T12:06:19.018Z</time></trkpt><trkpt lat="45.5927310121818" lon="11.379275024880041"><ele>152.0</ele><time>2026-04-06T12:06:20.017Z</time></trkpt><trkpt lat="45.59299378980883" lon="11.379453601262895"><ele>152.5</ele><time>2026-04-06T12:06:21.018Z</time></trkpt><trkpt lat="45.59325834471685" lon="11.379631353831472"><ele>153.0</ele><time>2026-04-06T12:06:22.017Z</time></trkpt><trkpt lat="45.595010896255815" lon="11.380723407502641"><ele>151.5</ele><time>2026-04-06T12:06:28Z</time></trkpt><trkpt lat="45.5952954335799" lon="11.380900099844062"><ele>150.0</ele><time>2026-04-06T12:06:29Z</time></trkpt><trkpt lat="45.59558730433056" lon="11.381072060125748"><ele>150.0</ele><time>2026-04-06T12:06:30Z</time></trkpt><trkpt lat="45.59588213808866" lon="11.381241090318396"><ele>150.0</ele><time>2026-04-06T12:06:31Z</time></trkpt><trkpt lat="45.596170293581565" lon="11.381412200377383"><ele>150.0</ele><time>2026-04-06T12:06:32Z</time></trkpt><trkpt lat="45.59646808078497" lon="11.381585088238586"><ele>150.0</ele><time>2026-04-06T12:06:33Z</time></trkpt><trkpt lat="45.59678164394842" lon="11.381746072377837"><ele>151.0</ele><time>2026-04-06T12:06:34Z</time></trkpt><trkpt lat="45.59706448927583" lon="11.381925150359365"><ele>152.0</ele><time>2026-04-06T12:06:35Z</time></trkpt><trkpt lat="45.597366351255864" lon="11.382094905890824"><ele>152.5</ele><time>2026-04-06T12:06:36Z</time></trkpt><trkpt lat="45.59766687217404" lon="11.38226159605354"><ele>153.0</ele><time>2026-04-06T12:06:37Z</time></trkpt><trkpt lat="45.597969808644415" lon="11.382429145131777"><ele>153.0</ele><time>2026-04-06T12:06:38Z</time></trkpt><trkpt lat="45.59827585526013" lon="11.382601274207302"><ele>153.0</ele><time>2026-04-06T12:06:39.017Z</time></trkpt><trkpt lat="45.59856936158001" lon="11.382780010064783"><ele>152.5</ele><time>2026-04-06T12:06:40.019Z</time></trkpt><trkpt lat="45.59887644775033" lon="11.382947123093471"><ele>152.0</ele><time>2026-04-06T12:06:41.013Z</time></trkpt><trkpt lat="45.5991875711221" lon="11.38311155359404"><ele>151.5</ele><time>2026-04-06T12:06:42.013Z</time></trkpt><trkpt lat="45.59950066114469" lon="11.383277261383991"><ele>151.0</ele><time>2026-04-06T12:06:43Z</time></trkpt><trkpt lat="45.599824522720844" lon="11.383435762140389"><ele>151.0</ele><time>2026-04-06T12:06:44Z</time></trkpt><trkpt lat="45.60014068295562" lon="11.383587044416435"><ele>151.0</ele><time>2026-04-06T12:06:45Z</time></trkpt><trkpt lat="45.60046722114645" lon="11.383721291804697"><ele>151.0</ele><time>2026-04-06T12:06:46Z</time></trkpt><trkpt lat="45.600788701376636" lon="11.383845623081566"><ele>151.0</ele><time>2026-04-06T12:06:47Z</time></trkpt><trkpt lat="45.601114908170786" lon="11.383960809063026"><ele>149.5</ele><time>2026-04-06T12:06:48Z</time></trkpt><trkpt lat="45.6014401505172" lon="11.384073461727812"><ele>148.0</ele><time>2026-04-06T12:06:49Z</time></trkpt><trkpt lat="45.60176948097851" lon="11.384184020689055"><ele>148.5</ele><time>2026-04-06T12:06:50Z</time></trkpt><trkpt lat="45.60210052431713" lon="11.384292565818004"><ele>149.0</ele><time>2026-04-06T12:06:51Z</time></trkpt><trkpt lat="45.602437530011116" lon="11.384402808461477"><ele>149.0</ele><time>2026-04-06T12:06:52.017Z</time></trkpt><trkpt lat="45.602770972256174" lon="11.384510209988354"><ele>149.0</ele><time>2026-04-06T12:06:53.017Z</time></trkpt><trkpt lat="45.603103654545926" lon="11.384619702850312"><ele>149.0</ele><time>2026-04-06T12:06:54.016Z</time></trkpt><trkpt lat="45.60343526045378" lon="11.384729846191513"><ele>149.0</ele><time>2026-04-06T12:06:55.018Z</time></trkpt><trkpt lat="45.64659503722915" lon="11.429889048448327"><ele>130.66666666666666</ele><time>2026-04-06T12:09:39Z</time></trkpt><trkpt lat="45.64668916451167" lon="11.430156486512598"><ele>112.33333333333333</ele><time>2026-04-06T12:09:40Z</time></trkpt><trkpt lat="45.646707024674626" lon="11.429988570211076"><ele>94.0</ele><time>2026-04-06T12:09:41Z</time></trkpt><trkpt lat="45.64681592178938" lon="11.43042677610005"><ele>93.0</ele><time>2026-04-06T12:09:42Z</time></trkpt><trkpt lat="45.64691565340752" lon="11.430833864319295"><ele>92.0</ele><time>2026-04-06T12:09:43Z</time></trkpt><trkpt lat="45.64701062726482" lon="11.43121394529099"><ele>91.5</ele><time>2026-04-06T12:09:44Z</time></trkpt><trkpt lat="45.64710959970542" lon="11.431616626519785"><ele>91.0</ele><time>2026-04-06T12:09:45Z</time></trkpt><trkpt lat="45.64718547549337" lon="11.432007337213806"><ele>90.0</ele><time>2026-04-06T12:09:46Z</time></trkpt><trkpt lat="45.64726329307035" lon="11.432375882629504"><ele>89.0</ele><time>2026-04-06T12:09:47Z</time></trkpt><trkpt lat="45.647340924944075" lon="11.432732630199002"><ele>88.5</ele><time>2026-04-06T12:09:48Z</time></trkpt><trkpt lat="45.64741487782303" lon="11.433103289106608"><ele>88.0</ele><time>2026-04-06T12:09:49Z</time></trkpt><trkpt lat="45.64744495501024" lon="11.433431217174824"><ele>88.0</ele><time>2026-04-06T12:09:50Z</time></trkpt><trkpt lat="45.64750651175199" lon="11.433759995422513"><ele>88.0</ele><time>2026-04-06T12:09:51Z</time></trkpt><trkpt lat="45.64755917778036" lon="11.434060403779636"><ele>88.33333333333333</ele><time>2026-04-06T12:09:52Z</time></trkpt><trkpt lat="45.6476010759992" lon="11.434331037097557"><ele>88.66666666666667</ele><time>2026-04-06T12:09:53Z</time></trkpt><trkpt lat="45.647630433752866" lon="11.43455966919478"><ele>89.0</ele><time>2026-04-06T12:09:54Z</time></trkpt><trkpt lat="45.647647750908845" lon="11.434748996490272"><ele>89.0</ele><time>2026-04-06T12:09:55Z</time></trkpt><trkpt lat="45.64765220110416" lon="11.434889008159404"><ele>89.0</ele><time>2026-04-06T12:09:56Z</time></trkpt><trkpt lat="45.647673284997715" lon="11.434987972620958"><ele>89.0</ele><time>2026-04-06T12:09:57Z</time></trkpt><trkpt lat="45.64768966834352" lon="11.435084916151972"><ele>89.0</ele><time>2026-04-06T12:09:59Z</time></trkpt><trkpt lat="45.64768220760989" lon="11.435200379069336"><ele>89.0</ele><time>2026-04-06T12:15:08Z</time></trkpt><trkpt lat="45.6477272453957" lon="11.43533882670088"><ele>89.0</ele><time>2026-04-06T12:15:10Z</time></trkpt><trkpt lat="45.64776833102231" lon="11.43547128997182"><ele>89.0</ele><time>2026-04-06T12:15:12Z</time></trkpt><trkpt lat="45.647786551950844" lon="11.43557649563705"><ele>89.0</ele><time>2026-04-06T12:15:13Z</time></trkpt><trkpt lat="45.64780025821147" lon="11.435682366460806"><ele>89.0</ele><time>2026-04-06T12:15:14Z</time></trkpt><trkpt lat="45.64781398941025" lon="11.435780427523843"><ele>89.0</ele><time>2026-04-06T12:15:15Z</time></trkpt><trkpt lat="45.64783527416745" lon="11.435892199559548"><ele>89.0</ele><time>2026-04-06T12:15:16Z</time></trkpt><trkpt lat="45.647866093219776" lon="11.436031809597996"><ele>89.0</ele><time>2026-04-06T12:15:17Z</time></trkpt><trkpt lat="45.647894661967115" lon="11.436189348248856"><ele>88.75</ele><time>2026-04-06T12:15:18Z</time></trkpt><trkpt lat="45.64792422436143" lon="11.436369665662351"><ele>88.5</ele><time>2026-04-06T12:15:19Z</time></trkpt><trkpt lat="45.64795204320473" lon="11.436542604868658"><ele>88.25</ele><time>2026-04-06T12:15:20Z</time></trkpt><trkpt lat="45.64797978901505" lon="11.43670946818734"><ele>88.0</ele><time>2026-04-06T12:15:21Z</time></trkpt><trkpt lat="45.64801179603053" lon="11.436892849616669"><ele>88.0</ele><time>2026-04-06T12:15:22Z</time></trkpt><trkpt lat="45.64804782140866" lon="11.437089960740664"><ele>88.0</ele><time>2026-04-06T12:15:23Z</time></trkpt><trkpt lat="45.64808202346341" lon="11.437296770373523"><ele>88.0</ele><time>2026-04-06T12:15:24Z</time></trkpt><trkpt lat="45.648119325783675" lon="11.437515126087348"><ele>88.0</ele><time>2026-04-06T12:15:25Z</time></trkpt><trkpt lat="45.64815900341121" lon="11.437743216737884"><ele>88.66666666666666</ele><time>2026-04-06T12:15:26Z</time></trkpt><trkpt lat="45.648198084114036" lon="11.437984306931734"><ele>89.33333333333333</ele><time>2026-04-06T12:15:27Z</time></trkpt><trkpt lat="45.648238024053825" lon="11.438238011907764"><ele>90.0</ele><time>2026-04-06T12:15:28Z</time></trkpt><trkpt lat="45.64828029502213" lon="11.438505818524476"><ele>90.0</ele><time>2026-04-06T12:15:29Z</time></trkpt><trkpt lat="45.6483239169527" lon="11.438788497696951"><ele>90.0</ele><time>2026-04-06T12:15:30Z</time></trkpt><trkpt lat="45.648367794219915" lon="11.439082633533712"><ele>90.0</ele><time>2026-04-06T12:15:31Z</time></trkpt><trkpt lat="45.64841153609268" lon="11.439391647165982"><ele>91.0</ele><time>2026-04-06T12:15:32Z</time></trkpt><trkpt lat="45.64845431010027" lon="11.439718219975374"><ele>92.0</ele><time>2026-04-06T12:15:33Z</time></trkpt><trkpt lat="45.64849678249727" lon="11.440058942903137"><ele>92.0</ele><time>2026-04-06T12:15:34Z</time></trkpt><trkpt lat="45.648537522141325" lon="11.440416401249877"><ele>92.0</ele><time>2026-04-06T12:15:35Z</time></trkpt><trkpt lat="45.648577850236066" lon="11.440778953660868"><ele>92.0</ele><time>2026-04-06T12:15:36Z</time></trkpt><trkpt lat="45.64861296154145" lon="11.441145820874429"><ele>92.0</ele><time>2026-04-06T12:15:37Z</time></trkpt><trkpt lat="45.64864872640748" lon="11.441522963547468"><ele>92.0</ele><time>2026-04-06T12:15:38Z</time></trkpt><trkpt lat="45.64868128025535" lon="11.44190581498459"><ele>92.0</ele><time>2026-04-06T12:15:39Z</time></trkpt><trkpt lat="45.64871239359244" lon="11.442292408364871"><ele>91.0</ele><time>2026-04-06T12:15:40Z</time></trkpt><trkpt lat="45.64873821127737" lon="11.442685807704105"><ele>90.0</ele><time>2026-04-06T12:15:41Z</time></trkpt><trkpt lat="45.6487609491157" lon="11.44308338715464"><ele>90.0</ele><time>2026-04-06T12:15:42Z</time></trkpt><trkpt lat="45.64878102034908" lon="11.443485235882282"><ele>90.0</ele><time>2026-04-06T12:15:43Z</time></trkpt><trkpt lat="45.64879719896881" lon="11.443890934139953"><ele>89.5</ele><time>2026-04-06T12:15:44Z</time></trkpt><trkpt lat="45.64880958842319" lon="11.444297431251707"><ele>89.0</ele><time>2026-04-06T12:15:45Z</time></trkpt><trkpt lat="45.64881914902346" lon="11.444706316687707"><ele>89.0</ele><time>2026-04-06T12:15:46Z</time></trkpt><trkpt lat="45.64882387315826" lon="11.44511885462402"><ele>89.0</ele><time>2026-04-06T12:15:47Z</time></trkpt><trkpt lat="45.64882574366066" lon="11.445534786040936"><ele>89.0</ele><time>2026-04-06T12:15:48Z</time></trkpt><trkpt lat="45.648822548037494" lon="11.44595389963764"><ele>89.0</ele><time>2026-04-06T12:15:49Z</time></trkpt><trkpt lat="45.64881648872355" lon="11.446377231052065"><ele>89.0</ele><time>2026-04-06T12:15:50Z</time></trkpt><trkpt lat="45.64880712549485" lon="11.44680394903892"><ele>89.0</ele><time>2026-04-06T12:15:51Z</time></trkpt><trkpt lat="45.64879353652673" lon="11.44723363416454"><ele>89.0</ele><time>2026-04-06T12:15:52Z</time></trkpt><trkpt lat="45.648778758659454" lon="11.447665436367673"><ele>89.0</ele><time>2026-04-06T12:15:53Z</time></trkpt><trkpt lat="45.648765117227946" lon="11.448095641010639"><ele>89.0</ele><time>2026-04-06T12:15:54Z</time></trkpt><trkpt lat="45.648752673024575" lon="11.44852658137025"><ele>89.0</ele><time>2026-04-06T12:15:55Z</time></trkpt><trkpt lat="45.64873851536175" lon="11.44895479859467"><ele>88.5</ele><time>2026-04-06T12:15:56Z</time></trkpt><trkpt lat="45.64872424716963" lon="11.449380970542869"><ele>88.0</ele><time>2026-04-06T12:15:57Z</time></trkpt><trkpt lat="45.64871284411021" lon="11.449807381576218"><ele>88.0</ele><time>2026-04-06T12:15:58Z</time></trkpt><trkpt lat="45.6487025506946" lon="11.450230736180423"><ele>88.0</ele><time>2026-04-06T12:15:59Z</time></trkpt><trkpt lat="45.648692518761884" lon="11.450652690070314"><ele>88.0</ele><time>2026-04-06T12:16:00Z</time></trkpt><trkpt lat="45.648688644395364" lon="11.45107388721076"><ele>88.0</ele><time>2026-04-06T12:16:01Z</time></trkpt><trkpt lat="45.64869113496196" lon="11.451495752776598"><ele>88.5</ele><time>2026-04-06T12:16:01.999Z</time></trkpt><trkpt lat="45.64869859948868" lon="11.451921322318638"><ele>89.0</ele><time>2026-04-06T12:16:02.999Z</time></trkpt><trkpt lat="45.64870973774775" lon="11.452346019072522"><ele>88.0</ele><time>2026-04-06T12:16:03.999Z</time></trkpt><trkpt lat="45.648727536778125" lon="11.452773644718137"><ele>87.0</ele><time>2026-04-06T12:16:04.999Z</time></trkpt><trkpt lat="45.648748309354204" lon="11.453206655668998"><ele>86.5</ele><time>2026-04-06T12:16:05.999Z</time></trkpt><trkpt lat="45.64877391728975" lon="11.453644044199715"><ele>86.0</ele><time>2026-04-06T12:16:06.999Z</time></trkpt><trkpt lat="45.64880553501951" lon="11.45408367982082"><ele>85.5</ele><time>2026-04-06T12:16:07.999Z</time></trkpt><trkpt lat="45.64884191616977" lon="11.454525115683891"><ele>85.0</ele><time>2026-04-06T12:16:08.999Z</time></trkpt><trkpt lat="45.64888491850796" lon="11.454965775467954"><ele>85.0</ele><time>2026-04-06T12:16:09.999Z</time></trkpt><trkpt lat="45.648934348487074" lon="11.455409541133461"><ele>85.0</ele><time>2026-04-06T12:16:10.999Z</time></trkpt><trkpt lat="45.64898843798186" lon="11.455853323044465"><ele>85.0</ele><time>2026-04-06T12:16:11.999Z</time></trkpt><trkpt lat="45.649048373924636" lon="11.456299027222112"><ele>85.0</ele><time>2026-04-06T12:16:12.999Z</time></trkpt><trkpt lat="45.64911461212816" lon="11.456745107297365"><ele>86.0</ele><time>2026-04-06T12:16:13.999Z</time></trkpt><trkpt lat="45.64918749392876" lon="11.457189645271804"><ele>87.0</ele><time>2026-04-06T12:16:14.999Z</time></trkpt><trkpt lat="45.64926579634318" lon="11.457633193484368"><ele>87.5</ele><time>2026-04-06T12:16:15.999Z</time></trkpt><trkpt lat="45.649349228490316" lon="11.458079722849861"><ele>88.0</ele><time>2026-04-06T12:16:17Z</time></trkpt><trkpt lat="45.64943958012576" lon="11.458523157618902"><ele>87.0</ele><time>2026-04-06T12:16:18Z</time></trkpt><trkpt lat="45.6495346161083" lon="11.458971138428936"><ele>86.0</ele><time>2026-04-06T12:16:19Z</time></trkpt><trkpt lat="45.64963417937041" lon="11.459417871841154"><ele>86.0</ele><time>2026-04-06T12:16:20Z</time></trkpt><trkpt lat="45.64974156240573" lon="11.45986391924776"><ele>86.0</ele><time>2026-04-06T12:16:21Z</time></trkpt><trkpt lat="45.64985837710411" lon="11.460304711677782"><ele>85.0</ele><time>2026-04-06T12:16:22Z</time></trkpt><trkpt lat="45.64998162090318" lon="11.460746717609162"><ele>84.0</ele><time>2026-04-06T12:16:23Z</time></trkpt><trkpt lat="45.65010872797174" lon="11.461188257360421"><ele>84.0</ele><time>2026-04-06T12:16:24Z</time></trkpt><trkpt lat="45.6502387796903" lon="11.461630640727162"><ele>84.0</ele><time>2026-04-06T12:16:25Z</time></trkpt><trkpt lat="45.65037116734218" lon="11.462075124056433"><ele>82.5</ele><time>2026-04-06T12:16:26Z</time></trkpt><trkpt lat="45.65050505175947" lon="11.462519867885138"><ele>81.0</ele><time>2026-04-06T12:16:27Z</time></trkpt><trkpt lat="45.65064266914268" lon="11.462966381780582"><ele>81.0</ele><time>2026-04-06T12:16:28Z</time></trkpt><trkpt lat="45.65078205857093" lon="11.463413043232332"><ele>81.0</ele><time>2026-04-06T12:16:29Z</time></trkpt><trkpt lat="45.650921613803845" lon="11.463861552938626"><ele>81.0</ele><time>2026-04-06T12:16:30Z</time></trkpt><trkpt lat="45.65106396000594" lon="11.464314240064812"><ele>81.0</ele><time>2026-04-06T12:16:31Z</time></trkpt><trkpt lat="45.651207389453695" lon="11.464764026629252"><ele>81.0</ele><time>2026-04-06T12:16:32Z</time></trkpt><trkpt lat="45.65134810792233" lon="11.465208016308189"><ele>81.0</ele><time>2026-04-06T12:16:33Z</time></trkpt><trkpt lat="45.651484457105724" lon="11.465653491514173"><ele>80.5</ele><time>2026-04-06T12:16:34Z</time></trkpt><trkpt lat="45.65162339697779" lon="11.46609947112521"><ele>80.0</ele><time>2026-04-06T12:16:35Z</time></trkpt><trkpt lat="45.65176549544764" lon="11.466544454055509"><ele>81.5</ele><time>2026-04-06T12:16:36Z</time></trkpt><trkpt lat="45.65191253070694" lon="11.46698700398613"><ele>83.0</ele><time>2026-04-06T12:16:37Z</time></trkpt><trkpt lat="45.65206344609487" lon="11.46742604371697"><ele>83.0</ele><time>2026-04-06T12:16:38Z</time></trkpt><trkpt lat="45.65221773062172" lon="11.46786348261531"><ele>83.0</ele><time>2026-04-06T12:16:39Z</time></trkpt><trkpt lat="45.652370768216656" lon="11.468300477242087"><ele>82.5</ele><time>2026-04-06T12:16:40Z</time></trkpt><trkpt lat="45.65252522404618" lon="11.468733995941701"><ele>82.0</ele><time>2026-04-06T12:16:41Z</time></trkpt><trkpt lat="45.65268629614138" lon="11.469163890238894"><ele>81.5</ele><time>2026-04-06T12:16:42Z</time></trkpt><trkpt lat="45.652852288863755" lon="11.469592975129167"><ele>81.0</ele><time>2026-04-06T12:16:43Z</time></trkpt><trkpt lat="45.653019241480685" lon="11.470019522978188"><ele>81.0</ele><time>2026-04-06T12:16:44Z</time></trkpt><trkpt lat="45.653193935597514" lon="11.470439704843313"><ele>81.0</ele><time>2026-04-06T12:16:45Z</time></trkpt><trkpt lat="45.653372221114694" lon="11.470854122041791"><ele>81.0</ele><time>2026-04-06T12:16:46Z</time></trkpt><trkpt lat="45.653556403739636" lon="11.471265828110182"><ele>81.0</ele><time>2026-04-06T12:16:47Z</time></trkpt><trkpt lat="45.65374478247228" lon="11.471670980147046"><ele>81.0</ele><time>2026-04-06T12:16:48Z</time></trkpt><trkpt lat="45.65393992654773" lon="11.472072590426677"><ele>81.0</ele><time>2026-04-06T12:16:49Z</time></trkpt><trkpt lat="45.65413405936845" lon="11.472474068510156"><ele>81.0</ele><time>2026-04-06T12:16:50Z</time></trkpt><trkpt lat="45.654321824368836" lon="11.47285033434189"><ele>81.0</ele><time>2026-04-06T12:16:51Z</time></trkpt><trkpt lat="45.654512799803214" lon="11.47322258393028"><ele>81.0</ele><time>2026-04-06T12:16:52Z</time></trkpt><trkpt lat="45.6547084797845" lon="11.473591250760574"><ele>81.0</ele><time>2026-04-06T12:16:53.019Z</time></trkpt><trkpt lat="45.654901533858784" lon="11.473937613160732"><ele>81.0</ele><time>2026-04-06T12:16:54.012Z</time></trkpt><trkpt lat="45.655100147612835" lon="11.47427774293212"><ele>81.0</ele><time>2026-04-06T12:16:55.021Z</time></trkpt><trkpt lat="45.65529464494602" lon="11.474604529349447"><ele>81.0</ele><time>2026-04-06T12:16:56.018Z</time></trkpt><trkpt lat="45.65544714183125" lon="11.474955610629687"><ele>81.0</ele><time>2026-04-06T12:16:57Z</time></trkpt><trkpt lat="45.655605710398675" lon="11.475301019652207"><ele>79.0</ele><time>2026-04-06T12:16:58Z</time></trkpt><trkpt lat="45.6560560386856" lon="11.475897884933959"><ele>79.5</ele><time>2026-04-06T12:16:59Z</time></trkpt><trkpt lat="45.656286968409205" lon="11.476263304388482"><ele>80.0</ele><time>2026-04-06T12:17:00Z</time></trkpt><trkpt lat="45.65651311917302" lon="11.476631177721934"><ele>80.0</ele><time>2026-04-06T12:17:01Z</time></trkpt><trkpt lat="45.656737971753415" lon="11.47699866887412"><ele>80.0</ele><time>2026-04-06T12:17:02Z</time></trkpt><trkpt lat="45.65696151405551" lon="11.477369495071676"><ele>80.5</ele><time>2026-04-06T12:17:03Z</time></trkpt><trkpt lat="45.65718502238302" lon="11.47773483981491"><ele>81.0</ele><time>2026-04-06T12:17:04Z</time></trkpt><trkpt lat="45.65740855869789" lon="11.478101563886536"><ele>81.0</ele><time>2026-04-06T12:17:05Z</time></trkpt><trkpt lat="45.657635835907406" lon="11.478474628343049"><ele>81.0</ele><time>2026-04-06T12:17:06.018Z</time></trkpt><trkpt lat="45.657854704060554" lon="11.478840963762002"><ele>80.0</ele><time>2026-04-06T12:17:07.013Z</time></trkpt><trkpt lat="45.65806793441518" lon="11.479206904003087"><ele>79.0</ele><time>2026-04-06T12:17:08Z</time></trkpt><trkpt lat="45.658282081280106" lon="11.47959332990811"><ele>79.0</ele><time>2026-04-06T12:17:09Z</time></trkpt><trkpt lat="45.658492362668376" lon="11.4800034072954"><ele>79.0</ele><time>2026-04-06T12:17:10Z</time></trkpt><trkpt lat="45.65869395900624" lon="11.480397727580419"><ele>79.5</ele><time>2026-04-06T12:17:11Z</time></trkpt><trkpt lat="45.65889075854413" lon="11.480795588225588"><ele>80.0</ele><time>2026-04-06T12:17:12Z</time></trkpt><trkpt lat="45.659078742513884" lon="11.481196480411535"><ele>79.5</ele><time>2026-04-06T12:17:13Z</time></trkpt><trkpt lat="45.65925996530112" lon="11.481607368075794"><ele>79.0</ele><time>2026-04-06T12:17:14Z</time></trkpt><trkpt lat="45.659437101483626" lon="11.482021271874407"><ele>79.5</ele><time>2026-04-06T12:17:15Z</time></trkpt><trkpt lat="45.659613089553915" lon="11.482437903260193"><ele>80.0</ele><time>2026-04-06T12:17:16Z</time></trkpt><trkpt lat="45.65977877444732" lon="11.482861231730018"><ele>80.0</ele><time>2026-04-06T12:17:17Z</time></trkpt><trkpt lat="45.65993913906194" lon="11.4832892977832"><ele>80.0</ele><time>2026-04-06T12:17:18Z</time></trkpt><trkpt lat="45.66009216845814" lon="11.483723966781321"><ele>79.5</ele><time>2026-04-06T12:17:19Z</time></trkpt><trkpt lat="45.6602376972529" lon="11.484163363137672"><ele>79.0</ele><time>2026-04-06T12:17:20Z</time></trkpt><trkpt lat="45.66037852653924" lon="11.484606762851103"><ele>79.5</ele><time>2026-04-06T12:17:21Z</time></trkpt><trkpt lat="45.6605110347295" lon="11.485053358037973"><ele>80.0</ele><time>2026-04-06T12:17:22Z</time></trkpt><trkpt lat="45.66063655637537" lon="11.485506961558327"><ele>80.0</ele><time>2026-04-06T12:17:23Z</time></trkpt><trkpt lat="45.66075370635146" lon="11.485966261860531"><ele>80.0</ele><time>2026-04-06T12:17:24Z</time></trkpt><trkpt lat="45.66086780299667" lon="11.486427970443206"><ele>79.0</ele><time>2026-04-06T12:17:25Z</time></trkpt><trkpt lat="45.66097949980391" lon="11.486888659383082"><ele>78.0</ele><time>2026-04-06T12:17:26Z</time></trkpt><trkpt lat="45.661086334282544" lon="11.487349709781308"><ele>78.5</ele><time>2026-04-06T12:17:27Z</time></trkpt><trkpt lat="45.66119313248867" lon="11.487811596735376"><ele>79.0</ele><time>2026-04-06T12:17:28Z</time></trkpt><trkpt lat="45.66130142518585" lon="11.488274996648373"><ele>79.0</ele><time>2026-04-06T12:17:29Z</time></trkpt><trkpt lat="45.661412363211966" lon="11.48873499210795"><ele>79.0</ele><time>2026-04-06T12:17:30Z</time></trkpt><trkpt lat="45.66152346664748" lon="11.489197296656696"><ele>79.5</ele><time>2026-04-06T12:17:31Z</time></trkpt><trkpt lat="45.661635214485294" lon="11.489658202297417"><ele>80.0</ele><time>2026-04-06T12:17:32Z</time></trkpt><trkpt lat="45.6617448792548" lon="11.490119884643047"><ele>79.5</ele><time>2026-04-06T12:17:33Z</time></trkpt><trkpt lat="45.66185449171438" lon="11.490581092438623"><ele>79.0</ele><time>2026-04-06T12:17:34Z</time></trkpt><trkpt lat="45.6619610192454" lon="11.491041854723738"><ele>80.0</ele><time>2026-04-06T12:17:35Z</time></trkpt><trkpt lat="45.66206842407541" lon="11.491508997943356"><ele>81.0</ele><time>2026-04-06T12:17:36Z</time></trkpt><trkpt lat="45.66217897435302" lon="11.491980024430216"><ele>80.0</ele><time>2026-04-06T12:17:37.017Z</time></trkpt><trkpt lat="45.662287224319755" lon="11.492443959378999"><ele>79.0</ele><time>2026-04-06T12:17:38.017Z</time></trkpt><trkpt lat="45.66239389591292" lon="11.492909137509061"><ele>79.0</ele><time>2026-04-06T12:17:39.017Z</time></trkpt><trkpt lat="45.66250019747201" lon="11.493373973606655"><ele>79.0</ele><time>2026-04-06T12:17:40.017Z</time></trkpt><trkpt lat="45.66260587523116" lon="11.49383837733907"><ele>79.0</ele><time>2026-04-06T12:17:41.013Z</time></trkpt><trkpt lat="45.66271208987167" lon="11.494305840823884"><ele>79.0</ele><time>2026-04-06T12:17:42.017Z</time></trkpt><trkpt lat="45.66353421196869" lon="11.497531933720687"><ele>77.5</ele><time>2026-04-06T12:17:49Z</time></trkpt><trkpt lat="45.66364534360413" lon="11.497992647528168"><ele>76.0</ele><time>2026-04-06T12:17:50Z</time></trkpt><trkpt lat="45.663746269732165" lon="11.498454548876447"><ele>76.5</ele><time>2026-04-06T12:17:51Z</time></trkpt><trkpt lat="45.66385707050897" lon="11.498910803082154"><ele>77.0</ele><time>2026-04-06T12:17:52Z</time></trkpt><trkpt lat="45.66396548429836" lon="11.499375274206384"><ele>77.0</ele><time>2026-04-06T12:17:53Z</time></trkpt><trkpt lat="45.664061434902045" lon="11.4998319644749"><ele>77.0</ele><time>2026-04-06T12:17:54Z</time></trkpt><trkpt lat="45.66416754903384" lon="11.500287377032688"><ele>76.5</ele><time>2026-04-06T12:17:55Z</time></trkpt><trkpt lat="45.66427259230037" lon="11.500749847202352"><ele>76.0</ele><time>2026-04-06T12:17:56.018Z</time></trkpt><trkpt lat="45.66462356601438" lon="11.502138543884737"><ele>76.5</ele><time>2026-04-06T12:17:59Z</time></trkpt><trkpt lat="45.66473323088913" lon="11.50260241941485"><ele>77.0</ele><time>2026-04-06T12:18:00Z</time></trkpt><trkpt lat="45.66485933659797" lon="11.503073231864985"><ele>77.0</ele><time>2026-04-06T12:18:01Z</time></trkpt><trkpt lat="45.66497535046801" lon="11.503531877616464"><ele>77.0</ele><time>2026-04-06T12:18:02Z</time></trkpt><trkpt lat="45.665078419119354" lon="11.503995778989074"><ele>78.0</ele><time>2026-04-06T12:18:03Z</time></trkpt><trkpt lat="45.66518601752618" lon="11.504453573595637"><ele>79.0</ele><time>2026-04-06T12:18:04Z</time></trkpt><trkpt lat="45.665295296038735" lon="11.50491764735396"><ele>79.0</ele><time>2026-04-06T12:18:05Z</time></trkpt><trkpt lat="45.665401746204914" lon="11.505378485257562"><ele>79.0</ele><time>2026-04-06T12:18:06Z</time></trkpt><trkpt lat="45.66551482602186" lon="11.505841274595724"><ele>78.0</ele><time>2026-04-06T12:18:07Z</time></trkpt><trkpt lat="45.66561945554443" lon="11.506303190773215"><ele>77.0</ele><time>2026-04-06T12:18:08Z</time></trkpt><trkpt lat="45.66572250821983" lon="11.506767657431121"><ele>76.0</ele><time>2026-04-06T12:18:09Z</time></trkpt><trkpt lat="45.66583257605366" lon="11.50722745296745"><ele>75.0</ele><time>2026-04-06T12:18:10Z</time></trkpt><trkpt lat="45.665942646758694" lon="11.507684575481486"><ele>75.0</ele><time>2026-04-06T12:18:11Z</time></trkpt><trkpt lat="45.666052449906026" lon="11.508149437653355"><ele>75.0</ele><time>2026-04-06T12:18:12Z</time></trkpt><trkpt lat="45.66615739430786" lon="11.508612613828348"><ele>75.5</ele><time>2026-04-06T12:18:13Z</time></trkpt><trkpt lat="45.66626694590963" lon="11.509074458153838"><ele>76.0</ele><time>2026-04-06T12:18:14Z</time></trkpt><trkpt lat="45.66635645707148" lon="11.509528230310702"><ele>76.0</ele><time>2026-04-06T12:18:15Z</time></trkpt><trkpt lat="45.666480141314125" lon="11.509978087567022"><ele>76.0</ele><time>2026-04-06T12:18:16Z</time></trkpt><trkpt lat="45.66661641581014" lon="11.510422678855868"><ele>76.0</ele><time>2026-04-06T12:18:17Z</time></trkpt><trkpt lat="45.66676439196577" lon="11.510854530615461"><ele>76.0</ele><time>2026-04-06T12:18:18Z</time></trkpt><trkpt lat="45.66692877874152" lon="11.511284112223816"><ele>76.0</ele><time>2026-04-06T12:18:19Z</time></trkpt><trkpt lat="45.66710357021555" lon="11.511703304011013"><ele>76.0</ele><time>2026-04-06T12:18:20Z</time></trkpt><trkpt lat="45.66728705460729" lon="11.512114572627704"><ele>76.0</ele><time>2026-04-06T12:18:21Z</time></trkpt><trkpt lat="45.667480051475785" lon="11.512519647164938"><ele>76.0</ele><time>2026-04-06T12:18:22Z</time></trkpt><trkpt lat="45.66768081273462" lon="11.512915927300666"><ele>77.0</ele><time>2026-04-06T12:18:23Z</time></trkpt><trkpt lat="45.667888856001895" lon="11.513308873340769"><ele>78.0</ele><time>2026-04-06T12:18:24Z</time></trkpt><trkpt lat="45.66810770963148" lon="11.513687100250838"><ele>78.5</ele><time>2026-04-06T12:18:25Z</time></trkpt><trkpt lat="45.66833576800243" lon="11.514053681623643"><ele>79.0</ele><time>2026-04-06T12:18:26Z</time></trkpt><trkpt lat="45.66857329306929" lon="11.514404963235409"><ele>79.0</ele><time>2026-04-06T12:18:27Z</time></trkpt><trkpt lat="45.668814867298984" lon="11.51474761321112"><ele>79.0</ele><time>2026-04-06T12:18:28Z</time></trkpt><trkpt lat="45.66906688339044" lon="11.51507698964981"><ele>79.0</ele><time>2026-04-06T12:18:29Z</time></trkpt><trkpt lat="45.6693261442931" lon="11.515390474782269"><ele>79.0</ele><time>2026-04-06T12:18:30Z</time></trkpt><trkpt lat="45.66959478799625" lon="11.515692501211712"><ele>79.0</ele><time>2026-04-06T12:18:31Z</time></trkpt><trkpt lat="45.66987038818042" lon="11.515979867697123"><ele>79.0</ele><time>2026-04-06T12:18:32Z</time></trkpt><trkpt lat="45.67015580663344" lon="11.516247304204063"><ele>80.0</ele><time>2026-04-06T12:18:33Z</time></trkpt><trkpt lat="45.67044704916318" lon="11.516497687953855"><ele>81.0</ele><time>2026-04-06T12:18:34Z</time></trkpt><trkpt lat="45.670744445950206" lon="11.516735576134693"><ele>81.0</ele><time>2026-04-06T12:18:35Z</time></trkpt><trkpt lat="45.67104751788385" lon="11.516957324033228"><ele>81.0</ele><time>2026-04-06T12:18:36Z</time></trkpt><trkpt lat="45.67135363263301" lon="11.517168882895144"><ele>81.0</ele><time>2026-04-06T12:18:37Z</time></trkpt><trkpt lat="45.67165374927468" lon="11.517375226283445"><ele>81.0</ele><time>2026-04-06T12:18:38Z</time></trkpt><trkpt lat="45.671963647950065" lon="11.517561729693629"><ele>81.0</ele><time>2026-04-06T12:18:39Z</time></trkpt><trkpt lat="45.67228294593661" lon="11.517732089416993"><ele>81.0</ele><time>2026-04-06T12:18:40Z</time></trkpt><trkpt lat="45.67260452397955" lon="11.517886973317125"><ele>79.0</ele><time>2026-04-06T12:18:41Z</time></trkpt><trkpt lat="45.672929262353506" lon="11.518025797667217"><ele>77.0</ele><time>2026-04-06T12:18:42Z</time></trkpt><trkpt lat="45.67325802946537" lon="11.518149884602423"><ele>77.0</ele><time>2026-04-06T12:18:43Z</time></trkpt><trkpt lat="45.67358898691857" lon="11.518257488722632"><ele>77.0</ele><time>2026-04-06T12:18:44Z</time></trkpt><trkpt lat="45.67392547801815" lon="11.518348663409988"><ele>78.0</ele><time>2026-04-06T12:18:45Z</time></trkpt><trkpt lat="45.674265792386365" lon="11.518419357489835"><ele>79.0</ele><time>2026-04-06T12:18:46Z</time></trkpt><trkpt lat="45.674606648325046" lon="11.51848083301845"><ele>80.5</ele><time>2026-04-06T12:18:47Z</time></trkpt><trkpt lat="45.674948270915536" lon="11.51853986196417"><ele>82.0</ele><time>2026-04-06T12:18:48Z</time></trkpt><trkpt lat="45.675289611484175" lon="11.518591965217269"><ele>82.0</ele><time>2026-04-06T12:18:49Z</time></trkpt><trkpt lat="45.67563099559164" lon="11.51863950896175"><ele>82.0</ele><time>2026-04-06T12:18:50Z</time></trkpt><trkpt lat="45.67597268779504" lon="11.518682816990387"><ele>83.0</ele><time>2026-04-06T12:18:51Z</time></trkpt><trkpt lat="45.67631004985185" lon="11.518727024349289"><ele>84.0</ele><time>2026-04-06T12:18:52Z</time></trkpt><trkpt lat="45.67665311770622" lon="11.518772804670323"><ele>84.0</ele><time>2026-04-06T12:18:53Z</time></trkpt><trkpt lat="45.676994535699436" lon="11.518823460765724"><ele>84.0</ele><time>2026-04-06T12:18:54Z</time></trkpt><trkpt lat="45.67733311589168" lon="11.51887902532728"><ele>84.0</ele><time>2026-04-06T12:18:55Z</time></trkpt><trkpt lat="45.67767486442657" lon="11.518937422020985"><ele>84.0</ele><time>2026-04-06T12:18:56Z</time></trkpt><trkpt lat="45.6780127877893" lon="11.519001772603117"><ele>84.0</ele><time>2026-04-06T12:18:57Z</time></trkpt><trkpt lat="45.67834762648094" lon="11.519079151257717"><ele>84.0</ele><time>2026-04-06T12:18:58Z</time></trkpt><trkpt lat="45.67868323593029" lon="11.519169195573548"><ele>85.0</ele><time>2026-04-06T12:18:59Z</time></trkpt><trkpt lat="45.67901811981099" lon="11.5192699316972"><ele>86.0</ele><time>2026-04-06T12:19:00Z</time></trkpt><trkpt lat="45.67934770087143" lon="11.519385454543587"><ele>86.5</ele><time>2026-04-06T12:19:01Z</time></trkpt><trkpt lat="45.67967539155214" lon="11.51952157132208"><ele>87.0</ele><time>2026-04-06T12:19:02Z</time></trkpt><trkpt lat="45.679998156646164" lon="11.519668404172505"><ele>87.0</ele><time>2026-04-06T12:19:03Z</time></trkpt><trkpt lat="45.68031818318919" lon="11.519828452298054"><ele>87.0</ele><time>2026-04-06T12:19:04Z</time></trkpt><trkpt lat="45.68063572506483" lon="11.520005023094871"><ele>87.0</ele><time>2026-04-06T12:19:05Z</time></trkpt><trkpt lat="45.68094998688009" lon="11.520194220617993"><ele>87.0</ele><time>2026-04-06T12:19:06Z</time></trkpt><trkpt lat="45.68126106027805" lon="11.520397691116472"><ele>87.0</ele><time>2026-04-06T12:19:07Z</time></trkpt><trkpt lat="45.68156723326339" lon="11.520610584134493"><ele>87.0</ele><time>2026-04-06T12:19:08Z</time></trkpt><trkpt lat="45.681870763991945" lon="11.520839304445534"><ele>87.0</ele><time>2026-04-06T12:19:09Z</time></trkpt><trkpt lat="45.682168980056574" lon="11.521081225213248"><ele>87.0</ele><time>2026-04-06T12:19:10Z</time></trkpt><trkpt lat="45.682460200174404" lon="11.52134004422614"><ele>87.0</ele><time>2026-04-06T12:19:11Z</time></trkpt><trkpt lat="45.6827456858015" lon="11.521612510794395"><ele>87.0</ele><time>2026-04-06T12:19:12Z</time></trkpt><trkpt lat="45.683024699543715" lon="11.52189101332996"><ele>88.0</ele><time>2026-04-06T12:19:13Z</time></trkpt><trkpt lat="45.683298764161634" lon="11.522182945856596"><ele>89.0</ele><time>2026-04-06T12:19:14Z</time></trkpt><trkpt lat="45.683564752987834" lon="11.522488729457326"><ele>88.5</ele><time>2026-04-06T12:19:15Z</time></trkpt><trkpt lat="45.68382391507194" lon="11.522803755116133"><ele>88.0</ele><time>2026-04-06T12:19:16Z</time></trkpt><trkpt lat="45.684076650262035" lon="11.523132817679818"><ele>88.5</ele><time>2026-04-06T12:19:17Z</time></trkpt><trkpt lat="45.68432134023757" lon="11.52347747604546"><ele>89.0</ele><time>2026-04-06T12:19:18Z</time></trkpt><trkpt lat="45.684560603297435" lon="11.523828468905274"><ele>89.0</ele><time>2026-04-06T12:19:19Z</time></trkpt><trkpt lat="45.68479336717732" lon="11.524187361879866"><ele>89.0</ele><time>2026-04-06T12:19:20Z</time></trkpt><trkpt lat="45.685022876658266" lon="11.524551199195793"><ele>90.0</ele><time>2026-04-06T12:19:21Z</time></trkpt><trkpt lat="45.685254039543096" lon="11.524915868195597"><ele>91.0</ele><time>2026-04-06T12:19:22Z</time></trkpt><trkpt lat="45.6854796073165" lon="11.52528242773517"><ele>92.5</ele><time>2026-04-06T12:19:23Z</time></trkpt><trkpt lat="45.68570478769129" lon="11.525650117055388"><ele>94.0</ele><time>2026-04-06T12:19:24Z</time></trkpt><trkpt lat="45.68593102520206" lon="11.526019058794194"><ele>94.5</ele><time>2026-04-06T12:19:25Z</time></trkpt><trkpt lat="45.68615497103529" lon="11.526383701535448"><ele>95.0</ele><time>2026-04-06T12:19:26Z</time></trkpt><trkpt lat="45.68638143547857" lon="11.52674941691758"><ele>94.0</ele><time>2026-04-06T12:19:27Z</time></trkpt><trkpt lat="45.686613217621854" lon="11.527121554763731"><ele>93.0</ele><time>2026-04-06T12:19:28.018Z</time></trkpt><trkpt lat="45.68684158101645" lon="11.527487382953153"><ele>93.0</ele><time>2026-04-06T12:19:29.017Z</time></trkpt><trkpt lat="45.687069911059766" lon="11.52785431259991"><ele>93.0</ele><time>2026-04-06T12:19:30.017Z</time></trkpt><trkpt lat="45.68729704607292" lon="11.528222012433396"><ele>93.5</ele><time>2026-04-06T12:19:31.017Z</time></trkpt><trkpt lat="45.68752408267275" lon="11.528589954227929"><ele>94.0</ele><time>2026-04-06T12:19:32.017Z</time></trkpt><trkpt lat="45.690017882777084" lon="11.532484637584101"><ele>98.0</ele><time>2026-04-06T12:19:43Z</time></trkpt><trkpt lat="45.69024784234728" lon="11.532846666014013"><ele>102.0</ele><time>2026-04-06T12:19:44Z</time></trkpt><trkpt lat="45.69050459515563" lon="11.533303555844306"><ele>102.5</ele><time>2026-04-06T12:19:45Z</time></trkpt><trkpt lat="45.690735183474956" lon="11.53366580799953"><ele>103.0</ele><time>2026-04-06T12:19:46Z</time></trkpt><trkpt lat="45.6909625137547" lon="11.53403189038048"><ele>103.0</ele><time>2026-04-06T12:19:47Z</time></trkpt><trkpt lat="45.691185584359864" lon="11.534395725111528"><ele>103.0</ele><time>2026-04-06T12:19:48Z</time></trkpt><trkpt lat="45.69140256323969" lon="11.53476959275464"><ele>103.0</ele><time>2026-04-06T12:19:49Z</time></trkpt><trkpt lat="45.69161380932984" lon="11.535151504983398"><ele>103.0</ele><time>2026-04-06T12:19:50Z</time></trkpt><trkpt lat="45.69181695322989" lon="11.535539650619175"><ele>102.5</ele><time>2026-04-06T12:19:51Z</time></trkpt><trkpt lat="45.692013142864134" lon="11.535936901593796"><ele>102.0</ele><time>2026-04-06T12:19:52Z</time></trkpt><trkpt lat="45.69220364091532" lon="11.536344404925487"><ele>102.0</ele><time>2026-04-06T12:19:53Z</time></trkpt><trkpt lat="45.692384719593875" lon="11.536759134868424"><ele>102.0</ele><time>2026-04-06T12:19:54Z</time></trkpt><trkpt lat="45.69256011787126" lon="11.537181191017796"><ele>103.0</ele><time>2026-04-06T12:19:55Z</time></trkpt><trkpt lat="45.69272677277793" lon="11.537608955496582"><ele>104.0</ele><time>2026-04-06T12:19:56Z</time></trkpt><trkpt lat="45.69288627679857" lon="11.538040376576165"><ele>104.0</ele><time>2026-04-06T12:19:57Z</time></trkpt><trkpt lat="45.693039033737236" lon="11.538477493149587"><ele>104.0</ele><time>2026-04-06T12:19:58Z</time></trkpt><trkpt lat="45.69318190299963" lon="11.538917013020788"><ele>104.0</ele><time>2026-04-06T12:19:59Z</time></trkpt><trkpt lat="45.693319763346274" lon="11.539363167844089"><ele>104.0</ele><time>2026-04-06T12:20:00Z</time></trkpt><trkpt lat="45.69345134464826" lon="11.53982217813289"><ele>104.0</ele><time>2026-04-06T12:20:01.017Z</time></trkpt><trkpt lat="45.69357078922505" lon="11.540277182224752"><ele>104.0</ele><time>2026-04-06T12:20:02.012Z</time></trkpt><trkpt lat="45.69368073607822" lon="11.540744360099179"><ele>104.0</ele><time>2026-04-06T12:20:03.023Z</time></trkpt><trkpt lat="45.69377583952623" lon="11.541202363933648"><ele>104.0</ele><time>2026-04-06T12:20:04Z</time></trkpt><trkpt lat="45.6938732561368" lon="11.541670722505387"><ele>103.5</ele><time>2026-04-06T12:20:05Z</time></trkpt><trkpt lat="45.69395744141842" lon="11.54214149227431"><ele>103.0</ele><time>2026-04-06T12:20:06Z</time></trkpt><trkpt lat="45.69403673309134" lon="11.54261461075209"><ele>102.5</ele><time>2026-04-06T12:20:07Z</time></trkpt><trkpt lat="45.69410779018494" lon="11.543091263155583"><ele>102.0</ele><time>2026-04-06T12:20:08Z</time></trkpt><trkpt lat="45.6941716546123" lon="11.543567030875494"><ele>102.0</ele><time>2026-04-06T12:20:09Z</time></trkpt><trkpt lat="45.69423094950279" lon="11.544043841546163"><ele>102.0</ele><time>2026-04-06T12:20:10Z</time></trkpt><trkpt lat="45.69428695660035" lon="11.544525020285407"><ele>103.0</ele><time>2026-04-06T12:20:11Z</time></trkpt><trkpt lat="45.69434082411706" lon="11.545004308646993"><ele>104.0</ele><time>2026-04-06T12:20:12Z</time></trkpt><trkpt lat="45.69439326985256" lon="11.545484110882283"><ele>103.0</ele><time>2026-04-06T12:20:13Z</time></trkpt><trkpt lat="45.69444732955815" lon="11.54596358391676"><ele>102.0</ele><time>2026-04-06T12:20:14Z</time></trkpt><trkpt lat="45.69449929254634" lon="11.546447574609155"><ele>102.0</ele><time>2026-04-06T12:20:15Z</time></trkpt><trkpt lat="45.69455087670149" lon="11.54692911843147"><ele>102.0</ele><time>2026-04-06T12:20:16Z</time></trkpt><trkpt lat="45.69460190535786" lon="11.54741156878637"><ele>101.5</ele><time>2026-04-06T12:20:17Z</time></trkpt><trkpt lat="45.69465422581155" lon="11.547894264488091"><ele>101.0</ele><time>2026-04-06T12:20:18Z</time></trkpt><trkpt lat="45.69470678437227" lon="11.54837561500141"><ele>98.0</ele><time>2026-04-06T12:20:19Z</time></trkpt><trkpt lat="45.69475965702353" lon="11.54885836132928"><ele>95.0</ele><time>2026-04-06T12:20:20Z</time></trkpt><trkpt lat="45.69481295960084" lon="11.549343313106556"><ele>95.5</ele><time>2026-04-06T12:20:21Z</time></trkpt><trkpt lat="45.694860810367814" lon="11.54982794317765"><ele>96.0</ele><time>2026-04-06T12:20:22Z</time></trkpt><trkpt lat="45.694908379250364" lon="11.550311409621251"><ele>98.0</ele><time>2026-04-06T12:20:23Z</time></trkpt><trkpt lat="45.69495211827906" lon="11.55079906717324"><ele>100.0</ele><time>2026-04-06T12:20:24Z</time></trkpt><trkpt lat="45.694994343473404" lon="11.551285253699334"><ele>100.5</ele><time>2026-04-06T12:20:25Z</time></trkpt><trkpt lat="45.695038456013314" lon="11.551773007152033"><ele>101.0</ele><time>2026-04-06T12:20:26Z</time></trkpt><trkpt lat="45.695082475118326" lon="11.552255672743579"><ele>101.0</ele><time>2026-04-06T12:20:27Z</time></trkpt><trkpt lat="45.69512616853794" lon="11.552742688241098"><ele>101.0</ele><time>2026-04-06T12:20:28Z</time></trkpt><trkpt lat="45.69516968359694" lon="11.553229551543199"><ele>100.5</ele><time>2026-04-06T12:20:29Z</time></trkpt><trkpt lat="45.69521057024846" lon="11.553715568846512"><ele>100.0</ele><time>2026-04-06T12:20:30Z</time></trkpt><trkpt lat="45.695252256033335" lon="11.554200899625926"><ele>102.0</ele><time>2026-04-06T12:20:31Z</time></trkpt><trkpt lat="45.695292125516815" lon="11.554688081199226"><ele>104.0</ele><time>2026-04-06T12:20:32Z</time></trkpt><trkpt lat="45.695329444453186" lon="11.55517640084179"><ele>104.5</ele><time>2026-04-06T12:20:33Z</time></trkpt><trkpt lat="45.69536365974576" lon="11.555665949831111"><ele>105.0</ele><time>2026-04-06T12:20:34Z</time></trkpt><trkpt lat="45.695397427673704" lon="11.55615053785574"><ele>105.0</ele><time>2026-04-06T12:20:35Z</time></trkpt><trkpt lat="45.69542970200779" lon="11.556636760376167"><ele>105.0</ele><time>2026-04-06T12:20:36Z</time></trkpt><trkpt lat="45.69546248077333" lon="11.557123262595164"><ele>104.0</ele><time>2026-04-06T12:20:37Z</time></trkpt><trkpt lat="45.69549344303132" lon="11.55760916057672"><ele>103.0</ele><time>2026-04-06T12:20:38Z</time></trkpt><trkpt lat="45.69552222008039" lon="11.558093164473988"><ele>103.0</ele><time>2026-04-06T12:20:39Z</time></trkpt><trkpt lat="45.695551276508944" lon="11.558577812922513"><ele>103.0</ele><time>2026-04-06T12:20:40Z</time></trkpt><trkpt lat="45.69557972751478" lon="11.559062524644274"><ele>102.5</ele><time>2026-04-06T12:20:41Z</time></trkpt><trkpt lat="45.69560797758509" lon="11.559545450597069"><ele>102.0</ele><time>2026-04-06T12:20:42Z</time></trkpt><trkpt lat="45.69563425334351" lon="11.560031105257297"><ele>102.0</ele><time>2026-04-06T12:20:43Z</time></trkpt><trkpt lat="45.695656108648336" lon="11.560518672339859"><ele>102.0</ele><time>2026-04-06T12:20:44Z</time></trkpt><trkpt lat="45.695676563220246" lon="11.561006352883188"><ele>101.5</ele><time>2026-04-06T12:20:45Z</time></trkpt><trkpt lat="45.69569465286281" lon="11.561493043804123"><ele>101.0</ele><time>2026-04-06T12:20:46Z</time></trkpt><trkpt lat="45.69571113874405" lon="11.561980493074127"><ele>101.0</ele><time>2026-04-06T12:20:47Z</time></trkpt><trkpt lat="45.6957275248626" lon="11.562469051228463"><ele>101.0</ele><time>2026-04-06T12:20:48Z</time></trkpt><trkpt lat="45.695742995703974" lon="11.5629571391084"><ele>101.0</ele><time>2026-04-06T12:20:49Z</time></trkpt><trkpt lat="45.695756942922664" lon="11.563443403191231"><ele>101.0</ele><time>2026-04-06T12:20:50Z</time></trkpt><trkpt lat="45.69577164518403" lon="11.56393545457654"><ele>101.5</ele><time>2026-04-06T12:20:51Z</time></trkpt><trkpt lat="45.69578608327506" lon="11.564424414308826"><ele>102.0</ele><time>2026-04-06T12:20:52Z</time></trkpt><trkpt lat="45.695799841715385" lon="11.564916425101417"><ele>99.5</ele><time>2026-04-06T12:20:53Z</time></trkpt><trkpt lat="45.69581183480818" lon="11.565404767963685"><ele>97.0</ele><time>2026-04-06T12:20:54Z</time></trkpt><trkpt lat="45.695819402435646" lon="11.56589057289016"><ele>96.5</ele><time>2026-04-06T12:20:55Z</time></trkpt><trkpt lat="45.69583159008308" lon="11.566379229320994"><ele>96.0</ele><time>2026-04-06T12:20:56Z</time></trkpt><trkpt lat="45.695843609538706" lon="11.5668665569765"><ele>97.0</ele><time>2026-04-06T12:20:57Z</time></trkpt><trkpt lat="45.6958565309227" lon="11.567357220024753"><ele>98.0</ele><time>2026-04-06T12:20:58Z</time></trkpt><trkpt lat="45.695872781648696" lon="11.567845580131332"><ele>97.5</ele><time>2026-04-06T12:20:59Z</time></trkpt><trkpt lat="45.6958921125888" lon="11.568332138623646"><ele>97.0</ele><time>2026-04-06T12:21:00Z</time></trkpt><trkpt lat="45.69591186472529" lon="11.568818319257366"><ele>96.5</ele><time>2026-04-06T12:21:01Z</time></trkpt><trkpt lat="45.69593050300379" lon="11.569307590931327"><ele>96.0</ele><time>2026-04-06T12:21:02Z</time></trkpt><trkpt lat="45.69595450642764" lon="11.569796482474914"><ele>96.0</ele><time>2026-04-06T12:21:03Z</time></trkpt><trkpt lat="45.69597920889948" lon="11.570283102266204"><ele>96.0</ele><time>2026-04-06T12:21:04Z</time></trkpt><trkpt lat="45.69600658871952" lon="11.57077144272223"><ele>95.5</ele><time>2026-04-06T12:21:05Z</time></trkpt><trkpt lat="45.69603896948123" lon="11.57125789152036"><ele>95.0</ele><time>2026-04-06T12:21:06Z</time></trkpt><trkpt lat="45.69607661015591" lon="11.571743247348275"><ele>95.5</ele><time>2026-04-06T12:21:07Z</time></trkpt><trkpt lat="45.69611938170216" lon="11.572226190367997"><ele>96.0</ele><time>2026-04-06T12:21:08Z</time></trkpt><trkpt lat="45.696167721032296" lon="11.572708161244348"><ele>95.5</ele><time>2026-04-06T12:21:09Z</time></trkpt><trkpt lat="45.69622174567489" lon="11.57319009441453"><ele>95.0</ele><time>2026-04-06T12:21:10Z</time></trkpt><trkpt lat="45.69627863880193" lon="11.573669682215792"><ele>95.0</ele><time>2026-04-06T12:21:11Z</time></trkpt><trkpt lat="45.69633780213098" lon="11.574148279807138"><ele>95.0</ele><time>2026-04-06T12:21:12Z</time></trkpt><trkpt lat="45.6964030978996" lon="11.574626530178856"><ele>95.5</ele><time>2026-04-06T12:21:13Z</time></trkpt><trkpt lat="45.69647197179436" lon="11.575102073162189"><ele>96.0</ele><time>2026-04-06T12:21:14Z</time></trkpt><trkpt lat="45.69654401748521" lon="11.5755782320541"><ele>95.0</ele><time>2026-04-06T12:21:15Z</time></trkpt><trkpt lat="45.69661734984637" lon="11.576052624539496"><ele>94.0</ele><time>2026-04-06T12:21:16Z</time></trkpt><trkpt lat="45.69669187918759" lon="11.576526010422192"><ele>93.5</ele><time>2026-04-06T12:21:17Z</time></trkpt><trkpt lat="45.69677465556114" lon="11.576999235002853"><ele>93.0</ele><time>2026-04-06T12:21:18Z</time></trkpt><trkpt lat="45.696862230968144" lon="11.57746883194024"><ele>93.5</ele><time>2026-04-06T12:21:19Z</time></trkpt><trkpt lat="45.69695556507402" lon="11.57793654711467"><ele>94.0</ele><time>2026-04-06T12:21:20Z</time></trkpt><trkpt lat="45.6970533753145" lon="11.578405056144097"><ele>94.5</ele><time>2026-04-06T12:21:21Z</time></trkpt><trkpt lat="45.69715415930658" lon="11.578871191016066"><ele>95.0</ele><time>2026-04-06T12:21:22Z</time></trkpt><trkpt lat="45.697257464837" lon="11.579336501012081"><ele>95.0</ele><time>2026-04-06T12:21:23Z</time></trkpt><trkpt lat="45.697364283093215" lon="11.57979952093053"><ele>95.0</ele><time>2026-04-06T12:21:24Z</time></trkpt><trkpt lat="45.697480798287124" lon="11.580260722989022"><ele>94.5</ele><time>2026-04-06T12:21:25Z</time></trkpt><trkpt lat="45.69759844347811" lon="11.58072015903043"><ele>94.0</ele><time>2026-04-06T12:21:26Z</time></trkpt><trkpt lat="45.697719886217946" lon="11.5811772898109"><ele>93.5</ele><time>2026-04-06T12:21:27Z</time></trkpt><trkpt lat="45.69784434415117" lon="11.581632532641077"><ele>93.0</ele><time>2026-04-06T12:21:28Z</time></trkpt><trkpt lat="45.697970465554334" lon="11.582086499653983"><ele>92.5</ele><time>2026-04-06T12:21:29Z</time></trkpt><trkpt lat="45.69809722201638" lon="11.582539291123569"><ele>92.0</ele><time>2026-04-06T12:21:30Z</time></trkpt><trkpt lat="45.69822674391022" lon="11.582989938595555"><ele>91.5</ele><time>2026-04-06T12:21:31Z</time></trkpt><trkpt lat="45.69836116364669" lon="11.583439502886122"><ele>91.0</ele><time>2026-04-06T12:21:32Z</time></trkpt><trkpt lat="45.698494836870054" lon="11.583890889606145"><ele>91.0</ele><time>2026-04-06T12:21:33Z</time></trkpt><trkpt lat="45.69862749232723" lon="11.58434273368092"><ele>91.0</ele><time>2026-04-06T12:21:34Z</time></trkpt><trkpt lat="45.698759398120444" lon="11.584792264203053"><ele>90.5</ele><time>2026-04-06T12:21:35Z</time></trkpt><trkpt lat="45.6988924966584" lon="11.585240893857495"><ele>90.0</ele><time>2026-04-06T12:21:36Z</time></trkpt><trkpt lat="45.699026878742025" lon="11.585691221883456"><ele>90.0</ele><time>2026-04-06T12:21:37Z</time></trkpt><trkpt lat="45.699158685253764" lon="11.586141540641403"><ele>90.0</ele><time>2026-04-06T12:21:38Z</time></trkpt><trkpt lat="45.699288983804145" lon="11.586591840723754"><ele>89.5</ele><time>2026-04-06T12:21:39Z</time></trkpt><trkpt lat="45.699418756685404" lon="11.587041772561314"><ele>89.0</ele><time>2026-04-06T12:21:40Z</time></trkpt><trkpt lat="45.69954877110589" lon="11.587492331527837"><ele>88.5</ele><time>2026-04-06T12:21:41Z</time></trkpt><trkpt lat="45.69967996514581" lon="11.587942468213493"><ele>88.0</ele><time>2026-04-06T12:21:42Z</time></trkpt><trkpt lat="45.69981388347357" lon="11.588392038207349"><ele>88.0</ele><time>2026-04-06T12:21:43Z</time></trkpt><trkpt lat="45.69994605399877" lon="11.588843641915167"><ele>88.0</ele><time>2026-04-06T12:21:44Z</time></trkpt><trkpt lat="45.700076662413544" lon="11.589294189868115"><ele>87.5</ele><time>2026-04-06T12:21:45Z</time></trkpt><trkpt lat="45.70020902156325" lon="11.58974465571121"><ele>87.0</ele><time>2026-04-06T12:21:46Z</time></trkpt><trkpt lat="45.700340675665295" lon="11.590193898839695"><ele>85.5</ele><time>2026-04-06T12:21:47Z</time></trkpt><trkpt lat="45.70047414277319" lon="11.590642566454003"><ele>84.0</ele><time>2026-04-06T12:21:48Z</time></trkpt><trkpt lat="45.700609116398" lon="11.591090797578309"><ele>84.0</ele><time>2026-04-06T12:21:49Z</time></trkpt><trkpt lat="45.7007424939545" lon="11.591541201462585"><ele>84.0</ele><time>2026-04-06T12:21:50Z</time></trkpt><trkpt lat="45.700873346031514" lon="11.5919920090937"><ele>85.0</ele><time>2026-04-06T12:21:51Z</time></trkpt><trkpt lat="45.701006796944945" lon="11.592441115498055"><ele>86.0</ele><time>2026-04-06T12:21:52Z</time></trkpt><trkpt lat="45.70113861336548" lon="11.592893319786603"><ele>84.0</ele><time>2026-04-06T12:21:53Z</time></trkpt><trkpt lat="45.701270354388015" lon="11.593344927874378"><ele>82.0</ele><time>2026-04-06T12:21:54Z</time></trkpt><trkpt lat="45.701402743979315" lon="11.593796471511302"><ele>82.0</ele><time>2026-04-06T12:21:55Z</time></trkpt><trkpt lat="45.70153637333767" lon="11.59424962694582"><ele>82.0</ele><time>2026-04-06T12:21:56Z</time></trkpt><trkpt lat="45.70167064527466" lon="11.59470118020043"><ele>82.5</ele><time>2026-04-06T12:21:57Z</time></trkpt><trkpt lat="45.70180370073017" lon="11.595152145457646"><ele>83.0</ele><time>2026-04-06T12:21:58Z</time></trkpt><trkpt lat="45.701938622126676" lon="11.595602661130348"><ele>82.0</ele><time>2026-04-06T12:21:59Z</time></trkpt><trkpt lat="45.70207222784135" lon="11.59605400115677"><ele>81.0</ele><time>2026-04-06T12:22:00Z</time></trkpt><trkpt lat="45.70220530620931" lon="11.59650547450848"><ele>81.0</ele><time>2026-04-06T12:22:01Z</time></trkpt><trkpt lat="45.70233592417555" lon="11.596957561372985"><ele>81.0</ele><time>2026-04-06T12:22:02Z</time></trkpt><trkpt lat="45.70246520762607" lon="11.597408848073446"><ele>81.0</ele><time>2026-04-06T12:22:03Z</time></trkpt><trkpt lat="45.70259756759378" lon="11.597858965671401"><ele>81.0</ele><time>2026-04-06T12:22:04Z</time></trkpt><trkpt lat="45.70273003757685" lon="11.598308030830854"><ele>79.0</ele><time>2026-04-06T12:22:05Z</time></trkpt><trkpt lat="45.70286439543751" lon="11.598755458347462"><ele>77.0</ele><time>2026-04-06T12:22:06Z</time></trkpt><trkpt lat="45.70300122496116" lon="11.59920186564045"><ele>77.5</ele><time>2026-04-06T12:22:07Z</time></trkpt><trkpt lat="45.70313915297581" lon="11.599647550509955"><ele>78.0</ele><time>2026-04-06T12:22:08Z</time></trkpt><trkpt lat="45.703279148469726" lon="11.600091575784013"><ele>77.5</ele><time>2026-04-06T12:22:09Z</time></trkpt><trkpt lat="45.7034208515768" lon="11.60053315556981"><ele>77.0</ele><time>2026-04-06T12:22:10Z</time></trkpt><trkpt lat="45.70356574239715" lon="11.600971505606612"><ele>77.0</ele><time>2026-04-06T12:22:11Z</time></trkpt><trkpt lat="45.70371131176495" lon="11.601409405788496"><ele>77.0</ele><time>2026-04-06T12:22:12Z</time></trkpt><trkpt lat="45.70386071196613" lon="11.601846849092242"><ele>76.5</ele><time>2026-04-06T12:22:13Z</time></trkpt><trkpt lat="45.70400987256126" lon="11.602283600174212"><ele>76.0</ele><time>2026-04-06T12:22:14Z</time></trkpt><trkpt lat="45.70416141008369" lon="11.602718921913954"><ele>76.0</ele><time>2026-04-06T12:22:15Z</time></trkpt><trkpt lat="45.70431301843195" lon="11.603155379322843"><ele>76.0</ele><time>2026-04-06T12:22:16Z</time></trkpt><trkpt lat="45.70446519017328" lon="11.603590903750058"><ele>77.0</ele><time>2026-04-06T12:22:17Z</time></trkpt><trkpt lat="45.70461782474229" lon="11.60402660648325"><ele>78.0</ele><time>2026-04-06T12:22:18Z</time></trkpt><trkpt lat="45.7047707338404" lon="11.604460871896643"><ele>78.0</ele><time>2026-04-06T12:22:19Z</time></trkpt><trkpt lat="45.70492335159969" lon="11.60489678699017"><ele>78.0</ele><time>2026-04-06T12:22:20Z</time></trkpt><trkpt lat="45.7050765786002" lon="11.605331710273282"><ele>77.5</ele><time>2026-04-06T12:22:21Z</time></trkpt><trkpt lat="45.70523053018206" lon="11.605768796223755"><ele>77.0</ele><time>2026-04-06T12:22:22Z</time></trkpt><trkpt lat="45.70538168328023" lon="11.60620568088803"><ele>77.0</ele><time>2026-04-06T12:22:23Z</time></trkpt><trkpt lat="45.70553535570864" lon="11.60664435232081"><ele>77.0</ele><time>2026-04-06T12:22:24Z</time></trkpt><trkpt lat="45.70568889698431" lon="11.607084125259465"><ele>78.0</ele><time>2026-04-06T12:22:25Z</time></trkpt><trkpt lat="45.70583635000829" lon="11.60752611433549"><ele>79.0</ele><time>2026-04-06T12:22:26Z</time></trkpt><trkpt lat="45.70597790071113" lon="11.607972950824832"><ele>78.5</ele><time>2026-04-06T12:22:27Z</time></trkpt><trkpt lat="45.70611872764487" lon="11.608417116698925"><ele>78.0</ele><time>2026-04-06T12:22:28Z</time></trkpt><trkpt lat="45.70625729771343" lon="11.608864688777357"><ele>78.0</ele><time>2026-04-06T12:22:29Z</time></trkpt><trkpt lat="45.7063922498079" lon="11.609315004257121"><ele>78.0</ele><time>2026-04-06T12:22:30Z</time></trkpt><trkpt lat="45.7065256114485" lon="11.60976517337318"><ele>77.5</ele><time>2026-04-06T12:22:31Z</time></trkpt><trkpt lat="45.706655290453256" lon="11.610216338874421"><ele>77.0</ele><time>2026-04-06T12:22:32Z</time></trkpt><trkpt lat="45.70678313731496" lon="11.610667850817563"><ele>77.0</ele><time>2026-04-06T12:22:33Z</time></trkpt><trkpt lat="45.70691068396552" lon="11.611122399849025"><ele>77.0</ele><time>2026-04-06T12:22:34Z</time></trkpt><trkpt lat="45.70703575745608" lon="11.61157698962528"><ele>77.0</ele><time>2026-04-06T12:22:35Z</time></trkpt><trkpt lat="45.707157655867945" lon="11.612033780309979"><ele>77.0</ele><time>2026-04-06T12:22:36Z</time></trkpt><trkpt lat="45.70727648879192" lon="11.612491625830929"><ele>77.5</ele><time>2026-04-06T12:22:37Z</time></trkpt><trkpt lat="45.707392995225305" lon="11.612949580600517"><ele>78.0</ele><time>2026-04-06T12:22:38Z</time></trkpt><trkpt lat="45.70750754083257" lon="11.61341004296706"><ele>78.0</ele><time>2026-04-06T12:22:39Z</time></trkpt><trkpt lat="45.70761933254855" lon="11.6138712292888"><ele>78.0</ele><time>2026-04-06T12:22:40Z</time></trkpt><trkpt lat="45.70772863883111" lon="11.614333511993037"><ele>78.0</ele><time>2026-04-06T12:22:41Z</time></trkpt><trkpt lat="45.70783550118258" lon="11.6147949456369"><ele>78.0</ele><time>2026-04-06T12:22:42Z</time></trkpt><trkpt lat="45.70794151551022" lon="11.615259296289407"><ele>78.0</ele><time>2026-04-06T12:22:43Z</time></trkpt><trkpt lat="45.70804324499219" lon="11.615726149264999"><ele>78.0</ele><time>2026-04-06T12:22:44Z</time></trkpt><trkpt lat="45.70814300701485" lon="11.616192349736822"><ele>77.0</ele><time>2026-04-06T12:22:45Z</time></trkpt><trkpt lat="45.70824038385431" lon="11.61666033991499"><ele>76.0</ele><time>2026-04-06T12:22:46Z</time></trkpt><trkpt lat="45.708333276284556" lon="11.617128929702588"><ele>76.0</ele><time>2026-04-06T12:22:47Z</time></trkpt><trkpt lat="45.708425759615444" lon="11.617599916400899"><ele>76.0</ele><time>2026-04-06T12:22:48Z</time></trkpt><trkpt lat="45.70851536403676" lon="11.618069527555107"><ele>77.0</ele><time>2026-04-06T12:22:49Z</time></trkpt><trkpt lat="45.708602467904925" lon="11.618540809052156"><ele>78.0</ele><time>2026-04-06T12:22:50Z</time></trkpt><trkpt lat="45.70868694126122" lon="11.619015727174197"><ele>78.0</ele><time>2026-04-06T12:22:51Z</time></trkpt><trkpt lat="45.70876822383552" lon="11.619491879353836"><ele>78.0</ele><time>2026-04-06T12:22:52Z</time></trkpt><trkpt lat="45.70884735729688" lon="11.61996919512483"><ele>78.5</ele><time>2026-04-06T12:22:53Z</time></trkpt><trkpt lat="45.708926829539564" lon="11.620444122232099"><ele>79.0</ele><time>2026-04-06T12:22:54Z</time></trkpt><trkpt lat="45.70900479502488" lon="11.620918569341372"><ele>78.5</ele><time>2026-04-06T12:22:55Z</time></trkpt><trkpt lat="45.7090842470417" lon="11.621394620608925"><ele>78.0</ele><time>2026-04-06T12:22:56Z</time></trkpt><trkpt lat="45.70916198691208" lon="11.621869085177101"><ele>78.0</ele><time>2026-04-06T12:22:57Z</time></trkpt><trkpt lat="45.709239624487054" lon="11.622343622526849"><ele>78.0</ele><time>2026-04-06T12:22:58Z</time></trkpt><trkpt lat="45.7093179903921" lon="11.622816984157975"><ele>78.5</ele><time>2026-04-06T12:22:59Z</time></trkpt><trkpt lat="45.709396271704605" lon="11.623291768239842"><ele>79.0</ele><time>2026-04-06T12:23:00Z</time></trkpt><trkpt lat="45.7094740446023" lon="11.623764593401082"><ele>78.0</ele><time>2026-04-06T12:23:01Z</time></trkpt><trkpt lat="45.7095524996527" lon="11.624238553854054"><ele>77.0</ele><time>2026-04-06T12:23:02Z</time></trkpt><trkpt lat="45.70963270914563" lon="11.624710376443518"><ele>77.0</ele><time>2026-04-06T12:23:03Z</time></trkpt><trkpt lat="45.7097177883915" lon="11.62518288431341"><ele>77.0</ele><time>2026-04-06T12:23:04Z</time></trkpt><trkpt lat="45.709810647900014" lon="11.62565276594557"><ele>77.5</ele><time>2026-04-06T12:23:05Z</time></trkpt><trkpt lat="45.709910262239326" lon="11.626119952393541"><ele>78.0</ele><time>2026-04-06T12:23:06Z</time></trkpt><trkpt lat="45.71001643135723" lon="11.626583985957133"><ele>78.0</ele><time>2026-04-06T12:23:07Z</time></trkpt><trkpt lat="45.71012688328841" lon="11.627044548355046"><ele>78.0</ele><time>2026-04-06T12:23:08Z</time></trkpt><trkpt lat="45.710251872458855" lon="11.627496797005037"><ele>78.5</ele><time>2026-04-06T12:23:09Z</time></trkpt><trkpt lat="45.710385723074545" lon="11.627945828251578"><ele>79.0</ele><time>2026-04-06T12:23:10Z</time></trkpt><trkpt lat="45.71052946693603" lon="11.628388583028585"><ele>78.5</ele><time>2026-04-06T12:23:11Z</time></trkpt><trkpt lat="45.71068183412167" lon="11.628825864331821"><ele>78.0</ele><time>2026-04-06T12:23:12Z</time></trkpt><trkpt lat="45.71083958392872" lon="11.62925895308643"><ele>78.5</ele><time>2026-04-06T12:23:13Z</time></trkpt><trkpt lat="45.711003545193456" lon="11.629687890930532"><ele>79.0</ele><time>2026-04-06T12:23:14Z</time></trkpt><trkpt lat="45.71117358807095" lon="11.630109642040164"><ele>77.0</ele><time>2026-04-06T12:23:15Z</time></trkpt><trkpt lat="45.71134959701094" lon="11.630527320850026"><ele>75.0</ele><time>2026-04-06T12:23:16Z</time></trkpt><trkpt lat="45.711536858776924" lon="11.630935883695333"><ele>75.0</ele><time>2026-04-06T12:23:17Z</time></trkpt><trkpt lat="45.71173005283454" lon="11.631337003577976"><ele>75.0</ele><time>2026-04-06T12:23:18Z</time></trkpt><trkpt lat="45.7119286793934" lon="11.631734304272134"><ele>75.5</ele><time>2026-04-06T12:23:19Z</time></trkpt><trkpt lat="45.712141416263705" lon="11.632119178132028"><ele>76.0</ele><time>2026-04-06T12:23:20Z</time></trkpt><trkpt lat="45.71235901363671" lon="11.632498600426931"><ele>76.5</ele><time>2026-04-06T12:23:21Z</time></trkpt><trkpt lat="45.71258050038284" lon="11.632871124168481"><ele>77.0</ele><time>2026-04-06T12:23:22Z</time></trkpt><trkpt lat="45.71280956477209" lon="11.633234401752548"><ele>77.0</ele><time>2026-04-06T12:23:23Z</time></trkpt><trkpt lat="45.71304418379575" lon="11.633589679757382"><ele>77.0</ele><time>2026-04-06T12:23:24Z</time></trkpt><trkpt lat="45.7132822815463" lon="11.633937547650087"><ele>77.0</ele><time>2026-04-06T12:23:25Z</time></trkpt><trkpt lat="45.713525867783936" lon="11.634277238127407"><ele>77.0</ele><time>2026-04-06T12:23:26Z</time></trkpt><trkpt lat="45.7137773743272" lon="11.634606359827965"><ele>78.5</ele><time>2026-04-06T12:23:27Z</time></trkpt><trkpt lat="45.714035039429824" lon="11.6349247769617"><ele>80.0</ele><time>2026-04-06T12:23:28Z</time></trkpt><trkpt lat="45.714298519316586" lon="11.635233697422839"><ele>79.5</ele><time>2026-04-06T12:23:29Z</time></trkpt><trkpt lat="45.71456619509886" lon="11.635531250692063"><ele>79.0</ele><time>2026-04-06T12:23:30Z</time></trkpt><trkpt lat="45.71484113894792" lon="11.635819243711838"><ele>79.0</ele><time>2026-04-06T12:23:31Z</time></trkpt><trkpt lat="45.7151195775488" lon="11.63610030973191"><ele>79.0</ele><time>2026-04-06T12:23:32Z</time></trkpt><trkpt lat="45.71539786799252" lon="11.63638153264177"><ele>78.5</ele><time>2026-04-06T12:23:33Z</time></trkpt><trkpt lat="45.71567611550369" lon="11.636665045328266"><ele>78.0</ele><time>2026-04-06T12:23:34Z</time></trkpt><trkpt lat="45.71595254101878" lon="11.636948030117658"><ele>79.5</ele><time>2026-04-06T12:23:35Z</time></trkpt><trkpt lat="45.71623030434965" lon="11.637234101048032"><ele>81.0</ele><time>2026-04-06T12:23:36Z</time></trkpt><trkpt lat="45.71650903224799" lon="11.637523087291463"><ele>81.0</ele><time>2026-04-06T12:23:37Z</time></trkpt><trkpt lat="45.71678914426942" lon="11.637810483707904"><ele>81.0</ele><time>2026-04-06T12:23:38Z</time></trkpt><trkpt lat="45.71706746786132" lon="11.638094949096345"><ele>81.0</ele><time>2026-04-06T12:23:39Z</time></trkpt><trkpt lat="45.71734514595256" lon="11.638379397940051"><ele>81.0</ele><time>2026-04-06T12:23:40Z</time></trkpt><trkpt lat="45.71762320623413" lon="11.638664815598942"><ele>82.0</ele><time>2026-04-06T12:23:41Z</time></trkpt><trkpt lat="45.71790125469937" lon="11.63895070560614"><ele>83.0</ele><time>2026-04-06T12:23:42Z</time></trkpt><trkpt lat="45.71818006376771" lon="11.639233717746224"><ele>82.5</ele><time>2026-04-06T12:23:43Z</time></trkpt><trkpt lat="45.718459844347166" lon="11.639517336782118"><ele>82.0</ele><time>2026-04-06T12:23:44Z</time></trkpt><trkpt lat="45.7187366797009" lon="11.639803824230233"><ele>82.0</ele><time>2026-04-06T12:23:45Z</time></trkpt><trkpt lat="45.71901373394455" lon="11.640091820401933"><ele>82.0</ele><time>2026-04-06T12:23:46Z</time></trkpt><trkpt lat="45.71929079679572" lon="11.640380587919903"><ele>81.5</ele><time>2026-04-06T12:23:47Z</time></trkpt><trkpt lat="45.719567313944985" lon="11.640669811176886"><ele>81.0</ele><time>2026-04-06T12:23:48Z</time></trkpt><trkpt lat="45.71984459719973" lon="11.640955577923043"><ele>81.0</ele><time>2026-04-06T12:23:49Z</time></trkpt><trkpt lat="45.72012117879582" lon="11.641241259652265"><ele>81.0</ele><time>2026-04-06T12:23:50Z</time></trkpt><trkpt lat="45.72039825357802" lon="11.641525819424338"><ele>81.0</ele><time>2026-04-06T12:23:51Z</time></trkpt><trkpt lat="45.72067606571462" lon="11.641810956875402"><ele>81.0</ele><time>2026-04-06T12:23:52Z</time></trkpt><trkpt lat="45.7209543922291" lon="11.642094568935983"><ele>81.5</ele><time>2026-04-06T12:23:53Z</time></trkpt><trkpt lat="45.721231268588106" lon="11.642380795505428"><ele>82.0</ele><time>2026-04-06T12:23:54Z</time></trkpt><trkpt lat="45.721510408561464" lon="11.642667210999784"><ele>81.5</ele><time>2026-04-06T12:23:55Z</time></trkpt><trkpt lat="45.72178897484817" lon="11.642954760126843"><ele>81.0</ele><time>2026-04-06T12:23:56Z</time></trkpt><trkpt lat="45.722066043395365" lon="11.643242718715527"><ele>81.0</ele><time>2026-04-06T12:23:57Z</time></trkpt><trkpt lat="45.72234527576652" lon="11.643529089956383"><ele>81.0</ele><time>2026-04-06T12:23:58Z</time></trkpt><trkpt lat="45.72262366186774" lon="11.643813024166779"><ele>81.0</ele><time>2026-04-06T12:23:59Z</time></trkpt><trkpt lat="45.72289922331196" lon="11.644099571373419"><ele>81.0</ele><time>2026-04-06T12:24:00Z</time></trkpt><trkpt lat="45.72317459271882" lon="11.644388523491086"><ele>81.0</ele><time>2026-04-06T12:24:01Z</time></trkpt><trkpt lat="45.72344756877582" lon="11.644681895012013"><ele>81.0</ele><time>2026-04-06T12:24:02Z</time></trkpt><trkpt lat="45.72371580341321" lon="11.64498329213324"><ele>81.5</ele><time>2026-04-06T12:24:03Z</time></trkpt><trkpt lat="45.72397727810997" lon="11.645296174466663"><ele>82.0</ele><time>2026-04-06T12:24:04Z</time></trkpt><trkpt lat="45.724234557870645" lon="11.645620540053368"><ele>82.5</ele><time>2026-04-06T12:24:05Z</time></trkpt><trkpt lat="45.72448314878333" lon="11.645954646964471"><ele>83.0</ele><time>2026-04-06T12:24:06Z</time></trkpt><trkpt lat="45.72472370696937" lon="11.646300962112985"><ele>83.0</ele><time>2026-04-06T12:24:07Z</time></trkpt><trkpt lat="45.724953584864124" lon="11.646661818278375"><ele>83.0</ele><time>2026-04-06T12:24:08Z</time></trkpt><trkpt lat="45.725172130624216" lon="11.647036261654476"><ele>83.0</ele><time>2026-04-06T12:24:09Z</time></trkpt><trkpt lat="45.72537876346241" lon="11.647423679011396"><ele>83.0</ele><time>2026-04-06T12:24:10Z</time></trkpt><trkpt lat="45.72557201685652" lon="11.647821242586895"><ele>82.5</ele><time>2026-04-06T12:24:11Z</time></trkpt><trkpt lat="45.72575618914801" lon="11.648230970472488"><ele>82.0</ele><time>2026-04-06T12:24:12Z</time></trkpt><trkpt lat="45.72593254345343" lon="11.64864782740709"><ele>82.0</ele><time>2026-04-06T12:24:13Z</time></trkpt><trkpt lat="45.72609899065021" lon="11.649073024991184"><ele>82.0</ele><time>2026-04-06T12:24:14Z</time></trkpt><trkpt lat="45.72625314989188" lon="11.649509275527008"><ele>82.5</ele><time>2026-04-06T12:24:15Z</time></trkpt><trkpt lat="45.72639205416214" lon="11.649954733727203"><ele>83.0</ele><time>2026-04-06T12:24:16Z</time></trkpt><trkpt lat="45.726519380777894" lon="11.65041070791177"><ele>84.0</ele><time>2026-04-06T12:24:17Z</time></trkpt><trkpt lat="45.72663538102626" lon="11.650872000618264"><ele>85.0</ele><time>2026-04-06T12:24:18Z</time></trkpt><trkpt lat="45.72673994729191" lon="11.651339285877345"><ele>85.5</ele><time>2026-04-06T12:24:19Z</time></trkpt><trkpt lat="45.726834748662334" lon="11.651818915195808"><ele>86.0</ele><time>2026-04-06T12:24:20.015Z</time></trkpt><trkpt lat="45.72691697649241" lon="11.652300168032975"><ele>86.5</ele><time>2026-04-06T12:24:21.022Z</time></trkpt><trkpt lat="45.72698218255884" lon="11.65278046436629"><ele>87.0</ele><time>2026-04-06T12:24:22.018Z</time></trkpt><trkpt lat="45.727036017318504" lon="11.653263116310509"><ele>87.5</ele><time>2026-04-06T12:24:23.017Z</time></trkpt><trkpt lat="45.72708599042906" lon="11.653749851035698"><ele>88.0</ele><time>2026-04-06T12:24:24.022Z</time></trkpt><trkpt lat="45.72759508625206" lon="11.65904785507513"><ele>88.0</ele><time>2026-04-06T12:24:35Z</time></trkpt><trkpt lat="45.72765931690711" lon="11.659524178885697"><ele>88.0</ele><time>2026-04-06T12:24:36Z</time></trkpt><trkpt lat="45.72753748118697" lon="11.660045438227524"><ele>88.0</ele><time>2026-04-06T12:24:37Z</time></trkpt><trkpt lat="45.727628367315745" lon="11.660517280086616"><ele>88.0</ele><time>2026-04-06T12:24:38Z</time></trkpt><trkpt lat="45.72772218759945" lon="11.660985934439303"><ele>86.5</ele><time>2026-04-06T12:24:39Z</time></trkpt><trkpt lat="45.727827483799366" lon="11.661447081518777"><ele>85.0</ele><time>2026-04-06T12:24:40Z</time></trkpt><trkpt lat="45.72793872184577" lon="11.661907625823453"><ele>85.5</ele><time>2026-04-06T12:24:41Z</time></trkpt><trkpt lat="45.728058630180364" lon="11.662366014043501"><ele>86.0</ele><time>2026-04-06T12:24:42Z</time></trkpt><trkpt lat="45.72818428051662" lon="11.662818218582135"><ele>86.0</ele><time>2026-04-06T12:24:43Z</time></trkpt><trkpt lat="45.72831894217584" lon="11.663265996660844"><ele>86.0</ele><time>2026-04-06T12:24:44Z</time></trkpt><trkpt lat="45.728462568608336" lon="11.663708811353827"><ele>86.0</ele><time>2026-04-06T12:24:45Z</time></trkpt><trkpt lat="45.72861568998065" lon="11.664145986665167"><ele>86.0</ele><time>2026-04-06T12:24:46Z</time></trkpt><trkpt lat="45.72877540020464" lon="11.664574763812405"><ele>86.0</ele><time>2026-04-06T12:24:47Z</time></trkpt><trkpt lat="45.72894367572841" lon="11.664998250306134"><ele>86.0</ele><time>2026-04-06T12:24:48Z</time></trkpt><trkpt lat="45.729122326750215" lon="11.665425776022351"><ele>86.0</ele><time>2026-04-06T12:24:49.022Z</time></trkpt><trkpt lat="45.72930502219839" lon="11.665836628738681"><ele>86.0</ele><time>2026-04-06T12:24:50.023Z</time></trkpt><trkpt lat="45.729496180040314" lon="11.666239400351905"><ele>86.0</ele><time>2026-04-06T12:24:51.023Z</time></trkpt><trkpt lat="45.72969492282775" lon="11.666636609422232"><ele>86.0</ele><time>2026-04-06T12:24:52.025Z</time></trkpt><trkpt lat="45.72989568865979" lon="11.66701350178562"><ele>85.5</ele><time>2026-04-06T12:24:53Z</time></trkpt><trkpt lat="45.7301122684901" lon="11.66740959011451"><ele>85.0</ele><time>2026-04-06T12:24:54Z</time></trkpt><trkpt lat="45.730326374041" lon="11.667783868562852"><ele>85.0</ele><time>2026-04-06T12:24:55Z</time></trkpt><trkpt lat="45.730548268242295" lon="11.668155961945489"><ele>85.0</ele><time>2026-04-06T12:24:56Z</time></trkpt><trkpt lat="45.730779744508084" lon="11.668519268680148"><ele>85.5</ele><time>2026-04-06T12:24:57Z</time></trkpt><trkpt lat="45.73101407732057" lon="11.668873863194365"><ele>86.0</ele><time>2026-04-06T12:24:58Z</time></trkpt><trkpt lat="45.731255732771395" lon="11.669218464043272"><ele>86.0</ele><time>2026-04-06T12:24:59Z</time></trkpt><trkpt lat="45.73150535775053" lon="11.66955293908001"><ele>86.0</ele><time>2026-04-06T12:25:00Z</time></trkpt><trkpt lat="45.73176098481909" lon="11.669878839828682"><ele>85.5</ele><time>2026-04-06T12:25:01Z</time></trkpt><trkpt lat="45.73201877441123" lon="11.670200663807206"><ele>85.0</ele><time>2026-04-06T12:25:02Z</time></trkpt><trkpt lat="45.73227465100758" lon="11.670523513641967"><ele>86.0</ele><time>2026-04-06T12:25:03Z</time></trkpt><trkpt lat="45.73252824562227" lon="11.670850648259703"><ele>87.0</ele><time>2026-04-06T12:25:04Z</time></trkpt><trkpt lat="45.732780225471096" lon="11.671182839094952"><ele>87.5</ele><time>2026-04-06T12:25:05Z</time></trkpt><trkpt lat="45.7330253468338" lon="11.671521143718477"><ele>88.0</ele><time>2026-04-06T12:25:06Z</time></trkpt><trkpt lat="45.73327172912049" lon="11.67185651087748"><ele>88.0</ele><time>2026-04-06T12:25:07Z</time></trkpt><trkpt lat="45.73351679177318" lon="11.67219733354934"><ele>88.0</ele><time>2026-04-06T12:25:08Z</time></trkpt><trkpt lat="45.73375477601014" lon="11.672546280303337"><ele>88.5</ele><time>2026-04-06T12:25:09Z</time></trkpt><trkpt lat="45.73398464422488" lon="11.672902828347302"><ele>89.0</ele><time>2026-04-06T12:25:10Z</time></trkpt><trkpt lat="45.73420091865086" lon="11.67327803378284"><ele>87.5</ele><time>2026-04-06T12:25:11Z</time></trkpt><trkpt lat="45.73440677109507" lon="11.6736629391197"><ele>86.0</ele><time>2026-04-06T12:25:12Z</time></trkpt><trkpt lat="45.73460476905812" lon="11.674057325713838"><ele>87.0</ele><time>2026-04-06T12:25:13Z</time></trkpt><trkpt lat="45.73479765531528" lon="11.674458540754069"><ele>88.0</ele><time>2026-04-06T12:25:14Z</time></trkpt><trkpt lat="45.73497973706686" lon="11.674868097391574"><ele>88.0</ele><time>2026-04-06T12:25:15Z</time></trkpt><trkpt lat="45.7351534825596" lon="11.675287644337162"><ele>88.0</ele><time>2026-04-06T12:25:16Z</time></trkpt><trkpt lat="45.73531837386447" lon="11.67571305684279"><ele>87.5</ele><time>2026-04-06T12:25:17Z</time></trkpt><trkpt lat="45.735481729999144" lon="11.676141758101442"><ele>87.0</ele><time>2026-04-06T12:25:18Z</time></trkpt><trkpt lat="45.73564283367527" lon="11.676570783210158"><ele>88.5</ele><time>2026-04-06T12:25:19Z</time></trkpt><trkpt lat="45.735806305884864" lon="11.677000144600582"><ele>90.0</ele><time>2026-04-06T12:25:20Z</time></trkpt><trkpt lat="45.73597054141321" lon="11.677429230523524"><ele>88.5</ele><time>2026-04-06T12:25:21Z</time></trkpt><trkpt lat="45.73613724212748" lon="11.677858849296907"><ele>87.0</ele><time>2026-04-06T12:25:22Z</time></trkpt><trkpt lat="45.73630352189044" lon="11.678286534074253"><ele>87.5</ele><time>2026-04-06T12:25:23Z</time></trkpt><trkpt lat="45.73646941680013" lon="11.678714175142398"><ele>88.0</ele><time>2026-04-06T12:25:24Z</time></trkpt><trkpt lat="45.73663044439775" lon="11.679144223956518"><ele>88.5</ele><time>2026-04-06T12:25:25Z</time></trkpt><trkpt lat="45.7367914950311" lon="11.679576764200132"><ele>89.0</ele><time>2026-04-06T12:25:26Z</time></trkpt><trkpt lat="45.736951016143706" lon="11.680010018879381"><ele>88.0</ele><time>2026-04-06T12:25:27Z</time></trkpt><trkpt lat="45.73710962191372" lon="11.680441916868162"><ele>87.0</ele><time>2026-04-06T12:25:28Z</time></trkpt><trkpt lat="45.73726771038807" lon="11.68087585400357"><ele>87.0</ele><time>2026-04-06T12:25:29Z</time></trkpt><trkpt lat="45.7374264062072" lon="11.681309754475459"><ele>87.0</ele><time>2026-04-06T12:25:30Z</time></trkpt><trkpt lat="45.7375789713961" lon="11.681747463093032"><ele>87.5</ele><time>2026-04-06T12:25:31Z</time></trkpt><trkpt lat="45.7377246146745" lon="11.682186696401997"><ele>88.0</ele><time>2026-04-06T12:25:32Z</time></trkpt><trkpt lat="45.73786024822709" lon="11.682634917253667"><ele>88.0</ele><time>2026-04-06T12:25:33Z</time></trkpt><trkpt lat="45.737985805758676" lon="11.68308928378509"><ele>88.0</ele><time>2026-04-06T12:25:34Z</time></trkpt><trkpt lat="45.73809962135164" lon="11.683551235998198"><ele>87.5</ele><time>2026-04-06T12:25:35Z</time></trkpt><trkpt lat="45.738199944953834" lon="11.684019282717522"><ele>87.0</ele><time>2026-04-06T12:25:36Z</time></trkpt><trkpt lat="45.73828561795143" lon="11.684491046494157"><ele>87.0</ele><time>2026-04-06T12:25:37Z</time></trkpt><trkpt lat="45.7383631535378" lon="11.684968430942817"><ele>87.0</ele><time>2026-04-06T12:25:38Z</time></trkpt><trkpt lat="45.738427002775005" lon="11.685450505683146"><ele>87.0</ele><time>2026-04-06T12:25:39Z</time></trkpt><trkpt lat="45.73848050572392" lon="11.685934925819884"><ele>87.0</ele><time>2026-04-06T12:25:40Z</time></trkpt><trkpt lat="45.738519736279876" lon="11.686417881540367"><ele>87.0</ele><time>2026-04-06T12:25:41Z</time></trkpt><trkpt lat="45.738547265116324" lon="11.686904856469823"><ele>87.0</ele><time>2026-04-06T12:25:42Z</time></trkpt><trkpt lat="45.738566482136704" lon="11.687393665160913"><ele>87.5</ele><time>2026-04-06T12:25:43Z</time></trkpt><trkpt lat="45.7385779806446" lon="11.687883996086814"><ele>88.0</ele><time>2026-04-06T12:25:44Z</time></trkpt><trkpt lat="45.738588784479155" lon="11.688371715453846"><ele>88.0</ele><time>2026-04-06T12:25:45Z</time></trkpt><trkpt lat="45.73859806564548" lon="11.688858311049938"><ele>88.0</ele><time>2026-04-06T12:25:46Z</time></trkpt><trkpt lat="45.73861090460094" lon="11.689345690641687"><ele>88.0</ele><time>2026-04-06T12:25:47Z</time></trkpt><trkpt lat="45.73862224451299" lon="11.689832694204366"><ele>88.0</ele><time>2026-04-06T12:25:48Z</time></trkpt><trkpt lat="45.738632946453535" lon="11.690321090417692"><ele>88.0</ele><time>2026-04-06T12:25:49Z</time></trkpt><trkpt lat="45.73864303509709" lon="11.690809880955571"><ele>88.0</ele><time>2026-04-06T12:25:50Z</time></trkpt><trkpt lat="45.7386492696008" lon="11.691296564898932"><ele>88.0</ele><time>2026-04-06T12:25:51Z</time></trkpt><trkpt lat="45.738651091348856" lon="11.691786158396722"><ele>88.0</ele><time>2026-04-06T12:25:52Z</time></trkpt><trkpt lat="45.73864898117468" lon="11.69227483447311"><ele>87.5</ele><time>2026-04-06T12:25:53Z</time></trkpt><trkpt lat="45.738645245156505" lon="11.692764037513077"><ele>87.0</ele><time>2026-04-06T12:25:54Z</time></trkpt><trkpt lat="45.73864105248079" lon="11.693257178276786"><ele>87.0</ele><time>2026-04-06T12:25:55Z</time></trkpt><trkpt lat="45.73863542803329" lon="11.693746072599833"><ele>87.0</ele><time>2026-04-06T12:25:56Z</time></trkpt><trkpt lat="45.73862829919432" lon="11.694234536247091"><ele>87.5</ele><time>2026-04-06T12:25:57Z</time></trkpt><trkpt lat="45.73861980666012" lon="11.694721381221239"><ele>88.0</ele><time>2026-04-06T12:25:58Z</time></trkpt><trkpt lat="45.73860870537647" lon="11.695210796296335"><ele>88.0</ele><time>2026-04-06T12:25:59Z</time></trkpt><trkpt lat="45.73859517864388" lon="11.695701286509408"><ele>88.0</ele><time>2026-04-06T12:26:00Z</time></trkpt><trkpt lat="45.73857870481459" lon="11.696189150265889"><ele>87.0</ele><time>2026-04-06T12:26:01Z</time></trkpt><trkpt lat="45.7385595048533" lon="11.696675760767864"><ele>86.0</ele><time>2026-04-06T12:26:02Z</time></trkpt><trkpt lat="45.73854195207463" lon="11.697165741078555"><ele>86.0</ele><time>2026-04-06T12:26:03Z</time></trkpt><trkpt lat="45.7385216896818" lon="11.697655774923009"><ele>86.0</ele><time>2026-04-06T12:26:04Z</time></trkpt><trkpt lat="45.738499606206" lon="11.698143440919175"><ele>88.0</ele><time>2026-04-06T12:26:05Z</time></trkpt><trkpt lat="45.738475506207415" lon="11.698628967974798"><ele>90.0</ele><time>2026-04-06T12:26:06Z</time></trkpt><trkpt lat="45.73845031172062" lon="11.699118293277964"><ele>88.0</ele><time>2026-04-06T12:26:07Z</time></trkpt><trkpt lat="45.73842234416309" lon="11.699604662560958"><ele>86.0</ele><time>2026-04-06T12:26:08Z</time></trkpt><trkpt lat="45.73839219799466" lon="11.7000917206946"><ele>87.0</ele><time>2026-04-06T12:26:09Z</time></trkpt><trkpt lat="45.73836035937455" lon="11.700577458363965"><ele>88.0</ele><time>2026-04-06T12:26:10Z</time></trkpt><trkpt lat="45.738326448501546" lon="11.701063663114441"><ele>88.5</ele><time>2026-04-06T12:26:11Z</time></trkpt><trkpt lat="45.73829148820634" lon="11.701549601372841"><ele>89.0</ele><time>2026-04-06T12:26:12Z</time></trkpt><trkpt lat="45.738251573620694" lon="11.702034473676992"><ele>90.0</ele><time>2026-04-06T12:26:13Z</time></trkpt><trkpt lat="45.73821274696967" lon="11.70251974082668"><ele>91.0</ele><time>2026-04-06T12:26:14Z</time></trkpt><trkpt lat="45.738174716070716" lon="11.703005256228227"><ele>91.0</ele><time>2026-04-06T12:26:15Z</time></trkpt><trkpt lat="45.73813682117559" lon="11.703492491766083"><ele>91.0</ele><time>2026-04-06T12:26:16Z</time></trkpt><trkpt lat="45.73810239121796" lon="11.703979104903409"><ele>92.5</ele><time>2026-04-06T12:26:17Z</time></trkpt><trkpt lat="45.73806878587332" lon="11.704465188528347"><ele>94.0</ele><time>2026-04-06T12:26:18Z</time></trkpt><trkpt lat="45.73803319771549" lon="11.704951303567917"><ele>92.0</ele><time>2026-04-06T12:26:19Z</time></trkpt><trkpt lat="45.73799708192674" lon="11.70543492447059"><ele>90.0</ele><time>2026-04-06T12:26:20Z</time></trkpt><trkpt lat="45.737961037509336" lon="11.705920313292582"><ele>90.5</ele><time>2026-04-06T12:26:21Z</time></trkpt><trkpt lat="45.73792458697229" lon="11.706404947842804"><ele>91.0</ele><time>2026-04-06T12:26:22Z</time></trkpt><trkpt lat="45.73789004416237" lon="11.706890551129504"><ele>91.5</ele><time>2026-04-06T12:26:23Z</time></trkpt><trkpt lat="45.73785488517102" lon="11.707373465474605"><ele>92.0</ele><time>2026-04-06T12:26:24Z</time></trkpt><trkpt lat="45.73781694311291" lon="11.707857026424707"><ele>92.0</ele><time>2026-04-06T12:26:25Z</time></trkpt><trkpt lat="45.7377798124797" lon="11.708339472904935"><ele>92.0</ele><time>2026-04-06T12:26:26Z</time></trkpt><trkpt lat="45.73774278135006" lon="11.708821741993471"><ele>93.0</ele><time>2026-04-06T12:26:27Z</time></trkpt><trkpt lat="45.737706408926485" lon="11.709305295215115"><ele>94.0</ele><time>2026-04-06T12:26:28Z</time></trkpt><trkpt lat="45.73767151404519" lon="11.709791464218702"><ele>95.0</ele><time>2026-04-06T12:26:29Z</time></trkpt><trkpt lat="45.737645524533136" lon="11.710277793266727"><ele>96.0</ele><time>2026-04-06T12:26:30Z</time></trkpt><trkpt lat="45.73763002624573" lon="11.7107659056754"><ele>95.0</ele><time>2026-04-06T12:26:31Z</time></trkpt><trkpt lat="45.737624752237096" lon="11.711253587389999"><ele>94.0</ele><time>2026-04-06T12:26:32Z</time></trkpt><trkpt lat="45.7376329980193" lon="11.711743083370887"><ele>93.5</ele><time>2026-04-06T12:26:33Z</time></trkpt><trkpt lat="45.73765352504854" lon="11.712229757149682"><ele>93.0</ele><time>2026-04-06T12:26:34Z</time></trkpt><trkpt lat="45.7376840415476" lon="11.712717256513793"><ele>93.0</ele><time>2026-04-06T12:26:35Z</time></trkpt><trkpt lat="45.73771993293858" lon="11.713204253116784"><ele>93.0</ele><time>2026-04-06T12:26:36Z</time></trkpt><trkpt lat="45.73775974861204" lon="11.713690556307137"><ele>93.0</ele><time>2026-04-06T12:26:37Z</time></trkpt><trkpt lat="45.737801617513185" lon="11.714174389202476"><ele>93.0</ele><time>2026-04-06T12:26:38Z</time></trkpt><trkpt lat="45.7378460166557" lon="11.714658356416075"><ele>93.5</ele><time>2026-04-06T12:26:39Z</time></trkpt><trkpt lat="45.73789073305622" lon="11.715142316892111"><ele>94.0</ele><time>2026-04-06T12:26:40Z</time></trkpt><trkpt lat="45.73793635549253" lon="11.715626022845132"><ele>94.5</ele><time>2026-04-06T12:26:41Z</time></trkpt><trkpt lat="45.73798157234026" lon="11.71611213343625"><ele>95.0</ele><time>2026-04-06T12:26:42Z</time></trkpt><trkpt lat="45.738023663117076" lon="11.716596786784127"><ele>96.0</ele><time>2026-04-06T12:26:43Z</time></trkpt><trkpt lat="45.738064965203236" lon="11.71708333949584"><ele>97.0</ele><time>2026-04-06T12:26:44Z</time></trkpt><trkpt lat="45.738107875192135" lon="11.717569109226165"><ele>96.5</ele><time>2026-04-06T12:26:45Z</time></trkpt><trkpt lat="45.73815246480386" lon="11.718054656495452"><ele>96.0</ele><time>2026-04-06T12:26:46Z</time></trkpt><trkpt lat="45.73819747943995" lon="11.718538541199317"><ele>96.0</ele><time>2026-04-06T12:26:47Z</time></trkpt><trkpt lat="45.738243831791166" lon="11.719023024537695"><ele>96.0</ele><time>2026-04-06T12:26:48Z</time></trkpt><trkpt lat="45.73828872517939" lon="11.71950559683276"><ele>96.0</ele><time>2026-04-06T12:26:49Z</time></trkpt><trkpt lat="45.73833154188557" lon="11.719988028415154"><ele>96.0</ele><time>2026-04-06T12:26:50Z</time></trkpt><trkpt lat="45.73837547026594" lon="11.720472073944546"><ele>95.0</ele><time>2026-04-06T12:26:51Z</time></trkpt><trkpt lat="45.73842017028672" lon="11.720956422005987"><ele>94.0</ele><time>2026-04-06T12:26:52Z</time></trkpt><trkpt lat="45.73846539100518" lon="11.721439802535802"><ele>94.5</ele><time>2026-04-06T12:26:53Z</time></trkpt><trkpt lat="45.73851006711013" lon="11.72192188825433"><ele>95.0</ele><time>2026-04-06T12:26:54Z</time></trkpt><trkpt lat="45.738553613860695" lon="11.722405935499914"><ele>95.5</ele><time>2026-04-06T12:26:55Z</time></trkpt><trkpt lat="45.73859744016093" lon="11.72288951077363"><ele>96.0</ele><time>2026-04-06T12:26:56Z</time></trkpt><trkpt lat="45.73864058497035" lon="11.723375273900421"><ele>96.0</ele><time>2026-04-06T12:26:57Z</time></trkpt><trkpt lat="45.738680713229634" lon="11.72386042031112"><ele>96.0</ele><time>2026-04-06T12:26:58Z</time></trkpt><trkpt lat="45.73871850992239" lon="11.72434584369971"><ele>97.0</ele><time>2026-04-06T12:26:59Z</time></trkpt><trkpt lat="45.73875075666522" lon="11.724832408788108"><ele>98.0</ele><time>2026-04-06T12:27:00Z</time></trkpt><trkpt lat="45.73877438802493" lon="11.725316547302477"><ele>98.0</ele><time>2026-04-06T12:27:01Z</time></trkpt><trkpt lat="45.73878856789326" lon="11.725807045936321"><ele>98.0</ele><time>2026-04-06T12:27:02Z</time></trkpt><trkpt lat="45.73878974686963" lon="11.726296900236399"><ele>98.0</ele><time>2026-04-06T12:27:03Z</time></trkpt><trkpt lat="45.738780626417935" lon="11.72678760488269"><ele>98.0</ele><time>2026-04-06T12:27:04Z</time></trkpt><trkpt lat="45.73875838116303" lon="11.727275792826454"><ele>96.5</ele><time>2026-04-06T12:27:05Z</time></trkpt><trkpt lat="45.738728763328346" lon="11.72776479869609"><ele>95.0</ele><time>2026-04-06T12:27:06Z</time></trkpt><trkpt lat="45.73868929138862" lon="11.72825042769497"><ele>95.5</ele><time>2026-04-06T12:27:07Z</time></trkpt><trkpt lat="45.738639802371324" lon="11.728736208363234"><ele>96.0</ele><time>2026-04-06T12:27:08Z</time></trkpt><trkpt lat="45.738580682933396" lon="11.729221355691926"><ele>95.5</ele><time>2026-04-06T12:27:09Z</time></trkpt><trkpt lat="45.738512985135635" lon="11.729702392110845"><ele>95.0</ele><time>2026-04-06T12:27:10Z</time></trkpt><trkpt lat="45.73843536947794" lon="11.730179785941187"><ele>96.5</ele><time>2026-04-06T12:27:11Z</time></trkpt><trkpt lat="45.73834736299782" lon="11.730651209414766"><ele>98.0</ele><time>2026-04-06T12:27:12Z</time></trkpt><trkpt lat="45.73825077355023" lon="11.731118442960126"><ele>98.5</ele><time>2026-04-06T12:27:13Z</time></trkpt><trkpt lat="45.73814533149171" lon="11.731579333096265"><ele>99.0</ele><time>2026-04-06T12:27:14Z</time></trkpt><trkpt lat="45.73804346496016" lon="11.732040820171509"><ele>99.0</ele><time>2026-04-06T12:27:15Z</time></trkpt><trkpt lat="45.73794359751346" lon="11.732502316190567"><ele>99.0</ele><time>2026-04-06T12:27:16Z</time></trkpt><trkpt lat="45.737837357235456" lon="11.7329671273776"><ele>99.5</ele><time>2026-04-06T12:27:17Z</time></trkpt><trkpt lat="45.73773260780949" lon="11.733431251861564"><ele>100.0</ele><time>2026-04-06T12:27:18Z</time></trkpt><trkpt lat="45.73762965078991" lon="11.733892830786777"><ele>100.0</ele><time>2026-04-06T12:27:19Z</time></trkpt><trkpt lat="45.73752552655735" lon="11.734359260526915"><ele>100.0</ele><time>2026-04-06T12:27:20Z</time></trkpt><trkpt lat="45.73741895726759" lon="11.734823003128481"><ele>100.5</ele><time>2026-04-06T12:27:21Z</time></trkpt><trkpt lat="45.737313698358115" lon="11.735288284582527"><ele>101.0</ele><time>2026-04-06T12:27:22Z</time></trkpt><trkpt lat="45.737205878976944" lon="11.735751476858395"><ele>100.5</ele><time>2026-04-06T12:27:23Z</time></trkpt><trkpt lat="45.7370960305124" lon="11.736214318902933"><ele>100.0</ele><time>2026-04-06T12:27:24Z</time></trkpt><trkpt lat="45.73698521691055" lon="11.736675990589845"><ele>100.5</ele><time>2026-04-06T12:27:25Z</time></trkpt><trkpt lat="45.73687468586123" lon="11.737139146648994"><ele>101.0</ele><time>2026-04-06T12:27:26Z</time></trkpt><trkpt lat="45.73676563222229" lon="11.737602110890364"><ele>101.0</ele><time>2026-04-06T12:27:27Z</time></trkpt><trkpt lat="45.73666262533992" lon="11.738068458584724"><ele>101.0</ele><time>2026-04-06T12:27:28Z</time></trkpt><trkpt lat="45.73656701434237" lon="11.738538968144487"><ele>100.5</ele><time>2026-04-06T12:27:29Z</time></trkpt><trkpt lat="45.73648480847576" lon="11.739015136413752"><ele>100.0</ele><time>2026-04-06T12:27:30Z</time></trkpt><trkpt lat="45.736418846097735" lon="11.739492922051888"><ele>99.5</ele><time>2026-04-06T12:27:31Z</time></trkpt><trkpt lat="45.736368767770614" lon="11.73997741710321"><ele>99.0</ele><time>2026-04-06T12:27:32Z</time></trkpt><trkpt lat="45.73632940735784" lon="11.74046234121013"><ele>100.0</ele><time>2026-04-06T12:27:33Z</time></trkpt><trkpt lat="45.736300735198995" lon="11.740949603477311"><ele>101.0</ele><time>2026-04-06T12:27:34Z</time></trkpt><trkpt lat="45.73627858671967" lon="11.741435133386956"><ele>102.0</ele><time>2026-04-06T12:27:35Z</time></trkpt><trkpt lat="45.73625615092948" lon="11.74192726190064"><ele>103.0</ele><time>2026-04-06T12:27:36Z</time></trkpt><trkpt lat="45.73623414206795" lon="11.742416209003434"><ele>103.0</ele><time>2026-04-06T12:27:37Z</time></trkpt><trkpt lat="45.73621119047781" lon="11.742903890085191"><ele>103.0</ele><time>2026-04-06T12:27:38Z</time></trkpt><trkpt lat="45.73618103369211" lon="11.74339216862827"><ele>102.5</ele><time>2026-04-06T12:27:39Z</time></trkpt><trkpt lat="45.73614839273572" lon="11.743880398525699"><ele>102.0</ele><time>2026-04-06T12:27:40Z</time></trkpt><trkpt lat="45.73611716022262" lon="11.744365076613423"><ele>102.0</ele><time>2026-04-06T12:27:41Z</time></trkpt><trkpt lat="45.73608691528462" lon="11.744850497182064"><ele>102.0</ele><time>2026-04-06T12:27:42Z</time></trkpt><trkpt lat="45.73606141104982" lon="11.745335577295174"><ele>101.5</ele><time>2026-04-06T12:27:43Z</time></trkpt><trkpt lat="45.73603435004102" lon="11.745823019734893"><ele>101.0</ele><time>2026-04-06T12:27:44Z</time></trkpt><trkpt lat="45.73600782037608" lon="11.746305943380031"><ele>101.0</ele><time>2026-04-06T12:27:45Z</time></trkpt><trkpt lat="45.73598007173155" lon="11.746793630400802"><ele>101.0</ele><time>2026-04-06T12:27:46Z</time></trkpt><trkpt lat="45.73595014581678" lon="11.747278683138022"><ele>101.5</ele><time>2026-04-06T12:27:47Z</time></trkpt><trkpt lat="45.73591981728902" lon="11.74776412406961"><ele>102.0</ele><time>2026-04-06T12:27:48Z</time></trkpt><trkpt lat="45.73588894550812" lon="11.748251054449174"><ele>102.0</ele><time>2026-04-06T12:27:49Z</time></trkpt><trkpt lat="45.73585894362029" lon="11.748735135366658"><ele>102.0</ele><time>2026-04-06T12:27:50Z</time></trkpt><trkpt lat="45.735833503478965" lon="11.749220806777393"><ele>101.5</ele><time>2026-04-06T12:27:51Z</time></trkpt><trkpt lat="45.73581926589258" lon="11.749709023553553"><ele>101.0</ele><time>2026-04-06T12:27:52Z</time></trkpt><trkpt lat="45.735817785237884" lon="11.750194703753158"><ele>101.0</ele><time>2026-04-06T12:27:53Z</time></trkpt><trkpt lat="45.7358300627204" lon="11.7506809718093"><ele>101.0</ele><time>2026-04-06T12:27:54Z</time></trkpt><trkpt lat="45.73585194110977" lon="11.751166060747193"><ele>101.0</ele><time>2026-04-06T12:27:55Z</time></trkpt><trkpt lat="45.735880700725644" lon="11.75165156863753"><ele>101.0</ele><time>2026-04-06T12:27:56Z</time></trkpt><trkpt lat="45.73591981966137" lon="11.752136175587104"><ele>101.0</ele><time>2026-04-06T12:27:57Z</time></trkpt><trkpt lat="45.735969286519584" lon="11.752618838579972"><ele>101.0</ele><time>2026-04-06T12:27:58Z</time></trkpt><trkpt lat="45.736029566043086" lon="11.753095947441356"><ele>101.0</ele><time>2026-04-06T12:27:59Z</time></trkpt><trkpt lat="45.73609494845246" lon="11.753575898196567"><ele>101.0</ele><time>2026-04-06T12:28:00Z</time></trkpt><trkpt lat="45.736162538207985" lon="11.75405527455518"><ele>100.0</ele><time>2026-04-06T12:28:01Z</time></trkpt><trkpt lat="45.73622886848454" lon="11.75453534563062"><ele>99.0</ele><time>2026-04-06T12:28:02Z</time></trkpt><trkpt lat="45.73629223946362" lon="11.755016688854909"><ele>100.0</ele><time>2026-04-06T12:28:03Z</time></trkpt><trkpt lat="45.736355532529586" lon="11.755498705846412"><ele>101.0</ele><time>2026-04-06T12:28:04Z</time></trkpt><trkpt lat="45.736416122988366" lon="11.755978794041066"><ele>101.0</ele><time>2026-04-06T12:28:05Z</time></trkpt><trkpt lat="45.73647672053026" lon="11.756460472677496"><ele>101.0</ele><time>2026-04-06T12:28:06Z</time></trkpt><trkpt lat="45.7365406336546" lon="11.756939861855598"><ele>101.0</ele><time>2026-04-06T12:28:07Z</time></trkpt><trkpt lat="45.73660649899273" lon="11.75742063650845"><ele>101.0</ele><time>2026-04-06T12:28:08Z</time></trkpt><trkpt lat="45.73667037757103" lon="11.757899850860687"><ele>101.0</ele><time>2026-04-06T12:28:09Z</time></trkpt><trkpt lat="45.73673433315494" lon="11.758379302931859"><ele>101.0</ele><time>2026-04-06T12:28:10Z</time></trkpt><trkpt lat="45.73679894549864" lon="11.758860043358883"><ele>101.5</ele><time>2026-04-06T12:28:11Z</time></trkpt><trkpt lat="45.73686894181258" lon="11.75933861717008"><ele>102.0</ele><time>2026-04-06T12:28:12Z</time></trkpt><trkpt lat="45.73693601408696" lon="11.759819201005035"><ele>102.5</ele><time>2026-04-06T12:28:13Z</time></trkpt><trkpt lat="45.737002104536174" lon="11.760296694381177"><ele>103.0</ele><time>2026-04-06T12:28:14Z</time></trkpt><trkpt lat="45.73706443527381" lon="11.76077506028377"><ele>102.0</ele><time>2026-04-06T12:28:15Z</time></trkpt><trkpt lat="45.7371310913948" lon="11.76125351784643"><ele>101.0</ele><time>2026-04-06T12:28:16Z</time></trkpt><trkpt lat="45.73720214646632" lon="11.761733459012737"><ele>101.0</ele><time>2026-04-06T12:28:17Z</time></trkpt><trkpt lat="45.73727651586641" lon="11.762211798148014"><ele>101.0</ele><time>2026-04-06T12:28:18Z</time></trkpt><trkpt lat="45.737351071307124" lon="11.762688542373123"><ele>101.0</ele><time>2026-04-06T12:28:19Z</time></trkpt><trkpt lat="45.73742656062424" lon="11.763165421155573"><ele>101.0</ele><time>2026-04-06T12:28:20Z</time></trkpt><trkpt lat="45.737502725582246" lon="11.763640834470426"><ele>101.5</ele><time>2026-04-06T12:28:21Z</time></trkpt><trkpt lat="45.73757659280541" lon="11.76411626459483"><ele>102.0</ele><time>2026-04-06T12:28:22Z</time></trkpt><trkpt lat="45.73765497681405" lon="11.764592598503915"><ele>102.0</ele><time>2026-04-06T12:28:23Z</time></trkpt><trkpt lat="45.737736815271354" lon="11.765069701847878"><ele>102.0</ele><time>2026-04-06T12:28:24Z</time></trkpt><trkpt lat="45.73781746267128" lon="11.765542948697991"><ele>102.0</ele><time>2026-04-06T12:28:25Z</time></trkpt><trkpt lat="45.737899280862656" lon="11.766017218270619"><ele>102.0</ele><time>2026-04-06T12:28:26Z</time></trkpt><trkpt lat="45.73798313214924" lon="11.766489837391212"><ele>102.5</ele><time>2026-04-06T12:28:27Z</time></trkpt><trkpt lat="45.73806677848058" lon="11.766959993620743"><ele>103.0</ele><time>2026-04-06T12:28:28Z</time></trkpt><trkpt lat="45.73815228066379" lon="11.767430947904503"><ele>103.5</ele><time>2026-04-06T12:28:29Z</time></trkpt><trkpt lat="45.738240195189604" lon="11.767904648761524"><ele>104.0</ele><time>2026-04-06T12:28:30Z</time></trkpt><trkpt lat="45.73832890981522" lon="11.768378282839162"><ele>103.5</ele><time>2026-04-06T12:28:31Z</time></trkpt><trkpt lat="45.73841998729536" lon="11.768850154453451"><ele>103.0</ele><time>2026-04-06T12:28:32Z</time></trkpt><trkpt lat="45.73850707355219" lon="11.769318453607784"><ele>103.0</ele><time>2026-04-06T12:28:33Z</time></trkpt><trkpt lat="45.73859161148622" lon="11.769797086526243"><ele>103.0</ele><time>2026-04-06T12:28:34Z</time></trkpt><trkpt lat="45.73867322956809" lon="11.770270872141328"><ele>102.5</ele><time>2026-04-06T12:28:35Z</time></trkpt><trkpt lat="45.73875632833836" lon="11.770744928206346"><ele>102.0</ele><time>2026-04-06T12:28:36Z</time></trkpt><trkpt lat="45.73883978661807" lon="11.77122040733317"><ele>101.5</ele><time>2026-04-06T12:28:37Z</time></trkpt><trkpt lat="45.738923649177124" lon="11.771693591314241"><ele>101.0</ele><time>2026-04-06T12:28:38Z</time></trkpt><trkpt lat="45.73900607085113" lon="11.772167915087467"><ele>101.0</ele><time>2026-04-06T12:28:39Z</time></trkpt><trkpt lat="45.739089315602634" lon="11.772641835460005"><ele>101.0</ele><time>2026-04-06T12:28:40Z</time></trkpt><trkpt lat="45.73916834371133" lon="11.773115046160484"><ele>101.0</ele><time>2026-04-06T12:28:41Z</time></trkpt><trkpt lat="45.73924800990195" lon="11.773590103995394"><ele>101.0</ele><time>2026-04-06T12:28:42Z</time></trkpt><trkpt lat="45.739329335160136" lon="11.774066040131453"><ele>101.5</ele><time>2026-04-06T12:28:43Z</time></trkpt><trkpt lat="45.739407045276984" lon="11.774541084267128"><ele>102.0</ele><time>2026-04-06T12:28:44Z</time></trkpt><trkpt lat="45.7394854593288" lon="11.775016348363021"><ele>101.5</ele><time>2026-04-06T12:28:45Z</time></trkpt><trkpt lat="45.73956011193764" lon="11.77549291744018"><ele>101.0</ele><time>2026-04-06T12:28:46Z</time></trkpt><trkpt lat="45.73963328304035" lon="11.775966837656625"><ele>101.5</ele><time>2026-04-06T12:28:47Z</time></trkpt><trkpt lat="45.73970261432196" lon="11.776440152174848"><ele>102.0</ele><time>2026-04-06T12:28:48Z</time></trkpt><trkpt lat="45.73977627177823" lon="11.776916053809037"><ele>101.0</ele><time>2026-04-06T12:28:49Z</time></trkpt><trkpt lat="45.739846988223675" lon="11.77739272241815"><ele>100.0</ele><time>2026-04-06T12:28:50Z</time></trkpt><trkpt lat="45.73991994827228" lon="11.7778697363065"><ele>99.5</ele><time>2026-04-06T12:28:51Z</time></trkpt><trkpt lat="45.73998598777825" lon="11.778350811710785"><ele>99.0</ele><time>2026-04-06T12:28:52Z</time></trkpt><trkpt lat="45.740053726698974" lon="11.77882975717649"><ele>99.0</ele><time>2026-04-06T12:28:53Z</time></trkpt><trkpt lat="45.740120972111285" lon="11.779309861708258"><ele>99.0</ele><time>2026-04-06T12:28:54Z</time></trkpt><trkpt lat="45.74018965545203" lon="11.779790278555815"><ele>99.5</ele><time>2026-04-06T12:28:55Z</time></trkpt><trkpt lat="45.74025666608383" lon="11.780270622855824"><ele>100.0</ele><time>2026-04-06T12:28:56Z</time></trkpt><trkpt lat="45.74032528929548" lon="11.780749271083263"><ele>99.5</ele><time>2026-04-06T12:28:57Z</time></trkpt><trkpt lat="45.7403919108476" lon="11.781226282743392"><ele>99.0</ele><time>2026-04-06T12:28:58Z</time></trkpt><trkpt lat="45.74045927874278" lon="11.781704903207565"><ele>99.0</ele><time>2026-04-06T12:28:59Z</time></trkpt><trkpt lat="45.74052696495563" lon="11.782193334431566"><ele>99.0</ele><time>2026-04-06T12:29:00.019Z</time></trkpt><trkpt lat="45.74054595153215" lon="11.782684996726054"><ele>98.0</ele><time>2026-04-06T12:29:01.023Z</time></trkpt><trkpt lat="45.74071540489447" lon="11.78363679983304"><ele>98.0</ele><time>2026-04-06T12:29:03.027Z</time></trkpt><trkpt lat="45.74077674400092" lon="11.78411724279616"><ele>98.0</ele><time>2026-04-06T12:29:04.026Z</time></trkpt><trkpt lat="45.741025661160926" lon="11.790607441227687"><ele>98.0</ele><time>2026-04-06T12:29:17Z</time></trkpt><trkpt lat="45.741013122673735" lon="11.791093583850385"><ele>98.0</ele><time>2026-04-06T12:29:18Z</time></trkpt><trkpt lat="45.74109982832967" lon="11.791400138763409"><ele>98.0</ele><time>2026-04-06T12:29:19Z</time></trkpt><trkpt lat="45.741123535131884" lon="11.79189315510113"><ele>98.0</ele><time>2026-04-06T12:29:20Z</time></trkpt><trkpt lat="45.74111821752195" lon="11.792384439897422"><ele>98.0</ele><time>2026-04-06T12:29:21Z</time></trkpt><trkpt lat="45.74112020117559" lon="11.792870463566686"><ele>98.0</ele><time>2026-04-06T12:29:22Z</time></trkpt><trkpt lat="45.74114184781065" lon="11.793355573567815"><ele>98.0</ele><time>2026-04-06T12:29:23Z</time></trkpt><trkpt lat="45.74118165864611" lon="11.793839472706468"><ele>98.0</ele><time>2026-04-06T12:29:24Z</time></trkpt><trkpt lat="45.741237795832525" lon="11.794321093610167"><ele>98.0</ele><time>2026-04-06T12:29:25Z</time></trkpt><trkpt lat="45.741306442158546" lon="11.794795789024322"><ele>98.0</ele><time>2026-04-06T12:29:26Z</time></trkpt><trkpt lat="45.741390596387824" lon="11.795268412641988"><ele>98.0</ele><time>2026-04-06T12:29:27Z</time></trkpt><trkpt lat="45.74148856500778" lon="11.795733639004974"><ele>98.0</ele><time>2026-04-06T12:29:28Z</time></trkpt><trkpt lat="45.741597709804324" lon="11.79619571187503"><ele>97.5</ele><time>2026-04-06T12:29:29Z</time></trkpt><trkpt lat="45.74171512586332" lon="11.796653581668938"><ele>97.0</ele><time>2026-04-06T12:29:30Z</time></trkpt><trkpt lat="45.74185062415895" lon="11.79710493586275"><ele>96.0</ele><time>2026-04-06T12:29:31Z</time></trkpt><trkpt lat="45.7419955273104" lon="11.797544342713401"><ele>95.0</ele><time>2026-04-06T12:29:32Z</time></trkpt><trkpt lat="45.74215767751748" lon="11.797979593913288"><ele>95.0</ele><time>2026-04-06T12:29:33Z</time></trkpt><trkpt lat="45.742326960651155" lon="11.7984136857138"><ele>95.0</ele><time>2026-04-06T12:29:34Z</time></trkpt><trkpt lat="45.74248366668744" lon="11.798851568661691"><ele>95.5</ele><time>2026-04-06T12:29:35Z</time></trkpt><trkpt lat="45.7426290580557" lon="11.79928929395391"><ele>96.0</ele><time>2026-04-06T12:29:36Z</time></trkpt><trkpt lat="45.7427645120932" lon="11.799733851602053"><ele>96.0</ele><time>2026-04-06T12:29:37Z</time></trkpt><trkpt lat="45.742897452658625" lon="11.800185862117605"><ele>96.0</ele><time>2026-04-06T12:29:38Z</time></trkpt><trkpt lat="45.74302256732297" lon="11.800640956064681"><ele>95.0</ele><time>2026-04-06T12:29:39Z</time></trkpt><trkpt lat="45.74314341838978" lon="11.801099980798806"><ele>94.0</ele><time>2026-04-06T12:29:40Z</time></trkpt><trkpt lat="45.743254672421386" lon="11.801562237580349"><ele>93.5</ele><time>2026-04-06T12:29:41Z</time></trkpt><trkpt lat="45.743353199091175" lon="11.802031089079817"><ele>93.0</ele><time>2026-04-06T12:29:42Z</time></trkpt><trkpt lat="45.74343620113588" lon="11.802504819371991"><ele>93.0</ele><time>2026-04-06T12:29:43Z</time></trkpt><trkpt lat="45.74350503956713" lon="11.80298285946303"><ele>93.0</ele><time>2026-04-06T12:29:44Z</time></trkpt><trkpt lat="45.743562681424955" lon="11.80346357519221"><ele>93.5</ele><time>2026-04-06T12:29:45Z</time></trkpt><trkpt lat="45.74360817800528" lon="11.803945443519689"><ele>94.0</ele><time>2026-04-06T12:29:46Z</time></trkpt><trkpt lat="45.74364402556218" lon="11.804427409696059"><ele>95.0</ele><time>2026-04-06T12:29:47Z</time></trkpt><trkpt lat="45.74366849608101" lon="11.804919456628621"><ele>96.0</ele><time>2026-04-06T12:29:48Z</time></trkpt><trkpt lat="45.743686894533944" lon="11.805408371541336"><ele>96.0</ele><time>2026-04-06T12:29:49Z</time></trkpt><trkpt lat="45.74370589140309" lon="11.805896722508228"><ele>96.0</ele><time>2026-04-06T12:29:50Z</time></trkpt><trkpt lat="45.74372299481816" lon="11.806383897541078"><ele>94.0</ele><time>2026-04-06T12:29:51Z</time></trkpt><trkpt lat="45.743743191912074" lon="11.806870323509582"><ele>92.0</ele><time>2026-04-06T12:29:52Z</time></trkpt><trkpt lat="45.74376914551384" lon="11.807356382979181"><ele>91.5</ele><time>2026-04-06T12:29:53Z</time></trkpt><trkpt lat="45.74381159057112" lon="11.807838972475695"><ele>91.0</ele><time>2026-04-06T12:29:54Z</time></trkpt><trkpt lat="45.74387071488154" lon="11.808317236769946"><ele>91.0</ele><time>2026-04-06T12:29:55Z</time></trkpt><trkpt lat="45.74394528634163" lon="11.808793048771635"><ele>91.0</ele><time>2026-04-06T12:29:56Z</time></trkpt><trkpt lat="45.74403839718549" lon="11.80926190112757"><ele>91.0</ele><time>2026-04-06T12:29:57Z</time></trkpt><trkpt lat="45.74414513633083" lon="11.809723114164964"><ele>91.0</ele><time>2026-04-06T12:29:58Z</time></trkpt><trkpt lat="45.74425884421749" lon="11.81018171707019"><ele>91.5</ele><time>2026-04-06T12:29:59Z</time></trkpt><trkpt lat="45.74437075213865" lon="11.810643077995222"><ele>92.0</ele><time>2026-04-06T12:30:00Z</time></trkpt><trkpt lat="45.744484691829385" lon="11.811105130656447"><ele>92.0</ele><time>2026-04-06T12:30:01Z</time></trkpt><trkpt lat="45.74459694671143" lon="11.811575905389356"><ele>92.0</ele><time>2026-04-06T12:30:02.016Z</time></trkpt><trkpt lat="45.74470040434451" lon="11.812045006821352"><ele>90.5</ele><time>2026-04-06T12:30:03.021Z</time></trkpt><trkpt lat="45.74480061492139" lon="11.812510441914956"><ele>89.0</ele><time>2026-04-06T12:30:04.017Z</time></trkpt><trkpt lat="45.74490276518907" lon="11.812977710733573"><ele>89.0</ele><time>2026-04-06T12:30:05.018Z</time></trkpt><trkpt lat="45.74533165436773" lon="11.81483709254471"><ele>89.0</ele><time>2026-04-06T12:30:09Z</time></trkpt><trkpt lat="45.7454138623148" lon="11.815310792097351"><ele>89.0</ele><time>2026-04-06T12:30:10Z</time></trkpt><trkpt lat="45.745507375671956" lon="11.815776225869895"><ele>89.0</ele><time>2026-04-06T12:30:11Z</time></trkpt><trkpt lat="45.7455993263376" lon="11.816243895200028"><ele>89.0</ele><time>2026-04-06T12:30:12Z</time></trkpt><trkpt lat="45.74568080658598" lon="11.81671447627095"><ele>89.0</ele><time>2026-04-06T12:30:13Z</time></trkpt><trkpt lat="45.74576152391247" lon="11.817188605561467"><ele>89.0</ele><time>2026-04-06T12:30:14Z</time></trkpt><trkpt lat="45.745839295454246" lon="11.817663404044188"><ele>88.5</ele><time>2026-04-06T12:30:15Z</time></trkpt><trkpt lat="45.74590641978968" lon="11.818141069052755"><ele>88.0</ele><time>2026-04-06T12:30:16Z</time></trkpt><trkpt lat="45.74596741392527" lon="11.818621670666488"><ele>88.0</ele><time>2026-04-06T12:30:17Z</time></trkpt><trkpt lat="45.746019055856046" lon="11.819105116687986"><ele>88.0</ele><time>2026-04-06T12:30:18Z</time></trkpt><trkpt lat="45.74606880288009" lon="11.81958775399752"><ele>88.0</ele><time>2026-04-06T12:30:19Z</time></trkpt><trkpt lat="45.746114205983524" lon="11.820071134780973"><ele>88.0</ele><time>2026-04-06T12:30:20Z</time></trkpt><trkpt lat="45.74615741106392" lon="11.8205547572167"><ele>87.5</ele><time>2026-04-06T12:30:21Z</time></trkpt><trkpt lat="45.74619660144974" lon="11.821037779286868"><ele>87.0</ele><time>2026-04-06T12:30:22Z</time></trkpt><trkpt lat="45.74623824524781" lon="11.82152176862485"><ele>87.0</ele><time>2026-04-06T12:30:23Z</time></trkpt><trkpt lat="45.746279744813535" lon="11.822006149490738"><ele>87.0</ele><time>2026-04-06T12:30:24Z</time></trkpt><trkpt lat="45.74632080934436" lon="11.82248814332568"><ele>88.0</ele><time>2026-04-06T12:30:25Z</time></trkpt><trkpt lat="45.74635944511469" lon="11.822970898783646"><ele>89.0</ele><time>2026-04-06T12:30:26Z</time></trkpt><trkpt lat="45.74639897326532" lon="11.823455277921694"><ele>89.0</ele><time>2026-04-06T12:30:27Z</time></trkpt><trkpt lat="45.746438529886504" lon="11.823938410571929"><ele>89.0</ele><time>2026-04-06T12:30:28Z</time></trkpt><trkpt lat="45.74647821581653" lon="11.824422293325123"><ele>88.0</ele><time>2026-04-06T12:30:29Z</time></trkpt><trkpt lat="45.74651586743605" lon="11.824906100539192"><ele>87.0</ele><time>2026-04-06T12:30:30Z</time></trkpt><trkpt lat="45.74655112898975" lon="11.825391631095"><ele>87.0</ele><time>2026-04-06T12:30:31Z</time></trkpt><trkpt lat="45.74658266350353" lon="11.82587646735545"><ele>87.0</ele><time>2026-04-06T12:30:32Z</time></trkpt><trkpt lat="45.7466133238657" lon="11.826363642410703"><ele>86.0</ele><time>2026-04-06T12:30:33Z</time></trkpt><trkpt lat="45.74664337056803" lon="11.826852473653064"><ele>85.0</ele><time>2026-04-06T12:30:34Z</time></trkpt><trkpt lat="45.74667459263309" lon="11.827341342292632"><ele>85.0</ele><time>2026-04-06T12:30:35Z</time></trkpt><trkpt lat="45.746705881388806" lon="11.827829216059524"><ele>85.0</ele><time>2026-04-06T12:30:36Z</time></trkpt><trkpt lat="45.74673367434061" lon="11.828316281359665"><ele>84.5</ele><time>2026-04-06T12:30:37Z</time></trkpt><trkpt lat="45.74675893495315" lon="11.828804198324566"><ele>84.0</ele><time>2026-04-06T12:30:38Z</time></trkpt><trkpt lat="45.74678218138568" lon="11.829293138402242"><ele>84.0</ele><time>2026-04-06T12:30:39Z</time></trkpt><trkpt lat="45.74680289828756" lon="11.82978133136181"><ele>84.0</ele><time>2026-04-06T12:30:40Z</time></trkpt><trkpt lat="45.74681878601248" lon="11.83026964588331"><ele>84.0</ele><time>2026-04-06T12:30:41Z</time></trkpt><trkpt lat="45.7468328292953" lon="11.830758538961176"><ele>84.0</ele><time>2026-04-06T12:30:42Z</time></trkpt><trkpt lat="45.74684357878539" lon="11.831246003845715"><ele>84.0</ele><time>2026-04-06T12:30:43Z</time></trkpt><trkpt lat="45.74685267283681" lon="11.83173522198833"><ele>84.0</ele><time>2026-04-06T12:30:44Z</time></trkpt><trkpt lat="45.74685905093856" lon="11.832225011252564"><ele>83.0</ele><time>2026-04-06T12:30:45Z</time></trkpt><trkpt lat="45.746862148392715" lon="11.832714192268957"><ele>82.0</ele><time>2026-04-06T12:30:46Z</time></trkpt><trkpt lat="45.74686308486868" lon="11.833202960846867"><ele>82.0</ele><time>2026-04-06T12:30:47Z</time></trkpt><trkpt lat="45.74686221572213" lon="11.833690561569256"><ele>82.0</ele><time>2026-04-06T12:30:48Z</time></trkpt><trkpt lat="45.74685958368238" lon="11.834181469462687"><ele>82.5</ele><time>2026-04-06T12:30:49Z</time></trkpt><trkpt lat="45.74685476377182" lon="11.83467146416775"><ele>83.0</ele><time>2026-04-06T12:30:50Z</time></trkpt><trkpt lat="45.746847639935396" lon="11.835162491869538"><ele>83.0</ele><time>2026-04-06T12:30:51Z</time></trkpt><trkpt lat="45.74683822304208" lon="11.835651961475993"><ele>83.0</ele><time>2026-04-06T12:30:52Z</time></trkpt><trkpt lat="45.74682538319282" lon="11.836142003105884"><ele>83.0</ele><time>2026-04-06T12:30:53Z</time></trkpt><trkpt lat="45.74681167368483" lon="11.836630171368588"><ele>83.0</ele><time>2026-04-06T12:30:54Z</time></trkpt><trkpt lat="45.746794600384334" lon="11.837118960769512"><ele>83.0</ele><time>2026-04-06T12:30:55Z</time></trkpt><trkpt lat="45.74677182660823" lon="11.837607355744062"><ele>83.0</ele><time>2026-04-06T12:30:56Z</time></trkpt><trkpt lat="45.74674663160547" lon="11.838096185614791"><ele>82.0</ele><time>2026-04-06T12:30:57Z</time></trkpt><trkpt lat="45.74671922098193" lon="11.83858686409403"><ele>81.0</ele><time>2026-04-06T12:30:58Z</time></trkpt><trkpt lat="45.74669187477545" lon="11.839075403336366"><ele>81.0</ele><time>2026-04-06T12:30:59Z</time></trkpt><trkpt lat="45.74666221130631" lon="11.839566370084425"><ele>81.0</ele><time>2026-04-06T12:31:00Z</time></trkpt><trkpt lat="45.746632491049304" lon="11.840053974807446"><ele>80.5</ele><time>2026-04-06T12:31:01Z</time></trkpt><trkpt lat="45.74659947543537" lon="11.840544006583205"><ele>80.0</ele><time>2026-04-06T12:31:02Z</time></trkpt><trkpt lat="45.74656885098787" lon="11.841031893001746"><ele>80.0</ele><time>2026-04-06T12:31:03Z</time></trkpt><trkpt lat="45.74653706595441" lon="11.84151899117091"><ele>80.0</ele><time>2026-04-06T12:31:04Z</time></trkpt><trkpt lat="45.746504555313074" lon="11.842004735717897"><ele>80.5</ele><time>2026-04-06T12:31:05Z</time></trkpt><trkpt lat="45.746468954943076" lon="11.842491349358037"><ele>81.0</ele><time>2026-04-06T12:31:06Z</time></trkpt><trkpt lat="45.74643491647537" lon="11.842974540753316"><ele>81.0</ele><time>2026-04-06T12:31:07Z</time></trkpt><trkpt lat="45.746400360587735" lon="11.843458360699344"><ele>81.0</ele><time>2026-04-06T12:31:08Z</time></trkpt><trkpt lat="45.74636472626726" lon="11.843940821863217"><ele>80.0</ele><time>2026-04-06T12:31:09Z</time></trkpt><trkpt lat="45.746328956670084" lon="11.844424014457635"><ele>79.0</ele><time>2026-04-06T12:31:10Z</time></trkpt><trkpt lat="45.746293220308" lon="11.84490713913785"><ele>79.5</ele><time>2026-04-06T12:31:11Z</time></trkpt><trkpt lat="45.74625963183143" lon="11.845393156430381"><ele>80.0</ele><time>2026-04-06T12:31:12Z</time></trkpt><trkpt lat="45.74623171320411" lon="11.845879123279119"><ele>79.5</ele><time>2026-04-06T12:31:13Z</time></trkpt><trkpt lat="45.74621105156203" lon="11.846363991233941"><ele>79.0</ele><time>2026-04-06T12:31:14Z</time></trkpt><trkpt lat="45.74620323433349" lon="11.846847236649406"><ele>79.0</ele><time>2026-04-06T12:31:15Z</time></trkpt><trkpt lat="45.7462122914179" lon="11.84733500074058"><ele>79.0</ele><time>2026-04-06T12:31:16Z</time></trkpt><trkpt lat="45.74622933433669" lon="11.847823180742925"><ele>79.0</ele><time>2026-04-06T12:31:17Z</time></trkpt><trkpt lat="45.746255458720846" lon="11.848311681342876"><ele>79.0</ele><time>2026-04-06T12:31:18Z</time></trkpt><trkpt lat="45.746286243827925" lon="11.848799668104462"><ele>79.0</ele><time>2026-04-06T12:31:19Z</time></trkpt><trkpt lat="45.74632144393188" lon="11.84928558882952"><ele>79.0</ele><time>2026-04-06T12:31:20Z</time></trkpt><trkpt lat="45.746363575134964" lon="11.849770262895328"><ele>78.0</ele><time>2026-04-06T12:31:21Z</time></trkpt><trkpt lat="45.7464121366227" lon="11.850253625169003"><ele>77.0</ele><time>2026-04-06T12:31:22Z</time></trkpt><trkpt lat="45.7464700252188" lon="11.850735954769856"><ele>77.0</ele><time>2026-04-06T12:31:23Z</time></trkpt><trkpt lat="45.74653616388564" lon="11.851214419545853"><ele>77.0</ele><time>2026-04-06T12:31:24Z</time></trkpt><trkpt lat="45.74661103441253" lon="11.851690968285562"><ele>77.0</ele><time>2026-04-06T12:31:25Z</time></trkpt><trkpt lat="45.74669589193368" lon="11.852164740786332"><ele>77.0</ele><time>2026-04-06T12:31:26Z</time></trkpt><trkpt lat="45.74678983577308" lon="11.85263446992367"><ele>77.5</ele><time>2026-04-06T12:31:27Z</time></trkpt><trkpt lat="45.74689396424901" lon="11.853099929622271"><ele>78.0</ele><time>2026-04-06T12:31:28Z</time></trkpt><trkpt lat="45.74700840879093" lon="11.853561639326465"><ele>77.5</ele><time>2026-04-06T12:31:29Z</time></trkpt><trkpt lat="45.74713114909371" lon="11.854019152137605"><ele>77.0</ele><time>2026-04-06T12:31:30Z</time></trkpt><trkpt lat="45.747262163568074" lon="11.85447342475725"><ele>77.0</ele><time>2026-04-06T12:31:31Z</time></trkpt><trkpt lat="45.74740083632038" lon="11.854922921939123"><ele>77.0</ele><time>2026-04-06T12:31:32Z</time></trkpt><trkpt lat="45.74754392676522" lon="11.855369020055395"><ele>76.5</ele><time>2026-04-06T12:31:33Z</time></trkpt><trkpt lat="45.74769502834643" lon="11.855807951877864"><ele>76.0</ele><time>2026-04-06T12:31:34Z</time></trkpt><trkpt lat="45.747853595757405" lon="11.856240658113474"><ele>76.0</ele><time>2026-04-06T12:31:35Z</time></trkpt><trkpt lat="45.7480211921685" lon="11.856668294639135"><ele>76.0</ele><time>2026-04-06T12:31:36Z</time></trkpt><trkpt lat="45.74819510513667" lon="11.857090583823588"><ele>76.0</ele><time>2026-04-06T12:31:37Z</time></trkpt><trkpt lat="45.748371611163364" lon="11.857509264071442"><ele>76.0</ele><time>2026-04-06T12:31:38Z</time></trkpt><trkpt lat="45.74854795811181" lon="11.857926031610118"><ele>75.0</ele><time>2026-04-06T12:31:39Z</time></trkpt><trkpt lat="45.748724524605116" lon="11.858343839474689"><ele>74.0</ele><time>2026-04-06T12:31:40Z</time></trkpt><trkpt lat="45.74890480395872" lon="11.85876520532203"><ele>74.0</ele><time>2026-04-06T12:31:41.012Z</time></trkpt><trkpt lat="45.74908387996871" lon="11.859180863563287"><ele>74.0</ele><time>2026-04-06T12:31:42.014Z</time></trkpt><trkpt lat="45.74926351589402" lon="11.859600759493146"><ele>74.5</ele><time>2026-04-06T12:31:43.023Z</time></trkpt><trkpt lat="45.74943622647204" lon="11.86000858459041"><ele>75.0</ele><time>2026-04-06T12:31:44Z</time></trkpt><trkpt lat="45.749631549760544" lon="11.860413039082003"><ele>75.5</ele><time>2026-04-06T12:31:45Z</time></trkpt><trkpt lat="45.74980962182665" lon="11.860830644201858"><ele>76.0</ele><time>2026-04-06T12:31:46Z</time></trkpt><trkpt lat="45.74999033575721" lon="11.861247058738002"><ele>75.0</ele><time>2026-04-06T12:31:47Z</time></trkpt><trkpt lat="45.750172385873874" lon="11.861661686841492"><ele>74.0</ele><time>2026-04-06T12:31:48Z</time></trkpt><trkpt lat="45.75032327291367" lon="11.862080595445287"><ele>73.5</ele><time>2026-04-06T12:31:49Z</time></trkpt><trkpt lat="45.75050284320834" lon="11.862494488442145"><ele>73.0</ele><time>2026-04-06T12:31:50Z</time></trkpt><trkpt lat="45.75068225720627" lon="11.862911772586097"><ele>72.0</ele><time>2026-04-06T12:31:51Z</time></trkpt><trkpt lat="45.75086243842748" lon="11.863329094937853"><ele>71.0</ele><time>2026-04-06T12:31:52Z</time></trkpt><trkpt lat="45.751041122278494" lon="11.863746050848457"><ele>73.0</ele><time>2026-04-06T12:31:53Z</time></trkpt><trkpt lat="45.751219024466494" lon="11.86416316526799"><ele>75.0</ele><time>2026-04-06T12:31:54Z</time></trkpt><trkpt lat="45.751397263801614" lon="11.864582157622898"><ele>75.5</ele><time>2026-04-06T12:31:55Z</time></trkpt><trkpt lat="45.751573943585626" lon="11.865000939386036"><ele>76.0</ele><time>2026-04-06T12:31:56Z</time></trkpt><trkpt lat="45.751745168314386" lon="11.865421122174977"><ele>75.5</ele><time>2026-04-06T12:31:57Z</time></trkpt><trkpt lat="45.75191453491632" lon="11.865845422467679"><ele>75.0</ele><time>2026-04-06T12:31:58Z</time></trkpt><trkpt lat="45.752078815670735" lon="11.866273377546195"><ele>74.0</ele><time>2026-04-06T12:31:59Z</time></trkpt><trkpt lat="45.75223892818517" lon="11.866704148332728"><ele>73.0</ele><time>2026-04-06T12:32:00Z</time></trkpt><trkpt lat="45.752395803854725" lon="11.86713866964446"><ele>73.0</ele><time>2026-04-06T12:32:01Z</time></trkpt><trkpt lat="45.75255035511593" lon="11.867576395103399"><ele>73.0</ele><time>2026-04-06T12:32:02Z</time></trkpt><trkpt lat="45.752696855257945" lon="11.868017771027022"><ele>73.5</ele><time>2026-04-06T12:32:03Z</time></trkpt><trkpt lat="45.75283967677097" lon="11.868464256185948"><ele>74.0</ele><time>2026-04-06T12:32:04Z</time></trkpt><trkpt lat="45.75297762754166" lon="11.868910401077459"><ele>73.5</ele><time>2026-04-06T12:32:05Z</time></trkpt><trkpt lat="45.75311116416686" lon="11.869359370786034"><ele>73.0</ele><time>2026-04-06T12:32:06Z</time></trkpt><trkpt lat="45.75323763279413" lon="11.869809995004205"><ele>72.5</ele><time>2026-04-06T12:32:07Z</time></trkpt><trkpt lat="45.75335947966268" lon="11.870251979939589"><ele>72.0</ele><time>2026-04-06T12:32:08Z</time></trkpt><trkpt lat="45.753476513270584" lon="11.870706423071052"><ele>72.5</ele><time>2026-04-06T12:32:09Z</time></trkpt><trkpt lat="45.75359241781654" lon="11.871164691922955"><ele>73.0</ele><time>2026-04-06T12:32:10Z</time></trkpt><trkpt lat="45.753703636454965" lon="11.871625717691764"><ele>73.0</ele><time>2026-04-06T12:32:11Z</time></trkpt><trkpt lat="45.753809741678964" lon="11.872088774945894"><ele>73.0</ele><time>2026-04-06T12:32:12Z</time></trkpt><trkpt lat="45.753911034498095" lon="11.872556171170588"><ele>73.0</ele><time>2026-04-06T12:32:13Z</time></trkpt><trkpt lat="45.754006321762986" lon="11.873023894642245"><ele>73.0</ele><time>2026-04-06T12:32:14Z</time></trkpt><trkpt lat="45.75409388503818" lon="11.873492832994854"><ele>73.0</ele><time>2026-04-06T12:32:15Z</time></trkpt><trkpt lat="45.75417732405729" lon="11.87396684332236"><ele>73.0</ele><time>2026-04-06T12:32:16Z</time></trkpt><trkpt lat="45.75425633150176" lon="11.874442941119046"><ele>73.0</ele><time>2026-04-06T12:32:17Z</time></trkpt><trkpt lat="45.75433048846158" lon="11.874919424827295"><ele>73.0</ele><time>2026-04-06T12:32:18Z</time></trkpt><trkpt lat="45.754403316776184" lon="11.875397899545613"><ele>73.5</ele><time>2026-04-06T12:32:19Z</time></trkpt><trkpt lat="45.75447106799111" lon="11.87587905718854"><ele>74.0</ele><time>2026-04-06T12:32:20Z</time></trkpt><trkpt lat="45.75453413534935" lon="11.876360296617257"><ele>73.5</ele><time>2026-04-06T12:32:21Z</time></trkpt><trkpt lat="45.75459210852415" lon="11.87684316655538"><ele>73.0</ele><time>2026-04-06T12:32:22Z</time></trkpt><trkpt lat="45.75464314212623" lon="11.877326439435425"><ele>73.5</ele><time>2026-04-06T12:32:23Z</time></trkpt><trkpt lat="45.754689675730155" lon="11.877811921080577"><ele>74.0</ele><time>2026-04-06T12:32:24Z</time></trkpt><trkpt lat="45.75472620237545" lon="11.878297843246246"><ele>74.0</ele><time>2026-04-06T12:32:25Z</time></trkpt><trkpt lat="45.754759151395" lon="11.878787066129304"><ele>74.0</ele><time>2026-04-06T12:32:26Z</time></trkpt><trkpt lat="45.75478534519304" lon="11.879276654271283"><ele>74.0</ele><time>2026-04-06T12:32:27Z</time></trkpt><trkpt lat="45.75480667609682" lon="11.879766740147451"><ele>74.0</ele><time>2026-04-06T12:32:28Z</time></trkpt><trkpt lat="45.75482429471237" lon="11.880257298939835"><ele>74.0</ele><time>2026-04-06T12:32:29Z</time></trkpt><trkpt lat="45.75483644087057" lon="11.880749337115384"><ele>74.0</ele><time>2026-04-06T12:32:30Z</time></trkpt><trkpt lat="45.754843161840085" lon="11.881239655802537"><ele>74.0</ele><time>2026-04-06T12:32:31Z</time></trkpt><trkpt lat="45.75484227495232" lon="11.881728289706087"><ele>74.0</ele><time>2026-04-06T12:32:32Z</time></trkpt><trkpt lat="45.75483417274168" lon="11.882216827423196"><ele>72.5</ele><time>2026-04-06T12:32:33Z</time></trkpt><trkpt lat="45.75481861120067" lon="11.882704534468251"><ele>71.0</ele><time>2026-04-06T12:32:34Z</time></trkpt><trkpt lat="45.7547943313246" lon="11.883192175102014"><ele>71.0</ele><time>2026-04-06T12:32:35Z</time></trkpt><trkpt lat="45.75476440585207" lon="11.883678173794078"><ele>71.0</ele><time>2026-04-06T12:32:36Z</time></trkpt><trkpt lat="45.75473504307248" lon="11.884164653484532"><ele>71.0</ele><time>2026-04-06T12:32:37Z</time></trkpt><trkpt lat="45.754704495313156" lon="11.88465086094096"><ele>71.0</ele><time>2026-04-06T12:32:38Z</time></trkpt><trkpt lat="45.75467272245933" lon="11.885137112767596"><ele>72.5</ele><time>2026-04-06T12:32:39Z</time></trkpt><trkpt lat="45.754634619146955" lon="11.885620402034483"><ele>74.0</ele><time>2026-04-06T12:32:40Z</time></trkpt><trkpt lat="45.75459242618996" lon="11.886105197642406"><ele>74.5</ele><time>2026-04-06T12:32:41Z</time></trkpt><trkpt lat="45.7545469021178" lon="11.88658922189376"><ele>75.0</ele><time>2026-04-06T12:32:42Z</time></trkpt><trkpt lat="45.75449119790217" lon="11.88707187845766"><ele>75.0</ele><time>2026-04-06T12:32:43Z</time></trkpt><trkpt lat="45.754427160823525" lon="11.887550971959389"><ele>75.0</ele><time>2026-04-06T12:32:44Z</time></trkpt><trkpt lat="45.75435781675588" lon="11.888029433042137"><ele>73.0</ele><time>2026-04-06T12:32:45Z</time></trkpt><trkpt lat="45.75428465200176" lon="11.888508156524747"><ele>71.0</ele><time>2026-04-06T12:32:46Z</time></trkpt><trkpt lat="45.75420541890026" lon="11.888984642262926"><ele>72.0</ele><time>2026-04-06T12:32:47Z</time></trkpt><trkpt lat="45.75412177391915" lon="11.889459921028122"><ele>73.0</ele><time>2026-04-06T12:32:48Z</time></trkpt><trkpt lat="45.7540358204984" lon="11.889933533156247"><ele>73.0</ele><time>2026-04-06T12:32:49Z</time></trkpt><trkpt lat="45.75394768268218" lon="11.890407144122769"><ele>73.0</ele><time>2026-04-06T12:32:50Z</time></trkpt><trkpt lat="45.753855281149555" lon="11.890878170753512"><ele>73.5</ele><time>2026-04-06T12:32:51Z</time></trkpt><trkpt lat="45.75375558091147" lon="11.891347563297508"><ele>74.0</ele><time>2026-04-06T12:32:52Z</time></trkpt><trkpt lat="45.75364899978159" lon="11.891814288738281"><ele>74.0</ele><time>2026-04-06T12:32:53Z</time></trkpt><trkpt lat="45.7535400167138" lon="11.89227970743468"><ele>74.0</ele><time>2026-04-06T12:32:54Z</time></trkpt><trkpt lat="45.753430105161634" lon="11.892743639549069"><ele>73.5</ele><time>2026-04-06T12:32:55Z</time></trkpt><trkpt lat="45.75331765765682" lon="11.893205861966981"><ele>73.0</ele><time>2026-04-06T12:32:56Z</time></trkpt><trkpt lat="45.75320453437755" lon="11.893668194033905"><ele>72.5</ele><time>2026-04-06T12:32:57Z</time></trkpt><trkpt lat="45.75309294246442" lon="11.894126323630074"><ele>72.0</ele><time>2026-04-06T12:32:58Z</time></trkpt><trkpt lat="45.752980636167976" lon="11.894590194236557"><ele>72.0</ele><time>2026-04-06T12:32:59Z</time></trkpt><trkpt lat="45.75286621967912" lon="11.895050683127872"><ele>72.0</ele><time>2026-04-06T12:33:00Z</time></trkpt><trkpt lat="45.75274919536268" lon="11.895508277750924"><ele>71.5</ele><time>2026-04-06T12:33:01Z</time></trkpt><trkpt lat="45.75263155830101" lon="11.895967473473661"><ele>71.0</ele><time>2026-04-06T12:33:02Z</time></trkpt><trkpt lat="45.75251379933198" lon="11.896425487968115"><ele>71.0</ele><time>2026-04-06T12:33:03Z</time></trkpt><trkpt lat="45.752396923272926" lon="11.89688763678668"><ele>71.0</ele><time>2026-04-06T12:33:04Z</time></trkpt><trkpt lat="45.75228234040054" lon="11.89734862006502"><ele>71.0</ele><time>2026-04-06T12:33:05Z</time></trkpt><trkpt lat="45.75216661787966" lon="11.89780805490449"><ele>71.0</ele><time>2026-04-06T12:33:06Z</time></trkpt><trkpt lat="45.75205113124103" lon="11.898269223574376"><ele>71.5</ele><time>2026-04-06T12:33:07Z</time></trkpt><trkpt lat="45.75193472224665" lon="11.898729077139414"><ele>72.0</ele><time>2026-04-06T12:33:08Z</time></trkpt><trkpt lat="45.75181739247443" lon="11.899187526752872"><ele>71.5</ele><time>2026-04-06T12:33:09Z</time></trkpt><trkpt lat="45.75169856013994" lon="11.899645702386021"><ele>71.0</ele><time>2026-04-06T12:33:10Z</time></trkpt><trkpt lat="45.75157858040627" lon="11.90010475002882"><ele>71.0</ele><time>2026-04-06T12:33:11Z</time></trkpt><trkpt lat="45.75146028201563" lon="11.900562940272616"><ele>71.0</ele><time>2026-04-06T12:33:12Z</time></trkpt><trkpt lat="45.75134319169125" lon="11.901021559067546"><ele>71.0</ele><time>2026-04-06T12:33:13Z</time></trkpt><trkpt lat="45.751226283960904" lon="11.90148302917968"><ele>71.0</ele><time>2026-04-06T12:33:14Z</time></trkpt><trkpt lat="45.75110787634036" lon="11.90194454089205"><ele>71.0</ele><time>2026-04-06T12:33:15Z</time></trkpt><trkpt lat="45.75098907902082" lon="11.902405749543181"><ele>71.0</ele><time>2026-04-06T12:33:16Z</time></trkpt><trkpt lat="45.750870233766186" lon="11.90286500040993"><ele>71.0</ele><time>2026-04-06T12:33:17Z</time></trkpt><trkpt lat="45.75075351703894" lon="11.90332153216072"><ele>71.0</ele><time>2026-04-06T12:33:18Z</time></trkpt><trkpt lat="45.75063618318426" lon="11.903780086551443"><ele>71.5</ele><time>2026-04-06T12:33:19Z</time></trkpt><trkpt lat="45.75051821151019" lon="11.904240139745442"><ele>72.0</ele><time>2026-04-06T12:33:20Z</time></trkpt><trkpt lat="45.750400645047385" lon="11.904700731052724"><ele>71.5</ele><time>2026-04-06T12:33:21Z</time></trkpt><trkpt lat="45.75028396839788" lon="11.905160633343133"><ele>71.0</ele><time>2026-04-06T12:33:22Z</time></trkpt><trkpt lat="45.75016757171009" lon="11.905620784559213"><ele>71.0</ele><time>2026-04-06T12:33:23Z</time></trkpt><trkpt lat="45.75005093947282" lon="11.90607941494184"><ele>71.0</ele><time>2026-04-06T12:33:24Z</time></trkpt><trkpt lat="45.7499324698614" lon="11.906539090108666"><ele>71.5</ele><time>2026-04-06T12:33:25Z</time></trkpt><trkpt lat="45.74981625242768" lon="11.906997113296152"><ele>72.0</ele><time>2026-04-06T12:33:26Z</time></trkpt><trkpt lat="45.749700843927464" lon="11.90745527816633"><ele>72.0</ele><time>2026-04-06T12:33:27Z</time></trkpt><trkpt lat="45.74958675630266" lon="11.907911713596379"><ele>72.0</ele><time>2026-04-06T12:33:28Z</time></trkpt><trkpt lat="45.74947207290213" lon="11.908370018910903"><ele>72.5</ele><time>2026-04-06T12:33:29Z</time></trkpt><trkpt lat="45.74935223868435" lon="11.908827138430128"><ele>73.0</ele><time>2026-04-06T12:33:30Z</time></trkpt><trkpt lat="45.74922850455836" lon="11.909280827354104"><ele>73.5</ele><time>2026-04-06T12:33:31Z</time></trkpt><trkpt lat="45.74909985738127" lon="11.909732164695257"><ele>74.0</ele><time>2026-04-06T12:33:32Z</time></trkpt><trkpt lat="45.748961313475135" lon="11.910184652198943"><ele>74.0</ele><time>2026-04-06T12:33:33.015Z</time></trkpt><trkpt lat="45.74881670259934" lon="11.910625086355852"><ele>74.0</ele><time>2026-04-06T12:33:34.015Z</time></trkpt><trkpt lat="45.74866227906464" lon="11.911061594266782"><ele>72.5</ele><time>2026-04-06T12:33:35.022Z</time></trkpt><trkpt lat="45.748500965400254" lon="11.91148360058416"><ele>71.0</ele><time>2026-04-06T12:33:36.015Z</time></trkpt><trkpt lat="45.748330711719355" lon="11.911907563761437"><ele>71.0</ele><time>2026-04-06T12:33:37.021Z</time></trkpt><trkpt lat="45.74815720740632" lon="11.912325253278235"><ele>71.0</ele><time>2026-04-06T12:33:38.02Z</time></trkpt><trkpt lat="45.74798156590425" lon="11.912738802317286"><ele>71.5</ele><time>2026-04-06T12:33:39.013Z</time></trkpt><trkpt lat="45.74780112304922" lon="11.913155109053562"><ele>72.0</ele><time>2026-04-06T12:33:40.017Z</time></trkpt><trkpt lat="45.74762067559529" lon="11.913571874194304"><ele>72.0</ele><time>2026-04-06T12:33:41.021Z</time></trkpt><trkpt lat="45.74718137275963" lon="11.914867227908145"><ele>71.5</ele><time>2026-04-06T12:33:44Z</time></trkpt><trkpt lat="45.74700855487572" lon="11.915284845437906"><ele>71.0</ele><time>2026-04-06T12:33:45Z</time></trkpt><trkpt lat="45.746831072361836" lon="11.915718365973197"><ele>70.5</ele><time>2026-04-06T12:33:46Z</time></trkpt><trkpt lat="45.746652658610465" lon="11.916138918280536"><ele>70.0</ele><time>2026-04-06T12:33:47Z</time></trkpt><trkpt lat="45.7464797448505" lon="11.91656577381123"><ele>71.0</ele><time>2026-04-06T12:33:48Z</time></trkpt><trkpt lat="45.74630296104685" lon="11.916991509306522"><ele>72.0</ele><time>2026-04-06T12:33:49Z</time></trkpt><trkpt lat="45.746125122009644" lon="11.917410685826964"><ele>72.0</ele><time>2026-04-06T12:33:50Z</time></trkpt><trkpt lat="45.74594891268929" lon="11.917833012954153"><ele>72.0</ele><time>2026-04-06T12:33:51Z</time></trkpt><trkpt lat="45.74577419194899" lon="11.918252441992353"><ele>73.0</ele><time>2026-04-06T12:33:52Z</time></trkpt><trkpt lat="45.74560581366662" lon="11.918678781769383"><ele>74.0</ele><time>2026-04-06T12:33:53Z</time></trkpt><trkpt lat="45.7454550644821" lon="11.9191180019433"><ele>74.0</ele><time>2026-04-06T12:33:54Z</time></trkpt><trkpt lat="45.745299870680135" lon="11.919552262965965"><ele>74.0</ele><time>2026-04-06T12:33:55Z</time></trkpt><trkpt lat="45.74517323496094" lon="11.920004128257803"><ele>73.5</ele><time>2026-04-06T12:33:56Z</time></trkpt><trkpt lat="45.74505407190422" lon="11.920460629436239"><ele>73.0</ele><time>2026-04-06T12:33:57Z</time></trkpt><trkpt lat="45.74494520951776" lon="11.920925839968888"><ele>73.0</ele><time>2026-04-06T12:33:58Z</time></trkpt><trkpt lat="45.744849584506206" lon="11.921396542099913"><ele>73.0</ele><time>2026-04-06T12:33:59Z</time></trkpt><trkpt lat="45.74476480654696" lon="11.921870131771922"><ele>73.0</ele><time>2026-04-06T12:34:00Z</time></trkpt><trkpt lat="45.744691112177065" lon="11.922346699314906"><ele>73.0</ele><time>2026-04-06T12:34:01Z</time></trkpt><trkpt lat="45.74462507731537" lon="11.922823300733583"><ele>73.0</ele><time>2026-04-06T12:34:02Z</time></trkpt><trkpt lat="45.74456296673663" lon="11.92330244123536"><ele>73.0</ele><time>2026-04-06T12:34:03Z</time></trkpt><trkpt lat="45.74450004727668" lon="11.92378262734703"><ele>73.0</ele><time>2026-04-06T12:34:04Z</time></trkpt><trkpt lat="45.744435470054526" lon="11.92426176745194"><ele>73.0</ele><time>2026-04-06T12:34:05Z</time></trkpt><trkpt lat="45.74436924410518" lon="11.9247372240391"><ele>73.0</ele><time>2026-04-06T12:34:06Z</time></trkpt><trkpt lat="45.74429980633239" lon="11.925213448125266"><ele>73.0</ele><time>2026-04-06T12:34:07Z</time></trkpt><trkpt lat="45.74423072299996" lon="11.925690387512793"><ele>73.0</ele><time>2026-04-06T12:34:08Z</time></trkpt><trkpt lat="45.74416409052826" lon="11.926168303840432"><ele>73.0</ele><time>2026-04-06T12:34:09Z</time></trkpt><trkpt lat="45.74410110316837" lon="11.92664818610933"><ele>73.5</ele><time>2026-04-06T12:34:10Z</time></trkpt><trkpt lat="45.74403913397349" lon="11.92712892315042"><ele>74.0</ele><time>2026-04-06T12:34:11Z</time></trkpt><trkpt lat="45.74397646920052" lon="11.927611186803567"><ele>74.5</ele><time>2026-04-06T12:34:12Z</time></trkpt><trkpt lat="45.74391415443217" lon="11.92809173755532"><ele>75.0</ele><time>2026-04-06T12:34:13Z</time></trkpt><trkpt lat="45.74384811769863" lon="11.92856971503295"><ele>75.0</ele><time>2026-04-06T12:34:14Z</time></trkpt><trkpt lat="45.74377938668387" lon="11.929048077482221"><ele>75.0</ele><time>2026-04-06T12:34:15Z</time></trkpt><trkpt lat="45.74370839625838" lon="11.929527374228567"><ele>74.5</ele><time>2026-04-06T12:34:16Z</time></trkpt><trkpt lat="45.74363595826958" lon="11.930006509606992"><ele>74.0</ele><time>2026-04-06T12:34:17Z</time></trkpt><trkpt lat="45.74356043575072" lon="11.930483790954005"><ele>74.5</ele><time>2026-04-06T12:34:18Z</time></trkpt><trkpt lat="45.74347463667554" lon="11.930959185195688"><ele>75.0</ele><time>2026-04-06T12:34:19Z</time></trkpt><trkpt lat="45.74338463713967" lon="11.931430304809409"><ele>74.0</ele><time>2026-04-06T12:34:20Z</time></trkpt><trkpt lat="45.74328635586979" lon="11.931899017329034"><ele>73.0</ele><time>2026-04-06T12:34:21Z</time></trkpt><trkpt lat="45.743179445261916" lon="11.932364282055513"><ele>74.0</ele><time>2026-04-06T12:34:22Z</time></trkpt><trkpt lat="45.74306387324636" lon="11.932825093261064"><ele>75.0</ele><time>2026-04-06T12:34:23Z</time></trkpt><trkpt lat="45.74294486616129" lon="11.933284195511224"><ele>75.0</ele><time>2026-04-06T12:34:24Z</time></trkpt><trkpt lat="45.7428220214185" lon="11.933740228452875"><ele>75.0</ele><time>2026-04-06T12:34:25Z</time></trkpt><trkpt lat="45.74269957841928" lon="11.93419394785244"><ele>75.0</ele><time>2026-04-06T12:34:26Z</time></trkpt><trkpt lat="45.74257595995514" lon="11.934647527861285"><ele>75.0</ele><time>2026-04-06T12:34:27Z</time></trkpt><trkpt lat="45.74245177837309" lon="11.935099548991694"><ele>75.0</ele><time>2026-04-06T12:34:28Z</time></trkpt><trkpt lat="45.742326983500305" lon="11.935551309718871"><ele>75.0</ele><time>2026-04-06T12:34:29Z</time></trkpt><trkpt lat="45.74219776865552" lon="11.93601250515494"><ele>74.5</ele><time>2026-04-06T12:34:30Z</time></trkpt><trkpt lat="45.74206740320891" lon="11.936473410039873"><ele>74.0</ele><time>2026-04-06T12:34:31Z</time></trkpt><trkpt lat="45.7419370645889" lon="11.93692868855156"><ele>73.5</ele><time>2026-04-06T12:34:32Z</time></trkpt><trkpt lat="45.74180766801758" lon="11.937382589611225"><ele>73.0</ele><time>2026-04-06T12:34:33Z</time></trkpt><trkpt lat="45.741680184580424" lon="11.937831354814353"><ele>73.0</ele><time>2026-04-06T12:34:34Z</time></trkpt><trkpt lat="45.741552042632854" lon="11.93828460240078"><ele>73.0</ele><time>2026-04-06T12:34:35Z</time></trkpt><trkpt lat="45.741425609631975" lon="11.938736271537982"><ele>74.0</ele><time>2026-04-06T12:34:36Z</time></trkpt><trkpt lat="45.74129929340237" lon="11.939190276251104"><ele>75.0</ele><time>2026-04-06T12:34:37Z</time></trkpt><trkpt lat="45.741174545053475" lon="11.93964147070586"><ele>75.5</ele><time>2026-04-06T12:34:38Z</time></trkpt><trkpt lat="45.741050675404395" lon="11.940097112023215"><ele>76.0</ele><time>2026-04-06T12:34:39Z</time></trkpt><trkpt lat="45.74092863892381" lon="11.940548513268611"><ele>75.5</ele><time>2026-04-06T12:34:40Z</time></trkpt><trkpt lat="45.74080585545328" lon="11.941003059517184"><ele>75.0</ele><time>2026-04-06T12:34:41Z</time></trkpt><trkpt lat="45.74068319923692" lon="11.941460710037466"><ele>75.5</ele><time>2026-04-06T12:34:42Z</time></trkpt><trkpt lat="45.74055980855843" lon="11.94191504745914"><ele>76.0</ele><time>2026-04-06T12:34:43Z</time></trkpt><trkpt lat="45.74043497751044" lon="11.942369632714428"><ele>76.0</ele><time>2026-04-06T12:34:44Z</time></trkpt><trkpt lat="45.740309721869636" lon="11.942823667216564"><ele>76.0</ele><time>2026-04-06T12:34:45Z</time></trkpt><trkpt lat="45.74018450419311" lon="11.94327888588266"><ele>75.5</ele><time>2026-04-06T12:34:46Z</time></trkpt><trkpt lat="45.74005848198636" lon="11.943732944939153"><ele>75.0</ele><time>2026-04-06T12:34:47Z</time></trkpt><trkpt lat="45.73992881375543" lon="11.944183820702824"><ele>75.0</ele><time>2026-04-06T12:34:48Z</time></trkpt><trkpt lat="45.739807116177886" lon="11.944639727434387"><ele>75.0</ele><time>2026-04-06T12:34:49Z</time></trkpt><trkpt lat="45.739672220995075" lon="11.945089928718975"><ele>75.0</ele><time>2026-04-06T12:34:50Z</time></trkpt><trkpt lat="45.73953167263263" lon="11.945532717051286"><ele>75.0</ele><time>2026-04-06T12:34:51Z</time></trkpt><trkpt lat="45.73938045687263" lon="11.945972207870131"><ele>74.5</ele><time>2026-04-06T12:34:52Z</time></trkpt><trkpt lat="45.73921917963605" lon="11.946401406775209"><ele>74.0</ele><time>2026-04-06T12:34:53Z</time></trkpt><trkpt lat="45.739047938205935" lon="11.946824548856643"><ele>74.0</ele><time>2026-04-06T12:34:54Z</time></trkpt><trkpt lat="45.738867674253996" lon="11.94723962595468"><ele>74.0</ele><time>2026-04-06T12:34:55Z</time></trkpt><trkpt lat="45.73866646476769" lon="11.947643252770128"><ele>74.5</ele><time>2026-04-06T12:34:56Z</time></trkpt><trkpt lat="45.738459576573" lon="11.948036104483531"><ele>75.0</ele><time>2026-04-06T12:34:57Z</time></trkpt><trkpt lat="45.73825259360262" lon="11.948432694669226"><ele>75.5</ele><time>2026-04-06T12:34:58Z</time></trkpt><trkpt lat="45.738045480221366" lon="11.948811676020158"><ele>76.0</ele><time>2026-04-06T12:34:59Z</time></trkpt><trkpt lat="45.73783063157183" lon="11.949186525461778"><ele>74.5</ele><time>2026-04-06T12:35:00Z</time></trkpt><trkpt lat="45.73760739102765" lon="11.949552433711672"><ele>73.0</ele><time>2026-04-06T12:35:01Z</time></trkpt><trkpt lat="45.73737293846948" lon="11.949911446628812"><ele>73.5</ele><time>2026-04-06T12:35:02Z</time></trkpt><trkpt lat="45.73714191271565" lon="11.950267893162028"><ele>74.0</ele><time>2026-04-06T12:35:03Z</time></trkpt><trkpt lat="45.73691173816424" lon="11.95062679522437"><ele>74.5</ele><time>2026-04-06T12:35:04Z</time></trkpt><trkpt lat="45.73668197705394" lon="11.950986551038701"><ele>75.0</ele><time>2026-04-06T12:35:05Z</time></trkpt><trkpt lat="45.73645313699887" lon="11.951349660668651"><ele>74.5</ele><time>2026-04-06T12:35:06Z</time></trkpt><trkpt lat="45.73622470384702" lon="11.95171308072639"><ele>74.0</ele><time>2026-04-06T12:35:07Z</time></trkpt><trkpt lat="45.73599408642442" lon="11.952081327105583"><ele>74.5</ele><time>2026-04-06T12:35:08.013Z</time></trkpt><trkpt lat="45.735764220925226" lon="11.952445532068955"><ele>75.0</ele><time>2026-04-06T12:35:09.02Z</time></trkpt><trkpt lat="45.7355401329226" lon="11.952798382106549"><ele>75.0</ele><time>2026-04-06T12:35:10Z</time></trkpt><trkpt lat="45.73530530922219" lon="11.953160327686172"><ele>75.0</ele><time>2026-04-06T12:35:11Z</time></trkpt><trkpt lat="45.735072684549465" lon="11.953519023742949"><ele>74.5</ele><time>2026-04-06T12:35:12Z</time></trkpt><trkpt lat="45.73484091713514" lon="11.953872046253927"><ele>74.0</ele><time>2026-04-06T12:35:13Z</time></trkpt><trkpt lat="45.734607591368864" lon="11.954229493058953"><ele>73.5</ele><time>2026-04-06T12:35:14Z</time></trkpt><trkpt lat="45.734377900812085" lon="11.95458883253709"><ele>73.0</ele><time>2026-04-06T12:35:15Z</time></trkpt><trkpt lat="45.734152264501525" lon="11.954957056631525"><ele>73.0</ele><time>2026-04-06T12:35:16Z</time></trkpt><trkpt lat="45.73393673526782" lon="11.955335572417578"><ele>73.0</ele><time>2026-04-06T12:35:17Z</time></trkpt><trkpt lat="45.733730601357884" lon="11.955727172715195"><ele>73.0</ele><time>2026-04-06T12:35:18Z</time></trkpt><trkpt lat="45.73353058776244" lon="11.956124682845171"><ele>73.0</ele><time>2026-04-06T12:35:19Z</time></trkpt><trkpt lat="45.73334045828594" lon="11.95652956469582"><ele>72.5</ele><time>2026-04-06T12:35:20Z</time></trkpt><trkpt lat="45.73316090068449" lon="11.956944884804635"><ele>72.0</ele><time>2026-04-06T12:35:21Z</time></trkpt><trkpt lat="45.73299013616456" lon="11.957369866922583"><ele>71.5</ele><time>2026-04-06T12:35:22Z</time></trkpt><trkpt lat="45.73282519906381" lon="11.957811310827523"><ele>71.0</ele><time>2026-04-06T12:35:23.021Z</time></trkpt><trkpt lat="45.73267392471937" lon="11.958251588664917"><ele>71.5</ele><time>2026-04-06T12:35:24.022Z</time></trkpt><trkpt lat="45.73253208357927" lon="11.958697481613815"><ele>72.0</ele><time>2026-04-06T12:35:25.022Z</time></trkpt><trkpt lat="45.732401331008184" lon="11.959147751303254"><ele>72.0</ele><time>2026-04-06T12:35:26.017Z</time></trkpt><trkpt lat="45.73227739762226" lon="11.959596581759406"><ele>72.0</ele><time>2026-04-06T12:35:27Z</time></trkpt><trkpt lat="45.732170227146106" lon="11.96005778354953"><ele>72.0</ele><time>2026-04-06T12:35:28Z</time></trkpt><trkpt lat="45.73206927770585" lon="11.960521670564095"><ele>72.0</ele><time>2026-04-06T12:35:29Z</time></trkpt><trkpt lat="45.73197617640449" lon="11.960995928607932"><ele>71.5</ele><time>2026-04-06T12:35:30Z</time></trkpt><trkpt lat="45.73188609408656" lon="11.961468435749554"><ele>71.0</ele><time>2026-04-06T12:35:31Z</time></trkpt><trkpt lat="45.73179497144291" lon="11.961940371654341"><ele>71.0</ele><time>2026-04-06T12:35:32Z</time></trkpt><trkpt lat="45.73170332052017" lon="11.962411895220376"><ele>71.0</ele><time>2026-04-06T12:35:33Z</time></trkpt><trkpt lat="45.731607731720736" lon="11.962882999419465"><ele>71.0</ele><time>2026-04-06T12:35:34Z</time></trkpt><trkpt lat="45.73151074458061" lon="11.963354890677008"><ele>71.0</ele><time>2026-04-06T12:35:35Z</time></trkpt><trkpt lat="45.73141609660857" lon="11.963823042709455"><ele>70.5</ele><time>2026-04-06T12:35:36Z</time></trkpt><trkpt lat="45.73132033452076" lon="11.964286988827304"><ele>70.0</ele><time>2026-04-06T12:35:37Z</time></trkpt><trkpt lat="45.73122495576698" lon="11.964756573301319"><ele>70.0</ele><time>2026-04-06T12:35:38Z</time></trkpt><trkpt lat="45.731129374407566" lon="11.965222925503017"><ele>70.0</ele><time>2026-04-06T12:35:39Z</time></trkpt><trkpt lat="45.73103706364645" lon="11.965689364891428"><ele>71.0</ele><time>2026-04-06T12:35:40Z</time></trkpt><trkpt lat="45.7309440725486" lon="11.96615558865647"><ele>72.0</ele><time>2026-04-06T12:35:41Z</time></trkpt><trkpt lat="45.7308492272772" lon="11.966621856029182"><ele>71.5</ele><time>2026-04-06T12:35:42Z</time></trkpt><trkpt lat="45.730749861009045" lon="11.967088532872284"><ele>71.0</ele><time>2026-04-06T12:35:43Z</time></trkpt><trkpt lat="45.73064862410843" lon="11.967552409580106"><ele>71.0</ele><time>2026-04-06T12:35:44Z</time></trkpt><trkpt lat="45.73054906327938" lon="11.968017679459944"><ele>71.0</ele><time>2026-04-06T12:35:45Z</time></trkpt><trkpt lat="45.73045609479585" lon="11.968487028054007"><ele>71.0</ele><time>2026-04-06T12:35:46Z</time></trkpt><trkpt lat="45.73037047649422" lon="11.968961774986898"><ele>71.0</ele><time>2026-04-06T12:35:47Z</time></trkpt><trkpt lat="45.730302030768236" lon="11.969440472769266"><ele>72.0</ele><time>2026-04-06T12:35:48Z</time></trkpt><trkpt lat="45.7302494932752" lon="11.969922793179235"><ele>73.0</ele><time>2026-04-06T12:35:49Z</time></trkpt><trkpt lat="45.730216600305646" lon="11.970406135933931"><ele>72.5</ele><time>2026-04-06T12:35:50Z</time></trkpt><trkpt lat="45.73019581449656" lon="11.970892969645432"><ele>72.0</ele><time>2026-04-06T12:35:51Z</time></trkpt><trkpt lat="45.730181168039266" lon="11.971380904770323"><ele>72.0</ele><time>2026-04-06T12:35:52Z</time></trkpt><trkpt lat="45.73017477808469" lon="11.97186446137463"><ele>72.0</ele><time>2026-04-06T12:35:53Z</time></trkpt><trkpt lat="45.73017051434618" lon="11.972350877966509"><ele>72.0</ele><time>2026-04-06T12:35:54Z</time></trkpt><trkpt lat="45.73016712084955" lon="11.972826893538286"><ele>72.0</ele><time>2026-04-06T12:35:55Z</time></trkpt><trkpt lat="45.730158234395404" lon="11.973317548318228"><ele>72.0</ele><time>2026-04-06T12:35:56Z</time></trkpt><trkpt lat="45.73014439633491" lon="11.973807726601073"><ele>72.0</ele><time>2026-04-06T12:35:57Z</time></trkpt><trkpt lat="45.730126916982094" lon="11.974298482806317"><ele>72.0</ele><time>2026-04-06T12:35:58Z</time></trkpt><trkpt lat="45.7301113279142" lon="11.97478694460021"><ele>72.0</ele><time>2026-04-06T12:35:59Z</time></trkpt><trkpt lat="45.73009865431857" lon="11.975273220582375"><ele>72.0</ele><time>2026-04-06T12:36:00Z</time></trkpt><trkpt lat="45.73009103428521" lon="11.975762137049594"><ele>72.0</ele><time>2026-04-06T12:36:01Z</time></trkpt><trkpt lat="45.73008487045837" lon="11.976252138852981"><ele>72.0</ele><time>2026-04-06T12:36:02Z</time></trkpt><trkpt lat="45.73007315773064" lon="11.976767800939497"><ele>72.0</ele><time>2026-04-06T12:36:03Z</time></trkpt><trkpt lat="45.73006131969133" lon="11.977256665896984"><ele>74.0</ele><time>2026-04-06T12:36:04Z</time></trkpt><trkpt lat="45.73004729412294" lon="11.977743432103265"><ele>76.0</ele><time>2026-04-06T12:36:05Z</time></trkpt><trkpt lat="45.730028482982846" lon="11.978231016257375"><ele>76.5</ele><time>2026-04-06T12:36:06Z</time></trkpt><trkpt lat="45.73000332578987" lon="11.978718666955226"><ele>77.0</ele><time>2026-04-06T12:36:07Z</time></trkpt><trkpt lat="45.729969302146436" lon="11.979201376893968"><ele>75.5</ele><time>2026-04-06T12:36:08Z</time></trkpt><trkpt lat="45.729926749828074" lon="11.979688383248197"><ele>74.0</ele><time>2026-04-06T12:36:09Z</time></trkpt><trkpt lat="45.7298761537658" lon="11.980166709896858"><ele>73.5</ele><time>2026-04-06T12:36:10Z</time></trkpt><trkpt lat="45.72981096386165" lon="11.980640277966033"><ele>73.0</ele><time>2026-04-06T12:36:11Z</time></trkpt><trkpt lat="45.72973431524868" lon="11.981111839201619"><ele>73.0</ele><time>2026-04-06T12:36:12Z</time></trkpt><trkpt lat="45.729648022205346" lon="11.981580418653875"><ele>73.0</ele><time>2026-04-06T12:36:13Z</time></trkpt><trkpt lat="45.729554781680875" lon="11.982047283266708"><ele>73.0</ele><time>2026-04-06T12:36:14Z</time></trkpt><trkpt lat="45.729461596952" lon="11.982516118832201"><ele>73.0</ele><time>2026-04-06T12:36:15Z</time></trkpt><trkpt lat="45.72936845036293" lon="11.982984943711386"><ele>72.0</ele><time>2026-04-06T12:36:16Z</time></trkpt><trkpt lat="45.729275036459526" lon="11.98345420510057"><ele>71.0</ele><time>2026-04-06T12:36:17Z</time></trkpt><trkpt lat="45.729180619791656" lon="11.983922093153373"><ele>71.0</ele><time>2026-04-06T12:36:18Z</time></trkpt><trkpt lat="45.72908671678842" lon="11.984391900848008"><ele>71.0</ele><time>2026-04-06T12:36:19Z</time></trkpt><trkpt lat="45.72899391838531" lon="11.984859268864989"><ele>71.0</ele><time>2026-04-06T12:36:20Z</time></trkpt><trkpt lat="45.72890147474013" lon="11.98533196404932"><ele>71.0</ele><time>2026-04-06T12:36:21Z</time></trkpt><trkpt lat="45.72880915803573" lon="11.985801825330741"><ele>70.5</ele><time>2026-04-06T12:36:22Z</time></trkpt><trkpt lat="45.728715508798004" lon="11.986270182507083"><ele>70.0</ele><time>2026-04-06T12:36:23Z</time></trkpt><trkpt lat="45.72861925116085" lon="11.986740411617165"><ele>70.0</ele><time>2026-04-06T12:36:24Z</time></trkpt><trkpt lat="45.72852281132212" lon="11.987208407857562"><ele>70.0</ele><time>2026-04-06T12:36:25Z</time></trkpt><trkpt lat="45.72842610029846" lon="11.98767948061678"><ele>70.0</ele><time>2026-04-06T12:36:26Z</time></trkpt><trkpt lat="45.7283329229299" lon="11.98815316542787"><ele>70.0</ele><time>2026-04-06T12:36:27Z</time></trkpt><trkpt lat="45.72824988773608" lon="11.988628604196302"><ele>70.5</ele><time>2026-04-06T12:36:28Z</time></trkpt><trkpt lat="45.728177679814145" lon="11.989105316129281"><ele>71.0</ele><time>2026-04-06T12:36:29Z</time></trkpt><trkpt lat="45.72811759478386" lon="11.989587365474954"><ele>71.0</ele><time>2026-04-06T12:36:30Z</time></trkpt><trkpt lat="45.72806827097117" lon="11.990071761875456"><ele>71.0</ele><time>2026-04-06T12:36:31Z</time></trkpt><trkpt lat="45.72802867947546" lon="11.990557280579816"><ele>72.0</ele><time>2026-04-06T12:36:32Z</time></trkpt><trkpt lat="45.7279992167487" lon="11.991054533782272"><ele>73.0</ele><time>2026-04-06T12:36:33Z</time></trkpt><trkpt lat="45.7279788337003" lon="11.991544968476573"><ele>73.0</ele><time>2026-04-06T12:36:34Z</time></trkpt><trkpt lat="45.727965911612074" lon="11.992037747900104"><ele>73.0</ele><time>2026-04-06T12:36:35Z</time></trkpt><trkpt lat="45.72796021486742" lon="11.992532336658364"><ele>72.5</ele><time>2026-04-06T12:36:36Z</time></trkpt><trkpt lat="45.72796227445774" lon="11.993015640608993"><ele>72.0</ele><time>2026-04-06T12:36:37Z</time></trkpt><trkpt lat="45.727977740989495" lon="11.993494091148433"><ele>71.5</ele><time>2026-04-06T12:36:38Z</time></trkpt><trkpt lat="45.728000641315305" lon="11.993977212394665"><ele>71.0</ele><time>2026-04-06T12:36:39Z</time></trkpt><trkpt lat="45.72803685485388" lon="11.994460865598969"><ele>71.0</ele><time>2026-04-06T12:36:40Z</time></trkpt><trkpt lat="45.728086079131906" lon="11.994943158940293"><ele>71.0</ele><time>2026-04-06T12:36:41Z</time></trkpt><trkpt lat="45.72814370784355" lon="11.99542100409943"><ele>70.5</ele><time>2026-04-06T12:36:42Z</time></trkpt><trkpt lat="45.72821119540667" lon="11.99589847155345"><ele>70.0</ele><time>2026-04-06T12:36:43Z</time></trkpt><trkpt lat="45.728288762826885" lon="11.996374265065407"><ele>69.5</ele><time>2026-04-06T12:36:44Z</time></trkpt><trkpt lat="45.72837295029087" lon="11.996845878509907"><ele>69.0</ele><time>2026-04-06T12:36:45Z</time></trkpt><trkpt lat="45.72846198732042" lon="11.99731507774112"><ele>70.0</ele><time>2026-04-06T12:36:46Z</time></trkpt><trkpt lat="45.72855503223576" lon="11.997784514911055"><ele>71.0</ele><time>2026-04-06T12:36:47Z</time></trkpt><trkpt lat="45.72864955694093" lon="11.998252694470457"><ele>71.0</ele><time>2026-04-06T12:36:48Z</time></trkpt><trkpt lat="45.72874155892639" lon="11.998722145396453"><ele>71.0</ele><time>2026-04-06T12:36:49Z</time></trkpt><trkpt lat="45.72882736210468" lon="11.999193977719068"><ele>71.0</ele><time>2026-04-06T12:36:50Z</time></trkpt><trkpt lat="45.728906185307686" lon="11.99966914996288"><ele>71.0</ele><time>2026-04-06T12:36:51Z</time></trkpt><trkpt lat="45.728978540804604" lon="12.00014822579167"><ele>71.0</ele><time>2026-04-06T12:36:52Z</time></trkpt><trkpt lat="45.729043418953886" lon="12.000626492682692"><ele>71.0</ele><time>2026-04-06T12:36:53Z</time></trkpt><trkpt lat="45.72910161332135" lon="12.00110764837912"><ele>71.0</ele><time>2026-04-06T12:36:54Z</time></trkpt><trkpt lat="45.72914751475223" lon="12.001591018176976"><ele>71.0</ele><time>2026-04-06T12:36:55Z</time></trkpt><trkpt lat="45.729185051051104" lon="12.002076075997005"><ele>71.0</ele><time>2026-04-06T12:36:56Z</time></trkpt><trkpt lat="45.72921680588877" lon="12.002563171086528"><ele>71.0</ele><time>2026-04-06T12:36:57Z</time></trkpt><trkpt lat="45.729238083292366" lon="12.003051950092871"><ele>70.5</ele><time>2026-04-06T12:36:58Z</time></trkpt><trkpt lat="45.7292534384187" lon="12.003538347889167"><ele>70.0</ele><time>2026-04-06T12:36:59Z</time></trkpt><trkpt lat="45.72926856405005" lon="12.004025666441857"><ele>70.0</ele><time>2026-04-06T12:37:00Z</time></trkpt><trkpt lat="45.72928293461377" lon="12.00451183828404"><ele>70.0</ele><time>2026-04-06T12:37:01Z</time></trkpt><trkpt lat="45.72929564894031" lon="12.004995596301764"><ele>70.0</ele><time>2026-04-06T12:37:02Z</time></trkpt><trkpt lat="45.729308335141454" lon="12.005480930392102"><ele>70.0</ele><time>2026-04-06T12:37:03Z</time></trkpt><trkpt lat="45.72932204600161" lon="12.005967607101578"><ele>70.0</ele><time>2026-04-06T12:37:04Z</time></trkpt><trkpt lat="45.72933237559478" lon="12.006456009545232"><ele>70.0</ele><time>2026-04-06T12:37:05Z</time></trkpt><trkpt lat="45.72934553496366" lon="12.006941713478781"><ele>70.0</ele><time>2026-04-06T12:37:06Z</time></trkpt><trkpt lat="45.72935785556631" lon="12.007429264244275"><ele>70.0</ele><time>2026-04-06T12:37:07Z</time></trkpt><trkpt lat="45.729370767902914" lon="12.007916318159419"><ele>70.0</ele><time>2026-04-06T12:37:08Z</time></trkpt><trkpt lat="45.729384647900524" lon="12.008403913397318"><ele>70.0</ele><time>2026-04-06T12:37:09Z</time></trkpt><trkpt lat="45.729397874702556" lon="12.008892188090549"><ele>70.0</ele><time>2026-04-06T12:37:10Z</time></trkpt><trkpt lat="45.72940936133433" lon="12.009377539542273"><ele>70.0</ele><time>2026-04-06T12:37:11Z</time></trkpt><trkpt lat="45.72942000081497" lon="12.009865876358756"><ele>70.5</ele><time>2026-04-06T12:37:12Z</time></trkpt><trkpt lat="45.72943157440391" lon="12.010352279793418"><ele>71.0</ele><time>2026-04-06T12:37:13Z</time></trkpt><trkpt lat="45.72944159220672" lon="12.010839288090091"><ele>71.0</ele><time>2026-04-06T12:37:14Z</time></trkpt><trkpt lat="45.72945289852091" lon="12.011326281948103"><ele>71.0</ele><time>2026-04-06T12:37:15Z</time></trkpt><trkpt lat="45.729465579532686" lon="12.011813007744923"><ele>71.0</ele><time>2026-04-06T12:37:16Z</time></trkpt><trkpt lat="45.72947861815462" lon="12.012300116879244"><ele>71.0</ele><time>2026-04-06T12:37:17Z</time></trkpt><trkpt lat="45.729488024137765" lon="12.012788860385898"><ele>71.0</ele><time>2026-04-06T12:37:18Z</time></trkpt><trkpt lat="45.72949580209473" lon="12.013278918187346"><ele>71.0</ele><time>2026-04-06T12:37:19Z</time></trkpt><trkpt lat="45.7295059920263" lon="12.01376792195904"><ele>70.5</ele><time>2026-04-06T12:37:20Z</time></trkpt><trkpt lat="45.72952135499157" lon="12.014256910607955"><ele>70.0</ele><time>2026-04-06T12:37:21Z</time></trkpt><trkpt lat="45.72953928060228" lon="12.014745969758073"><ele>70.5</ele><time>2026-04-06T12:37:22Z</time></trkpt><trkpt lat="45.7295558676841" lon="12.015232918882502"><ele>71.0</ele><time>2026-04-06T12:37:23Z</time></trkpt><trkpt lat="45.72957048290392" lon="12.015720007322617"><ele>71.0</ele><time>2026-04-06T12:37:24Z</time></trkpt><trkpt lat="45.729585139704504" lon="12.01620992024264"><ele>71.0</ele><time>2026-04-06T12:37:25Z</time></trkpt><trkpt lat="45.72960290908362" lon="12.016699624516852"><ele>71.0</ele><time>2026-04-06T12:37:26Z</time></trkpt><trkpt lat="45.72961473919913" lon="12.017185560309997"><ele>71.0</ele><time>2026-04-06T12:37:27Z</time></trkpt><trkpt lat="45.729628441474006" lon="12.017675219469826"><ele>71.0</ele><time>2026-04-06T12:37:28Z</time></trkpt><trkpt lat="45.72964014772246" lon="12.018162505841717"><ele>71.0</ele><time>2026-04-06T12:37:29Z</time></trkpt><trkpt lat="45.729653742671275" lon="12.018651989562057"><ele>71.0</ele><time>2026-04-06T12:37:30Z</time></trkpt><trkpt lat="45.72966887693816" lon="12.019139819274384"><ele>71.0</ele><time>2026-04-06T12:37:31Z</time></trkpt><trkpt lat="45.72968521592965" lon="12.019629800026738"><ele>71.5</ele><time>2026-04-06T12:37:32Z</time></trkpt><trkpt lat="45.729705829629054" lon="12.0201186039008"><ele>72.0</ele><time>2026-04-06T12:37:33Z</time></trkpt><trkpt lat="45.729730988874344" lon="12.0206059358092"><ele>70.5</ele><time>2026-04-06T12:37:34Z</time></trkpt><trkpt lat="45.72975894359189" lon="12.021088657738309"><ele>69.0</ele><time>2026-04-06T12:37:35Z</time></trkpt><trkpt lat="45.72979462145253" lon="12.021575705123352"><ele>69.5</ele><time>2026-04-06T12:37:36Z</time></trkpt><trkpt lat="45.729834733948124" lon="12.022060393603645"><ele>70.0</ele><time>2026-04-06T12:37:37Z</time></trkpt><trkpt lat="45.729881744364796" lon="12.022542076049918"><ele>70.0</ele><time>2026-04-06T12:37:38Z</time></trkpt><trkpt lat="45.72993544871693" lon="12.023023141232851"><ele>70.0</ele><time>2026-04-06T12:37:39Z</time></trkpt><trkpt lat="45.72999546450906" lon="12.023505055903845"><ele>70.0</ele><time>2026-04-06T12:37:40Z</time></trkpt><trkpt lat="45.73006299747212" lon="12.023982894803893"><ele>70.0</ele><time>2026-04-06T12:37:41Z</time></trkpt><trkpt lat="45.730135804278085" lon="12.02445788656247"><ele>70.0</ele><time>2026-04-06T12:37:42Z</time></trkpt><trkpt lat="45.730215622278074" lon="12.024932273322882"><ele>70.0</ele><time>2026-04-06T12:37:43Z</time></trkpt><trkpt lat="45.7303039884344" lon="12.025401361866455"><ele>69.5</ele><time>2026-04-06T12:37:44Z</time></trkpt><trkpt lat="45.730399285260255" lon="12.025869885342924"><ele>69.0</ele><time>2026-04-06T12:37:45Z</time></trkpt><trkpt lat="45.73050159770287" lon="12.02633336732444"><ele>69.5</ele><time>2026-04-06T12:37:46Z</time></trkpt><trkpt lat="45.730609870010824" lon="12.026796703766308"><ele>70.0</ele><time>2026-04-06T12:37:47Z</time></trkpt><trkpt lat="45.730724270612235" lon="12.027256835138608"><ele>70.0</ele><time>2026-04-06T12:37:48Z</time></trkpt><trkpt lat="45.73083974681889" lon="12.027716208703094"><ele>70.0</ele><time>2026-04-06T12:37:49Z</time></trkpt><trkpt lat="45.73096308175092" lon="12.028168371240659"><ele>70.5</ele><time>2026-04-06T12:37:50Z</time></trkpt><trkpt lat="45.7310949952988" lon="12.028622580763548"><ele>71.0</ele><time>2026-04-06T12:37:51Z</time></trkpt><trkpt lat="45.731228309173005" lon="12.029071562281175"><ele>70.0</ele><time>2026-04-06T12:37:52Z</time></trkpt><trkpt lat="45.73136950486624" lon="12.029518338509302"><ele>69.0</ele><time>2026-04-06T12:37:53Z</time></trkpt><trkpt lat="45.73151496736769" lon="12.029960815953254"><ele>69.0</ele><time>2026-04-06T12:37:54Z</time></trkpt><trkpt lat="45.731670824177" lon="12.030391428515012"><ele>69.0</ele><time>2026-04-06T12:37:55Z</time></trkpt><trkpt lat="45.73183232494352" lon="12.030821534071466"><ele>69.5</ele><time>2026-04-06T12:37:56Z</time></trkpt><trkpt lat="45.731998572750534" lon="12.03124725719152"><ele>70.0</ele><time>2026-04-06T12:37:57Z</time></trkpt><trkpt lat="45.73217254257121" lon="12.031667452361509"><ele>70.0</ele><time>2026-04-06T12:37:58Z</time></trkpt><trkpt lat="45.73235098978254" lon="12.032082704038642"><ele>70.0</ele><time>2026-04-06T12:37:59Z</time></trkpt><trkpt lat="45.73253117164372" lon="12.032494148555712"><ele>70.0</ele><time>2026-04-06T12:38:00Z</time></trkpt><trkpt lat="45.73271972971992" lon="12.032901404351696"><ele>70.0</ele><time>2026-04-06T12:38:01Z</time></trkpt><trkpt lat="45.732912283750025" lon="12.033302161500266"><ele>70.5</ele><time>2026-04-06T12:38:02Z</time></trkpt><trkpt lat="45.73311004807315" lon="12.033696446385738"><ele>71.0</ele><time>2026-04-06T12:38:03Z</time></trkpt><trkpt lat="45.73331327910958" lon="12.034087094884846"><ele>71.5</ele><time>2026-04-06T12:38:04Z</time></trkpt><trkpt lat="45.733514915550245" lon="12.034476915159894"><ele>72.0</ele><time>2026-04-06T12:38:05Z</time></trkpt><trkpt lat="45.733719985837205" lon="12.034869315149383"><ele>71.5</ele><time>2026-04-06T12:38:06Z</time></trkpt><trkpt lat="45.733930127959944" lon="12.035257647483304"><ele>71.0</ele><time>2026-04-06T12:38:07Z</time></trkpt><trkpt lat="45.73413684701874" lon="12.035643706560403"><ele>71.0</ele><time>2026-04-06T12:38:08Z</time></trkpt><trkpt lat="45.734341979402444" lon="12.036031028065013"><ele>71.0</ele><time>2026-04-06T12:38:09Z</time></trkpt><trkpt lat="45.73454673527346" lon="12.03641961568782"><ele>71.5</ele><time>2026-04-06T12:38:10Z</time></trkpt><trkpt lat="45.73475302219728" lon="12.036807340097042"><ele>72.0</ele><time>2026-04-06T12:38:11Z</time></trkpt><trkpt lat="45.734957456588695" lon="12.037196172710269"><ele>72.0</ele><time>2026-04-06T12:38:12Z</time></trkpt><trkpt lat="45.73515940021373" lon="12.03759049765379"><ele>72.0</ele><time>2026-04-06T12:38:13Z</time></trkpt><trkpt lat="45.73536120769226" lon="12.037987006600083"><ele>71.5</ele><time>2026-04-06T12:38:14Z</time></trkpt><trkpt lat="45.735562083908874" lon="12.038379730016748"><ele>71.0</ele><time>2026-04-06T12:38:15Z</time></trkpt><trkpt lat="45.73576776720493" lon="12.038767534198838"><ele>71.0</ele><time>2026-04-06T12:38:16Z</time></trkpt><trkpt lat="45.73597783842387" lon="12.039155658233819"><ele>71.0</ele><time>2026-04-06T12:38:17Z</time></trkpt><trkpt lat="45.73618605975968" lon="12.039543811833932"><ele>71.5</ele><time>2026-04-06T12:38:18Z</time></trkpt><trkpt lat="45.73639316564932" lon="12.039932337600698"><ele>72.0</ele><time>2026-04-06T12:38:19Z</time></trkpt><trkpt lat="45.73659942235864" lon="12.04031965590013"><ele>72.0</ele><time>2026-04-06T12:38:20Z</time></trkpt><trkpt lat="45.73680703386574" lon="12.04070775722727"><ele>72.0</ele><time>2026-04-06T12:38:21Z</time></trkpt><trkpt lat="45.73701337390238" lon="12.041096036098569"><ele>72.0</ele><time>2026-04-06T12:38:22Z</time></trkpt><trkpt lat="45.7372176329195" lon="12.041485322307382"><ele>72.0</ele><time>2026-04-06T12:38:23Z</time></trkpt><trkpt lat="45.73742402369067" lon="12.041874676114526"><ele>72.0</ele><time>2026-04-06T12:38:24Z</time></trkpt><trkpt lat="45.73762997150668" lon="12.04226513214531"><ele>72.0</ele><time>2026-04-06T12:38:25Z</time></trkpt><trkpt lat="45.73783734618319" lon="12.042655478786253"><ele>72.5</ele><time>2026-04-06T12:38:26Z</time></trkpt><trkpt lat="45.738043937586404" lon="12.043045350324523"><ele>73.0</ele><time>2026-04-06T12:38:27Z</time></trkpt><trkpt lat="45.73825036510488" lon="12.043436807741351"><ele>73.0</ele><time>2026-04-06T12:38:28Z</time></trkpt><trkpt lat="45.73844924630924" lon="12.043831911399078"><ele>73.0</ele><time>2026-04-06T12:38:29Z</time></trkpt><trkpt lat="45.738641420835656" lon="12.04423609809626"><ele>72.5</ele><time>2026-04-06T12:38:30Z</time></trkpt><trkpt lat="45.73882363654415" lon="12.044648028145078"><ele>72.0</ele><time>2026-04-06T12:38:31Z</time></trkpt><trkpt lat="45.738998397012125" lon="12.045065364202744"><ele>73.5</ele><time>2026-04-06T12:38:32Z</time></trkpt><trkpt lat="45.739167141142396" lon="12.045489664645805"><ele>75.0</ele><time>2026-04-06T12:38:33Z</time></trkpt><trkpt lat="45.739327982853105" lon="12.045919404910101"><ele>75.5</ele><time>2026-04-06T12:38:34Z</time></trkpt><trkpt lat="45.73947566382216" lon="12.04635962996656"><ele>76.0</ele><time>2026-04-06T12:38:35Z</time></trkpt><trkpt lat="45.73961816311891" lon="12.046803926891727"><ele>76.0</ele><time>2026-04-06T12:38:36Z</time></trkpt><trkpt lat="45.739753596155005" lon="12.047253823557236"><ele>76.0</ele><time>2026-04-06T12:38:37Z</time></trkpt><trkpt lat="45.739880975506146" lon="12.047706941161682"><ele>76.0</ele><time>2026-04-06T12:38:38Z</time></trkpt><trkpt lat="45.740005615875084" lon="12.048162847470026"><ele>76.0</ele><time>2026-04-06T12:38:39Z</time></trkpt><trkpt lat="45.7401224428965" lon="12.048621930315582"><ele>76.0</ele><time>2026-04-06T12:38:40Z</time></trkpt><trkpt lat="45.740234570602276" lon="12.04908443634712"><ele>76.0</ele><time>2026-04-06T12:38:41Z</time></trkpt><trkpt lat="45.740344261396075" lon="12.049548747971926"><ele>75.5</ele><time>2026-04-06T12:38:42Z</time></trkpt><trkpt lat="45.74045161661886" lon="12.050013799529916"><ele>75.0</ele><time>2026-04-06T12:38:43Z</time></trkpt><trkpt lat="45.740555503641296" lon="12.050479868447143"><ele>76.0</ele><time>2026-04-06T12:38:44Z</time></trkpt><trkpt lat="45.74065922359434" lon="12.050946616348766"><ele>77.0</ele><time>2026-04-06T12:38:45Z</time></trkpt><trkpt lat="45.74076085800168" lon="12.051413266111993"><ele>77.0</ele><time>2026-04-06T12:38:46Z</time></trkpt><trkpt lat="45.74086479565202" lon="12.051880217348183"><ele>77.0</ele><time>2026-04-06T12:38:47Z</time></trkpt><trkpt lat="45.74096779659418" lon="12.052348205083156"><ele>76.5</ele><time>2026-04-06T12:38:48Z</time></trkpt><trkpt lat="45.74107009347203" lon="12.052816708294811"><ele>76.0</ele><time>2026-04-06T12:38:49Z</time></trkpt><trkpt lat="45.741171597237305" lon="12.053285367961259"><ele>76.0</ele><time>2026-04-06T12:38:50Z</time></trkpt><trkpt lat="45.74127430120893" lon="12.053755620434776"><ele>76.0</ele><time>2026-04-06T12:38:51Z</time></trkpt><trkpt lat="45.741375794532246" lon="12.05422531142576"><ele>76.5</ele><time>2026-04-06T12:38:52Z</time></trkpt><trkpt lat="45.74147706419264" lon="12.054694224640667"><ele>77.0</ele><time>2026-04-06T12:38:53Z</time></trkpt><trkpt lat="45.74158059177067" lon="12.055162842389354"><ele>77.0</ele><time>2026-04-06T12:38:54Z</time></trkpt><trkpt lat="45.74168274211998" lon="12.055630775919397"><ele>77.0</ele><time>2026-04-06T12:38:55Z</time></trkpt><trkpt lat="45.741784746240704" lon="12.05609770997835"><ele>77.0</ele><time>2026-04-06T12:38:56Z</time></trkpt><trkpt lat="45.74188799033262" lon="12.05656410159763"><ele>77.0</ele><time>2026-04-06T12:38:57Z</time></trkpt><trkpt lat="45.74198929432383" lon="12.057029268132338"><ele>77.5</ele><time>2026-04-06T12:38:58Z</time></trkpt><trkpt lat="45.742092649259014" lon="12.05749502292494"><ele>78.0</ele><time>2026-04-06T12:38:59Z</time></trkpt><trkpt lat="45.74219539875127" lon="12.057955737636185"><ele>78.5</ele><time>2026-04-06T12:39:00Z</time></trkpt><trkpt lat="45.742296848555526" lon="12.05842007070231"><ele>79.0</ele><time>2026-04-06T12:39:01Z</time></trkpt><trkpt lat="45.742400433367344" lon="12.058894386365386"><ele>79.5</ele><time>2026-04-06T12:39:02.021Z</time></trkpt><trkpt lat="45.742500735883894" lon="12.059357452368165"><ele>80.0</ele><time>2026-04-06T12:39:03.02Z</time></trkpt><trkpt lat="45.74260015457457" lon="12.059820910963161"><ele>80.0</ele><time>2026-04-06T12:39:04.02Z</time></trkpt><trkpt lat="45.742699369784276" lon="12.060281012157446"><ele>80.0</ele><time>2026-04-06T12:39:05.014Z</time></trkpt><trkpt lat="45.744020102450904" lon="12.064129024015346"><ele>81.0</ele><time>2026-04-06T12:39:09.341Z</time></trkpt><trkpt lat="45.74457150544282" lon="12.0653019400144"><ele>81.0</ele><time>2026-04-06T12:39:10.341Z</time></trkpt><trkpt lat="45.745473476169394" lon="12.066485127445372"><ele>81.0</ele><time>2026-04-06T12:39:20Z</time></trkpt><trkpt lat="45.745711948945164" lon="12.066842882156932"><ele>81.0</ele><time>2026-04-06T12:39:21Z</time></trkpt><trkpt lat="45.74581472723566" lon="12.067198203686962"><ele>81.0</ele><time>2026-04-06T12:39:22Z</time></trkpt><trkpt lat="45.74605748231035" lon="12.06752240964195"><ele>81.0</ele><time>2026-04-06T12:39:23Z</time></trkpt><trkpt lat="45.74631338709744" lon="12.06784271302218"><ele>81.0</ele><time>2026-04-06T12:39:24Z</time></trkpt><trkpt lat="45.74657756865037" lon="12.068150881490613"><ele>81.0</ele><time>2026-04-06T12:39:25Z</time></trkpt><trkpt lat="45.74684756894158" lon="12.068447705432002"><ele>81.5</ele><time>2026-04-06T12:39:26Z</time></trkpt><trkpt lat="45.74712319747402" lon="12.068736292094735"><ele>82.0</ele><time>2026-04-06T12:39:27Z</time></trkpt><trkpt lat="45.7474046462375" lon="12.069009711321279"><ele>81.5</ele><time>2026-04-06T12:39:28Z</time></trkpt><trkpt lat="45.7476937789805" lon="12.069266312857183"><ele>81.0</ele><time>2026-04-06T12:39:29Z</time></trkpt><trkpt lat="45.74799398867058" lon="12.069512822258254"><ele>81.0</ele><time>2026-04-06T12:39:30Z</time></trkpt><trkpt lat="45.74829154882348" lon="12.069746563389357"><ele>81.0</ele><time>2026-04-06T12:39:31Z</time></trkpt><trkpt lat="45.74859142190921" lon="12.069976403601261"><ele>82.0</ele><time>2026-04-06T12:39:32Z</time></trkpt><trkpt lat="45.74889008155136" lon="12.070206170198293"><ele>83.0</ele><time>2026-04-06T12:39:33Z</time></trkpt><trkpt lat="45.74918896684175" lon="12.070436316734817"><ele>83.0</ele><time>2026-04-06T12:39:34Z</time></trkpt><trkpt lat="45.74948956242745" lon="12.070666749948835"><ele>83.0</ele><time>2026-04-06T12:39:35Z</time></trkpt><trkpt lat="45.74978974390201" lon="12.070896322053391"><ele>83.0</ele><time>2026-04-06T12:39:36Z</time></trkpt><trkpt lat="45.75008829057667" lon="12.071129800167913"><ele>83.0</ele><time>2026-04-06T12:39:37Z</time></trkpt><trkpt lat="45.75038644182091" lon="12.071365050375723"><ele>83.0</ele><time>2026-04-06T12:39:38Z</time></trkpt><trkpt lat="45.75068540334291" lon="12.071603741462685"><ele>83.0</ele><time>2026-04-06T12:39:39Z</time></trkpt><trkpt lat="45.75098254343109" lon="12.071844994758328"><ele>83.5</ele><time>2026-04-06T12:39:40Z</time></trkpt><trkpt lat="45.75127546148357" lon="12.072095663815206"><ele>84.0</ele><time>2026-04-06T12:39:41Z</time></trkpt><trkpt lat="45.75156514181175" lon="12.072358808975403"><ele>84.0</ele><time>2026-04-06T12:39:42Z</time></trkpt><trkpt lat="45.75184797223044" lon="12.072633630279935"><ele>84.0</ele><time>2026-04-06T12:39:43Z</time></trkpt><trkpt lat="45.75212623060774" lon="12.07291906618887"><ele>84.0</ele><time>2026-04-06T12:39:44Z</time></trkpt><trkpt lat="45.752399975749334" lon="12.073212203036096"><ele>84.0</ele><time>2026-04-06T12:39:45Z</time></trkpt><trkpt lat="45.7526660394709" lon="12.073515480603485"><ele>85.0</ele><time>2026-04-06T12:39:46Z</time></trkpt><trkpt lat="45.752931669527314" lon="12.073826670458239"><ele>86.0</ele><time>2026-04-06T12:39:47Z</time></trkpt><trkpt lat="45.75319058326657" lon="12.074147405511464"><ele>86.0</ele><time>2026-04-06T12:39:48Z</time></trkpt><trkpt lat="45.753443804846896" lon="12.074477483288"><ele>86.0</ele><time>2026-04-06T12:39:49Z</time></trkpt><trkpt lat="45.75369092711042" lon="12.074817372539675"><ele>86.5</ele><time>2026-04-06T12:39:50Z</time></trkpt><trkpt lat="45.753929741008434" lon="12.075165749483912"><ele>87.0</ele><time>2026-04-06T12:39:51Z</time></trkpt><trkpt lat="45.754164353058265" lon="12.075521368770643"><ele>86.5</ele><time>2026-04-06T12:39:52Z</time></trkpt><trkpt lat="45.7543867068184" lon="12.075878638744426"><ele>86.0</ele><time>2026-04-06T12:39:53Z</time></trkpt><trkpt lat="45.75461010451303" lon="12.076254811901666"><ele>85.5</ele><time>2026-04-06T12:39:54Z</time></trkpt><trkpt lat="45.7548273352179" lon="12.076634127260634"><ele>85.0</ele><time>2026-04-06T12:39:55Z</time></trkpt><trkpt lat="45.75503488774137" lon="12.077020917968678"><ele>86.0</ele><time>2026-04-06T12:39:56Z</time></trkpt><trkpt lat="45.75523883120308" lon="12.077413212211964"><ele>87.0</ele><time>2026-04-06T12:39:57Z</time></trkpt><trkpt lat="45.75543614188623" lon="12.077816033430626"><ele>87.0</ele><time>2026-04-06T12:39:58Z</time></trkpt><trkpt lat="45.755623848411226" lon="12.0782271342423"><ele>87.0</ele><time>2026-04-06T12:39:59Z</time></trkpt><trkpt lat="45.755804375767326" lon="12.078643979260958"><ele>87.0</ele><time>2026-04-06T12:40:00Z</time></trkpt><trkpt lat="45.755978925945435" lon="12.07906588278492"><ele>87.0</ele><time>2026-04-06T12:40:01Z</time></trkpt><trkpt lat="45.75614977023941" lon="12.07949298154299"><ele>87.0</ele><time>2026-04-06T12:40:02Z</time></trkpt><trkpt lat="45.75631955268315" lon="12.079920541429017"><ele>87.0</ele><time>2026-04-06T12:40:03Z</time></trkpt><trkpt lat="45.756483498002545" lon="12.080348981774703"><ele>86.0</ele><time>2026-04-06T12:40:04Z</time></trkpt><trkpt lat="45.75664902247812" lon="12.080778610813182"><ele>85.0</ele><time>2026-04-06T12:40:05Z</time></trkpt><trkpt lat="45.75681273543511" lon="12.081207575636954"><ele>87.0</ele><time>2026-04-06T12:40:06Z</time></trkpt><trkpt lat="45.7569795731788" lon="12.081636065920268"><ele>89.0</ele><time>2026-04-06T12:40:07Z</time></trkpt><trkpt lat="45.75715103726079" lon="12.08206703099899"><ele>89.0</ele><time>2026-04-06T12:40:08Z</time></trkpt><trkpt lat="45.757317250716774" lon="12.082494709387744"><ele>89.0</ele><time>2026-04-06T12:40:09Z</time></trkpt><trkpt lat="45.75748210703036" lon="12.082922613739472"><ele>88.0</ele><time>2026-04-06T12:40:10Z</time></trkpt><trkpt lat="45.757647951625074" lon="12.083349321604059"><ele>87.0</ele><time>2026-04-06T12:40:11Z</time></trkpt><trkpt lat="45.75781417218046" lon="12.083776923565622"><ele>88.0</ele><time>2026-04-06T12:40:12Z</time></trkpt><trkpt lat="45.75798036125" lon="12.084205012779549"><ele>89.0</ele><time>2026-04-06T12:40:13Z</time></trkpt><trkpt lat="45.75814727822648" lon="12.084633611160214"><ele>88.0</ele><time>2026-04-06T12:40:14Z</time></trkpt><trkpt lat="45.75831238262923" lon="12.085063364394117"><ele>87.0</ele><time>2026-04-06T12:40:15Z</time></trkpt><trkpt lat="45.75847287894281" lon="12.085497076004188"><ele>86.5</ele><time>2026-04-06T12:40:16Z</time></trkpt><trkpt lat="45.758634434677276" lon="12.085929427813142"><ele>86.0</ele><time>2026-04-06T12:40:17Z</time></trkpt><trkpt lat="45.758795826814534" lon="12.086360688152087"><ele>87.0</ele><time>2026-04-06T12:40:18Z</time></trkpt><trkpt lat="45.758967252225446" lon="12.086781335778726"><ele>88.0</ele><time>2026-04-06T12:40:19Z</time></trkpt><trkpt lat="45.759134071972255" lon="12.087206311661975"><ele>88.5</ele><time>2026-04-06T12:40:20Z</time></trkpt><trkpt lat="45.75930137891465" lon="12.087633820783381"><ele>89.0</ele><time>2026-04-06T12:40:21Z</time></trkpt><trkpt lat="45.75947155007837" lon="12.08806270372177"><ele>90.0</ele><time>2026-04-06T12:40:22Z</time></trkpt><trkpt lat="45.759636370446344" lon="12.088491937036803"><ele>91.0</ele><time>2026-04-06T12:40:23Z</time></trkpt><trkpt lat="45.75979965507216" lon="12.08892287478704"><ele>90.5</ele><time>2026-04-06T12:40:24Z</time></trkpt><trkpt lat="45.75996258403358" lon="12.089353133419031"><ele>90.0</ele><time>2026-04-06T12:40:25Z</time></trkpt><trkpt lat="45.7601292769442" lon="12.089785330292017"><ele>90.5</ele><time>2026-04-06T12:40:26Z</time></trkpt><trkpt lat="45.76029518426025" lon="12.090217246378616"><ele>91.0</ele><time>2026-04-06T12:40:27Z</time></trkpt><trkpt lat="45.76045480321862" lon="12.090651116180682"><ele>91.0</ele><time>2026-04-06T12:40:28Z</time></trkpt><trkpt lat="45.76061016846871" lon="12.091086926998504"><ele>91.0</ele><time>2026-04-06T12:40:29Z</time></trkpt><trkpt lat="45.76075294661402" lon="12.091530721934463"><ele>90.0</ele><time>2026-04-06T12:40:30Z</time></trkpt><trkpt lat="45.760891673982044" lon="12.09199062598125"><ele>89.0</ele><time>2026-04-06T12:40:31Z</time></trkpt><trkpt lat="45.76101567333946" lon="12.09243655490063"><ele>89.0</ele><time>2026-04-06T12:40:32Z</time></trkpt><trkpt lat="45.76113631285062" lon="12.092890278912344"><ele>89.0</ele><time>2026-04-06T12:40:33Z</time></trkpt><trkpt lat="45.76125037453425" lon="12.09335082816215"><ele>89.0</ele><time>2026-04-06T12:40:34Z</time></trkpt><trkpt lat="45.76135561247265" lon="12.093815449733071"><ele>89.0</ele><time>2026-04-06T12:40:35Z</time></trkpt><trkpt lat="45.76145060182898" lon="12.09428329440815"><ele>89.0</ele><time>2026-04-06T12:40:36Z</time></trkpt><trkpt lat="45.76153775933936" lon="12.094752710274866"><ele>89.0</ele><time>2026-04-06T12:40:37Z</time></trkpt><trkpt lat="45.76161762718948" lon="12.095225024637282"><ele>88.0</ele><time>2026-04-06T12:40:38Z</time></trkpt><trkpt lat="45.76168605662439" lon="12.095699810736399"><ele>87.0</ele><time>2026-04-06T12:40:39Z</time></trkpt><trkpt lat="45.76174706494561" lon="12.096175790752165"><ele>89.0</ele><time>2026-04-06T12:40:40Z</time></trkpt><trkpt lat="45.761804212994114" lon="12.096637823300659"><ele>91.0</ele><time>2026-04-06T12:40:41Z</time></trkpt><trkpt lat="45.76185504963291" lon="12.097124967872169"><ele>90.0</ele><time>2026-04-06T12:40:42Z</time></trkpt><trkpt lat="45.76190756472582" lon="12.09761055043594"><ele>89.0</ele><time>2026-04-06T12:40:43Z</time></trkpt><trkpt lat="45.76195843847751" lon="12.098104105231442"><ele>89.5</ele><time>2026-04-06T12:40:44Z</time></trkpt><trkpt lat="45.762009878609256" lon="12.098581972077767"><ele>90.0</ele><time>2026-04-06T12:40:45Z</time></trkpt><trkpt lat="45.762054139756636" lon="12.09905989446559"><ele>90.0</ele><time>2026-04-06T12:40:46Z</time></trkpt><trkpt lat="45.76210079516018" lon="12.09953994721675"><ele>90.0</ele><time>2026-04-06T12:40:47Z</time></trkpt><trkpt lat="45.76214793041159" lon="12.10002372945548"><ele>88.5</ele><time>2026-04-06T12:40:48Z</time></trkpt><trkpt lat="45.76219268554696" lon="12.100508852317144"><ele>87.0</ele><time>2026-04-06T12:40:49Z</time></trkpt><trkpt lat="45.76223717054753" lon="12.100993514354784"><ele>86.5</ele><time>2026-04-06T12:40:50Z</time></trkpt><trkpt lat="45.76227949414715" lon="12.101478952343301"><ele>86.0</ele><time>2026-04-06T12:40:51Z</time></trkpt><trkpt lat="45.76232581438187" lon="12.101965287265626"><ele>85.5</ele><time>2026-04-06T12:40:52Z</time></trkpt><trkpt lat="45.76237375804069" lon="12.102451620962942"><ele>85.0</ele><time>2026-04-06T12:40:53Z</time></trkpt><trkpt lat="45.76241974327508" lon="12.102936862496282"><ele>84.0</ele><time>2026-04-06T12:40:54Z</time></trkpt><trkpt lat="45.762467848945064" lon="12.103423302837179"><ele>83.0</ele><time>2026-04-06T12:40:55Z</time></trkpt><trkpt lat="45.76251449084748" lon="12.103908870156758"><ele>82.5</ele><time>2026-04-06T12:40:56Z</time></trkpt><trkpt lat="45.762560954435855" lon="12.104395917649105"><ele>82.0</ele><time>2026-04-06T12:40:57Z</time></trkpt><trkpt lat="45.76260738100818" lon="12.104879434812203"><ele>82.0</ele><time>2026-04-06T12:40:58Z</time></trkpt><trkpt lat="45.76265432851183" lon="12.105364005160995"><ele>82.0</ele><time>2026-04-06T12:40:59Z</time></trkpt><trkpt lat="45.76270352971412" lon="12.10584820905513"><ele>82.0</ele><time>2026-04-06T12:41:00Z</time></trkpt><trkpt lat="45.76275407376761" lon="12.106332611140505"><ele>82.0</ele><time>2026-04-06T12:41:01Z</time></trkpt><trkpt lat="45.76280445047482" lon="12.106817911311476"><ele>83.0</ele><time>2026-04-06T12:41:02Z</time></trkpt><trkpt lat="45.76285219963813" lon="12.107303748344098"><ele>84.0</ele><time>2026-04-06T12:41:03Z</time></trkpt><trkpt lat="45.76289917133351" lon="12.10778667279278"><ele>85.5</ele><time>2026-04-06T12:41:04Z</time></trkpt><trkpt lat="45.76294513892044" lon="12.108270600913967"><ele>87.0</ele><time>2026-04-06T12:41:05Z</time></trkpt><trkpt lat="45.76299243152742" lon="12.108754210806742"><ele>87.0</ele><time>2026-04-06T12:41:06Z</time></trkpt><trkpt lat="45.76304323284299" lon="12.109238437915224"><ele>87.0</ele><time>2026-04-06T12:41:07Z</time></trkpt><trkpt lat="45.76309059453515" lon="12.109722800323704"><ele>86.0</ele><time>2026-04-06T12:41:08Z</time></trkpt><trkpt lat="45.76314171952845" lon="12.110207841024238"><ele>85.0</ele><time>2026-04-06T12:41:09Z</time></trkpt><trkpt lat="45.76319070380346" lon="12.110692640827615"><ele>86.0</ele><time>2026-04-06T12:41:10Z</time></trkpt><trkpt lat="45.76324029430199" lon="12.111178901617889"><ele>87.0</ele><time>2026-04-06T12:41:11Z</time></trkpt><trkpt lat="45.763289389554885" lon="12.111664935954634"><ele>87.0</ele><time>2026-04-06T12:41:12Z</time></trkpt><trkpt lat="45.76334120472343" lon="12.112151665537429"><ele>87.0</ele><time>2026-04-06T12:41:13Z</time></trkpt><trkpt lat="45.76339299315093" lon="12.112637790523543"><ele>86.5</ele><time>2026-04-06T12:41:14Z</time></trkpt><trkpt lat="45.76343957233813" lon="12.113125839016028"><ele>86.0</ele><time>2026-04-06T12:41:15Z</time></trkpt><trkpt lat="45.7634860946065" lon="12.11361359218218"><ele>87.0</ele><time>2026-04-06T12:41:16Z</time></trkpt><trkpt lat="45.76352009660907" lon="12.114098399790324"><ele>88.0</ele><time>2026-04-06T12:41:17Z</time></trkpt><trkpt lat="45.76357141308762" lon="12.114575568474324"><ele>86.5</ele><time>2026-04-06T12:41:18Z</time></trkpt><trkpt lat="45.763604858986106" lon="12.115065792615356"><ele>85.0</ele><time>2026-04-06T12:41:19Z</time></trkpt><trkpt lat="45.76362283349257" lon="12.11555149872739"><ele>84.0</ele><time>2026-04-06T12:41:20Z</time></trkpt><trkpt lat="45.76362652262463" lon="12.116035615330873"><ele>83.0</ele><time>2026-04-06T12:41:21Z</time></trkpt><trkpt lat="45.763612974642506" lon="12.11651859455324"><ele>83.0</ele><time>2026-04-06T12:41:22Z</time></trkpt><trkpt lat="45.76358666549239" lon="12.117004087402966"><ele>83.0</ele><time>2026-04-06T12:41:23Z</time></trkpt><trkpt lat="45.76354294395595" lon="12.117488955784458"><ele>83.0</ele><time>2026-04-06T12:41:24Z</time></trkpt><trkpt lat="45.763475507703596" lon="12.11797551523858"><ele>83.0</ele><time>2026-04-06T12:41:25Z</time></trkpt><trkpt lat="45.76341815237297" lon="12.11846136507225"><ele>83.0</ele><time>2026-04-06T12:41:26Z</time></trkpt><trkpt lat="45.763362842333784" lon="12.118937585145199"><ele>83.0</ele><time>2026-04-06T12:41:27Z</time></trkpt><trkpt lat="45.763306519121414" lon="12.119413179603342"><ele>81.5</ele><time>2026-04-06T12:41:28Z</time></trkpt><trkpt lat="45.763248426448314" lon="12.119889297440238"><ele>80.0</ele><time>2026-04-06T12:41:29Z</time></trkpt><trkpt lat="45.76319410778791" lon="12.120369002765548"><ele>79.5</ele><time>2026-04-06T12:41:30Z</time></trkpt><trkpt lat="45.76314300301012" lon="12.12085035591836"><ele>79.0</ele><time>2026-04-06T12:41:31Z</time></trkpt><trkpt lat="45.763093950394996" lon="12.121335149743171"><ele>79.5</ele><time>2026-04-06T12:41:32Z</time></trkpt><trkpt lat="45.76304600023817" lon="12.121818656015677"><ele>80.0</ele><time>2026-04-06T12:41:33Z</time></trkpt><trkpt lat="45.763003170659836" lon="12.122304047903963"><ele>80.5</ele><time>2026-04-06T12:41:34Z</time></trkpt><trkpt lat="45.76296955184506" lon="12.122791477702187"><ele>81.0</ele><time>2026-04-06T12:41:35Z</time></trkpt><trkpt lat="45.76294903594378" lon="12.123276111651368"><ele>81.0</ele><time>2026-04-06T12:41:36Z</time></trkpt><trkpt lat="45.76294325326334" lon="12.12376535344535"><ele>81.0</ele><time>2026-04-06T12:41:37Z</time></trkpt><trkpt lat="45.76294322245585" lon="12.124254239590138"><ele>80.5</ele><time>2026-04-06T12:41:38Z</time></trkpt><trkpt lat="45.76295194151506" lon="12.12474505966013"><ele>80.0</ele><time>2026-04-06T12:41:39Z</time></trkpt><trkpt lat="45.762968377485834" lon="12.12523635448959"><ele>80.0</ele><time>2026-04-06T12:41:40Z</time></trkpt><trkpt lat="45.762992761443236" lon="12.125724751252259"><ele>80.0</ele><time>2026-04-06T12:41:41Z</time></trkpt><trkpt lat="45.76302513435007" lon="12.126213014803122"><ele>78.0</ele><time>2026-04-06T12:41:42Z</time></trkpt><trkpt lat="45.76306833652326" lon="12.126697512116717"><ele>76.0</ele><time>2026-04-06T12:41:43Z</time></trkpt><trkpt lat="45.76312260116844" lon="12.127181363938089"><ele>77.5</ele><time>2026-04-06T12:41:44Z</time></trkpt><trkpt lat="45.76317695673027" lon="12.127664045145771"><ele>79.0</ele><time>2026-04-06T12:41:45Z</time></trkpt><trkpt lat="45.76324375614352" lon="12.1281434661935"><ele>78.5</ele><time>2026-04-06T12:41:46Z</time></trkpt><trkpt lat="45.76332772823152" lon="12.128619305907229"><ele>78.0</ele><time>2026-04-06T12:41:47Z</time></trkpt><trkpt lat="45.76341989058985" lon="12.129090206119052"><ele>78.0</ele><time>2026-04-06T12:41:48Z</time></trkpt><trkpt lat="45.763519534864" lon="12.129559239531432"><ele>78.0</ele><time>2026-04-06T12:41:49Z</time></trkpt><trkpt lat="45.76362444494942" lon="12.13002553732509"><ele>78.0</ele><time>2026-04-06T12:41:50Z</time></trkpt><trkpt lat="45.763734234892155" lon="12.130490952609803"><ele>78.0</ele><time>2026-04-06T12:41:51Z</time></trkpt><trkpt lat="45.76384610087434" lon="12.1309549216328"><ele>78.5</ele><time>2026-04-06T12:41:52Z</time></trkpt><trkpt lat="45.763959208720756" lon="12.13142094735939"><ele>79.0</ele><time>2026-04-06T12:41:53Z</time></trkpt><trkpt lat="45.76407050388197" lon="12.131882849540544"><ele>78.0</ele><time>2026-04-06T12:41:54Z</time></trkpt><trkpt lat="45.76418110944478" lon="12.132347632348088"><ele>77.0</ele><time>2026-04-06T12:41:55Z</time></trkpt><trkpt lat="45.7642875555764" lon="12.132810897784132"><ele>77.0</ele><time>2026-04-06T12:41:56Z</time></trkpt><trkpt lat="45.764395232038" lon="12.133270885848468"><ele>77.0</ele><time>2026-04-06T12:41:57Z</time></trkpt><trkpt lat="45.764498288963225" lon="12.133732909094258"><ele>76.5</ele><time>2026-04-06T12:41:58Z</time></trkpt><trkpt lat="45.76459524376559" lon="12.134198946223712"><ele>76.0</ele><time>2026-04-06T12:41:59Z</time></trkpt><trkpt lat="45.76468367445998" lon="12.134668523829534"><ele>75.5</ele><time>2026-04-06T12:42:00Z</time></trkpt><trkpt lat="45.764761582668704" lon="12.135140812228231"><ele>75.0</ele><time>2026-04-06T12:42:01Z</time></trkpt><trkpt lat="45.76482638832564" lon="12.13561378910681"><ele>75.0</ele><time>2026-04-06T12:42:02Z</time></trkpt><trkpt lat="45.76488198108145" lon="12.136092944836149"><ele>75.0</ele><time>2026-04-06T12:42:03Z</time></trkpt><trkpt lat="45.76492729589333" lon="12.136575831362801"><ele>75.0</ele><time>2026-04-06T12:42:04Z</time></trkpt><trkpt lat="45.76495705020107" lon="12.13706114101898"><ele>75.0</ele><time>2026-04-06T12:42:05Z</time></trkpt><trkpt lat="45.764978631587645" lon="12.137548955875253"><ele>74.5</ele><time>2026-04-06T12:42:06Z</time></trkpt><trkpt lat="45.76499217702142" lon="12.138039291326239"><ele>74.0</ele><time>2026-04-06T12:42:07Z</time></trkpt><trkpt lat="45.7649978909404" lon="12.138527146586645"><ele>73.5</ele><time>2026-04-06T12:42:08Z</time></trkpt><trkpt lat="45.76499382010565" lon="12.139016900916895"><ele>73.0</ele><time>2026-04-06T12:42:09Z</time></trkpt><trkpt lat="45.764980033630124" lon="12.139506094183947"><ele>74.0</ele><time>2026-04-06T12:42:10Z</time></trkpt><trkpt lat="45.76495879787878" lon="12.139996289169234"><ele>75.0</ele><time>2026-04-06T12:42:11Z</time></trkpt><trkpt lat="45.764927796028225" lon="12.140486307073202"><ele>75.0</ele><time>2026-04-06T12:42:12Z</time></trkpt><trkpt lat="45.7648880566998" lon="12.14097289955985"><ele>75.0</ele><time>2026-04-06T12:42:13Z</time></trkpt><trkpt lat="45.764835885868074" lon="12.14145634772751"><ele>75.0</ele><time>2026-04-06T12:42:14Z</time></trkpt><trkpt lat="45.76477808741548" lon="12.141940068197343"><ele>75.0</ele><time>2026-04-06T12:42:15Z</time></trkpt><trkpt lat="45.76471777840915" lon="12.142424318257996"><ele>75.0</ele><time>2026-04-06T12:42:16Z</time></trkpt><trkpt lat="45.76465542139407" lon="12.142909016725056"><ele>75.0</ele><time>2026-04-06T12:42:17Z</time></trkpt><trkpt lat="45.76459301741268" lon="12.143391972290601"><ele>74.5</ele><time>2026-04-06T12:42:18Z</time></trkpt><trkpt lat="45.76453198566077" lon="12.14387639042859"><ele>74.0</ele><time>2026-04-06T12:42:19Z</time></trkpt><trkpt lat="45.76447902240118" lon="12.1443604339192"><ele>74.0</ele><time>2026-04-06T12:42:20Z</time></trkpt><trkpt lat="45.76443446432056" lon="12.144846323011787"><ele>74.0</ele><time>2026-04-06T12:42:21Z</time></trkpt><trkpt lat="45.76440294928888" lon="12.145333571818945"><ele>73.0</ele><time>2026-04-06T12:42:22Z</time></trkpt><trkpt lat="45.76438350022771" lon="12.145823698290522"><ele>72.0</ele><time>2026-04-06T12:42:23Z</time></trkpt><trkpt lat="45.76437384025941" lon="12.146313925009824"><ele>73.0</ele><time>2026-04-06T12:42:24Z</time></trkpt><trkpt lat="45.76437205282643" lon="12.146802730633627"><ele>74.0</ele><time>2026-04-06T12:42:25Z</time></trkpt><trkpt lat="45.764379424065496" lon="12.14729163308085"><ele>74.5</ele><time>2026-04-06T12:42:26Z</time></trkpt><trkpt lat="45.76439774400355" lon="12.147780280656848"><ele>75.0</ele><time>2026-04-06T12:42:27Z</time></trkpt><trkpt lat="45.76442529036003" lon="12.148267520202705"><ele>74.0</ele><time>2026-04-06T12:42:28Z</time></trkpt><trkpt lat="45.764463179489226" lon="12.148752441317498"><ele>73.0</ele><time>2026-04-06T12:42:29Z</time></trkpt><trkpt lat="45.76451046861906" lon="12.149237948608192"><ele>73.0</ele><time>2026-04-06T12:42:30Z</time></trkpt><trkpt lat="45.76456718874954" lon="12.149720764368272"><ele>73.0</ele><time>2026-04-06T12:42:31Z</time></trkpt><trkpt lat="45.764633601451024" lon="12.150200777574089"><ele>72.5</ele><time>2026-04-06T12:42:32Z</time></trkpt><trkpt lat="45.76470669799083" lon="12.150679908162346"><ele>72.0</ele><time>2026-04-06T12:42:33Z</time></trkpt><trkpt lat="45.764780769667524" lon="12.151158679600936"><ele>72.5</ele><time>2026-04-06T12:42:34Z</time></trkpt><trkpt lat="45.76485412686522" lon="12.151636398005387"><ele>73.0</ele><time>2026-04-06T12:42:35Z</time></trkpt><trkpt lat="45.76492804056084" lon="12.152112997578545"><ele>72.5</ele><time>2026-04-06T12:42:36Z</time></trkpt><trkpt lat="45.76500428106998" lon="12.15258890390598"><ele>72.0</ele><time>2026-04-06T12:42:37Z</time></trkpt><trkpt lat="45.76507947443703" lon="12.153064888634338"><ele>72.0</ele><time>2026-04-06T12:42:38Z</time></trkpt><trkpt lat="45.76515134169164" lon="12.153542719133947"><ele>72.0</ele><time>2026-04-06T12:42:39Z</time></trkpt><trkpt lat="45.765215636303495" lon="12.15401674131129"><ele>72.5</ele><time>2026-04-06T12:42:40Z</time></trkpt><trkpt lat="45.765278816583496" lon="12.154495565250512"><ele>73.0</ele><time>2026-04-06T12:42:41Z</time></trkpt><trkpt lat="45.765340554722435" lon="12.154978466989796"><ele>73.0</ele><time>2026-04-06T12:42:42Z</time></trkpt><trkpt lat="45.76539634403536" lon="12.155459727179792"><ele>73.0</ele><time>2026-04-06T12:42:43Z</time></trkpt><trkpt lat="45.765442348802786" lon="12.15594178405643"><ele>73.0</ele><time>2026-04-06T12:42:44Z</time></trkpt><trkpt lat="45.76548262515826" lon="12.156425896244354"><ele>73.0</ele><time>2026-04-06T12:42:45Z</time></trkpt><trkpt lat="45.76551729622262" lon="12.156912812552036"><ele>72.0</ele><time>2026-04-06T12:42:46Z</time></trkpt><trkpt lat="45.76554318227164" lon="12.15739958137855"><ele>71.0</ele><time>2026-04-06T12:42:47Z</time></trkpt><trkpt lat="45.765564046469876" lon="12.15788641179898"><ele>70.5</ele><time>2026-04-06T12:42:48Z</time></trkpt><trkpt lat="45.765582108234824" lon="12.158372025575371"><ele>70.0</ele><time>2026-04-06T12:42:49Z</time></trkpt><trkpt lat="45.7655980662396" lon="12.158860971528556"><ele>70.5</ele><time>2026-04-06T12:42:50Z</time></trkpt><trkpt lat="45.76561264182416" lon="12.159351358247397"><ele>71.0</ele><time>2026-04-06T12:42:51Z</time></trkpt><trkpt lat="45.765622227570816" lon="12.159838899626617"><ele>71.0</ele><time>2026-04-06T12:42:52Z</time></trkpt><trkpt lat="45.76563171446546" lon="12.160323314321483"><ele>71.0</ele><time>2026-04-06T12:42:53Z</time></trkpt><trkpt lat="45.76564869221415" lon="12.160810755353705"><ele>70.5</ele><time>2026-04-06T12:42:54Z</time></trkpt><trkpt lat="45.76567295247476" lon="12.161298010752294"><ele>70.0</ele><time>2026-04-06T12:42:55Z</time></trkpt><trkpt lat="45.76570897116503" lon="12.16178436024611"><ele>70.0</ele><time>2026-04-06T12:42:56Z</time></trkpt><trkpt lat="45.76574911380282" lon="12.162268040117286"><ele>70.0</ele><time>2026-04-06T12:42:57Z</time></trkpt><trkpt lat="45.76579742716365" lon="12.16275011458018"><ele>71.0</ele><time>2026-04-06T12:42:58Z</time></trkpt><trkpt lat="45.76585765444142" lon="12.163228905295318"><ele>72.0</ele><time>2026-04-06T12:42:59Z</time></trkpt><trkpt lat="45.765926909486076" lon="12.1637042517504"><ele>71.0</ele><time>2026-04-06T12:43:00Z</time></trkpt><trkpt lat="45.766003917159324" lon="12.164179129979585"><ele>70.0</ele><time>2026-04-06T12:43:01Z</time></trkpt><trkpt lat="45.76608479143875" lon="12.164654833964187"><ele>69.0</ele><time>2026-04-06T12:43:02Z</time></trkpt><trkpt lat="45.76616680680579" lon="12.165128709878784"><ele>68.0</ele><time>2026-04-06T12:43:03Z</time></trkpt><trkpt lat="45.76625090247431" lon="12.165603789848142"><ele>67.5</ele><time>2026-04-06T12:43:04Z</time></trkpt><trkpt lat="45.76632940826123" lon="12.166080147194425"><ele>67.0</ele><time>2026-04-06T12:43:05Z</time></trkpt><trkpt lat="45.76640344722655" lon="12.166556576869056"><ele>66.5</ele><time>2026-04-06T12:43:06Z</time></trkpt><trkpt lat="45.766474817977695" lon="12.167035983041771"><ele>66.0</ele><time>2026-04-06T12:43:07Z</time></trkpt><trkpt lat="45.766536599385894" lon="12.167516972444252"><ele>66.0</ele><time>2026-04-06T12:43:08Z</time></trkpt><trkpt lat="45.76658944379446" lon="12.16800225681801"><ele>66.0</ele><time>2026-04-06T12:43:09Z</time></trkpt><trkpt lat="45.766629257117465" lon="12.168491733316701"><ele>67.0</ele><time>2026-04-06T12:43:10Z</time></trkpt><trkpt lat="45.76665656182814" lon="12.168979422719852"><ele>68.0</ele><time>2026-04-06T12:43:11Z</time></trkpt><trkpt lat="45.76667205996956" lon="12.169468428762148"><ele>68.5</ele><time>2026-04-06T12:43:12Z</time></trkpt><trkpt lat="45.766670270066165" lon="12.169955279902975"><ele>69.0</ele><time>2026-04-06T12:43:13Z</time></trkpt><trkpt lat="45.7666587428846" lon="12.17044176642142"><ele>68.5</ele><time>2026-04-06T12:43:14Z</time></trkpt><trkpt lat="45.76663585363085" lon="12.170928161726074"><ele>68.0</ele><time>2026-04-06T12:43:15Z</time></trkpt><trkpt lat="45.76659938702814" lon="12.171414892219158"><ele>67.0</ele><time>2026-04-06T12:43:16Z</time></trkpt><trkpt lat="45.76654933873343" lon="12.1718949746968"><ele>66.0</ele><time>2026-04-06T12:43:17Z</time></trkpt><trkpt lat="45.766486417909384" lon="12.172371097568144"><ele>66.0</ele><time>2026-04-06T12:43:18Z</time></trkpt><trkpt lat="45.76641244538832" lon="12.172843163520078"><ele>66.0</ele><time>2026-04-06T12:43:19Z</time></trkpt><trkpt lat="45.76632866641299" lon="12.173315931724302"><ele>66.5</ele><time>2026-04-06T12:43:20Z</time></trkpt><trkpt lat="45.76623885680883" lon="12.17378746686519"><ele>67.0</ele><time>2026-04-06T12:43:21Z</time></trkpt><trkpt lat="45.76614601582439" lon="12.174258255262304"><ele>66.5</ele><time>2026-04-06T12:43:22Z</time></trkpt><trkpt lat="45.766053949366224" lon="12.174730341257236"><ele>66.0</ele><time>2026-04-06T12:43:23Z</time></trkpt><trkpt lat="45.765957631754695" lon="12.175204063487831"><ele>66.0</ele><time>2026-04-06T12:43:24Z</time></trkpt><trkpt lat="45.7658630886244" lon="12.175676020666529"><ele>66.0</ele><time>2026-04-06T12:43:25Z</time></trkpt><trkpt lat="45.765769642199764" lon="12.176145109231035"><ele>66.0</ele><time>2026-04-06T12:43:26Z</time></trkpt><trkpt lat="45.76567705865013" lon="12.176617250920039"><ele>66.0</ele><time>2026-04-06T12:43:27Z</time></trkpt><trkpt lat="45.76558537323636" lon="12.17709106242296"><ele>65.5</ele><time>2026-04-06T12:43:28Z</time></trkpt><trkpt lat="45.765492466443256" lon="12.177574655014608"><ele>65.0</ele><time>2026-04-06T12:43:29.018Z</time></trkpt><trkpt lat="45.76540143247415" lon="12.178053389463246"><ele>64.5</ele><time>2026-04-06T12:43:30.024Z</time></trkpt><trkpt lat="45.765310134480956" lon="12.178525599204468"><ele>64.0</ele><time>2026-04-06T12:43:31.018Z</time></trkpt><trkpt lat="45.76521646890223" lon="12.178990797593448"><ele>64.5</ele><time>2026-04-06T12:43:32.019Z</time></trkpt><trkpt lat="45.76512299328599" lon="12.179450434606874"><ele>65.0</ele><time>2026-04-06T12:43:33.021Z</time></trkpt><trkpt lat="45.76494451150835" lon="12.180236438300629"><ele>64.0</ele><time>2026-04-06T12:43:35Z</time></trkpt><trkpt lat="45.764862045236" lon="12.180703191228359"><ele>63.0</ele><time>2026-04-06T12:43:36Z</time></trkpt><trkpt lat="45.764780903075675" lon="12.18109993096079"><ele>63.0</ele><time>2026-04-06T12:43:37Z</time></trkpt><trkpt lat="45.76470461171401" lon="12.181487962376815"><ele>63.0</ele><time>2026-04-06T12:43:38Z</time></trkpt><trkpt lat="45.76462971801273" lon="12.181875886634764"><ele>64.0</ele><time>2026-04-06T12:43:39Z</time></trkpt><trkpt lat="45.76455313053712" lon="12.182243796452846"><ele>65.0</ele><time>2026-04-06T12:43:40Z</time></trkpt><trkpt lat="45.764478737071926" lon="12.182596411115913"><ele>64.5</ele><time>2026-04-06T12:43:41Z</time></trkpt><trkpt lat="45.76440487090294" lon="12.182925536112133"><ele>64.0</ele><time>2026-04-06T12:43:42Z</time></trkpt><trkpt lat="45.76434194021189" lon="12.183225789048379"><ele>64.0</ele><time>2026-04-06T12:43:43Z</time></trkpt><trkpt lat="45.76428889312499" lon="12.18350236691938"><ele>64.0</ele><time>2026-04-06T12:43:44Z</time></trkpt><trkpt lat="45.764244101026826" lon="12.183754601598492"><ele>64.0</ele><time>2026-04-06T12:43:45Z</time></trkpt><trkpt lat="45.764204918935754" lon="12.183982310379116"><ele>63.25</ele><time>2026-04-06T12:43:46Z</time></trkpt><trkpt lat="45.764170917453946" lon="12.184176575116243"><ele>62.5</ele><time>2026-04-06T12:43:47Z</time></trkpt><trkpt lat="45.76413557590132" lon="12.184342023806197"><ele>61.75</ele><time>2026-04-06T12:43:48Z</time></trkpt><trkpt lat="45.764102256213455" lon="12.184480773717377"><ele>61.0</ele><time>2026-04-06T12:43:49Z</time></trkpt><trkpt lat="45.764074482002606" lon="12.184598728992396"><ele>60.99999999999999</ele><time>2026-04-06T12:43:50Z</time></trkpt><trkpt lat="45.76406167381287" lon="12.18468960150052"><ele>61.0</ele><time>2026-04-06T12:43:51Z</time></trkpt><trkpt lat="45.76405318582269" lon="12.18480728735006"><ele>61.0</ele><time>2026-04-06T12:43:53Z</time></trkpt><trkpt lat="45.7640457639541" lon="12.184896908273288"><ele>61.0</ele><time>2026-04-06T12:45:57.999Z</time></trkpt><trkpt lat="45.764057611938775" lon="12.185062981382856"><ele>60.99999999999999</ele><time>2026-04-06T12:45:59.999Z</time></trkpt><trkpt lat="45.764048508622565" lon="12.185238110314248"><ele>61.0</ele><time>2026-04-06T12:46:01.999Z</time></trkpt><trkpt lat="45.76404324423863" lon="12.185359913451357"><ele>61.199999999999996</ele><time>2026-04-06T12:46:03Z</time></trkpt><trkpt lat="45.76403829835526" lon="12.185505027023556"><ele>61.39999999999999</ele><time>2026-04-06T12:46:04Z</time></trkpt><trkpt lat="45.76403514073533" lon="12.185662574860089"><ele>61.6</ele><time>2026-04-06T12:46:05Z</time></trkpt><trkpt lat="45.764034817363076" lon="12.185808412354884"><ele>61.8</ele><time>2026-04-06T12:46:06Z</time></trkpt><trkpt lat="45.76403414073878" lon="12.18595332940479"><ele>62.0</ele><time>2026-04-06T12:46:07Z</time></trkpt><trkpt lat="45.76403377089184" lon="12.186123229457175"><ele>62.5</ele><time>2026-04-06T12:46:08Z</time></trkpt><trkpt lat="45.7640329904425" lon="12.186311598803021"><ele>63.0</ele><time>2026-04-06T12:46:09Z</time></trkpt><trkpt lat="45.76403279378844" lon="12.186516532546227"><ele>63.5</ele><time>2026-04-06T12:46:10Z</time></trkpt><trkpt lat="45.76403082433227" lon="12.186738581948495"><ele>64.0</ele><time>2026-04-06T12:46:11Z</time></trkpt><trkpt lat="45.764036856266685" lon="12.186975009806837"><ele>64.0</ele><time>2026-04-06T12:46:12Z</time></trkpt><trkpt lat="45.764049792312846" lon="12.187229851685299"><ele>64.0</ele><time>2026-04-06T12:46:13Z</time></trkpt><trkpt lat="45.76407461133516" lon="12.18750194460427"><ele>64.0</ele><time>2026-04-06T12:46:14Z</time></trkpt><trkpt lat="45.7641002587508" lon="12.187773818526003"><ele>64.0</ele><time>2026-04-06T12:46:15Z</time></trkpt><trkpt lat="45.76413047075937" lon="12.188055111441885"><ele>64.0</ele><time>2026-04-06T12:46:16Z</time></trkpt><trkpt lat="45.76416732265271" lon="12.188359993422024"><ele>64.0</ele><time>2026-04-06T12:46:17Z</time></trkpt><trkpt lat="45.76421042089496" lon="12.188680099819713"><ele>63.5</ele><time>2026-04-06T12:46:18Z</time></trkpt><trkpt lat="45.76425662926962" lon="12.189012100082635"><ele>63.0</ele><time>2026-04-06T12:46:19Z</time></trkpt><trkpt lat="45.76431304085053" lon="12.189352561544782"><ele>63.0</ele><time>2026-04-06T12:46:20Z</time></trkpt><trkpt lat="45.76437913363954" lon="12.189696002081151"><ele>63.0</ele><time>2026-04-06T12:46:21Z</time></trkpt><trkpt lat="45.76445470950677" lon="12.190044076670766"><ele>62.0</ele><time>2026-04-06T12:46:22Z</time></trkpt><trkpt lat="45.764531285648324" lon="12.19039586193449"><ele>61.0</ele><time>2026-04-06T12:46:23Z</time></trkpt><trkpt lat="45.76461806661485" lon="12.190753964961148"><ele>60.0</ele><time>2026-04-06T12:46:24Z</time></trkpt><trkpt lat="45.76470711940371" lon="12.191116648254305"><ele>59.0</ele><time>2026-04-06T12:46:25Z</time></trkpt><trkpt lat="45.764800583910265" lon="12.191484675529862"><ele>59.0</ele><time>2026-04-06T12:46:26Z</time></trkpt><trkpt lat="45.764893385898134" lon="12.191858162809835"><ele>59.0</ele><time>2026-04-06T12:46:27Z</time></trkpt><trkpt lat="45.76498525186484" lon="12.192236911857874"><ele>59.5</ele><time>2026-04-06T12:46:28Z</time></trkpt><trkpt lat="45.76507737084714" lon="12.19261766154624"><ele>60.0</ele><time>2026-04-06T12:46:29Z</time></trkpt><trkpt lat="45.765166421038565" lon="12.193003756955852"><ele>60.0</ele><time>2026-04-06T12:46:30Z</time></trkpt><trkpt lat="45.765253776829695" lon="12.193399161163397"><ele>60.0</ele><time>2026-04-06T12:46:31Z</time></trkpt><trkpt lat="45.765343240237314" lon="12.193799382783876"><ele>60.5</ele><time>2026-04-06T12:46:32Z</time></trkpt><trkpt lat="45.765431381090636" lon="12.194208028450708"><ele>61.0</ele><time>2026-04-06T12:46:33Z</time></trkpt><trkpt lat="45.7655146733936" lon="12.194616879313303"><ele>61.0</ele><time>2026-04-06T12:46:34Z</time></trkpt><trkpt lat="45.76559138261165" lon="12.195023455758344"><ele>61.0</ele><time>2026-04-06T12:46:35Z</time></trkpt><trkpt lat="45.765659027097" lon="12.195441298820318"><ele>60.5</ele><time>2026-04-06T12:46:36Z</time></trkpt><trkpt lat="45.765718141618024" lon="12.195869226133881"><ele>60.0</ele><time>2026-04-06T12:46:37Z</time></trkpt><trkpt lat="45.76577020612788" lon="12.19630581932243"><ele>59.5</ele><time>2026-04-06T12:46:38Z</time></trkpt><trkpt lat="45.76581248215029" lon="12.196763262115175"><ele>59.0</ele><time>2026-04-06T12:46:39Z</time></trkpt><trkpt lat="45.765840483554875" lon="12.197217361015367"><ele>58.5</ele><time>2026-04-06T12:46:40Z</time></trkpt><trkpt lat="45.765856557753004" lon="12.197679215062065"><ele>58.0</ele><time>2026-04-06T12:46:41Z</time></trkpt><trkpt lat="45.76585728536452" lon="12.198147405520155"><ele>58.0</ele><time>2026-04-06T12:46:42Z</time></trkpt><trkpt lat="45.765846229013206" lon="12.198619868638152"><ele>58.0</ele><time>2026-04-06T12:46:43Z</time></trkpt><trkpt lat="45.76582456519159" lon="12.199093882919858"><ele>58.0</ele><time>2026-04-06T12:46:44Z</time></trkpt><trkpt lat="45.765791988729184" lon="12.19957051367264"><ele>58.0</ele><time>2026-04-06T12:46:45Z</time></trkpt><trkpt lat="45.76574767950528" lon="12.200045598173773"><ele>57.5</ele><time>2026-04-06T12:46:46Z</time></trkpt><trkpt lat="45.76569717248404" lon="12.200529219774344"><ele>57.0</ele><time>2026-04-06T12:46:47Z</time></trkpt><trkpt lat="45.765645376578036" lon="12.201015982158598"><ele>57.0</ele><time>2026-04-06T12:46:48Z</time></trkpt><trkpt lat="45.7655916254671" lon="12.201498529504882"><ele>57.0</ele><time>2026-04-06T12:46:49Z</time></trkpt><trkpt lat="45.76553780843891" lon="12.201983575686812"><ele>56.5</ele><time>2026-04-06T12:46:50Z</time></trkpt><trkpt lat="45.76548180346469" lon="12.202465627938007"><ele>56.0</ele><time>2026-04-06T12:46:51Z</time></trkpt><trkpt lat="45.76542395995934" lon="12.202944011702876"><ele>55.0</ele><time>2026-04-06T12:46:52Z</time></trkpt><trkpt lat="45.76536921932565" lon="12.203428296432586"><ele>54.0</ele><time>2026-04-06T12:46:53Z</time></trkpt><trkpt lat="45.76531321188707" lon="12.203910483516404"><ele>54.0</ele><time>2026-04-06T12:46:54Z</time></trkpt><trkpt lat="45.765257005977126" lon="12.204393489852576"><ele>54.0</ele><time>2026-04-06T12:46:55Z</time></trkpt><trkpt lat="45.765201696239814" lon="12.204875445668632"><ele>53.0</ele><time>2026-04-06T12:46:56Z</time></trkpt><trkpt lat="45.7651445175689" lon="12.205355658803143"><ele>52.0</ele><time>2026-04-06T12:46:57Z</time></trkpt><trkpt lat="45.765087522606336" lon="12.205836562997126"><ele>52.0</ele><time>2026-04-06T12:46:58Z</time></trkpt><trkpt lat="45.76503172029757" lon="12.206316122090712"><ele>52.0</ele><time>2026-04-06T12:46:59Z</time></trkpt><trkpt lat="45.764975675023486" lon="12.206795504120073"><ele>52.0</ele><time>2026-04-06T12:47:00Z</time></trkpt><trkpt lat="45.764918941481874" lon="12.207274516756383"><ele>52.0</ele><time>2026-04-06T12:47:01Z</time></trkpt><trkpt lat="45.764857968933995" lon="12.20775384687867"><ele>53.0</ele><time>2026-04-06T12:47:02Z</time></trkpt><trkpt lat="45.764798903265316" lon="12.208233526544598"><ele>54.0</ele><time>2026-04-06T12:47:03Z</time></trkpt><trkpt lat="45.76474606357039" lon="12.208712332309963"><ele>53.5</ele><time>2026-04-06T12:47:04Z</time></trkpt><trkpt lat="45.76468954641724" lon="12.20919185241847"><ele>53.0</ele><time>2026-04-06T12:47:05Z</time></trkpt><trkpt lat="45.764634846121574" lon="12.209672847721343"><ele>53.0</ele><time>2026-04-06T12:47:06Z</time></trkpt><trkpt lat="45.76457910870375" lon="12.210152060363393"><ele>53.0</ele><time>2026-04-06T12:47:07Z</time></trkpt><trkpt lat="45.764523288001286" lon="12.210632381658312"><ele>52.5</ele><time>2026-04-06T12:47:08Z</time></trkpt><trkpt lat="45.76446814381227" lon="12.211111818700054"><ele>52.0</ele><time>2026-04-06T12:47:09Z</time></trkpt><trkpt lat="45.76441088734933" lon="12.211592474815061"><ele>51.5</ele><time>2026-04-06T12:47:10Z</time></trkpt><trkpt lat="45.76435360940099" lon="12.212071545885697"><ele>51.0</ele><time>2026-04-06T12:47:11Z</time></trkpt><trkpt lat="45.76429669062405" lon="12.212554462913007"><ele>51.0</ele><time>2026-04-06T12:47:12Z</time></trkpt><trkpt lat="45.764242112393895" lon="12.21303638738986"><ele>51.0</ele><time>2026-04-06T12:47:13Z</time></trkpt><trkpt lat="45.76418506326966" lon="12.213520224418621"><ele>50.0</ele><time>2026-04-06T12:47:14Z</time></trkpt><trkpt lat="45.7641275864824" lon="12.214005198125346"><ele>49.0</ele><time>2026-04-06T12:47:15Z</time></trkpt><trkpt lat="45.76407157571037" lon="12.214490860221257"><ele>50.0</ele><time>2026-04-06T12:47:16Z</time></trkpt><trkpt lat="45.76401512277869" lon="12.21497576061718"><ele>51.0</ele><time>2026-04-06T12:47:17Z</time></trkpt><trkpt lat="45.7639588101958" lon="12.215460409826184"><ele>51.5</ele><time>2026-04-06T12:47:18Z</time></trkpt><trkpt lat="45.76390041143353" lon="12.215942764075024"><ele>52.0</ele><time>2026-04-06T12:47:19Z</time></trkpt><trkpt lat="45.76383942108158" lon="12.216425156373248"><ele>52.5</ele><time>2026-04-06T12:47:20Z</time></trkpt><trkpt lat="45.76377140102714" lon="12.216904124135365"><ele>53.0</ele><time>2026-04-06T12:47:21Z</time></trkpt><trkpt lat="45.763697495590876" lon="12.217382690217446"><ele>52.0</ele><time>2026-04-06T12:47:22Z</time></trkpt><trkpt lat="45.76361900301043" lon="12.217859321104504"><ele>51.0</ele><time>2026-04-06T12:47:23Z</time></trkpt><trkpt lat="45.763534027390065" lon="12.218333437359117"><ele>51.0</ele><time>2026-04-06T12:47:24Z</time></trkpt><trkpt lat="45.76344020713115" lon="12.218802789243878"><ele>51.0</ele><time>2026-04-06T12:47:25Z</time></trkpt><trkpt lat="45.763330056139054" lon="12.21926487241445"><ele>51.0</ele><time>2026-04-06T12:47:26Z</time></trkpt><trkpt lat="45.76320992371412" lon="12.219719498466118"><ele>51.0</ele><time>2026-04-06T12:47:27Z</time></trkpt><trkpt lat="45.763077086870716" lon="12.220167861088573"><ele>51.0</ele><time>2026-04-06T12:47:28Z</time></trkpt><trkpt lat="45.762934754185146" lon="12.220609216743965"><ele>51.0</ele><time>2026-04-06T12:47:29Z</time></trkpt><trkpt lat="45.76277698262313" lon="12.221042913369722"><ele>51.0</ele><time>2026-04-06T12:47:30Z</time></trkpt><trkpt lat="45.762607329679355" lon="12.221467268357832"><ele>51.0</ele><time>2026-04-06T12:47:31Z</time></trkpt><trkpt lat="45.76242737465302" lon="12.22188089662222"><ele>51.0</ele><time>2026-04-06T12:47:32Z</time></trkpt><trkpt lat="45.762235289828695" lon="12.222285517269212"><ele>51.0</ele><time>2026-04-06T12:47:33Z</time></trkpt><trkpt lat="45.76203656215571" lon="12.222683343503322"><ele>51.0</ele><time>2026-04-06T12:47:34Z</time></trkpt><trkpt lat="45.76182856633999" lon="12.223072473297961"><ele>51.0</ele><time>2026-04-06T12:47:35Z</time></trkpt><trkpt lat="45.76161404536093" lon="12.223453994034548"><ele>50.5</ele><time>2026-04-06T12:47:36Z</time></trkpt><trkpt lat="45.76139459964927" lon="12.223830059363713"><ele>50.0</ele><time>2026-04-06T12:47:37Z</time></trkpt><trkpt lat="45.76117306628071" lon="12.22420498597201"><ele>50.0</ele><time>2026-04-06T12:47:38Z</time></trkpt><trkpt lat="45.76095106409476" lon="12.224581303319834"><ele>50.0</ele><time>2026-04-06T12:47:39Z</time></trkpt><trkpt lat="45.76072683455994" lon="12.22495377535479"><ele>50.0</ele><time>2026-04-06T12:47:40Z</time></trkpt><trkpt lat="45.76050130936629" lon="12.225325496862249"><ele>50.0</ele><time>2026-04-06T12:47:41Z</time></trkpt><trkpt lat="45.76027629419249" lon="12.22569758086136"><ele>50.0</ele><time>2026-04-06T12:47:42Z</time></trkpt><trkpt lat="45.760052000837646" lon="12.226067721512878"><ele>50.0</ele><time>2026-04-06T12:47:43Z</time></trkpt><trkpt lat="45.75982747908965" lon="12.226436720116595"><ele>50.0</ele><time>2026-04-06T12:47:44Z</time></trkpt><trkpt lat="45.759604203798936" lon="12.226806395530069"><ele>50.0</ele><time>2026-04-06T12:47:45Z</time></trkpt><trkpt lat="45.75938195699647" lon="12.22718091062418"><ele>49.5</ele><time>2026-04-06T12:47:46Z</time></trkpt><trkpt lat="45.759163665073174" lon="12.227558515364054"><ele>49.0</ele><time>2026-04-06T12:47:47Z</time></trkpt><trkpt lat="45.75894897532833" lon="12.227937737080884"><ele>49.5</ele><time>2026-04-06T12:47:48Z</time></trkpt><trkpt lat="45.75873802573433" lon="12.228320112420159"><ele>50.0</ele><time>2026-04-06T12:47:49Z</time></trkpt><trkpt lat="45.75852746268175" lon="12.228705383053338"><ele>49.0</ele><time>2026-04-06T12:47:50Z</time></trkpt><trkpt lat="45.75831645795389" lon="12.229090584077255"><ele>48.0</ele><time>2026-04-06T12:47:51Z</time></trkpt><trkpt lat="45.75810638554438" lon="12.229474344047643"><ele>47.5</ele><time>2026-04-06T12:47:52Z</time></trkpt><trkpt lat="45.757898369227014" lon="12.229862813575929"><ele>47.0</ele><time>2026-04-06T12:47:53Z</time></trkpt><trkpt lat="45.757692215310705" lon="12.230252350804435"><ele>47.0</ele><time>2026-04-06T12:47:54Z</time></trkpt><trkpt lat="45.757489352882466" lon="12.230646015404083"><ele>47.0</ele><time>2026-04-06T12:47:55Z</time></trkpt><trkpt lat="45.757290371753044" lon="12.231041514633796"><ele>47.0</ele><time>2026-04-06T12:47:56Z</time></trkpt><trkpt lat="45.75709373676913" lon="12.231440511537302"><ele>47.0</ele><time>2026-04-06T12:47:57Z</time></trkpt><trkpt lat="45.75689856180665" lon="12.231842853817815"><ele>47.0</ele><time>2026-04-06T12:47:58Z</time></trkpt><trkpt lat="45.75670510028385" lon="12.232245921336657"><ele>47.0</ele><time>2026-04-06T12:47:59Z</time></trkpt><trkpt lat="45.756513165061264" lon="12.232652018147927"><ele>47.0</ele><time>2026-04-06T12:48:00Z</time></trkpt><trkpt lat="45.75632381703973" lon="12.23305793911632"><ele>47.0</ele><time>2026-04-06T12:48:01Z</time></trkpt><trkpt lat="45.75613573977654" lon="12.233465707568312"><ele>46.5</ele><time>2026-04-06T12:48:02Z</time></trkpt><trkpt lat="45.75594772325086" lon="12.233874827610842"><ele>46.0</ele><time>2026-04-06T12:48:03Z</time></trkpt><trkpt lat="45.75575854624414" lon="12.234280406580563"><ele>46.0</ele><time>2026-04-06T12:48:04Z</time></trkpt><trkpt lat="45.7555682175278" lon="12.234684858940344"><ele>46.0</ele><time>2026-04-06T12:48:05Z</time></trkpt><trkpt lat="45.75537956734388" lon="12.235091350046968"><ele>46.0</ele><time>2026-04-06T12:48:06Z</time></trkpt><trkpt lat="45.755192737704235" lon="12.235503274918182"><ele>46.0</ele><time>2026-04-06T12:48:07Z</time></trkpt><trkpt lat="45.7550043686531" lon="12.23592779983657"><ele>44.5</ele><time>2026-04-06T12:48:08.021Z</time></trkpt><trkpt lat="45.75482381485244" lon="12.236342741378614"><ele>43.0</ele><time>2026-04-06T12:48:09.015Z</time></trkpt><trkpt lat="45.75463793676332" lon="12.236762815183809"><ele>42.5</ele><time>2026-04-06T12:48:10.022Z</time></trkpt><trkpt lat="45.754448032230705" lon="12.237172751380145"><ele>42.0</ele><time>2026-04-06T12:48:11.014Z</time></trkpt><trkpt lat="45.75425075120197" lon="12.237571859972565"><ele>41.5</ele><time>2026-04-06T12:48:12Z</time></trkpt><trkpt lat="45.75406353255457" lon="12.237965378026752"><ele>41.0</ele><time>2026-04-06T12:48:13Z</time></trkpt><trkpt lat="45.75387877475637" lon="12.238358543974861"><ele>40.0</ele><time>2026-04-06T12:48:14Z</time></trkpt><trkpt lat="45.75370212864297" lon="12.238762210417793"><ele>39.0</ele><time>2026-04-06T12:48:15Z</time></trkpt><trkpt lat="45.75353773694755" lon="12.239174697067936"><ele>38.0</ele><time>2026-04-06T12:48:16Z</time></trkpt><trkpt lat="45.753382739097134" lon="12.23958488499018"><ele>37.0</ele><time>2026-04-06T12:48:17Z</time></trkpt><trkpt lat="45.75323394021533" lon="12.23999346721058"><ele>35.5</ele><time>2026-04-06T12:48:18Z</time></trkpt><trkpt lat="45.75309735541554" lon="12.240397201108909"><ele>34.0</ele><time>2026-04-06T12:48:19Z</time></trkpt><trkpt lat="45.75297216868484" lon="12.240797447416442"><ele>37.5</ele><time>2026-04-06T12:48:20Z</time></trkpt><trkpt lat="45.752859364385415" lon="12.24119682168683"><ele>41.0</ele><time>2026-04-06T12:48:21Z</time></trkpt><trkpt lat="45.75275867563501" lon="12.241594363199658"><ele>41.5</ele><time>2026-04-06T12:48:22Z</time></trkpt><trkpt lat="45.752664202283846" lon="12.241994778359883"><ele>42.0</ele><time>2026-04-06T12:48:23Z</time></trkpt><trkpt lat="45.75257574741316" lon="12.242392070665659"><ele>42.0</ele><time>2026-04-06T12:48:24Z</time></trkpt><trkpt lat="45.75249289840003" lon="12.24278548733496"><ele>42.0</ele><time>2026-04-06T12:48:25Z</time></trkpt><trkpt lat="45.75242190288808" lon="12.243177292028255"><ele>42.0</ele><time>2026-04-06T12:48:26Z</time></trkpt><trkpt lat="45.75235820694261" lon="12.243570265671506"><ele>42.0</ele><time>2026-04-06T12:48:27Z</time></trkpt><trkpt lat="45.75230107851118" lon="12.24396705875161"><ele>41.5</ele><time>2026-04-06T12:48:28Z</time></trkpt><trkpt lat="45.75225411505072" lon="12.244358829862653"><ele>41.0</ele><time>2026-04-06T12:48:29Z</time></trkpt><trkpt lat="45.752213044731405" lon="12.244748323924036"><ele>41.0</ele><time>2026-04-06T12:48:30Z</time></trkpt><trkpt lat="45.75217582143132" lon="12.245142758305024"><ele>41.0</ele><time>2026-04-06T12:48:31Z</time></trkpt><trkpt lat="45.752145613092914" lon="12.245542405056565"><ele>42.0</ele><time>2026-04-06T12:48:32Z</time></trkpt><trkpt lat="45.75212604132484" lon="12.245947331019197"><ele>43.0</ele><time>2026-04-06T12:48:33Z</time></trkpt><trkpt lat="45.75210578811942" lon="12.246357254752352"><ele>42.5</ele><time>2026-04-06T12:48:34Z</time></trkpt><trkpt lat="45.752091064749216" lon="12.246774432666589"><ele>42.0</ele><time>2026-04-06T12:48:35Z</time></trkpt><trkpt lat="45.752080124322326" lon="12.247193127744973"><ele>43.0</ele><time>2026-04-06T12:48:36Z</time></trkpt><trkpt lat="45.7520720474583" lon="12.247612165931024"><ele>44.0</ele><time>2026-04-06T12:48:37Z</time></trkpt><trkpt lat="45.752065311280866" lon="12.248028962021191"><ele>43.0</ele><time>2026-04-06T12:48:38Z</time></trkpt><trkpt lat="45.75205856136191" lon="12.248442789778405"><ele>42.0</ele><time>2026-04-06T12:48:39Z</time></trkpt><trkpt lat="45.75205510945219" lon="12.24885458162272"><ele>42.0</ele><time>2026-04-06T12:48:40Z</time></trkpt><trkpt lat="45.75205165342256" lon="12.249265701436627"><ele>42.0</ele><time>2026-04-06T12:48:41Z</time></trkpt><trkpt lat="45.75204519360904" lon="12.249672357051605"><ele>42.0</ele><time>2026-04-06T12:48:42Z</time></trkpt><trkpt lat="45.752036677799616" lon="12.250078735066168"><ele>42.0</ele><time>2026-04-06T12:48:43Z</time></trkpt><trkpt lat="45.752029405342235" lon="12.250484593411038"><ele>42.5</ele><time>2026-04-06T12:48:44Z</time></trkpt><trkpt lat="45.752018119248525" lon="12.250892367529831"><ele>43.0</ele><time>2026-04-06T12:48:45Z</time></trkpt><trkpt lat="45.75199887812248" lon="12.251300321403184"><ele>43.5</ele><time>2026-04-06T12:48:46.018Z</time></trkpt><trkpt lat="45.75197438673463" lon="12.251688698810971"><ele>44.0</ele><time>2026-04-06T12:48:47.013Z</time></trkpt><trkpt lat="45.751907145532364" lon="12.252425051893477"><ele>43.0</ele><time>2026-04-06T12:48:49.02Z</time></trkpt><trkpt lat="45.751870161851095" lon="12.252774133474585"><ele>42.0</ele><time>2026-04-06T12:48:50.019Z</time></trkpt><trkpt lat="45.751655590763086" lon="12.25423062221357"><ele>41.666666666666664</ele><time>2026-04-06T12:48:55Z</time></trkpt><trkpt lat="45.751612273873626" lon="12.254498467938916"><ele>41.33333333333333</ele><time>2026-04-06T12:48:56Z</time></trkpt><trkpt lat="45.75155256684215" lon="12.254766929817377"><ele>41.0</ele><time>2026-04-06T12:48:57Z</time></trkpt><trkpt lat="45.75151270069458" lon="12.254973436008235"><ele>41.0</ele><time>2026-04-06T12:48:58Z</time></trkpt><trkpt lat="45.75147289897799" lon="12.25516562082986"><ele>41.0</ele><time>2026-04-06T12:48:59Z</time></trkpt><trkpt lat="45.75143626313848" lon="12.255334778990251"><ele>41.0</ele><time>2026-04-06T12:49:00Z</time></trkpt><trkpt lat="45.75140327944101" lon="12.255486038272773"><ele>41.0</ele><time>2026-04-06T12:49:01Z</time></trkpt><trkpt lat="45.75137263289594" lon="12.255615002494444"><ele>40.666666666666664</ele><time>2026-04-06T12:49:02Z</time></trkpt><trkpt lat="45.751344575924165" lon="12.255724777779982"><ele>40.33333333333333</ele><time>2026-04-06T12:49:03Z</time></trkpt><trkpt lat="45.75131750267087" lon="12.25582355526378"><ele>40.0</ele><time>2026-04-06T12:49:04Z</time></trkpt><trkpt lat="45.75129239191192" lon="12.25591536512045"><ele>39.666666666666664</ele><time>2026-04-06T12:49:05Z</time></trkpt><trkpt lat="45.75126925554108" lon="12.256005224575759"><ele>39.333333333333336</ele><time>2026-04-06T12:49:06Z</time></trkpt><trkpt lat="45.75123254144" lon="12.256137159943949"><ele>39.0</ele><time>2026-04-06T12:49:08Z</time></trkpt><trkpt lat="45.75119949364921" lon="12.256242593798042"><ele>39.0</ele><time>2026-04-06T12:49:10Z</time></trkpt><trkpt lat="45.75117036573663" lon="12.256355760443967"><ele>39.0</ele><time>2026-04-06T12:49:12Z</time></trkpt><trkpt lat="45.751129420121195" lon="12.2565260732937"><ele>39.0</ele><time>2026-04-06T12:49:14Z</time></trkpt><trkpt lat="45.75109253645726" lon="12.256655328948966"><ele>39.0</ele><time>2026-04-06T12:49:15Z</time></trkpt><trkpt lat="45.75105107579549" lon="12.256794150565888"><ele>39.0</ele><time>2026-04-06T12:49:16Z</time></trkpt><trkpt lat="45.75100692220237" lon="12.256945962424844"><ele>39.0</ele><time>2026-04-06T12:49:17Z</time></trkpt><trkpt lat="45.75096677196982" lon="12.257091669042278"><ele>39.0</ele><time>2026-04-06T12:49:18Z</time></trkpt><trkpt lat="45.750925992654906" lon="12.257242739444784"><ele>39.0</ele><time>2026-04-06T12:49:19Z</time></trkpt><trkpt lat="45.75087933084653" lon="12.25741058435996"><ele>39.0</ele><time>2026-04-06T12:49:20Z</time></trkpt><trkpt lat="45.75082803060258" lon="12.25759783531348"><ele>39.333333333333336</ele><time>2026-04-06T12:49:21Z</time></trkpt><trkpt lat="45.75077319830388" lon="12.2578016785811"><ele>39.66666666666667</ele><time>2026-04-06T12:49:22Z</time></trkpt><trkpt lat="45.75071379179835" lon="12.258024769376823"><ele>40.0</ele><time>2026-04-06T12:49:23Z</time></trkpt><trkpt lat="45.75064909918137" lon="12.258265723955946"><ele>40.0</ele><time>2026-04-06T12:49:24Z</time></trkpt><trkpt lat="45.750580419899514" lon="12.258525734986684"><ele>40.0</ele><time>2026-04-06T12:49:25Z</time></trkpt><trkpt lat="45.75051415103929" lon="12.258779041624557"><ele>40.0</ele><time>2026-04-06T12:49:26Z</time></trkpt><trkpt lat="45.750448431108055" lon="12.25905229084931"><ele>40.0</ele><time>2026-04-06T12:49:27Z</time></trkpt><trkpt lat="45.750382375053654" lon="12.259336464849664"><ele>40.0</ele><time>2026-04-06T12:49:28Z</time></trkpt><trkpt lat="45.75031555988242" lon="12.259638096574937"><ele>40.0</ele><time>2026-04-06T12:49:29Z</time></trkpt><trkpt lat="45.750246243507966" lon="12.259948035509687"><ele>39.5</ele><time>2026-04-06T12:49:30Z</time></trkpt><trkpt lat="45.75017637772604" lon="12.260269795334892"><ele>39.0</ele><time>2026-04-06T12:49:31Z</time></trkpt><trkpt lat="45.75010738392012" lon="12.260602184531498"><ele>40.0</ele><time>2026-04-06T12:49:32Z</time></trkpt><trkpt lat="45.750040251789684" lon="12.260941997395715"><ele>41.0</ele><time>2026-04-06T12:49:33Z</time></trkpt><trkpt lat="45.74997321436487" lon="12.261297515339976"><ele>41.0</ele><time>2026-04-06T12:49:34Z</time></trkpt><trkpt lat="45.74990993711038" lon="12.261655254993588"><ele>41.0</ele><time>2026-04-06T12:49:35Z</time></trkpt><trkpt lat="45.74984564869769" lon="12.262022931227563"><ele>40.0</ele><time>2026-04-06T12:49:36Z</time></trkpt><trkpt lat="45.749784321205944" lon="12.262396457798973"><ele>39.0</ele><time>2026-04-06T12:49:37Z</time></trkpt><trkpt lat="45.74972550533595" lon="12.262777004468148"><ele>39.5</ele><time>2026-04-06T12:49:38Z</time></trkpt><trkpt lat="45.749670265031476" lon="12.263164992380162"><ele>40.0</ele><time>2026-04-06T12:49:39Z</time></trkpt><trkpt lat="45.749618395696935" lon="12.263559043683971"><ele>39.5</ele><time>2026-04-06T12:49:40Z</time></trkpt><trkpt lat="45.74957041944683" lon="12.263953730183587"><ele>39.0</ele><time>2026-04-06T12:49:41Z</time></trkpt><trkpt lat="45.74952578606944" lon="12.264355792077977"><ele>39.0</ele><time>2026-04-06T12:49:42Z</time></trkpt><trkpt lat="45.74948431332019" lon="12.2647603362994"><ele>39.0</ele><time>2026-04-06T12:49:43Z</time></trkpt><trkpt lat="45.749445872791384" lon="12.265169078067848"><ele>38.5</ele><time>2026-04-06T12:49:44Z</time></trkpt><trkpt lat="45.74941264665901" lon="12.265584328056388"><ele>38.0</ele><time>2026-04-06T12:49:45Z</time></trkpt><trkpt lat="45.74938278065448" lon="12.266005867069287"><ele>37.0</ele><time>2026-04-06T12:49:46Z</time></trkpt><trkpt lat="45.74935709988848" lon="12.266432979231496"><ele>36.0</ele><time>2026-04-06T12:49:47Z</time></trkpt><trkpt lat="45.74933194094844" lon="12.266862937111709"><ele>37.0</ele><time>2026-04-06T12:49:48Z</time></trkpt><trkpt lat="45.749306309235585" lon="12.267293915949486"><ele>38.0</ele><time>2026-04-06T12:49:49Z</time></trkpt><trkpt lat="45.74928200202564" lon="12.267728356799664"><ele>35.0</ele><time>2026-04-06T12:49:50Z</time></trkpt><trkpt lat="45.74926007673279" lon="12.268165740233005"><ele>32.0</ele><time>2026-04-06T12:49:51Z</time></trkpt><trkpt lat="45.74923885627007" lon="12.26860833869585"><ele>33.0</ele><time>2026-04-06T12:49:52Z</time></trkpt><trkpt lat="45.74921985804657" lon="12.269047669212792"><ele>34.0</ele><time>2026-04-06T12:49:53Z</time></trkpt><trkpt lat="45.74919939337519" lon="12.269483347587375"><ele>35.5</ele><time>2026-04-06T12:49:54Z</time></trkpt><trkpt lat="45.7491793988253" lon="12.269914581044908"><ele>37.0</ele><time>2026-04-06T12:49:55Z</time></trkpt><trkpt lat="45.7491614271718" lon="12.270340898704314"><ele>37.5</ele><time>2026-04-06T12:49:56Z</time></trkpt><trkpt lat="45.74914622676997" lon="12.27076435226556"><ele>38.0</ele><time>2026-04-06T12:49:57Z</time></trkpt><trkpt lat="45.74913797321331" lon="12.271183647971991"><ele>38.5</ele><time>2026-04-06T12:49:58Z</time></trkpt><trkpt lat="45.74914307809728" lon="12.271600666368458"><ele>39.0</ele><time>2026-04-06T12:49:59Z</time></trkpt><trkpt lat="45.74915781805702" lon="12.272021537336553"><ele>40.0</ele><time>2026-04-06T12:50:00Z</time></trkpt><trkpt lat="45.749185928325396" lon="12.272439163346727"><ele>41.0</ele><time>2026-04-06T12:50:01Z</time></trkpt><trkpt lat="45.749225120655375" lon="12.272853138963212"><ele>39.0</ele><time>2026-04-06T12:50:02Z</time></trkpt><trkpt lat="45.74927976866736" lon="12.273263230910054"><ele>37.0</ele><time>2026-04-06T12:50:03Z</time></trkpt><trkpt lat="45.74934288659587" lon="12.273655934195533"><ele>37.5</ele><time>2026-04-06T12:50:04Z</time></trkpt><trkpt lat="45.74940949018583" lon="12.274033130302097"><ele>38.0</ele><time>2026-04-06T12:50:05Z</time></trkpt><trkpt lat="45.74947844030531" lon="12.274390053573338"><ele>38.0</ele><time>2026-04-06T12:50:06Z</time></trkpt><trkpt lat="45.74954088514732" lon="12.274730241812627"><ele>38.0</ele><time>2026-04-06T12:50:07Z</time></trkpt><trkpt lat="45.749598289301936" lon="12.275057336245425"><ele>37.5</ele><time>2026-04-06T12:50:08Z</time></trkpt><trkpt lat="45.74963866483433" lon="12.275380848970782"><ele>37.0</ele><time>2026-04-06T12:50:09Z</time></trkpt><trkpt lat="45.74965199600712" lon="12.275708714916801"><ele>37.0</ele><time>2026-04-06T12:50:10Z</time></trkpt><trkpt lat="45.74964109248794" lon="12.276038393059169"><ele>37.0</ele><time>2026-04-06T12:50:11Z</time></trkpt><trkpt lat="45.74960890035806" lon="12.276369553811863"><ele>37.0</ele><time>2026-04-06T12:50:12Z</time></trkpt><trkpt lat="45.749548707211595" lon="12.276701639146264"><ele>37.0</ele><time>2026-04-06T12:50:13Z</time></trkpt><trkpt lat="45.74947382925826" lon="12.27702806369875"><ele>37.0</ele><time>2026-04-06T12:50:14Z</time></trkpt><trkpt lat="45.749383939073994" lon="12.277346696971208"><ele>37.0</ele><time>2026-04-06T12:50:15Z</time></trkpt><trkpt lat="45.74928860205896" lon="12.277657626089875"><ele>37.0</ele><time>2026-04-06T12:50:16Z</time></trkpt><trkpt lat="45.74919589842228" lon="12.277957722175286"><ele>37.0</ele><time>2026-04-06T12:50:17Z</time></trkpt><trkpt lat="45.74911924424033" lon="12.278247237928587"><ele>37.0</ele><time>2026-04-06T12:50:18Z</time></trkpt><trkpt lat="45.74907318929931" lon="12.278537363613305"><ele>37.333333333333336</ele><time>2026-04-06T12:50:19Z</time></trkpt><trkpt lat="45.74905607389313" lon="12.278836266152132"><ele>37.666666666666664</ele><time>2026-04-06T12:50:20Z</time></trkpt><trkpt lat="45.74907915243179" lon="12.279137953696521"><ele>38.0</ele><time>2026-04-06T12:50:21Z</time></trkpt><trkpt lat="45.74913328110064" lon="12.27943303695947"><ele>38.0</ele><time>2026-04-06T12:50:22Z</time></trkpt><trkpt lat="45.7492198145803" lon="12.279706703213566"><ele>38.0</ele><time>2026-04-06T12:50:23Z</time></trkpt><trkpt lat="45.749335226023106" lon="12.279958998047483"><ele>38.0</ele><time>2026-04-06T12:50:24Z</time></trkpt><trkpt lat="45.749475096434026" lon="12.280185182009232"><ele>38.0</ele><time>2026-04-06T12:50:25Z</time></trkpt><trkpt lat="45.74964057591742" lon="12.280358587882581"><ele>38.0</ele><time>2026-04-06T12:50:26Z</time></trkpt><trkpt lat="45.74981922560203" lon="12.280487669768135"><ele>38.0</ele><time>2026-04-06T12:50:27Z</time></trkpt><trkpt lat="45.7500094842474" lon="12.28056729212044"><ele>37.666666666666664</ele><time>2026-04-06T12:50:28Z</time></trkpt><trkpt lat="45.750218133419196" lon="12.28060236928997"><ele>37.333333333333336</ele><time>2026-04-06T12:50:29Z</time></trkpt><trkpt lat="45.7504307454812" lon="12.280595180803585"><ele>37.0</ele><time>2026-04-06T12:50:30Z</time></trkpt><trkpt lat="45.75064010211808" lon="12.280539029408486"><ele>37.0</ele><time>2026-04-06T12:50:31Z</time></trkpt><trkpt lat="45.75084309792239" lon="12.280432416615088"><ele>37.0</ele><time>2026-04-06T12:50:32Z</time></trkpt><trkpt lat="45.75103249959678" lon="12.28027329359858"><ele>37.0</ele><time>2026-04-06T12:50:33Z</time></trkpt><trkpt lat="45.75121434039194" lon="12.280079375522348"><ele>37.0</ele><time>2026-04-06T12:50:34Z</time></trkpt><trkpt lat="45.75138619857008" lon="12.27985633102483"><ele>37.0</ele><time>2026-04-06T12:50:35Z</time></trkpt><trkpt lat="45.75155829716918" lon="12.279636490804583"><ele>37.0</ele><time>2026-04-06T12:50:36Z</time></trkpt><trkpt lat="45.751742957227584" lon="12.279441079841677"><ele>37.0</ele><time>2026-04-06T12:50:37Z</time></trkpt><trkpt lat="45.75194837763485" lon="12.279280941667182"><ele>37.0</ele><time>2026-04-06T12:50:38Z</time></trkpt><trkpt lat="45.7521758733469" lon="12.279166982975429"><ele>37.0</ele><time>2026-04-06T12:50:39Z</time></trkpt><trkpt lat="45.75241859611937" lon="12.279079598985097"><ele>37.0</ele><time>2026-04-06T12:50:40Z</time></trkpt><trkpt lat="45.75267288433472" lon="12.279010183109001"><ele>37.0</ele><time>2026-04-06T12:50:41Z</time></trkpt><trkpt lat="45.75293640575103" lon="12.278938909366973"><ele>38.0</ele><time>2026-04-06T12:50:42Z</time></trkpt><trkpt lat="45.75321028074244" lon="12.278868255935555"><ele>39.0</ele><time>2026-04-06T12:50:43Z</time></trkpt><trkpt lat="45.75349160942281" lon="12.278809661957807"><ele>39.0</ele><time>2026-04-06T12:50:44Z</time></trkpt><trkpt lat="45.753778795158624" lon="12.278759723036764"><ele>39.0</ele><time>2026-04-06T12:50:45Z</time></trkpt><trkpt lat="45.75407276374008" lon="12.278716827589193"><ele>39.0</ele><time>2026-04-06T12:50:46Z</time></trkpt><trkpt lat="45.75437530098287" lon="12.278682873355816"><ele>39.0</ele><time>2026-04-06T12:50:47Z</time></trkpt><trkpt lat="45.75468140509662" lon="12.278656064330974"><ele>39.0</ele><time>2026-04-06T12:50:48Z</time></trkpt><trkpt lat="45.75499143344135" lon="12.278637501740604"><ele>39.0</ele><time>2026-04-06T12:50:49Z</time></trkpt><trkpt lat="45.755299515614084" lon="12.278626874595627"><ele>40.0</ele><time>2026-04-06T12:50:50Z</time></trkpt><trkpt lat="45.75560818710352" lon="12.278632204377715"><ele>41.0</ele><time>2026-04-06T12:50:51Z</time></trkpt><trkpt lat="45.75590837919624" lon="12.2786469736161"><ele>41.5</ele><time>2026-04-06T12:50:52Z</time></trkpt><trkpt lat="45.75620260312994" lon="12.278667210205812"><ele>42.0</ele><time>2026-04-06T12:50:53Z</time></trkpt><trkpt lat="45.75650463301939" lon="12.278700577262287"><ele>42.0</ele><time>2026-04-06T12:50:54Z</time></trkpt><trkpt lat="45.756810020192816" lon="12.278750080362443"><ele>42.0</ele><time>2026-04-06T12:50:55Z</time></trkpt><trkpt lat="45.75711794797774" lon="12.278818972613132"><ele>42.5</ele><time>2026-04-06T12:50:56Z</time></trkpt><trkpt lat="45.75742895476763" lon="12.278905809080898"><ele>43.0</ele><time>2026-04-06T12:50:57Z</time></trkpt><trkpt lat="45.75774486083672" lon="12.27900178162144"><ele>43.5</ele><time>2026-04-06T12:50:58Z</time></trkpt><trkpt lat="45.758064242539824" lon="12.279103326950423"><ele>44.0</ele><time>2026-04-06T12:50:59Z</time></trkpt><trkpt lat="45.758386507192476" lon="12.279217265482911"><ele>43.5</ele><time>2026-04-06T12:51:00Z</time></trkpt><trkpt lat="45.75870768701938" lon="12.279345311836831"><ele>43.0</ele><time>2026-04-06T12:51:01Z</time></trkpt><trkpt lat="45.75902902501251" lon="12.279485883255905"><ele>43.0</ele><time>2026-04-06T12:51:02Z</time></trkpt><trkpt lat="45.759355896718766" lon="12.279629066387717"><ele>43.0</ele><time>2026-04-06T12:51:03Z</time></trkpt><trkpt lat="45.759683520009546" lon="12.279767285027495"><ele>43.0</ele><time>2026-04-06T12:51:04Z</time></trkpt><trkpt lat="45.76001575652362" lon="12.279900516234926"><ele>43.0</ele><time>2026-04-06T12:51:05Z</time></trkpt><trkpt lat="45.76034088038372" lon="12.280032359410939"><ele>43.0</ele><time>2026-04-06T12:51:06Z</time></trkpt><trkpt lat="45.760669003314526" lon="12.280170999219427"><ele>43.0</ele><time>2026-04-06T12:51:07Z</time></trkpt><trkpt lat="45.760997728539515" lon="12.280308403088528"><ele>41.5</ele><time>2026-04-06T12:51:08Z</time></trkpt><trkpt lat="45.761324492113545" lon="12.280445783412054"><ele>40.0</ele><time>2026-04-06T12:51:09Z</time></trkpt><trkpt lat="45.761653156126805" lon="12.280585267687373"><ele>41.0</ele><time>2026-04-06T12:51:10Z</time></trkpt><trkpt lat="45.76198356622275" lon="12.28072230103347"><ele>42.0</ele><time>2026-04-06T12:51:11Z</time></trkpt><trkpt lat="45.76231244727283" lon="12.280856879996792"><ele>42.0</ele><time>2026-04-06T12:51:12Z</time></trkpt><trkpt lat="45.76263974259796" lon="12.280991566526717"><ele>42.0</ele><time>2026-04-06T12:51:13Z</time></trkpt><trkpt lat="45.762966428788545" lon="12.28112855425648"><ele>42.0</ele><time>2026-04-06T12:51:14Z</time></trkpt><trkpt lat="45.76329242292877" lon="12.281266817849607"><ele>42.0</ele><time>2026-04-06T12:51:15Z</time></trkpt><trkpt lat="45.76362128323583" lon="12.28140626435884"><ele>42.0</ele><time>2026-04-06T12:51:16Z</time></trkpt><trkpt lat="45.763948959487934" lon="12.28154699691559"><ele>42.0</ele><time>2026-04-06T12:51:17Z</time></trkpt><trkpt lat="45.76427671087175" lon="12.281683655320535"><ele>42.0</ele><time>2026-04-06T12:51:18Z</time></trkpt><trkpt lat="45.76460325723951" lon="12.28181824451242"><ele>42.0</ele><time>2026-04-06T12:51:19Z</time></trkpt><trkpt lat="45.764932436899535" lon="12.28195284235612"><ele>42.0</ele><time>2026-04-06T12:51:20Z</time></trkpt><trkpt lat="45.765259528870324" lon="12.282089136468157"><ele>42.0</ele><time>2026-04-06T12:51:21Z</time></trkpt><trkpt lat="45.76558413119876" lon="12.282230009007403"><ele>41.5</ele><time>2026-04-06T12:51:22Z</time></trkpt><trkpt lat="45.76590794738378" lon="12.282374454613233"><ele>41.0</ele><time>2026-04-06T12:51:23Z</time></trkpt><trkpt lat="45.766234538533666" lon="12.282521449616713"><ele>41.0</ele><time>2026-04-06T12:51:24Z</time></trkpt><trkpt lat="45.76656477543837" lon="12.28266992830629"><ele>41.0</ele><time>2026-04-06T12:51:25Z</time></trkpt><trkpt lat="45.76689122043883" lon="12.282819987569187"><ele>41.5</ele><time>2026-04-06T12:51:26Z</time></trkpt><trkpt lat="45.76721870382488" lon="12.282971659842637"><ele>42.0</ele><time>2026-04-06T12:51:27Z</time></trkpt><trkpt lat="45.76754384680982" lon="12.28312589810905"><ele>40.5</ele><time>2026-04-06T12:51:28Z</time></trkpt><trkpt lat="45.76786687767399" lon="12.2832819112179"><ele>39.0</ele><time>2026-04-06T12:51:29Z</time></trkpt><trkpt lat="45.76819187212775" lon="12.283441694432144"><ele>39.0</ele><time>2026-04-06T12:51:30Z</time></trkpt><trkpt lat="45.76851539742326" lon="12.283603257518834"><ele>39.0</ele><time>2026-04-06T12:51:31Z</time></trkpt><trkpt lat="45.768838779017464" lon="12.283768134509529"><ele>41.5</ele><time>2026-04-06T12:51:32Z</time></trkpt><trkpt lat="45.769160203555415" lon="12.28393266699994"><ele>44.0</ele><time>2026-04-06T12:51:33Z</time></trkpt><trkpt lat="45.769484709082505" lon="12.284096453381343"><ele>45.0</ele><time>2026-04-06T12:51:34Z</time></trkpt><trkpt lat="45.76980680079582" lon="12.284261990655777"><ele>46.0</ele><time>2026-04-06T12:51:35Z</time></trkpt><trkpt lat="45.770127788879535" lon="12.284432720903027"><ele>45.0</ele><time>2026-04-06T12:51:36Z</time></trkpt><trkpt lat="45.77044604671043" lon="12.28460378548229"><ele>44.0</ele><time>2026-04-06T12:51:37Z</time></trkpt><trkpt lat="45.77076577512443" lon="12.28477885121014"><ele>44.5</ele><time>2026-04-06T12:51:38Z</time></trkpt><trkpt lat="45.771081483518614" lon="12.284956179684768"><ele>45.0</ele><time>2026-04-06T12:51:39Z</time></trkpt><trkpt lat="45.77139568156479" lon="12.285142217887875"><ele>45.0</ele><time>2026-04-06T12:51:40Z</time></trkpt><trkpt lat="45.7717136382393" lon="12.28532685130224"><ele>45.0</ele><time>2026-04-06T12:51:41Z</time></trkpt><trkpt lat="45.772034473524805" lon="12.28550301254525"><ele>45.5</ele><time>2026-04-06T12:51:42Z</time></trkpt><trkpt lat="45.77235220306721" lon="12.28567733259382"><ele>46.0</ele><time>2026-04-06T12:51:43Z</time></trkpt><trkpt lat="45.77267339968682" lon="12.285850102060799"><ele>46.0</ele><time>2026-04-06T12:51:44Z</time></trkpt><trkpt lat="45.7729903973656" lon="12.286020821909714"><ele>46.0</ele><time>2026-04-06T12:51:45Z</time></trkpt><trkpt lat="45.77331353996822" lon="12.286182645025939"><ele>45.5</ele><time>2026-04-06T12:51:46Z</time></trkpt><trkpt lat="45.77363849915221" lon="12.286330880386288"><ele>45.0</ele><time>2026-04-06T12:51:47Z</time></trkpt><trkpt lat="45.77396511840962" lon="12.286467532011457"><ele>45.0</ele><time>2026-04-06T12:51:48Z</time></trkpt><trkpt lat="45.77429371638877" lon="12.28659757177471"><ele>45.0</ele><time>2026-04-06T12:51:49Z</time></trkpt><trkpt lat="45.77462376480709" lon="12.286720768078153"><ele>44.5</ele><time>2026-04-06T12:51:50Z</time></trkpt><trkpt lat="45.774953286344584" lon="12.28682791710396"><ele>44.0</ele><time>2026-04-06T12:51:51Z</time></trkpt><trkpt lat="45.775284608836074" lon="12.286922483357094"><ele>45.5</ele><time>2026-04-06T12:51:52Z</time></trkpt><trkpt lat="45.775612503090294" lon="12.287014069268517"><ele>47.0</ele><time>2026-04-06T12:51:53Z</time></trkpt><trkpt lat="45.77594390438631" lon="12.287098950486147"><ele>47.5</ele><time>2026-04-06T12:51:54Z</time></trkpt><trkpt lat="45.7762804707139" lon="12.287169425275755"><ele>48.0</ele><time>2026-04-06T12:51:55Z</time></trkpt><trkpt lat="45.77662020701286" lon="12.287236193893104"><ele>45.5</ele><time>2026-04-06T12:51:56Z</time></trkpt><trkpt lat="45.77696214895759" lon="12.287300506474697"><ele>43.0</ele><time>2026-04-06T12:51:57Z</time></trkpt><trkpt lat="45.77730297879161" lon="12.287365871622855"><ele>43.0</ele><time>2026-04-06T12:51:58Z</time></trkpt><trkpt lat="45.77764361236365" lon="12.287434660628564"><ele>43.0</ele><time>2026-04-06T12:51:59Z</time></trkpt><trkpt lat="45.77798393266149" lon="12.287505453280069"><ele>43.5</ele><time>2026-04-06T12:52:00Z</time></trkpt><trkpt lat="45.77832360838258" lon="12.287575455478743"><ele>44.0</ele><time>2026-04-06T12:52:01Z</time></trkpt><trkpt lat="45.77866503272554" lon="12.287644088355128"><ele>44.0</ele><time>2026-04-06T12:52:02Z</time></trkpt><trkpt lat="45.77900468818525" lon="12.287709879198323"><ele>44.0</ele><time>2026-04-06T12:52:03Z</time></trkpt><trkpt lat="45.7793454772187" lon="12.287774371736413"><ele>45.0</ele><time>2026-04-06T12:52:04Z</time></trkpt><trkpt lat="45.77968560932274" lon="12.287841765334159"><ele>46.0</ele><time>2026-04-06T12:52:05Z</time></trkpt><trkpt lat="45.78002798662069" lon="12.28790957665948"><ele>45.5</ele><time>2026-04-06T12:52:06Z</time></trkpt><trkpt lat="45.780367653154904" lon="12.287980282513706"><ele>45.0</ele><time>2026-04-06T12:52:07Z</time></trkpt><trkpt lat="45.780708371235605" lon="12.288050944099199"><ele>46.5</ele><time>2026-04-06T12:52:08Z</time></trkpt><trkpt lat="45.78104928259588" lon="12.28812738358042"><ele>48.0</ele><time>2026-04-06T12:52:09Z</time></trkpt><trkpt lat="45.781384222096236" lon="12.288210964637917"><ele>48.0</ele><time>2026-04-06T12:52:10Z</time></trkpt><trkpt lat="45.78172195059925" lon="12.288306172631518"><ele>48.0</ele><time>2026-04-06T12:52:11Z</time></trkpt><trkpt lat="45.782056189845655" lon="12.288414536214116"><ele>48.0</ele><time>2026-04-06T12:52:12Z</time></trkpt><trkpt lat="45.78238864531284" lon="12.288536487822661"><ele>48.0</ele><time>2026-04-06T12:52:13Z</time></trkpt><trkpt lat="45.782716401838925" lon="12.288671224522929"><ele>48.5</ele><time>2026-04-06T12:52:14Z</time></trkpt><trkpt lat="45.783044512791896" lon="12.28881250752535"><ele>49.0</ele><time>2026-04-06T12:52:15Z</time></trkpt><trkpt lat="45.783368504466175" lon="12.28896687641298"><ele>49.5</ele><time>2026-04-06T12:52:16Z</time></trkpt><trkpt lat="45.78368852035565" lon="12.289132927496615"><ele>50.0</ele><time>2026-04-06T12:52:17Z</time></trkpt><trkpt lat="45.78400242116523" lon="12.289315143871578"><ele>50.0</ele><time>2026-04-06T12:52:18Z</time></trkpt><trkpt lat="45.784316109545294" lon="12.289507082843631"><ele>50.0</ele><time>2026-04-06T12:52:19Z</time></trkpt><trkpt lat="45.78462752699483" lon="12.289704871080048"><ele>49.5</ele><time>2026-04-06T12:52:20Z</time></trkpt><trkpt lat="45.78493656088574" lon="12.28990249432768"><ele>49.0</ele><time>2026-04-06T12:52:21Z</time></trkpt><trkpt lat="45.78524571376475" lon="12.290100489986333"><ele>49.0</ele><time>2026-04-06T12:52:22Z</time></trkpt><trkpt lat="45.78555357437122" lon="12.29029717907062"><ele>49.0</ele><time>2026-04-06T12:52:23Z</time></trkpt><trkpt lat="45.78586387108698" lon="12.290493864859029"><ele>50.5</ele><time>2026-04-06T12:52:24Z</time></trkpt><trkpt lat="45.78617818259919" lon="12.290693091299117"><ele>52.0</ele><time>2026-04-06T12:52:25Z</time></trkpt><trkpt lat="45.7864908810216" lon="12.290894017036115"><ele>52.0</ele><time>2026-04-06T12:52:26Z</time></trkpt><trkpt lat="45.78680308384875" lon="12.291097026994677"><ele>52.0</ele><time>2026-04-06T12:52:27Z</time></trkpt><trkpt lat="45.78711466644886" lon="12.291297944062212"><ele>51.5</ele><time>2026-04-06T12:52:28Z</time></trkpt><trkpt lat="45.78742950302522" lon="12.291495341552967"><ele>51.0</ele><time>2026-04-06T12:52:29Z</time></trkpt><trkpt lat="45.78774362998424" lon="12.291692716390203"><ele>49.0</ele><time>2026-04-06T12:52:30Z</time></trkpt><trkpt lat="45.788055645" lon="12.291891960671322"><ele>47.0</ele><time>2026-04-06T12:52:31Z</time></trkpt><trkpt lat="45.788368481815354" lon="12.292092797496704"><ele>47.5</ele><time>2026-04-06T12:52:32Z</time></trkpt><trkpt lat="45.78868066964647" lon="12.292291852356259"><ele>48.0</ele><time>2026-04-06T12:52:33Z</time></trkpt><trkpt lat="45.78899468802959" lon="12.292489211325783"><ele>48.0</ele><time>2026-04-06T12:52:34Z</time></trkpt><trkpt lat="45.78931023349" lon="12.29268465763762"><ele>48.0</ele><time>2026-04-06T12:52:35Z</time></trkpt><trkpt lat="45.78962278616215" lon="12.292881839336129"><ele>47.0</ele><time>2026-04-06T12:52:36Z</time></trkpt><trkpt lat="45.78993813765607" lon="12.293080006652016"><ele>46.0</ele><time>2026-04-06T12:52:37Z</time></trkpt><trkpt lat="45.79025302203612" lon="12.29327990069222"><ele>46.0</ele><time>2026-04-06T12:52:38Z</time></trkpt><trkpt lat="45.79056558961058" lon="12.293480770054403"><ele>46.0</ele><time>2026-04-06T12:52:39Z</time></trkpt><trkpt lat="45.79087737406598" lon="12.293680222053043"><ele>45.5</ele><time>2026-04-06T12:52:40Z</time></trkpt><trkpt lat="45.79119229783826" lon="12.29387769567226"><ele>45.0</ele><time>2026-04-06T12:52:41Z</time></trkpt><trkpt lat="45.791503434898836" lon="12.294075741946138"><ele>45.0</ele><time>2026-04-06T12:52:42Z</time></trkpt><trkpt lat="45.791818043963644" lon="12.294275670152498"><ele>45.0</ele><time>2026-04-06T12:52:43Z</time></trkpt><trkpt lat="45.79213360683528" lon="12.294476863823412"><ele>44.5</ele><time>2026-04-06T12:52:44Z</time></trkpt><trkpt lat="45.792447710515184" lon="12.29467486192382"><ele>44.0</ele><time>2026-04-06T12:52:45Z</time></trkpt><trkpt lat="45.79276250816096" lon="12.294871181057697"><ele>45.5</ele><time>2026-04-06T12:52:46Z</time></trkpt><trkpt lat="45.79307616966516" lon="12.295067088148805"><ele>47.0</ele><time>2026-04-06T12:52:47Z</time></trkpt><trkpt lat="45.79338996838548" lon="12.295264929775334"><ele>48.5</ele><time>2026-04-06T12:52:48Z</time></trkpt><trkpt lat="45.79370301679828" lon="12.295464038542535"><ele>50.0</ele><time>2026-04-06T12:52:49Z</time></trkpt><trkpt lat="45.7940157279594" lon="12.295664165620478"><ele>50.5</ele><time>2026-04-06T12:52:50Z</time></trkpt><trkpt lat="45.79433024339969" lon="12.295863099520078"><ele>51.0</ele><time>2026-04-06T12:52:51Z</time></trkpt><trkpt lat="45.794639470143906" lon="12.29606062537417"><ele>51.0</ele><time>2026-04-06T12:52:52Z</time></trkpt><trkpt lat="45.79495089650882" lon="12.29625716153838"><ele>51.0</ele><time>2026-04-06T12:52:53Z</time></trkpt><trkpt lat="45.79526349588832" lon="12.296454315397202"><ele>50.0</ele><time>2026-04-06T12:52:54Z</time></trkpt><trkpt lat="45.795572671877274" lon="12.29665266617762"><ele>49.0</ele><time>2026-04-06T12:52:55Z</time></trkpt><trkpt lat="45.795884028601115" lon="12.296852869961409"><ele>49.5</ele><time>2026-04-06T12:52:56Z</time></trkpt><trkpt lat="45.79619868530641" lon="12.29705238807249"><ele>50.0</ele><time>2026-04-06T12:52:57Z</time></trkpt><trkpt lat="45.79651320336159" lon="12.297252722383982"><ele>50.0</ele><time>2026-04-06T12:52:58Z</time></trkpt><trkpt lat="45.79682927049506" lon="12.297451080129838"><ele>50.0</ele><time>2026-04-06T12:52:59Z</time></trkpt><trkpt lat="45.797143998230474" lon="12.297649208244488"><ele>50.0</ele><time>2026-04-06T12:53:00Z</time></trkpt><trkpt lat="45.79745790388396" lon="12.297847406614105"><ele>50.0</ele><time>2026-04-06T12:53:01Z</time></trkpt><trkpt lat="45.79777169160036" lon="12.298048772239"><ele>51.5</ele><time>2026-04-06T12:53:02Z</time></trkpt><trkpt lat="45.79808388717617" lon="12.29825294087161"><ele>53.0</ele><time>2026-04-06T12:53:03Z</time></trkpt><trkpt lat="45.79839931377331" lon="12.298458447449379"><ele>52.0</ele><time>2026-04-06T12:53:04Z</time></trkpt><trkpt lat="45.798711288698094" lon="12.298662915803352"><ele>51.0</ele><time>2026-04-06T12:53:05Z</time></trkpt><trkpt lat="45.799024519126604" lon="12.298865894666518"><ele>50.5</ele><time>2026-04-06T12:53:06Z</time></trkpt><trkpt lat="45.79933522820542" lon="12.299066436557188"><ele>50.0</ele><time>2026-04-06T12:53:07Z</time></trkpt><trkpt lat="45.799646571958036" lon="12.29926738993695"><ele>50.0</ele><time>2026-04-06T12:53:08Z</time></trkpt><trkpt lat="45.7999611298107" lon="12.299468519733466"><ele>50.0</ele><time>2026-04-06T12:53:09Z</time></trkpt><trkpt lat="45.80027416604271" lon="12.29967000325953"><ele>49.5</ele><time>2026-04-06T12:53:10Z</time></trkpt><trkpt lat="45.80058981326295" lon="12.299869617682619"><ele>49.0</ele><time>2026-04-06T12:53:11Z</time></trkpt><trkpt lat="45.80090071851168" lon="12.30006945241764"><ele>49.0</ele><time>2026-04-06T12:53:12Z</time></trkpt><trkpt lat="45.801209202523275" lon="12.300270364040268"><ele>49.0</ele><time>2026-04-06T12:53:13Z</time></trkpt><trkpt lat="45.80151922932231" lon="12.300470628352462"><ele>49.0</ele><time>2026-04-06T12:53:14Z</time></trkpt><trkpt lat="45.80183304467879" lon="12.300669722638231"><ele>49.0</ele><time>2026-04-06T12:53:15Z</time></trkpt><trkpt lat="45.80214614750689" lon="12.30086824340357"><ele>49.0</ele><time>2026-04-06T12:53:16Z</time></trkpt><trkpt lat="45.80245797119539" lon="12.30106485747221"><ele>49.0</ele><time>2026-04-06T12:53:17Z</time></trkpt><trkpt lat="45.8027686427693" lon="12.301262034186857"><ele>48.5</ele><time>2026-04-06T12:53:18Z</time></trkpt><trkpt lat="45.803079744600694" lon="12.301457459858051"><ele>48.0</ele><time>2026-04-06T12:53:19Z</time></trkpt><trkpt lat="45.80339048225648" lon="12.301656004944045"><ele>48.5</ele><time>2026-04-06T12:53:20Z</time></trkpt><trkpt lat="45.80370180457545" lon="12.301854704952875"><ele>49.0</ele><time>2026-04-06T12:53:21Z</time></trkpt><trkpt lat="45.804009946884456" lon="12.302054479385921"><ele>49.0</ele><time>2026-04-06T12:53:22Z</time></trkpt><trkpt lat="45.80432116992204" lon="12.302255573697302"><ele>49.0</ele><time>2026-04-06T12:53:23Z</time></trkpt><trkpt lat="45.80463277074906" lon="12.302455216541336"><ele>48.5</ele><time>2026-04-06T12:53:24Z</time></trkpt><trkpt lat="45.80494561917576" lon="12.302654386260981"><ele>48.0</ele><time>2026-04-06T12:53:25Z</time></trkpt><trkpt lat="45.805255389627575" lon="12.302852442176272"><ele>48.0</ele><time>2026-04-06T12:53:26Z</time></trkpt><trkpt lat="45.80556382573848" lon="12.303049750633097"><ele>48.0</ele><time>2026-04-06T12:53:27Z</time></trkpt><trkpt lat="45.80587369411955" lon="12.30324910948614"><ele>47.5</ele><time>2026-04-06T12:53:28Z</time></trkpt><trkpt lat="45.80618425946068" lon="12.303446828362775"><ele>47.0</ele><time>2026-04-06T12:53:29Z</time></trkpt><trkpt lat="45.806492436022126" lon="12.303645254390904"><ele>47.0</ele><time>2026-04-06T12:53:30Z</time></trkpt><trkpt lat="45.806803294065894" lon="12.303843954489173"><ele>47.0</ele><time>2026-04-06T12:53:31Z</time></trkpt><trkpt lat="45.80711659754002" lon="12.304045686131559"><ele>47.5</ele><time>2026-04-06T12:53:32Z</time></trkpt><trkpt lat="45.807427330350066" lon="12.304250031033446"><ele>48.0</ele><time>2026-04-06T12:53:33Z</time></trkpt><trkpt lat="45.80773681070835" lon="12.304454264978625"><ele>48.5</ele><time>2026-04-06T12:53:34Z</time></trkpt><trkpt lat="45.808052659995724" lon="12.304674774825434"><ele>49.0</ele><time>2026-04-06T12:53:35Z</time></trkpt><trkpt lat="45.808357887172335" lon="12.304884341659404"><ele>48.0</ele><time>2026-04-06T12:53:36Z</time></trkpt><trkpt lat="45.80866374551517" lon="12.305098100591634"><ele>47.0</ele><time>2026-04-06T12:53:37Z</time></trkpt><trkpt lat="45.80896665330865" lon="12.305317055803403"><ele>47.0</ele><time>2026-04-06T12:53:38Z</time></trkpt><trkpt lat="45.809268785411625" lon="12.305540127542415"><ele>47.0</ele><time>2026-04-06T12:53:39Z</time></trkpt><trkpt lat="45.809573350658916" lon="12.305766673089158"><ele>48.0</ele><time>2026-04-06T12:53:40Z</time></trkpt><trkpt lat="45.80987407167793" lon="12.305994970021784"><ele>49.0</ele><time>2026-04-06T12:53:41Z</time></trkpt><trkpt lat="45.810173369302625" lon="12.306228772266744"><ele>47.5</ele><time>2026-04-06T12:53:42Z</time></trkpt><trkpt lat="45.81047130423027" lon="12.306465886698238"><ele>46.0</ele><time>2026-04-06T12:53:43Z</time></trkpt><trkpt lat="45.81076633119174" lon="12.306707880278609"><ele>46.5</ele><time>2026-04-06T12:53:44Z</time></trkpt><trkpt lat="45.811063240635285" lon="12.30695216096827"><ele>47.0</ele><time>2026-04-06T12:53:45Z</time></trkpt><trkpt lat="45.81135991367562" lon="12.307198560433283"><ele>47.5</ele><time>2026-04-06T12:53:46Z</time></trkpt><trkpt lat="45.811654464049" lon="12.30744632280263"><ele>48.0</ele><time>2026-04-06T12:53:47Z</time></trkpt><trkpt lat="45.81194674189906" lon="12.307698605406738"><ele>48.0</ele><time>2026-04-06T12:53:48Z</time></trkpt><trkpt lat="45.81223524003061" lon="12.307953159205299"><ele>48.0</ele><time>2026-04-06T12:53:49Z</time></trkpt><trkpt lat="45.81252337861164" lon="12.308212145975748"><ele>47.0</ele><time>2026-04-06T12:53:50Z</time></trkpt><trkpt lat="45.81281331035358" lon="12.308472795075607"><ele>46.0</ele><time>2026-04-06T12:53:51Z</time></trkpt><trkpt lat="45.813099988933345" lon="12.308736045816609"><ele>47.0</ele><time>2026-04-06T12:53:52Z</time></trkpt><trkpt lat="45.813388988238266" lon="12.309002502990637"><ele>48.0</ele><time>2026-04-06T12:53:53Z</time></trkpt><trkpt lat="45.81367690487027" lon="12.309268341678042"><ele>48.5</ele><time>2026-04-06T12:53:54Z</time></trkpt><trkpt lat="45.81396463528724" lon="12.309533936754246"><ele>49.0</ele><time>2026-04-06T12:53:55Z</time></trkpt><trkpt lat="45.81425357570559" lon="12.30979859284442"><ele>47.5</ele><time>2026-04-06T12:53:56Z</time></trkpt><trkpt lat="45.81454298900993" lon="12.310062229189114"><ele>46.0</ele><time>2026-04-06T12:53:57Z</time></trkpt><trkpt lat="45.81483138150701" lon="12.310335298562684"><ele>46.0</ele><time>2026-04-06T12:53:58Z</time></trkpt><trkpt lat="45.815117613995085" lon="12.31059709203395"><ele>46.0</ele><time>2026-04-06T12:53:59.001Z</time></trkpt><trkpt lat="45.81540559186255" lon="12.310862010574356"><ele>46.5</ele><time>2026-04-06T12:54:00.001Z</time></trkpt><trkpt lat="45.81569145251628" lon="12.311129022403794"><ele>47.0</ele><time>2026-04-06T12:54:01.001Z</time></trkpt><trkpt lat="45.815973631488255" lon="12.311396374575624"><ele>47.0</ele><time>2026-04-06T12:54:02.001Z</time></trkpt><trkpt lat="45.81625727725627" lon="12.31166232890946"><ele>47.0</ele><time>2026-04-06T12:54:03.001Z</time></trkpt><trkpt lat="45.81654378071109" lon="12.311924547666791"><ele>47.0</ele><time>2026-04-06T12:54:04.001Z</time></trkpt><trkpt lat="45.81683046229532" lon="12.312180840024835"><ele>47.0</ele><time>2026-04-06T12:54:05.001Z</time></trkpt><trkpt lat="45.81712328958089" lon="12.312430283036662"><ele>47.5</ele><time>2026-04-06T12:54:06.001Z</time></trkpt><trkpt lat="45.81742019664712" lon="12.312671877851514"><ele>48.0</ele><time>2026-04-06T12:54:07.001Z</time></trkpt><trkpt lat="45.817721890066224" lon="12.312901470671179"><ele>48.0</ele><time>2026-04-06T12:54:08.001Z</time></trkpt><trkpt lat="45.81802757106948" lon="12.313122606916812"><ele>48.0</ele><time>2026-04-06T12:54:09.001Z</time></trkpt><trkpt lat="45.81833461730765" lon="12.313335361201434"><ele>47.5</ele><time>2026-04-06T12:54:10.001Z</time></trkpt><trkpt lat="45.81865184592042" lon="12.313536168171918"><ele>47.0</ele><time>2026-04-06T12:54:11Z</time></trkpt><trkpt lat="45.81896529149727" lon="12.313725471229084"><ele>47.0</ele><time>2026-04-06T12:54:12Z</time></trkpt><trkpt lat="45.819284816769134" lon="12.313904422570442"><ele>47.0</ele><time>2026-04-06T12:54:13Z</time></trkpt><trkpt lat="45.819605218859216" lon="12.314074318754527"><ele>46.5</ele><time>2026-04-06T12:54:14Z</time></trkpt><trkpt lat="45.81993188932685" lon="12.314230251815992"><ele>46.0</ele><time>2026-04-06T12:54:15Z</time></trkpt><trkpt lat="45.82026014457905" lon="12.314375823337455"><ele>46.0</ele><time>2026-04-06T12:54:16Z</time></trkpt><trkpt lat="45.82059124346671" lon="12.314508484157251"><ele>46.0</ele><time>2026-04-06T12:54:17Z</time></trkpt><trkpt lat="45.82092384371218" lon="12.314629460057128"><ele>46.5</ele><time>2026-04-06T12:54:18Z</time></trkpt><trkpt lat="45.8212601621864" lon="12.314737664149703"><ele>47.0</ele><time>2026-04-06T12:54:19Z</time></trkpt><trkpt lat="45.821595496501544" lon="12.314834441787662"><ele>47.5</ele><time>2026-04-06T12:54:20Z</time></trkpt><trkpt lat="45.82193518602234" lon="12.314917807345772"><ele>48.0</ele><time>2026-04-06T12:54:21Z</time></trkpt><trkpt lat="45.82227426755656" lon="12.314990030051078"><ele>48.0</ele><time>2026-04-06T12:54:22Z</time></trkpt><trkpt lat="45.82261427726931" lon="12.315054735016824"><ele>48.0</ele><time>2026-04-06T12:54:23Z</time></trkpt><trkpt lat="45.82295176259074" lon="12.315112273343548"><ele>47.0</ele><time>2026-04-06T12:54:24Z</time></trkpt><trkpt lat="45.82329184643306" lon="12.315166892779256"><ele>46.0</ele><time>2026-04-06T12:54:25Z</time></trkpt><trkpt lat="45.82362943636156" lon="12.315221128060434"><ele>46.0</ele><time>2026-04-06T12:54:26Z</time></trkpt><trkpt lat="45.82396608907568" lon="12.315277801847579"><ele>46.0</ele><time>2026-04-06T12:54:27Z</time></trkpt><trkpt lat="45.824303022438166" lon="12.315336626907385"><ele>46.5</ele><time>2026-04-06T12:54:28Z</time></trkpt><trkpt lat="45.824640483313004" lon="12.315395495890268"><ele>47.0</ele><time>2026-04-06T12:54:29Z</time></trkpt><trkpt lat="45.82497890807351" lon="12.31545345173412"><ele>45.0</ele><time>2026-04-06T12:54:30Z</time></trkpt><trkpt lat="45.82531721256098" lon="12.31550940378483"><ele>43.0</ele><time>2026-04-06T12:54:31Z</time></trkpt><trkpt lat="45.82565800657431" lon="12.315562082880385"><ele>43.0</ele><time>2026-04-06T12:54:32Z</time></trkpt><trkpt lat="45.82600063273528" lon="12.315613300842356"><ele>43.0</ele><time>2026-04-06T12:54:33Z</time></trkpt><trkpt lat="45.826338306851035" lon="12.315665204748832"><ele>43.0</ele><time>2026-04-06T12:54:34Z</time></trkpt><trkpt lat="45.82667791178023" lon="12.31571753937143"><ele>43.0</ele><time>2026-04-06T12:54:35Z</time></trkpt><trkpt lat="45.82701651260216" lon="12.315772689508925"><ele>43.5</ele><time>2026-04-06T12:54:36Z</time></trkpt><trkpt lat="45.827353804059776" lon="12.315829946073892"><ele>44.0</ele><time>2026-04-06T12:54:37Z</time></trkpt><trkpt lat="45.827693149361465" lon="12.315887466942524"><ele>45.5</ele><time>2026-04-06T12:54:38Z</time></trkpt><trkpt lat="45.82803412334573" lon="12.315945477421801"><ele>47.0</ele><time>2026-04-06T12:54:39Z</time></trkpt><trkpt lat="45.82837397207588" lon="12.315999545471021"><ele>47.0</ele><time>2026-04-06T12:54:40Z</time></trkpt><trkpt lat="45.82871383122647" lon="12.316056186506032"><ele>47.0</ele><time>2026-04-06T12:54:41Z</time></trkpt><trkpt lat="45.8290529413526" lon="12.316112269737015"><ele>46.0</ele><time>2026-04-06T12:54:42Z</time></trkpt><trkpt lat="45.82939314081795" lon="12.316166696331024"><ele>45.0</ele><time>2026-04-06T12:54:43Z</time></trkpt><trkpt lat="45.82973226368848" lon="12.316215063879596"><ele>45.0</ele><time>2026-04-06T12:54:44Z</time></trkpt><trkpt lat="45.83007184363507" lon="12.316270651725805"><ele>45.0</ele><time>2026-04-06T12:54:45Z</time></trkpt><trkpt lat="45.830410257864536" lon="12.316327997685608"><ele>44.5</ele><time>2026-04-06T12:54:46Z</time></trkpt><trkpt lat="45.83074795693924" lon="12.316384009355046"><ele>44.0</ele><time>2026-04-06T12:54:47Z</time></trkpt><trkpt lat="45.831087060393635" lon="12.316441485166209"><ele>44.0</ele><time>2026-04-06T12:54:48Z</time></trkpt><trkpt lat="45.83142850520772" lon="12.31649683843004"><ele>44.0</ele><time>2026-04-06T12:54:49Z</time></trkpt><trkpt lat="45.8317688558224" lon="12.31655215584851"><ele>43.5</ele><time>2026-04-06T12:54:50Z</time></trkpt><trkpt lat="45.8321101376371" lon="12.316608233175778"><ele>43.0</ele><time>2026-04-06T12:54:51Z</time></trkpt><trkpt lat="45.83245114249575" lon="12.3166621290916"><ele>43.5</ele><time>2026-04-06T12:54:52Z</time></trkpt><trkpt lat="45.83279147277678" lon="12.316712745462054"><ele>44.0</ele><time>2026-04-06T12:54:53Z</time></trkpt><trkpt lat="45.83313117898019" lon="12.316764561027433"><ele>44.0</ele><time>2026-04-06T12:54:54Z</time></trkpt><trkpt lat="45.8334707128441" lon="12.316819782910226"><ele>44.0</ele><time>2026-04-06T12:54:55Z</time></trkpt><trkpt lat="45.83381055523093" lon="12.31687584951887"><ele>44.0</ele><time>2026-04-06T12:54:56Z</time></trkpt><trkpt lat="45.83415054016372" lon="12.316930440268065"><ele>44.0</ele><time>2026-04-06T12:54:57Z</time></trkpt><trkpt lat="45.834490191119734" lon="12.316983321636291"><ele>44.5</ele><time>2026-04-06T12:54:58Z</time></trkpt><trkpt lat="45.834829077238346" lon="12.31703763834267"><ele>45.0</ele><time>2026-04-06T12:54:59Z</time></trkpt><trkpt lat="45.83516902691902" lon="12.317091613207856"><ele>45.0</ele><time>2026-04-06T12:55:00Z</time></trkpt><trkpt lat="45.8355081043381" lon="12.317147338624245"><ele>45.0</ele><time>2026-04-06T12:55:01Z</time></trkpt><trkpt lat="45.8358463966752" lon="12.317204440317223"><ele>44.5</ele><time>2026-04-06T12:55:02Z</time></trkpt><trkpt lat="45.8361859095009" lon="12.317261169687958"><ele>44.0</ele><time>2026-04-06T12:55:03Z</time></trkpt><trkpt lat="45.8365250495125" lon="12.31731900307302"><ele>44.5</ele><time>2026-04-06T12:55:04Z</time></trkpt><trkpt lat="45.83686433474263" lon="12.317376587985652"><ele>45.0</ele><time>2026-04-06T12:55:05Z</time></trkpt><trkpt lat="45.8372033787869" lon="12.317433891693607"><ele>45.0</ele><time>2026-04-06T12:55:06Z</time></trkpt><trkpt lat="45.83754237225559" lon="12.31749582253791"><ele>45.0</ele><time>2026-04-06T12:55:07Z</time></trkpt><trkpt lat="45.837881266953325" lon="12.317564082745514"><ele>45.0</ele><time>2026-04-06T12:55:08Z</time></trkpt><trkpt lat="45.83821797950424" lon="12.317642024585323"><ele>45.0</ele><time>2026-04-06T12:55:09Z</time></trkpt><trkpt lat="45.838553178788544" lon="12.31773694372479"><ele>45.0</ele><time>2026-04-06T12:55:10Z</time></trkpt><trkpt lat="45.838888078237254" lon="12.317840191315865"><ele>45.0</ele><time>2026-04-06T12:55:11Z</time></trkpt><trkpt lat="45.83922168043659" lon="12.317949985767795"><ele>44.5</ele><time>2026-04-06T12:55:12Z</time></trkpt><trkpt lat="45.839553402415774" lon="12.318065953973006"><ele>44.0</ele><time>2026-04-06T12:55:13Z</time></trkpt><trkpt lat="45.83988338613397" lon="12.318190412634587"><ele>44.0</ele><time>2026-04-06T12:55:14Z</time></trkpt><trkpt lat="45.84021408323038" lon="12.318323814641627"><ele>44.0</ele><time>2026-04-06T12:55:15Z</time></trkpt><trkpt lat="45.84054005899778" lon="12.318468069300879"><ele>44.0</ele><time>2026-04-06T12:55:16Z</time></trkpt><trkpt lat="45.84086346278156" lon="12.318620726619203"><ele>44.0</ele><time>2026-04-06T12:55:17Z</time></trkpt><trkpt lat="45.84118410059574" lon="12.318781882734646"><ele>43.5</ele><time>2026-04-06T12:55:18Z</time></trkpt><trkpt lat="45.84150618997503" lon="12.318952173655294"><ele>43.0</ele><time>2026-04-06T12:55:19Z</time></trkpt><trkpt lat="45.84182360602273" lon="12.319131318796135"><ele>42.0</ele><time>2026-04-06T12:55:20Z</time></trkpt><trkpt lat="45.842138339779574" lon="12.31932111047817"><ele>41.0</ele><time>2026-04-06T12:55:21Z</time></trkpt><trkpt lat="45.842447980825305" lon="12.319519088901927"><ele>42.5</ele><time>2026-04-06T12:55:22Z</time></trkpt><trkpt lat="45.84275698553902" lon="12.319723979510684"><ele>44.0</ele><time>2026-04-06T12:55:23Z</time></trkpt><trkpt lat="45.84306404810793" lon="12.319935522150818"><ele>44.0</ele><time>2026-04-06T12:55:24Z</time></trkpt><trkpt lat="45.84336815797583" lon="12.320156992712649"><ele>44.0</ele><time>2026-04-06T12:55:25Z</time></trkpt><trkpt lat="45.84366886192392" lon="12.320386072323727"><ele>43.5</ele><time>2026-04-06T12:55:26Z</time></trkpt><trkpt lat="45.84396583644276" lon="12.320624596327479"><ele>43.0</ele><time>2026-04-06T12:55:27Z</time></trkpt><trkpt lat="45.84426150710947" lon="12.320872199632555"><ele>44.0</ele><time>2026-04-06T12:55:28Z</time></trkpt><trkpt lat="45.844554697562984" lon="12.321128360061506"><ele>45.0</ele><time>2026-04-06T12:55:29Z</time></trkpt><trkpt lat="45.84484384249135" lon="12.321392359879878"><ele>44.5</ele><time>2026-04-06T12:55:30Z</time></trkpt><trkpt lat="45.84512641579822" lon="12.321664095275695"><ele>44.0</ele><time>2026-04-06T12:55:31Z</time></trkpt><trkpt lat="45.84540865982222" lon="12.32194521564209"><ele>43.5</ele><time>2026-04-06T12:55:32Z</time></trkpt><trkpt lat="45.8456895822772" lon="12.322232262054774"><ele>43.0</ele><time>2026-04-06T12:55:33Z</time></trkpt><trkpt lat="45.845966823197884" lon="12.322519875912162"><ele>41.5</ele><time>2026-04-06T12:55:34Z</time></trkpt><trkpt lat="45.84624906964363" lon="12.322805899005484"><ele>40.0</ele><time>2026-04-06T12:55:35Z</time></trkpt><trkpt lat="45.846529707795334" lon="12.323091727172754"><ele>40.0</ele><time>2026-04-06T12:55:36Z</time></trkpt><trkpt lat="45.84681099671407" lon="12.323376667240193"><ele>40.0</ele><time>2026-04-06T12:55:37Z</time></trkpt><trkpt lat="45.84709242283477" lon="12.323660835847424"><ele>40.0</ele><time>2026-04-06T12:55:38Z</time></trkpt><trkpt lat="45.84737310760841" lon="12.323944260196582"><ele>40.0</ele><time>2026-04-06T12:55:39Z</time></trkpt><trkpt lat="45.84765451285812" lon="12.32422822847309"><ele>40.0</ele><time>2026-04-06T12:55:40Z</time></trkpt><trkpt lat="45.847935837429524" lon="12.324513677809538"><ele>40.0</ele><time>2026-04-06T12:55:41Z</time></trkpt><trkpt lat="45.84821578451178" lon="12.324799972585405"><ele>41.0</ele><time>2026-04-06T12:55:42Z</time></trkpt><trkpt lat="45.84849465164479" lon="12.325087825634213"><ele>42.0</ele><time>2026-04-06T12:55:43Z</time></trkpt><trkpt lat="45.84877155827241" lon="12.32537622605638"><ele>42.0</ele><time>2026-04-06T12:55:44Z</time></trkpt><trkpt lat="45.84904747876867" lon="12.325664108402952"><ele>42.0</ele><time>2026-04-06T12:55:45Z</time></trkpt><trkpt lat="45.849325288633366" lon="12.325951712089472"><ele>42.0</ele><time>2026-04-06T12:55:46Z</time></trkpt><trkpt lat="45.849601886913305" lon="12.326237385270975"><ele>42.0</ele><time>2026-04-06T12:55:47Z</time></trkpt><trkpt lat="45.84988041117587" lon="12.326523883081297"><ele>41.0</ele><time>2026-04-06T12:55:48Z</time></trkpt><trkpt lat="45.8501582625426" lon="12.32680748546202"><ele>40.0</ele><time>2026-04-06T12:55:49Z</time></trkpt><trkpt lat="45.85043736464038" lon="12.327091950706347"><ele>39.5</ele><time>2026-04-06T12:55:50Z</time></trkpt><trkpt lat="45.850715042197905" lon="12.327375075917324"><ele>39.0</ele><time>2026-04-06T12:55:51Z</time></trkpt><trkpt lat="45.85099266874055" lon="12.327660237189933"><ele>38.0</ele><time>2026-04-06T12:55:52Z</time></trkpt><trkpt lat="45.85127040753745" lon="12.32794672424847"><ele>37.0</ele><time>2026-04-06T12:55:53Z</time></trkpt><trkpt lat="45.85154661391017" lon="12.328234101841915"><ele>38.0</ele><time>2026-04-06T12:55:54Z</time></trkpt><trkpt lat="45.85182362995584" lon="12.328521795460535"><ele>39.0</ele><time>2026-04-06T12:55:55Z</time></trkpt><trkpt lat="45.85210019264369" lon="12.328806778400937"><ele>39.0</ele><time>2026-04-06T12:55:56Z</time></trkpt><trkpt lat="45.85237643956038" lon="12.32909287871607"><ele>39.0</ele><time>2026-04-06T12:55:57Z</time></trkpt><trkpt lat="45.85265378636552" lon="12.329376633100098"><ele>38.0</ele><time>2026-04-06T12:55:58Z</time></trkpt><trkpt lat="45.852932254328834" lon="12.329657607226606"><ele>37.0</ele><time>2026-04-06T12:55:59Z</time></trkpt><trkpt lat="45.85321129814711" lon="12.329939277354612"><ele>39.5</ele><time>2026-04-06T12:56:00Z</time></trkpt><trkpt lat="45.85348935531422" lon="12.330221901592603"><ele>42.0</ele><time>2026-04-06T12:56:01Z</time></trkpt><trkpt lat="45.85376507697114" lon="12.330506096330154"><ele>42.5</ele><time>2026-04-06T12:56:02Z</time></trkpt><trkpt lat="45.85404106378402" lon="12.330794405253702"><ele>43.0</ele><time>2026-04-06T12:56:03Z</time></trkpt><trkpt lat="45.8543161308996" lon="12.331086035697377"><ele>41.5</ele><time>2026-04-06T12:56:04Z</time></trkpt><trkpt lat="45.85458716623456" lon="12.331385440906992"><ele>40.0</ele><time>2026-04-06T12:56:05Z</time></trkpt><trkpt lat="45.85485188674627" lon="12.331692985375359"><ele>39.5</ele><time>2026-04-06T12:56:06Z</time></trkpt><trkpt lat="45.85511378686157" lon="12.332006903507587"><ele>39.0</ele><time>2026-04-06T12:56:07Z</time></trkpt><trkpt lat="45.8553705012124" lon="12.332326562195776"><ele>39.0</ele><time>2026-04-06T12:56:08Z</time></trkpt><trkpt lat="45.85562389131102" lon="12.33265321104817"><ele>39.0</ele><time>2026-04-06T12:56:09Z</time></trkpt><trkpt lat="45.855872559585116" lon="12.332986489362497"><ele>39.0</ele><time>2026-04-06T12:56:10Z</time></trkpt><trkpt lat="45.856118805300085" lon="12.333328005187173"><ele>39.0</ele><time>2026-04-06T12:56:11Z</time></trkpt><trkpt lat="45.85635874936804" lon="12.333675890564987"><ele>38.5</ele><time>2026-04-06T12:56:12Z</time></trkpt><trkpt lat="45.856595336523114" lon="12.334031572662964"><ele>38.0</ele><time>2026-04-06T12:56:13Z</time></trkpt><trkpt lat="45.8568274659737" lon="12.334393161807856"><ele>39.0</ele><time>2026-04-06T12:56:14Z</time></trkpt><trkpt lat="45.85705517915554" lon="12.334757595002971"><ele>40.0</ele><time>2026-04-06T12:56:15Z</time></trkpt><trkpt lat="45.857281594506226" lon="12.335123488916116"><ele>40.0</ele><time>2026-04-06T12:56:16Z</time></trkpt><trkpt lat="45.85750334651109" lon="12.33549356163669"><ele>40.0</ele><time>2026-04-06T12:56:17Z</time></trkpt><trkpt lat="45.85772953918551" lon="12.335863732654785"><ele>39.0</ele><time>2026-04-06T12:56:18Z</time></trkpt><trkpt lat="45.8579496382918" lon="12.336238172065194"><ele>38.0</ele><time>2026-04-06T12:56:19Z</time></trkpt><trkpt lat="45.85817370926028" lon="12.336603465061994"><ele>38.0</ele><time>2026-04-06T12:56:20Z</time></trkpt><trkpt lat="45.85840228290425" lon="12.336966192323267"><ele>38.0</ele><time>2026-04-06T12:56:21Z</time></trkpt><trkpt lat="45.85863637003515" lon="12.337320185360458"><ele>39.0</ele><time>2026-04-06T12:56:22Z</time></trkpt><trkpt lat="45.85887932973509" lon="12.33765936760251"><ele>40.0</ele><time>2026-04-06T12:56:23Z</time></trkpt><trkpt lat="45.8591331285862" lon="12.337984435221301"><ele>40.0</ele><time>2026-04-06T12:56:24Z</time></trkpt><trkpt lat="45.859395797143016" lon="12.338297163733616"><ele>40.0</ele><time>2026-04-06T12:56:25Z</time></trkpt><trkpt lat="45.85966380039667" lon="12.33859836521517"><ele>40.0</ele><time>2026-04-06T12:56:26Z</time></trkpt><trkpt lat="45.85994326523173" lon="12.338882082129535"><ele>40.0</ele><time>2026-04-06T12:56:27Z</time></trkpt><trkpt lat="45.86023170268329" lon="12.339148239242661"><ele>39.0</ele><time>2026-04-06T12:56:28Z</time></trkpt><trkpt lat="45.8605254146043" lon="12.339400553694913"><ele>38.0</ele><time>2026-04-06T12:56:29Z</time></trkpt><trkpt lat="45.86082529708669" lon="12.339639231722494"><ele>38.5</ele><time>2026-04-06T12:56:30Z</time></trkpt><trkpt lat="45.861131457813094" lon="12.33986599075371"><ele>39.0</ele><time>2026-04-06T12:56:31Z</time></trkpt><trkpt lat="45.86144100950412" lon="12.340075040636075"><ele>39.0</ele><time>2026-04-06T12:56:32Z</time></trkpt><trkpt lat="45.86175738772247" lon="12.340264005014081"><ele>39.0</ele><time>2026-04-06T12:56:33Z</time></trkpt><trkpt lat="45.862075811225445" lon="12.34043601455322"><ele>39.0</ele><time>2026-04-06T12:56:34Z</time></trkpt><trkpt lat="45.8623996060547" lon="12.340589050495955"><ele>39.0</ele><time>2026-04-06T12:56:35Z</time></trkpt><trkpt lat="45.86272709854982" lon="12.340723824555095"><ele>39.0</ele><time>2026-04-06T12:56:36Z</time></trkpt><trkpt lat="45.86306293201179" lon="12.340841254061111"><ele>39.0</ele><time>2026-04-06T12:56:37Z</time></trkpt><trkpt lat="45.86339749469369" lon="12.340944804840374"><ele>39.5</ele><time>2026-04-06T12:56:38Z</time></trkpt><trkpt lat="45.86373618108432" lon="12.341035406941494"><ele>40.0</ele><time>2026-04-06T12:56:39Z</time></trkpt><trkpt lat="45.86407550438195" lon="12.341117097989427"><ele>39.5</ele><time>2026-04-06T12:56:40Z</time></trkpt><trkpt lat="45.86441562381954" lon="12.341195712545566"><ele>39.0</ele><time>2026-04-06T12:56:41Z</time></trkpt><trkpt lat="45.86475238282311" lon="12.341275107361833"><ele>39.0</ele><time>2026-04-06T12:56:42Z</time></trkpt><trkpt lat="45.86509044259278" lon="12.341357337145938"><ele>39.0</ele><time>2026-04-06T12:56:43Z</time></trkpt><trkpt lat="45.8654280478451" lon="12.34143807654568"><ele>39.5</ele><time>2026-04-06T12:56:44Z</time></trkpt><trkpt lat="45.865763871101564" lon="12.341519388503986"><ele>40.0</ele><time>2026-04-06T12:56:45Z</time></trkpt><trkpt lat="45.866099374360964" lon="12.34159958433877"><ele>40.0</ele><time>2026-04-06T12:56:46Z</time></trkpt><trkpt lat="45.86643801486552" lon="12.341679353833085"><ele>40.0</ele><time>2026-04-06T12:56:47Z</time></trkpt><trkpt lat="45.86677489339117" lon="12.341760017062354"><ele>39.5</ele><time>2026-04-06T12:56:48Z</time></trkpt><trkpt lat="45.867113075220715" lon="12.341841881130593"><ele>39.0</ele><time>2026-04-06T12:56:49Z</time></trkpt><trkpt lat="45.86745051806008" lon="12.34192329552712"><ele>40.5</ele><time>2026-04-06T12:56:50Z</time></trkpt><trkpt lat="45.86778726105577" lon="12.342004241135115"><ele>42.0</ele><time>2026-04-06T12:56:51Z</time></trkpt><trkpt lat="45.868123384247056" lon="12.34208458720429"><ele>40.5</ele><time>2026-04-06T12:56:52Z</time></trkpt><trkpt lat="45.868460452864056" lon="12.342165599455546"><ele>39.0</ele><time>2026-04-06T12:56:53Z</time></trkpt><trkpt lat="45.86879791388449" lon="12.34224674568499"><ele>39.0</ele><time>2026-04-06T12:56:54Z</time></trkpt><trkpt lat="45.869135772483446" lon="12.342326067399512"><ele>39.0</ele><time>2026-04-06T12:56:55Z</time></trkpt><trkpt lat="45.869472317952535" lon="12.342404764785087"><ele>39.0</ele><time>2026-04-06T12:56:56Z</time></trkpt><trkpt lat="45.86980913218526" lon="12.342485212227006"><ele>39.0</ele><time>2026-04-06T12:56:57Z</time></trkpt><trkpt lat="45.870145283405456" lon="12.342566550390368"><ele>39.5</ele><time>2026-04-06T12:56:58Z</time></trkpt><trkpt lat="45.870482250274115" lon="12.34264843914023"><ele>40.0</ele><time>2026-04-06T12:56:59Z</time></trkpt><trkpt lat="45.87081705861323" lon="12.34272957581859"><ele>40.0</ele><time>2026-04-06T12:57:00Z</time></trkpt><trkpt lat="45.87115446529808" lon="12.342811685772082"><ele>40.0</ele><time>2026-04-06T12:57:01Z</time></trkpt><trkpt lat="45.87149021235263" lon="12.34289367158268"><ele>41.0</ele><time>2026-04-06T12:57:02Z</time></trkpt><trkpt lat="45.87182749252317" lon="12.342974478263937"><ele>42.0</ele><time>2026-04-06T12:57:03Z</time></trkpt><trkpt lat="45.87216358841098" lon="12.343052257604844"><ele>42.5</ele><time>2026-04-06T12:57:04Z</time></trkpt><trkpt lat="45.87250058676988" lon="12.343128493366125"><ele>43.0</ele><time>2026-04-06T12:57:05Z</time></trkpt><trkpt lat="45.872837696289416" lon="12.343199683911383"><ele>42.5</ele><time>2026-04-06T12:57:06Z</time></trkpt><trkpt lat="45.873174674746345" lon="12.34326115689404"><ele>42.0</ele><time>2026-04-06T12:57:07Z</time></trkpt><trkpt lat="45.873513881312746" lon="12.343308126797716"><ele>42.0</ele><time>2026-04-06T12:57:08Z</time></trkpt><trkpt lat="45.87385337832343" lon="12.343337559175565"><ele>42.0</ele><time>2026-04-06T12:57:09Z</time></trkpt><trkpt lat="45.87419532303032" lon="12.343348383411831"><ele>41.5</ele><time>2026-04-06T12:57:10Z</time></trkpt><trkpt lat="45.87453639587435" lon="12.343351246961657"><ele>41.0</ele><time>2026-04-06T12:57:11Z</time></trkpt><trkpt lat="45.874878739760355" lon="12.343344102283831"><ele>41.5</ele><time>2026-04-06T12:57:12Z</time></trkpt><trkpt lat="45.87521746833423" lon="12.34333144116284"><ele>42.0</ele><time>2026-04-06T12:57:13Z</time></trkpt><trkpt lat="45.87555892411179" lon="12.34330650155338"><ele>42.0</ele><time>2026-04-06T12:57:14Z</time></trkpt><trkpt lat="45.87589951061224" lon="12.343267213855496"><ele>42.0</ele><time>2026-04-06T12:57:15Z</time></trkpt><trkpt lat="45.87623964448744" lon="12.343213720827048"><ele>42.0</ele><time>2026-04-06T12:57:16Z</time></trkpt><trkpt lat="45.87657904569331" lon="12.343147964435566"><ele>42.0</ele><time>2026-04-06T12:57:17Z</time></trkpt><trkpt lat="45.87691690625129" lon="12.3430701012058"><ele>42.5</ele><time>2026-04-06T12:57:18Z</time></trkpt><trkpt lat="45.87725100272591" lon="12.342968515386143"><ele>43.0</ele><time>2026-04-06T12:57:19Z</time></trkpt><trkpt lat="45.87758310934222" lon="12.342857764119458"><ele>42.0</ele><time>2026-04-06T12:57:20Z</time></trkpt><trkpt lat="45.877915130982316" lon="12.342745595135124"><ele>41.0</ele><time>2026-04-06T12:57:21Z</time></trkpt><trkpt lat="45.878247848266035" lon="12.342631405472183"><ele>42.5</ele><time>2026-04-06T12:57:22Z</time></trkpt><trkpt lat="45.878582129351784" lon="12.342519056333373"><ele>44.0</ele><time>2026-04-06T12:57:23Z</time></trkpt><trkpt lat="45.87891178170715" lon="12.342404326764958"><ele>44.0</ele><time>2026-04-06T12:57:24Z</time></trkpt><trkpt lat="45.879246661221885" lon="12.342288827304817"><ele>44.0</ele><time>2026-04-06T12:57:25Z</time></trkpt><trkpt lat="45.879578633101175" lon="12.34217915064996"><ele>43.5</ele><time>2026-04-06T12:57:26Z</time></trkpt><trkpt lat="45.87991111813949" lon="12.342070228821147"><ele>43.0</ele><time>2026-04-06T12:57:27Z</time></trkpt><trkpt lat="45.88024152106308" lon="12.34195933708498"><ele>44.5</ele><time>2026-04-06T12:57:28Z</time></trkpt><trkpt lat="45.880571583806464" lon="12.341853115831528"><ele>46.0</ele><time>2026-04-06T12:57:29Z</time></trkpt><trkpt lat="45.88090390082386" lon="12.341746487183677"><ele>44.5</ele><time>2026-04-06T12:57:30Z</time></trkpt><trkpt lat="45.881236346201895" lon="12.341638620852285"><ele>43.0</ele><time>2026-04-06T12:57:31Z</time></trkpt><trkpt lat="45.88156829002825" lon="12.341531648166018"><ele>43.0</ele><time>2026-04-06T12:57:32Z</time></trkpt><trkpt lat="45.88189932845809" lon="12.34143002587743"><ele>43.0</ele><time>2026-04-06T12:57:33Z</time></trkpt><trkpt lat="45.882230874578624" lon="12.341329442431896"><ele>43.5</ele><time>2026-04-06T12:57:34Z</time></trkpt><trkpt lat="45.882565780984905" lon="12.34123601255004"><ele>44.0</ele><time>2026-04-06T12:57:35Z</time></trkpt><trkpt lat="45.8829014232902" lon="12.341149622675315"><ele>45.0</ele><time>2026-04-06T12:57:36Z</time></trkpt><trkpt lat="45.883241119440875" lon="12.341071675310724"><ele>46.0</ele><time>2026-04-06T12:57:37Z</time></trkpt><trkpt lat="45.88358013626592" lon="12.341002871390376"><ele>46.0</ele><time>2026-04-06T12:57:38Z</time></trkpt><trkpt lat="45.8839157554775" lon="12.340946967850455"><ele>46.0</ele><time>2026-04-06T12:57:39Z</time></trkpt><trkpt lat="45.8842554443131" lon="12.34090004461991"><ele>47.5</ele><time>2026-04-06T12:57:40Z</time></trkpt><trkpt lat="45.88459553117592" lon="12.340865885660577"><ele>49.0</ele><time>2026-04-06T12:57:41Z</time></trkpt><trkpt lat="45.88493612424048" lon="12.34083682747046"><ele>50.0</ele><time>2026-04-06T12:57:42Z</time></trkpt><trkpt lat="45.88527827358008" lon="12.340817440302276"><ele>51.0</ele><time>2026-04-06T12:57:43Z</time></trkpt><trkpt lat="45.885618725677546" lon="12.340808320012894"><ele>50.0</ele><time>2026-04-06T12:57:44Z</time></trkpt><trkpt lat="45.885960009605554" lon="12.34080791956703"><ele>49.0</ele><time>2026-04-06T12:57:45Z</time></trkpt><trkpt lat="45.88630230053385" lon="12.34081663072226"><ele>49.0</ele><time>2026-04-06T12:57:46Z</time></trkpt><trkpt lat="45.886644489317874" lon="12.340838022421352"><ele>49.0</ele><time>2026-04-06T12:57:47Z</time></trkpt><trkpt lat="45.88698766655615" lon="12.340866339547446"><ele>48.5</ele><time>2026-04-06T12:57:48Z</time></trkpt><trkpt lat="45.88732889279247" lon="12.34090493515924"><ele>48.0</ele><time>2026-04-06T12:57:49Z</time></trkpt><trkpt lat="45.88766900808428" lon="12.340958152498537"><ele>49.0</ele><time>2026-04-06T12:57:50Z</time></trkpt><trkpt lat="45.88801119967143" lon="12.341014589562034"><ele>50.0</ele><time>2026-04-06T12:57:51Z</time></trkpt><trkpt lat="45.88835228540297" lon="12.341076755051198"><ele>49.5</ele><time>2026-04-06T12:57:52Z</time></trkpt><trkpt lat="45.88868999762794" lon="12.34114944809212"><ele>49.0</ele><time>2026-04-06T12:57:53Z</time></trkpt><trkpt lat="45.88902887822153" lon="12.341234628706907"><ele>49.0</ele><time>2026-04-06T12:57:54Z</time></trkpt><trkpt lat="45.88936709618587" lon="12.341329601832767"><ele>49.0</ele><time>2026-04-06T12:57:55Z</time></trkpt><trkpt lat="45.88970324283183" lon="12.341429765483218"><ele>49.0</ele><time>2026-04-06T12:57:56Z</time></trkpt><trkpt lat="45.890038607201994" lon="12.341535717321879"><ele>49.0</ele><time>2026-04-06T12:57:57Z</time></trkpt><trkpt lat="45.890375149905076" lon="12.341642488413553"><ele>48.5</ele><time>2026-04-06T12:57:58Z</time></trkpt><trkpt lat="45.89071146131125" lon="12.34174665832124"><ele>48.0</ele><time>2026-04-06T12:57:59Z</time></trkpt><trkpt lat="45.891046323650734" lon="12.341851082047754"><ele>48.0</ele><time>2026-04-06T12:58:00Z</time></trkpt><trkpt lat="45.891381062407675" lon="12.341954962492593"><ele>48.0</ele><time>2026-04-06T12:58:01Z</time></trkpt><trkpt lat="45.8917196161802" lon="12.342055394977526"><ele>49.5</ele><time>2026-04-06T12:58:02Z</time></trkpt><trkpt lat="45.89205420212247" lon="12.34215480290572"><ele>51.0</ele><time>2026-04-06T12:58:03Z</time></trkpt><trkpt lat="45.892388328218885" lon="12.34225662659841"><ele>51.0</ele><time>2026-04-06T12:58:04Z</time></trkpt><trkpt lat="45.89272183599173" lon="12.34236025321578"><ele>51.0</ele><time>2026-04-06T12:58:05Z</time></trkpt><trkpt lat="45.89305452468772" lon="12.342461835796584"><ele>51.0</ele><time>2026-04-06T12:58:06Z</time></trkpt><trkpt lat="45.89338770069214" lon="12.342562292994163"><ele>51.0</ele><time>2026-04-06T12:58:07Z</time></trkpt><trkpt lat="45.893719720064304" lon="12.342660931026215"><ele>51.5</ele><time>2026-04-06T12:58:08Z</time></trkpt><trkpt lat="45.894052209559305" lon="12.342760739362173"><ele>52.0</ele><time>2026-04-06T12:58:09Z</time></trkpt><trkpt lat="45.89438500382263" lon="12.342859849335223"><ele>52.0</ele><time>2026-04-06T12:58:10Z</time></trkpt><trkpt lat="45.89471866436156" lon="12.342960935606401"><ele>52.0</ele><time>2026-04-06T12:58:11Z</time></trkpt><trkpt lat="45.89505269309027" lon="12.343063509310577"><ele>53.0</ele><time>2026-04-06T12:58:12Z</time></trkpt><trkpt lat="45.89538517641593" lon="12.343166658289649"><ele>54.0</ele><time>2026-04-06T12:58:13Z</time></trkpt><trkpt lat="45.895718664110554" lon="12.343266994244328"><ele>55.0</ele><time>2026-04-06T12:58:14Z</time></trkpt><trkpt lat="45.89605113117534" lon="12.343365938978664"><ele>56.0</ele><time>2026-04-06T12:58:15Z</time></trkpt><trkpt lat="45.89638420684149" lon="12.343465344541748"><ele>56.0</ele><time>2026-04-06T12:58:16Z</time></trkpt><trkpt lat="45.896717755336184" lon="12.343567666012893"><ele>56.0</ele><time>2026-04-06T12:58:17Z</time></trkpt><trkpt lat="45.89705413288462" lon="12.343670319666781"><ele>56.0</ele><time>2026-04-06T12:58:18Z</time></trkpt><trkpt lat="45.897389116044685" lon="12.343772558031286"><ele>56.0</ele><time>2026-04-06T12:58:19Z</time></trkpt><trkpt lat="45.897724117152016" lon="12.343874321635127"><ele>56.5</ele><time>2026-04-06T12:58:20Z</time></trkpt><trkpt lat="45.89805856318483" lon="12.343974902114908"><ele>57.0</ele><time>2026-04-06T12:58:21Z</time></trkpt><trkpt lat="45.8983922965497" lon="12.344078464460438"><ele>57.5</ele><time>2026-04-06T12:58:22Z</time></trkpt><trkpt lat="45.89872706289628" lon="12.344179715172402"><ele>58.0</ele><time>2026-04-06T12:58:23Z</time></trkpt><trkpt lat="45.89906157384853" lon="12.344282417498274"><ele>57.5</ele><time>2026-04-06T12:58:24Z</time></trkpt><trkpt lat="45.899396874110224" lon="12.344383717453447"><ele>57.0</ele><time>2026-04-06T12:58:25Z</time></trkpt><trkpt lat="45.899733061282724" lon="12.344482888485109"><ele>57.0</ele><time>2026-04-06T12:58:26Z</time></trkpt><trkpt lat="45.90006783742555" lon="12.34458272644998"><ele>57.0</ele><time>2026-04-06T12:58:27Z</time></trkpt><trkpt lat="45.900402899634656" lon="12.344683675530897"><ele>57.0</ele><time>2026-04-06T12:58:28Z</time></trkpt><trkpt lat="45.90073651367218" lon="12.344787427327365"><ele>57.0</ele><time>2026-04-06T12:58:29Z</time></trkpt><trkpt lat="45.90106038679309" lon="12.34489006889124"><ele>57.0</ele><time>2026-04-06T12:58:30Z</time></trkpt><trkpt lat="45.9013776822354" lon="12.34499085565129"><ele>57.0</ele><time>2026-04-06T12:58:31Z</time></trkpt><trkpt lat="45.901694033583844" lon="12.345089509614455"><ele>59.0</ele><time>2026-04-06T12:58:32Z</time></trkpt><trkpt lat="45.90200208483329" lon="12.34516304600327"><ele>61.0</ele><time>2026-04-06T12:58:33Z</time></trkpt><trkpt lat="45.902307823401564" lon="12.345207802816718"><ele>60.5</ele><time>2026-04-06T12:58:34Z</time></trkpt><trkpt lat="45.902608080777355" lon="12.345224363883222"><ele>60.0</ele><time>2026-04-06T12:58:35Z</time></trkpt><trkpt lat="45.90290341356449" lon="12.345219402450999"><ele>60.0</ele><time>2026-04-06T12:58:36Z</time></trkpt><trkpt lat="45.903194249150474" lon="12.345197441962695"><ele>60.0</ele><time>2026-04-06T12:58:37Z</time></trkpt><trkpt lat="45.90348160457122" lon="12.34516269078932"><ele>58.0</ele><time>2026-04-06T12:58:38Z</time></trkpt><trkpt lat="45.9037637520125" lon="12.34511811958594"><ele>56.0</ele><time>2026-04-06T12:58:39Z</time></trkpt><trkpt lat="45.904041882549556" lon="12.34506047211771"><ele>56.0</ele><time>2026-04-06T12:58:40Z</time></trkpt><trkpt lat="45.90431967635529" lon="12.344983769699445"><ele>56.0</ele><time>2026-04-06T12:58:41Z</time></trkpt><trkpt lat="45.90459368335587" lon="12.344888680611051"><ele>56.0</ele><time>2026-04-06T12:58:42Z</time></trkpt><trkpt lat="45.90486590807263" lon="12.344777610332077"><ele>56.0</ele><time>2026-04-06T12:58:43Z</time></trkpt><trkpt lat="45.90513421330623" lon="12.344650911674513"><ele>56.0</ele><time>2026-04-06T12:58:44Z</time></trkpt><trkpt lat="45.90539898823626" lon="12.344507304163349"><ele>56.0</ele><time>2026-04-06T12:58:45Z</time></trkpt><trkpt lat="45.905655529000214" lon="12.344352337815346"><ele>56.0</ele><time>2026-04-06T12:58:46Z</time></trkpt><trkpt lat="45.90590426175664" lon="12.34418950822866"><ele>56.0</ele><time>2026-04-06T12:58:47Z</time></trkpt><trkpt lat="45.9061432448391" lon="12.344017187269536"><ele>58.0</ele><time>2026-04-06T12:58:48Z</time></trkpt><trkpt lat="45.90636838639572" lon="12.343834829458723"><ele>60.0</ele><time>2026-04-06T12:58:49Z</time></trkpt><trkpt lat="45.906577551434076" lon="12.343654089411164"><ele>59.0</ele><time>2026-04-06T12:58:50Z</time></trkpt><trkpt lat="45.90677833578697" lon="12.34346847329446"><ele>58.0</ele><time>2026-04-06T12:58:51Z</time></trkpt><trkpt lat="45.90696564595355" lon="12.34328510207568"><ele>58.0</ele><time>2026-04-06T12:58:52Z</time></trkpt><trkpt lat="45.907142041650815" lon="12.343106711946655"><ele>58.0</ele><time>2026-04-06T12:58:53Z</time></trkpt><trkpt lat="45.90729828611092" lon="12.342935095547073"><ele>58.0</ele><time>2026-04-06T12:58:54Z</time></trkpt><trkpt lat="45.90744193618814" lon="12.342777702366615"><ele>58.0</ele><time>2026-04-06T12:58:55Z</time></trkpt><trkpt lat="45.90756877498255" lon="12.342638209418917"><ele>58.0</ele><time>2026-04-06T12:58:56Z</time></trkpt><trkpt lat="45.90767790216997" lon="12.342517494565923"><ele>58.0</ele><time>2026-04-06T12:58:57Z</time></trkpt><trkpt lat="45.907767202060526" lon="12.342418999114193"><ele>58.0</ele><time>2026-04-06T12:58:58Z</time></trkpt><trkpt lat="45.90783715641076" lon="12.342346495737011"><ele>58.5</ele><time>2026-04-06T12:58:59Z</time></trkpt><trkpt lat="45.9078881124279" lon="12.342242243936038"><ele>59.0</ele><time>2026-04-06T12:59:01Z</time></trkpt><trkpt lat="45.90796827754684" lon="12.342124627217075"><ele>59.5</ele><time>2026-04-06T13:01:37Z</time></trkpt><trkpt lat="45.90805297603497" lon="12.342010763849446"><ele>60.0</ele><time>2026-04-06T13:01:39Z</time></trkpt><trkpt lat="45.90813798347177" lon="12.341863211032662"><ele>60.4</ele><time>2026-04-06T13:01:41Z</time></trkpt><trkpt lat="45.9082020126078" lon="12.341758243884968"><ele>60.8</ele><time>2026-04-06T13:01:42Z</time></trkpt><trkpt lat="45.90827613647268" lon="12.341639189039626"><ele>61.2</ele><time>2026-04-06T13:01:43Z</time></trkpt><trkpt lat="45.90834685961233" lon="12.341519007692797"><ele>61.6</ele><time>2026-04-06T13:01:44Z</time></trkpt><trkpt lat="45.90842146443856" lon="12.341375163058478"><ele>62.0</ele><time>2026-04-06T13:01:45Z</time></trkpt><trkpt lat="45.90850807678384" lon="12.34122231312456"><ele>62.0</ele><time>2026-04-06T13:01:46Z</time></trkpt><trkpt lat="45.908604481734216" lon="12.341056309906184"><ele>62.0</ele><time>2026-04-06T13:01:47Z</time></trkpt><trkpt lat="45.90870714419501" lon="12.340881153141595"><ele>62.0</ele><time>2026-04-06T13:01:48Z</time></trkpt><trkpt lat="45.908806052398496" lon="12.340711209223869"><ele>62.0</ele><time>2026-04-06T13:01:49Z</time></trkpt><trkpt lat="45.90890066331338" lon="12.340549605238559"><ele>62.0</ele><time>2026-04-06T13:01:50Z</time></trkpt><trkpt lat="45.909001334571556" lon="12.340373557874322"><ele>62.0</ele><time>2026-04-06T13:01:51Z</time></trkpt><trkpt lat="45.90910537228851" lon="12.340191116392614"><ele>62.0</ele><time>2026-04-06T13:01:52Z</time></trkpt><trkpt lat="45.909213374728914" lon="12.340003362093038"><ele>62.0</ele><time>2026-04-06T13:01:53Z</time></trkpt><trkpt lat="45.90932752351483" lon="12.339810266850238"><ele>62.0</ele><time>2026-04-06T13:01:54Z</time></trkpt><trkpt lat="45.909443578963405" lon="12.339612292679771"><ele>62.0</ele><time>2026-04-06T13:01:55Z</time></trkpt><trkpt lat="45.90956234350599" lon="12.339412228024235"><ele>62.0</ele><time>2026-04-06T13:01:56Z</time></trkpt><trkpt lat="45.90968482256315" lon="12.339212537300105"><ele>62.0</ele><time>2026-04-06T13:01:57Z</time></trkpt><trkpt lat="45.90981208179919" lon="12.339010432079148"><ele>62.66666666666667</ele><time>2026-04-06T13:01:58Z</time></trkpt><trkpt lat="45.909945076341344" lon="12.338811928036527"><ele>63.33333333333333</ele><time>2026-04-06T13:01:59Z</time></trkpt><trkpt lat="45.91008591149346" lon="12.338616312762257"><ele>64.0</ele><time>2026-04-06T13:02:00Z</time></trkpt><trkpt lat="45.91023010301076" lon="12.338416646271922"><ele>64.0</ele><time>2026-04-06T13:02:01Z</time></trkpt><trkpt lat="45.91037595395042" lon="12.338211004169798"><ele>64.0</ele><time>2026-04-06T13:02:02Z</time></trkpt><trkpt lat="45.91052653561496" lon="12.338000600664483"><ele>64.0</ele><time>2026-04-06T13:02:03Z</time></trkpt><trkpt lat="45.910683925202875" lon="12.337779028259689"><ele>64.0</ele><time>2026-04-06T13:02:04Z</time></trkpt><trkpt lat="45.910851399049946" lon="12.337554466242894"><ele>64.0</ele><time>2026-04-06T13:02:05Z</time></trkpt><trkpt lat="45.911027642899114" lon="12.337327802701488"><ele>65.5</ele><time>2026-04-06T13:02:06Z</time></trkpt><trkpt lat="45.911211512538934" lon="12.337101511276092"><ele>67.0</ele><time>2026-04-06T13:02:07Z</time></trkpt><trkpt lat="45.91140143453701" lon="12.336871309358777"><ele>67.0</ele><time>2026-04-06T13:02:08Z</time></trkpt><trkpt lat="45.91159703856883" lon="12.336640911325416"><ele>67.0</ele><time>2026-04-06T13:02:09Z</time></trkpt><trkpt lat="45.91179671815683" lon="12.336409399508021"><ele>67.0</ele><time>2026-04-06T13:02:10Z</time></trkpt><trkpt lat="45.9120021827487" lon="12.336178273899662"><ele>67.0</ele><time>2026-04-06T13:02:11Z</time></trkpt><trkpt lat="45.912215811976" lon="12.335951486255846"><ele>67.0</ele><time>2026-04-06T13:02:12Z</time></trkpt><trkpt lat="45.912434928378744" lon="12.335725790870585"><ele>67.0</ele><time>2026-04-06T13:02:13Z</time></trkpt><trkpt lat="45.912660170809644" lon="12.335498431053937"><ele>70.5</ele><time>2026-04-06T13:02:14Z</time></trkpt><trkpt lat="45.91289073629318" lon="12.33527401088181"><ele>74.0</ele><time>2026-04-06T13:02:15Z</time></trkpt><trkpt lat="45.91312587209812" lon="12.335054348606558"><ele>74.0</ele><time>2026-04-06T13:02:16Z</time></trkpt><trkpt lat="45.91336506996073" lon="12.334835277985494"><ele>74.0</ele><time>2026-04-06T13:02:17Z</time></trkpt><trkpt lat="45.91360560803924" lon="12.334621061790076"><ele>77.0</ele><time>2026-04-06T13:02:18Z</time></trkpt><trkpt lat="45.91384722196821" lon="12.334411009703926"><ele>80.0</ele><time>2026-04-06T13:02:19Z</time></trkpt><trkpt lat="45.91409157020982" lon="12.334199211003547"><ele>81.0</ele><time>2026-04-06T13:02:20Z</time></trkpt><trkpt lat="45.914334219925976" lon="12.333984782406862"><ele>82.0</ele><time>2026-04-06T13:02:21Z</time></trkpt><trkpt lat="45.91457713493228" lon="12.333766081592533"><ele>84.5</ele><time>2026-04-06T13:02:22Z</time></trkpt><trkpt lat="45.914819815279394" lon="12.333543229119714"><ele>87.0</ele><time>2026-04-06T13:02:23Z</time></trkpt><trkpt lat="45.915059649768835" lon="12.333311842182262"><ele>89.0</ele><time>2026-04-06T13:02:24Z</time></trkpt><trkpt lat="45.91530014430933" lon="12.333073231142878"><ele>91.0</ele><time>2026-04-06T13:02:25Z</time></trkpt><trkpt lat="45.91553758279655" lon="12.332826515855325"><ele>92.0</ele><time>2026-04-06T13:02:26Z</time></trkpt><trkpt lat="45.91577283750296" lon="12.332573477217508"><ele>93.0</ele><time>2026-04-06T13:02:27Z</time></trkpt><trkpt lat="45.91600583423866" lon="12.332314763412102"><ele>93.5</ele><time>2026-04-06T13:02:28Z</time></trkpt><trkpt lat="45.9162382750987" lon="12.332053050249153"><ele>94.0</ele><time>2026-04-06T13:02:29Z</time></trkpt><trkpt lat="45.91647372077171" lon="12.331779423282876"><ele>94.0</ele><time>2026-04-06T13:02:30Z</time></trkpt><trkpt lat="45.91671389993579" lon="12.331490831422942"><ele>94.0</ele><time>2026-04-06T13:02:31Z</time></trkpt><trkpt lat="45.91695978252503" lon="12.331189427628562"><ele>93.0</ele><time>2026-04-06T13:02:32Z</time></trkpt><trkpt lat="45.917206218703804" lon="12.33086870909469"><ele>92.0</ele><time>2026-04-06T13:02:33Z</time></trkpt><trkpt lat="45.917450520306616" lon="12.330541152335815"><ele>94.0</ele><time>2026-04-06T13:02:34Z</time></trkpt><trkpt lat="45.91769057309231" lon="12.330200368686642"><ele>96.0</ele><time>2026-04-06T13:02:34.999Z</time></trkpt><trkpt lat="45.91792668800353" lon="12.32984999281544"><ele>91.5</ele><time>2026-04-06T13:02:35.999Z</time></trkpt><trkpt lat="45.91815824072641" lon="12.329495335220336"><ele>87.0</ele><time>2026-04-06T13:02:36.999Z</time></trkpt><trkpt lat="45.91838805860712" lon="12.329135364361756"><ele>90.0</ele><time>2026-04-06T13:02:37.999Z</time></trkpt><trkpt lat="45.918613049041426" lon="12.328763474230007"><ele>93.0</ele><time>2026-04-06T13:02:38.999Z</time></trkpt><trkpt lat="45.918833699902514" lon="12.32838647349517"><ele>92.0</ele><time>2026-04-06T13:02:39.999Z</time></trkpt><trkpt lat="45.9190496764132" lon="12.328002528598873"><ele>91.0</ele><time>2026-04-06T13:02:40.999Z</time></trkpt><trkpt lat="45.91925907764746" lon="12.327613285985791"><ele>88.0</ele><time>2026-04-06T13:02:41.999Z</time></trkpt><trkpt lat="45.91945933199442" lon="12.327215755010004"><ele>85.0</ele><time>2026-04-06T13:02:42.999Z</time></trkpt><trkpt lat="45.91966345432674" lon="12.326816136564004"><ele>85.0</ele><time>2026-04-06T13:02:43.999Z</time></trkpt><trkpt lat="45.919860519572815" lon="12.32641225502878"><ele>85.0</ele><time>2026-04-06T13:02:44.999Z</time></trkpt><trkpt lat="45.92005178926731" lon="12.326004242309745"><ele>82.0</ele><time>2026-04-06T13:02:45.999Z</time></trkpt><trkpt lat="45.92023489780008" lon="12.325591120186457"><ele>79.0</ele><time>2026-04-06T13:02:47Z</time></trkpt><trkpt lat="45.92041437701068" lon="12.325175029179354"><ele>77.5</ele><time>2026-04-06T13:02:48Z</time></trkpt><trkpt lat="45.920588444698836" lon="12.324753738290061"><ele>76.0</ele><time>2026-04-06T13:02:49Z</time></trkpt><trkpt lat="45.92075572325136" lon="12.32432774021773"><ele>76.5</ele><time>2026-04-06T13:02:50Z</time></trkpt><trkpt lat="45.920918234175346" lon="12.323896456388905"><ele>77.0</ele><time>2026-04-06T13:02:51Z</time></trkpt><trkpt lat="45.921074540472326" lon="12.323463364154499"><ele>77.0</ele><time>2026-04-06T13:02:52Z</time></trkpt><trkpt lat="45.92122175382132" lon="12.323024991619173"><ele>77.0</ele><time>2026-04-06T13:02:53Z</time></trkpt><trkpt lat="45.921363622966766" lon="12.322583095950248"><ele>78.0</ele><time>2026-04-06T13:02:54Z</time></trkpt><trkpt lat="45.9215038622424" lon="12.322140038684902"><ele>79.0</ele><time>2026-04-06T13:02:55Z</time></trkpt><trkpt lat="45.92163876781551" lon="12.321693479066088"><ele>79.5</ele><time>2026-04-06T13:02:56Z</time></trkpt><trkpt lat="45.92176570573962" lon="12.321239754661882"><ele>80.0</ele><time>2026-04-06T13:02:57Z</time></trkpt><trkpt lat="45.92188261135925" lon="12.320778616713673"><ele>80.0</ele><time>2026-04-06T13:02:58Z</time></trkpt><trkpt lat="45.92199285512191" lon="12.32031512247302"><ele>80.0</ele><time>2026-04-06T13:02:59Z</time></trkpt><trkpt lat="45.922100340488925" lon="12.319848712866238"><ele>80.5</ele><time>2026-04-06T13:03:00Z</time></trkpt><trkpt lat="45.922206992919534" lon="12.319381664707736"><ele>81.0</ele><time>2026-04-06T13:03:01Z</time></trkpt><trkpt lat="45.922320024928695" lon="12.318913936188345"><ele>81.0</ele><time>2026-04-06T13:03:02Z</time></trkpt><trkpt lat="45.92243429637957" lon="12.31845365991556"><ele>81.0</ele><time>2026-04-06T13:03:03Z</time></trkpt><trkpt lat="45.92254896868097" lon="12.318008686860574"><ele>80.0</ele><time>2026-04-06T13:03:04Z</time></trkpt><trkpt lat="45.92266893466819" lon="12.317579423982755"><ele>79.0</ele><time>2026-04-06T13:03:05Z</time></trkpt><trkpt lat="45.92280418110735" lon="12.317167302873038"><ele>79.0</ele><time>2026-04-06T13:03:06Z</time></trkpt><trkpt lat="45.922959442741636" lon="12.316766592097407"><ele>79.0</ele><time>2026-04-06T13:03:07Z</time></trkpt><trkpt lat="45.923135079693104" lon="12.316375704097464"><ele>79.5</ele><time>2026-04-06T13:03:08Z</time></trkpt><trkpt lat="45.92332724369317" lon="12.3159957500807"><ele>80.0</ele><time>2026-04-06T13:03:09Z</time></trkpt><trkpt lat="45.92353495983234" lon="12.315627793494732"><ele>80.5</ele><time>2026-04-06T13:03:10Z</time></trkpt><trkpt lat="45.92375960573823" lon="12.31527647533944"><ele>81.0</ele><time>2026-04-06T13:03:11Z</time></trkpt><trkpt lat="45.924000834044335" lon="12.3149440751229"><ele>81.5</ele><time>2026-04-06T13:03:12Z</time></trkpt><trkpt lat="45.92425785526239" lon="12.31463345709568"><ele>82.0</ele><time>2026-04-06T13:03:13Z</time></trkpt><trkpt lat="45.92452921789391" lon="12.314348804300442"><ele>82.0</ele><time>2026-04-06T13:03:14Z</time></trkpt><trkpt lat="45.92481399063809" lon="12.314086787235903"><ele>82.0</ele><time>2026-04-06T13:03:15Z</time></trkpt><trkpt lat="45.925104449452576" lon="12.313847366045598"><ele>82.5</ele><time>2026-04-06T13:03:16Z</time></trkpt><trkpt lat="45.92539814709725" lon="12.313638492478937"><ele>83.0</ele><time>2026-04-06T13:03:17Z</time></trkpt><trkpt lat="45.92569817044513" lon="12.313463678577355"><ele>83.0</ele><time>2026-04-06T13:03:18Z</time></trkpt><trkpt lat="45.926004528626535" lon="12.31332053250177"><ele>83.0</ele><time>2026-04-06T13:03:19Z</time></trkpt><trkpt lat="45.92631862285062" lon="12.313206634605558"><ele>83.0</ele><time>2026-04-06T13:03:20Z</time></trkpt><trkpt lat="45.92663501609287" lon="12.313117520163807"><ele>83.0</ele><time>2026-04-06T13:03:21Z</time></trkpt><trkpt lat="45.92694942626847" lon="12.313050677636197"><ele>84.0</ele><time>2026-04-06T13:03:22Z</time></trkpt><trkpt lat="45.92726656992983" lon="12.313011372076474"><ele>85.0</ele><time>2026-04-06T13:03:23Z</time></trkpt><trkpt lat="45.927587589085" lon="12.312990310683249"><ele>85.0</ele><time>2026-04-06T13:03:24Z</time></trkpt><trkpt lat="45.92791267560506" lon="12.31298178056606"><ele>85.0</ele><time>2026-04-06T13:03:25Z</time></trkpt><trkpt lat="45.928240928374656" lon="12.312979931329812"><ele>86.0</ele><time>2026-04-06T13:03:26Z</time></trkpt><trkpt lat="45.9285678802826" lon="12.312987937385735"><ele>87.0</ele><time>2026-04-06T13:03:27Z</time></trkpt><trkpt lat="45.928899407097546" lon="12.312997429749338"><ele>86.5</ele><time>2026-04-06T13:03:28Z</time></trkpt><trkpt lat="45.92923236048716" lon="12.3130057000335"><ele>86.0</ele><time>2026-04-06T13:03:29Z</time></trkpt><trkpt lat="45.92956572615322" lon="12.313011190875145"><ele>86.0</ele><time>2026-04-06T13:03:30Z</time></trkpt><trkpt lat="45.92989783217238" lon="12.313019592586059"><ele>86.0</ele><time>2026-04-06T13:03:31Z</time></trkpt><trkpt lat="45.93022863942977" lon="12.313030526380404"><ele>86.5</ele><time>2026-04-06T13:03:32Z</time></trkpt><trkpt lat="45.930559824942414" lon="12.313041727139028"><ele>87.0</ele><time>2026-04-06T13:03:33Z</time></trkpt><trkpt lat="45.930889670541504" lon="12.313051271511164"><ele>88.0</ele><time>2026-04-06T13:03:34Z</time></trkpt><trkpt lat="45.93122004121347" lon="12.31306072672973"><ele>89.0</ele><time>2026-04-06T13:03:35Z</time></trkpt><trkpt lat="45.931553631671186" lon="12.313069488477856"><ele>89.0</ele><time>2026-04-06T13:03:36Z</time></trkpt><trkpt lat="45.93188483286102" lon="12.313078794483998"><ele>89.0</ele><time>2026-04-06T13:03:37Z</time></trkpt><trkpt lat="45.93221139204457" lon="12.313088028851924"><ele>89.0</ele><time>2026-04-06T13:03:38Z</time></trkpt><trkpt lat="45.932532458956906" lon="12.313096531170943"><ele>89.0</ele><time>2026-04-06T13:03:39Z</time></trkpt><trkpt lat="45.93285273883596" lon="12.313102031389926"><ele>89.5</ele><time>2026-04-06T13:03:40Z</time></trkpt><trkpt lat="45.93316682173547" lon="12.313092167444415"><ele>90.0</ele><time>2026-04-06T13:03:41Z</time></trkpt><trkpt lat="45.93347684141108" lon="12.313064697970574"><ele>90.0</ele><time>2026-04-06T13:03:42Z</time></trkpt><trkpt lat="45.933785265031354" lon="12.313011984040848"><ele>90.0</ele><time>2026-04-06T13:03:43Z</time></trkpt><trkpt lat="45.934096379957474" lon="12.31293545769448"><ele>89.0</ele><time>2026-04-06T13:03:44Z</time></trkpt><trkpt lat="45.93440814985776" lon="12.3128308807271"><ele>88.0</ele><time>2026-04-06T13:03:45Z</time></trkpt><trkpt lat="45.9347162457096" lon="12.312699699120836"><ele>88.0</ele><time>2026-04-06T13:03:46Z</time></trkpt><trkpt lat="45.935021190064454" lon="12.312540598021494"><ele>88.0</ele><time>2026-04-06T13:03:47Z</time></trkpt><trkpt lat="45.9353193011781" lon="12.312355984571914"><ele>88.5</ele><time>2026-04-06T13:03:48Z</time></trkpt><trkpt lat="45.93561395604312" lon="12.312144292929169"><ele>89.0</ele><time>2026-04-06T13:03:49Z</time></trkpt><trkpt lat="45.93590071940405" lon="12.31190877200898"><ele>89.0</ele><time>2026-04-06T13:03:50Z</time></trkpt><trkpt lat="45.93618109324849" lon="12.311649066382916"><ele>89.0</ele><time>2026-04-06T13:03:51Z</time></trkpt><trkpt lat="45.936454356126575" lon="12.311373438537368"><ele>88.5</ele><time>2026-04-06T13:03:52Z</time></trkpt><trkpt lat="45.93672190733105" lon="12.311084420206425"><ele>88.0</ele><time>2026-04-06T13:03:53Z</time></trkpt><trkpt lat="45.93698773359191" lon="12.310790801126853"><ele>89.5</ele><time>2026-04-06T13:03:54Z</time></trkpt><trkpt lat="45.937251406014006" lon="12.310495653115945"><ele>91.0</ele><time>2026-04-06T13:03:55Z</time></trkpt><trkpt lat="45.93751469785792" lon="12.310200470694499"><ele>90.5</ele><time>2026-04-06T13:03:56Z</time></trkpt><trkpt lat="45.93777690006437" lon="12.309900203319584"><ele>90.0</ele><time>2026-04-06T13:03:57Z</time></trkpt><trkpt lat="45.93803591379167" lon="12.309598145183404"><ele>90.0</ele><time>2026-04-06T13:03:58Z</time></trkpt><trkpt lat="45.938293128069084" lon="12.309289321447176"><ele>90.0</ele><time>2026-04-06T13:03:59Z</time></trkpt><trkpt lat="45.93854792881787" lon="12.308973394435057"><ele>91.5</ele><time>2026-04-06T13:04:00Z</time></trkpt><trkpt lat="45.93879631324993" lon="12.308650774018945"><ele>93.0</ele><time>2026-04-06T13:04:01Z</time></trkpt><trkpt lat="45.93904148707928" lon="12.308322662367377"><ele>93.5</ele><time>2026-04-06T13:04:02Z</time></trkpt><trkpt lat="45.93928593096552" lon="12.307995987088017"><ele>94.0</ele><time>2026-04-06T13:04:03Z</time></trkpt><trkpt lat="45.9395297634603" lon="12.307667383350156"><ele>94.0</ele><time>2026-04-06T13:04:04Z</time></trkpt><trkpt lat="45.93976886198269" lon="12.30733057675624"><ele>94.0</ele><time>2026-04-06T13:04:05Z</time></trkpt><trkpt lat="45.94000679734241" lon="12.306989028080878"><ele>94.0</ele><time>2026-04-06T13:04:06Z</time></trkpt><trkpt lat="45.94024526931445" lon="12.30664362822231"><ele>94.0</ele><time>2026-04-06T13:04:07Z</time></trkpt><trkpt lat="45.94047892570378" lon="12.306291995913481"><ele>94.0</ele><time>2026-04-06T13:04:08Z</time></trkpt><trkpt lat="45.94071246792516" lon="12.305939290134928"><ele>94.0</ele><time>2026-04-06T13:04:09Z</time></trkpt><trkpt lat="45.9409475655216" lon="12.305586427645691"><ele>97.0</ele><time>2026-04-06T13:04:10Z</time></trkpt><trkpt lat="45.94118463172699" lon="12.305235380058201"><ele>100.0</ele><time>2026-04-06T13:04:11Z</time></trkpt><trkpt lat="45.941422993747835" lon="12.304887733765261"><ele>99.0</ele><time>2026-04-06T13:04:12Z</time></trkpt><trkpt lat="45.94165951247714" lon="12.304542646097312"><ele>98.0</ele><time>2026-04-06T13:04:13Z</time></trkpt><trkpt lat="45.9418957014737" lon="12.304201008390907"><ele>99.5</ele><time>2026-04-06T13:04:14Z</time></trkpt><trkpt lat="45.942130070918616" lon="12.30386227729215"><ele>101.0</ele><time>2026-04-06T13:04:15Z</time></trkpt><trkpt lat="45.94236293569354" lon="12.30352957544738"><ele>101.0</ele><time>2026-04-06T13:04:16Z</time></trkpt><trkpt lat="45.942601783401514" lon="12.303209714081257"><ele>101.0</ele><time>2026-04-06T13:04:17Z</time></trkpt><trkpt lat="45.942847936832536" lon="12.302901073656127"><ele>102.0</ele><time>2026-04-06T13:04:18Z</time></trkpt><trkpt lat="45.94309841451488" lon="12.302593969685354"><ele>103.0</ele><time>2026-04-06T13:04:19Z</time></trkpt><trkpt lat="45.943352852027864" lon="12.302292681560857"><ele>104.0</ele><time>2026-04-06T13:04:20Z</time></trkpt><trkpt lat="45.943615782593284" lon="12.301999489608386"><ele>105.0</ele><time>2026-04-06T13:04:21Z</time></trkpt><trkpt lat="45.94388586111422" lon="12.301709134968654"><ele>105.0</ele><time>2026-04-06T13:04:22Z</time></trkpt><trkpt lat="45.94416176359794" lon="12.301426518611025"><ele>105.0</ele><time>2026-04-06T13:04:23Z</time></trkpt><trkpt lat="45.94444516161001" lon="12.301153010619185"><ele>104.0</ele><time>2026-04-06T13:04:24Z</time></trkpt><trkpt lat="45.944735450807876" lon="12.30089065227844"><ele>103.0</ele><time>2026-04-06T13:04:25Z</time></trkpt><trkpt lat="45.9450338336523" lon="12.300638970902215"><ele>103.5</ele><time>2026-04-06T13:04:26Z</time></trkpt><trkpt lat="45.945337592984025" lon="12.300401293866724"><ele>104.0</ele><time>2026-04-06T13:04:27Z</time></trkpt><trkpt lat="45.94564680255586" lon="12.300176953676502"><ele>103.5</ele><time>2026-04-06T13:04:28Z</time></trkpt><trkpt lat="45.94595729231747" lon="12.299960148587177"><ele>103.0</ele><time>2026-04-06T13:04:29Z</time></trkpt><trkpt lat="45.94627106496493" lon="12.299751325638843"><ele>104.0</ele><time>2026-04-06T13:04:30Z</time></trkpt><trkpt lat="45.94658708887633" lon="12.299548209656992"><ele>105.0</ele><time>2026-04-06T13:04:31Z</time></trkpt><trkpt lat="45.9469040097241" lon="12.29935324478683"><ele>105.0</ele><time>2026-04-06T13:04:32Z</time></trkpt><trkpt lat="45.94722185072372" lon="12.299165738096109"><ele>105.0</ele><time>2026-04-06T13:04:33Z</time></trkpt><trkpt lat="45.94754150218878" lon="12.298980904640109"><ele>106.5</ele><time>2026-04-06T13:04:34Z</time></trkpt><trkpt lat="45.94785759513233" lon="12.298799913085428"><ele>108.0</ele><time>2026-04-06T13:04:35Z</time></trkpt><trkpt lat="45.94816715480589" lon="12.298616560055567"><ele>108.5</ele><time>2026-04-06T13:04:36Z</time></trkpt><trkpt lat="45.94847077054195" lon="12.298424269671465"><ele>109.0</ele><time>2026-04-06T13:04:37Z</time></trkpt><trkpt lat="45.94876697392795" lon="12.298213797333592"><ele>108.0</ele><time>2026-04-06T13:04:38Z</time></trkpt><trkpt lat="45.94905998218987" lon="12.29798852782132"><ele>107.0</ele><time>2026-04-06T13:04:39Z</time></trkpt><trkpt lat="45.94934818962253" lon="12.297749194135479"><ele>107.0</ele><time>2026-04-06T13:04:40Z</time></trkpt><trkpt lat="45.94963133293491" lon="12.297497520436037"><ele>107.0</ele><time>2026-04-06T13:04:41Z</time></trkpt><trkpt lat="45.94990850977705" lon="12.297228679957563"><ele>108.5</ele><time>2026-04-06T13:04:42Z</time></trkpt><trkpt lat="45.950178840282554" lon="12.296941426219696"><ele>110.0</ele><time>2026-04-06T13:04:43Z</time></trkpt><trkpt lat="45.95044362904056" lon="12.29664005257885"><ele>110.0</ele><time>2026-04-06T13:04:44Z</time></trkpt><trkpt lat="45.950702000364515" lon="12.296328169270646"><ele>110.0</ele><time>2026-04-06T13:04:45Z</time></trkpt><trkpt lat="45.950957291899925" lon="12.296013844904614"><ele>110.0</ele><time>2026-04-06T13:04:46Z</time></trkpt><trkpt lat="45.95121422715816" lon="12.295699592081718"><ele>110.0</ele><time>2026-04-06T13:04:47Z</time></trkpt><trkpt lat="45.95147382366614" lon="12.295389519539249"><ele>110.5</ele><time>2026-04-06T13:04:48Z</time></trkpt><trkpt lat="45.951736517290634" lon="12.295083844721725"><ele>111.0</ele><time>2026-04-06T13:04:49Z</time></trkpt><trkpt lat="45.95200303207263" lon="12.294784478193076"><ele>115.0</ele><time>2026-04-06T13:04:50Z</time></trkpt><trkpt lat="45.95227461522961" lon="12.294495165051488"><ele>119.0</ele><time>2026-04-06T13:04:51Z</time></trkpt><trkpt lat="45.95255917085788" lon="12.294226396833439"><ele>119.0</ele><time>2026-04-06T13:04:52Z</time></trkpt><trkpt lat="45.95284725715915" lon="12.293969265002266"><ele>119.0</ele><time>2026-04-06T13:04:53Z</time></trkpt><trkpt lat="45.95313953162244" lon="12.29373047731176"><ele>124.0</ele><time>2026-04-06T13:04:54Z</time></trkpt><trkpt lat="45.953434021407155" lon="12.293510724506318"><ele>129.0</ele><time>2026-04-06T13:04:55Z</time></trkpt><trkpt lat="45.95372234257003" lon="12.293311586615474"><ele>129.0</ele><time>2026-04-06T13:04:56Z</time></trkpt><trkpt lat="45.95401377004651" lon="12.293134192072845"><ele>129.0</ele><time>2026-04-06T13:04:57Z</time></trkpt><trkpt lat="45.954299616368445" lon="12.292976135600028"><ele>134.0</ele><time>2026-04-06T13:04:58Z</time></trkpt><trkpt lat="45.9545796365401" lon="12.292834767519372"><ele>139.0</ele><time>2026-04-06T13:04:59Z</time></trkpt><trkpt lat="45.95485800670908" lon="12.292695568033025"><ele>138.5</ele><time>2026-04-06T13:05:00Z</time></trkpt><trkpt lat="45.95513579107994" lon="12.292554619988096"><ele>138.0</ele><time>2026-04-06T13:05:01Z</time></trkpt><trkpt lat="45.95541714597646" lon="12.292417989920708"><ele>138.0</ele><time>2026-04-06T13:05:02Z</time></trkpt><trkpt lat="45.955699839546014" lon="12.29227945040534"><ele>138.0</ele><time>2026-04-06T13:05:03Z</time></trkpt><trkpt lat="45.955984684582674" lon="12.292136994556655"><ele>142.5</ele><time>2026-04-06T13:05:04Z</time></trkpt><trkpt lat="45.95626551027021" lon="12.291993298104773"><ele>147.0</ele><time>2026-04-06T13:05:05Z</time></trkpt><trkpt lat="45.95654080792163" lon="12.291857869812429"><ele>146.0</ele><time>2026-04-06T13:05:06Z</time></trkpt><trkpt lat="45.95681182796665" lon="12.29173173354174"><ele>145.0</ele><time>2026-04-06T13:05:07Z</time></trkpt><trkpt lat="45.95707509636338" lon="12.291611048814577"><ele>145.0</ele><time>2026-04-06T13:05:08Z</time></trkpt><trkpt lat="45.95732713556312" lon="12.291476904250953"><ele>145.0</ele><time>2026-04-06T13:05:09Z</time></trkpt><trkpt lat="45.957567259015185" lon="12.291324585477934"><ele>148.5</ele><time>2026-04-06T13:05:10Z</time></trkpt><trkpt lat="45.957798627750506" lon="12.291153799363014"><ele>152.0</ele><time>2026-04-06T13:05:11Z</time></trkpt><trkpt lat="45.95802732146294" lon="12.290965572475093"><ele>152.0</ele><time>2026-04-06T13:05:12Z</time></trkpt><trkpt lat="45.95825223122052" lon="12.290766966137246"><ele>152.0</ele><time>2026-04-06T13:05:13Z</time></trkpt><trkpt lat="45.958470714029836" lon="12.290560849603004"><ele>151.5</ele><time>2026-04-06T13:05:14Z</time></trkpt><trkpt lat="45.95868494049824" lon="12.290355102403428"><ele>151.0</ele><time>2026-04-06T13:05:15Z</time></trkpt><trkpt lat="45.958896675698405" lon="12.290149923203055"><ele>151.0</ele><time>2026-04-06T13:05:16Z</time></trkpt><trkpt lat="45.95910083204197" lon="12.289947668497692"><ele>151.0</ele><time>2026-04-06T13:05:17Z</time></trkpt><trkpt lat="45.95930229912862" lon="12.289754934351205"><ele>151.5</ele><time>2026-04-06T13:05:18Z</time></trkpt><trkpt lat="45.95949836842436" lon="12.289570197022833"><ele>152.0</ele><time>2026-04-06T13:05:19Z</time></trkpt><trkpt lat="45.959682546204995" lon="12.289388964353519"><ele>152.0</ele><time>2026-04-06T13:05:20Z</time></trkpt><trkpt lat="45.95986106263981" lon="12.289214857028709"><ele>152.0</ele><time>2026-04-06T13:05:21Z</time></trkpt><trkpt lat="45.96003019669086" lon="12.289046581740623"><ele>152.0</ele><time>2026-04-06T13:05:22Z</time></trkpt><trkpt lat="45.960194031287486" lon="12.28888952462679"><ele>153.66666666666666</ele><time>2026-04-06T13:05:23Z</time></trkpt><trkpt lat="45.96035451632899" lon="12.288731239809794"><ele>155.33333333333334</ele><time>2026-04-06T13:05:24Z</time></trkpt><trkpt lat="45.96051252027358" lon="12.288575938004705"><ele>157.0</ele><time>2026-04-06T13:05:25Z</time></trkpt><trkpt lat="45.96066700874258" lon="12.288423313613345"><ele>157.0</ele><time>2026-04-06T13:05:26Z</time></trkpt><trkpt lat="45.96082006715314" lon="12.288271272001836"><ele>157.0</ele><time>2026-04-06T13:05:27Z</time></trkpt><trkpt lat="45.960969166467805" lon="12.288126542037796"><ele>157.0</ele><time>2026-04-06T13:05:28Z</time></trkpt><trkpt lat="45.961118380863134" lon="12.28799656923525"><ele>155.33333333333334</ele><time>2026-04-06T13:05:29Z</time></trkpt><trkpt lat="45.96126819514201" lon="12.287886922958936"><ele>153.66666666666666</ele><time>2026-04-06T13:05:30Z</time></trkpt><trkpt lat="45.96141841092045" lon="12.287790567597183"><ele>152.0</ele><time>2026-04-06T13:05:31Z</time></trkpt><trkpt lat="45.96156436388247" lon="12.287700106580852"><ele>150.0</ele><time>2026-04-06T13:05:32Z</time></trkpt><trkpt lat="45.96170887861739" lon="12.287618466709695"><ele>148.0</ele><time>2026-04-06T13:05:33Z</time></trkpt><trkpt lat="45.96185177046546" lon="12.287543294196242"><ele>146.0</ele><time>2026-04-06T13:05:34Z</time></trkpt><trkpt lat="45.961993347033705" lon="12.287471036594889"><ele>146.0</ele><time>2026-04-06T13:05:35Z</time></trkpt><trkpt lat="45.96213833226711" lon="12.287408933196808"><ele>146.0</ele><time>2026-04-06T13:05:36Z</time></trkpt><trkpt lat="45.96229333776801" lon="12.287361328245385"><ele>146.0</ele><time>2026-04-06T13:05:37Z</time></trkpt><trkpt lat="45.96245805859695" lon="12.287329364621954"><ele>143.66666666666666</ele><time>2026-04-06T13:05:38Z</time></trkpt><trkpt lat="45.96262856169728" lon="12.287308570756899"><ele>141.33333333333334</ele><time>2026-04-06T13:05:39Z</time></trkpt><trkpt lat="45.96280316122058" lon="12.287300560400872"><ele>139.0</ele><time>2026-04-06T13:05:40Z</time></trkpt><trkpt lat="45.96297434041657" lon="12.2873124208874"><ele>139.0</ele><time>2026-04-06T13:05:41Z</time></trkpt><trkpt lat="45.96314060776996" lon="12.287342755535889"><ele>139.0</ele><time>2026-04-06T13:05:42Z</time></trkpt><trkpt lat="45.963301342660856" lon="12.287394938512895"><ele>139.0</ele><time>2026-04-06T13:05:43Z</time></trkpt><trkpt lat="45.963448732520746" lon="12.287460863384592"><ele>137.75</ele><time>2026-04-06T13:05:44Z</time></trkpt><trkpt lat="45.96358462738026" lon="12.287546947423976"><ele>136.5</ele><time>2026-04-06T13:05:45Z</time></trkpt><trkpt lat="45.96370162984604" lon="12.287649807993178"><ele>135.25</ele><time>2026-04-06T13:05:46Z</time></trkpt><trkpt lat="45.96379193151617" lon="12.287774934267116"><ele>134.0</ele><time>2026-04-06T13:05:47Z</time></trkpt><trkpt lat="45.96386197090615" lon="12.28790970707861"><ele>134.0</ele><time>2026-04-06T13:05:48Z</time></trkpt><trkpt lat="45.96391796268345" lon="12.288043391124534"><ele>134.0</ele><time>2026-04-06T13:05:49Z</time></trkpt><trkpt lat="45.9639697732952" lon="12.288159955455818"><ele>134.0</ele><time>2026-04-06T13:05:50Z</time></trkpt><trkpt lat="45.96401689173275" lon="12.288248918035386"><ele>134.0</ele><time>2026-04-06T13:05:51Z</time></trkpt><trkpt lat="45.96406018102167" lon="12.288322166936783"><ele>134.0</ele><time>2026-04-06T13:05:52Z</time></trkpt><trkpt lat="45.964187888069254" lon="12.288281798638232"><ele>133.8</ele><time>2026-04-06T13:05:53Z</time></trkpt><trkpt lat="45.9642634449435" lon="12.288396509128795"><ele>133.60000000000002</ele><time>2026-04-06T13:05:55Z</time></trkpt><trkpt lat="45.96432662060472" lon="12.288491760016614"><ele>133.4</ele><time>2026-04-06T13:05:57Z</time></trkpt><trkpt lat="45.96438433950313" lon="12.288577566628852"><ele>133.20000000000002</ele><time>2026-04-06T13:05:59Z</time></trkpt><trkpt lat="45.96445093382942" lon="12.288675332541054"><ele>133.0</ele><time>2026-04-06T13:06:01Z</time></trkpt><trkpt lat="45.96453774000736" lon="12.288800071219507"><ele>133.0</ele><time>2026-04-06T13:06:03Z</time></trkpt><trkpt lat="45.964593944020315" lon="12.28887968639211"><ele>133.0</ele><time>2026-04-06T13:06:04Z</time></trkpt><trkpt lat="45.964650331851566" lon="12.288959630225673"><ele>133.0</ele><time>2026-04-06T13:06:05Z</time></trkpt><trkpt lat="45.96470649363241" lon="12.28903925558244"><ele>133.0</ele><time>2026-04-06T13:06:06Z</time></trkpt><trkpt lat="45.96472121693452" lon="12.289177255215371"><ele>133.0</ele><time>2026-04-06T13:06:07Z</time></trkpt><trkpt lat="45.96475320618073" lon="12.289279583284397"><ele>133.0</ele><time>2026-04-06T13:06:08Z</time></trkpt><trkpt lat="45.96476164094351" lon="12.289394248340594"><ele>133.0</ele><time>2026-04-06T13:06:09Z</time></trkpt><trkpt lat="45.96477867884654" lon="12.28950438259768"><ele>133.0</ele><time>2026-04-06T13:06:10Z</time></trkpt><trkpt lat="45.964823052376595" lon="12.289587305570757"><ele>133.0</ele><time>2026-04-06T13:06:11Z</time></trkpt><trkpt lat="45.96489212568381" lon="12.289628761942899"><ele>133.0</ele><time>2026-04-06T13:06:12Z</time></trkpt><trkpt lat="45.964971552037795" lon="12.289619494115748"><ele>133.0</ele><time>2026-04-06T13:06:13Z</time></trkpt><trkpt lat="45.965041128752354" lon="12.289553775771871"><ele>133.0</ele><time>2026-04-06T13:06:14Z</time></trkpt><trkpt lat="45.96510218963405" lon="12.289449731965268"><ele>132.75</ele><time>2026-04-06T13:06:15Z</time></trkpt><trkpt lat="45.965185815473795" lon="12.289349819936785"><ele>132.5</ele><time>2026-04-06T13:06:16Z</time></trkpt><trkpt lat="45.96526057304685" lon="12.289219518118555"><ele>132.25</ele><time>2026-04-06T13:06:17Z</time></trkpt><trkpt lat="45.965407396270734" lon="12.289204682106474"><ele>132.0</ele><time>2026-04-06T13:06:18Z</time></trkpt><trkpt lat="45.96552565191224" lon="12.289120429707443"><ele>132.0</ele><time>2026-04-06T13:06:19Z</time></trkpt><trkpt lat="45.965647519324186" lon="12.289023286244127"><ele>132.0</ele><time>2026-04-06T13:06:20Z</time></trkpt><trkpt lat="45.965774661094635" lon="12.288920702079423"><ele>132.0</ele><time>2026-04-06T13:06:21Z</time></trkpt><trkpt lat="45.965896673161375" lon="12.288825851001574"><ele>132.0</ele><time>2026-04-06T13:06:22Z</time></trkpt><trkpt lat="45.96600770494829" lon="12.288744918588101"><ele>132.2</ele><time>2026-04-06T13:06:23Z</time></trkpt><trkpt lat="45.96611360966568" lon="12.288668623734802"><ele>132.39999999999998</ele><time>2026-04-06T13:06:24Z</time></trkpt><trkpt lat="45.966211571248614" lon="12.288599380774333"><ele>132.60000000000002</ele><time>2026-04-06T13:06:25Z</time></trkpt><trkpt lat="45.96630680288823" lon="12.288538612094174"><ele>132.8</ele><time>2026-04-06T13:06:26Z</time></trkpt><trkpt lat="45.966398181198535" lon="12.288490955681947"><ele>133.0</ele><time>2026-04-06T13:06:27Z</time></trkpt><trkpt lat="45.966490749934906" lon="12.288467551941581"><ele>133.0</ele><time>2026-04-06T13:06:28Z</time></trkpt><trkpt lat="45.966578566556194" lon="12.288479821002767"><ele>133.0</ele><time>2026-04-06T13:06:29Z</time></trkpt><trkpt lat="45.9666578688657" lon="12.28849076292166"><ele>133.0</ele><time>2026-04-06T13:06:30Z</time></trkpt><trkpt lat="45.96672563219116" lon="12.288440390540506"><ele>133.0</ele><time>2026-04-06T13:06:31Z</time></trkpt><trkpt lat="45.96674981889381" lon="12.288321123077969"><ele>133.0</ele><time>2026-04-06T13:06:32Z</time></trkpt><trkpt lat="45.966744399457866" lon="12.288214300840622"><ele>133.0</ele><time>2026-04-06T13:06:33Z</time></trkpt><trkpt lat="45.96669724192693" lon="12.28812152885378"><ele>133.5</ele><time>2026-04-06T13:06:34Z</time></trkpt><trkpt lat="45.96661360286701" lon="12.28804573891456"><ele>134.0</ele><time>2026-04-06T13:06:35Z</time></trkpt><trkpt lat="45.96651938304317" lon="12.287961148442049"><ele>134.5</ele><time>2026-04-06T13:06:36Z</time></trkpt><trkpt lat="45.96641644491809" lon="12.287847315091868"><ele>135.0</ele><time>2026-04-06T13:06:37Z</time></trkpt><trkpt lat="45.96631152700713" lon="12.287708123654221"><ele>135.0</ele><time>2026-04-06T13:06:38Z</time></trkpt><trkpt lat="45.96620131940981" lon="12.287550635621573"><ele>135.0</ele><time>2026-04-06T13:06:39Z</time></trkpt><trkpt lat="45.966082593773685" lon="12.28738957013722"><ele>135.0</ele><time>2026-04-06T13:06:40Z</time></trkpt><trkpt lat="45.96596469305481" lon="12.28723269658545"><ele>135.66666666666666</ele><time>2026-04-06T13:06:41Z</time></trkpt><trkpt lat="45.96584295338033" lon="12.287062210536842"><ele>136.33333333333331</ele><time>2026-04-06T13:06:42Z</time></trkpt><trkpt lat="45.9657157668121" lon="12.286880555165787"><ele>137.0</ele><time>2026-04-06T13:06:43Z</time></trkpt><trkpt lat="45.965585438720275" lon="12.286696989133434"><ele>137.0</ele><time>2026-04-06T13:06:44Z</time></trkpt><trkpt lat="45.96545596227823" lon="12.286515602271919"><ele>137.0</ele><time>2026-04-06T13:06:45Z</time></trkpt><trkpt lat="45.965328310138375" lon="12.286334380377216"><ele>137.0</ele><time>2026-04-06T13:06:46Z</time></trkpt><trkpt lat="45.96520192224872" lon="12.286152359989785"><ele>137.66666666666666</ele><time>2026-04-06T13:06:47Z</time></trkpt><trkpt lat="45.96507410379303" lon="12.285969595163225"><ele>138.33333333333334</ele><time>2026-04-06T13:06:48Z</time></trkpt><trkpt lat="45.96494389917909" lon="12.285791731260876"><ele>139.0</ele><time>2026-04-06T13:06:49Z</time></trkpt><trkpt lat="45.964811131763646" lon="12.285613047035941"><ele>141.66666666666669</ele><time>2026-04-06T13:06:50Z</time></trkpt><trkpt lat="45.96467476522225" lon="12.285438160263942"><ele>144.33333333333334</ele><time>2026-04-06T13:06:51Z</time></trkpt><trkpt lat="45.964534857886576" lon="12.28528172401751"><ele>147.0</ele><time>2026-04-06T13:06:52Z</time></trkpt><trkpt lat="45.96438245427798" lon="12.285165947351919"><ele>147.0</ele><time>2026-04-06T13:06:53Z</time></trkpt><trkpt lat="45.96421596673488" lon="12.285084923208755"><ele>147.0</ele><time>2026-04-06T13:06:54Z</time></trkpt><trkpt lat="45.964044353406145" lon="12.285040086396883"><ele>147.0</ele><time>2026-04-06T13:06:55Z</time></trkpt><trkpt lat="45.9638713452589" lon="12.28503520083174"><ele>145.33333333333334</ele><time>2026-04-06T13:06:56Z</time></trkpt><trkpt lat="45.96369061445465" lon="12.285067744870679"><ele>143.66666666666669</ele><time>2026-04-06T13:06:57Z</time></trkpt><trkpt lat="45.963499039994595" lon="12.285064831026194"><ele>142.0</ele><time>2026-04-06T13:06:58Z</time></trkpt><trkpt lat="45.96330554231889" lon="12.28508460132111"><ele>142.0</ele><time>2026-04-06T13:06:59Z</time></trkpt><trkpt lat="45.96312523791001" lon="12.28512352885806"><ele>142.0</ele><time>2026-04-06T13:07:00Z</time></trkpt><trkpt lat="45.96295213333445" lon="12.285125627527961"><ele>142.0</ele><time>2026-04-06T13:07:01Z</time></trkpt><trkpt lat="45.96278866144452" lon="12.285083418078298"><ele>142.0</ele><time>2026-04-06T13:07:02Z</time></trkpt><trkpt lat="45.96264585537646" lon="12.285024795405759"><ele>142.0</ele><time>2026-04-06T13:07:03Z</time></trkpt><trkpt lat="45.96250230448893" lon="12.284976008712789"><ele>142.0</ele><time>2026-04-06T13:07:04Z</time></trkpt><trkpt lat="45.96236777329958" lon="12.284905293995578"><ele>142.0</ele><time>2026-04-06T13:07:05Z</time></trkpt><trkpt lat="45.96222761274543" lon="12.28484019779078"><ele>142.0</ele><time>2026-04-06T13:07:06Z</time></trkpt><trkpt lat="45.962080251265576" lon="12.284769797095889"><ele>142.0</ele><time>2026-04-06T13:07:07Z</time></trkpt><trkpt lat="45.96192643183636" lon="12.284695951296833"><ele>142.0</ele><time>2026-04-06T13:07:08Z</time></trkpt><trkpt lat="45.96176536486311" lon="12.28461898685574"><ele>141.33333333333334</ele><time>2026-04-06T13:07:09Z</time></trkpt><trkpt lat="45.961601858504345" lon="12.28450929201852"><ele>140.66666666666666</ele><time>2026-04-06T13:07:10Z</time></trkpt><trkpt lat="45.9614252960352" lon="12.284416535696725"><ele>140.0</ele><time>2026-04-06T13:07:11Z</time></trkpt><trkpt lat="45.96124385304856" lon="12.284324273925682"><ele>140.0</ele><time>2026-04-06T13:07:12Z</time></trkpt><trkpt lat="45.96105849659841" lon="12.284230502247699"><ele>140.0</ele><time>2026-04-06T13:07:13Z</time></trkpt><trkpt lat="45.960869342587365" lon="12.28413480938714"><ele>140.0</ele><time>2026-04-06T13:07:14Z</time></trkpt><trkpt lat="45.96067769927085" lon="12.284036521866714"><ele>139.33333333333331</ele><time>2026-04-06T13:07:15Z</time></trkpt><trkpt lat="45.9604868607567" lon="12.283936764777005"><ele>138.66666666666666</ele><time>2026-04-06T13:07:16Z</time></trkpt><trkpt lat="45.960294775015655" lon="12.283836682976057"><ele>138.0</ele><time>2026-04-06T13:07:17Z</time></trkpt><trkpt lat="45.96009904444997" lon="12.283734702124255"><ele>136.33333333333334</ele><time>2026-04-06T13:07:18Z</time></trkpt><trkpt lat="45.95990042981322" lon="12.283631218593309"><ele>134.66666666666669</ele><time>2026-04-06T13:07:19Z</time></trkpt><trkpt lat="45.959703684880736" lon="12.28353318218157"><ele>133.0</ele><time>2026-04-06T13:07:20Z</time></trkpt><trkpt lat="45.95951058962474" lon="12.283438421877083"><ele>133.0</ele><time>2026-04-06T13:07:21Z</time></trkpt><trkpt lat="45.95932233293607" lon="12.283363927516888"><ele>133.0</ele><time>2026-04-06T13:07:22Z</time></trkpt><trkpt lat="45.95914608479609" lon="12.28327268410698"><ele>133.0</ele><time>2026-04-06T13:07:23Z</time></trkpt><trkpt lat="45.95897438822542" lon="12.283191547894084"><ele>133.0</ele><time>2026-04-06T13:07:24Z</time></trkpt><trkpt lat="45.9588054174304" lon="12.283130035229979"><ele>133.0</ele><time>2026-04-06T13:07:25Z</time></trkpt><trkpt lat="45.95863219353716" lon="12.283074292687493"><ele>133.0</ele><time>2026-04-06T13:07:26Z</time></trkpt><trkpt lat="45.958448688002946" lon="12.283069736297522"><ele>136.0</ele><time>2026-04-06T13:07:27Z</time></trkpt><trkpt lat="45.958261400351404" lon="12.28307169128641"><ele>139.0</ele><time>2026-04-06T13:07:28Z</time></trkpt><trkpt lat="45.95807619478441" lon="12.28309714624471"><ele>142.0</ele><time>2026-04-06T13:07:29Z</time></trkpt><trkpt lat="45.957898294576516" lon="12.283094024337565"><ele>142.0</ele><time>2026-04-06T13:07:30Z</time></trkpt><trkpt lat="45.95773383411334" lon="12.28310089186924"><ele>142.0</ele><time>2026-04-06T13:07:31Z</time></trkpt><trkpt lat="45.95758362322378" lon="12.28308036633107"><ele>142.0</ele><time>2026-04-06T13:07:32Z</time></trkpt><trkpt lat="45.95744459060804" lon="12.283072912325276"><ele>145.0</ele><time>2026-04-06T13:07:33Z</time></trkpt><trkpt lat="45.95731379574606" lon="12.283054630654071"><ele>148.0</ele><time>2026-04-06T13:07:34Z</time></trkpt><trkpt lat="45.957185546571964" lon="12.283021590579727"><ele>151.0</ele><time>2026-04-06T13:07:35Z</time></trkpt><trkpt lat="45.95707876972308" lon="12.282936332759927"><ele>154.0</ele><time>2026-04-06T13:07:36Z</time></trkpt><trkpt lat="45.95698600272627" lon="12.282820703801756"><ele>154.0</ele><time>2026-04-06T13:07:37Z</time></trkpt><trkpt lat="45.9569041310713" lon="12.28268997458302"><ele>154.0</ele><time>2026-04-06T13:07:38Z</time></trkpt><trkpt lat="45.95683447992166" lon="12.28253614062933"><ele>154.0</ele><time>2026-04-06T13:07:39Z</time></trkpt><trkpt lat="45.95676194318817" lon="12.282368180118942"><ele>154.0</ele><time>2026-04-06T13:07:40Z</time></trkpt><trkpt lat="45.95668331621899" lon="12.28219608888281"><ele>155.0</ele><time>2026-04-06T13:07:41Z</time></trkpt><trkpt lat="45.95660097940387" lon="12.282018733696841"><ele>156.0</ele><time>2026-04-06T13:07:42Z</time></trkpt><trkpt lat="45.95651823182184" lon="12.281845169168037"><ele>157.0</ele><time>2026-04-06T13:07:43Z</time></trkpt><trkpt lat="45.95644478177085" lon="12.281675002721002"><ele>158.0</ele><time>2026-04-06T13:07:44Z</time></trkpt><trkpt lat="45.95638203411578" lon="12.281504131509617"><ele>161.5</ele><time>2026-04-06T13:07:45Z</time></trkpt><trkpt lat="45.95631329562511" lon="12.28133831699006"><ele>165.0</ele><time>2026-04-06T13:07:46Z</time></trkpt><trkpt lat="45.95624816314573" lon="12.281169166728624"><ele>168.5</ele><time>2026-04-06T13:07:47Z</time></trkpt><trkpt lat="45.95617867446969" lon="12.281001150187828"><ele>172.0</ele><time>2026-04-06T13:07:48Z</time></trkpt><trkpt lat="45.956104336862126" lon="12.280835481884258"><ele>172.0</ele><time>2026-04-06T13:07:49Z</time></trkpt><trkpt lat="45.95602911166245" lon="12.28067294273227"><ele>172.0</ele><time>2026-04-06T13:07:50Z</time></trkpt><trkpt lat="45.95593624371974" lon="12.280527307124784"><ele>172.0</ele><time>2026-04-06T13:07:51Z</time></trkpt><trkpt lat="45.955805920774345" lon="12.280422579244862"><ele>172.0</ele><time>2026-04-06T13:07:52Z</time></trkpt><trkpt lat="45.95567650803254" lon="12.280332656883184"><ele>168.66666666666669</ele><time>2026-04-06T13:07:53Z</time></trkpt><trkpt lat="45.95552940197166" lon="12.280260028141964"><ele>165.33333333333334</ele><time>2026-04-06T13:07:54Z</time></trkpt><trkpt lat="45.95536701103239" lon="12.280196350553922"><ele>162.0</ele><time>2026-04-06T13:07:55Z</time></trkpt><trkpt lat="45.95521119111406" lon="12.280078682863913"><ele>162.0</ele><time>2026-04-06T13:07:56Z</time></trkpt><trkpt lat="45.95504806383512" lon="12.280013764558404"><ele>162.0</ele><time>2026-04-06T13:07:57Z</time></trkpt><trkpt lat="45.954883177633484" lon="12.27997114395935"><ele>162.0</ele><time>2026-04-06T13:07:58Z</time></trkpt><trkpt lat="45.95472459045024" lon="12.27991049439159"><ele>162.33333333333334</ele><time>2026-04-06T13:07:59Z</time></trkpt><trkpt lat="45.9545637526272" lon="12.279847703164348"><ele>162.66666666666669</ele><time>2026-04-06T13:08:00Z</time></trkpt><trkpt lat="45.95440236995497" lon="12.279779366029729"><ele>163.0</ele><time>2026-04-06T13:08:01Z</time></trkpt><trkpt lat="45.95424445035659" lon="12.279713796520367"><ele>163.33333333333334</ele><time>2026-04-06T13:08:02Z</time></trkpt><trkpt lat="45.954081262174306" lon="12.279651102534245"><ele>163.66666666666666</ele><time>2026-04-06T13:08:03Z</time></trkpt><trkpt lat="45.953914337024244" lon="12.279585995648503"><ele>164.0</ele><time>2026-04-06T13:08:04Z</time></trkpt><trkpt lat="45.953740238764965" lon="12.279517281710051"><ele>164.0</ele><time>2026-04-06T13:08:05Z</time></trkpt><trkpt lat="45.95356029468711" lon="12.279443983625765"><ele>164.0</ele><time>2026-04-06T13:08:06Z</time></trkpt><trkpt lat="45.95337481938922" lon="12.279371871114918"><ele>164.0</ele><time>2026-04-06T13:08:07Z</time></trkpt><trkpt lat="45.953188837876304" lon="12.279294490647704"><ele>163.0</ele><time>2026-04-06T13:08:08Z</time></trkpt><trkpt lat="45.95300696463742" lon="12.27921136302898"><ele>162.0</ele><time>2026-04-06T13:08:09Z</time></trkpt><trkpt lat="45.952825144413325" lon="12.279125490424232"><ele>161.0</ele><time>2026-04-06T13:08:10Z</time></trkpt><trkpt lat="45.952644406995866" lon="12.279039132637498"><ele>160.66666666666666</ele><time>2026-04-06T13:08:11Z</time></trkpt><trkpt lat="45.9524674541819" lon="12.278961162950633"><ele>160.33333333333334</ele><time>2026-04-06T13:08:12Z</time></trkpt><trkpt lat="45.95227910817978" lon="12.278898428181925"><ele>160.0</ele><time>2026-04-06T13:08:13Z</time></trkpt><trkpt lat="45.952080134436756" lon="12.278848384649507"><ele>158.66666666666669</ele><time>2026-04-06T13:08:14Z</time></trkpt><trkpt lat="45.95187196081786" lon="12.278779580796847"><ele>157.33333333333334</ele><time>2026-04-06T13:08:15Z</time></trkpt><trkpt lat="45.95165363322655" lon="12.278734180057253"><ele>156.0</ele><time>2026-04-06T13:08:16Z</time></trkpt><trkpt lat="45.951431241103165" lon="12.278707729470328"><ele>156.0</ele><time>2026-04-06T13:08:17Z</time></trkpt><trkpt lat="45.951216141717836" lon="12.278658579968754"><ele>156.0</ele><time>2026-04-06T13:08:18Z</time></trkpt><trkpt lat="45.95100883283527" lon="12.278612946949604"><ele>156.0</ele><time>2026-04-06T13:08:19Z</time></trkpt><trkpt lat="45.95080514527738" lon="12.278568900749832"><ele>155.33333333333334</ele><time>2026-04-06T13:08:20Z</time></trkpt><trkpt lat="45.95060270360965" lon="12.278527428420492"><ele>154.66666666666669</ele><time>2026-04-06T13:08:21Z</time></trkpt><trkpt lat="45.95040336058203" lon="12.278485913778148"><ele>154.0</ele><time>2026-04-06T13:08:22Z</time></trkpt><trkpt lat="45.950206371179945" lon="12.278453951575692"><ele>154.0</ele><time>2026-04-06T13:08:23Z</time></trkpt><trkpt lat="45.950014816423284" lon="12.278430247949457"><ele>154.0</ele><time>2026-04-06T13:08:24Z</time></trkpt><trkpt lat="45.94982949197844" lon="12.278435888091183"><ele>154.0</ele><time>2026-04-06T13:08:25Z</time></trkpt><trkpt lat="45.949648016846254" lon="12.27846793678197"><ele>154.0</ele><time>2026-04-06T13:08:26Z</time></trkpt><trkpt lat="45.949467703693244" lon="12.278525358201332"><ele>154.0</ele><time>2026-04-06T13:08:27Z</time></trkpt><trkpt lat="45.94928525199397" lon="12.278608105173218"><ele>154.0</ele><time>2026-04-06T13:08:28Z</time></trkpt><trkpt lat="45.94910235432151" lon="12.278715817385319"><ele>154.66666666666669</ele><time>2026-04-06T13:08:29Z</time></trkpt><trkpt lat="45.94891617466245" lon="12.278789406486002"><ele>155.33333333333334</ele><time>2026-04-06T13:08:30Z</time></trkpt><trkpt lat="45.948753592303255" lon="12.278889415786942"><ele>156.0</ele><time>2026-04-06T13:08:31Z</time></trkpt><trkpt lat="45.94859744341522" lon="12.278977955081507"><ele>156.0</ele><time>2026-04-06T13:08:32Z</time></trkpt><trkpt lat="45.948444402679606" lon="12.279047507762993"><ele>156.0</ele><time>2026-04-06T13:08:33Z</time></trkpt><trkpt lat="45.948298833436944" lon="12.27908599769165"><ele>156.0</ele><time>2026-04-06T13:08:34Z</time></trkpt><trkpt lat="45.948152701462035" lon="12.279092490126779"><ele>157.66666666666666</ele><time>2026-04-06T13:08:35Z</time></trkpt><trkpt lat="45.94799954744991" lon="12.279072345982522"><ele>159.33333333333331</ele><time>2026-04-06T13:08:36Z</time></trkpt><trkpt lat="45.947841641373174" lon="12.279024460246953"><ele>161.0</ele><time>2026-04-06T13:08:37Z</time></trkpt><trkpt lat="45.94767598657531" lon="12.278942276222837"><ele>160.0</ele><time>2026-04-06T13:08:38Z</time></trkpt><trkpt lat="45.94749977301879" lon="12.278858741671355"><ele>159.0</ele><time>2026-04-06T13:08:39Z</time></trkpt><trkpt lat="45.9473198724952" lon="12.278735022597875"><ele>158.0</ele><time>2026-04-06T13:08:40Z</time></trkpt><trkpt lat="45.947129700110345" lon="12.27861077673208"><ele>158.0</ele><time>2026-04-06T13:08:41Z</time></trkpt><trkpt lat="45.94693142017892" lon="12.278483013606387"><ele>158.0</ele><time>2026-04-06T13:08:42Z</time></trkpt><trkpt lat="45.94672581815101" lon="12.278355729755257"><ele>158.0</ele><time>2026-04-06T13:08:43Z</time></trkpt><trkpt lat="45.94653301531789" lon="12.278233933598587"><ele>156.33333333333331</ele><time>2026-04-06T13:08:44Z</time></trkpt><trkpt lat="45.94634660277719" lon="12.27811439932967"><ele>154.66666666666666</ele><time>2026-04-06T13:08:45Z</time></trkpt><trkpt lat="45.9461653308934" lon="12.277998857272273"><ele>153.0</ele><time>2026-04-06T13:08:46Z</time></trkpt><trkpt lat="45.94598944922263" lon="12.277884451919284"><ele>150.66666666666666</ele><time>2026-04-06T13:08:47Z</time></trkpt><trkpt lat="45.94581852033805" lon="12.277767884380776"><ele>148.33333333333331</ele><time>2026-04-06T13:08:48Z</time></trkpt><trkpt lat="45.94564871071787" lon="12.277638628677337"><ele>146.0</ele><time>2026-04-06T13:08:49Z</time></trkpt><trkpt lat="45.94547803642779" lon="12.277488737247095"><ele>146.0</ele><time>2026-04-06T13:08:50Z</time></trkpt><trkpt lat="45.94530341843401" lon="12.277330733943328"><ele>146.0</ele><time>2026-04-06T13:08:51Z</time></trkpt><trkpt lat="45.94512190046183" lon="12.277175597761634"><ele>146.0</ele><time>2026-04-06T13:08:52Z</time></trkpt><trkpt lat="45.944935402998425" lon="12.277019240723384"><ele>144.33333333333331</ele><time>2026-04-06T13:08:53Z</time></trkpt><trkpt lat="45.94474750694654" lon="12.276862850865154"><ele>142.66666666666666</ele><time>2026-04-06T13:08:54Z</time></trkpt><trkpt lat="45.94455805158998" lon="12.276703025461902"><ele>141.0</ele><time>2026-04-06T13:08:55Z</time></trkpt><trkpt lat="45.94436721765202" lon="12.276543265335924"><ele>139.0</ele><time>2026-04-06T13:08:56Z</time></trkpt><trkpt lat="45.944175989934145" lon="12.27638548612372"><ele>137.0</ele><time>2026-04-06T13:08:57Z</time></trkpt><trkpt lat="45.94398481662625" lon="12.276229647239557"><ele>135.0</ele><time>2026-04-06T13:08:58Z</time></trkpt><trkpt lat="45.94379491493435" lon="12.276069487854786"><ele>135.0</ele><time>2026-04-06T13:08:59Z</time></trkpt><trkpt lat="45.943605710575255" lon="12.275907543180395"><ele>135.0</ele><time>2026-04-06T13:09:00Z</time></trkpt><trkpt lat="45.94341684575701" lon="12.275744599988045"><ele>135.0</ele><time>2026-04-06T13:09:01Z</time></trkpt><trkpt lat="45.943227712974696" lon="12.275581196611427"><ele>131.33333333333334</ele><time>2026-04-06T13:09:02Z</time></trkpt><trkpt lat="45.94304205363556" lon="12.27542527973688"><ele>127.66666666666667</ele><time>2026-04-06T13:09:03Z</time></trkpt><trkpt lat="45.94286235681822" lon="12.275273282936425"><ele>124.0</ele><time>2026-04-06T13:09:04Z</time></trkpt><trkpt lat="45.94268757668919" lon="12.27512046430214"><ele>124.0</ele><time>2026-04-06T13:09:05Z</time></trkpt><trkpt lat="45.94251429522881" lon="12.274971093529095"><ele>124.0</ele><time>2026-04-06T13:09:06Z</time></trkpt><trkpt lat="45.94233729599441" lon="12.274824424907354"><ele>124.0</ele><time>2026-04-06T13:09:07Z</time></trkpt><trkpt lat="45.942157441489705" lon="12.274685224947955"><ele>121.66666666666667</ele><time>2026-04-06T13:09:08Z</time></trkpt><trkpt lat="45.941964956655966" lon="12.27456807096174"><ele>119.33333333333334</ele><time>2026-04-06T13:09:09Z</time></trkpt><trkpt lat="45.94176299504024" lon="12.274440082550978"><ele>117.0</ele><time>2026-04-06T13:09:10Z</time></trkpt><trkpt lat="45.94155921448" lon="12.274338931594196"><ele>117.0</ele><time>2026-04-06T13:09:11Z</time></trkpt><trkpt lat="45.941359842570975" lon="12.274265481573245"><ele>117.0</ele><time>2026-04-06T13:09:12Z</time></trkpt><trkpt lat="45.94117468711472" lon="12.274152289869022"><ele>117.0</ele><time>2026-04-06T13:09:13Z</time></trkpt><trkpt lat="45.94099088641845" lon="12.27406228338907"><ele>115.66666666666666</ele><time>2026-04-06T13:09:14Z</time></trkpt><trkpt lat="45.94083067650938" lon="12.274001428691498"><ele>114.33333333333333</ele><time>2026-04-06T13:09:15Z</time></trkpt><trkpt lat="45.94070215153568" lon="12.273915043294963"><ele>113.0</ele><time>2026-04-06T13:09:16Z</time></trkpt><trkpt lat="45.94059302650743" lon="12.273782151038287"><ele>112.25</ele><time>2026-04-06T13:09:17Z</time></trkpt><trkpt lat="45.94050288662295" lon="12.273620001934187"><ele>111.5</ele><time>2026-04-06T13:09:18Z</time></trkpt><trkpt lat="45.940442004706306" lon="12.273430587715021"><ele>110.75</ele><time>2026-04-06T13:09:19Z</time></trkpt><trkpt lat="45.940416389955814" lon="12.273222677767732"><ele>110.0</ele><time>2026-04-06T13:09:20Z</time></trkpt><trkpt lat="45.940432486250934" lon="12.273009210965629"><ele>107.66666666666666</ele><time>2026-04-06T13:09:21Z</time></trkpt><trkpt lat="45.94048692548343" lon="12.272801112168734"><ele>105.33333333333334</ele><time>2026-04-06T13:09:22Z</time></trkpt><trkpt lat="45.94058161054031" lon="12.272606834620333"><ele>103.0</ele><time>2026-04-06T13:09:23Z</time></trkpt><trkpt lat="45.940692532278604" lon="12.272409966069679"><ele>103.0</ele><time>2026-04-06T13:09:24Z</time></trkpt><trkpt lat="45.94080706046966" lon="12.2721982398538"><ele>103.0</ele><time>2026-04-06T13:09:25Z</time></trkpt><trkpt lat="45.94091578472394" lon="12.271959718732894"><ele>103.0</ele><time>2026-04-06T13:09:26Z</time></trkpt><trkpt lat="45.941035153955774" lon="12.271717142472804"><ele>103.33333333333334</ele><time>2026-04-06T13:09:27Z</time></trkpt><trkpt lat="45.94116142576206" lon="12.271468283375878"><ele>103.66666666666666</ele><time>2026-04-06T13:09:28Z</time></trkpt><trkpt lat="45.941288939365926" lon="12.271214430910298"><ele>104.0</ele><time>2026-04-06T13:09:29Z</time></trkpt><trkpt lat="45.94141863190215" lon="12.270955215318097"><ele>104.5</ele><time>2026-04-06T13:09:30Z</time></trkpt><trkpt lat="45.94154679481133" lon="12.270687763323844"><ele>105.0</ele><time>2026-04-06T13:09:31Z</time></trkpt><trkpt lat="45.94167785798894" lon="12.270425324294937"><ele>111.5</ele><time>2026-04-06T13:09:32Z</time></trkpt><trkpt lat="45.941810384463935" lon="12.27015687779941"><ele>118.0</ele><time>2026-04-06T13:09:33Z</time></trkpt><trkpt lat="45.94194343954513" lon="12.269887294615208"><ele>116.0</ele><time>2026-04-06T13:09:34Z</time></trkpt><trkpt lat="45.94207945730883" lon="12.269615880645365"><ele>114.0</ele><time>2026-04-06T13:09:35Z</time></trkpt><trkpt lat="45.942214139199294" lon="12.269340486451012"><ele>114.0</ele><time>2026-04-06T13:09:36Z</time></trkpt><trkpt lat="45.94234982098908" lon="12.269061031727297"><ele>114.0</ele><time>2026-04-06T13:09:37Z</time></trkpt><trkpt lat="45.94249007973857" lon="12.268777225641603"><ele>116.0</ele><time>2026-04-06T13:09:38Z</time></trkpt><trkpt lat="45.9426275854878" lon="12.268499898978531"><ele>118.0</ele><time>2026-04-06T13:09:39Z</time></trkpt><trkpt lat="45.96262856169728" lon="12.287308570756899"><ele>125.0</ele><time>2026-04-06T13:05:39Z</time></trkpt><trkpt lat="45.96280316122058" lon="12.287300560400872"><ele>132.0</ele><time>2026-04-06T13:05:40Z</time></trkpt><trkpt lat="45.96297434041657" lon="12.2873124208874"><ele>139.0</ele><time>2026-04-06T13:05:41Z</time></trkpt><trkpt lat="45.96314060776996" lon="12.287342755535889"><ele>139.0</ele><time>2026-04-06T13:05:42Z</time></trkpt><trkpt lat="45.963301342660856" lon="12.287394938512895"><ele>139.0</ele><time>2026-04-06T13:05:43Z</time></trkpt><trkpt lat="45.963448732520746" lon="12.287460863384592"><ele>139.0</ele><time>2026-04-06T13:05:44Z</time></trkpt><trkpt lat="45.96358462738026" lon="12.287546947423976"><ele>137.75</ele><time>2026-04-06T13:05:45Z</time></trkpt><trkpt lat="45.96370162984604" lon="12.287649807993178"><ele>136.5</ele><time>2026-04-06T13:05:46Z</time></trkpt><trkpt lat="45.96379193151617" lon="12.287774934267116"><ele>135.25</ele><time>2026-04-06T13:05:47Z</time></trkpt><trkpt lat="45.96386197090615" lon="12.28790970707861"><ele>134.0</ele><time>2026-04-06T13:05:48Z</time></trkpt><trkpt lat="45.96391796268345" lon="12.288043391124534"><ele>133.8</ele><time>2026-04-06T13:05:49Z</time></trkpt><trkpt lat="45.9639697732952" lon="12.288159955455818"><ele>133.60000000000002</ele><time>2026-04-06T13:05:50Z</time></trkpt><trkpt lat="45.96401689173275" lon="12.288248918035386"><ele>133.4</ele><time>2026-04-06T13:05:51Z</time></trkpt><trkpt lat="45.96406018102167" lon="12.288322166936783"><ele>133.20000000000002</ele><time>2026-04-06T13:05:52Z</time></trkpt><trkpt lat="45.964187888069254" lon="12.288281798638232"><ele>133.0</ele><time>2026-04-06T13:05:53Z</time></trkpt><trkpt lat="45.9642634449435" lon="12.288396509128795"><ele>133.0</ele><time>2026-04-06T13:05:55Z</time></trkpt><trkpt lat="45.96432662060472" lon="12.288491760016614"><ele>133.0</ele><time>2026-04-06T13:05:57Z</time></trkpt><trkpt lat="45.96438433950313" lon="12.288577566628852"><ele>133.0</ele><time>2026-04-06T13:05:59Z</time></trkpt><trkpt lat="45.96445093382942" lon="12.288675332541054"><ele>133.0</ele><time>2026-04-06T13:06:01Z</time></trkpt><trkpt lat="45.96453774000736" lon="12.288800071219507"><ele>133.0</ele><time>2026-04-06T13:06:03Z</time></trkpt><trkpt lat="45.964593944020315" lon="12.28887968639211"><ele>133.0</ele><time>2026-04-06T13:06:04Z</time></trkpt><trkpt lat="45.964650331851566" lon="12.288959630225673"><ele>133.0</ele><time>2026-04-06T13:06:05Z</time></trkpt><trkpt lat="45.96470649363241" lon="12.28903925558244"><ele>133.0</ele><time>2026-04-06T13:06:06Z</time></trkpt><trkpt lat="45.96472121693452" lon="12.289177255215371"><ele>133.0</ele><time>2026-04-06T13:06:07Z</time></trkpt><trkpt lat="45.96475320618073" lon="12.289279583284397"><ele>133.0</ele><time>2026-04-06T13:06:08Z</time></trkpt><trkpt lat="45.96476164094351" lon="12.289394248340594"><ele>133.0</ele><time>2026-04-06T13:06:09Z</time></trkpt><trkpt lat="45.96477867884654" lon="12.28950438259768"><ele>133.0</ele><time>2026-04-06T13:06:10Z</time></trkpt><trkpt lat="45.964823052376595" lon="12.289587305570757"><ele>133.0</ele><time>2026-04-06T13:06:11Z</time></trkpt><trkpt lat="45.96489212568381" lon="12.289628761942899"><ele>133.0</ele><time>2026-04-06T13:06:12Z</time></trkpt><trkpt lat="45.964971552037795" lon="12.289619494115748"><ele>133.0</ele><time>2026-04-06T13:06:13Z</time></trkpt><trkpt lat="45.965041128752354" lon="12.289553775771871"><ele>133.0</ele><time>2026-04-06T13:06:14Z</time></trkpt><trkpt lat="45.96510218963405" lon="12.289449731965268"><ele>133.0</ele><time>2026-04-06T13:06:15Z</time></trkpt><trkpt lat="45.965185815473795" lon="12.289349819936785"><ele>132.75</ele><time>2026-04-06T13:06:16Z</time></trkpt><trkpt lat="45.96526057304685" lon="12.289219518118555"><ele>132.5</ele><time>2026-04-06T13:06:17Z</time></trkpt><trkpt lat="45.965407396270734" lon="12.289204682106474"><ele>132.25</ele><time>2026-04-06T13:06:18Z</time></trkpt><trkpt lat="45.96552565191224" lon="12.289120429707443"><ele>132.0</ele><time>2026-04-06T13:06:19Z</time></trkpt><trkpt lat="45.965647519324186" lon="12.289023286244127"><ele>131.75</ele><time>2026-04-06T13:06:20Z</time></trkpt><trkpt lat="45.965774661094635" lon="12.288920702079423"><ele>131.5</ele><time>2026-04-06T13:06:21Z</time></trkpt><trkpt lat="45.965896673161375" lon="12.288825851001574"><ele>131.25</ele><time>2026-04-06T13:06:22Z</time></trkpt><trkpt lat="45.96600770494829" lon="12.288744918588101"><ele>131.0</ele><time>2026-04-06T13:06:23Z</time></trkpt><trkpt lat="45.96611360966568" lon="12.288668623734802"><ele>131.4</ele><time>2026-04-06T13:06:24Z</time></trkpt><trkpt lat="45.966211571248614" lon="12.288599380774333"><ele>131.8</ele><time>2026-04-06T13:06:25Z</time></trkpt><trkpt lat="45.96630680288823" lon="12.288538612094174"><ele>132.20000000000002</ele><time>2026-04-06T13:06:26Z</time></trkpt><trkpt lat="45.966398181198535" lon="12.288490955681947"><ele>132.6</ele><time>2026-04-06T13:06:27Z</time></trkpt><trkpt lat="45.966490749934906" lon="12.288467551941581"><ele>133.0</ele><time>2026-04-06T13:06:28Z</time></trkpt><trkpt lat="45.966578566556194" lon="12.288479821002767"><ele>133.0</ele><time>2026-04-06T13:06:29Z</time></trkpt><trkpt lat="45.9666578688657" lon="12.28849076292166"><ele>133.0</ele><time>2026-04-06T13:06:30Z</time></trkpt><trkpt lat="45.96672563219116" lon="12.288440390540506"><ele>133.0</ele><time>2026-04-06T13:06:31Z</time></trkpt><trkpt lat="45.96674981889381" lon="12.288321123077969"><ele>133.0</ele><time>2026-04-06T13:06:32Z</time></trkpt><trkpt lat="45.966744399457866" lon="12.288214300840622"><ele>133.0</ele><time>2026-04-06T13:06:33Z</time></trkpt><trkpt lat="45.96669724192693" lon="12.28812152885378"><ele>133.0</ele><time>2026-04-06T13:06:34Z</time></trkpt><trkpt lat="45.96661360286701" lon="12.28804573891456"><ele>133.5</ele><time>2026-04-06T13:06:35Z</time></trkpt><trkpt lat="45.96651938304317" lon="12.287961148442049"><ele>134.0</ele><time>2026-04-06T13:06:36Z</time></trkpt><trkpt lat="45.96641644491809" lon="12.287847315091868"><ele>134.5</ele><time>2026-04-06T13:06:37Z</time></trkpt><trkpt lat="45.96631152700713" lon="12.287708123654221"><ele>135.0</ele><time>2026-04-06T13:06:38Z</time></trkpt><trkpt lat="45.96620131940981" lon="12.287550635621573"><ele>135.0</ele><time>2026-04-06T13:06:39Z</time></trkpt><trkpt lat="45.966082593773685" lon="12.28738957013722"><ele>135.0</ele><time>2026-04-06T13:06:40Z</time></trkpt><trkpt lat="45.96596469305481" lon="12.28723269658545"><ele>135.0</ele><time>2026-04-06T13:06:41Z</time></trkpt><trkpt lat="45.96584295338033" lon="12.287062210536842"><ele>135.66666666666666</ele><time>2026-04-06T13:06:42Z</time></trkpt><trkpt lat="45.9657157668121" lon="12.286880555165787"><ele>136.33333333333331</ele><time>2026-04-06T13:06:43Z</time></trkpt><trkpt lat="45.965585438720275" lon="12.286696989133434"><ele>137.0</ele><time>2026-04-06T13:06:44Z</time></trkpt><trkpt lat="45.96545596227823" lon="12.286515602271919"><ele>139.66666666666666</ele><time>2026-04-06T13:06:45Z</time></trkpt><trkpt lat="45.965328310138375" lon="12.286334380377216"><ele>142.33333333333334</ele><time>2026-04-06T13:06:46Z</time></trkpt><trkpt lat="45.96520192224872" lon="12.286152359989785"><ele>145.0</ele><time>2026-04-06T13:06:47Z</time></trkpt><trkpt lat="45.96507410379303" lon="12.285969595163225"><ele>145.66666666666669</ele><time>2026-04-06T13:06:48Z</time></trkpt><trkpt lat="45.96494389917909" lon="12.285791731260876"><ele>146.33333333333334</ele><time>2026-04-06T13:06:49Z</time></trkpt><trkpt lat="45.964811131763646" lon="12.285613047035941"><ele>147.0</ele><time>2026-04-06T13:06:50Z</time></trkpt><trkpt lat="45.96467476522225" lon="12.285438160263942"><ele>147.0</ele><time>2026-04-06T13:06:51Z</time></trkpt><trkpt lat="45.964534857886576" lon="12.28528172401751"><ele>147.0</ele><time>2026-04-06T13:06:52Z</time></trkpt><trkpt lat="45.96438245427798" lon="12.285165947351919"><ele>147.0</ele><time>2026-04-06T13:06:53Z</time></trkpt><trkpt lat="45.96421596673488" lon="12.285084923208755"><ele>145.0</ele><time>2026-04-06T13:06:54Z</time></trkpt><trkpt lat="45.964044353406145" lon="12.285040086396883"><ele>143.0</ele><time>2026-04-06T13:06:55Z</time></trkpt><trkpt lat="45.9638713452589" lon="12.28503520083174"><ele>141.0</ele><time>2026-04-06T13:06:56Z</time></trkpt><trkpt lat="45.96369061445465" lon="12.285067744870679"><ele>141.0</ele><time>2026-04-06T13:06:57Z</time></trkpt><trkpt lat="45.963499039994595" lon="12.285064831026194"><ele>141.0</ele><time>2026-04-06T13:06:58Z</time></trkpt><trkpt lat="45.96330554231889" lon="12.28508460132111"><ele>141.0</ele><time>2026-04-06T13:06:59Z</time></trkpt><trkpt lat="45.96312523791001" lon="12.28512352885806"><ele>141.33333333333334</ele><time>2026-04-06T13:07:00Z</time></trkpt><trkpt lat="45.96295213333445" lon="12.285125627527961"><ele>141.66666666666669</ele><time>2026-04-06T13:07:01Z</time></trkpt><trkpt lat="45.96278866144452" lon="12.285083418078298"><ele>142.0</ele><time>2026-04-06T13:07:02Z</time></trkpt><trkpt lat="45.96264585537646" lon="12.285024795405759"><ele>141.5</ele><time>2026-04-06T13:07:03Z</time></trkpt><trkpt lat="45.96250230448893" lon="12.284976008712789"><ele>141.0</ele><time>2026-04-06T13:07:04Z</time></trkpt><trkpt lat="45.96236777329958" lon="12.284905293995578"><ele>140.5</ele><time>2026-04-06T13:07:05Z</time></trkpt><trkpt lat="45.96222761274543" lon="12.28484019779078"><ele>140.0</ele><time>2026-04-06T13:07:06Z</time></trkpt><trkpt lat="45.962080251265576" lon="12.284769797095889"><ele>140.0</ele><time>2026-04-06T13:07:07Z</time></trkpt><trkpt lat="45.96192643183636" lon="12.284695951296833"><ele>140.0</ele><time>2026-04-06T13:07:08Z</time></trkpt><trkpt lat="45.96176536486311" lon="12.28461898685574"><ele>140.0</ele><time>2026-04-06T13:07:09Z</time></trkpt><trkpt lat="45.961601858504345" lon="12.28450929201852"><ele>140.0</ele><time>2026-04-06T13:07:10Z</time></trkpt><trkpt lat="45.9614252960352" lon="12.284416535696725"><ele>140.0</ele><time>2026-04-06T13:07:11Z</time></trkpt><trkpt lat="45.96124385304856" lon="12.284324273925682"><ele>140.0</ele><time>2026-04-06T13:07:12Z</time></trkpt><trkpt lat="45.96105849659841" lon="12.284230502247699"><ele>140.0</ele><time>2026-04-06T13:07:13Z</time></trkpt><trkpt lat="45.960869342587365" lon="12.28413480938714"><ele>140.0</ele><time>2026-04-06T13:07:14Z</time></trkpt><trkpt lat="45.96067769927085" lon="12.284036521866714"><ele>140.0</ele><time>2026-04-06T13:07:15Z</time></trkpt><trkpt lat="45.9604868607567" lon="12.283936764777005"><ele>137.66666666666666</ele><time>2026-04-06T13:07:16Z</time></trkpt><trkpt lat="45.960294775015655" lon="12.283836682976057"><ele>135.33333333333334</ele><time>2026-04-06T13:07:17Z</time></trkpt><trkpt lat="45.96009904444997" lon="12.283734702124255"><ele>133.0</ele><time>2026-04-06T13:07:18Z</time></trkpt><trkpt lat="45.95990042981322" lon="12.283631218593309"><ele>133.0</ele><time>2026-04-06T13:07:19Z</time></trkpt><trkpt lat="45.959703684880736" lon="12.28353318218157"><ele>133.0</ele><time>2026-04-06T13:07:20Z</time></trkpt><trkpt lat="45.95951058962474" lon="12.283438421877083"><ele>133.0</ele><time>2026-04-06T13:07:21Z</time></trkpt><trkpt lat="45.95932233293607" lon="12.283363927516888"><ele>133.0</ele><time>2026-04-06T13:07:22Z</time></trkpt><trkpt lat="45.95914608479609" lon="12.28327268410698"><ele>133.0</ele><time>2026-04-06T13:07:23Z</time></trkpt><trkpt lat="45.95897438822542" lon="12.283191547894084"><ele>133.0</ele><time>2026-04-06T13:07:24Z</time></trkpt><trkpt lat="45.9588054174304" lon="12.283130035229979"><ele>134.33333333333334</ele><time>2026-04-06T13:07:25Z</time></trkpt><trkpt lat="45.95863219353716" lon="12.283074292687493"><ele>135.66666666666666</ele><time>2026-04-06T13:07:26Z</time></trkpt><trkpt lat="45.958448688002946" lon="12.283069736297522"><ele>137.0</ele><time>2026-04-06T13:07:27Z</time></trkpt><trkpt lat="45.958261400351404" lon="12.28307169128641"><ele>136.0</ele><time>2026-04-06T13:07:28Z</time></trkpt><trkpt lat="45.95807619478441" lon="12.28309714624471"><ele>135.0</ele><time>2026-04-06T13:07:29Z</time></trkpt><trkpt lat="45.957898294576516" lon="12.283094024337565"><ele>134.0</ele><time>2026-04-06T13:07:30Z</time></trkpt><trkpt lat="45.95773383411334" lon="12.28310089186924"><ele>136.0</ele><time>2026-04-06T13:07:31Z</time></trkpt><trkpt lat="45.95758362322378" lon="12.28308036633107"><ele>138.0</ele><time>2026-04-06T13:07:32Z</time></trkpt><trkpt lat="45.95744459060804" lon="12.283072912325276"><ele>140.0</ele><time>2026-04-06T13:07:33Z</time></trkpt><trkpt lat="45.95731379574606" lon="12.283054630654071"><ele>142.0</ele><time>2026-04-06T13:07:34Z</time></trkpt><trkpt lat="45.957185546571964" lon="12.283021590579727"><ele>145.0</ele><time>2026-04-06T13:07:35Z</time></trkpt><trkpt lat="45.95707876972308" lon="12.282936332759927"><ele>148.0</ele><time>2026-04-06T13:07:36Z</time></trkpt><trkpt lat="45.95698600272627" lon="12.282820703801756"><ele>151.0</ele><time>2026-04-06T13:07:37Z</time></trkpt><trkpt lat="45.9569041310713" lon="12.28268997458302"><ele>154.0</ele><time>2026-04-06T13:07:38Z</time></trkpt><trkpt lat="45.95683447992166" lon="12.28253614062933"><ele>154.0</ele><time>2026-04-06T13:07:39Z</time></trkpt><trkpt lat="45.95676194318817" lon="12.282368180118942"><ele>154.0</ele><time>2026-04-06T13:07:40Z</time></trkpt><trkpt lat="45.95668331621899" lon="12.28219608888281"><ele>154.0</ele><time>2026-04-06T13:07:41Z</time></trkpt><trkpt lat="45.95660097940387" lon="12.282018733696841"><ele>154.0</ele><time>2026-04-06T13:07:42Z</time></trkpt><trkpt lat="45.95651823182184" lon="12.281845169168037"><ele>155.0</ele><time>2026-04-06T13:07:43Z</time></trkpt><trkpt lat="45.95644478177085" lon="12.281675002721002"><ele>156.0</ele><time>2026-04-06T13:07:44Z</time></trkpt><trkpt lat="45.95638203411578" lon="12.281504131509617"><ele>157.0</ele><time>2026-04-06T13:07:45Z</time></trkpt><trkpt lat="45.95631329562511" lon="12.28133831699006"><ele>158.0</ele><time>2026-04-06T13:07:46Z</time></trkpt><trkpt lat="45.95624816314573" lon="12.281169166728624"><ele>161.5</ele><time>2026-04-06T13:07:47Z</time></trkpt><trkpt lat="45.95617867446969" lon="12.281001150187828"><ele>165.0</ele><time>2026-04-06T13:07:48Z</time></trkpt><trkpt lat="45.956104336862126" lon="12.280835481884258"><ele>168.5</ele><time>2026-04-06T13:07:49Z</time></trkpt><trkpt lat="45.95602911166245" lon="12.28067294273227"><ele>172.0</ele><time>2026-04-06T13:07:50Z</time></trkpt><trkpt lat="45.95593624371974" lon="12.280527307124784"><ele>169.5</ele><time>2026-04-06T13:07:51Z</time></trkpt><trkpt lat="45.955805920774345" lon="12.280422579244862"><ele>167.0</ele><time>2026-04-06T13:07:52Z</time></trkpt><trkpt lat="45.95567650803254" lon="12.280332656883184"><ele>164.5</ele><time>2026-04-06T13:07:53Z</time></trkpt><trkpt lat="45.95552940197166" lon="12.280260028141964"><ele>162.0</ele><time>2026-04-06T13:07:54Z</time></trkpt><trkpt lat="45.95536701103239" lon="12.280196350553922"><ele>162.0</ele><time>2026-04-06T13:07:55Z</time></trkpt><trkpt lat="45.95521119111406" lon="12.280078682863913"><ele>162.0</ele><time>2026-04-06T13:07:56Z</time></trkpt><trkpt lat="45.95504806383512" lon="12.280013764558404"><ele>162.0</ele><time>2026-04-06T13:07:57Z</time></trkpt><trkpt lat="45.954883177633484" lon="12.27997114395935"><ele>162.33333333333334</ele><time>2026-04-06T13:07:58Z</time></trkpt><trkpt lat="45.95472459045024" lon="12.27991049439159"><ele>162.66666666666669</ele><time>2026-04-06T13:07:59Z</time></trkpt><trkpt lat="45.9545637526272" lon="12.279847703164348"><ele>163.0</ele><time>2026-04-06T13:08:00Z</time></trkpt><trkpt lat="45.95440236995497" lon="12.279779366029729"><ele>163.33333333333334</ele><time>2026-04-06T13:08:01Z</time></trkpt><trkpt lat="45.95424445035659" lon="12.279713796520367"><ele>163.66666666666666</ele><time>2026-04-06T13:08:02Z</time></trkpt><trkpt lat="45.954081262174306" lon="12.279651102534245"><ele>164.0</ele><time>2026-04-06T13:08:03Z</time></trkpt><trkpt lat="45.953914337024244" lon="12.279585995648503"><ele>164.0</ele><time>2026-04-06T13:08:04Z</time></trkpt><trkpt lat="45.953740238764965" lon="12.279517281710051"><ele>164.0</ele><time>2026-04-06T13:08:05Z</time></trkpt><trkpt lat="45.95356029468711" lon="12.279443983625765"><ele>164.0</ele><time>2026-04-06T13:08:06Z</time></trkpt><trkpt lat="45.95337481938922" lon="12.279371871114918"><ele>163.0</ele><time>2026-04-06T13:08:07Z</time></trkpt><trkpt lat="45.953188837876304" lon="12.279294490647704"><ele>162.0</ele><time>2026-04-06T13:08:08Z</time></trkpt><trkpt lat="45.95300696463742" lon="12.27921136302898"><ele>161.0</ele><time>2026-04-06T13:08:09Z</time></trkpt><trkpt lat="45.952825144413325" lon="12.279125490424232"><ele>161.0</ele><time>2026-04-06T13:08:10Z</time></trkpt><trkpt lat="45.952644406995866" lon="12.279039132637498"><ele>161.0</ele><time>2026-04-06T13:08:11Z</time></trkpt><trkpt lat="45.9524674541819" lon="12.278961162950633"><ele>161.0</ele><time>2026-04-06T13:08:12Z</time></trkpt><trkpt lat="45.95227910817978" lon="12.278898428181925"><ele>159.33333333333331</ele><time>2026-04-06T13:08:13Z</time></trkpt><trkpt lat="45.952080134436756" lon="12.278848384649507"><ele>157.66666666666666</ele><time>2026-04-06T13:08:14Z</time></trkpt><trkpt lat="45.95187196081786" lon="12.278779580796847"><ele>156.0</ele><time>2026-04-06T13:08:15Z</time></trkpt><trkpt lat="45.95165363322655" lon="12.278734180057253"><ele>156.0</ele><time>2026-04-06T13:08:16Z</time></trkpt><trkpt lat="45.951431241103165" lon="12.278707729470328"><ele>156.0</ele><time>2026-04-06T13:08:17Z</time></trkpt><trkpt lat="45.951216141717836" lon="12.278658579968754"><ele>156.0</ele><time>2026-04-06T13:08:18Z</time></trkpt><trkpt lat="45.95100883283527" lon="12.278612946949604"><ele>155.33333333333334</ele><time>2026-04-06T13:08:19Z</time></trkpt><trkpt lat="45.95080514527738" lon="12.278568900749832"><ele>154.66666666666669</ele><time>2026-04-06T13:08:20Z</time></trkpt><trkpt lat="45.95060270360965" lon="12.278527428420492"><ele>154.0</ele><time>2026-04-06T13:08:21Z</time></trkpt><trkpt lat="45.95040336058203" lon="12.278485913778148"><ele>154.0</ele><time>2026-04-06T13:08:22Z</time></trkpt><trkpt lat="45.950206371179945" lon="12.278453951575692"><ele>154.0</ele><time>2026-04-06T13:08:23Z</time></trkpt><trkpt lat="45.950014816423284" lon="12.278430247949457"><ele>154.0</ele><time>2026-04-06T13:08:24Z</time></trkpt><trkpt lat="45.94982949197844" lon="12.278435888091183"><ele>154.0</ele><time>2026-04-06T13:08:25Z</time></trkpt><trkpt lat="45.949648016846254" lon="12.27846793678197"><ele>154.0</ele><time>2026-04-06T13:08:26Z</time></trkpt><trkpt lat="45.949467703693244" lon="12.278525358201332"><ele>154.0</ele><time>2026-04-06T13:08:27Z</time></trkpt><trkpt lat="45.94928525199397" lon="12.278608105173218"><ele>157.33333333333334</ele><time>2026-04-06T13:08:28Z</time></trkpt><trkpt lat="45.94910235432151" lon="12.278715817385319"><ele>160.66666666666666</ele><time>2026-04-06T13:08:29Z</time></trkpt><trkpt lat="45.94891617466245" lon="12.278789406486002"><ele>164.0</ele><time>2026-04-06T13:08:30Z</time></trkpt><trkpt lat="45.948753592303255" lon="12.278889415786942"><ele>163.0</ele><time>2026-04-06T13:08:31Z</time></trkpt><trkpt lat="45.94859744341522" lon="12.278977955081507"><ele>162.0</ele><time>2026-04-06T13:08:32Z</time></trkpt><trkpt lat="45.948444402679606" lon="12.279047507762993"><ele>161.0</ele><time>2026-04-06T13:08:33Z</time></trkpt><trkpt lat="45.948298833436944" lon="12.27908599769165"><ele>161.0</ele><time>2026-04-06T13:08:34Z</time></trkpt><trkpt lat="45.948152701462035" lon="12.279092490126779"><ele>161.0</ele><time>2026-04-06T13:08:35Z</time></trkpt><trkpt lat="45.94799954744991" lon="12.279072345982522"><ele>161.0</ele><time>2026-04-06T13:08:36Z</time></trkpt><trkpt lat="45.947841641373174" lon="12.279024460246953"><ele>161.0</ele><time>2026-04-06T13:08:37Z</time></trkpt><trkpt lat="45.94767598657531" lon="12.278942276222837"><ele>161.0</ele><time>2026-04-06T13:08:38Z</time></trkpt><trkpt lat="45.94749977301879" lon="12.278858741671355"><ele>161.0</ele><time>2026-04-06T13:08:39Z</time></trkpt><trkpt lat="45.9473198724952" lon="12.278735022597875"><ele>160.0</ele><time>2026-04-06T13:08:40Z</time></trkpt><trkpt lat="45.947129700110345" lon="12.27861077673208"><ele>159.0</ele><time>2026-04-06T13:08:41Z</time></trkpt><trkpt lat="45.94693142017892" lon="12.278483013606387"><ele>158.0</ele><time>2026-04-06T13:08:42Z</time></trkpt><trkpt lat="45.94672581815101" lon="12.278355729755257"><ele>156.33333333333331</ele><time>2026-04-06T13:08:43Z</time></trkpt><trkpt lat="45.94653301531789" lon="12.278233933598587"><ele>154.66666666666666</ele><time>2026-04-06T13:08:44Z</time></trkpt><trkpt lat="45.94634660277719" lon="12.27811439932967"><ele>153.0</ele><time>2026-04-06T13:08:45Z</time></trkpt><trkpt lat="45.9461653308934" lon="12.277998857272273"><ele>152.0</ele><time>2026-04-06T13:08:46Z</time></trkpt><trkpt lat="45.94598944922263" lon="12.277884451919284"><ele>151.0</ele><time>2026-04-06T13:08:47Z</time></trkpt><trkpt lat="45.94581852033805" lon="12.277767884380776"><ele>150.0</ele><time>2026-04-06T13:08:48Z</time></trkpt><trkpt lat="45.94564871071787" lon="12.277638628677337"><ele>148.66666666666666</ele><time>2026-04-06T13:08:49Z</time></trkpt><trkpt lat="45.94547803642779" lon="12.277488737247095"><ele>147.33333333333331</ele><time>2026-04-06T13:08:50Z</time></trkpt><trkpt lat="45.94530341843401" lon="12.277330733943328"><ele>146.0</ele><time>2026-04-06T13:08:51Z</time></trkpt><trkpt lat="45.94512190046183" lon="12.277175597761634"><ele>144.33333333333331</ele><time>2026-04-06T13:08:52Z</time></trkpt><trkpt lat="45.944935402998425" lon="12.277019240723384"><ele>142.66666666666666</ele><time>2026-04-06T13:08:53Z</time></trkpt><trkpt lat="45.94474750694654" lon="12.276862850865154"><ele>141.0</ele><time>2026-04-06T13:08:54Z</time></trkpt><trkpt lat="45.94455805158998" lon="12.276703025461902"><ele>141.0</ele><time>2026-04-06T13:08:55Z</time></trkpt><trkpt lat="45.94436721765202" lon="12.276543265335924"><ele>141.0</ele><time>2026-04-06T13:08:56Z</time></trkpt><trkpt lat="45.944175989934145" lon="12.27638548612372"><ele>141.0</ele><time>2026-04-06T13:08:57Z</time></trkpt><trkpt lat="45.94398481662625" lon="12.276229647239557"><ele>139.0</ele><time>2026-04-06T13:08:58Z</time></trkpt><trkpt lat="45.94379491493435" lon="12.276069487854786"><ele>137.0</ele><time>2026-04-06T13:08:59Z</time></trkpt><trkpt lat="45.943605710575255" lon="12.275907543180395"><ele>135.0</ele><time>2026-04-06T13:09:00Z</time></trkpt><trkpt lat="45.94341684575701" lon="12.275744599988045"><ele>131.33333333333334</ele><time>2026-04-06T13:09:01Z</time></trkpt><trkpt lat="45.943227712974696" lon="12.275581196611427"><ele>127.66666666666667</ele><time>2026-04-06T13:09:02Z</time></trkpt><trkpt lat="45.94304205363556" lon="12.27542527973688"><ele>124.0</ele><time>2026-04-06T13:09:03Z</time></trkpt><trkpt lat="45.94286235681822" lon="12.275273282936425"><ele>124.0</ele><time>2026-04-06T13:09:04Z</time></trkpt><trkpt lat="45.94268757668919" lon="12.27512046430214"><ele>124.0</ele><time>2026-04-06T13:09:05Z</time></trkpt><trkpt lat="45.94251429522881" lon="12.274971093529095"><ele>124.0</ele><time>2026-04-06T13:09:06Z</time></trkpt><trkpt lat="45.94233729599441" lon="12.274824424907354"><ele>121.66666666666667</ele><time>2026-04-06T13:09:07Z</time></trkpt><trkpt lat="45.942157441489705" lon="12.274685224947955"><ele>119.33333333333334</ele><time>2026-04-06T13:09:08Z</time></trkpt><trkpt lat="45.941964956655966" lon="12.27456807096174"><ele>117.0</ele><time>2026-04-06T13:09:09Z</time></trkpt><trkpt lat="45.94176299504024" lon="12.274440082550978"><ele>117.0</ele><time>2026-04-06T13:09:10Z</time></trkpt><trkpt lat="45.94155921448" lon="12.274338931594196"><ele>117.0</ele><time>2026-04-06T13:09:11Z</time></trkpt><trkpt lat="45.941359842570975" lon="12.274265481573245"><ele>117.0</ele><time>2026-04-06T13:09:12Z</time></trkpt><trkpt lat="45.94117468711472" lon="12.274152289869022"><ele>117.0</ele><time>2026-04-06T13:09:13Z</time></trkpt><trkpt lat="45.94099088641845" lon="12.27406228338907"><ele>117.0</ele><time>2026-04-06T13:09:14Z</time></trkpt><trkpt lat="45.94083067650938" lon="12.274001428691498"><ele>117.0</ele><time>2026-04-06T13:09:15Z</time></trkpt><trkpt lat="45.94070215153568" lon="12.273915043294963"><ele>115.25</ele><time>2026-04-06T13:09:16Z</time></trkpt><trkpt lat="45.94059302650743" lon="12.273782151038287"><ele>113.5</ele><time>2026-04-06T13:09:17Z</time></trkpt><trkpt lat="45.94050288662295" lon="12.273620001934187"><ele>111.75</ele><time>2026-04-06T13:09:18Z</time></trkpt><trkpt lat="45.940442004706306" lon="12.273430587715021"><ele>110.0</ele><time>2026-04-06T13:09:19Z</time></trkpt><trkpt lat="45.940416389955814" lon="12.273222677767732"><ele>107.66666666666666</ele><time>2026-04-06T13:09:20Z</time></trkpt><trkpt lat="45.940432486250934" lon="12.273009210965629"><ele>105.33333333333334</ele><time>2026-04-06T13:09:21Z</time></trkpt><trkpt lat="45.94048692548343" lon="12.272801112168734"><ele>103.0</ele><time>2026-04-06T13:09:22Z</time></trkpt><trkpt lat="45.94058161054031" lon="12.272606834620333"><ele>103.0</ele><time>2026-04-06T13:09:23Z</time></trkpt><trkpt lat="45.940692532278604" lon="12.272409966069679"><ele>103.0</ele><time>2026-04-06T13:09:24Z</time></trkpt><trkpt lat="45.94080706046966" lon="12.2721982398538"><ele>103.0</ele><time>2026-04-06T13:09:25Z</time></trkpt><trkpt lat="45.94091578472394" lon="12.271959718732894"><ele>103.33333333333334</ele><time>2026-04-06T13:09:26Z</time></trkpt><trkpt lat="45.941035153955774" lon="12.271717142472804"><ele>103.66666666666666</ele><time>2026-04-06T13:09:27Z</time></trkpt><trkpt lat="45.94116142576206" lon="12.271468283375878"><ele>104.0</ele><time>2026-04-06T13:09:28Z</time></trkpt><trkpt lat="45.941288939365926" lon="12.271214430910298"><ele>104.33333333333333</ele><time>2026-04-06T13:09:29Z</time></trkpt><trkpt lat="45.94141863190215" lon="12.270955215318097"><ele>104.66666666666666</ele><time>2026-04-06T13:09:30Z</time></trkpt><trkpt lat="45.94154679481133" lon="12.270687763323844"><ele>105.0</ele><time>2026-04-06T13:09:31Z</time></trkpt><trkpt lat="45.94167785798894" lon="12.270425324294937"><ele>111.5</ele><time>2026-04-06T13:09:32Z</time></trkpt><trkpt lat="45.941810384463935" lon="12.27015687779941"><ele>118.0</ele><time>2026-04-06T13:09:33Z</time></trkpt><trkpt lat="45.94194343954513" lon="12.269887294615208"><ele>116.0</ele><time>2026-04-06T13:09:34Z</time></trkpt><trkpt lat="45.94207945730883" lon="12.269615880645365"><ele>114.0</ele><time>2026-04-06T13:09:35Z</time></trkpt><trkpt lat="45.942214139199294" lon="12.269340486451012"><ele>114.0</ele><time>2026-04-06T13:09:36Z</time></trkpt><trkpt lat="45.94234982098908" lon="12.269061031727297"><ele>114.0</ele><time>2026-04-06T13:09:37Z</time></trkpt><trkpt lat="45.94249007973857" lon="12.268777225641603"><ele>116.0</ele><time>2026-04-06T13:09:38Z</time></trkpt><trkpt lat="45.9426275854878" lon="12.268499898978531"><ele>118.0</ele><time>2026-04-06T13:09:39Z</time></trkpt><trkpt lat="45.942762590254794" lon="12.268229739291103"><ele>116.0</ele><time>2026-04-06T13:09:40Z</time></trkpt><trkpt lat="45.94289522747918" lon="12.267963470599158"><ele>114.0</ele><time>2026-04-06T13:09:41Z</time></trkpt><trkpt lat="45.94302377305459" lon="12.267700794297635"><ele>114.0</ele><time>2026-04-06T13:09:42Z</time></trkpt><trkpt lat="45.943151610827364" lon="12.267443940038907"><ele>114.0</ele><time>2026-04-06T13:09:43Z</time></trkpt><trkpt lat="45.94327548303803" lon="12.26719891034153"><ele>114.0</ele><time>2026-04-06T13:09:44Z</time></trkpt><trkpt lat="45.94339424430063" lon="12.266953768748786"><ele>115.66666666666666</ele><time>2026-04-06T13:09:45Z</time></trkpt><trkpt lat="45.94350709874703" lon="12.266694463220167"><ele>117.33333333333333</ele><time>2026-04-06T13:09:46Z</time></trkpt><trkpt lat="45.94360571436567" lon="12.26641495489697"><ele>119.0</ele><time>2026-04-06T13:09:47Z</time></trkpt><trkpt lat="45.94369445258326" lon="12.266114780468525"><ele>119.0</ele><time>2026-04-06T13:09:48Z</time></trkpt><trkpt lat="45.94377889520552" lon="12.26579643859758"><ele>119.0</ele><time>2026-04-06T13:09:49Z</time></trkpt><trkpt lat="45.9438667687367" lon="12.265474919576212"><ele>120.0</ele><time>2026-04-06T13:09:50Z</time></trkpt><trkpt lat="45.943960883191856" lon="12.265156159924327"><ele>121.0</ele><time>2026-04-06T13:09:51Z</time></trkpt><trkpt lat="45.94404874508539" lon="12.264849119588433"><ele>121.0</ele><time>2026-04-06T13:09:52Z</time></trkpt><trkpt lat="45.94413012768403" lon="12.264558664891027"><ele>121.0</ele><time>2026-04-06T13:09:53Z</time></trkpt><trkpt lat="45.94421576423983" lon="12.264286351443426"><ele>121.0</ele><time>2026-04-06T13:09:54Z</time></trkpt><trkpt lat="45.94431878824743" lon="12.2640245622922"><ele>122.33333333333334</ele><time>2026-04-06T13:09:55Z</time></trkpt><trkpt lat="45.944430529954076" lon="12.263776189142481"><ele>123.66666666666666</ele><time>2026-04-06T13:09:56Z</time></trkpt><trkpt lat="45.94453745504135" lon="12.26353700673912"><ele>125.0</ele><time>2026-04-06T13:09:57Z</time></trkpt><trkpt lat="45.944637469707764" lon="12.263313718735967"><ele>128.33333333333331</ele><time>2026-04-06T13:09:58Z</time></trkpt><trkpt lat="45.94472499124634" lon="12.263106598215305"><ele>131.66666666666666</ele><time>2026-04-06T13:09:59Z</time></trkpt><trkpt lat="45.9447964852212" lon="12.262896765808284"><ele>135.0</ele><time>2026-04-06T13:10:00Z</time></trkpt><trkpt lat="45.944842015727104" lon="12.262667094226"><ele>135.0</ele><time>2026-04-06T13:10:01Z</time></trkpt><trkpt lat="45.94485745344728" lon="12.262418332189705"><ele>135.0</ele><time>2026-04-06T13:10:02Z</time></trkpt><trkpt lat="45.94485718081606" lon="12.262158649925412"><ele>135.0</ele><time>2026-04-06T13:10:03Z</time></trkpt><trkpt lat="45.94485935267815" lon="12.261893164986756"><ele>137.33333333333334</ele><time>2026-04-06T13:10:04Z</time></trkpt><trkpt lat="45.94486736120053" lon="12.261624471820264"><ele>139.66666666666669</ele><time>2026-04-06T13:10:05Z</time></trkpt><trkpt lat="45.944880097557935" lon="12.261354750746571"><ele>142.0</ele><time>2026-04-06T13:10:06Z</time></trkpt><trkpt lat="45.944898467598584" lon="12.261095147697056"><ele>143.66666666666669</ele><time>2026-04-06T13:10:07Z</time></trkpt><trkpt lat="45.944932215912885" lon="12.260842369353677"><ele>145.33333333333334</ele><time>2026-04-06T13:10:08Z</time></trkpt><trkpt lat="45.944983787066384" lon="12.26059441299266"><ele>147.0</ele><time>2026-04-06T13:10:09Z</time></trkpt><trkpt lat="45.945064009920436" lon="12.26036739163945"><ele>150.0</ele><time>2026-04-06T13:10:10Z</time></trkpt><trkpt lat="45.945107110217975" lon="12.260134344295684"><ele>153.0</ele><time>2026-04-06T13:10:11Z</time></trkpt><trkpt lat="45.94515214463284" lon="12.259920019923271"><ele>156.0</ele><time>2026-04-06T13:10:12Z</time></trkpt><trkpt lat="45.945423135809975" lon="12.259827682586655"><ele>157.33333333333334</ele><time>2026-04-06T13:10:13Z</time></trkpt><trkpt lat="45.94555241775922" lon="12.259687821135309"><ele>158.66666666666669</ele><time>2026-04-06T13:10:14Z</time></trkpt><trkpt lat="45.94567363696722" lon="12.259537964788905"><ele>160.0</ele><time>2026-04-06T13:10:15Z</time></trkpt><trkpt lat="45.945781189024125" lon="12.259381331955314"><ele>160.0</ele><time>2026-04-06T13:10:16Z</time></trkpt><trkpt lat="45.94586528000348" lon="12.259211706896375"><ele>160.0</ele><time>2026-04-06T13:10:17Z</time></trkpt><trkpt lat="45.94592402417888" lon="12.259026625817476"><ele>160.0</ele><time>2026-04-06T13:10:18Z</time></trkpt><trkpt lat="45.945961207672084" lon="12.258834445081554"><ele>160.0</ele><time>2026-04-06T13:10:19Z</time></trkpt><trkpt lat="45.9459868374406" lon="12.25864027041909"><ele>160.25</ele><time>2026-04-06T13:10:20Z</time></trkpt><trkpt lat="45.945994762804396" lon="12.258448671402718"><ele>160.5</ele><time>2026-04-06T13:10:21Z</time></trkpt><trkpt lat="45.94597535228918" lon="12.258265540370193"><ele>160.75</ele><time>2026-04-06T13:10:22Z</time></trkpt><trkpt lat="45.94593346146043" lon="12.258085172239376"><ele>161.0</ele><time>2026-04-06T13:10:23Z</time></trkpt><trkpt lat="45.94587803496206" lon="12.257883731663034"><ele>159.33333333333331</ele><time>2026-04-06T13:10:24Z</time></trkpt><trkpt lat="45.945829529947105" lon="12.257682491990913"><ele>157.66666666666666</ele><time>2026-04-06T13:10:25Z</time></trkpt><trkpt lat="45.94578780682596" lon="12.257472142427172"><ele>156.0</ele><time>2026-04-06T13:10:26Z</time></trkpt><trkpt lat="45.945745536570804" lon="12.257252482648214"><ele>154.33333333333334</ele><time>2026-04-06T13:10:27Z</time></trkpt><trkpt lat="45.94570006724343" lon="12.257026751399458"><ele>152.66666666666669</ele><time>2026-04-06T13:10:28Z</time></trkpt><trkpt lat="45.945649305763176" lon="12.256794301643986"><ele>151.0</ele><time>2026-04-06T13:10:29Z</time></trkpt><trkpt lat="45.94559682961206" lon="12.25655735173472"><ele>150.66666666666669</ele><time>2026-04-06T13:10:30Z</time></trkpt><trkpt lat="45.945542817853486" lon="12.256303507013113"><ele>150.33333333333334</ele><time>2026-04-06T13:10:31Z</time></trkpt><trkpt lat="45.945478975093664" lon="12.256020185049914"><ele>150.0</ele><time>2026-04-06T13:10:32Z</time></trkpt><trkpt lat="45.945412827545276" lon="12.255727711517144"><ele>149.66666666666666</ele><time>2026-04-06T13:10:33Z</time></trkpt><trkpt lat="45.94535689080502" lon="12.255438205817308"><ele>149.33333333333331</ele><time>2026-04-06T13:10:34Z</time></trkpt><trkpt lat="45.94530471928052" lon="12.255159194893707"><ele>149.0</ele><time>2026-04-06T13:10:35Z</time></trkpt><trkpt lat="45.94524370068843" lon="12.254891024505586"><ele>148.0</ele><time>2026-04-06T13:10:36Z</time></trkpt><trkpt lat="45.94518046645989" lon="12.25462448062473"><ele>147.0</ele><time>2026-04-06T13:10:37Z</time></trkpt><trkpt lat="45.94511379536155" lon="12.254361260795656"><ele>146.0</ele><time>2026-04-06T13:10:38Z</time></trkpt><trkpt lat="45.94503349016918" lon="12.254107326370125"><ele>145.66666666666666</ele><time>2026-04-06T13:10:39Z</time></trkpt><trkpt lat="45.944929759639535" lon="12.253869788134478"><ele>145.33333333333334</ele><time>2026-04-06T13:10:40Z</time></trkpt><trkpt lat="45.94480100494826" lon="12.253655166444585"><ele>145.0</ele><time>2026-04-06T13:10:41Z</time></trkpt><trkpt lat="45.944649731331424" lon="12.253456639824556"><ele>145.0</ele><time>2026-04-06T13:10:42Z</time></trkpt><trkpt lat="45.94448048227488" lon="12.25327435075391"><ele>145.0</ele><time>2026-04-06T13:10:43Z</time></trkpt><trkpt lat="45.94429535155925" lon="12.25309904992526"><ele>145.0</ele><time>2026-04-06T13:10:44Z</time></trkpt><trkpt lat="45.94411106961547" lon="12.252930814022896"><ele>144.0</ele><time>2026-04-06T13:10:45Z</time></trkpt><trkpt lat="45.94393711938275" lon="12.252767236171021"><ele>143.0</ele><time>2026-04-06T13:10:46Z</time></trkpt><trkpt lat="45.94378234930436" lon="12.252614051910838"><ele>142.0</ele><time>2026-04-06T13:10:47Z</time></trkpt><trkpt lat="45.9436466389382" lon="12.252465696869354"><ele>143.33333333333334</ele><time>2026-04-06T13:10:48Z</time></trkpt><trkpt lat="45.9435341463191" lon="12.252286039076912"><ele>144.66666666666666</ele><time>2026-04-06T13:10:49Z</time></trkpt><trkpt lat="45.94344902264613" lon="12.252070775751948"><ele>146.0</ele><time>2026-04-06T13:10:50Z</time></trkpt><trkpt lat="45.9433775918198" lon="12.251828657343458"><ele>143.0</ele><time>2026-04-06T13:10:51Z</time></trkpt><trkpt lat="45.94333131184759" lon="12.251557119577225"><ele>140.0</ele><time>2026-04-06T13:10:52Z</time></trkpt><trkpt lat="45.943305504859794" lon="12.251262713189305"><ele>137.0</ele><time>2026-04-06T13:10:53Z</time></trkpt><trkpt lat="45.943284436746666" lon="12.250949982846006"><ele>135.5</ele><time>2026-04-06T13:10:54Z</time></trkpt><trkpt lat="45.94326003703634" lon="12.250623406335452"><ele>134.0</ele><time>2026-04-06T13:10:55Z</time></trkpt><trkpt lat="45.94324079445966" lon="12.25028397577035"><ele>134.0</ele><time>2026-04-06T13:10:56Z</time></trkpt><trkpt lat="45.94322811166627" lon="12.249929738384752"><ele>134.0</ele><time>2026-04-06T13:10:57Z</time></trkpt><trkpt lat="45.943218665948194" lon="12.249567302219749"><ele>133.0</ele><time>2026-04-06T13:10:58Z</time></trkpt><trkpt lat="45.9432058879874" lon="12.249202441629587"><ele>132.0</ele><time>2026-04-06T13:10:59Z</time></trkpt><trkpt lat="45.94319471670232" lon="12.24884547321611"><ele>131.0</ele><time>2026-04-06T13:11:00Z</time></trkpt><trkpt lat="45.94318468399129" lon="12.248496891226607"><ele>130.0</ele><time>2026-04-06T13:11:01Z</time></trkpt><trkpt lat="45.943178750972486" lon="12.248162802827549"><ele>129.66666666666669</ele><time>2026-04-06T13:11:02Z</time></trkpt><trkpt lat="45.9431763178111" lon="12.247852807031476"><ele>129.33333333333334</ele><time>2026-04-06T13:11:03Z</time></trkpt><trkpt lat="45.943168041544524" lon="12.247574045981313"><ele>129.0</ele><time>2026-04-06T13:11:04Z</time></trkpt><trkpt lat="45.943141244252516" lon="12.247309667802135"><ele>130.0</ele><time>2026-04-06T13:11:05Z</time></trkpt><trkpt lat="45.943090379323124" lon="12.247064606883482"><ele>131.0</ele><time>2026-04-06T13:11:06Z</time></trkpt><trkpt lat="45.9430109544685" lon="12.246826470679672"><ele>132.0</ele><time>2026-04-06T13:11:07Z</time></trkpt><trkpt lat="45.94291406754847" lon="12.24660027635217"><ele>131.66666666666666</ele><time>2026-04-06T13:11:08Z</time></trkpt><trkpt lat="45.94281032697628" lon="12.246377546516321"><ele>131.33333333333331</ele><time>2026-04-06T13:11:09Z</time></trkpt><trkpt lat="45.94271491250934" lon="12.246153500472884"><ele>131.0</ele><time>2026-04-06T13:11:10Z</time></trkpt><trkpt lat="45.9426243641197" lon="12.245924042594085"><ele>130.66666666666666</ele><time>2026-04-06T13:11:11Z</time></trkpt><trkpt lat="45.94252880985349" lon="12.245692093473888"><ele>130.33333333333334</ele><time>2026-04-06T13:11:12Z</time></trkpt><trkpt lat="45.94242937517536" lon="12.245455879143586"><ele>130.0</ele><time>2026-04-06T13:11:13Z</time></trkpt><trkpt lat="45.94233024224297" lon="12.245225635319002"><ele>130.0</ele><time>2026-04-06T13:11:14Z</time></trkpt><trkpt lat="45.94223240621323" lon="12.244995880164254"><ele>130.0</ele><time>2026-04-06T13:11:15Z</time></trkpt><trkpt lat="45.94213559277674" lon="12.24476917933268"><ele>130.0</ele><time>2026-04-06T13:11:16Z</time></trkpt><trkpt lat="45.94204056059599" lon="12.244547930356486"><ele>130.0</ele><time>2026-04-06T13:11:17Z</time></trkpt><trkpt lat="45.941950379921224" lon="12.244336020742237"><ele>130.0</ele><time>2026-04-06T13:11:18Z</time></trkpt><trkpt lat="45.941865439437514" lon="12.244134526442132"><ele>130.0</ele><time>2026-04-06T13:11:19Z</time></trkpt><trkpt lat="45.9417886594399" lon="12.243948774049692"><ele>129.5</ele><time>2026-04-06T13:11:20Z</time></trkpt><trkpt lat="45.94171580589882" lon="12.24377429524973"><ele>129.0</ele><time>2026-04-06T13:11:21Z</time></trkpt><trkpt lat="45.941648854440494" lon="12.243622002318197"><ele>128.5</ele><time>2026-04-06T13:11:22Z</time></trkpt><trkpt lat="45.94158733370733" lon="12.243479358573982"><ele>128.0</ele><time>2026-04-06T13:11:23Z</time></trkpt><trkpt lat="45.94153340673237" lon="12.243343306539936"><ele>127.66666666666666</ele><time>2026-04-06T13:11:24Z</time></trkpt><trkpt lat="45.94148447825917" lon="12.243223594582284"><ele>127.33333333333333</ele><time>2026-04-06T13:11:25Z</time></trkpt><trkpt lat="45.941445073574954" lon="12.243119634214533"><ele>127.0</ele><time>2026-04-06T13:11:26Z</time></trkpt><trkpt lat="45.94141504097454" lon="12.243011843340893"><ele>126.66666666666666</ele><time>2026-04-06T13:11:27Z</time></trkpt><trkpt lat="45.94140363193704" lon="12.242904039974649"><ele>126.33333333333333</ele><time>2026-04-06T13:11:28Z</time></trkpt><trkpt lat="45.94140801520465" lon="12.242786489998647"><ele>126.0</ele><time>2026-04-06T13:11:29Z</time></trkpt><trkpt lat="45.94142738542813" lon="12.242663723353743"><ele>126.0</ele><time>2026-04-06T13:11:30Z</time></trkpt><trkpt lat="45.94142594237109" lon="12.242537013673385"><ele>126.0</ele><time>2026-04-06T13:11:31Z</time></trkpt><trkpt lat="45.94154400458972" lon="12.242451210937535"><ele>126.0</ele><time>2026-04-06T13:11:32Z</time></trkpt><trkpt lat="45.941643795820376" lon="12.24235555040704"><ele>126.0</ele><time>2026-04-06T13:11:33Z</time></trkpt><trkpt lat="45.94176107618219" lon="12.242256859441781"><ele>126.33333333333334</ele><time>2026-04-06T13:11:34Z</time></trkpt><trkpt lat="45.94188856932653" lon="12.24214473406267"><ele>126.66666666666667</ele><time>2026-04-06T13:11:35Z</time></trkpt><trkpt lat="45.94202790707461" lon="12.24202069847023"><ele>127.0</ele><time>2026-04-06T13:11:36Z</time></trkpt><trkpt lat="45.94218012628852" lon="12.241888746783834"><ele>127.0</ele><time>2026-04-06T13:11:37Z</time></trkpt><trkpt lat="45.94234222732941" lon="12.241752534140469"><ele>127.0</ele><time>2026-04-06T13:11:38Z</time></trkpt><trkpt lat="45.94250035508759" lon="12.24161709639581"><ele>127.0</ele><time>2026-04-06T13:11:39Z</time></trkpt><trkpt lat="45.942671114260584" lon="12.241473083390654"><ele>128.0</ele><time>2026-04-06T13:11:40Z</time></trkpt><trkpt lat="45.94284921184314" lon="12.241324163825722"><ele>129.0</ele><time>2026-04-06T13:11:41Z</time></trkpt><trkpt lat="45.943035833646285" lon="12.241172957067185"><ele>130.0</ele><time>2026-04-06T13:11:42Z</time></trkpt><trkpt lat="45.94322787961955" lon="12.241022189861669"><ele>130.0</ele><time>2026-04-06T13:11:43Z</time></trkpt><trkpt lat="45.943424607627165" lon="12.24087613195028"><ele>130.0</ele><time>2026-04-06T13:11:44Z</time></trkpt><trkpt lat="45.94362717915179" lon="12.240736889131988"><ele>130.0</ele><time>2026-04-06T13:11:45Z</time></trkpt><trkpt lat="45.94383394680834" lon="12.240607162446757"><ele>130.0</ele><time>2026-04-06T13:11:46Z</time></trkpt><trkpt lat="45.94403911388637" lon="12.240483032101947"><ele>130.0</ele><time>2026-04-06T13:11:47Z</time></trkpt><trkpt lat="45.94424048402107" lon="12.240372851514168"><ele>130.0</ele><time>2026-04-06T13:11:48Z</time></trkpt><trkpt lat="45.94443436676646" lon="12.240278314213802"><ele>130.66666666666669</ele><time>2026-04-06T13:11:49Z</time></trkpt><trkpt lat="45.94461788167338" lon="12.240189381311549"><ele>131.33333333333334</ele><time>2026-04-06T13:11:50Z</time></trkpt><trkpt lat="45.94479283038519" lon="12.24010924615209"><ele>132.0</ele><time>2026-04-06T13:11:51Z</time></trkpt><trkpt lat="45.944961722635036" lon="12.24003456391733"><ele>132.33333333333334</ele><time>2026-04-06T13:11:52Z</time></trkpt><trkpt lat="45.94512726648815" lon="12.239959520656779"><ele>132.66666666666669</ele><time>2026-04-06T13:11:53Z</time></trkpt><trkpt lat="45.94528932395423" lon="12.23988725872714"><ele>133.0</ele><time>2026-04-06T13:11:54Z</time></trkpt><trkpt lat="45.94544954361462" lon="12.239815962498273"><ele>133.33333333333334</ele><time>2026-04-06T13:11:55Z</time></trkpt><trkpt lat="45.945605396531505" lon="12.239746879247194"><ele>133.66666666666666</ele><time>2026-04-06T13:11:56Z</time></trkpt><trkpt lat="45.9457591032701" lon="12.239679943693673"><ele>134.0</ele><time>2026-04-06T13:11:57Z</time></trkpt><trkpt lat="45.94591018821072" lon="12.239617306907329"><ele>134.66666666666666</ele><time>2026-04-06T13:11:58Z</time></trkpt><trkpt lat="45.94606093251882" lon="12.239554011237567"><ele>135.33333333333334</ele><time>2026-04-06T13:11:59Z</time></trkpt><trkpt lat="45.94620650540883" lon="12.239487142649565"><ele>136.0</ele><time>2026-04-06T13:12:00Z</time></trkpt><trkpt lat="45.94634771684962" lon="12.239415988773318"><ele>136.0</ele><time>2026-04-06T13:12:01Z</time></trkpt><trkpt lat="45.94649245288886" lon="12.239338523942271"><ele>136.0</ele><time>2026-04-06T13:12:02Z</time></trkpt><trkpt lat="45.94663313763899" lon="12.239257673505444"><ele>136.0</ele><time>2026-04-06T13:12:03Z</time></trkpt><trkpt lat="45.94676584028241" lon="12.239168327048361"><ele>136.5</ele><time>2026-04-06T13:12:04Z</time></trkpt><trkpt lat="45.94689766139226" lon="12.239076150492462"><ele>137.0</ele><time>2026-04-06T13:12:05Z</time></trkpt><trkpt lat="45.94702815725568" lon="12.238972884139764"><ele>137.5</ele><time>2026-04-06T13:12:06Z</time></trkpt><trkpt lat="45.947157791805154" lon="12.238863413975054"><ele>138.0</ele><time>2026-04-06T13:12:07Z</time></trkpt><trkpt lat="45.947284764909206" lon="12.238755005346361"><ele>138.0</ele><time>2026-04-06T13:12:08Z</time></trkpt><trkpt lat="45.947418675884116" lon="12.238636866174218"><ele>138.0</ele><time>2026-04-06T13:12:09Z</time></trkpt><trkpt lat="45.94756165352819" lon="12.23850600911631"><ele>138.0</ele><time>2026-04-06T13:12:10Z</time></trkpt><trkpt lat="45.94771582152233" lon="12.238368315681186"><ele>138.33333333333334</ele><time>2026-04-06T13:12:11Z</time></trkpt><trkpt lat="45.94787494128193" lon="12.238237472700309"><ele>138.66666666666669</ele><time>2026-04-06T13:12:12Z</time></trkpt><trkpt lat="45.94803076401438" lon="12.238106316049095"><ele>139.0</ele><time>2026-04-06T13:12:13Z</time></trkpt><trkpt lat="45.948180812813604" lon="12.237975433963456"><ele>139.33333333333334</ele><time>2026-04-06T13:12:14Z</time></trkpt><trkpt lat="45.94831949270206" lon="12.237838538220222"><ele>139.66666666666666</ele><time>2026-04-06T13:12:15Z</time></trkpt><trkpt lat="45.94845901241037" lon="12.237704275505642"><ele>140.0</ele><time>2026-04-06T13:12:16Z</time></trkpt><trkpt lat="45.94860316159738" lon="12.237583053162886"><ele>141.0</ele><time>2026-04-06T13:12:17Z</time></trkpt><trkpt lat="45.94873870234268" lon="12.237479008607593"><ele>142.0</ele><time>2026-04-06T13:12:18Z</time></trkpt><trkpt lat="45.94886606849979" lon="12.237379584784424"><ele>143.0</ele><time>2026-04-06T13:12:19Z</time></trkpt><trkpt lat="45.948985354487945" lon="12.237285515697616"><ele>144.0</ele><time>2026-04-06T13:12:20Z</time></trkpt><trkpt lat="45.94910419082883" lon="12.237188196692696"><ele>144.8</ele><time>2026-04-06T13:12:21Z</time></trkpt><trkpt lat="45.94921114254877" lon="12.237088364632449"><ele>145.60000000000002</ele><time>2026-04-06T13:12:22Z</time></trkpt><trkpt lat="45.949299025419144" lon="12.237012757412923"><ele>146.4</ele><time>2026-04-06T13:12:23Z</time></trkpt><trkpt lat="45.94937275487764" lon="12.236943243358706"><ele>147.20000000000002</ele><time>2026-04-06T13:12:24Z</time></trkpt><trkpt lat="45.949445469787356" lon="12.236876600044527"><ele>148.0</ele><time>2026-04-06T13:12:25Z</time></trkpt><trkpt lat="45.949523379470385" lon="12.236818869868092"><ele>148.0</ele><time>2026-04-06T13:12:26Z</time></trkpt><trkpt lat="45.94960377821464" lon="12.236757398062226"><ele>148.0</ele><time>2026-04-06T13:12:27Z</time></trkpt><trkpt lat="45.94969002725052" lon="12.236692823180062"><ele>148.0</ele><time>2026-04-06T13:12:28Z</time></trkpt><trkpt lat="45.949785756030124" lon="12.236636650749876"><ele>148.0</ele><time>2026-04-06T13:12:29Z</time></trkpt><trkpt lat="45.94988793818799" lon="12.23659094071952"><ele>148.0</ele><time>2026-04-06T13:12:30Z</time></trkpt><trkpt lat="45.949984788374344" lon="12.236527293133049"><ele>148.5</ele><time>2026-04-06T13:12:31Z</time></trkpt><trkpt lat="45.95008320665331" lon="12.236448759280536"><ele>149.0</ele><time>2026-04-06T13:12:32Z</time></trkpt><trkpt lat="45.95019976551119" lon="12.236362678600765"><ele>149.5</ele><time>2026-04-06T13:12:33Z</time></trkpt><trkpt lat="45.950329885088166" lon="12.236280297901207"><ele>150.0</ele><time>2026-04-06T13:12:34Z</time></trkpt><trkpt lat="45.95046912304781" lon="12.236214408681569"><ele>150.0</ele><time>2026-04-06T13:12:35Z</time></trkpt><trkpt lat="45.95060583585785" lon="12.236162095901715"><ele>150.0</ele><time>2026-04-06T13:12:36Z</time></trkpt><trkpt lat="45.95073907073921" lon="12.236108742998628"><ele>150.0</ele><time>2026-04-06T13:12:37Z</time></trkpt><trkpt lat="45.950866286867765" lon="12.236039451278454"><ele>150.0</ele><time>2026-04-06T13:12:38Z</time></trkpt><trkpt lat="45.95098818829962" lon="12.235959334166536"><ele>150.0</ele><time>2026-04-06T13:12:39Z</time></trkpt><trkpt lat="45.95111065796032" lon="12.235875449488981"><ele>150.0</ele><time>2026-04-06T13:12:40Z</time></trkpt><trkpt lat="45.951224571773025" lon="12.235769401185705"><ele>150.0</ele><time>2026-04-06T13:12:41Z</time></trkpt><trkpt lat="45.95133226081192" lon="12.235640155114002"><ele>150.0</ele><time>2026-04-06T13:12:42Z</time></trkpt><trkpt lat="45.95142835895379" lon="12.23550355745551"><ele>150.5</ele><time>2026-04-06T13:12:43Z</time></trkpt><trkpt lat="45.951516305839746" lon="12.235358842624288"><ele>151.0</ele><time>2026-04-06T13:12:44Z</time></trkpt><trkpt lat="45.95159893053018" lon="12.235208499728165"><ele>151.5</ele><time>2026-04-06T13:12:45Z</time></trkpt><trkpt lat="45.95167978320942" lon="12.23506705479197"><ele>152.0</ele><time>2026-04-06T13:12:46Z</time></trkpt><trkpt lat="45.95176288779087" lon="12.234943685322463"><ele>152.2</ele><time>2026-04-06T13:12:47Z</time></trkpt><trkpt lat="45.95184673882617" lon="12.234832321609405"><ele>152.39999999999998</ele><time>2026-04-06T13:12:48Z</time></trkpt><trkpt lat="45.95192901626973" lon="12.23473672812362"><ele>152.60000000000002</ele><time>2026-04-06T13:12:49Z</time></trkpt><trkpt lat="45.95201531718789" lon="12.234651905860197"><ele>152.8</ele><time>2026-04-06T13:12:50Z</time></trkpt><trkpt lat="45.95210808820872" lon="12.23456736844541"><ele>153.0</ele><time>2026-04-06T13:12:51Z</time></trkpt><trkpt lat="45.95220984909297" lon="12.234475129172475"><ele>153.5</ele><time>2026-04-06T13:12:52Z</time></trkpt><trkpt lat="45.95231891156295" lon="12.234379141885482"><ele>154.0</ele><time>2026-04-06T13:12:53Z</time></trkpt><trkpt lat="45.95242844586672" lon="12.234278632685628"><ele>154.5</ele><time>2026-04-06T13:12:54Z</time></trkpt><trkpt lat="45.952543279694154" lon="12.234161704923164"><ele>155.0</ele><time>2026-04-06T13:12:55Z</time></trkpt><trkpt lat="45.95267259583501" lon="12.234048040207632"><ele>155.66666666666666</ele><time>2026-04-06T13:12:56Z</time></trkpt><trkpt lat="45.95281362111608" lon="12.233927482902201"><ele>156.33333333333334</ele><time>2026-04-06T13:12:57Z</time></trkpt><trkpt lat="45.95295713783214" lon="12.233824735054402"><ele>157.0</ele><time>2026-04-06T13:12:58Z</time></trkpt><trkpt lat="45.95309491314469" lon="12.233679302850058"><ele>157.0</ele><time>2026-04-06T13:12:59Z</time></trkpt><trkpt lat="45.95324384052333" lon="12.233562993235843"><ele>157.0</ele><time>2026-04-06T13:13:00Z</time></trkpt><trkpt lat="45.95339284143991" lon="12.233458545826192"><ele>157.0</ele><time>2026-04-06T13:13:01Z</time></trkpt><trkpt lat="45.953541023599016" lon="12.23334919297437"><ele>156.0</ele><time>2026-04-06T13:13:02Z</time></trkpt><trkpt lat="45.9536857480481" lon="12.233231828656121"><ele>155.0</ele><time>2026-04-06T13:13:03Z</time></trkpt><trkpt lat="45.953828539366576" lon="12.23310780050697"><ele>154.0</ele><time>2026-04-06T13:13:04Z</time></trkpt><trkpt lat="45.95397059800748" lon="12.232988639758561"><ele>154.33333333333334</ele><time>2026-04-06T13:13:05Z</time></trkpt><trkpt lat="45.95411160435129" lon="12.23287279463478"><ele>154.66666666666666</ele><time>2026-04-06T13:13:06Z</time></trkpt><trkpt lat="45.95424684090074" lon="12.232757927187611"><ele>155.0</ele><time>2026-04-06T13:13:07Z</time></trkpt><trkpt lat="45.95438152833544" lon="12.232643559215767"><ele>155.0</ele><time>2026-04-06T13:13:08Z</time></trkpt><trkpt lat="45.95451617308428" lon="12.232519887835446"><ele>155.0</ele><time>2026-04-06T13:13:09Z</time></trkpt><trkpt lat="45.95465105783538" lon="12.232384797280142"><ele>155.0</ele><time>2026-04-06T13:13:10Z</time></trkpt><trkpt lat="45.954780392127425" lon="12.232236694994288"><ele>154.66666666666666</ele><time>2026-04-06T13:13:11Z</time></trkpt><trkpt lat="45.95490594113386" lon="12.232079495762672"><ele>154.33333333333334</ele><time>2026-04-06T13:13:12Z</time></trkpt><trkpt lat="45.95503008294414" lon="12.231920146840666"><ele>154.0</ele><time>2026-04-06T13:13:13Z</time></trkpt><trkpt lat="45.955160459420405" lon="12.231757602085537"><ele>154.0</ele><time>2026-04-06T13:13:14Z</time></trkpt><trkpt lat="45.95529552743517" lon="12.231585880070586"><ele>154.0</ele><time>2026-04-06T13:13:15Z</time></trkpt><trkpt lat="45.955432273546265" lon="12.231408654780392"><ele>154.0</ele><time>2026-04-06T13:13:16Z</time></trkpt><trkpt lat="45.955567786408146" lon="12.231235181751085"><ele>154.66666666666669</ele><time>2026-04-06T13:13:17Z</time></trkpt><trkpt lat="45.95570177335935" lon="12.231065863125847"><ele>155.33333333333334</ele><time>2026-04-06T13:13:18Z</time></trkpt><trkpt lat="45.95583238769199" lon="12.230906234268678"><ele>156.0</ele><time>2026-04-06T13:13:19Z</time></trkpt><trkpt lat="45.95596092521279" lon="12.23075082557363"><ele>159.33333333333334</ele><time>2026-04-06T13:13:20Z</time></trkpt><trkpt lat="45.95609676822409" lon="12.230601278032523"><ele>162.66666666666669</ele><time>2026-04-06T13:13:21Z</time></trkpt><trkpt lat="45.95622879660873" lon="12.230443337075444"><ele>166.0</ele><time>2026-04-06T13:13:22Z</time></trkpt><trkpt lat="45.95635297180329" lon="12.230271087735144"><ele>166.0</ele><time>2026-04-06T13:13:23Z</time></trkpt><trkpt lat="45.95647887137273" lon="12.230094736637254"><ele>166.0</ele><time>2026-04-06T13:13:24Z</time></trkpt><trkpt lat="45.95660776742514" lon="12.22991426675707"><ele>166.0</ele><time>2026-04-06T13:13:25Z</time></trkpt><trkpt lat="45.95674283763383" lon="12.229738020665941"><ele>165.0</ele><time>2026-04-06T13:13:26Z</time></trkpt><trkpt lat="45.9568736332918" lon="12.229561712883"><ele>164.0</ele><time>2026-04-06T13:13:27Z</time></trkpt><trkpt lat="45.956992829950124" lon="12.229376762997807"><ele>163.0</ele><time>2026-04-06T13:13:28Z</time></trkpt><trkpt lat="45.95710076287059" lon="12.22918256400093"><ele>163.0</ele><time>2026-04-06T13:13:29Z</time></trkpt><trkpt lat="45.95720097749245" lon="12.228997904263393"><ele>163.0</ele><time>2026-04-06T13:13:30Z</time></trkpt><trkpt lat="45.95730191999882" lon="12.22881631152357"><ele>163.0</ele><time>2026-04-06T13:13:31Z</time></trkpt><trkpt lat="45.95740435388715" lon="12.228637652623844"><ele>163.33333333333334</ele><time>2026-04-06T13:13:32Z</time></trkpt><trkpt lat="45.957504915536134" lon="12.228464394263932"><ele>163.66666666666666</ele><time>2026-04-06T13:13:33Z</time></trkpt><trkpt lat="45.95760812232154" lon="12.228266297417152"><ele>164.0</ele><time>2026-04-06T13:13:34Z</time></trkpt><trkpt lat="45.95772110949963" lon="12.228048938247294"><ele>165.0</ele><time>2026-04-06T13:13:35Z</time></trkpt><trkpt lat="45.9578539605654" lon="12.22782137586409"><ele>166.0</ele><time>2026-04-06T13:13:36Z</time></trkpt><trkpt lat="45.95799845105827" lon="12.227601398414624"><ele>167.0</ele><time>2026-04-06T13:13:37Z</time></trkpt><trkpt lat="45.95813333437525" lon="12.227407135528477"><ele>167.66666666666666</ele><time>2026-04-06T13:13:38Z</time></trkpt><trkpt lat="45.9582696497516" lon="12.227245235066114"><ele>168.33333333333334</ele><time>2026-04-06T13:13:39Z</time></trkpt><trkpt lat="45.95840165729275" lon="12.227113015508076"><ele>169.0</ele><time>2026-04-06T13:13:40Z</time></trkpt><trkpt lat="45.95854162681171" lon="12.226995310203977"><ele>169.66666666666669</ele><time>2026-04-06T13:13:41Z</time></trkpt><trkpt lat="45.95868555399085" lon="12.22688186268644"><ele>170.33333333333334</ele><time>2026-04-06T13:13:42Z</time></trkpt><trkpt lat="45.95883368842554" lon="12.226766183149254"><ele>171.0</ele><time>2026-04-06T13:13:43Z</time></trkpt><trkpt lat="45.958987023477754" lon="12.226653168851744"><ele>171.0</ele><time>2026-04-06T13:13:44Z</time></trkpt><trkpt lat="45.95913811588542" lon="12.226535288424325"><ele>171.0</ele><time>2026-04-06T13:13:45Z</time></trkpt><trkpt lat="45.95928956842769" lon="12.226412641272454"><ele>171.0</ele><time>2026-04-06T13:13:46Z</time></trkpt><trkpt lat="45.95943802470259" lon="12.226294952566171"><ele>174.0</ele><time>2026-04-06T13:13:47Z</time></trkpt><trkpt lat="45.959581517182286" lon="12.226182879028297"><ele>177.0</ele><time>2026-04-06T13:13:48Z</time></trkpt><trkpt lat="45.959720098310825" lon="12.226072587850469"><ele>180.0</ele><time>2026-04-06T13:13:49Z</time></trkpt><trkpt lat="45.95985728260615" lon="12.225964338143307"><ele>180.0</ele><time>2026-04-06T13:13:50Z</time></trkpt><trkpt lat="45.96000481249284" lon="12.225882638918128"><ele>180.0</ele><time>2026-04-06T13:13:51Z</time></trkpt><trkpt lat="45.960166265157426" lon="12.225842596009494"><ele>180.0</ele><time>2026-04-06T13:13:52Z</time></trkpt><trkpt lat="45.96033867974659" lon="12.22582455071105"><ele>183.0</ele><time>2026-04-06T13:13:53Z</time></trkpt><trkpt lat="45.96051717474638" lon="12.225815131023847"><ele>186.0</ele><time>2026-04-06T13:13:54Z</time></trkpt><trkpt lat="45.96070310811923" lon="12.225816859103446"><ele>189.0</ele><time>2026-04-06T13:13:55Z</time></trkpt><trkpt lat="45.96089396369391" lon="12.2258198787155"><ele>191.0</ele><time>2026-04-06T13:13:56Z</time></trkpt><trkpt lat="45.96109332452899" lon="12.225821201067708"><ele>193.0</ele><time>2026-04-06T13:13:57Z</time></trkpt><trkpt lat="45.96129953586236" lon="12.225821749427269"><ele>195.0</ele><time>2026-04-06T13:13:58Z</time></trkpt><trkpt lat="45.96150810897182" lon="12.225824129431226"><ele>197.0</ele><time>2026-04-06T13:13:59Z</time></trkpt><trkpt lat="45.96172473828702" lon="12.225825408947005"><ele>199.0</ele><time>2026-04-06T13:14:00Z</time></trkpt><trkpt lat="45.96194909139901" lon="12.225821746825586"><ele>201.0</ele><time>2026-04-06T13:14:01Z</time></trkpt><trkpt lat="45.962175279984685" lon="12.225819605211184"><ele>201.0</ele><time>2026-04-06T13:14:02Z</time></trkpt><trkpt lat="45.962405965070346" lon="12.225820779301996"><ele>201.0</ele><time>2026-04-06T13:14:03Z</time></trkpt><trkpt lat="45.96263836990999" lon="12.225824770694564"><ele>202.5</ele><time>2026-04-06T13:14:04Z</time></trkpt><trkpt lat="45.962877376044844" lon="12.225830216052454"><ele>204.0</ele><time>2026-04-06T13:14:05Z</time></trkpt><trkpt lat="45.963108342653314" lon="12.225832856223251"><ele>204.0</ele><time>2026-04-06T13:14:06Z</time></trkpt><trkpt lat="45.96332104346654" lon="12.225834805119307"><ele>204.0</ele><time>2026-04-06T13:14:07Z</time></trkpt><trkpt lat="45.9635176295703" lon="12.22583431772009"><ele>204.0</ele><time>2026-04-06T13:14:08Z</time></trkpt><trkpt lat="45.96370177291328" lon="12.225834087010675"><ele>204.33333333333331</ele><time>2026-04-06T13:14:09Z</time></trkpt><trkpt lat="45.96386997676808" lon="12.225835229812969"><ele>204.66666666666666</ele><time>2026-04-06T13:14:10Z</time></trkpt><trkpt lat="45.96403721199319" lon="12.22583678767982"><ele>205.0</ele><time>2026-04-06T13:14:11Z</time></trkpt><trkpt lat="45.964199530087335" lon="12.22583345589219"><ele>206.25</ele><time>2026-04-06T13:14:12Z</time></trkpt><trkpt lat="45.964360225547395" lon="12.225823017158572"><ele>207.5</ele><time>2026-04-06T13:14:13Z</time></trkpt><trkpt lat="45.96450606601924" lon="12.225830523544811"><ele>208.75</ele><time>2026-04-06T13:14:14Z</time></trkpt><trkpt lat="45.96463959465047" lon="12.225842656055896"><ele>210.0</ele><time>2026-04-06T13:14:15Z</time></trkpt><trkpt lat="45.96476294366232" lon="12.225841594759217"><ele>210.0</ele><time>2026-04-06T13:14:16Z</time></trkpt><trkpt lat="45.96487881127785" lon="12.22584075207324"><ele>210.0</ele><time>2026-04-06T13:14:17Z</time></trkpt><trkpt lat="45.96498764742072" lon="12.225850679194583"><ele>210.0</ele><time>2026-04-06T13:14:18Z</time></trkpt><trkpt lat="45.965080622481935" lon="12.225918883585843"><ele>210.0</ele><time>2026-04-06T13:14:19Z</time></trkpt><trkpt lat="45.96516181664574" lon="12.226022067739697"><ele>210.0</ele><time>2026-04-06T13:14:20Z</time></trkpt><trkpt lat="45.96520764214882" lon="12.226169004714297"><ele>214.0</ele><time>2026-04-06T13:14:21Z</time></trkpt><trkpt lat="45.96521002607899" lon="12.22632270129273"><ele>218.0</ele><time>2026-04-06T13:14:22Z</time></trkpt><trkpt lat="45.9651805495507" lon="12.226468347646392"><ele>222.0</ele><time>2026-04-06T13:14:23Z</time></trkpt><trkpt lat="45.96513419969962" lon="12.226617300635143"><ele>226.0</ele><time>2026-04-06T13:14:24Z</time></trkpt><trkpt lat="45.965075800589545" lon="12.226775064516456"><ele>224.0</ele><time>2026-04-06T13:14:25Z</time></trkpt><trkpt lat="45.965024105689174" lon="12.22691360379826"><ele>222.0</ele><time>2026-04-06T13:14:26Z</time></trkpt><trkpt lat="45.96497531450488" lon="12.227062217509577"><ele>220.0</ele><time>2026-04-06T13:14:27Z</time></trkpt><trkpt lat="45.96493756772629" lon="12.227235023031385"><ele>218.0</ele><time>2026-04-06T13:14:28Z</time></trkpt><trkpt lat="45.96491541996971" lon="12.22742622412902"><ele>218.0</ele><time>2026-04-06T13:14:29Z</time></trkpt><trkpt lat="45.964907856489425" lon="12.22763069077892"><ele>218.0</ele><time>2026-04-06T13:14:30Z</time></trkpt><trkpt lat="45.96492236260053" lon="12.22782608631522"><ele>218.0</ele><time>2026-04-06T13:14:31Z</time></trkpt><trkpt lat="45.96496359378043" lon="12.227998384658079"><ele>218.0</ele><time>2026-04-06T13:14:32Z</time></trkpt><trkpt lat="45.965001229820125" lon="12.22815711531849"><ele>227.0</ele><time>2026-04-06T13:14:33Z</time></trkpt><trkpt lat="45.96504758701852" lon="12.228339628353693"><ele>236.0</ele><time>2026-04-06T13:14:34Z</time></trkpt><trkpt lat="45.96513904232101" lon="12.228524920308477"><ele>245.0</ele><time>2026-04-06T13:14:35Z</time></trkpt><trkpt lat="45.96524769510732" lon="12.228717078973421"><ele>245.0</ele><time>2026-04-06T13:14:36Z</time></trkpt><trkpt lat="45.96536628602455" lon="12.228917855606753"><ele>245.0</ele><time>2026-04-06T13:14:37Z</time></trkpt><trkpt lat="45.96549715801203" lon="12.229110052944861"><ele>245.0</ele><time>2026-04-06T13:14:38Z</time></trkpt><trkpt lat="45.965617583576275" lon="12.229308994524315"><ele>244.66666666666669</ele><time>2026-04-06T13:14:39Z</time></trkpt><trkpt lat="45.96575002165654" lon="12.229482206989198"><ele>244.33333333333331</ele><time>2026-04-06T13:14:40Z</time></trkpt><trkpt lat="45.965891966060724" lon="12.22962771202893"><ele>244.0</ele><time>2026-04-06T13:14:41Z</time></trkpt><trkpt lat="45.966042788761726" lon="12.229754752933298"><ele>239.33333333333331</ele><time>2026-04-06T13:14:42Z</time></trkpt><trkpt lat="45.966201497024535" lon="12.229857488871724"><ele>234.66666666666669</ele><time>2026-04-06T13:14:43Z</time></trkpt><trkpt lat="45.96636829923006" lon="12.229936995927057"><ele>230.0</ele><time>2026-04-06T13:14:44Z</time></trkpt><trkpt lat="45.966542149524734" lon="12.229991969947143"><ele>231.66666666666669</ele><time>2026-04-06T13:14:45Z</time></trkpt><trkpt lat="45.96672239195166" lon="12.230035614960862"><ele>233.33333333333331</ele><time>2026-04-06T13:14:46Z</time></trkpt><trkpt lat="45.966907539278544" lon="12.230075409476376"><ele>235.0</ele><time>2026-04-06T13:14:47Z</time></trkpt><trkpt lat="45.967094050514575" lon="12.230101343085142"><ele>235.0</ele><time>2026-04-06T13:14:48Z</time></trkpt><trkpt lat="45.96728335675917" lon="12.230107052560959"><ele>235.0</ele><time>2026-04-06T13:14:49Z</time></trkpt><trkpt lat="45.96747904666196" lon="12.230085108514023"><ele>235.0</ele><time>2026-04-06T13:14:50Z</time></trkpt><trkpt lat="45.96766489083858" lon="12.230032236657138"><ele>237.33333333333331</ele><time>2026-04-06T13:14:51Z</time></trkpt><trkpt lat="45.96782670662173" lon="12.229969411145886"><ele>239.66666666666669</ele><time>2026-04-06T13:14:52Z</time></trkpt><trkpt lat="45.9679714644435" lon="12.229928760646802"><ele>242.0</ele><time>2026-04-06T13:14:53Z</time></trkpt><trkpt lat="45.96810859523121" lon="12.229947251774263"><ele>242.0</ele><time>2026-04-06T13:14:54Z</time></trkpt><trkpt lat="45.96821906060151" lon="12.23001935283995"><ele>242.0</ele><time>2026-04-06T13:14:55Z</time></trkpt><trkpt lat="45.968298797047325" lon="12.230134859513605"><ele>242.0</ele><time>2026-04-06T13:14:56Z</time></trkpt><trkpt lat="45.96833216268976" lon="12.230291856198074"><ele>242.0</ele><time>2026-04-06T13:14:57Z</time></trkpt><trkpt lat="45.96837023275752" lon="12.230467362169735"><ele>245.0</ele><time>2026-04-06T13:14:58Z</time></trkpt><trkpt lat="45.96838410226661" lon="12.230658805812592"><ele>248.0</ele><time>2026-04-06T13:14:59Z</time></trkpt><trkpt lat="45.96843631686965" lon="12.23084155545759"><ele>251.0</ele><time>2026-04-06T13:15:00Z</time></trkpt><trkpt lat="45.96854126231738" lon="12.230974993411163"><ele>254.0</ele><time>2026-04-06T13:15:01Z</time></trkpt><trkpt lat="45.96865274919665" lon="12.231092017520101"><ele>254.0</ele><time>2026-04-06T13:15:02Z</time></trkpt><trkpt lat="45.96878866970499" lon="12.23116635447487"><ele>254.0</ele><time>2026-04-06T13:15:03Z</time></trkpt><trkpt lat="45.96892611864994" lon="12.231202239211813"><ele>254.0</ele><time>2026-04-06T13:15:04Z</time></trkpt><trkpt lat="45.969051139841504" lon="12.231216173621588"><ele>254.0</ele><time>2026-04-06T13:15:05Z</time></trkpt><trkpt lat="45.969168813917" lon="12.231266133105112"><ele>255.75</ele><time>2026-04-06T13:15:06Z</time></trkpt><trkpt lat="45.96927380803986" lon="12.23135314915668"><ele>257.5</ele><time>2026-04-06T13:15:07Z</time></trkpt><trkpt lat="45.969348317619634" lon="12.231484782279182"><ele>259.25</ele><time>2026-04-06T13:15:08Z</time></trkpt><trkpt lat="45.96938144439006" lon="12.231643264610678"><ele>261.0</ele><time>2026-04-06T13:15:09Z</time></trkpt><trkpt lat="45.96932260641045" lon="12.231799103374486"><ele>261.0</ele><time>2026-04-06T13:15:10Z</time></trkpt><trkpt lat="45.969294775476" lon="12.23195232297661"><ele>261.0</ele><time>2026-04-06T13:15:11Z</time></trkpt><trkpt lat="45.96927878750499" lon="12.232098704944848"><ele>261.0</ele><time>2026-04-06T13:15:12Z</time></trkpt><trkpt lat="45.96930944317115" lon="12.232264487144793"><ele>261.0</ele><time>2026-04-06T13:15:13Z</time></trkpt><trkpt lat="45.96937562024619" lon="12.232416159268205"><ele>260.25</ele><time>2026-04-06T13:15:14Z</time></trkpt><trkpt lat="45.96947099575118" lon="12.232538479021125"><ele>259.5</ele><time>2026-04-06T13:15:15Z</time></trkpt><trkpt lat="45.96958316578258" lon="12.232662105738388"><ele>258.75</ele><time>2026-04-06T13:15:16Z</time></trkpt><trkpt lat="45.969702931836174" lon="12.232792412336469"><ele>258.0</ele><time>2026-04-06T13:15:17Z</time></trkpt><trkpt lat="45.969829532733186" lon="12.232934700083682"><ele>258.0</ele><time>2026-04-06T13:15:18Z</time></trkpt><trkpt lat="45.969955392838514" lon="12.233080786319269"><ele>258.0</ele><time>2026-04-06T13:15:19Z</time></trkpt><trkpt lat="45.97008327582037" lon="12.2332213558307"><ele>258.0</ele><time>2026-04-06T13:15:20Z</time></trkpt><trkpt lat="45.97020972267811" lon="12.233357726110533"><ele>258.3333333333333</ele><time>2026-04-06T13:15:21Z</time></trkpt><trkpt lat="45.970332110473585" lon="12.233493563468164"><ele>258.66666666666663</ele><time>2026-04-06T13:15:22Z</time></trkpt><trkpt lat="45.970451361173176" lon="12.233623803515473"><ele>259.0</ele><time>2026-04-06T13:15:23Z</time></trkpt><trkpt lat="45.97057726291107" lon="12.23374304318397"><ele>259.0</ele><time>2026-04-06T13:15:24Z</time></trkpt><trkpt lat="45.970711839456875" lon="12.23383140715455"><ele>259.0</ele><time>2026-04-06T13:15:25Z</time></trkpt><trkpt lat="45.97085601350643" lon="12.233903160086927"><ele>259.0</ele><time>2026-04-06T13:15:26Z</time></trkpt><trkpt lat="45.97101154990233" lon="12.233952707223105"><ele>261.75</ele><time>2026-04-06T13:15:27Z</time></trkpt><trkpt lat="45.97116191847421" lon="12.233988860825553"><ele>264.5</ele><time>2026-04-06T13:15:28Z</time></trkpt><trkpt lat="45.9712957669382" lon="12.234009623783066"><ele>267.25</ele><time>2026-04-06T13:15:29Z</time></trkpt><trkpt lat="45.97140865990326" lon="12.234014655522868"><ele>270.0</ele><time>2026-04-06T13:15:30Z</time></trkpt><trkpt lat="45.97151908424456" lon="12.233992122944636"><ele>270.0</ele><time>2026-04-06T13:15:31Z</time></trkpt><trkpt lat="45.97163793184639" lon="12.233944038021935"><ele>270.0</ele><time>2026-04-06T13:15:32Z</time></trkpt><trkpt lat="45.97176807923492" lon="12.233888331263294"><ele>270.0</ele><time>2026-04-06T13:15:33Z</time></trkpt><trkpt lat="45.971892697436886" lon="12.233824007721797"><ele>270.0</ele><time>2026-04-06T13:15:34Z</time></trkpt><trkpt lat="45.97201160927305" lon="12.233735219164371"><ele>270.0</ele><time>2026-04-06T13:15:35Z</time></trkpt><trkpt lat="45.97211533082357" lon="12.233616140416064"><ele>270.0</ele><time>2026-04-06T13:15:36Z</time></trkpt><trkpt lat="45.972212840939335" lon="12.233469304997776"><ele>270.0</ele><time>2026-04-06T13:15:37Z</time></trkpt><trkpt lat="45.97230576429651" lon="12.23331102874942"><ele>270.0</ele><time>2026-04-06T13:15:38Z</time></trkpt><trkpt lat="45.97240141976753" lon="12.23314585242408"><ele>271.0</ele><time>2026-04-06T13:15:39Z</time></trkpt><trkpt lat="45.972496133630735" lon="12.23298482430458"><ele>272.0</ele><time>2026-04-06T13:15:40Z</time></trkpt><trkpt lat="45.97259553155727" lon="12.232826095508976"><ele>273.0</ele><time>2026-04-06T13:15:41Z</time></trkpt><trkpt lat="45.972696775826165" lon="12.232671951444456"><ele>274.0</ele><time>2026-04-06T13:15:42Z</time></trkpt><trkpt lat="45.97279748230646" lon="12.232520875578249"><ele>274.0</ele><time>2026-04-06T13:15:43Z</time></trkpt><trkpt lat="45.97289324017838" lon="12.232375309150141"><ele>274.0</ele><time>2026-04-06T13:15:44Z</time></trkpt><trkpt lat="45.972984708443555" lon="12.232249349589216"><ele>274.0</ele><time>2026-04-06T13:15:45Z</time></trkpt><trkpt lat="45.97307361047702" lon="12.232122491049658"><ele>274.0</ele><time>2026-04-06T13:15:46Z</time></trkpt><trkpt lat="45.97317104815115" lon="12.2320008544127"><ele>274.25</ele><time>2026-04-06T13:15:47Z</time></trkpt><trkpt lat="45.973275638126054" lon="12.231885413609003"><ele>274.5</ele><time>2026-04-06T13:15:48Z</time></trkpt><trkpt lat="45.9733819902496" lon="12.231769710508809"><ele>274.75</ele><time>2026-04-06T13:15:49Z</time></trkpt><trkpt lat="45.973486496538655" lon="12.231655279518451"><ele>275.0</ele><time>2026-04-06T13:15:50Z</time></trkpt><trkpt lat="45.97359200761492" lon="12.231545901380182"><ele>273.75</ele><time>2026-04-06T13:15:51Z</time></trkpt><trkpt lat="45.97370450452946" lon="12.231443630675855"><ele>272.5</ele><time>2026-04-06T13:15:52Z</time></trkpt><trkpt lat="45.97382912314789" lon="12.23135617927866"><ele>271.25</ele><time>2026-04-06T13:15:53Z</time></trkpt><trkpt lat="45.97396630385611" lon="12.231284184389839"><ele>270.0</ele><time>2026-04-06T13:15:54Z</time></trkpt><trkpt lat="45.97411141707426" lon="12.231228077372661"><ele>270.0</ele><time>2026-04-06T13:15:55Z</time></trkpt><trkpt lat="45.97426225370379" lon="12.23118315510541"><ele>270.0</ele><time>2026-04-06T13:15:56Z</time></trkpt><trkpt lat="45.974421999558295" lon="12.231160804254529"><ele>270.0</ele><time>2026-04-06T13:15:57Z</time></trkpt><trkpt lat="45.97459257751516" lon="12.231158652726823"><ele>270.0</ele><time>2026-04-06T13:15:58Z</time></trkpt><trkpt lat="45.97477072136821" lon="12.231157066717763"><ele>270.0</ele><time>2026-04-06T13:15:59Z</time></trkpt><trkpt lat="45.97495451765953" lon="12.231153130117434"><ele>270.0</ele><time>2026-04-06T13:16:00Z</time></trkpt><trkpt lat="45.975130221535835" lon="12.231147121698731"><ele>271.3333333333333</ele><time>2026-04-06T13:16:01Z</time></trkpt><trkpt lat="45.975309515780594" lon="12.231139204519092"><ele>272.66666666666663</ele><time>2026-04-06T13:16:02Z</time></trkpt><trkpt lat="45.97549604463983" lon="12.231131863620211"><ele>274.0</ele><time>2026-04-06T13:16:03Z</time></trkpt><trkpt lat="45.97568312813081" lon="12.231113133725904"><ele>274.3333333333333</ele><time>2026-04-06T13:16:04Z</time></trkpt><trkpt lat="45.9758801447662" lon="12.231085634896873"><ele>274.6666666666667</ele><time>2026-04-06T13:16:05Z</time></trkpt><trkpt lat="45.976079909530675" lon="12.231055443569671"><ele>275.0</ele><time>2026-04-06T13:16:06Z</time></trkpt><trkpt lat="45.97628451787249" lon="12.231028905825744"><ele>275.0</ele><time>2026-04-06T13:16:07Z</time></trkpt><trkpt lat="45.97649314859346" lon="12.2310002834735"><ele>275.0</ele><time>2026-04-06T13:16:08Z</time></trkpt><trkpt lat="45.97670640874353" lon="12.230968639564205"><ele>275.0</ele><time>2026-04-06T13:16:09Z</time></trkpt><trkpt lat="45.97692454501065" lon="12.230938212177048"><ele>276.0</ele><time>2026-04-06T13:16:10Z</time></trkpt><trkpt lat="45.977144971794004" lon="12.230911325687952"><ele>277.0</ele><time>2026-04-06T13:16:11Z</time></trkpt><trkpt lat="45.977361598368454" lon="12.230880049052251"><ele>278.0</ele><time>2026-04-06T13:16:12Z</time></trkpt><trkpt lat="45.977568187809766" lon="12.230853124284819"><ele>278.33333333333337</ele><time>2026-04-06T13:16:13Z</time></trkpt><trkpt lat="45.97776960819033" lon="12.230826774802226"><ele>278.6666666666667</ele><time>2026-04-06T13:16:14Z</time></trkpt><trkpt lat="45.97796136468968" lon="12.230804479048723"><ele>279.0</ele><time>2026-04-06T13:16:15Z</time></trkpt><trkpt lat="45.978144274952875" lon="12.230783393763724"><ele>279.0</ele><time>2026-04-06T13:16:16Z</time></trkpt><trkpt lat="45.97832067967362" lon="12.230766126596638"><ele>279.0</ele><time>2026-04-06T13:16:17Z</time></trkpt><trkpt lat="45.97848636546213" lon="12.230744236436902"><ele>279.0</ele><time>2026-04-06T13:16:18Z</time></trkpt><trkpt lat="45.978642138131484" lon="12.230718262881524"><ele>280.0</ele><time>2026-04-06T13:16:19Z</time></trkpt><trkpt lat="45.97879357376743" lon="12.230686051130343"><ele>281.0</ele><time>2026-04-06T13:16:20Z</time></trkpt><trkpt lat="45.97892739523851" lon="12.230624775192387"><ele>282.0</ele><time>2026-04-06T13:16:21Z</time></trkpt><trkpt lat="45.97906466284604" lon="12.23053351496644"><ele>283.0</ele><time>2026-04-06T13:16:22Z</time></trkpt><trkpt lat="45.97920118447964" lon="12.230423408982142"><ele>280.3333333333333</ele><time>2026-04-06T13:16:23Z</time></trkpt><trkpt lat="45.9793338038819" lon="12.230298055768527"><ele>277.6666666666667</ele><time>2026-04-06T13:16:24Z</time></trkpt><trkpt lat="45.979457154932774" lon="12.230168782156827"><ele>275.0</ele><time>2026-04-06T13:16:25Z</time></trkpt><trkpt lat="45.97957360796081" lon="12.23004588713239"><ele>275.0</ele><time>2026-04-06T13:16:26Z</time></trkpt><trkpt lat="45.979677473204354" lon="12.229942733239458"><ele>275.0</ele><time>2026-04-06T13:16:27Z</time></trkpt><trkpt lat="45.979770967324185" lon="12.229842605333971"><ele>275.0</ele><time>2026-04-06T13:16:28Z</time></trkpt><trkpt lat="45.97986417426398" lon="12.229716658483655"><ele>275.0</ele><time>2026-04-06T13:16:29Z</time></trkpt><trkpt lat="45.97990963176785" lon="12.2295507018605"><ele>273.25</ele><time>2026-04-06T13:16:30Z</time></trkpt><trkpt lat="45.979936493961844" lon="12.229384616075222"><ele>271.5</ele><time>2026-04-06T13:16:31Z</time></trkpt><trkpt lat="45.979935191660616" lon="12.22920156686469"><ele>269.75</ele><time>2026-04-06T13:16:32Z</time></trkpt><trkpt lat="45.9798899615434" lon="12.229027015784524"><ele>268.0</ele><time>2026-04-06T13:16:33Z</time></trkpt><trkpt lat="45.979813288918244" lon="12.228864222183445"><ele>265.0</ele><time>2026-04-06T13:16:34Z</time></trkpt><trkpt lat="45.979710223688954" lon="12.228714415355729"><ele>262.0</ele><time>2026-04-06T13:16:35Z</time></trkpt><trkpt lat="45.97958996909057" lon="12.228559618616911"><ele>259.0</ele><time>2026-04-06T13:16:36Z</time></trkpt><trkpt lat="45.97946841165504" lon="12.228392280360243"><ele>259.0</ele><time>2026-04-06T13:16:37Z</time></trkpt><trkpt lat="45.979354273121324" lon="12.22819088545825"><ele>259.0</ele><time>2026-04-06T13:16:38Z</time></trkpt><trkpt lat="45.979256426463806" lon="12.2279532788079"><ele>259.0</ele><time>2026-04-06T13:16:39Z</time></trkpt><trkpt lat="45.979171993813715" lon="12.227696219856004"><ele>258.66666666666663</ele><time>2026-04-06T13:16:40Z</time></trkpt><trkpt lat="45.979111850667934" lon="12.227442396405534"><ele>258.3333333333333</ele><time>2026-04-06T13:16:41Z</time></trkpt><trkpt lat="45.979056622171946" lon="12.227192005556656"><ele>258.0</ele><time>2026-04-06T13:16:42Z</time></trkpt><trkpt lat="45.97899594210385" lon="12.226949412667599"><ele>258.0</ele><time>2026-04-06T13:16:43Z</time></trkpt><trkpt lat="45.97893616165606" lon="12.22672477507527"><ele>258.0</ele><time>2026-04-06T13:16:44Z</time></trkpt><trkpt lat="45.978881712726" lon="12.226523188381288"><ele>258.0</ele><time>2026-04-06T13:16:45Z</time></trkpt><trkpt lat="45.97882729178208" lon="12.226331857547988"><ele>256.75</ele><time>2026-04-06T13:16:46Z</time></trkpt><trkpt lat="45.978773570657495" lon="12.226132740804495"><ele>255.5</ele><time>2026-04-06T13:16:47Z</time></trkpt><trkpt lat="45.97873468301617" lon="12.225948894263242"><ele>254.25</ele><time>2026-04-06T13:16:48Z</time></trkpt><trkpt lat="45.97869972880634" lon="12.225763261470496"><ele>253.0</ele><time>2026-04-06T13:16:49Z</time></trkpt><trkpt lat="45.978659551578446" lon="12.225573880209458"><ele>252.33333333333331</ele><time>2026-04-06T13:16:50Z</time></trkpt><trkpt lat="45.97861136722595" lon="12.225377334358933"><ele>251.66666666666669</ele><time>2026-04-06T13:16:51Z</time></trkpt><trkpt lat="45.978560548038026" lon="12.22516167258248"><ele>251.0</ele><time>2026-04-06T13:16:52Z</time></trkpt><trkpt lat="45.97850538017906" lon="12.224919730023355"><ele>250.33333333333334</ele><time>2026-04-06T13:16:53Z</time></trkpt><trkpt lat="45.97845224803078" lon="12.22466719137904"><ele>249.66666666666669</ele><time>2026-04-06T13:16:54Z</time></trkpt><trkpt lat="45.978393763870386" lon="12.2244184981921"><ele>249.0</ele><time>2026-04-06T13:16:55Z</time></trkpt><trkpt lat="45.97833424575792" lon="12.224179060400738"><ele>249.0</ele><time>2026-04-06T13:16:56Z</time></trkpt><trkpt lat="45.97827372917183" lon="12.223944339021218"><ele>249.0</ele><time>2026-04-06T13:16:57Z</time></trkpt><trkpt lat="45.97821257395666" lon="12.223710233821212"><ele>249.0</ele><time>2026-04-06T13:16:58Z</time></trkpt><trkpt lat="45.978145772399635" lon="12.223469578698543"><ele>249.0</ele><time>2026-04-06T13:16:59Z</time></trkpt><trkpt lat="45.97807677426672" lon="12.223208218277508"><ele>249.0</ele><time>2026-04-06T13:17:00Z</time></trkpt><trkpt lat="45.97801826834158" lon="12.222928640765168"><ele>249.0</ele><time>2026-04-06T13:17:01Z</time></trkpt><trkpt lat="45.97796401806791" lon="12.222652948966976"><ele>247.66666666666669</ele><time>2026-04-06T13:17:02Z</time></trkpt><trkpt lat="45.97790805618495" lon="12.222379784964163"><ele>246.33333333333334</ele><time>2026-04-06T13:17:03Z</time></trkpt><trkpt lat="45.977846988168906" lon="12.22211154891697"><ele>245.0</ele><time>2026-04-06T13:17:04Z</time></trkpt><trkpt lat="45.97778523259262" lon="12.221846735381495"><ele>244.0</ele><time>2026-04-06T13:17:05Z</time></trkpt><trkpt lat="45.97772696401206" lon="12.221589694255975"><ele>243.0</ele><time>2026-04-06T13:17:06Z</time></trkpt><trkpt lat="45.97766744911166" lon="12.221333042983169"><ele>242.0</ele><time>2026-04-06T13:17:07Z</time></trkpt><trkpt lat="45.97760813274941" lon="12.221073591045908"><ele>242.66666666666669</ele><time>2026-04-06T13:17:08Z</time></trkpt><trkpt lat="45.977549613965735" lon="12.220814556956874"><ele>243.33333333333331</ele><time>2026-04-06T13:17:09Z</time></trkpt><trkpt lat="45.97749537091293" lon="12.220550915528024"><ele>244.0</ele><time>2026-04-06T13:17:10Z</time></trkpt><trkpt lat="45.97744381406071" lon="12.220280163211342"><ele>244.0</ele><time>2026-04-06T13:17:11Z</time></trkpt><trkpt lat="45.97739504611629" lon="12.22000355545361"><ele>244.0</ele><time>2026-04-06T13:17:12Z</time></trkpt><trkpt lat="45.97735407713748" lon="12.219714795352518"><ele>244.0</ele><time>2026-04-06T13:17:13Z</time></trkpt><trkpt lat="45.9773234363134" lon="12.219415151365112"><ele>243.33333333333331</ele><time>2026-04-06T13:17:14Z</time></trkpt><trkpt lat="45.97729343452837" lon="12.219101861999404"><ele>242.66666666666669</ele><time>2026-04-06T13:17:15Z</time></trkpt><trkpt lat="45.977257280600426" lon="12.218778684112205"><ele>242.0</ele><time>2026-04-06T13:17:16Z</time></trkpt><trkpt lat="45.97722197046962" lon="12.218455276030326"><ele>240.0</ele><time>2026-04-06T13:17:17Z</time></trkpt><trkpt lat="45.977188502969554" lon="12.218146272593508"><ele>238.0</ele><time>2026-04-06T13:17:18Z</time></trkpt><trkpt lat="45.97715405107717" lon="12.217845739957273"><ele>236.0</ele><time>2026-04-06T13:17:19Z</time></trkpt><trkpt lat="45.9771195646376" lon="12.217558327481116"><ele>235.33333333333334</ele><time>2026-04-06T13:17:20Z</time></trkpt><trkpt lat="45.97708475271311" lon="12.21728098332653"><ele>234.66666666666669</ele><time>2026-04-06T13:17:21Z</time></trkpt><trkpt lat="45.977056438871706" lon="12.217011422982448"><ele>234.0</ele><time>2026-04-06T13:17:22Z</time></trkpt><trkpt lat="45.97703201755503" lon="12.216760801611175"><ele>234.0</ele><time>2026-04-06T13:17:23Z</time></trkpt><trkpt lat="45.97700729477605" lon="12.216528433411122"><ele>234.0</ele><time>2026-04-06T13:17:24Z</time></trkpt><trkpt lat="45.976983159456594" lon="12.216310147567793"><ele>234.0</ele><time>2026-04-06T13:17:25Z</time></trkpt><trkpt lat="45.97696946255335" lon="12.216094547981644"><ele>233.0</ele><time>2026-04-06T13:17:26Z</time></trkpt><trkpt lat="45.97697808356213" lon="12.215893216375271"><ele>232.0</ele><time>2026-04-06T13:17:27Z</time></trkpt><trkpt lat="45.97701411543691" lon="12.215698195523613"><ele>231.0</ele><time>2026-04-06T13:17:28Z</time></trkpt><trkpt lat="45.97708052665116" lon="12.215514874206319"><ele>230.0</ele><time>2026-04-06T13:17:29Z</time></trkpt><trkpt lat="45.977177599903875" lon="12.215355430840534"><ele>229.33333333333334</ele><time>2026-04-06T13:17:30Z</time></trkpt><trkpt lat="45.97730118602997" lon="12.215227680730777"><ele>228.66666666666669</ele><time>2026-04-06T13:17:31Z</time></trkpt><trkpt lat="45.97745139862352" lon="12.215128144786615"><ele>228.0</ele><time>2026-04-06T13:17:32Z</time></trkpt><trkpt lat="45.97761212093393" lon="12.21502125399337"><ele>227.66666666666669</ele><time>2026-04-06T13:17:33Z</time></trkpt><trkpt lat="45.977781468962625" lon="12.21490273495464"><ele>227.33333333333334</ele><time>2026-04-06T13:17:34Z</time></trkpt><trkpt lat="45.97796165220841" lon="12.214770814393104"><ele>227.0</ele><time>2026-04-06T13:17:35Z</time></trkpt><trkpt lat="45.978153593584764" lon="12.214635782748442"><ele>226.0</ele><time>2026-04-06T13:17:36Z</time></trkpt><trkpt lat="45.978356609131595" lon="12.214495817359259"><ele>225.0</ele><time>2026-04-06T13:17:37Z</time></trkpt><trkpt lat="45.97856737020726" lon="12.21434958437294"><ele>225.0</ele><time>2026-04-06T13:17:38Z</time></trkpt><trkpt lat="45.978774526722994" lon="12.214203426871126"><ele>225.0</ele><time>2026-04-06T13:17:39Z</time></trkpt><trkpt lat="45.9789699991069" lon="12.214059789837279"><ele>224.66666666666669</ele><time>2026-04-06T13:17:40Z</time></trkpt><trkpt lat="45.97915452632462" lon="12.213923995118419"><ele>224.33333333333334</ele><time>2026-04-06T13:17:41Z</time></trkpt><trkpt lat="45.97934143193509" lon="12.213801583268676"><ele>224.0</ele><time>2026-04-06T13:17:42Z</time></trkpt><trkpt lat="45.979534154637534" lon="12.213677793239011"><ele>223.66666666666669</ele><time>2026-04-06T13:17:43Z</time></trkpt><trkpt lat="45.979727080779554" lon="12.213542520044472"><ele>223.33333333333331</ele><time>2026-04-06T13:17:44Z</time></trkpt><trkpt lat="45.97992264488126" lon="12.213408401299162"><ele>223.0</ele><time>2026-04-06T13:17:45Z</time></trkpt><trkpt lat="45.980110844689314" lon="12.213271614164453"><ele>223.66666666666666</ele><time>2026-04-06T13:17:46Z</time></trkpt><trkpt lat="45.98029902601062" lon="12.213140094746946"><ele>224.33333333333331</ele><time>2026-04-06T13:17:47Z</time></trkpt><trkpt lat="45.98049285186354" lon="12.213008932775974"><ele>225.0</ele><time>2026-04-06T13:17:48Z</time></trkpt><trkpt lat="45.9806747426815" lon="12.21288213311649"><ele>225.0</ele><time>2026-04-06T13:17:49Z</time></trkpt><trkpt lat="45.980844913463464" lon="12.212763411573274"><ele>225.0</ele><time>2026-04-06T13:17:50Z</time></trkpt><trkpt lat="45.98100875706674" lon="12.212651095069129"><ele>225.0</ele><time>2026-04-06T13:17:51Z</time></trkpt><trkpt lat="45.98116582106438" lon="12.212539556427284"><ele>224.66666666666669</ele><time>2026-04-06T13:17:52Z</time></trkpt><trkpt lat="45.98131764259547" lon="12.212433046123678"><ele>224.33333333333334</ele><time>2026-04-06T13:17:53Z</time></trkpt><trkpt lat="45.98146601719688" lon="12.212329305145733"><ele>224.0</ele><time>2026-04-06T13:17:54Z</time></trkpt><trkpt lat="45.98160766829628" lon="12.212233295770499"><ele>223.66666666666669</ele><time>2026-04-06T13:17:55Z</time></trkpt><trkpt lat="45.9817436966906" lon="12.21212867326137"><ele>223.33333333333331</ele><time>2026-04-06T13:17:56Z</time></trkpt><trkpt lat="45.981884004501325" lon="12.212006679416906"><ele>223.0</ele><time>2026-04-06T13:17:57Z</time></trkpt><trkpt lat="45.982046238609854" lon="12.211903991138838"><ele>223.0</ele><time>2026-04-06T13:17:58Z</time></trkpt><trkpt lat="45.98221682831101" lon="12.211784207878107"><ele>223.0</ele><time>2026-04-06T13:17:59Z</time></trkpt><trkpt lat="45.98238676553638" lon="12.211654860007226"><ele>223.0</ele><time>2026-04-06T13:18:00Z</time></trkpt><trkpt lat="45.982562201529774" lon="12.211552728564662"><ele>224.0</ele><time>2026-04-06T13:18:01Z</time></trkpt><trkpt lat="45.982732121345784" lon="12.211441202263146"><ele>225.0</ele><time>2026-04-06T13:18:02Z</time></trkpt><trkpt lat="45.98289994015423" lon="12.211325011139778"><ele>226.0</ele><time>2026-04-06T13:18:03Z</time></trkpt><trkpt lat="45.98306017109757" lon="12.211215288040052"><ele>226.0</ele><time>2026-04-06T13:18:04Z</time></trkpt><trkpt lat="45.98320922497481" lon="12.211111896630069"><ele>226.0</ele><time>2026-04-06T13:18:05Z</time></trkpt><trkpt lat="45.98334509029403" lon="12.21100822257978"><ele>226.0</ele><time>2026-04-06T13:18:06Z</time></trkpt><trkpt lat="45.983461605094284" lon="12.210891543268696"><ele>227.5</ele><time>2026-04-06T13:18:07Z</time></trkpt><trkpt lat="45.98355526659667" lon="12.210744668322828"><ele>229.0</ele><time>2026-04-06T13:18:08Z</time></trkpt><trkpt lat="45.983616575358866" lon="12.210571260180243"><ele>230.5</ele><time>2026-04-06T13:18:09Z</time></trkpt><trkpt lat="45.9836443184015" lon="12.210382680862953"><ele>232.0</ele><time>2026-04-06T13:18:10Z</time></trkpt><trkpt lat="45.98363680070853" lon="12.210188082361114"><ele>232.5</ele><time>2026-04-06T13:18:11Z</time></trkpt><trkpt lat="45.983603002129946" lon="12.209990589168381"><ele>233.0</ele><time>2026-04-06T13:18:12Z</time></trkpt><trkpt lat="45.98354137739827" lon="12.209794906206696"><ele>233.5</ele><time>2026-04-06T13:18:13Z</time></trkpt><trkpt lat="45.98346186392009" lon="12.20959863437512"><ele>234.0</ele><time>2026-04-06T13:18:14Z</time></trkpt><trkpt lat="45.98337429570605" lon="12.209387448592972"><ele>233.66666666666669</ele><time>2026-04-06T13:18:15Z</time></trkpt><trkpt lat="45.98329508372532" lon="12.209156453606083"><ele>233.33333333333334</ele><time>2026-04-06T13:18:16Z</time></trkpt><trkpt lat="45.9832211452009" lon="12.208905817965858"><ele>233.0</ele><time>2026-04-06T13:18:17Z</time></trkpt><trkpt lat="45.983145906098635" lon="12.208645531265578"><ele>233.0</ele><time>2026-04-06T13:18:18Z</time></trkpt><trkpt lat="45.98306580959731" lon="12.208371876748197"><ele>233.0</ele><time>2026-04-06T13:18:19Z</time></trkpt><trkpt lat="45.982985149097026" lon="12.20808762257037"><ele>233.0</ele><time>2026-04-06T13:18:20Z</time></trkpt><trkpt lat="45.9829044495921" lon="12.207792245823821"><ele>234.5</ele><time>2026-04-06T13:18:21Z</time></trkpt><trkpt lat="45.98282251950016" lon="12.207489643442122"><ele>236.0</ele><time>2026-04-06T13:18:22Z</time></trkpt><trkpt lat="45.98273733581863" lon="12.207177044163101"><ele>236.0</ele><time>2026-04-06T13:18:23Z</time></trkpt><trkpt lat="45.982647258274" lon="12.206858965195211"><ele>236.0</ele><time>2026-04-06T13:18:24Z</time></trkpt><trkpt lat="45.98255658706943" lon="12.206534377931911"><ele>235.0</ele><time>2026-04-06T13:18:25Z</time></trkpt><trkpt lat="45.98246476603076" lon="12.206206686522863"><ele>234.0</ele><time>2026-04-06T13:18:26Z</time></trkpt><trkpt lat="45.982370474227764" lon="12.20587803043233"><ele>235.0</ele><time>2026-04-06T13:18:27Z</time></trkpt><trkpt lat="45.98227872981238" lon="12.205554609951694"><ele>236.0</ele><time>2026-04-06T13:18:28Z</time></trkpt><trkpt lat="45.98218688102742" lon="12.205234953597241"><ele>236.0</ele><time>2026-04-06T13:18:29Z</time></trkpt><trkpt lat="45.982098703025116" lon="12.20491632488394"><ele>236.0</ele><time>2026-04-06T13:18:30Z</time></trkpt><trkpt lat="45.98201245477194" lon="12.204598501729508"><ele>237.5</ele><time>2026-04-06T13:18:31Z</time></trkpt><trkpt lat="45.981924393098375" lon="12.204278433793517"><ele>239.0</ele><time>2026-04-06T13:18:32Z</time></trkpt><trkpt lat="45.98183669290843" lon="12.203958090595078"><ele>239.0</ele><time>2026-04-06T13:18:33Z</time></trkpt><trkpt lat="45.9817487838285" lon="12.203637814070495"><ele>239.0</ele><time>2026-04-06T13:18:34Z</time></trkpt><trkpt lat="45.981660562961224" lon="12.203318251926717"><ele>236.0</ele><time>2026-04-06T13:18:35Z</time></trkpt><trkpt lat="45.98157418406041" lon="12.20300726695045"><ele>233.0</ele><time>2026-04-06T13:18:36Z</time></trkpt><trkpt lat="45.98148734705053" lon="12.202703008782375"><ele>233.0</ele><time>2026-04-06T13:18:37Z</time></trkpt><trkpt lat="45.981399415162684" lon="12.20240521836599"><ele>233.0</ele><time>2026-04-06T13:18:38Z</time></trkpt><trkpt lat="45.98130335527241" lon="12.202116240430954"><ele>233.0</ele><time>2026-04-06T13:18:39Z</time></trkpt><trkpt lat="45.98119506530734" lon="12.20183060840097"><ele>233.0</ele><time>2026-04-06T13:18:40Z</time></trkpt><trkpt lat="45.98107796928291" lon="12.201542350718057"><ele>233.0</ele><time>2026-04-06T13:18:41Z</time></trkpt><trkpt lat="45.980951055566635" lon="12.201250508737143"><ele>232.5</ele><time>2026-04-06T13:18:42Z</time></trkpt><trkpt lat="45.980818762150534" lon="12.200953809593369"><ele>232.0</ele><time>2026-04-06T13:18:43Z</time></trkpt><trkpt lat="45.980683531372996" lon="12.200649392691766"><ele>232.0</ele><time>2026-04-06T13:18:44Z</time></trkpt><trkpt lat="45.980545150224266" lon="12.200341674608326"><ele>232.0</ele><time>2026-04-06T13:18:45Z</time></trkpt><trkpt lat="45.98040342298334" lon="12.200029442464256"><ele>233.5</ele><time>2026-04-06T13:18:46Z</time></trkpt><trkpt lat="45.98026561397452" lon="12.199722180544859"><ele>235.0</ele><time>2026-04-06T13:18:47Z</time></trkpt><trkpt lat="45.980133384347724" lon="12.199425175752207"><ele>232.5</ele><time>2026-04-06T13:18:48Z</time></trkpt><trkpt lat="45.98000493562062" lon="12.199134764956641"><ele>230.0</ele><time>2026-04-06T13:18:49Z</time></trkpt><trkpt lat="45.97988099671201" lon="12.198855049737357"><ele>230.0</ele><time>2026-04-06T13:18:50Z</time></trkpt><trkpt lat="45.979764091402195" lon="12.1985924272521"><ele>230.0</ele><time>2026-04-06T13:18:51Z</time></trkpt><trkpt lat="45.979653340707266" lon="12.198343491329927"><ele>230.0</ele><time>2026-04-06T13:18:52Z</time></trkpt><trkpt lat="45.979547093681816" lon="12.198097759712258"><ele>230.0</ele><time>2026-04-06T13:18:53Z</time></trkpt><trkpt lat="45.97944072090395" lon="12.197850659332596"><ele>230.0</ele><time>2026-04-06T13:18:54Z</time></trkpt><trkpt lat="45.97932881920886" lon="12.197597520388582"><ele>230.0</ele><time>2026-04-06T13:18:55Z</time></trkpt><trkpt lat="45.97921471804272" lon="12.197336823608419"><ele>228.0</ele><time>2026-04-06T13:18:56Z</time></trkpt><trkpt lat="45.979096511096635" lon="12.197066370791132"><ele>226.0</ele><time>2026-04-06T13:18:57Z</time></trkpt><trkpt lat="45.97897786719323" lon="12.196785850175022"><ele>226.5</ele><time>2026-04-06T13:18:58Z</time></trkpt><trkpt lat="45.97885994499525" lon="12.196498551726775"><ele>227.0</ele><time>2026-04-06T13:18:59Z</time></trkpt><trkpt lat="45.97875082537089" lon="12.196205335902095"><ele>227.0</ele><time>2026-04-06T13:19:00Z</time></trkpt><trkpt lat="45.97865248501857" lon="12.19590333632349"><ele>227.0</ele><time>2026-04-06T13:19:01Z</time></trkpt><trkpt lat="45.97856311810807" lon="12.19560262073461"><ele>228.0</ele><time>2026-04-06T13:19:02Z</time></trkpt><trkpt lat="45.97847796062621" lon="12.19531143098068"><ele>229.0</ele><time>2026-04-06T13:19:03Z</time></trkpt><trkpt lat="45.97839791470957" lon="12.195036093880756"><ele>230.0</ele><time>2026-04-06T13:19:04Z</time></trkpt><trkpt lat="45.97831971609026" lon="12.19477321633591"><ele>230.0</ele><time>2026-04-06T13:19:05Z</time></trkpt><trkpt lat="45.97824769981823" lon="12.194538687268256"><ele>230.0</ele><time>2026-04-06T13:19:06Z</time></trkpt><trkpt lat="45.97817756430087" lon="12.19430802195682"><ele>230.0</ele><time>2026-04-06T13:19:07Z</time></trkpt><trkpt lat="45.978110432328" lon="12.194085275329268"><ele>230.33333333333334</ele><time>2026-04-06T13:19:08Z</time></trkpt><trkpt lat="45.97804428432907" lon="12.193864618032226"><ele>230.66666666666669</ele><time>2026-04-06T13:19:09Z</time></trkpt><trkpt lat="45.97797726197385" lon="12.193644908898378"><ele>231.0</ele><time>2026-04-06T13:19:10Z</time></trkpt><trkpt lat="45.97790911842199" lon="12.193428948899241"><ele>231.0</ele><time>2026-04-06T13:19:11Z</time></trkpt><trkpt lat="45.97784552089962" lon="12.193219356883741"><ele>231.0</ele><time>2026-04-06T13:19:12Z</time></trkpt><trkpt lat="45.97778598540421" lon="12.193013756466122"><ele>231.0</ele><time>2026-04-06T13:19:13Z</time></trkpt><trkpt lat="45.97772402804955" lon="12.192806803771125"><ele>231.33333333333331</ele><time>2026-04-06T13:19:14Z</time></trkpt><trkpt lat="45.97766063435788" lon="12.192593138858985"><ele>231.66666666666666</ele><time>2026-04-06T13:19:15Z</time></trkpt><trkpt lat="45.97759256086369" lon="12.1923760111086"><ele>232.0</ele><time>2026-04-06T13:19:16Z</time></trkpt><trkpt lat="45.9775252854137" lon="12.192152476395304"><ele>230.66666666666666</ele><time>2026-04-06T13:19:17Z</time></trkpt><trkpt lat="45.977458611570775" lon="12.19192799969538"><ele>229.33333333333331</ele><time>2026-04-06T13:19:18Z</time></trkpt><trkpt lat="45.97739365678403" lon="12.19170478743506"><ele>228.0</ele><time>2026-04-06T13:19:19Z</time></trkpt><trkpt lat="45.977325919977936" lon="12.191479666092247"><ele>227.33333333333331</ele><time>2026-04-06T13:19:20Z</time></trkpt><trkpt lat="45.977257061936285" lon="12.19125115840197"><ele>226.66666666666666</ele><time>2026-04-06T13:19:21Z</time></trkpt><trkpt lat="45.97718224330568" lon="12.191014526126544"><ele>226.0</ele><time>2026-04-06T13:19:22Z</time></trkpt><trkpt lat="45.977110819068315" lon="12.190782596072639"><ele>228.0</ele><time>2026-04-06T13:19:23Z</time></trkpt><trkpt lat="45.97704633690475" lon="12.190561448094678"><ele>230.0</ele><time>2026-04-06T13:19:24Z</time></trkpt><trkpt lat="45.97698337483886" lon="12.190345244176754"><ele>232.0</ele><time>2026-04-06T13:19:25Z</time></trkpt><trkpt lat="45.97692121008353" lon="12.190124136156513"><ele>232.0</ele><time>2026-04-06T13:19:26Z</time></trkpt><trkpt lat="45.976854623022746" lon="12.189899430716126"><ele>232.0</ele><time>2026-04-06T13:19:27Z</time></trkpt><trkpt lat="45.97678934677857" lon="12.189676484395685"><ele>232.0</ele><time>2026-04-06T13:19:28Z</time></trkpt><trkpt lat="45.97671666704371" lon="12.189462281221907"><ele>232.33333333333331</ele><time>2026-04-06T13:19:29Z</time></trkpt><trkpt lat="45.97663977892801" lon="12.189252495919721"><ele>232.66666666666669</ele><time>2026-04-06T13:19:30Z</time></trkpt><trkpt lat="45.976558449493474" lon="12.189044923383829"><ele>233.0</ele><time>2026-04-06T13:19:31Z</time></trkpt><trkpt lat="45.97647240668746" lon="12.188843473566621"><ele>233.0</ele><time>2026-04-06T13:19:32Z</time></trkpt><trkpt lat="45.97638410769169" lon="12.18863956423257"><ele>233.0</ele><time>2026-04-06T13:19:33Z</time></trkpt><trkpt lat="45.976298025747425" lon="12.188432552429624"><ele>233.0</ele><time>2026-04-06T13:19:34Z</time></trkpt><trkpt lat="45.97621202147794" lon="12.188223832554336"><ele>235.33333333333334</ele><time>2026-04-06T13:19:35Z</time></trkpt><trkpt lat="45.97612537182997" lon="12.188015016430027"><ele>237.66666666666669</ele><time>2026-04-06T13:19:36Z</time></trkpt><trkpt lat="45.976040041793944" lon="12.18780904497328"><ele>240.0</ele><time>2026-04-06T13:19:37Z</time></trkpt><trkpt lat="45.97595417889423" lon="12.1876033467301"><ele>240.0</ele><time>2026-04-06T13:19:38Z</time></trkpt><trkpt lat="45.975864852535224" lon="12.1874001584548"><ele>240.0</ele><time>2026-04-06T13:19:39Z</time></trkpt><trkpt lat="45.97577038824378" lon="12.18718398733226"><ele>240.0</ele><time>2026-04-06T13:19:40Z</time></trkpt><trkpt lat="45.97567019173613" lon="12.186959141632656"><ele>240.33333333333331</ele><time>2026-04-06T13:19:41Z</time></trkpt><trkpt lat="45.975564434009634" lon="12.186726748108507"><ele>240.66666666666666</ele><time>2026-04-06T13:19:42Z</time></trkpt><trkpt lat="45.975460983748164" lon="12.186458006050389"><ele>241.0</ele><time>2026-04-06T13:19:43Z</time></trkpt><trkpt lat="45.97536681080503" lon="12.186168616144492"><ele>241.0</ele><time>2026-04-06T13:19:44Z</time></trkpt><trkpt lat="45.97528013937824" lon="12.185880379345669"><ele>241.0</ele><time>2026-04-06T13:19:45Z</time></trkpt><trkpt lat="45.975205039889495" lon="12.185593533836782"><ele>241.0</ele><time>2026-04-06T13:19:46Z</time></trkpt><trkpt lat="45.97514363312981" lon="12.185303844190969"><ele>243.0</ele><time>2026-04-06T13:19:47Z</time></trkpt><trkpt lat="45.97509581076793" lon="12.185009735318365"><ele>245.0</ele><time>2026-04-06T13:19:48Z</time></trkpt><trkpt lat="45.97505712157926" lon="12.184717597354634"><ele>247.0</ele><time>2026-04-06T13:19:49Z</time></trkpt><trkpt lat="45.975015617781196" lon="12.184427944090572"><ele>244.0</ele><time>2026-04-06T13:19:50Z</time></trkpt><trkpt lat="45.974973543667495" lon="12.184140217457099"><ele>241.0</ele><time>2026-04-06T13:19:51Z</time></trkpt><trkpt lat="45.97493139002533" lon="12.18385535063827"><ele>238.0</ele><time>2026-04-06T13:19:52Z</time></trkpt><trkpt lat="45.974892609130535" lon="12.18357577569482"><ele>238.0</ele><time>2026-04-06T13:19:53Z</time></trkpt><trkpt lat="45.974855631524285" lon="12.183308973011153"><ele>238.0</ele><time>2026-04-06T13:19:54Z</time></trkpt><trkpt lat="45.974817594622245" lon="12.183055918910279"><ele>238.0</ele><time>2026-04-06T13:19:55Z</time></trkpt><trkpt lat="45.974785108112464" lon="12.182813076130074"><ele>237.33333333333331</ele><time>2026-04-06T13:19:56Z</time></trkpt><trkpt lat="45.9747547895886" lon="12.182581080995694"><ele>236.66666666666669</ele><time>2026-04-06T13:19:57Z</time></trkpt><trkpt lat="45.97472258758271" lon="12.182359234646372"><ele>236.0</ele><time>2026-04-06T13:19:58Z</time></trkpt><trkpt lat="45.974689788889684" lon="12.18214891635918"><ele>235.0</ele><time>2026-04-06T13:19:59Z</time></trkpt><trkpt lat="45.9746560619349" lon="12.181940891097334"><ele>234.0</ele><time>2026-04-06T13:20:00Z</time></trkpt><trkpt lat="45.97462490436865" lon="12.18173362517553"><ele>233.0</ele><time>2026-04-06T13:20:01Z</time></trkpt><trkpt lat="45.974601601406036" lon="12.181528561743196"><ele>232.0</ele><time>2026-04-06T13:20:02Z</time></trkpt><trkpt lat="45.974576537679255" lon="12.181324580587383"><ele>232.0</ele><time>2026-04-06T13:20:03Z</time></trkpt><trkpt lat="45.97454666874613" lon="12.181120116539034"><ele>232.0</ele><time>2026-04-06T13:20:04Z</time></trkpt><trkpt lat="45.974515805924874" lon="12.180918082594385"><ele>232.0</ele><time>2026-04-06T13:20:05Z</time></trkpt><trkpt lat="45.97448818257262" lon="12.180720681840953"><ele>232.0</ele><time>2026-04-06T13:20:06Z</time></trkpt><trkpt lat="45.9744605625802" lon="12.180523981773955"><ele>232.5</ele><time>2026-04-06T13:20:07Z</time></trkpt><trkpt lat="45.974431528709744" lon="12.180328940525136"><ele>233.0</ele><time>2026-04-06T13:20:08Z</time></trkpt><trkpt lat="45.974403283217065" lon="12.18013282774688"><ele>233.5</ele><time>2026-04-06T13:20:09Z</time></trkpt><trkpt lat="45.974375598934074" lon="12.179938597638571"><ele>234.0</ele><time>2026-04-06T13:20:10Z</time></trkpt><trkpt lat="45.97434700381872" lon="12.179743162246464"><ele>234.75</ele><time>2026-04-06T13:20:11Z</time></trkpt><trkpt lat="45.974319535772025" lon="12.179548596840137"><ele>235.5</ele><time>2026-04-06T13:20:12Z</time></trkpt><trkpt lat="45.9742911018385" lon="12.179352992000751"><ele>236.25</ele><time>2026-04-06T13:20:13Z</time></trkpt><trkpt lat="45.97426229552929" lon="12.179156216014881"><ele>237.0</ele><time>2026-04-06T13:20:14Z</time></trkpt><trkpt lat="45.974234092140115" lon="12.178959206725938"><ele>237.0</ele><time>2026-04-06T13:20:15Z</time></trkpt><trkpt lat="45.9742090867294" lon="12.17876436305963"><ele>237.0</ele><time>2026-04-06T13:20:16Z</time></trkpt><trkpt lat="45.97418224199572" lon="12.17857126605613"><ele>237.0</ele><time>2026-04-06T13:20:17Z</time></trkpt><trkpt lat="45.974154228430386" lon="12.178380695830693"><ele>237.0</ele><time>2026-04-06T13:20:18Z</time></trkpt><trkpt lat="45.974126289906984" lon="12.178195477422062"><ele>236.75</ele><time>2026-04-06T13:20:19Z</time></trkpt><trkpt lat="45.97410258605965" lon="12.178014335849047"><ele>236.5</ele><time>2026-04-06T13:20:20Z</time></trkpt><trkpt lat="45.97407831796098" lon="12.177835370966186"><ele>236.25</ele><time>2026-04-06T13:20:21Z</time></trkpt><trkpt lat="45.97405579854083" lon="12.177667042387775"><ele>236.0</ele><time>2026-04-06T13:20:22Z</time></trkpt><trkpt lat="45.9740361813501" lon="12.177502264987291"><ele>235.75</ele><time>2026-04-06T13:20:23Z</time></trkpt><trkpt lat="45.97401988744224" lon="12.177329703559993"><ele>235.5</ele><time>2026-04-06T13:20:24Z</time></trkpt><trkpt lat="45.97400751281963" lon="12.177155955378586"><ele>235.25</ele><time>2026-04-06T13:20:25Z</time></trkpt><trkpt lat="45.97400123751565" lon="12.177001610598097"><ele>235.0</ele><time>2026-04-06T13:20:26Z</time></trkpt><trkpt lat="45.97399302470507" lon="12.176846762510642"><ele>235.0</ele><time>2026-04-06T13:20:27Z</time></trkpt><trkpt lat="45.97399974400992" lon="12.17667882884947"><ele>235.0</ele><time>2026-04-06T13:20:28Z</time></trkpt><trkpt lat="45.974027740383434" lon="12.17650161334821"><ele>235.0</ele><time>2026-04-06T13:20:29Z</time></trkpt><trkpt lat="45.97408189454047" lon="12.176320868520422"><ele>235.0</ele><time>2026-04-06T13:20:30Z</time></trkpt><trkpt lat="45.974158821437726" lon="12.17614042948355"><ele>236.66666666666666</ele><time>2026-04-06T13:20:31Z</time></trkpt><trkpt lat="45.9742579732129" lon="12.175967254513843"><ele>238.33333333333331</ele><time>2026-04-06T13:20:32Z</time></trkpt><trkpt lat="45.97437291411156" lon="12.17580017923142"><ele>240.0</ele><time>2026-04-06T13:20:33Z</time></trkpt><trkpt lat="45.97450316782" lon="12.17565370080846"><ele>240.66666666666669</ele><time>2026-04-06T13:20:34Z</time></trkpt><trkpt lat="45.97464667316662" lon="12.175540933065017"><ele>241.33333333333334</ele><time>2026-04-06T13:20:35Z</time></trkpt><trkpt lat="45.974795708191806" lon="12.175459959719772"><ele>242.0</ele><time>2026-04-06T13:20:36Z</time></trkpt><trkpt lat="45.974952795690086" lon="12.175446189905015"><ele>242.66666666666669</ele><time>2026-04-06T13:20:37Z</time></trkpt><trkpt lat="45.97511531924032" lon="12.175398697965083"><ele>243.33333333333331</ele><time>2026-04-06T13:20:38Z</time></trkpt><trkpt lat="45.975287951139755" lon="12.175385493271202"><ele>244.0</ele><time>2026-04-06T13:20:39Z</time></trkpt><trkpt lat="45.97546159608183" lon="12.175365746399134"><ele>244.0</ele><time>2026-04-06T13:20:40Z</time></trkpt><trkpt lat="45.97564722760226" lon="12.17533388455345"><ele>244.0</ele><time>2026-04-06T13:20:41Z</time></trkpt><trkpt lat="45.975834994677676" lon="12.175288894309178"><ele>244.0</ele><time>2026-04-06T13:20:42Z</time></trkpt><trkpt lat="45.97602318821543" lon="12.175226404576764"><ele>246.0</ele><time>2026-04-06T13:20:43Z</time></trkpt><trkpt lat="45.97620873776003" lon="12.175146919133875"><ele>248.0</ele><time>2026-04-06T13:20:44Z</time></trkpt><trkpt lat="45.97639191624922" lon="12.175057284431835"><ele>250.0</ele><time>2026-04-06T13:20:45Z</time></trkpt><trkpt lat="45.97656988459133" lon="12.174969097642062"><ele>250.33333333333331</ele><time>2026-04-06T13:20:46Z</time></trkpt><trkpt lat="45.976748565244954" lon="12.174897484325411"><ele>250.66666666666669</ele><time>2026-04-06T13:20:47Z</time></trkpt><trkpt lat="45.97693393559777" lon="12.174855822074452"><ele>251.0</ele><time>2026-04-06T13:20:48Z</time></trkpt><trkpt lat="45.977129183744594" lon="12.174838709553693"><ele>252.66666666666669</ele><time>2026-04-06T13:20:49Z</time></trkpt><trkpt lat="45.977319595056265" lon="12.174828799430315"><ele>254.33333333333331</ele><time>2026-04-06T13:20:50Z</time></trkpt><trkpt lat="45.97749519111919" lon="12.174794707977204"><ele>256.0</ele><time>2026-04-06T13:20:51Z</time></trkpt><trkpt lat="45.97765576506644" lon="12.174748138757636"><ele>256.25</ele><time>2026-04-06T13:20:52Z</time></trkpt><trkpt lat="45.977799310326944" lon="12.174713334569176"><ele>256.5</ele><time>2026-04-06T13:20:53Z</time></trkpt><trkpt lat="45.97794654976445" lon="12.174714143256168"><ele>256.75</ele><time>2026-04-06T13:20:54Z</time></trkpt><trkpt lat="45.97809839799104" lon="12.174734107019177"><ele>257.0</ele><time>2026-04-06T13:20:55Z</time></trkpt><trkpt lat="45.978246142050104" lon="12.17475297453089"><ele>257.5</ele><time>2026-04-06T13:20:56Z</time></trkpt><trkpt lat="45.97838088384692" lon="12.174771037283174"><ele>258.0</ele><time>2026-04-06T13:20:57Z</time></trkpt><trkpt lat="45.97850996688547" lon="12.174833259165899"><ele>258.5</ele><time>2026-04-06T13:20:58Z</time></trkpt><trkpt lat="45.97865190979632" lon="12.174875929041807"><ele>259.0</ele><time>2026-04-06T13:20:59Z</time></trkpt><trkpt lat="45.97879229630023" lon="12.174928031013245"><ele>259.25</ele><time>2026-04-06T13:21:00Z</time></trkpt><trkpt lat="45.978936075479965" lon="12.174950620155592"><ele>259.5</ele><time>2026-04-06T13:21:01Z</time></trkpt><trkpt lat="45.97908237841734" lon="12.174959199841295"><ele>259.75</ele><time>2026-04-06T13:21:02Z</time></trkpt><trkpt lat="45.97922759648835" lon="12.17495872211822"><ele>260.0</ele><time>2026-04-06T13:21:03Z</time></trkpt><trkpt lat="45.979376119555205" lon="12.174943181629926"><ele>261.25</ele><time>2026-04-06T13:21:04Z</time></trkpt><trkpt lat="45.97952245683343" lon="12.17491085371802"><ele>262.5</ele><time>2026-04-06T13:21:05Z</time></trkpt><trkpt lat="45.97966315397509" lon="12.174862051546594"><ele>263.75</ele><time>2026-04-06T13:21:06Z</time></trkpt><trkpt lat="45.97979789296854" lon="12.174803784778153"><ele>265.0</ele><time>2026-04-06T13:21:07Z</time></trkpt><trkpt lat="45.97991914053953" lon="12.174750099329911"><ele>266.0</ele><time>2026-04-06T13:21:08Z</time></trkpt><trkpt lat="45.98002574453946" lon="12.174699496034018"><ele>267.0</ele><time>2026-04-06T13:21:09Z</time></trkpt><trkpt lat="45.98011695523587" lon="12.174653242057216"><ele>268.0</ele><time>2026-04-06T13:21:10Z</time></trkpt><trkpt lat="45.98020612182711" lon="12.174616093230059"><ele>269.0</ele><time>2026-04-06T13:21:11Z</time></trkpt><trkpt lat="45.98028719611237" lon="12.174582104433703"><ele>270.0</ele><time>2026-04-06T13:21:12Z</time></trkpt><trkpt lat="45.98036102667844" lon="12.17455445283404"><ele>270.0</ele><time>2026-04-06T13:21:13Z</time></trkpt><trkpt lat="45.98043061233555" lon="12.17452513075428"><ele>270.0</ele><time>2026-04-06T13:21:14Z</time></trkpt><trkpt lat="45.98049792115233" lon="12.174502399823435"><ele>270.0</ele><time>2026-04-06T13:21:15Z</time></trkpt><trkpt lat="45.98057289078187" lon="12.174475583678252"><ele>270.0</ele><time>2026-04-06T13:21:16Z</time></trkpt><trkpt lat="45.98065297704003" lon="12.174440753356617"><ele>270.0</ele><time>2026-04-06T13:21:17Z</time></trkpt><trkpt lat="45.980732770198685" lon="12.174400575259076"><ele>270.0</ele><time>2026-04-06T13:21:18Z</time></trkpt><trkpt lat="45.98082170145359" lon="12.174370666142737"><ele>270.8</ele><time>2026-04-06T13:21:19Z</time></trkpt><trkpt lat="45.98090535373615" lon="12.174343830213935"><ele>271.6</ele><time>2026-04-06T13:21:20Z</time></trkpt><trkpt lat="45.98098775533588" lon="12.174307229418448"><ele>272.4</ele><time>2026-04-06T13:21:21Z</time></trkpt><trkpt lat="45.98107138485915" lon="12.174250851610934"><ele>273.2</ele><time>2026-04-06T13:21:22Z</time></trkpt><trkpt lat="45.981173163072036" lon="12.17422489860299"><ele>274.0</ele><time>2026-04-06T13:21:23Z</time></trkpt><trkpt lat="45.98128923712231" lon="12.174159040710787"><ele>274.0</ele><time>2026-04-06T13:21:24Z</time></trkpt><trkpt lat="45.981417930970224" lon="12.174108023330115"><ele>274.0</ele><time>2026-04-06T13:21:25Z</time></trkpt><trkpt lat="45.9815377204676" lon="12.174056481737665"><ele>274.0</ele><time>2026-04-06T13:21:26Z</time></trkpt><trkpt lat="45.98166577620585" lon="12.174012365141374"><ele>274.0</ele><time>2026-04-06T13:21:27Z</time></trkpt><trkpt lat="45.981801711125584" lon="12.173975419537657"><ele>273.66666666666663</ele><time>2026-04-06T13:21:28Z</time></trkpt><trkpt lat="45.98194563467641" lon="12.173921365479332"><ele>273.3333333333333</ele><time>2026-04-06T13:21:29Z</time></trkpt><trkpt lat="45.98208976830278" lon="12.173864119037816"><ele>273.0</ele><time>2026-04-06T13:21:30Z</time></trkpt><trkpt lat="45.9822396185364" lon="12.173802124534"><ele>273.0</ele><time>2026-04-06T13:21:31Z</time></trkpt><trkpt lat="45.98239722174881" lon="12.173737965660798"><ele>273.0</ele><time>2026-04-06T13:21:32Z</time></trkpt><trkpt lat="45.98256123606169" lon="12.173668728204893"><ele>273.0</ele><time>2026-04-06T13:21:33Z</time></trkpt><trkpt lat="45.98272828347349" lon="12.173598246138535"><ele>276.0</ele><time>2026-04-06T13:21:34Z</time></trkpt><trkpt lat="45.98290109845741" lon="12.173528099455526"><ele>279.0</ele><time>2026-04-06T13:21:35Z</time></trkpt><trkpt lat="45.9830814614061" lon="12.173454851929757"><ele>282.0</ele><time>2026-04-06T13:21:36Z</time></trkpt><trkpt lat="45.983273530680314" lon="12.173375737703228"><ele>283.6666666666667</ele><time>2026-04-06T13:21:37Z</time></trkpt><trkpt lat="45.983474638935" lon="12.173295129495656"><ele>285.33333333333337</ele><time>2026-04-06T13:21:38Z</time></trkpt><trkpt lat="45.98367888418278" lon="12.17322073103217"><ele>287.0</ele><time>2026-04-06T13:21:39Z</time></trkpt><trkpt lat="45.983880719490756" lon="12.173154503053919"><ele>287.33333333333337</ele><time>2026-04-06T13:21:40Z</time></trkpt><trkpt lat="45.98407538356636" lon="12.173095375387897"><ele>287.6666666666667</ele><time>2026-04-06T13:21:41Z</time></trkpt><trkpt lat="45.98427172438444" lon="12.173033918685599"><ele>288.0</ele><time>2026-04-06T13:21:42Z</time></trkpt><trkpt lat="45.98446357810777" lon="12.172964922016682"><ele>289.6666666666667</ele><time>2026-04-06T13:21:43Z</time></trkpt><trkpt lat="45.984665434355875" lon="12.172887748912087"><ele>291.33333333333337</ele><time>2026-04-06T13:21:44Z</time></trkpt><trkpt lat="45.98486962382086" lon="12.172831938530328"><ele>293.0</ele><time>2026-04-06T13:21:45Z</time></trkpt><trkpt lat="45.98505216730673" lon="12.172804434619355"><ele>295.33333333333337</ele><time>2026-04-06T13:21:46Z</time></trkpt><trkpt lat="45.98522137554183" lon="12.172772669913961"><ele>297.6666666666667</ele><time>2026-04-06T13:21:47Z</time></trkpt><trkpt lat="45.98538218093691" lon="12.172724223809393"><ele>300.0</ele><time>2026-04-06T13:21:48Z</time></trkpt><trkpt lat="45.985543417739514" lon="12.17266127850026"><ele>300.0</ele><time>2026-04-06T13:21:49Z</time></trkpt><trkpt lat="45.985700076771685" lon="12.172584214284443"><ele>300.0</ele><time>2026-04-06T13:21:50Z</time></trkpt><trkpt lat="45.98584880488834" lon="12.17250128628744"><ele>300.0</ele><time>2026-04-06T13:21:51Z</time></trkpt><trkpt lat="45.98599602359705" lon="12.17242297258928"><ele>302.3333333333333</ele><time>2026-04-06T13:21:52Z</time></trkpt><trkpt lat="45.98615046093103" lon="12.172359089946397"><ele>304.66666666666663</ele><time>2026-04-06T13:21:53Z</time></trkpt><trkpt lat="45.986313241513365" lon="12.172321407992506"><ele>307.0</ele><time>2026-04-06T13:21:54Z</time></trkpt><trkpt lat="45.9864817538762" lon="12.172302475812256"><ele>307.0</ele><time>2026-04-06T13:21:55Z</time></trkpt><trkpt lat="45.98665465573548" lon="12.172293843335437"><ele>307.0</ele><time>2026-04-06T13:21:56Z</time></trkpt><trkpt lat="45.986831337034715" lon="12.172287191608614"><ele>307.0</ele><time>2026-04-06T13:21:57Z</time></trkpt><trkpt lat="45.98700589917699" lon="12.17227270843057"><ele>310.0</ele><time>2026-04-06T13:21:58Z</time></trkpt><trkpt lat="45.98717753141211" lon="12.17225829476541"><ele>313.0</ele><time>2026-04-06T13:21:59Z</time></trkpt><trkpt lat="45.98734688378251" lon="12.1722536376318"><ele>316.0</ele><time>2026-04-06T13:22:00Z</time></trkpt><trkpt lat="45.98751706666733" lon="12.172271181955248"><ele>316.66666666666663</ele><time>2026-04-06T13:22:01Z</time></trkpt><trkpt lat="45.98768916896396" lon="12.172322354256657"><ele>317.3333333333333</ele><time>2026-04-06T13:22:02Z</time></trkpt><trkpt lat="45.987861866387284" lon="12.172385715807145"><ele>318.0</ele><time>2026-04-06T13:22:03Z</time></trkpt><trkpt lat="45.988029240076926" lon="12.17245060513767"><ele>318.0</ele><time>2026-04-06T13:22:04Z</time></trkpt><trkpt lat="45.98819963878686" lon="12.172498361772876"><ele>318.0</ele><time>2026-04-06T13:22:05Z</time></trkpt><trkpt lat="45.98837751358846" lon="12.172518148159313"><ele>318.0</ele><time>2026-04-06T13:22:06Z</time></trkpt><trkpt lat="45.988559214857474" lon="12.172514888526067"><ele>321.3333333333333</ele><time>2026-04-06T13:22:07Z</time></trkpt><trkpt lat="45.988735668620386" lon="12.172501431922566"><ele>324.66666666666663</ele><time>2026-04-06T13:22:08Z</time></trkpt><trkpt lat="45.9889008350296" lon="12.17248293005011"><ele>328.0</ele><time>2026-04-06T13:22:09Z</time></trkpt><trkpt lat="45.98906213454992" lon="12.172451944557572"><ele>332.3333333333333</ele><time>2026-04-06T13:22:10Z</time></trkpt><trkpt lat="45.989224192565" lon="12.172404183833729"><ele>336.6666666666667</ele><time>2026-04-06T13:22:11Z</time></trkpt><trkpt lat="45.98939298832453" lon="12.172374478926303"><ele>341.0</ele><time>2026-04-06T13:22:12Z</time></trkpt><trkpt lat="45.989567133752196" lon="12.1723932331189"><ele>341.0</ele><time>2026-04-06T13:22:13Z</time></trkpt><trkpt lat="45.989730530877786" lon="12.172429809298238"><ele>341.0</ele><time>2026-04-06T13:22:14Z</time></trkpt><trkpt lat="45.98988188710781" lon="12.172458006584815"><ele>341.0</ele><time>2026-04-06T13:22:15Z</time></trkpt><trkpt lat="45.99001350494123" lon="12.172480649912403"><ele>342.4</ele><time>2026-04-06T13:22:16Z</time></trkpt><trkpt lat="45.99011751461032" lon="12.172500526913808"><ele>343.8</ele><time>2026-04-06T13:22:17Z</time></trkpt><trkpt lat="45.99020234470288" lon="12.172523813241098"><ele>345.2</ele><time>2026-04-06T13:22:18Z</time></trkpt><trkpt lat="45.990273065276185" lon="12.17253853136309"><ele>346.59999999999997</ele><time>2026-04-06T13:22:19Z</time></trkpt><trkpt lat="45.99033486291646" lon="12.172499530483616"><ele>348.0</ele><time>2026-04-06T13:22:20Z</time></trkpt><trkpt lat="45.99035966663713" lon="12.172314104516499"><ele>352.59999999999997</ele><time>2026-04-06T13:22:22Z</time></trkpt><trkpt lat="45.99030509097184" lon="12.172246758462158"><ele>357.2</ele><time>2026-04-06T13:22:23Z</time></trkpt><trkpt lat="45.99022627196673" lon="12.172219233943292"><ele>361.8</ele><time>2026-04-06T13:22:24Z</time></trkpt><trkpt lat="45.9901259155307" lon="12.172214554754596"><ele>366.4</ele><time>2026-04-06T13:22:25Z</time></trkpt><trkpt lat="45.9900051238832" lon="12.172189314868666"><ele>371.0</ele><time>2026-04-06T13:22:26Z</time></trkpt><trkpt lat="45.98987033115093" lon="12.17214328796833"><ele>371.0</ele><time>2026-04-06T13:22:27Z</time></trkpt><trkpt lat="45.98972399058961" lon="12.172091429629505"><ele>371.0</ele><time>2026-04-06T13:22:28Z</time></trkpt><trkpt lat="45.989564335288755" lon="12.17202697419317"><ele>371.0</ele><time>2026-04-06T13:22:29Z</time></trkpt><trkpt lat="45.98940385740281" lon="12.171960178906858"><ele>371.0</ele><time>2026-04-06T13:22:30Z</time></trkpt><trkpt lat="45.98925313075247" lon="12.17189905481443"><ele>371.0</ele><time>2026-04-06T13:22:31Z</time></trkpt><trkpt lat="45.98912521769623" lon="12.171824314656002"><ele>371.0</ele><time>2026-04-06T13:22:32Z</time></trkpt><trkpt lat="45.98902068331326" lon="12.171782036201945"><ele>371.0</ele><time>2026-04-06T13:22:33Z</time></trkpt><trkpt lat="45.98894217477582" lon="12.171750283806745"><ele>371.0</ele><time>2026-04-06T13:22:34Z</time></trkpt><trkpt lat="45.98887925819987" lon="12.171629631559101"><ele>371.0</ele><time>2026-04-06T13:22:36Z</time></trkpt><trkpt lat="45.98891443463768" lon="12.171554191683839"><ele>371.0</ele><time>2026-04-06T13:22:37Z</time></trkpt><trkpt lat="45.98898557264323" lon="12.17151368584608"><ele>371.0</ele><time>2026-04-06T13:22:38Z</time></trkpt><trkpt lat="45.9890791937777" lon="12.171556695975315"><ele>371.0</ele><time>2026-04-06T13:22:39Z</time></trkpt><trkpt lat="45.98917591767522" lon="12.171607100402515"><ele>371.0</ele><time>2026-04-06T13:22:40Z</time></trkpt><trkpt lat="45.989291830235125" lon="12.171666158395423"><ele>371.0</ele><time>2026-04-06T13:22:41Z</time></trkpt><trkpt lat="45.98941632198803" lon="12.171754283614675"><ele>371.0</ele><time>2026-04-06T13:22:42Z</time></trkpt><trkpt lat="45.98955368131282" lon="12.171836462544771"><ele>371.0</ele><time>2026-04-06T13:22:43Z</time></trkpt><trkpt lat="45.98969888715867" lon="12.171901402032065"><ele>371.0</ele><time>2026-04-06T13:22:44Z</time></trkpt><trkpt lat="45.9898487822758" lon="12.171952475403904"><ele>371.0</ele><time>2026-04-06T13:22:45Z</time></trkpt><trkpt lat="45.98999465617953" lon="12.171987256022351"><ele>371.0</ele><time>2026-04-06T13:22:46Z</time></trkpt><trkpt lat="45.990149822379564" lon="12.171996542584308"><ele>371.0</ele><time>2026-04-06T13:22:47Z</time></trkpt><trkpt lat="45.99030562653513" lon="12.171999758031788"><ele>379.0</ele><time>2026-04-06T13:22:48Z</time></trkpt><trkpt lat="45.99045972593415" lon="12.17201481277042"><ele>387.0</ele><time>2026-04-06T13:22:49Z</time></trkpt><trkpt lat="45.99060646648769" lon="12.172079671544783"><ele>395.0</ele><time>2026-04-06T13:22:50Z</time></trkpt><trkpt lat="45.99074840243594" lon="12.172177388632358"><ele>398.5</ele><time>2026-04-06T13:22:51Z</time></trkpt><trkpt lat="45.990886132422006" lon="12.172248631169117"><ele>402.0</ele><time>2026-04-06T13:22:52Z</time></trkpt><trkpt lat="45.99102354602326" lon="12.172282381282752"><ele>405.5</ele><time>2026-04-06T13:22:53Z</time></trkpt><trkpt lat="45.99115617696401" lon="12.17230185302738"><ele>409.0</ele><time>2026-04-06T13:22:54Z</time></trkpt><trkpt lat="45.99128180521075" lon="12.172330996169617"><ele>404.75</ele><time>2026-04-06T13:22:55Z</time></trkpt><trkpt lat="45.99139630886275" lon="12.172404846380887"><ele>400.5</ele><time>2026-04-06T13:22:56Z</time></trkpt><trkpt lat="45.991502832611545" lon="12.172527758192691"><ele>396.25</ele><time>2026-04-06T13:22:57Z</time></trkpt><trkpt lat="45.991603658050785" lon="12.172678130335093"><ele>392.0</ele><time>2026-04-06T13:22:58Z</time></trkpt><trkpt lat="45.99169056727728" lon="12.17282791565692"><ele>392.0</ele><time>2026-04-06T13:22:59Z</time></trkpt><trkpt lat="45.99178066185626" lon="12.172949898891629"><ele>392.0</ele><time>2026-04-06T13:23:00Z</time></trkpt><trkpt lat="45.99189245399488" lon="12.173013880587675"><ele>392.0</ele><time>2026-04-06T13:23:01Z</time></trkpt><trkpt lat="45.992025668993676" lon="12.173046014205918"><ele>392.0</ele><time>2026-04-06T13:23:02Z</time></trkpt><trkpt lat="45.99216928229795" lon="12.1730992643491"><ele>389.66666666666663</ele><time>2026-04-06T13:23:03Z</time></trkpt><trkpt lat="45.992314172112216" lon="12.173199225489176"><ele>387.33333333333337</ele><time>2026-04-06T13:23:04Z</time></trkpt><trkpt lat="45.99246442185005" lon="12.173315126182677"><ele>385.0</ele><time>2026-04-06T13:23:05Z</time></trkpt><trkpt lat="45.992613815974885" lon="12.173447411684409"><ele>385.0</ele><time>2026-04-06T13:23:06Z</time></trkpt><trkpt lat="45.99274912677287" lon="12.173591398199052"><ele>385.0</ele><time>2026-04-06T13:23:07Z</time></trkpt><trkpt lat="45.99286574921187" lon="12.173738576248965"><ele>385.0</ele><time>2026-04-06T13:23:08Z</time></trkpt><trkpt lat="45.992962705299014" lon="12.173864060907347"><ele>385.0</ele><time>2026-04-06T13:23:09Z</time></trkpt><trkpt lat="45.99303783484502" lon="12.17395158513921"><ele>385.0</ele><time>2026-04-06T13:23:10Z</time></trkpt><trkpt lat="45.99310030903721" lon="12.173990235238147"><ele>385.0</ele><time>2026-04-06T13:23:11Z</time></trkpt><trkpt lat="45.993207992274876" lon="12.173931001958092"><ele>385.0</ele><time>2026-04-06T13:23:13Z</time></trkpt><trkpt lat="45.99320500044028" lon="12.173757934720026"><ele>385.0</ele><time>2026-04-06T13:23:15Z</time></trkpt><trkpt lat="45.99315504443808" lon="12.173696099091108"><ele>385.0</ele><time>2026-04-06T13:23:16Z</time></trkpt><trkpt lat="45.99307045937576" lon="12.17361476930269"><ele>385.0</ele><time>2026-04-06T13:23:17Z</time></trkpt><trkpt lat="45.99297798700529" lon="12.17350316610753"><ele>385.0</ele><time>2026-04-06T13:23:18Z</time></trkpt><trkpt lat="45.992875853853434" lon="12.173376911655252"><ele>385.0</ele><time>2026-04-06T13:23:19Z</time></trkpt><trkpt lat="45.99277705290456" lon="12.173252804420608"><ele>386.75</ele><time>2026-04-06T13:23:20Z</time></trkpt><trkpt lat="45.99266622946695" lon="12.173119804436038"><ele>388.5</ele><time>2026-04-06T13:23:21Z</time></trkpt><trkpt lat="45.992545535855506" lon="12.172992404603905"><ele>390.25</ele><time>2026-04-06T13:23:22Z</time></trkpt><trkpt lat="45.992426945951415" lon="12.172894783212488"><ele>392.0</ele><time>2026-04-06T13:23:23Z</time></trkpt><trkpt lat="45.99232395157147" lon="12.172805658928661"><ele>392.0</ele><time>2026-04-06T13:23:24Z</time></trkpt><trkpt lat="45.99222929869768" lon="12.172727254966771"><ele>392.0</ele><time>2026-04-06T13:23:25Z</time></trkpt><trkpt lat="45.99214569456857" lon="12.172659146051055"><ele>392.0</ele><time>2026-04-06T13:23:26Z</time></trkpt><trkpt lat="45.99208486141254" lon="12.17260832561615"><ele>392.0</ele><time>2026-04-06T13:23:27Z</time></trkpt><trkpt lat="45.99209651251652" lon="12.17250334396733"><ele>392.0</ele><time>2026-04-06T13:23:29Z</time></trkpt><trkpt lat="45.99222238245769" lon="12.172581362252082"><ele>392.0</ele><time>2026-04-06T13:23:31Z</time></trkpt><trkpt lat="45.99231913760956" lon="12.172633146222916"><ele>392.0</ele><time>2026-04-06T13:23:32Z</time></trkpt><trkpt lat="45.992415297159184" lon="12.17271752571274"><ele>392.0</ele><time>2026-04-06T13:23:33Z</time></trkpt><trkpt lat="45.99253108256092" lon="12.17280013677326"><ele>392.0</ele><time>2026-04-06T13:23:34Z</time></trkpt><trkpt lat="45.99265736173754" lon="12.172872336612116"><ele>395.25</ele><time>2026-04-06T13:23:35Z</time></trkpt><trkpt lat="45.99277943130595" lon="12.172910814985787"><ele>398.5</ele><time>2026-04-06T13:23:36Z</time></trkpt><trkpt lat="45.99292039640564" lon="12.172894939126042"><ele>401.75</ele><time>2026-04-06T13:23:37Z</time></trkpt><trkpt lat="45.99307432902569" lon="12.172824868461742"><ele>405.0</ele><time>2026-04-06T13:23:38Z</time></trkpt><trkpt lat="45.9932463300867" lon="12.172738185456442"><ele>406.66666666666663</ele><time>2026-04-06T13:23:39Z</time></trkpt><trkpt lat="45.9934103964642" lon="12.172704139124173"><ele>408.3333333333333</ele><time>2026-04-06T13:23:40Z</time></trkpt><trkpt lat="45.99357035323797" lon="12.17272117488336"><ele>410.0</ele><time>2026-04-06T13:23:41Z</time></trkpt><trkpt lat="45.993701318031476" lon="12.172843262621031"><ele>410.0</ele><time>2026-04-06T13:23:42Z</time></trkpt><trkpt lat="45.99384630295218" lon="12.172918557296764"><ele>410.0</ele><time>2026-04-06T13:23:43Z</time></trkpt><trkpt lat="45.993984699860775" lon="12.172987103914682"><ele>410.0</ele><time>2026-04-06T13:23:44Z</time></trkpt><trkpt lat="45.99415255027322" lon="12.173006166009971"><ele>412.66666666666663</ele><time>2026-04-06T13:23:45Z</time></trkpt><trkpt lat="45.99433458205921" lon="12.173031596973214"><ele>415.33333333333337</ele><time>2026-04-06T13:23:46Z</time></trkpt><trkpt lat="45.99452207034752" lon="12.173068965193455"><ele>418.0</ele><time>2026-04-06T13:23:47Z</time></trkpt><trkpt lat="45.994702668063354" lon="12.17308430377523"><ele>418.0</ele><time>2026-04-06T13:23:48Z</time></trkpt><trkpt lat="45.99487409437983" lon="12.173071194136027"><ele>418.0</ele><time>2026-04-06T13:23:49Z</time></trkpt><trkpt lat="45.995047210410526" lon="12.173030210692968"><ele>418.0</ele><time>2026-04-06T13:23:50Z</time></trkpt><trkpt lat="45.99522070729074" lon="12.172952590658893"><ele>419.6666666666667</ele><time>2026-04-06T13:23:51Z</time></trkpt><trkpt lat="45.99540635659824" lon="12.172849447491958"><ele>421.33333333333337</ele><time>2026-04-06T13:23:52Z</time></trkpt><trkpt lat="45.99560469184248" lon="12.172753463550789"><ele>423.0</ele><time>2026-04-06T13:23:53Z</time></trkpt><trkpt lat="45.99579566007601" lon="12.172652415772713"><ele>424.66666666666663</ele><time>2026-04-06T13:23:54Z</time></trkpt><trkpt lat="45.99597056581979" lon="12.172554365798065"><ele>426.3333333333333</ele><time>2026-04-06T13:23:55Z</time></trkpt><trkpt lat="45.99612721428799" lon="12.172467563731256"><ele>428.0</ele><time>2026-04-06T13:23:56Z</time></trkpt><trkpt lat="45.99627242189934" lon="12.17238837541673"><ele>435.3333333333333</ele><time>2026-04-06T13:23:57Z</time></trkpt><trkpt lat="45.99641438291991" lon="12.172327416982297"><ele>442.66666666666663</ele><time>2026-04-06T13:23:58Z</time></trkpt><trkpt lat="45.99655909843816" lon="12.172314865635238"><ele>450.0</ele><time>2026-04-06T13:23:59Z</time></trkpt><trkpt lat="45.99671392436722" lon="12.172353322488421"><ele>444.66666666666663</ele><time>2026-04-06T13:24:00Z</time></trkpt><trkpt lat="45.99687543175177" lon="12.172409720444163"><ele>439.3333333333333</ele><time>2026-04-06T13:24:01Z</time></trkpt><trkpt lat="45.99703763169797" lon="12.172457623895115"><ele>434.0</ele><time>2026-04-06T13:24:02Z</time></trkpt><trkpt lat="45.99719877016739" lon="12.17250050249024"><ele>434.0</ele><time>2026-04-06T13:24:03Z</time></trkpt><trkpt lat="45.99734656500384" lon="12.172542316053363"><ele>434.0</ele><time>2026-04-06T13:24:04Z</time></trkpt><trkpt lat="45.99748141867897" lon="12.17258228173653"><ele>434.0</ele><time>2026-04-06T13:24:05Z</time></trkpt><trkpt lat="45.99759961974262" lon="12.172612329000469"><ele>434.0</ele><time>2026-04-06T13:24:06Z</time></trkpt><trkpt lat="45.997703246664216" lon="12.172616852421628"><ele>437.16666666666663</ele><time>2026-04-06T13:24:07Z</time></trkpt><trkpt lat="45.99778610753047" lon="12.172613895402849"><ele>440.3333333333333</ele><time>2026-04-06T13:24:08Z</time></trkpt><trkpt lat="45.99785522053209" lon="12.172665098056074"><ele>443.5</ele><time>2026-04-06T13:24:09Z</time></trkpt><trkpt lat="45.997875979372445" lon="12.172776608368656"><ele>446.66666666666663</ele><time>2026-04-06T13:24:10Z</time></trkpt><trkpt lat="45.99789296626453" lon="12.17287838134803"><ele>449.8333333333333</ele><time>2026-04-06T13:24:11Z</time></trkpt><trkpt lat="45.99787099600369" lon="12.17297112250008"><ele>453.0</ele><time>2026-04-06T13:24:12Z</time></trkpt><trkpt lat="45.99781368287074" lon="12.17304447181504"><ele>453.0</ele><time>2026-04-06T13:24:13Z</time></trkpt><trkpt lat="45.997731253045316" lon="12.173087933376898"><ele>453.0</ele><time>2026-04-06T13:24:14Z</time></trkpt><trkpt lat="45.997617323334595" lon="12.173109449145416"><ele>453.0</ele><time>2026-04-06T13:24:15Z</time></trkpt><trkpt lat="45.997481970086845" lon="12.173116475101056"><ele>453.0</ele><time>2026-04-06T13:24:16Z</time></trkpt><trkpt lat="45.99732414950594" lon="12.173121835057582"><ele>451.75</ele><time>2026-04-06T13:24:17Z</time></trkpt><trkpt lat="45.99717089395218" lon="12.17313449845695"><ele>450.5</ele><time>2026-04-06T13:24:18Z</time></trkpt><trkpt lat="45.99702906060383" lon="12.173176700765815"><ele>449.25</ele><time>2026-04-06T13:24:19Z</time></trkpt><trkpt lat="45.99688937967603" lon="12.173254047186692"><ele>448.0</ele><time>2026-04-06T13:24:20Z</time></trkpt><trkpt lat="45.99674559672967" lon="12.173344178269241"><ele>445.0</ele><time>2026-04-06T13:24:21Z</time></trkpt><trkpt lat="45.99661360503751" lon="12.173467826586778"><ele>442.0</ele><time>2026-04-06T13:24:22Z</time></trkpt><trkpt lat="45.99649763177556" lon="12.17362831230824"><ele>439.0</ele><time>2026-04-06T13:24:23Z</time></trkpt><trkpt lat="45.996403701048266" lon="12.173779641267886"><ele>439.00000000000006</ele><time>2026-04-06T13:24:24Z</time></trkpt><trkpt lat="45.99635625278292" lon="12.173890393500498"><ele>439.0</ele><time>2026-04-06T13:24:25Z</time></trkpt><trkpt lat="45.996358726105804" lon="12.174048596729325"><ele>439.0</ele><time>2026-04-06T13:24:27Z</time></trkpt><trkpt lat="45.99642327187509" lon="12.174079334291351"><ele>439.0</ele><time>2026-04-06T13:24:28Z</time></trkpt><trkpt lat="45.99649153097561" lon="12.174030236146242"><ele>439.00000000000006</ele><time>2026-04-06T13:24:29Z</time></trkpt><trkpt lat="45.996556754650584" lon="12.173913803079259"><ele>439.0</ele><time>2026-04-06T13:24:30Z</time></trkpt><trkpt lat="45.99662500939374" lon="12.173785466654532"><ele>441.25</ele><time>2026-04-06T13:24:31Z</time></trkpt><trkpt lat="45.99672665106044" lon="12.173686615104748"><ele>443.5</ele><time>2026-04-06T13:24:32Z</time></trkpt><trkpt lat="45.996858899820005" lon="12.173642118246986"><ele>445.75</ele><time>2026-04-06T13:24:33Z</time></trkpt><trkpt lat="45.99700106707737" lon="12.173604542789665"><ele>448.0</ele><time>2026-04-06T13:24:34Z</time></trkpt><trkpt lat="45.997137988045644" lon="12.173595323243983"><ele>448.0</ele><time>2026-04-06T13:24:35Z</time></trkpt><trkpt lat="45.99727817273244" lon="12.173634317502454"><ele>448.0</ele><time>2026-04-06T13:24:36Z</time></trkpt><trkpt lat="45.997411168339696" lon="12.173753399360475"><ele>448.0</ele><time>2026-04-06T13:24:37Z</time></trkpt><trkpt lat="45.997547592805546" lon="12.173814871790627"><ele>448.0</ele><time>2026-04-06T13:24:38Z</time></trkpt><trkpt lat="45.99767787551753" lon="12.173827140520835"><ele>445.5</ele><time>2026-04-06T13:24:39Z</time></trkpt><trkpt lat="45.99780781115273" lon="12.173784753336513"><ele>443.0</ele><time>2026-04-06T13:24:40Z</time></trkpt><trkpt lat="45.99795095989704" lon="12.173720082856251"><ele>440.5</ele><time>2026-04-06T13:24:41Z</time></trkpt><trkpt lat="45.99810367234736" lon="12.173633774394856"><ele>438.0</ele><time>2026-04-06T13:24:42Z</time></trkpt><trkpt lat="45.998273538479566" lon="12.173578044844273"><ele>438.0</ele><time>2026-04-06T13:24:43Z</time></trkpt><trkpt lat="45.99845470724813" lon="12.173483045858765"><ele>438.0</ele><time>2026-04-06T13:24:44Z</time></trkpt><trkpt lat="45.99865758549005" lon="12.173416239261142"><ele>438.0</ele><time>2026-04-06T13:24:45Z</time></trkpt><trkpt lat="45.9988664078574" lon="12.173371751921694"><ele>438.0</ele><time>2026-04-06T13:24:46Z</time></trkpt><trkpt lat="45.99903646486032" lon="12.173365631169203"><ele>438.0</ele><time>2026-04-06T13:24:47Z</time></trkpt><trkpt lat="45.99919800202293" lon="12.173320576102899"><ele>438.0</ele><time>2026-04-06T13:24:48Z</time></trkpt><trkpt lat="45.99935767703928" lon="12.173213212701139"><ele>456.0</ele><time>2026-04-06T13:24:49Z</time></trkpt><trkpt lat="45.99952805164763" lon="12.173097942777654"><ele>474.0</ele><time>2026-04-06T13:24:50Z</time></trkpt><trkpt lat="45.99970084170256" lon="12.172984170944016"><ele>492.0</ele><time>2026-04-06T13:24:51Z</time></trkpt><trkpt lat="45.99985326975704" lon="12.172884626281075"><ele>492.0</ele><time>2026-04-06T13:24:52Z</time></trkpt><trkpt lat="45.99998476672904" lon="12.172784848093752"><ele>492.0</ele><time>2026-04-06T13:24:53Z</time></trkpt><trkpt lat="46.00008377288136" lon="12.172704065034312"><ele>492.0</ele><time>2026-04-06T13:24:54Z</time></trkpt><trkpt lat="46.00015670376703" lon="12.172601710790483"><ele>492.0</ele><time>2026-04-06T13:24:55Z</time></trkpt><trkpt lat="46.00019191709612" lon="12.172488894381964"><ele>492.0</ele><time>2026-04-06T13:24:56Z</time></trkpt><trkpt lat="46.000171884944265" lon="12.172374811779326"><ele>492.00000000000006</ele><time>2026-04-06T13:24:57Z</time></trkpt><trkpt lat="46.0001140354246" lon="12.172286653210485"><ele>492.00000000000006</ele><time>2026-04-06T13:24:58Z</time></trkpt><trkpt lat="46.00001852112801" lon="12.17222115610681"><ele>492.0</ele><time>2026-04-06T13:24:59Z</time></trkpt><trkpt lat="45.999899506435376" lon="12.172167229692121"><ele>492.0</ele><time>2026-04-06T13:25:00Z</time></trkpt><trkpt lat="45.99976701094251" lon="12.17208904227686"><ele>492.0</ele><time>2026-04-06T13:25:01Z</time></trkpt><trkpt lat="45.99963913341978" lon="12.172017551958296"><ele>492.00000000000006</ele><time>2026-04-06T13:25:02Z</time></trkpt><trkpt lat="45.999533812674954" lon="12.17195791791013"><ele>492.00000000000006</ele><time>2026-04-06T13:25:03Z</time></trkpt><trkpt lat="45.99946373589827" lon="12.1719110452215"><ele>492.0</ele><time>2026-04-06T13:25:04Z</time></trkpt><trkpt lat="45.99937896825239" lon="12.171845631276994"><ele>492.0</ele><time>2026-04-06T13:25:06Z</time></trkpt><trkpt lat="45.9994242332751" lon="12.171742310186051"><ele>492.0</ele><time>2026-04-06T13:25:08Z</time></trkpt><trkpt lat="45.99955157334343" lon="12.171823348299988"><ele>492.0</ele><time>2026-04-06T13:25:10Z</time></trkpt><trkpt lat="45.99963027397942" lon="12.171888826184876"><ele>492.0</ele><time>2026-04-06T13:25:11Z</time></trkpt><trkpt lat="45.999741537421684" lon="12.171925047126614"><ele>492.0</ele><time>2026-04-06T13:25:12Z</time></trkpt><trkpt lat="45.999880183682485" lon="12.171942866965118"><ele>492.0</ele><time>2026-04-06T13:25:13Z</time></trkpt><trkpt lat="46.00003833063515" lon="12.171939624144024"><ele>492.0</ele><time>2026-04-06T13:25:14Z</time></trkpt><trkpt lat="46.00019886025885" lon="12.171923305444862"><ele>492.0</ele><time>2026-04-06T13:25:15Z</time></trkpt><trkpt lat="46.00037707046475" lon="12.171904761008497"><ele>492.0</ele><time>2026-04-06T13:25:16Z</time></trkpt><trkpt lat="46.000559056759926" lon="12.171873236761856"><ele>492.0</ele><time>2026-04-06T13:25:17Z</time></trkpt><trkpt lat="46.00073894149636" lon="12.171833674677629"><ele>492.0</ele><time>2026-04-06T13:25:18Z</time></trkpt><trkpt lat="46.00091366009044" lon="12.171839582583894"><ele>492.0</ele><time>2026-04-06T13:25:19Z</time></trkpt><trkpt lat="46.00111761791246" lon="12.171919143926129"><ele>492.0</ele><time>2026-04-06T13:25:20Z</time></trkpt><trkpt lat="46.00130978502327" lon="12.171999128472159"><ele>492.0</ele><time>2026-04-06T13:25:21Z</time></trkpt><trkpt lat="46.001455100846634" lon="12.172061273342766"><ele>550.75</ele><time>2026-04-06T13:25:22Z</time></trkpt><trkpt lat="46.00158891755291" lon="12.172097219086728"><ele>609.5</ele><time>2026-04-06T13:25:23Z</time></trkpt><trkpt lat="46.001718481620166" lon="12.172104649358172"><ele>668.25</ele><time>2026-04-06T13:25:24Z</time></trkpt><trkpt lat="46.00184707070143" lon="12.172062374964431"><ele>727.0</ele><time>2026-04-06T13:25:25Z</time></trkpt><trkpt lat="46.00197005324487" lon="12.171993598697018"><ele>727.0</ele><time>2026-04-06T13:25:26Z</time></trkpt><trkpt lat="46.002073421137275" lon="12.171965908824797"><ele>727.0</ele><time>2026-04-06T13:25:27Z</time></trkpt><trkpt lat="46.002165456579604" lon="12.171934405863947"><ele>727.0</ele><time>2026-04-06T13:25:28Z</time></trkpt><trkpt lat="46.002233765922696" lon="12.171981855675538"><ele>727.0</ele><time>2026-04-06T13:25:29Z</time></trkpt><trkpt lat="46.002276747247684" lon="12.172076974498319"><ele>727.0</ele><time>2026-04-06T13:25:30Z</time></trkpt><trkpt lat="46.00228335952285" lon="12.17220063873432"><ele>727.0</ele><time>2026-04-06T13:25:31Z</time></trkpt><trkpt lat="46.00222411662863" lon="12.172315589099252"><ele>727.0</ele><time>2026-04-06T13:25:32Z</time></trkpt><trkpt lat="46.00215038181959" lon="12.172420278639276"><ele>727.0</ele><time>2026-04-06T13:25:33Z</time></trkpt><trkpt lat="46.00204250022987" lon="12.172517616671914"><ele>727.0</ele><time>2026-04-06T13:25:34Z</time></trkpt><trkpt lat="46.00191576616488" lon="12.172641268179362"><ele>727.0</ele><time>2026-04-06T13:25:35Z</time></trkpt><trkpt lat="46.001773685079144" lon="12.17278443177829"><ele>727.0</ele><time>2026-04-06T13:25:36Z</time></trkpt><trkpt lat="46.001638969520656" lon="12.172909360624717"><ele>727.0</ele><time>2026-04-06T13:25:37Z</time></trkpt><trkpt lat="46.00151372333996" lon="12.172974772049933"><ele>727.0</ele><time>2026-04-06T13:25:38Z</time></trkpt><trkpt lat="46.001385083707" lon="12.172977920546144"><ele>727.0</ele><time>2026-04-06T13:25:39Z</time></trkpt><trkpt lat="46.00123937234437" lon="12.172979929893623"><ele>648.6666666666667</ele><time>2026-04-06T13:25:40Z</time></trkpt><trkpt lat="46.001091401225594" lon="12.173025013122432"><ele>570.3333333333334</ele><time>2026-04-06T13:25:41Z</time></trkpt><trkpt lat="46.00093675489555" lon="12.17305337715588"><ele>492.0</ele><time>2026-04-06T13:25:42Z</time></trkpt><trkpt lat="46.000783059060346" lon="12.17315074256092"><ele>492.0</ele><time>2026-04-06T13:25:43Z</time></trkpt><trkpt lat="46.00065827572728" lon="12.173237165162657"><ele>492.00000000000006</ele><time>2026-04-06T13:25:44Z</time></trkpt><trkpt lat="46.000568125599585" lon="12.173317338147902"><ele>492.00000000000006</ele><time>2026-04-06T13:25:45Z</time></trkpt><trkpt lat="46.00049932519497" lon="12.173359219712728"><ele>492.0</ele><time>2026-04-06T13:25:46Z</time></trkpt><trkpt lat="46.000472557447345" lon="12.173492499755001"><ele>492.0</ele><time>2026-04-06T13:25:48Z</time></trkpt><trkpt lat="46.00054864403469" lon="12.173539301811513"><ele>492.0</ele><time>2026-04-06T13:25:49Z</time></trkpt><trkpt lat="46.00065625992384" lon="12.173469664453568"><ele>492.0</ele><time>2026-04-06T13:25:50Z</time></trkpt><trkpt lat="46.00074496157934" lon="12.173375982216616"><ele>492.0</ele><time>2026-04-06T13:25:51Z</time></trkpt><trkpt lat="46.000848028916025" lon="12.17329859985673"><ele>492.0</ele><time>2026-04-06T13:25:52Z</time></trkpt><trkpt lat="46.000967196283725" lon="12.173261502523978"><ele>492.0</ele><time>2026-04-06T13:25:53Z</time></trkpt><trkpt lat="46.00109556211694" lon="12.17326113859496"><ele>492.0</ele><time>2026-04-06T13:25:54Z</time></trkpt><trkpt lat="46.001229781578076" lon="12.173323153517856"><ele>492.0</ele><time>2026-04-06T13:25:55Z</time></trkpt><trkpt lat="46.001361364803316" lon="12.173399309145307"><ele>492.0</ele><time>2026-04-06T13:25:56Z</time></trkpt><trkpt lat="46.00151149682558" lon="12.173500839658118"><ele>492.0</ele><time>2026-04-06T13:25:57Z</time></trkpt><trkpt lat="46.00165747844851" lon="12.17354711798381"><ele>492.0</ele><time>2026-04-06T13:25:58Z</time></trkpt><trkpt lat="46.001786168590904" lon="12.173551845841697"><ele>492.0</ele><time>2026-04-06T13:25:59Z</time></trkpt><trkpt lat="46.00191494653498" lon="12.173491882006108"><ele>492.0</ele><time>2026-04-06T13:26:00Z</time></trkpt><trkpt lat="46.00206417130551" lon="12.173384961085992"><ele>492.0</ele><time>2026-04-06T13:26:01Z</time></trkpt><trkpt lat="46.00223587782999" lon="12.173302189889581"><ele>492.0</ele><time>2026-04-06T13:26:02Z</time></trkpt><trkpt lat="46.00240173022861" lon="12.173227467933069"><ele>492.0</ele><time>2026-04-06T13:26:03Z</time></trkpt><trkpt lat="46.00254502121241" lon="12.17324227450875"><ele>492.0</ele><time>2026-04-06T13:26:04Z</time></trkpt><trkpt lat="46.00267050481188" lon="12.173291434691292"><ele>492.0</ele><time>2026-04-06T13:26:05Z</time></trkpt><trkpt lat="46.00279568193265" lon="12.173386518932983"><ele>492.0</ele><time>2026-04-06T13:26:06Z</time></trkpt><trkpt lat="46.00295291533816" lon="12.173485861968539"><ele>492.0</ele><time>2026-04-06T13:26:07Z</time></trkpt><trkpt lat="46.00310448264501" lon="12.173589744126645"><ele>492.0</ele><time>2026-04-06T13:26:08Z</time></trkpt><trkpt lat="46.003257776218156" lon="12.173624951058235"><ele>492.0</ele><time>2026-04-06T13:26:09Z</time></trkpt><trkpt lat="46.00342562348609" lon="12.173621754593709"><ele>492.0</ele><time>2026-04-06T13:26:10Z</time></trkpt><trkpt lat="46.003603551830544" lon="12.173575280920863"><ele>492.0</ele><time>2026-04-06T13:26:11Z</time></trkpt><trkpt lat="46.003759739563996" lon="12.173490493960186"><ele>492.0</ele><time>2026-04-06T13:26:12Z</time></trkpt><trkpt lat="46.003869845457075" lon="12.173375140370684"><ele>492.0</ele><time>2026-04-06T13:26:13Z</time></trkpt><trkpt lat="46.00394499747671" lon="12.173214086416772"><ele>492.0</ele><time>2026-04-06T13:26:14Z</time></trkpt><trkpt lat="46.00406660277034" lon="12.17307528051365"><ele>540.6666666666666</ele><time>2026-04-06T13:26:15Z</time></trkpt><trkpt lat="46.00418951228532" lon="12.172908467008105"><ele>589.3333333333333</ele><time>2026-04-06T13:26:16Z</time></trkpt><trkpt lat="46.00418678938553" lon="12.172521280597834"><ele>638.0</ele><time>2026-04-06T13:26:17Z</time></trkpt><trkpt lat="46.00427127152046" lon="12.172271911214633"><ele>638.0</ele><time>2026-04-06T13:26:18Z</time></trkpt><trkpt lat="46.00434820259807" lon="12.17204274159083"><ele>638.0</ele><time>2026-04-06T13:26:19Z</time></trkpt><trkpt lat="46.004406736177394" lon="12.17181953759815"><ele>638.0</ele><time>2026-04-06T13:26:20Z</time></trkpt><trkpt lat="46.00445036901408" lon="12.17160931384273"><ele>666.0</ele><time>2026-04-06T13:26:21Z</time></trkpt><trkpt lat="46.00447182931853" lon="12.1714249888775"><ele>694.0</ele><time>2026-04-06T13:26:22Z</time></trkpt><trkpt lat="46.004462095192466" lon="12.171259743025153"><ele>722.0</ele><time>2026-04-06T13:26:23Z</time></trkpt><trkpt lat="46.004416307941504" lon="12.171104757869418"><ele>750.0</ele><time>2026-04-06T13:26:24Z</time></trkpt><trkpt lat="46.00433997298794" lon="12.17097485374047"><ele>750.0</ele><time>2026-04-06T13:26:25Z</time></trkpt><trkpt lat="46.004270671211636" lon="12.170876438135329"><ele>750.0</ele><time>2026-04-06T13:26:26Z</time></trkpt><trkpt lat="46.00420628651742" lon="12.170819451067931"><ele>750.0</ele><time>2026-04-06T13:26:27Z</time></trkpt><trkpt lat="46.00415746936536" lon="12.170727703414036"><ele>750.0</ele><time>2026-04-06T13:26:29Z</time></trkpt><trkpt lat="46.00426490568601" lon="12.17066946551451"><ele>750.0</ele><time>2026-04-06T13:26:31Z</time></trkpt><trkpt lat="46.0043424139189" lon="12.170756846980328"><ele>750.0</ele><time>2026-04-06T13:26:32Z</time></trkpt><trkpt lat="46.004419841877535" lon="12.170868993379294"><ele>750.0</ele><time>2026-04-06T13:26:33Z</time></trkpt><trkpt lat="46.00451691183324" lon="12.171010598528403"><ele>750.0</ele><time>2026-04-06T13:26:34Z</time></trkpt><trkpt lat="46.004599556577816" lon="12.171184693655485"><ele>750.0</ele><time>2026-04-06T13:26:35Z</time></trkpt><trkpt lat="46.004639935036025" lon="12.171390268083195"><ele>712.6666666666666</ele><time>2026-04-06T13:26:36Z</time></trkpt><trkpt lat="46.00463395438971" lon="12.171632897189571"><ele>675.3333333333333</ele><time>2026-04-06T13:26:37Z</time></trkpt><trkpt lat="46.004614251962195" lon="12.171908929499685"><ele>638.0</ele><time>2026-04-06T13:26:38Z</time></trkpt><trkpt lat="46.00458482339246" lon="12.172163159981721"><ele>638.0</ele><time>2026-04-06T13:26:39Z</time></trkpt><trkpt lat="46.00456361514318" lon="12.172325523419273"><ele>638.0</ele><time>2026-04-06T13:26:40Z</time></trkpt><trkpt lat="46.004548767315555" lon="12.172437134469584"><ele>638.0</ele><time>2026-04-06T13:26:41Z</time></trkpt><trkpt lat="46.004635462330064" lon="12.172490973931993"><ele>638.0</ele><time>2026-04-06T13:26:43Z</time></trkpt><trkpt lat="46.00471928197593" lon="12.172324072097434"><ele>638.0</ele><time>2026-04-06T13:26:45Z</time></trkpt><trkpt lat="46.00472054463957" lon="12.172169294637659"><ele>638.0</ele><time>2026-04-06T13:26:46Z</time></trkpt><trkpt lat="46.004745471753296" lon="12.171992697439391"><ele>638.0</ele><time>2026-04-06T13:26:47Z</time></trkpt><trkpt lat="46.00479373302862" lon="12.171787579871415"><ele>638.0</ele><time>2026-04-06T13:26:48Z</time></trkpt><trkpt lat="46.004832316308104" lon="12.171592883595858"><ele>638.0</ele><time>2026-04-06T13:26:49Z</time></trkpt><trkpt lat="46.00483673239388" lon="12.171363965771647"><ele>648.25</ele><time>2026-04-06T13:26:50Z</time></trkpt><trkpt lat="46.00480909036971" lon="12.171130541840478"><ele>658.5</ele><time>2026-04-06T13:26:51Z</time></trkpt><trkpt lat="46.0047636284787" lon="12.170920974477543"><ele>668.75</ele><time>2026-04-06T13:26:52Z</time></trkpt><trkpt lat="46.004699270310404" lon="12.170760450065101"><ele>679.0</ele><time>2026-04-06T13:26:53Z</time></trkpt><trkpt lat="46.004628194065816" lon="12.17065308393823"><ele>679.0</ele><time>2026-04-06T13:26:54Z</time></trkpt><trkpt lat="46.004568469252106" lon="12.17058798929712"><ele>679.0</ele><time>2026-04-06T13:26:55Z</time></trkpt><trkpt lat="46.00451081219172" lon="12.170544825096918"><ele>679.0</ele><time>2026-04-06T13:26:56Z</time></trkpt><trkpt lat="46.00443366588459" lon="12.170442268823733"><ele>679.0</ele><time>2026-04-06T13:26:58Z</time></trkpt><trkpt lat="46.00437956508485" lon="12.170332753703132"><ele>679.0</ele><time>2026-04-06T13:27:00Z</time></trkpt><trkpt lat="46.00432793279813" lon="12.17024963043107"><ele>679.0</ele><time>2026-04-06T13:27:03Z</time></trkpt><trkpt lat="46.004256126786096" lon="12.170315868323563"><ele>679.0</ele><time>2026-04-06T13:29:57Z</time></trkpt><trkpt lat="46.00419105464258" lon="12.170219054485429"><ele>679.0</ele><time>2026-04-06T13:30:00Z</time></trkpt><trkpt lat="46.004123880608304" lon="12.170126207151846"><ele>679.0</ele><time>2026-04-06T13:30:02Z</time></trkpt><trkpt lat="46.00404515921879" lon="12.170025128273013"><ele>679.0</ele><time>2026-04-06T13:30:04Z</time></trkpt><trkpt lat="46.00397143150856" lon="12.16999486606691"><ele>679.0</ele><time>2026-04-06T13:30:05Z</time></trkpt><trkpt lat="46.00390737225756" lon="12.169974641999888"><ele>679.0</ele><time>2026-04-06T13:30:06Z</time></trkpt><trkpt lat="46.00379396814591" lon="12.16997031089406"><ele>685.0</ele><time>2026-04-06T13:30:08Z</time></trkpt><trkpt lat="46.00370922452175" lon="12.169955429936115"><ele>691.0</ele><time>2026-04-06T13:30:10Z</time></trkpt><trkpt lat="46.00365566516884" lon="12.169846303433003"><ele>697.0</ele><time>2026-04-06T13:30:13.021Z</time></trkpt><trkpt lat="46.003695799085335" lon="12.169753245794123"><ele>703.0</ele><time>2026-04-06T13:30:15.021Z</time></trkpt><trkpt lat="46.00376738530104" lon="12.169696492490047"><ele>709.0</ele><time>2026-04-06T13:30:17.019Z</time></trkpt><trkpt lat="46.00406554066204" lon="12.16980381869913"><ele>709.0</ele><time>2026-04-06T13:30:22Z</time></trkpt><trkpt lat="46.00412540879006" lon="12.16986432382754"><ele>709.0</ele><time>2026-04-06T13:30:23Z</time></trkpt><trkpt lat="46.0041949294786" lon="12.169947462461147"><ele>709.0</ele><time>2026-04-06T13:30:24Z</time></trkpt><trkpt lat="46.00427548228633" lon="12.17006387092735"><ele>709.0</ele><time>2026-04-06T13:30:26Z</time></trkpt><trkpt lat="46.00433312937626" lon="12.170144269083726"><ele>709.0</ele><time>2026-04-06T13:30:28Z</time></trkpt><trkpt lat="46.00442915863098" lon="12.170147271261545"><ele>719.5</ele><time>2026-04-06T13:30:30Z</time></trkpt><trkpt lat="46.00447528932829" lon="12.170016658587837"><ele>730.0</ele><time>2026-04-06T13:30:32.02Z</time></trkpt><trkpt lat="46.004148150250415" lon="12.169574465182844"><ele>730.0</ele><time>2026-04-06T13:30:38Z</time></trkpt><trkpt lat="46.00407246299887" lon="12.169529049823385"><ele>730.0</ele><time>2026-04-06T13:30:39Z</time></trkpt><trkpt lat="46.003929174602696" lon="12.16951310614779"><ele>730.0</ele><time>2026-04-06T13:30:41Z</time></trkpt><trkpt lat="46.00384445861225" lon="12.169442031945605"><ele>730.0</ele><time>2026-04-06T13:30:43Z</time></trkpt><trkpt lat="46.00379230519197" lon="12.169319053892051"><ele>730.0</ele><time>2026-04-06T13:30:45.021Z</time></trkpt><trkpt lat="46.00379822493628" lon="12.169206147678953"><ele>707.0</ele><time>2026-04-06T13:30:47.021Z</time></trkpt><trkpt lat="46.00427802190744" lon="12.169366870086797"><ele>707.0</ele><time>2026-04-06T13:30:56Z</time></trkpt><trkpt lat="46.00435337165555" lon="12.169454525032123"><ele>707.0</ele><time>2026-04-06T13:30:58Z</time></trkpt><trkpt lat="46.004418308425166" lon="12.169489201603014"><ele>707.0</ele><time>2026-04-06T13:30:59Z</time></trkpt><trkpt lat="46.00450977996538" lon="12.169409685986952"><ele>707.0</ele><time>2026-04-06T13:31:01Z</time></trkpt><trkpt lat="46.00449902889764" lon="12.169317205444976"><ele>707.0</ele><time>2026-04-06T13:31:02Z</time></trkpt><trkpt lat="46.00442114743644" lon="12.169250852422039"><ele>707.0</ele><time>2026-04-06T13:31:03Z</time></trkpt><trkpt lat="46.004326233387324" lon="12.169233724978636"><ele>707.0</ele><time>2026-04-06T13:31:04Z</time></trkpt><trkpt lat="46.00423759680002" lon="12.169218066280962"><ele>707.0</ele><time>2026-04-06T13:31:05Z</time></trkpt><trkpt lat="46.00417391475398" lon="12.169188133174375"><ele>707.0</ele><time>2026-04-06T13:31:06Z</time></trkpt><trkpt lat="46.0041135750958" lon="12.169156742701842"><ele>707.0</ele><time>2026-04-06T13:31:07Z</time></trkpt><trkpt lat="46.00400723716085" lon="12.169121418965014"><ele>707.0</ele><time>2026-04-06T13:31:09Z</time></trkpt><trkpt lat="46.003924985409256" lon="12.169054526377826"><ele>707.0</ele><time>2026-04-06T13:31:11.02Z</time></trkpt><trkpt lat="46.00391512918544" lon="12.168928302431299"><ele>707.0</ele><time>2026-04-06T13:31:13.023Z</time></trkpt><trkpt lat="46.004284727429976" lon="12.169069144886144"><ele>707.0</ele><time>2026-04-06T13:31:20Z</time></trkpt><trkpt lat="46.004366304221435" lon="12.169108615611744"><ele>707.0</ele><time>2026-04-06T13:31:21Z</time></trkpt><trkpt lat="46.004481035244794" lon="12.169166337675485"><ele>707.0</ele><time>2026-04-06T13:31:22Z</time></trkpt><trkpt lat="46.004546491171666" lon="12.169215140417462"><ele>707.0</ele><time>2026-04-06T13:31:23Z</time></trkpt><trkpt lat="46.00461400896184" lon="12.169295102950738"><ele>707.0</ele><time>2026-04-06T13:31:24Z</time></trkpt><trkpt lat="46.00465120505981" lon="12.169420752384488"><ele>707.0</ele><time>2026-04-06T13:31:25Z</time></trkpt><trkpt lat="46.00466843656572" lon="12.169546837751923"><ele>707.0</ele><time>2026-04-06T13:31:26Z</time></trkpt><trkpt lat="46.00467445109155" lon="12.169668421084808"><ele>707.0</ele><time>2026-04-06T13:31:27Z</time></trkpt><trkpt lat="46.004670927589245" lon="12.16976161684793"><ele>707.0</ele><time>2026-04-06T13:31:28Z</time></trkpt><trkpt lat="46.00465830001249" lon="12.169857438624556"><ele>707.0</ele><time>2026-04-06T13:31:29Z</time></trkpt><trkpt lat="46.00458632438671" lon="12.169996384421403"><ele>707.0</ele><time>2026-04-06T13:31:31Z</time></trkpt><trkpt lat="46.004540801206716" lon="12.17006233491539"><ele>707.0</ele><time>2026-04-06T13:31:32Z</time></trkpt><trkpt lat="46.004487575219976" lon="12.170190391726406"><ele>707.0</ele><time>2026-04-06T13:31:34.019Z</time></trkpt><trkpt lat="46.00451872504807" lon="12.17029012240654"><ele>707.0</ele><time>2026-04-06T13:31:36.019Z</time></trkpt><trkpt lat="46.00487665743195" lon="12.169822258886107"><ele>707.0</ele><time>2026-04-06T13:31:42Z</time></trkpt><trkpt lat="46.00494710149374" lon="12.169778925717377"><ele>707.0</ele><time>2026-04-06T13:31:43Z</time></trkpt><trkpt lat="46.005059638283704" lon="12.169790549731484"><ele>707.0</ele><time>2026-04-06T13:31:44Z</time></trkpt><trkpt lat="46.005224022753936" lon="12.169774751438505"><ele>707.0</ele><time>2026-04-06T13:31:45Z</time></trkpt><trkpt lat="46.0053898627514" lon="12.169764786955364"><ele>708.3333333333333</ele><time>2026-04-06T13:31:46Z</time></trkpt><trkpt lat="46.00555828972526" lon="12.16974751819391"><ele>709.6666666666666</ele><time>2026-04-06T13:31:47Z</time></trkpt><trkpt lat="46.005716052875236" lon="12.169739677986467"><ele>711.0</ele><time>2026-04-06T13:31:48Z</time></trkpt><trkpt lat="46.00587425325438" lon="12.169726442990422"><ele>711.3333333333334</ele><time>2026-04-06T13:31:49Z</time></trkpt><trkpt lat="46.006033190594835" lon="12.169699272433455"><ele>711.6666666666667</ele><time>2026-04-06T13:31:50Z</time></trkpt><trkpt lat="46.006174889431435" lon="12.169649168808816"><ele>712.0</ele><time>2026-04-06T13:31:51Z</time></trkpt><trkpt lat="46.006324361199916" lon="12.169592357996915"><ele>712.0</ele><time>2026-04-06T13:31:52Z</time></trkpt><trkpt lat="46.006479472271806" lon="12.16954260797501"><ele>712.0</ele><time>2026-04-06T13:31:53Z</time></trkpt><trkpt lat="46.006629175066465" lon="12.169499960086151"><ele>712.0</ele><time>2026-04-06T13:31:54Z</time></trkpt><trkpt lat="46.0067678923063" lon="12.169459148375553"><ele>710.0</ele><time>2026-04-06T13:31:55Z</time></trkpt><trkpt lat="46.00687899713467" lon="12.169422620042571"><ele>708.0</ele><time>2026-04-06T13:31:56Z</time></trkpt><trkpt lat="46.00697021254357" lon="12.169398239701508"><ele>706.0</ele><time>2026-04-06T13:31:57Z</time></trkpt><trkpt lat="46.007051157534676" lon="12.169373431281043"><ele>704.0</ele><time>2026-04-06T13:31:58Z</time></trkpt><trkpt lat="46.0071331661982" lon="12.169346076941341"><ele>702.0</ele><time>2026-04-06T13:31:59Z</time></trkpt><trkpt lat="46.00722316288751" lon="12.169318856660835"><ele>702.0</ele><time>2026-04-06T13:32:00Z</time></trkpt><trkpt lat="46.007312796979136" lon="12.169291310168786"><ele>702.0</ele><time>2026-04-06T13:32:01Z</time></trkpt><trkpt lat="46.007409540858895" lon="12.16926150937402"><ele>702.0</ele><time>2026-04-06T13:32:02Z</time></trkpt><trkpt lat="46.0075104069849" lon="12.16923029955303"><ele>702.0</ele><time>2026-04-06T13:32:03Z</time></trkpt><trkpt lat="46.00761714449238" lon="12.169199129080459"><ele>702.0</ele><time>2026-04-06T13:32:04Z</time></trkpt><trkpt lat="46.007727739523595" lon="12.169167158789056"><ele>701.4000000000001</ele><time>2026-04-06T13:32:05Z</time></trkpt><trkpt lat="46.00784212525432" lon="12.169134078805797"><ele>700.8000000000001</ele><time>2026-04-06T13:32:06Z</time></trkpt><trkpt lat="46.00794756320313" lon="12.169105341401876"><ele>700.2</ele><time>2026-04-06T13:32:07Z</time></trkpt><trkpt lat="46.00804867131734" lon="12.169070677883582"><ele>699.6</ele><time>2026-04-06T13:32:08Z</time></trkpt><trkpt lat="46.00814939915945" lon="12.169039332541118"><ele>699.0</ele><time>2026-04-06T13:32:09Z</time></trkpt><trkpt lat="46.0082496302365" lon="12.169010634285414"><ele>695.5</ele><time>2026-04-06T13:32:10Z</time></trkpt><trkpt lat="46.008350951916995" lon="12.168984668837442"><ele>692.0</ele><time>2026-04-06T13:32:11Z</time></trkpt><trkpt lat="46.008462421945204" lon="12.168945544007178"><ele>688.5</ele><time>2026-04-06T13:32:12Z</time></trkpt><trkpt lat="46.00857460371445" lon="12.168890407649009"><ele>685.0</ele><time>2026-04-06T13:32:13Z</time></trkpt><trkpt lat="46.00869532257484" lon="12.168818660273514"><ele>685.0</ele><time>2026-04-06T13:32:14Z</time></trkpt><trkpt lat="46.00882272602394" lon="12.16874103784608"><ele>685.0</ele><time>2026-04-06T13:32:15Z</time></trkpt><trkpt lat="46.00895162430339" lon="12.168665328639229"><ele>685.0</ele><time>2026-04-06T13:32:16Z</time></trkpt><trkpt lat="46.00908425820536" lon="12.1686000148391"><ele>685.0</ele><time>2026-04-06T13:32:17Z</time></trkpt><trkpt lat="46.00921993951514" lon="12.168551370062055"><ele>683.75</ele><time>2026-04-06T13:32:18Z</time></trkpt><trkpt lat="46.00935703453665" lon="12.168512481493865"><ele>682.5</ele><time>2026-04-06T13:32:19Z</time></trkpt><trkpt lat="46.00949964839454" lon="12.168467607714975"><ele>681.25</ele><time>2026-04-06T13:32:20Z</time></trkpt><trkpt lat="46.0096466815609" lon="12.168416345862243"><ele>680.0</ele><time>2026-04-06T13:32:21Z</time></trkpt><trkpt lat="46.00980235231671" lon="12.168361170817095"><ele>680.0</ele><time>2026-04-06T13:32:22Z</time></trkpt><trkpt lat="46.00995737157596" lon="12.168306152355985"><ele>680.0</ele><time>2026-04-06T13:32:23Z</time></trkpt><trkpt lat="46.010112327890766" lon="12.168248263215638"><ele>680.0</ele><time>2026-04-06T13:32:24Z</time></trkpt><trkpt lat="46.01026916142882" lon="12.16819296772818"><ele>677.0</ele><time>2026-04-06T13:32:25Z</time></trkpt><trkpt lat="46.01042376468058" lon="12.168138355059268"><ele>674.0</ele><time>2026-04-06T13:32:26Z</time></trkpt><trkpt lat="46.01057464033899" lon="12.16807642415206"><ele>671.0</ele><time>2026-04-06T13:32:27Z</time></trkpt><trkpt lat="46.01071805588616" lon="12.16800448151184"><ele>670.75</ele><time>2026-04-06T13:32:28Z</time></trkpt><trkpt lat="46.01085516089997" lon="12.167923081386052"><ele>670.5</ele><time>2026-04-06T13:32:29Z</time></trkpt><trkpt lat="46.01098721844811" lon="12.167838450278026"><ele>670.25</ele><time>2026-04-06T13:32:30Z</time></trkpt><trkpt lat="46.01111701188716" lon="12.167761433573304"><ele>670.0</ele><time>2026-04-06T13:32:31Z</time></trkpt><trkpt lat="46.01124904532957" lon="12.16769690136016"><ele>670.0</ele><time>2026-04-06T13:32:32Z</time></trkpt><trkpt lat="46.011382108420804" lon="12.167649874324455"><ele>670.0</ele><time>2026-04-06T13:32:33Z</time></trkpt><trkpt lat="46.01151755252332" lon="12.167630206304997"><ele>670.0</ele><time>2026-04-06T13:32:34Z</time></trkpt><trkpt lat="46.01165321360256" lon="12.167629921637744"><ele>670.0</ele><time>2026-04-06T13:32:35Z</time></trkpt><trkpt lat="46.01178844348501" lon="12.167632887085716"><ele>670.5</ele><time>2026-04-06T13:32:36Z</time></trkpt><trkpt lat="46.01192878144014" lon="12.167635060593435"><ele>671.0</ele><time>2026-04-06T13:32:37Z</time></trkpt><trkpt lat="46.0120716671847" lon="12.167638343311376"><ele>671.5</ele><time>2026-04-06T13:32:38Z</time></trkpt><trkpt lat="46.012217655377476" lon="12.167635636503002"><ele>672.0</ele><time>2026-04-06T13:32:39Z</time></trkpt><trkpt lat="46.01235941507375" lon="12.167621847862158"><ele>672.0</ele><time>2026-04-06T13:32:40Z</time></trkpt><trkpt lat="46.01249895908249" lon="12.167594892330866"><ele>672.0</ele><time>2026-04-06T13:32:41Z</time></trkpt><trkpt lat="46.01263914276842" lon="12.167553447943774"><ele>672.0</ele><time>2026-04-06T13:32:42Z</time></trkpt><trkpt lat="46.01278072315371" lon="12.167513447571146"><ele>672.0</ele><time>2026-04-06T13:32:43Z</time></trkpt><trkpt lat="46.01291960209616" lon="12.167474502381896"><ele>672.0</ele><time>2026-04-06T13:32:44Z</time></trkpt><trkpt lat="46.01305565494909" lon="12.16743522951572"><ele>672.0</ele><time>2026-04-06T13:32:45Z</time></trkpt><trkpt lat="46.01318644589364" lon="12.167397354185576"><ele>672.0</ele><time>2026-04-06T13:32:46Z</time></trkpt><trkpt lat="46.01331714258599" lon="12.167361651916218"><ele>672.0</ele><time>2026-04-06T13:32:47Z</time></trkpt><trkpt lat="46.01344429307799" lon="12.167327524934088"><ele>666.5</ele><time>2026-04-06T13:32:48Z</time></trkpt><trkpt lat="46.013571126666264" lon="12.167290111559527"><ele>661.0</ele><time>2026-04-06T13:32:49Z</time></trkpt><trkpt lat="46.01369695417376" lon="12.167269345266263"><ele>655.5</ele><time>2026-04-06T13:32:50Z</time></trkpt><trkpt lat="46.01382473674816" lon="12.167241556848964"><ele>650.0</ele><time>2026-04-06T13:32:51Z</time></trkpt><trkpt lat="46.013949858504844" lon="12.167229667602964"><ele>650.0</ele><time>2026-04-06T13:32:52Z</time></trkpt><trkpt lat="46.0140702178439" lon="12.167236935284047"><ele>650.0</ele><time>2026-04-06T13:32:53Z</time></trkpt><trkpt lat="46.0141915328689" lon="12.167230483633276"><ele>650.0</ele><time>2026-04-06T13:32:54Z</time></trkpt><trkpt lat="46.014315805890874" lon="12.16720869426103"><ele>650.0</ele><time>2026-04-06T13:32:55Z</time></trkpt><trkpt lat="46.01444161088955" lon="12.167186092082817"><ele>651.25</ele><time>2026-04-06T13:32:56Z</time></trkpt><trkpt lat="46.01456502044711" lon="12.16717333945046"><ele>652.5</ele><time>2026-04-06T13:32:57Z</time></trkpt><trkpt lat="46.01468880266278" lon="12.167166044515449"><ele>653.75</ele><time>2026-04-06T13:32:58Z</time></trkpt><trkpt lat="46.0148111965636" lon="12.167180533320098"><ele>655.0</ele><time>2026-04-06T13:32:59Z</time></trkpt><trkpt lat="46.01493602376056" lon="12.167196164036008"><ele>654.5</ele><time>2026-04-06T13:33:00Z</time></trkpt><trkpt lat="46.01506356572749" lon="12.167193796390192"><ele>654.0</ele><time>2026-04-06T13:33:01Z</time></trkpt><trkpt lat="46.01519471948507" lon="12.167179553504907"><ele>653.5</ele><time>2026-04-06T13:33:02Z</time></trkpt><trkpt lat="46.01532478956725" lon="12.16715583709992"><ele>653.0</ele><time>2026-04-06T13:33:03Z</time></trkpt><trkpt lat="46.01545925817899" lon="12.167125956495136"><ele>653.0</ele><time>2026-04-06T13:33:04Z</time></trkpt><trkpt lat="46.015593421380295" lon="12.16709425901711"><ele>653.0</ele><time>2026-04-06T13:33:05Z</time></trkpt><trkpt lat="46.01573011865494" lon="12.167058398352532"><ele>653.0</ele><time>2026-04-06T13:33:06Z</time></trkpt><trkpt lat="46.01586941233617" lon="12.167015712754017"><ele>653.0</ele><time>2026-04-06T13:33:07Z</time></trkpt><trkpt lat="46.01600899801733" lon="12.166976565516913"><ele>654.5</ele><time>2026-04-06T13:33:08Z</time></trkpt><trkpt lat="46.01614987953949" lon="12.16693903047772"><ele>656.0</ele><time>2026-04-06T13:33:09Z</time></trkpt><trkpt lat="46.01628818164039" lon="12.166900913797821"><ele>657.5</ele><time>2026-04-06T13:33:10Z</time></trkpt><trkpt lat="46.01642432846731" lon="12.166865395907593"><ele>659.0</ele><time>2026-04-06T13:33:11Z</time></trkpt><trkpt lat="46.01654959457953" lon="12.166835185705203"><ele>659.0</ele><time>2026-04-06T13:33:12Z</time></trkpt><trkpt lat="46.016628025581525" lon="12.16682047756642"><ele>659.0</ele><time>2026-04-06T13:33:13Z</time></trkpt><trkpt lat="46.016700365742054" lon="12.166816162132097"><ele>659.0</ele><time>2026-04-06T13:33:15Z</time></trkpt><trkpt lat="46.01658446055888" lon="12.166799410302723"><ele>659.0</ele><time>2026-04-06T13:33:35Z</time></trkpt><trkpt lat="46.01652201661548" lon="12.16681782877515"><ele>659.0</ele><time>2026-04-06T13:33:36Z</time></trkpt><trkpt lat="46.01644555793657" lon="12.16684140778609"><ele>659.0</ele><time>2026-04-06T13:33:37Z</time></trkpt><trkpt lat="46.016349596098046" lon="12.166872982529677"><ele>659.0</ele><time>2026-04-06T13:33:38Z</time></trkpt><trkpt lat="46.01623276495227" lon="12.166906579219193"><ele>659.0</ele><time>2026-04-06T13:33:39Z</time></trkpt><trkpt lat="46.016117257446886" lon="12.166936531164325"><ele>659.0</ele><time>2026-04-06T13:33:40Z</time></trkpt><trkpt lat="46.01600966766676" lon="12.16696980531753"><ele>659.0</ele><time>2026-04-06T13:33:41Z</time></trkpt><trkpt lat="46.01588552026536" lon="12.167010700402395"><ele>657.0</ele><time>2026-04-06T13:33:42Z</time></trkpt><trkpt lat="46.015745261872354" lon="12.167044975276706"><ele>655.0</ele><time>2026-04-06T13:33:43Z</time></trkpt><trkpt lat="46.01559822765408" lon="12.167082536997817"><ele>653.0</ele><time>2026-04-06T13:33:44Z</time></trkpt><trkpt lat="46.01544092555153" lon="12.167125981062997"><ele>653.0</ele><time>2026-04-06T13:33:45Z</time></trkpt><trkpt lat="46.015288986009466" lon="12.16716404451825"><ele>653.0</ele><time>2026-04-06T13:33:46Z</time></trkpt><trkpt lat="46.0151437492746" lon="12.167192584046717"><ele>653.0</ele><time>2026-04-06T13:33:47Z</time></trkpt><trkpt lat="46.014987814402026" lon="12.16720512074509"><ele>653.6666666666666</ele><time>2026-04-06T13:33:48Z</time></trkpt><trkpt lat="46.01483035072238" lon="12.167194843351588"><ele>654.3333333333334</ele><time>2026-04-06T13:33:49Z</time></trkpt><trkpt lat="46.01467395704118" lon="12.16717680905491"><ele>655.0</ele><time>2026-04-06T13:33:50Z</time></trkpt><trkpt lat="46.01452358081206" lon="12.167180454507296"><ele>655.0</ele><time>2026-04-06T13:33:51Z</time></trkpt><trkpt lat="46.01437201884696" lon="12.16720210118654"><ele>655.0</ele><time>2026-04-06T13:33:52Z</time></trkpt><trkpt lat="46.014216482369235" lon="12.167218968071948"><ele>655.0</ele><time>2026-04-06T13:33:53Z</time></trkpt><trkpt lat="46.014070362047654" lon="12.167226331992294"><ele>653.75</ele><time>2026-04-06T13:33:54Z</time></trkpt><trkpt lat="46.013930860874716" lon="12.167228780577403"><ele>652.5</ele><time>2026-04-06T13:33:55Z</time></trkpt><trkpt lat="46.01379607136859" lon="12.16723616794148"><ele>651.25</ele><time>2026-04-06T13:33:56Z</time></trkpt><trkpt lat="46.013655687878405" lon="12.167262890856474"><ele>650.0</ele><time>2026-04-06T13:33:57Z</time></trkpt><trkpt lat="46.013507307393176" lon="12.167303997971871"><ele>650.0</ele><time>2026-04-06T13:33:58Z</time></trkpt><trkpt lat="46.01334550057855" lon="12.167350593041318"><ele>650.0</ele><time>2026-04-06T13:33:59Z</time></trkpt><trkpt lat="46.01317824569196" lon="12.16739583336081"><ele>650.0</ele><time>2026-04-06T13:34:00Z</time></trkpt><trkpt lat="46.0130013225788" lon="12.167441482998822"><ele>657.3333333333333</ele><time>2026-04-06T13:34:01Z</time></trkpt><trkpt lat="46.012823659503994" lon="12.167499651631248"><ele>664.6666666666666</ele><time>2026-04-06T13:34:02Z</time></trkpt><trkpt lat="46.01266213796847" lon="12.167544756504679"><ele>672.0</ele><time>2026-04-06T13:34:03Z</time></trkpt><trkpt lat="46.01251177312022" lon="12.167593629036254"><ele>672.0</ele><time>2026-04-06T13:34:04Z</time></trkpt><trkpt lat="46.012366521574386" lon="12.167633670096787"><ele>672.0</ele><time>2026-04-06T13:34:05Z</time></trkpt><trkpt lat="46.01221231682207" lon="12.16764373390496"><ele>672.0</ele><time>2026-04-06T13:34:06Z</time></trkpt><trkpt lat="46.012046298403085" lon="12.167638840764619"><ele>672.0</ele><time>2026-04-06T13:34:07Z</time></trkpt><trkpt lat="46.01187521549697" lon="12.167626615841225"><ele>672.0</ele><time>2026-04-06T13:34:08Z</time></trkpt><trkpt lat="46.0117067502106" lon="12.167618361019906"><ele>672.0</ele><time>2026-04-06T13:34:09Z</time></trkpt><trkpt lat="46.01155367549854" lon="12.16761899667058"><ele>671.5</ele><time>2026-04-06T13:34:10Z</time></trkpt><trkpt lat="46.01141169314886" lon="12.16764191641172"><ele>671.0</ele><time>2026-04-06T13:34:11Z</time></trkpt><trkpt lat="46.01127950159784" lon="12.167692653211217"><ele>670.5</ele><time>2026-04-06T13:34:12Z</time></trkpt><trkpt lat="46.011141064832536" lon="12.16776518411533"><ele>670.0</ele><time>2026-04-06T13:34:13Z</time></trkpt><trkpt lat="46.010996870617475" lon="12.16784894859374"><ele>670.0</ele><time>2026-04-06T13:34:14Z</time></trkpt><trkpt lat="46.01084270756907" lon="12.16794977197851"><ele>670.0</ele><time>2026-04-06T13:34:15Z</time></trkpt><trkpt lat="46.01068317202685" lon="12.168041372324629"><ele>670.0</ele><time>2026-04-06T13:34:16Z</time></trkpt><trkpt lat="46.010509424555224" lon="12.168121350838232"><ele>670.3333333333334</ele><time>2026-04-06T13:34:17Z</time></trkpt><trkpt lat="46.01032920425011" lon="12.168185846987658"><ele>670.6666666666666</ele><time>2026-04-06T13:34:18Z</time></trkpt><trkpt lat="46.010144242875604" lon="12.168248626691504"><ele>671.0</ele><time>2026-04-06T13:34:19Z</time></trkpt><trkpt lat="46.0099530705656" lon="12.168313440942416"><ele>674.0</ele><time>2026-04-06T13:34:20Z</time></trkpt><trkpt lat="46.00975507059761" lon="12.168378455399004"><ele>677.0</ele><time>2026-04-06T13:34:21Z</time></trkpt><trkpt lat="46.00955381407963" lon="12.1684478341339"><ele>680.0</ele><time>2026-04-06T13:34:22Z</time></trkpt><trkpt lat="46.00937181796199" lon="12.168506447979416"><ele>680.0</ele><time>2026-04-06T13:34:23Z</time></trkpt><trkpt lat="46.00920507538244" lon="12.168561229334266"><ele>680.0</ele><time>2026-04-06T13:34:24Z</time></trkpt><trkpt lat="46.009051078508676" lon="12.168616737952211"><ele>680.0</ele><time>2026-04-06T13:34:25Z</time></trkpt><trkpt lat="46.00890799001015" lon="12.168690701834286"><ele>681.25</ele><time>2026-04-06T13:34:26Z</time></trkpt><trkpt lat="46.00877011274864" lon="12.168778477014596"><ele>682.5</ele><time>2026-04-06T13:34:27Z</time></trkpt><trkpt lat="46.00864576676754" lon="12.168858706754675"><ele>683.75</ele><time>2026-04-06T13:34:28Z</time></trkpt><trkpt lat="46.00852681367298" lon="12.168917588999577"><ele>685.0</ele><time>2026-04-06T13:34:29Z</time></trkpt><trkpt lat="46.008414790920426" lon="12.168963496109676"><ele>685.8333333333334</ele><time>2026-04-06T13:34:30Z</time></trkpt><trkpt lat="46.00831580083222" lon="12.168997440901883"><ele>686.6666666666667</ele><time>2026-04-06T13:34:31Z</time></trkpt><trkpt lat="46.0082243837113" lon="12.169027923503593"><ele>687.5</ele><time>2026-04-06T13:34:32Z</time></trkpt><trkpt lat="46.0081394310285" lon="12.169057005226701"><ele>688.3333333333334</ele><time>2026-04-06T13:34:33Z</time></trkpt><trkpt lat="46.0080628125235" lon="12.169079474341313"><ele>689.1666666666666</ele><time>2026-04-06T13:34:34Z</time></trkpt><trkpt lat="46.00798711930769" lon="12.169100823315443"><ele>690.0</ele><time>2026-04-06T13:34:35Z</time></trkpt><trkpt lat="46.00792072325844" lon="12.16911936693554"><ele>691.5</ele><time>2026-04-06T13:34:36Z</time></trkpt><trkpt lat="46.007858507883725" lon="12.169140558822996"><ele>693.0</ele><time>2026-04-06T13:34:37Z</time></trkpt><trkpt lat="46.00775629964922" lon="12.169182435043384"><ele>694.5</ele><time>2026-04-06T13:34:39Z</time></trkpt><trkpt lat="46.00767727931885" lon="12.169214218062683"><ele>696.0</ele><time>2026-04-06T13:34:41Z</time></trkpt><trkpt lat="46.00756441564084" lon="12.169234818148349"><ele>697.5</ele><time>2026-04-06T13:34:43Z</time></trkpt><trkpt lat="46.00749995661377" lon="12.169248025233665"><ele>699.0</ele><time>2026-04-06T13:34:44Z</time></trkpt><trkpt lat="46.00743338550486" lon="12.169269776338028"><ele>699.6</ele><time>2026-04-06T13:34:45Z</time></trkpt><trkpt lat="46.007369685820564" lon="12.169290705594038"><ele>700.2</ele><time>2026-04-06T13:34:46Z</time></trkpt><trkpt lat="46.00725075555999" lon="12.16932617815214"><ele>700.8000000000001</ele><time>2026-04-06T13:34:48Z</time></trkpt><trkpt lat="46.00715048004039" lon="12.169351852860451"><ele>701.4000000000001</ele><time>2026-04-06T13:34:50Z</time></trkpt><trkpt lat="46.00707490260171" lon="12.169376648166663"><ele>702.0</ele><time>2026-04-06T13:34:52Z</time></trkpt><trkpt lat="46.006993754949534" lon="12.169414242739633"><ele>702.0</ele><time>2026-04-06T13:34:55Z</time></trkpt><trkpt lat="46.006928617575625" lon="12.169354532534753"><ele>702.0</ele><time>2026-04-06T13:34:59Z</time></trkpt><trkpt lat="46.00693604637545" lon="12.169255469783122"><ele>702.0</ele><time>2026-04-06T13:35:03Z</time></trkpt><trkpt lat="46.00697188211532" lon="12.16933981345998"><ele>702.0</ele><time>2026-04-06T13:35:44Z</time></trkpt><trkpt lat="46.00705659697937" lon="12.169370264527123"><ele>702.0</ele><time>2026-04-06T13:35:58Z</time></trkpt><trkpt lat="46.0070499794043" lon="12.169496039498393"><ele>702.0</ele><time>2026-04-06T13:37:22Z</time></trkpt><trkpt lat="46.00702451775413" lon="12.169318832248374"><ele>702.0</ele><time>2026-04-06T13:37:25Z</time></trkpt></trkseg><trkseg><trkpt lat="46.00693624784235" lon="12.169262346544706"><ele>702.0</ele><time>2026-04-06T13:49:49Z</time></trkpt><trkpt lat="46.00691716063369" lon="12.169354807989064"><ele>702.0</ele><time>2026-04-06T13:49:52Z</time></trkpt><trkpt lat="46.00695970429088" lon="12.169428793315355"><ele>702.0</ele><time>2026-04-06T13:50:12Z</time></trkpt><trkpt lat="46.00703671284915" lon="12.169425582636906"><ele>702.0</ele><time>2026-04-06T13:50:14Z</time></trkpt><trkpt lat="46.00711785503307" lon="12.169391563296386"><ele>702.0</ele><time>2026-04-06T13:50:15Z</time></trkpt><trkpt lat="46.007194446957236" lon="12.169350002898499"><ele>702.0</ele><time>2026-04-06T13:50:16Z</time></trkpt><trkpt lat="46.00726666758498" lon="12.169320458559655"><ele>702.0</ele><time>2026-04-06T13:50:17Z</time></trkpt><trkpt lat="46.00734385647878" lon="12.169288845929675"><ele>702.0</ele><time>2026-04-06T13:50:18Z</time></trkpt><trkpt lat="46.00741914388468" lon="12.169253013236204"><ele>702.0</ele><time>2026-04-06T13:50:19Z</time></trkpt><trkpt lat="46.007489240747624" lon="12.16922319023643"><ele>702.0</ele><time>2026-04-06T13:50:20Z</time></trkpt><trkpt lat="46.0075606845231" lon="12.169196560886954"><ele>702.0</ele><time>2026-04-06T13:50:21Z</time></trkpt><trkpt lat="46.00764268502022" lon="12.16918601487459"><ele>702.0</ele><time>2026-04-06T13:50:22Z</time></trkpt><trkpt lat="46.00773080628779" lon="12.169173983876254"><ele>701.4000000000001</ele><time>2026-04-06T13:50:23Z</time></trkpt><trkpt lat="46.0078166309634" lon="12.169153265213692"><ele>700.8000000000001</ele><time>2026-04-06T13:50:24Z</time></trkpt><trkpt lat="46.007916851060045" lon="12.169123404096757"><ele>700.2</ele><time>2026-04-06T13:50:25Z</time></trkpt><trkpt lat="46.00801619333416" lon="12.169092181982311"><ele>699.6</ele><time>2026-04-06T13:50:26Z</time></trkpt><trkpt lat="46.008106242911154" lon="12.1690593608258"><ele>699.0</ele><time>2026-04-06T13:50:27Z</time></trkpt><trkpt lat="46.00819392491912" lon="12.169037320647506"><ele>697.2</ele><time>2026-04-06T13:50:28Z</time></trkpt><trkpt lat="46.008294831810005" lon="12.169007772927435"><ele>695.4000000000001</ele><time>2026-04-06T13:50:29Z</time></trkpt><trkpt lat="46.008394988107476" lon="12.1689737740252"><ele>693.6</ele><time>2026-04-06T13:50:30Z</time></trkpt><trkpt lat="46.008497506753535" lon="12.168924394670743"><ele>691.8</ele><time>2026-04-06T13:50:31Z</time></trkpt><trkpt lat="46.008611313976154" lon="12.168864128089082"><ele>690.0</ele><time>2026-04-06T13:50:32Z</time></trkpt><trkpt lat="46.00872462396332" lon="12.168791105582292"><ele>688.75</ele><time>2026-04-06T13:50:33Z</time></trkpt><trkpt lat="46.00884127233893" lon="12.168715086515926"><ele>687.5</ele><time>2026-04-06T13:50:34Z</time></trkpt><trkpt lat="46.008967999571446" lon="12.168649450881723"><ele>686.25</ele><time>2026-04-06T13:50:35Z</time></trkpt><trkpt lat="46.009101676361404" lon="12.168594990545019"><ele>685.0</ele><time>2026-04-06T13:50:36Z</time></trkpt><trkpt lat="46.00924457305054" lon="12.168549644696979"><ele>683.3333333333334</ele><time>2026-04-06T13:50:37Z</time></trkpt><trkpt lat="46.009393753615456" lon="12.168508146592929"><ele>681.6666666666666</ele><time>2026-04-06T13:50:38Z</time></trkpt><trkpt lat="46.00954703568404" lon="12.168457606760022"><ele>680.0</ele><time>2026-04-06T13:50:39Z</time></trkpt><trkpt lat="46.00970091264911" lon="12.168402803647838"><ele>680.0</ele><time>2026-04-06T13:50:40Z</time></trkpt><trkpt lat="46.00985616411991" lon="12.168344016656025"><ele>680.0</ele><time>2026-04-06T13:50:41Z</time></trkpt><trkpt lat="46.01001561112223" lon="12.168285740585386"><ele>680.0</ele><time>2026-04-06T13:50:42Z</time></trkpt><trkpt lat="46.0101697868264" lon="12.16822391268766"><ele>677.0</ele><time>2026-04-06T13:50:43Z</time></trkpt><trkpt lat="46.01032240130845" lon="12.168172460079386"><ele>674.0</ele><time>2026-04-06T13:50:44Z</time></trkpt><trkpt lat="46.01047615904527" lon="12.168118183902662"><ele>671.0</ele><time>2026-04-06T13:50:45Z</time></trkpt><trkpt lat="46.010623865273566" lon="12.168054012836604"><ele>671.0</ele><time>2026-04-06T13:50:46Z</time></trkpt><trkpt lat="46.01076162502477" lon="12.167971850985996"><ele>671.0</ele><time>2026-04-06T13:50:47Z</time></trkpt><trkpt lat="46.010890285501894" lon="12.167887973150778"><ele>671.0</ele><time>2026-04-06T13:50:48Z</time></trkpt><trkpt lat="46.011020733055545" lon="12.167803157571251"><ele>671.0</ele><time>2026-04-06T13:50:49Z</time></trkpt><trkpt lat="46.011149655281" lon="12.167734782090982"><ele>670.75</ele><time>2026-04-06T13:50:50Z</time></trkpt><trkpt lat="46.011277499540746" lon="12.167676435432577"><ele>670.5</ele><time>2026-04-06T13:50:51Z</time></trkpt><trkpt lat="46.011403868052334" lon="12.167630667938573"><ele>670.25</ele><time>2026-04-06T13:50:52Z</time></trkpt><trkpt lat="46.01153914573479" lon="12.16760814273375"><ele>670.0</ele><time>2026-04-06T13:50:53Z</time></trkpt><trkpt lat="46.01168145547078" lon="12.167611345051311"><ele>670.5</ele><time>2026-04-06T13:50:54Z</time></trkpt><trkpt lat="46.01183095317555" lon="12.167625985630867"><ele>671.0</ele><time>2026-04-06T13:50:55Z</time></trkpt><trkpt lat="46.01198077090067" lon="12.167636799882393"><ele>671.5</ele><time>2026-04-06T13:50:56Z</time></trkpt><trkpt lat="46.01212731874776" lon="12.167642936950157"><ele>672.0</ele><time>2026-04-06T13:50:57Z</time></trkpt><trkpt lat="46.01227157042254" lon="12.167635826746125"><ele>672.0</ele><time>2026-04-06T13:50:58Z</time></trkpt><trkpt lat="46.01240891538561" lon="12.167611610470088"><ele>672.0</ele><time>2026-04-06T13:50:59Z</time></trkpt><trkpt lat="46.0125561934835" lon="12.167568494134558"><ele>672.0</ele><time>2026-04-06T13:51:00Z</time></trkpt><trkpt lat="46.01270839660704" lon="12.167517982864117"><ele>672.0</ele><time>2026-04-06T13:51:01Z</time></trkpt><trkpt lat="46.012870907121" lon="12.167472009995114"><ele>672.0</ele><time>2026-04-06T13:51:02Z</time></trkpt><trkpt lat="46.01303658475569" lon="12.16742542247215"><ele>672.0</ele><time>2026-04-06T13:51:03Z</time></trkpt><trkpt lat="46.01320177094714" lon="12.167376969364414"><ele>672.0</ele><time>2026-04-06T13:51:04Z</time></trkpt><trkpt lat="46.013371238756555" lon="12.167333577883605"><ele>664.6666666666666</ele><time>2026-04-06T13:51:05Z</time></trkpt><trkpt lat="46.013543055809194" lon="12.167286348498953"><ele>657.3333333333333</ele><time>2026-04-06T13:51:06Z</time></trkpt><trkpt lat="46.01371610113561" lon="12.167249356939454"><ele>650.0</ele><time>2026-04-06T13:51:07Z</time></trkpt><trkpt lat="46.01389474439096" lon="12.167219327725341"><ele>650.0</ele><time>2026-04-06T13:51:08Z</time></trkpt><trkpt lat="46.01405521943495" lon="12.167220475644022"><ele>650.0</ele><time>2026-04-06T13:51:09Z</time></trkpt><trkpt lat="46.014214248490006" lon="12.167231323415699"><ele>650.0</ele><time>2026-04-06T13:51:10Z</time></trkpt><trkpt lat="46.01437517567507" lon="12.167216755261515"><ele>651.6666666666666</ele><time>2026-04-06T13:51:11Z</time></trkpt><trkpt lat="46.01453333097446" lon="12.167188222766713"><ele>653.3333333333334</ele><time>2026-04-06T13:51:12Z</time></trkpt><trkpt lat="46.01468442347808" lon="12.167168703045483"><ele>655.0</ele><time>2026-04-06T13:51:13Z</time></trkpt><trkpt lat="46.014826890009786" lon="12.167183429466121"><ele>655.0</ele><time>2026-04-06T13:51:14Z</time></trkpt><trkpt lat="46.014963815863375" lon="12.167214178961023"><ele>655.0</ele><time>2026-04-06T13:51:15Z</time></trkpt><trkpt lat="46.015099004109366" lon="12.167211803860026"><ele>655.0</ele><time>2026-04-06T13:51:16Z</time></trkpt><trkpt lat="46.01524042186958" lon="12.167176726507785"><ele>655.0</ele><time>2026-04-06T13:51:17Z</time></trkpt><trkpt lat="46.01539503334978" lon="12.16712765046747"><ele>654.3333333333334</ele><time>2026-04-06T13:51:18Z</time></trkpt><trkpt lat="46.015559500608994" lon="12.16708280611639"><ele>653.6666666666666</ele><time>2026-04-06T13:51:19Z</time></trkpt><trkpt lat="46.015733833204244" lon="12.167039879361548"><ele>653.0</ele><time>2026-04-06T13:51:20Z</time></trkpt><trkpt lat="46.01591408052805" lon="12.166994011375685"><ele>655.0</ele><time>2026-04-06T13:51:21Z</time></trkpt><trkpt lat="46.01610113018441" lon="12.166949850579122"><ele>657.0</ele><time>2026-04-06T13:51:22Z</time></trkpt><trkpt lat="46.01628667469181" lon="12.166897137132176"><ele>659.0</ele><time>2026-04-06T13:51:23Z</time></trkpt><trkpt lat="46.01647340736218" lon="12.166843870643229"><ele>661.6666666666666</ele><time>2026-04-06T13:51:24Z</time></trkpt><trkpt lat="46.01665527218099" lon="12.166796785449277"><ele>664.3333333333334</ele><time>2026-04-06T13:51:25Z</time></trkpt><trkpt lat="46.01683360693699" lon="12.166750784628825"><ele>667.0</ele><time>2026-04-06T13:51:26Z</time></trkpt><trkpt lat="46.017001186395646" lon="12.166708526521354"><ele>667.0</ele><time>2026-04-06T13:51:27Z</time></trkpt><trkpt lat="46.01715817816532" lon="12.166644693771232"><ele>667.0</ele><time>2026-04-06T13:51:28Z</time></trkpt><trkpt lat="46.01729365647354" lon="12.16656117827087"><ele>667.0</ele><time>2026-04-06T13:51:29Z</time></trkpt><trkpt lat="46.017413708915825" lon="12.166419431896612"><ele>666.75</ele><time>2026-04-06T13:51:30Z</time></trkpt><trkpt lat="46.017533962607274" lon="12.166294680785544"><ele>666.5</ele><time>2026-04-06T13:51:31Z</time></trkpt><trkpt lat="46.017661704382526" lon="12.166179750727732"><ele>666.25</ele><time>2026-04-06T13:51:32Z</time></trkpt><trkpt lat="46.017803024398205" lon="12.16613438888247"><ele>666.0</ele><time>2026-04-06T13:51:33Z</time></trkpt><trkpt lat="46.01794892499387" lon="12.16613479785867"><ele>666.0</ele><time>2026-04-06T13:51:34Z</time></trkpt><trkpt lat="46.01808133910981" lon="12.166108127824977"><ele>666.0</ele><time>2026-04-06T13:51:35Z</time></trkpt><trkpt lat="46.01820654336486" lon="12.166026652726844"><ele>666.0</ele><time>2026-04-06T13:51:36Z</time></trkpt><trkpt lat="46.018343775046425" lon="12.165902442836584"><ele>666.0</ele><time>2026-04-06T13:51:37Z</time></trkpt><trkpt lat="46.018495551913766" lon="12.165761711088152"><ele>662.6666666666666</ele><time>2026-04-06T13:51:38Z</time></trkpt><trkpt lat="46.01865840050049" lon="12.165602766467735"><ele>659.3333333333333</ele><time>2026-04-06T13:51:39Z</time></trkpt><trkpt lat="46.01883018732771" lon="12.165444362083377"><ele>656.0</ele><time>2026-04-06T13:51:40Z</time></trkpt><trkpt lat="46.01900497377756" lon="12.16528100267527"><ele>654.6666666666666</ele><time>2026-04-06T13:51:41Z</time></trkpt><trkpt lat="46.01917537676986" lon="12.165115473382112"><ele>653.3333333333334</ele><time>2026-04-06T13:51:42Z</time></trkpt><trkpt lat="46.019338096871884" lon="12.164948336534929"><ele>652.0</ele><time>2026-04-06T13:51:43Z</time></trkpt><trkpt lat="46.01947978623338" lon="12.164783254775351"><ele>649.6666666666667</ele><time>2026-04-06T13:51:44Z</time></trkpt><trkpt lat="46.019615704179515" lon="12.164620691377115"><ele>647.3333333333334</ele><time>2026-04-06T13:51:45Z</time></trkpt><trkpt lat="46.01976049715679" lon="12.16446828487673"><ele>645.0</ele><time>2026-04-06T13:51:46Z</time></trkpt><trkpt lat="46.01991247884527" lon="12.164330690004812"><ele>644.6666666666666</ele><time>2026-04-06T13:51:47Z</time></trkpt><trkpt lat="46.02005247925001" lon="12.164177354897863"><ele>644.3333333333333</ele><time>2026-04-06T13:51:48Z</time></trkpt><trkpt lat="46.02017092119545" lon="12.16401233415284"><ele>644.0</ele><time>2026-04-06T13:51:49Z</time></trkpt><trkpt lat="46.02026210647629" lon="12.163868216204918"><ele>644.0</ele><time>2026-04-06T13:51:50Z</time></trkpt><trkpt lat="46.020353700961344" lon="12.163743625950078"><ele>644.0</ele><time>2026-04-06T13:51:51Z</time></trkpt><trkpt lat="46.02046083728892" lon="12.163652748109879"><ele>644.0</ele><time>2026-04-06T13:51:52Z</time></trkpt><trkpt lat="46.02059541711099" lon="12.163608719423639"><ele>644.0</ele><time>2026-04-06T13:51:53Z</time></trkpt><trkpt lat="46.020754884408554" lon="12.163589759500017"><ele>639.3333333333333</ele><time>2026-04-06T13:51:54Z</time></trkpt><trkpt lat="46.02093124076123" lon="12.163543318371302"><ele>634.6666666666666</ele><time>2026-04-06T13:51:55Z</time></trkpt><trkpt lat="46.02111424929461" lon="12.163483493202765"><ele>630.0</ele><time>2026-04-06T13:51:56Z</time></trkpt><trkpt lat="46.02129517252408" lon="12.163424085224737"><ele>630.0</ele><time>2026-04-06T13:51:57Z</time></trkpt><trkpt lat="46.02146816477803" lon="12.163366858387501"><ele>630.0</ele><time>2026-04-06T13:51:58Z</time></trkpt><trkpt lat="46.021633090933996" lon="12.163304813682212"><ele>630.0</ele><time>2026-04-06T13:51:59Z</time></trkpt><trkpt lat="46.02179771464597" lon="12.163232276104674"><ele>626.6666666666666</ele><time>2026-04-06T13:52:00Z</time></trkpt><trkpt lat="46.02196304159663" lon="12.163150922931491"><ele>623.3333333333333</ele><time>2026-04-06T13:52:01Z</time></trkpt><trkpt lat="46.02213768574142" lon="12.163074709404736"><ele>620.0</ele><time>2026-04-06T13:52:02Z</time></trkpt><trkpt lat="46.02232126266306" lon="12.163013127912226"><ele>620.3333333333333</ele><time>2026-04-06T13:52:03Z</time></trkpt><trkpt lat="46.02250597885075" lon="12.162968251445998"><ele>620.6666666666666</ele><time>2026-04-06T13:52:04Z</time></trkpt><trkpt lat="46.02268500545067" lon="12.16293131547109"><ele>621.0</ele><time>2026-04-06T13:52:05Z</time></trkpt><trkpt lat="46.022856395497946" lon="12.162894403493508"><ele>621.0</ele><time>2026-04-06T13:52:06Z</time></trkpt><trkpt lat="46.023018849390546" lon="12.16283896268828"><ele>621.0</ele><time>2026-04-06T13:52:07Z</time></trkpt><trkpt lat="46.02317557019543" lon="12.162756512501236"><ele>621.0</ele><time>2026-04-06T13:52:08Z</time></trkpt><trkpt lat="46.023336999021225" lon="12.162659482785559"><ele>620.0</ele><time>2026-04-06T13:52:09Z</time></trkpt><trkpt lat="46.023504102087585" lon="12.162562348118572"><ele>619.0</ele><time>2026-04-06T13:52:10Z</time></trkpt><trkpt lat="46.023661685277645" lon="12.162468574577499"><ele>618.0</ele><time>2026-04-06T13:52:11Z</time></trkpt><trkpt lat="46.02380099204438" lon="12.162382700910545"><ele>616.5</ele><time>2026-04-06T13:52:12Z</time></trkpt><trkpt lat="46.02391392889847" lon="12.162296525665697"><ele>615.0</ele><time>2026-04-06T13:52:13Z</time></trkpt><trkpt lat="46.024020541848785" lon="12.162210828285819"><ele>613.5</ele><time>2026-04-06T13:52:14Z</time></trkpt><trkpt lat="46.02414340138221" lon="12.162138548485677"><ele>612.0</ele><time>2026-04-06T13:52:15Z</time></trkpt><trkpt lat="46.02428724937926" lon="12.162081752860836"><ele>608.0</ele><time>2026-04-06T13:52:16Z</time></trkpt><trkpt lat="46.02444368784475" lon="12.16205317552058"><ele>604.0</ele><time>2026-04-06T13:52:17Z</time></trkpt><trkpt lat="46.02461904852089" lon="12.162073525110339"><ele>600.0</ele><time>2026-04-06T13:52:18Z</time></trkpt><trkpt lat="46.02479673639301" lon="12.162110018364917"><ele>600.0</ele><time>2026-04-06T13:52:19Z</time></trkpt><trkpt lat="46.02496126846634" lon="12.162116698424043"><ele>600.0</ele><time>2026-04-06T13:52:20Z</time></trkpt><trkpt lat="46.02511440423993" lon="12.162108494317641"><ele>600.0</ele><time>2026-04-06T13:52:21Z</time></trkpt><trkpt lat="46.02525300458589" lon="12.162112329290842"><ele>599.0</ele><time>2026-04-06T13:52:22Z</time></trkpt><trkpt lat="46.0253755114741" lon="12.162139958663808"><ele>598.0</ele><time>2026-04-06T13:52:23Z</time></trkpt><trkpt lat="46.02548737414455" lon="12.162182382102166"><ele>597.0</ele><time>2026-04-06T13:52:24Z</time></trkpt><trkpt lat="46.02560174207132" lon="12.162266580962852"><ele>596.0</ele><time>2026-04-06T13:52:25Z</time></trkpt><trkpt lat="46.02571824997601" lon="12.162372000601886"><ele>599.25</ele><time>2026-04-06T13:52:26Z</time></trkpt><trkpt lat="46.025846849378645" lon="12.162485181186732"><ele>602.5</ele><time>2026-04-06T13:52:27Z</time></trkpt><trkpt lat="46.02597567558204" lon="12.162588861666311"><ele>605.75</ele><time>2026-04-06T13:52:28Z</time></trkpt><trkpt lat="46.0261060256397" lon="12.16266411945973"><ele>609.0</ele><time>2026-04-06T13:52:29Z</time></trkpt><trkpt lat="46.02623823988786" lon="12.162693887806306"><ele>609.0</ele><time>2026-04-06T13:52:30Z</time></trkpt><trkpt lat="46.0263745935641" lon="12.162678880576651"><ele>609.0</ele><time>2026-04-06T13:52:31Z</time></trkpt><trkpt lat="46.026510672807824" lon="12.16263631637266"><ele>609.0</ele><time>2026-04-06T13:52:32Z</time></trkpt><trkpt lat="46.02665346676379" lon="12.162609577525894"><ele>609.0</ele><time>2026-04-06T13:52:33Z</time></trkpt><trkpt lat="46.02679539414091" lon="12.162621661393159"><ele>604.0</ele><time>2026-04-06T13:52:34Z</time></trkpt><trkpt lat="46.02693863877304" lon="12.162653031217538"><ele>599.0</ele><time>2026-04-06T13:52:35Z</time></trkpt><trkpt lat="46.027090928664" lon="12.162683715677945"><ele>594.0</ele><time>2026-04-06T13:52:36Z</time></trkpt><trkpt lat="46.02725167094158" lon="12.16271283378303"><ele>594.0</ele><time>2026-04-06T13:52:37Z</time></trkpt><trkpt lat="46.02741122794595" lon="12.162722724435909"><ele>594.0</ele><time>2026-04-06T13:52:38Z</time></trkpt><trkpt lat="46.027565448432924" lon="12.162710509814815"><ele>594.0</ele><time>2026-04-06T13:52:39Z</time></trkpt><trkpt lat="46.02771699174972" lon="12.162704644581076"><ele>591.6666666666666</ele><time>2026-04-06T13:52:40Z</time></trkpt><trkpt lat="46.02786920240077" lon="12.162725718854297"><ele>589.3333333333333</ele><time>2026-04-06T13:52:41Z</time></trkpt><trkpt lat="46.0280209388271" lon="12.162754286327896"><ele>587.0</ele><time>2026-04-06T13:52:42Z</time></trkpt><trkpt lat="46.02816975541542" lon="12.162776847974568"><ele>587.0</ele><time>2026-04-06T13:52:43Z</time></trkpt><trkpt lat="46.028307960321975" lon="12.162788731740205"><ele>587.0</ele><time>2026-04-06T13:52:44Z</time></trkpt><trkpt lat="46.02844289887593" lon="12.162812605784914"><ele>587.0</ele><time>2026-04-06T13:52:45Z</time></trkpt><trkpt lat="46.02857922353511" lon="12.162861711573706"><ele>587.0</ele><time>2026-04-06T13:52:46Z</time></trkpt><trkpt lat="46.02871611444689" lon="12.16293492575623"><ele>583.3333333333333</ele><time>2026-04-06T13:52:47Z</time></trkpt><trkpt lat="46.02885566628179" lon="12.163030803561762"><ele>579.6666666666666</ele><time>2026-04-06T13:52:48Z</time></trkpt><trkpt lat="46.02900292700214" lon="12.163131924373971"><ele>576.0</ele><time>2026-04-06T13:52:49Z</time></trkpt><trkpt lat="46.02916235356139" lon="12.16321264311783"><ele>576.0</ele><time>2026-04-06T13:52:50Z</time></trkpt><trkpt lat="46.029317199067044" lon="12.163280032035884"><ele>576.0</ele><time>2026-04-06T13:52:51Z</time></trkpt><trkpt lat="46.02947005787868" lon="12.163329603885595"><ele>576.0</ele><time>2026-04-06T13:52:52Z</time></trkpt><trkpt lat="46.02962381737166" lon="12.163354937039093"><ele>576.0</ele><time>2026-04-06T13:52:53Z</time></trkpt><trkpt lat="46.02977151684163" lon="12.163361003758727"><ele>576.0</ele><time>2026-04-06T13:52:54Z</time></trkpt><trkpt lat="46.029912799576735" lon="12.163364918987416"><ele>576.0</ele><time>2026-04-06T13:52:55Z</time></trkpt><trkpt lat="46.03005199215775" lon="12.16337174715716"><ele>576.0</ele><time>2026-04-06T13:52:56Z</time></trkpt><trkpt lat="46.030193847442476" lon="12.163385781365882"><ele>574.3333333333334</ele><time>2026-04-06T13:52:57Z</time></trkpt><trkpt lat="46.03034099587162" lon="12.16340574722154"><ele>572.6666666666667</ele><time>2026-04-06T13:52:58Z</time></trkpt><trkpt lat="46.030493391915456" lon="12.163427631053978"><ele>571.0</ele><time>2026-04-06T13:52:59Z</time></trkpt><trkpt lat="46.03065079821833" lon="12.163458031535837"><ele>570.0</ele><time>2026-04-06T13:53:00Z</time></trkpt><trkpt lat="46.03081366456581" lon="12.163493416099678"><ele>569.0</ele><time>2026-04-06T13:53:01Z</time></trkpt><trkpt lat="46.030977619376465" lon="12.163527037796657"><ele>568.0</ele><time>2026-04-06T13:53:02Z</time></trkpt><trkpt lat="46.03113544392821" lon="12.163548296124965"><ele>568.0</ele><time>2026-04-06T13:53:03Z</time></trkpt><trkpt lat="46.03129091986962" lon="12.163561734196836"><ele>568.0</ele><time>2026-04-06T13:53:04Z</time></trkpt><trkpt lat="46.031440372979745" lon="12.163576691807458"><ele>568.0</ele><time>2026-04-06T13:53:05Z</time></trkpt><trkpt lat="46.031585989585494" lon="12.163586671027614"><ele>567.3333333333334</ele><time>2026-04-06T13:53:06Z</time></trkpt><trkpt lat="46.031735052492806" lon="12.163581250780064"><ele>566.6666666666666</ele><time>2026-04-06T13:53:07Z</time></trkpt><trkpt lat="46.03189299019213" lon="12.16355976029973"><ele>566.0</ele><time>2026-04-06T13:53:08Z</time></trkpt><trkpt lat="46.0320564824914" lon="12.163534490863407"><ele>566.0</ele><time>2026-04-06T13:53:09Z</time></trkpt><trkpt lat="46.032213844299726" lon="12.163515091083493"><ele>566.0</ele><time>2026-04-06T13:53:10Z</time></trkpt><trkpt lat="46.03236844723668" lon="12.163483779331877"><ele>566.0</ele><time>2026-04-06T13:53:11Z</time></trkpt><trkpt lat="46.032518254652565" lon="12.163433771299516"><ele>565.5</ele><time>2026-04-06T13:53:12Z</time></trkpt><trkpt lat="46.03264712301515" lon="12.163370234648328"><ele>565.0</ele><time>2026-04-06T13:53:13Z</time></trkpt><trkpt lat="46.03275292527198" lon="12.163312229820649"><ele>564.5</ele><time>2026-04-06T13:53:14Z</time></trkpt><trkpt lat="46.03285620373273" lon="12.163286601755813"><ele>564.0</ele><time>2026-04-06T13:53:15Z</time></trkpt><trkpt lat="46.032962869258" lon="12.163305757224046"><ele>564.0</ele><time>2026-04-06T13:53:16Z</time></trkpt><trkpt lat="46.03305334810104" lon="12.163389556688047"><ele>564.0</ele><time>2026-04-06T13:53:17Z</time></trkpt><trkpt lat="46.03314448032756" lon="12.163452681449858"><ele>564.0</ele><time>2026-04-06T13:53:18Z</time></trkpt><trkpt lat="46.03321946781919" lon="12.163541582382576"><ele>564.0</ele><time>2026-04-06T13:53:19Z</time></trkpt><trkpt lat="46.03329860915634" lon="12.163601019054704"><ele>564.0</ele><time>2026-04-06T13:53:20Z</time></trkpt><trkpt lat="46.033383645998065" lon="12.163601200347584"><ele>562.0</ele><time>2026-04-06T13:53:21Z</time></trkpt><trkpt lat="46.03346976242409" lon="12.163566785304374"><ele>560.0</ele><time>2026-04-06T13:53:22Z</time></trkpt><trkpt lat="46.03353999602493" lon="12.16342111861302"><ele>558.0</ele><time>2026-04-06T13:53:23Z</time></trkpt><trkpt lat="46.033632402538586" lon="12.163298786675702"><ele>556.0</ele><time>2026-04-06T13:53:24Z</time></trkpt><trkpt lat="46.03372206695783" lon="12.163145683129171"><ele>553.5</ele><time>2026-04-06T13:53:25Z</time></trkpt><trkpt lat="46.033813424393564" lon="12.163057038275202"><ele>551.0</ele><time>2026-04-06T13:53:26Z</time></trkpt><trkpt lat="46.03390758598225" lon="12.16296732147789"><ele>548.5</ele><time>2026-04-06T13:53:27Z</time></trkpt><trkpt lat="46.03402157735467" lon="12.16291816539359"><ele>546.0</ele><time>2026-04-06T13:53:28Z</time></trkpt><trkpt lat="46.034143775991986" lon="12.162895100833163"><ele>546.0</ele><time>2026-04-06T13:53:29Z</time></trkpt><trkpt lat="46.034251483916314" lon="12.16283851794095"><ele>546.0</ele><time>2026-04-06T13:53:30Z</time></trkpt><trkpt lat="46.03434463243635" lon="12.162740739302809"><ele>546.0</ele><time>2026-04-06T13:53:31Z</time></trkpt><trkpt lat="46.0344185205481" lon="12.162598353335571"><ele>546.0</ele><time>2026-04-06T13:53:32Z</time></trkpt><trkpt lat="46.03446563809676" lon="12.162424342468041"><ele>544.1666666666666</ele><time>2026-04-06T13:53:33Z</time></trkpt><trkpt lat="46.034486250445376" lon="12.162252583580997"><ele>542.3333333333334</ele><time>2026-04-06T13:53:34Z</time></trkpt><trkpt lat="46.03451094468453" lon="12.16211908708502"><ele>540.5</ele><time>2026-04-06T13:53:35Z</time></trkpt><trkpt lat="46.034546088779734" lon="12.162019604478912"><ele>538.6666666666667</ele><time>2026-04-06T13:53:36Z</time></trkpt><trkpt lat="46.034604434367104" lon="12.16196823592552"><ele>536.8333333333334</ele><time>2026-04-06T13:53:37Z</time></trkpt><trkpt lat="46.03468477387077" lon="12.161975379723119"><ele>535.0</ele><time>2026-04-06T13:53:38Z</time></trkpt><trkpt lat="46.034778893476854" lon="12.162026062248113"><ele>535.0</ele><time>2026-04-06T13:53:39Z</time></trkpt><trkpt lat="46.03489161504954" lon="12.162064502367047"><ele>535.0</ele><time>2026-04-06T13:53:40Z</time></trkpt><trkpt lat="46.035007046998935" lon="12.162098226068967"><ele>535.0</ele><time>2026-04-06T13:53:41Z</time></trkpt><trkpt lat="46.03510513757137" lon="12.162141639030178"><ele>535.0</ele><time>2026-04-06T13:53:42Z</time></trkpt><trkpt lat="46.03519123568674" lon="12.162212428305658"><ele>535.0</ele><time>2026-04-06T13:53:43Z</time></trkpt><trkpt lat="46.03525629391445" lon="12.162329121674688"><ele>539.2</ele><time>2026-04-06T13:53:44Z</time></trkpt><trkpt lat="46.03527502359848" lon="12.162467904450654"><ele>543.4</ele><time>2026-04-06T13:53:45Z</time></trkpt><trkpt lat="46.035269028046514" lon="12.162609524815013"><ele>547.6</ele><time>2026-04-06T13:53:46Z</time></trkpt><trkpt lat="46.03525261440424" lon="12.162768457013213"><ele>551.8</ele><time>2026-04-06T13:53:47Z</time></trkpt><trkpt lat="46.03525519364008" lon="12.162934772138605"><ele>556.0</ele><time>2026-04-06T13:53:48Z</time></trkpt><trkpt lat="46.03526460840718" lon="12.163094128970563"><ele>557.75</ele><time>2026-04-06T13:53:49Z</time></trkpt><trkpt lat="46.035309758553176" lon="12.163256807897378"><ele>559.5</ele><time>2026-04-06T13:53:50Z</time></trkpt><trkpt lat="46.035383208132416" lon="12.163421175192655"><ele>561.25</ele><time>2026-04-06T13:53:51Z</time></trkpt><trkpt lat="46.035466447346195" lon="12.163602079912495"><ele>563.0</ele><time>2026-04-06T13:53:52Z</time></trkpt><trkpt lat="46.035546440066234" lon="12.163796458271626"><ele>563.0</ele><time>2026-04-06T13:53:53Z</time></trkpt><trkpt lat="46.03562329127802" lon="12.163975792498102"><ele>563.0</ele><time>2026-04-06T13:53:54Z</time></trkpt><trkpt lat="46.0356993207274" lon="12.164148251443281"><ele>563.0</ele><time>2026-04-06T13:53:55Z</time></trkpt><trkpt lat="46.03576223450236" lon="12.164305325940727"><ele>563.0</ele><time>2026-04-06T13:53:56Z</time></trkpt><trkpt lat="46.03581798650801" lon="12.164439595023216"><ele>564.8</ele><time>2026-04-06T13:53:57Z</time></trkpt><trkpt lat="46.035860997319006" lon="12.164575719861904"><ele>566.5999999999999</ele><time>2026-04-06T13:53:58Z</time></trkpt><trkpt lat="46.03587730582523" lon="12.164725704045777"><ele>568.4000000000001</ele><time>2026-04-06T13:53:59Z</time></trkpt><trkpt lat="46.03585980857564" lon="12.164874560467075"><ele>570.2</ele><time>2026-04-06T13:54:00Z</time></trkpt><trkpt lat="46.035788870377246" lon="12.16500472000756"><ele>572.0</ele><time>2026-04-06T13:54:01Z</time></trkpt><trkpt lat="46.03574738628873" lon="12.16516100415883"><ele>572.0</ele><time>2026-04-06T13:54:02Z</time></trkpt><trkpt lat="46.03571836666296" lon="12.16533134877574"><ele>572.0</ele><time>2026-04-06T13:54:03Z</time></trkpt><trkpt lat="46.0356987575202" lon="12.165523153284944"><ele>572.0</ele><time>2026-04-06T13:54:04Z</time></trkpt><trkpt lat="46.03571104118024" lon="12.165708191992513"><ele>572.0</ele><time>2026-04-06T13:54:05Z</time></trkpt><trkpt lat="46.03573562123285" lon="12.165886442632674"><ele>572.0</ele><time>2026-04-06T13:54:06Z</time></trkpt><trkpt lat="46.03576614767062" lon="12.166055152570008"><ele>572.0</ele><time>2026-04-06T13:54:07Z</time></trkpt><trkpt lat="46.03575599432506" lon="12.166205871393396"><ele>572.0</ele><time>2026-04-06T13:54:08Z</time></trkpt><trkpt lat="46.03572040550633" lon="12.166350958630497"><ele>572.0</ele><time>2026-04-06T13:54:09Z</time></trkpt><trkpt lat="46.035639845330586" lon="12.166481921101479"><ele>570.25</ele><time>2026-04-06T13:54:10Z</time></trkpt><trkpt lat="46.03555695260349" lon="12.166631826069624"><ele>568.5</ele><time>2026-04-06T13:54:11Z</time></trkpt><trkpt lat="46.035470326537194" lon="12.166806275142019"><ele>566.75</ele><time>2026-04-06T13:54:12Z</time></trkpt><trkpt lat="46.035383719706246" lon="12.166964900953266"><ele>565.0</ele><time>2026-04-06T13:54:13Z</time></trkpt><trkpt lat="46.03531148288813" lon="12.16709559241923"><ele>565.0</ele><time>2026-04-06T13:54:14Z</time></trkpt><trkpt lat="46.03525039123954" lon="12.167204865738785"><ele>565.0</ele><time>2026-04-06T13:54:15Z</time></trkpt><trkpt lat="46.035199753057746" lon="12.16728983584906"><ele>565.0</ele><time>2026-04-06T13:54:16Z</time></trkpt><trkpt lat="46.03514679457728" lon="12.167425508961967"><ele>565.0</ele><time>2026-04-06T13:54:18Z</time></trkpt><trkpt lat="46.03520666159815" lon="12.16751652135322"><ele>565.0</ele><time>2026-04-06T13:54:20Z</time></trkpt><trkpt lat="46.03532000113289" lon="12.167422450933481"><ele>565.0</ele><time>2026-04-06T13:54:22Z</time></trkpt><trkpt lat="46.03537891841137" lon="12.167310949574613"><ele>565.0</ele><time>2026-04-06T13:54:23Z</time></trkpt><trkpt lat="46.035461587221015" lon="12.167208915686073"><ele>565.0</ele><time>2026-04-06T13:54:24Z</time></trkpt><trkpt lat="46.035539403735996" lon="12.16710629355725"><ele>565.0</ele><time>2026-04-06T13:54:25Z</time></trkpt><trkpt lat="46.03561468326871" lon="12.166997364948756"><ele>565.0</ele><time>2026-04-06T13:54:26Z</time></trkpt><trkpt lat="46.035689849198775" lon="12.166914771394797"><ele>565.0</ele><time>2026-04-06T13:54:27Z</time></trkpt><trkpt lat="46.035766809039906" lon="12.16689195930272"><ele>565.0</ele><time>2026-04-06T13:54:28Z</time></trkpt><trkpt lat="46.03584926149264" lon="12.16696208158217"><ele>565.0</ele><time>2026-04-06T13:54:29Z</time></trkpt><trkpt lat="46.035944175425236" lon="12.167046071131685"><ele>565.0</ele><time>2026-04-06T13:54:30Z</time></trkpt><trkpt lat="46.03605620332074" lon="12.167138039701562"><ele>565.0</ele><time>2026-04-06T13:54:31Z</time></trkpt><trkpt lat="46.0361652473962" lon="12.16725965980666"><ele>552.75</ele><time>2026-04-06T13:54:32Z</time></trkpt><trkpt lat="46.03626457179297" lon="12.167372148586113"><ele>540.5</ele><time>2026-04-06T13:54:33Z</time></trkpt><trkpt lat="46.03636332912456" lon="12.167476682361425"><ele>528.25</ele><time>2026-04-06T13:54:34Z</time></trkpt><trkpt lat="46.03645780356" lon="12.167579075517342"><ele>516.0</ele><time>2026-04-06T13:54:35Z</time></trkpt><trkpt lat="46.036543951598624" lon="12.167663718237083"><ele>515.4</ele><time>2026-04-06T13:54:36Z</time></trkpt><trkpt lat="46.036640068168246" lon="12.16769638072522"><ele>514.8</ele><time>2026-04-06T13:54:37Z</time></trkpt><trkpt lat="46.036737136999676" lon="12.167674911032552"><ele>514.1999999999999</ele><time>2026-04-06T13:54:38Z</time></trkpt><trkpt lat="46.03682118932855" lon="12.167599006440499"><ele>513.6</ele><time>2026-04-06T13:54:39Z</time></trkpt><trkpt lat="46.0368973629802" lon="12.167474274614317"><ele>513.0</ele><time>2026-04-06T13:54:40Z</time></trkpt><trkpt lat="46.036983358806395" lon="12.167320436618764"><ele>512.0</ele><time>2026-04-06T13:54:41Z</time></trkpt><trkpt lat="46.03707222001286" lon="12.167172451564518"><ele>511.0</ele><time>2026-04-06T13:54:42Z</time></trkpt><trkpt lat="46.03717148531311" lon="12.16703307154651"><ele>510.0</ele><time>2026-04-06T13:54:43Z</time></trkpt><trkpt lat="46.037278995308725" lon="12.166884941972071"><ele>509.0</ele><time>2026-04-06T13:54:44Z</time></trkpt><trkpt lat="46.03738990021913" lon="12.166731721905954"><ele>510.3333333333333</ele><time>2026-04-06T13:54:45Z</time></trkpt><trkpt lat="46.037505188299676" lon="12.166574869896849"><ele>511.66666666666663</ele><time>2026-04-06T13:54:46Z</time></trkpt><trkpt lat="46.037623550857134" lon="12.16641396776992"><ele>513.0</ele><time>2026-04-06T13:54:47Z</time></trkpt><trkpt lat="46.037744042033644" lon="12.166251591067867"><ele>513.3333333333334</ele><time>2026-04-06T13:54:48Z</time></trkpt><trkpt lat="46.037858258187605" lon="12.166086097012467"><ele>513.6666666666667</ele><time>2026-04-06T13:54:49Z</time></trkpt><trkpt lat="46.037960381175715" lon="12.165913225331728"><ele>514.0</ele><time>2026-04-06T13:54:50Z</time></trkpt><trkpt lat="46.038042394219914" lon="12.165729686665374"><ele>512.0</ele><time>2026-04-06T13:54:51Z</time></trkpt><trkpt lat="46.03810367520403" lon="12.1655315646852"><ele>510.0</ele><time>2026-04-06T13:54:52Z</time></trkpt><trkpt lat="46.03814030354604" lon="12.165320947254363"><ele>508.0</ele><time>2026-04-06T13:54:53Z</time></trkpt><trkpt lat="46.0381633363756" lon="12.165089730481174"><ele>509.33333333333337</ele><time>2026-04-06T13:54:54Z</time></trkpt><trkpt lat="46.03818233489945" lon="12.164846058946402"><ele>510.66666666666663</ele><time>2026-04-06T13:54:55Z</time></trkpt><trkpt lat="46.038205152529656" lon="12.164621210393939"><ele>512.0</ele><time>2026-04-06T13:54:56Z</time></trkpt><trkpt lat="46.038225013173566" lon="12.164442563825173"><ele>512.0</ele><time>2026-04-06T13:54:57Z</time></trkpt><trkpt lat="46.038221202311064" lon="12.164284654860078"><ele>512.0</ele><time>2026-04-06T13:54:58Z</time></trkpt><trkpt lat="46.03817520428054" lon="12.1641551107799"><ele>512.0</ele><time>2026-04-06T13:54:59Z</time></trkpt><trkpt lat="46.038107048556995" lon="12.164033897724723"><ele>512.0</ele><time>2026-04-06T13:55:00Z</time></trkpt><trkpt lat="46.03803389596139" lon="12.163923804857872"><ele>512.0</ele><time>2026-04-06T13:55:01Z</time></trkpt><trkpt lat="46.037974985729356" lon="12.163845491176923"><ele>513.5</ele><time>2026-04-06T13:55:02Z</time></trkpt><trkpt lat="46.03791159122204" lon="12.163806642376676"><ele>515.0</ele><time>2026-04-06T13:55:03Z</time></trkpt><trkpt lat="46.037933315806704" lon="12.163648736475329"><ele>516.5</ele><time>2026-04-06T13:55:05Z</time></trkpt><trkpt lat="46.03799983263337" lon="12.16363844284405"><ele>518.0</ele><time>2026-04-06T13:55:06Z</time></trkpt><trkpt lat="46.03807406108017" lon="12.163704448769288"><ele>519.5</ele><time>2026-04-06T13:55:07Z</time></trkpt><trkpt lat="46.03812337902883" lon="12.163820607985619"><ele>521.0</ele><time>2026-04-06T13:55:08Z</time></trkpt><trkpt lat="46.03821317291" lon="12.16390615312401"><ele>526.25</ele><time>2026-04-06T13:55:09Z</time></trkpt><trkpt lat="46.038306537572495" lon="12.16400901611949"><ele>531.5</ele><time>2026-04-06T13:55:10Z</time></trkpt><trkpt lat="46.03839712683219" lon="12.164141682818684"><ele>536.75</ele><time>2026-04-06T13:55:11Z</time></trkpt><trkpt lat="46.03849204017781" lon="12.164264257925975"><ele>542.0</ele><time>2026-04-06T13:55:12Z</time></trkpt><trkpt lat="46.03855571048866" lon="12.164419993133395"><ele>542.0</ele><time>2026-04-06T13:55:13Z</time></trkpt><trkpt lat="46.03858971982278" lon="12.164616742125594"><ele>542.0</ele><time>2026-04-06T13:55:14Z</time></trkpt><trkpt lat="46.038632873408574" lon="12.164830092676548"><ele>542.0</ele><time>2026-04-06T13:55:15Z</time></trkpt><trkpt lat="46.038668030163414" lon="12.165029255862814"><ele>542.0</ele><time>2026-04-06T13:55:16Z</time></trkpt><trkpt lat="46.03866550805739" lon="12.165222932941406"><ele>541.0</ele><time>2026-04-06T13:55:17Z</time></trkpt><trkpt lat="46.03862973124589" lon="12.165412187852207"><ele>540.0</ele><time>2026-04-06T13:55:18Z</time></trkpt><trkpt lat="46.03858056110574" lon="12.165583299464103"><ele>539.0</ele><time>2026-04-06T13:55:19Z</time></trkpt><trkpt lat="46.03854128891561" lon="12.165760738687448"><ele>538.0</ele><time>2026-04-06T13:55:20Z</time></trkpt><trkpt lat="46.0384830191317" lon="12.165890196437285"><ele>538.0</ele><time>2026-04-06T13:55:21Z</time></trkpt><trkpt lat="46.03845039664895" lon="12.166002963396842"><ele>538.0</ele><time>2026-04-06T13:55:22Z</time></trkpt><trkpt lat="46.03844423764539" lon="12.166104812989177"><ele>538.0</ele><time>2026-04-06T13:55:23Z</time></trkpt><trkpt lat="46.038496726781155" lon="12.166191904749073"><ele>538.0</ele><time>2026-04-06T13:55:24Z</time></trkpt><trkpt lat="46.03856142877803" lon="12.166222149757822"><ele>538.0</ele><time>2026-04-06T13:55:25Z</time></trkpt><trkpt lat="46.03862992905739" lon="12.16618489652677"><ele>538.0</ele><time>2026-04-06T13:55:26Z</time></trkpt><trkpt lat="46.03867409576313" lon="12.166081671928461"><ele>538.0</ele><time>2026-04-06T13:55:27Z</time></trkpt><trkpt lat="46.03867665600913" lon="12.165954805317313"><ele>538.0</ele><time>2026-04-06T13:55:28Z</time></trkpt><trkpt lat="46.038670053338905" lon="12.16581650654607"><ele>538.0</ele><time>2026-04-06T13:55:29Z</time></trkpt><trkpt lat="46.03870119863731" lon="12.165661041923489"><ele>538.0</ele><time>2026-04-06T13:55:30Z</time></trkpt><trkpt lat="46.038761253323955" lon="12.165505542950738"><ele>538.0</ele><time>2026-04-06T13:55:31Z</time></trkpt><trkpt lat="46.03883652319893" lon="12.165348838236751"><ele>537.25</ele><time>2026-04-06T13:55:32Z</time></trkpt><trkpt lat="46.03891505179185" lon="12.165183512615977"><ele>536.5</ele><time>2026-04-06T13:55:33Z</time></trkpt><trkpt lat="46.03898070685181" lon="12.16502627595051"><ele>535.75</ele><time>2026-04-06T13:55:34Z</time></trkpt><trkpt lat="46.03904063787614" lon="12.16489010927494"><ele>535.0</ele><time>2026-04-06T13:55:35Z</time></trkpt><trkpt lat="46.03908446151577" lon="12.164753742805479"><ele>536.75</ele><time>2026-04-06T13:55:36Z</time></trkpt><trkpt lat="46.03909311273352" lon="12.164599112828371"><ele>538.5</ele><time>2026-04-06T13:55:37Z</time></trkpt><trkpt lat="46.0390663031611" lon="12.164446686667276"><ele>540.25</ele><time>2026-04-06T13:55:38Z</time></trkpt><trkpt lat="46.039009020274136" lon="12.164305944382138"><ele>542.0</ele><time>2026-04-06T13:55:39Z</time></trkpt><trkpt lat="46.03892327697474" lon="12.16416119349604"><ele>546.6666666666666</ele><time>2026-04-06T13:55:40Z</time></trkpt><trkpt lat="46.038831895236925" lon="12.163998528524406"><ele>551.3333333333334</ele><time>2026-04-06T13:55:41Z</time></trkpt><trkpt lat="46.03874642121627" lon="12.163819845181694"><ele>556.0</ele><time>2026-04-06T13:55:42Z</time></trkpt><trkpt lat="46.03865246507029" lon="12.163629734203285"><ele>556.0</ele><time>2026-04-06T13:55:43Z</time></trkpt><trkpt lat="46.038557387831446" lon="12.163450200933452"><ele>556.0</ele><time>2026-04-06T13:55:44Z</time></trkpt><trkpt lat="46.038468642824824" lon="12.16328653266702"><ele>556.0</ele><time>2026-04-06T13:55:45Z</time></trkpt><trkpt lat="46.038402274377255" lon="12.163152644441322"><ele>556.0</ele><time>2026-04-06T13:55:46Z</time></trkpt><trkpt lat="46.038353799871494" lon="12.163043933455814"><ele>557.0</ele><time>2026-04-06T13:55:47Z</time></trkpt><trkpt lat="46.03832862638514" lon="12.16292975590526"><ele>558.0</ele><time>2026-04-06T13:55:48Z</time></trkpt><trkpt lat="46.03833445377979" lon="12.162807009103458"><ele>559.0</ele><time>2026-04-06T13:55:49Z</time></trkpt><trkpt lat="46.03836863857599" lon="12.162693087819626"><ele>560.0</ele><time>2026-04-06T13:55:50Z</time></trkpt><trkpt lat="46.03842355803408" lon="12.162596424069937"><ele>561.0</ele><time>2026-04-06T13:55:51Z</time></trkpt><trkpt lat="46.038498207064364" lon="12.16250687297206"><ele>562.0</ele><time>2026-04-06T13:55:52Z</time></trkpt><trkpt lat="46.03857929451668" lon="12.16240839509714"><ele>560.25</ele><time>2026-04-06T13:55:53Z</time></trkpt><trkpt lat="46.03866253084518" lon="12.162300744487657"><ele>558.5</ele><time>2026-04-06T13:55:54Z</time></trkpt><trkpt lat="46.03873908543661" lon="12.162190951038486"><ele>556.75</ele><time>2026-04-06T13:55:55Z</time></trkpt><trkpt lat="46.03881742200138" lon="12.16207918590742"><ele>555.0</ele><time>2026-04-06T13:55:56Z</time></trkpt><trkpt lat="46.03890725028798" lon="12.161954440043251"><ele>555.0</ele><time>2026-04-06T13:55:57Z</time></trkpt><trkpt lat="46.03901453900629" lon="12.161820718286862"><ele>555.0</ele><time>2026-04-06T13:55:58Z</time></trkpt><trkpt lat="46.0391309621393" lon="12.161678397238024"><ele>555.0</ele><time>2026-04-06T13:55:59Z</time></trkpt><trkpt lat="46.03925253594506" lon="12.16154511037761"><ele>555.0</ele><time>2026-04-06T13:56:00Z</time></trkpt><trkpt lat="46.03938273109108" lon="12.161402659462025"><ele>558.6666666666666</ele><time>2026-04-06T13:56:01Z</time></trkpt><trkpt lat="46.03951934285379" lon="12.161257832200166"><ele>562.3333333333333</ele><time>2026-04-06T13:56:02Z</time></trkpt><trkpt lat="46.03964724231096" lon="12.16111776284379"><ele>566.0</ele><time>2026-04-06T13:56:03Z</time></trkpt><trkpt lat="46.0397692750548" lon="12.160981557637937"><ele>566.0</ele><time>2026-04-06T13:56:04Z</time></trkpt><trkpt lat="46.03989011240913" lon="12.160851486080773"><ele>566.0</ele><time>2026-04-06T13:56:05Z</time></trkpt><trkpt lat="46.04001445157255" lon="12.160723702643901"><ele>566.0</ele><time>2026-04-06T13:56:06Z</time></trkpt><trkpt lat="46.040143897324604" lon="12.160599364348935"><ele>565.5</ele><time>2026-04-06T13:56:07Z</time></trkpt><trkpt lat="46.04027402652231" lon="12.160476958224136"><ele>565.0</ele><time>2026-04-06T13:56:08Z</time></trkpt><trkpt lat="46.040396991193" lon="12.160359106636903"><ele>564.5</ele><time>2026-04-06T13:56:09Z</time></trkpt><trkpt lat="46.040516752057826" lon="12.160246358318748"><ele>564.0</ele><time>2026-04-06T13:56:10Z</time></trkpt><trkpt lat="46.040636788638984" lon="12.160142680241265"><ele>564.0</ele><time>2026-04-06T13:56:11Z</time></trkpt><trkpt lat="46.0407645976138" lon="12.160044410469819"><ele>564.0</ele><time>2026-04-06T13:56:12Z</time></trkpt><trkpt lat="46.04090365627859" lon="12.15995323535783"><ele>564.0</ele><time>2026-04-06T13:56:13Z</time></trkpt><trkpt lat="46.0410539910605" lon="12.159861674229644"><ele>562.6666666666666</ele><time>2026-04-06T13:56:14Z</time></trkpt><trkpt lat="46.04121036918162" lon="12.159766184371055"><ele>561.3333333333333</ele><time>2026-04-06T13:56:15Z</time></trkpt><trkpt lat="46.04137204761674" lon="12.159661620008071"><ele>560.0</ele><time>2026-04-06T13:56:16Z</time></trkpt><trkpt lat="46.04153341717369" lon="12.159556407234657"><ele>560.0</ele><time>2026-04-06T13:56:17Z</time></trkpt><trkpt lat="46.041692436878826" lon="12.159455040023088"><ele>560.0</ele><time>2026-04-06T13:56:18Z</time></trkpt><trkpt lat="46.0418483850136" lon="12.159359560314343"><ele>560.0</ele><time>2026-04-06T13:56:19Z</time></trkpt><trkpt lat="46.041999332077204" lon="12.1592700758992"><ele>560.0</ele><time>2026-04-06T13:56:20Z</time></trkpt><trkpt lat="46.042149745291574" lon="12.15918774822811"><ele>560.0</ele><time>2026-04-06T13:56:21Z</time></trkpt><trkpt lat="46.042310345832846" lon="12.159123426009213"><ele>560.0</ele><time>2026-04-06T13:56:22Z</time></trkpt><trkpt lat="46.04248174468683" lon="12.159072113292243"><ele>559.0</ele><time>2026-04-06T13:56:23Z</time></trkpt><trkpt lat="46.042654392665725" lon="12.159023312680542"><ele>558.0</ele><time>2026-04-06T13:56:24Z</time></trkpt><trkpt lat="46.04283942048271" lon="12.158962126847332"><ele>557.0</ele><time>2026-04-06T13:56:25Z</time></trkpt><trkpt lat="46.04302232645448" lon="12.158891327136383"><ele>557.0</ele><time>2026-04-06T13:56:26Z</time></trkpt><trkpt lat="46.043206428456465" lon="12.158838559608325"><ele>557.0</ele><time>2026-04-06T13:56:27Z</time></trkpt><trkpt lat="46.04339144258543" lon="12.158784151844849"><ele>557.0</ele><time>2026-04-06T13:56:28Z</time></trkpt><trkpt lat="46.043576585347054" lon="12.158702602558078"><ele>557.0</ele><time>2026-04-06T13:56:29Z</time></trkpt><trkpt lat="46.043766138507046" lon="12.158600495249024"><ele>557.0</ele><time>2026-04-06T13:56:30Z</time></trkpt><trkpt lat="46.04396268417997" lon="12.158491860331761"><ele>557.0</ele><time>2026-04-06T13:56:31Z</time></trkpt><trkpt lat="46.044156137801934" lon="12.15838713952824"><ele>558.0</ele><time>2026-04-06T13:56:32Z</time></trkpt><trkpt lat="46.0443373280167" lon="12.158289186286424"><ele>559.0</ele><time>2026-04-06T13:56:33Z</time></trkpt><trkpt lat="46.044511505320344" lon="12.158197752716426"><ele>560.0</ele><time>2026-04-06T13:56:34Z</time></trkpt><trkpt lat="46.04467563101785" lon="12.158102233096042"><ele>558.0</ele><time>2026-04-06T13:56:35Z</time></trkpt><trkpt lat="46.0448335585851" lon="12.15800975296229"><ele>556.0</ele><time>2026-04-06T13:56:36Z</time></trkpt><trkpt lat="46.04498293197517" lon="12.157908669440918"><ele>554.0</ele><time>2026-04-06T13:56:37Z</time></trkpt><trkpt lat="46.04511597895535" lon="12.157789683107547"><ele>554.0</ele><time>2026-04-06T13:56:38Z</time></trkpt><trkpt lat="46.04522628207515" lon="12.157665425647192"><ele>554.0</ele><time>2026-04-06T13:56:39Z</time></trkpt><trkpt lat="46.04531351096963" lon="12.15753861805547"><ele>554.0</ele><time>2026-04-06T13:56:40Z</time></trkpt><trkpt lat="46.045381452307154" lon="12.157399849985685"><ele>554.0</ele><time>2026-04-06T13:56:41Z</time></trkpt><trkpt lat="46.0454527711579" lon="12.157266169988906"><ele>552.25</ele><time>2026-04-06T13:56:42Z</time></trkpt><trkpt lat="46.04554948847787" lon="12.157151624304868"><ele>550.5</ele><time>2026-04-06T13:56:43Z</time></trkpt><trkpt lat="46.04565567930407" lon="12.15706141088382"><ele>548.75</ele><time>2026-04-06T13:56:44Z</time></trkpt><trkpt lat="46.045756451890696" lon="12.157000489232162"><ele>547.0</ele><time>2026-04-06T13:56:45Z</time></trkpt><trkpt lat="46.04585686885348" lon="12.156990457047478"><ele>547.0</ele><time>2026-04-06T13:56:46Z</time></trkpt><trkpt lat="46.04595831299224" lon="12.157035263668444"><ele>547.0</ele><time>2026-04-06T13:56:47Z</time></trkpt><trkpt lat="46.04604495394124" lon="12.157105543842016"><ele>547.0</ele><time>2026-04-06T13:56:48Z</time></trkpt><trkpt lat="46.0461216134786" lon="12.157151522699365"><ele>547.0</ele><time>2026-04-06T13:56:49Z</time></trkpt><trkpt lat="46.046195620897784" lon="12.1571729352462"><ele>547.0</ele><time>2026-04-06T13:56:50Z</time></trkpt><trkpt lat="46.04626257621738" lon="12.157151877177085"><ele>547.0</ele><time>2026-04-06T13:56:51Z</time></trkpt><trkpt lat="46.046320254414844" lon="12.157087197338935"><ele>547.0</ele><time>2026-04-06T13:56:52Z</time></trkpt><trkpt lat="46.0463521757898" lon="12.156992138923178"><ele>547.0</ele><time>2026-04-06T13:56:53Z</time></trkpt><trkpt lat="46.04636585755468" lon="12.156882148094565"><ele>547.0</ele><time>2026-04-06T13:56:54Z</time></trkpt><trkpt lat="46.04638542186541" lon="12.15677195168603"><ele>547.0</ele><time>2026-04-06T13:56:55Z</time></trkpt><trkpt lat="46.0464408521791" lon="12.15665612927498"><ele>547.0</ele><time>2026-04-06T13:56:56Z</time></trkpt><trkpt lat="46.04652269691991" lon="12.156557317842122"><ele>547.0</ele><time>2026-04-06T13:56:57Z</time></trkpt><trkpt lat="46.04662061226173" lon="12.156505938442304"><ele>546.4</ele><time>2026-04-06T13:56:58Z</time></trkpt><trkpt lat="46.04673784095102" lon="12.156496098896486"><ele>545.8000000000001</ele><time>2026-04-06T13:56:59Z</time></trkpt><trkpt lat="46.046842081625975" lon="12.156495039890103"><ele>545.2</ele><time>2026-04-06T13:57:00Z</time></trkpt><trkpt lat="46.0469373202106" lon="12.156450196964466"><ele>544.6</ele><time>2026-04-06T13:57:01Z</time></trkpt><trkpt lat="46.04701353622025" lon="12.156362018732377"><ele>544.0</ele><time>2026-04-06T13:57:02Z</time></trkpt><trkpt lat="46.04705860406473" lon="12.156229323761362"><ele>544.0</ele><time>2026-04-06T13:57:03Z</time></trkpt><trkpt lat="46.047100550213614" lon="12.156080421239556"><ele>544.0</ele><time>2026-04-06T13:57:04Z</time></trkpt><trkpt lat="46.047161053233125" lon="12.155938210700592"><ele>544.0</ele><time>2026-04-06T13:57:05Z</time></trkpt><trkpt lat="46.047230243951326" lon="12.155800963743694"><ele>544.0</ele><time>2026-04-06T13:57:06Z</time></trkpt><trkpt lat="46.04730285909137" lon="12.155678879870331"><ele>543.25</ele><time>2026-04-06T13:57:07Z</time></trkpt><trkpt lat="46.04738043429371" lon="12.155578105741153"><ele>542.5</ele><time>2026-04-06T13:57:08Z</time></trkpt><trkpt lat="46.047472238441514" lon="12.155491784028174"><ele>541.75</ele><time>2026-04-06T13:57:09Z</time></trkpt><trkpt lat="46.047581439614596" lon="12.155410717322104"><ele>541.0</ele><time>2026-04-06T13:57:10Z</time></trkpt><trkpt lat="46.04770801805673" lon="12.15532746919299"><ele>541.0</ele><time>2026-04-06T13:57:11Z</time></trkpt><trkpt lat="46.04784019798366" lon="12.155254765891886"><ele>541.0</ele><time>2026-04-06T13:57:12Z</time></trkpt><trkpt lat="46.04798577157224" lon="12.155124887334948"><ele>541.0</ele><time>2026-04-06T13:57:13Z</time></trkpt><trkpt lat="46.048127527495154" lon="12.154949529394509"><ele>540.6666666666667</ele><time>2026-04-06T13:57:14Z</time></trkpt><trkpt lat="46.048264122784225" lon="12.154807773143531"><ele>540.3333333333334</ele><time>2026-04-06T13:57:15Z</time></trkpt><trkpt lat="46.04838962705836" lon="12.15465324524043"><ele>540.0</ele><time>2026-04-06T13:57:16Z</time></trkpt><trkpt lat="46.048518324598405" lon="12.15451025150209"><ele>540.0</ele><time>2026-04-06T13:57:17Z</time></trkpt><trkpt lat="46.04864061930641" lon="12.15436265666008"><ele>540.0</ele><time>2026-04-06T13:57:18Z</time></trkpt><trkpt lat="46.04874984190515" lon="12.15420427162198"><ele>540.0</ele><time>2026-04-06T13:57:19Z</time></trkpt><trkpt lat="46.04884248713736" lon="12.154048273956773"><ele>538.75</ele><time>2026-04-06T13:57:20Z</time></trkpt><trkpt lat="46.04891973540047" lon="12.153906389291725"><ele>537.5</ele><time>2026-04-06T13:57:21Z</time></trkpt><trkpt lat="46.04896784258727" lon="12.153750137188558"><ele>536.25</ele><time>2026-04-06T13:57:22Z</time></trkpt><trkpt lat="46.04897199057339" lon="12.15356776924698"><ele>535.0</ele><time>2026-04-06T13:57:23Z</time></trkpt><trkpt lat="46.04894240641281" lon="12.153373003080256"><ele>532.6666666666667</ele><time>2026-04-06T13:57:24Z</time></trkpt><trkpt lat="46.04889744677152" lon="12.153165200571268"><ele>530.3333333333334</ele><time>2026-04-06T13:57:25Z</time></trkpt><trkpt lat="46.04885823278241" lon="12.152946690238645"><ele>528.0</ele><time>2026-04-06T13:57:26Z</time></trkpt><trkpt lat="46.048830576195876" lon="12.152731385926254"><ele>528.0</ele><time>2026-04-06T13:57:27Z</time></trkpt><trkpt lat="46.04880012005106" lon="12.152526455979524"><ele>528.0</ele><time>2026-04-06T13:57:28Z</time></trkpt><trkpt lat="46.04877496059408" lon="12.152340924023905"><ele>528.0</ele><time>2026-04-06T13:57:29Z</time></trkpt><trkpt lat="46.04877382633914" lon="12.152164571925347"><ele>528.0</ele><time>2026-04-06T13:57:30Z</time></trkpt><trkpt lat="46.04878495655635" lon="12.15198377202614"><ele>528.0</ele><time>2026-04-06T13:57:31Z</time></trkpt><trkpt lat="46.048802382120954" lon="12.151803169802205"><ele>528.0</ele><time>2026-04-06T13:57:32Z</time></trkpt><trkpt lat="46.04883642440365" lon="12.151623479115695"><ele>528.0</ele><time>2026-04-06T13:57:33Z</time></trkpt><trkpt lat="46.048885747899156" lon="12.151434095224737"><ele>528.0</ele><time>2026-04-06T13:57:34Z</time></trkpt><trkpt lat="46.04894168181246" lon="12.151244371780251"><ele>527.5</ele><time>2026-04-06T13:57:35Z</time></trkpt><trkpt lat="46.04899920466266" lon="12.151054773405408"><ele>527.0</ele><time>2026-04-06T13:57:36Z</time></trkpt><trkpt lat="46.04905621528544" lon="12.150865356486003"><ele>526.5</ele><time>2026-04-06T13:57:37Z</time></trkpt><trkpt lat="46.04911616176602" lon="12.150683118625889"><ele>526.0</ele><time>2026-04-06T13:57:38Z</time></trkpt><trkpt lat="46.0491814310357" lon="12.150513701928269"><ele>523.6666666666667</ele><time>2026-04-06T13:57:39Z</time></trkpt><trkpt lat="46.04926986210538" lon="12.150346946760575"><ele>521.3333333333334</ele><time>2026-04-06T13:57:40Z</time></trkpt><trkpt lat="46.04938557168749" lon="12.150175343282434"><ele>519.0</ele><time>2026-04-06T13:57:41Z</time></trkpt><trkpt lat="46.04951998332892" lon="12.150000497318038"><ele>516.0</ele><time>2026-04-06T13:57:42Z</time></trkpt><trkpt lat="46.049663882905335" lon="12.149822945891334"><ele>513.0</ele><time>2026-04-06T13:57:43Z</time></trkpt><trkpt lat="46.04980345501616" lon="12.149654411366214"><ele>510.0</ele><time>2026-04-06T13:57:44Z</time></trkpt><trkpt lat="46.04993953056823" lon="12.149485778592437"><ele>511.66666666666663</ele><time>2026-04-06T13:57:45Z</time></trkpt><trkpt lat="46.05006339129767" lon="12.149327792433763"><ele>513.3333333333333</ele><time>2026-04-06T13:57:46Z</time></trkpt><trkpt lat="46.05017676916632" lon="12.149178822890045"><ele>515.0</ele><time>2026-04-06T13:57:47Z</time></trkpt><trkpt lat="46.050282844990654" lon="12.149040974492463"><ele>512.0</ele><time>2026-04-06T13:57:48Z</time></trkpt><trkpt lat="46.05038571640279" lon="12.14892191902417"><ele>509.0</ele><time>2026-04-06T13:57:49Z</time></trkpt><trkpt lat="46.050488964270976" lon="12.148825275903407"><ele>506.0</ele><time>2026-04-06T13:57:50Z</time></trkpt><trkpt lat="46.050607178619174" lon="12.14875660178398"><ele>503.0</ele><time>2026-04-06T13:57:51Z</time></trkpt><trkpt lat="46.05073628174775" lon="12.148771291571245"><ele>503.5</ele><time>2026-04-06T13:57:52Z</time></trkpt><trkpt lat="46.05086285239211" lon="12.148795669373587"><ele>504.0</ele><time>2026-04-06T13:57:53Z</time></trkpt><trkpt lat="46.050980230958665" lon="12.148859265172105"><ele>504.5</ele><time>2026-04-06T13:57:54Z</time></trkpt><trkpt lat="46.05108621975149" lon="12.148867290944844"><ele>505.0</ele><time>2026-04-06T13:57:55Z</time></trkpt><trkpt lat="46.051170370922485" lon="12.148805425076462"><ele>505.0</ele><time>2026-04-06T13:57:56Z</time></trkpt><trkpt lat="46.05121715545672" lon="12.148693011312938"><ele>505.0</ele><time>2026-04-06T13:57:57Z</time></trkpt><trkpt lat="46.05123470476272" lon="12.148544752622875"><ele>505.0</ele><time>2026-04-06T13:57:58Z</time></trkpt><trkpt lat="46.051253323055256" lon="12.148379046150927"><ele>505.0</ele><time>2026-04-06T13:57:59Z</time></trkpt><trkpt lat="46.05129005366128" lon="12.14820651185146"><ele>505.0</ele><time>2026-04-06T13:58:00Z</time></trkpt><trkpt lat="46.051346248810056" lon="12.148023861764239"><ele>502.5</ele><time>2026-04-06T13:58:01Z</time></trkpt><trkpt lat="46.051415129135314" lon="12.147844724135146"><ele>500.0</ele><time>2026-04-06T13:58:02Z</time></trkpt><trkpt lat="46.05148026694929" lon="12.147679525584651"><ele>497.5</ele><time>2026-04-06T13:58:03Z</time></trkpt><trkpt lat="46.05153977123373" lon="12.147519508729236"><ele>495.0</ele><time>2026-04-06T13:58:04Z</time></trkpt><trkpt lat="46.05161190760827" lon="12.147378186879179"><ele>493.75</ele><time>2026-04-06T13:58:05Z</time></trkpt><trkpt lat="46.05171508009571" lon="12.147256987805962"><ele>492.5</ele><time>2026-04-06T13:58:06Z</time></trkpt><trkpt lat="46.051840198374684" lon="12.147143303436529"><ele>491.25</ele><time>2026-04-06T13:58:07Z</time></trkpt><trkpt lat="46.05198571063911" lon="12.147036505346348"><ele>490.0</ele><time>2026-04-06T13:58:08Z</time></trkpt><trkpt lat="46.05213787744354" lon="12.146948534926656"><ele>490.0</ele><time>2026-04-06T13:58:09Z</time></trkpt><trkpt lat="46.052301953175245" lon="12.14685526937909"><ele>490.0</ele><time>2026-04-06T13:58:10Z</time></trkpt><trkpt lat="46.05245811848954" lon="12.14675495208876"><ele>490.0</ele><time>2026-04-06T13:58:11Z</time></trkpt><trkpt lat="46.05261210305892" lon="12.146657797295463"><ele>490.0</ele><time>2026-04-06T13:58:12Z</time></trkpt><trkpt lat="46.052764534944224" lon="12.146565467343386"><ele>490.0</ele><time>2026-04-06T13:58:13Z</time></trkpt><trkpt lat="46.05291357651851" lon="12.146472489948417"><ele>490.0</ele><time>2026-04-06T13:58:14Z</time></trkpt><trkpt lat="46.05305623957871" lon="12.146383193711074"><ele>490.0</ele><time>2026-04-06T13:58:15Z</time></trkpt><trkpt lat="46.05317803619341" lon="12.14628570363302"><ele>490.0</ele><time>2026-04-06T13:58:16Z</time></trkpt><trkpt lat="46.05326376996939" lon="12.146148732116377"><ele>490.0</ele><time>2026-04-06T13:58:17Z</time></trkpt><trkpt lat="46.0533271500879" lon="12.145973641107187"><ele>490.0</ele><time>2026-04-06T13:58:18Z</time></trkpt><trkpt lat="46.053372356656524" lon="12.145779906892747"><ele>489.0</ele><time>2026-04-06T13:58:19Z</time></trkpt><trkpt lat="46.05341846836067" lon="12.14560041355139"><ele>488.0</ele><time>2026-04-06T13:58:20Z</time></trkpt><trkpt lat="46.053488917633665" lon="12.145442540617358"><ele>487.0</ele><time>2026-04-06T13:58:21Z</time></trkpt><trkpt lat="46.05357705534585" lon="12.145299120055233"><ele>486.0</ele><time>2026-04-06T13:58:22Z</time></trkpt><trkpt lat="46.05367943503983" lon="12.145178522212204"><ele>486.0</ele><time>2026-04-06T13:58:23Z</time></trkpt><trkpt lat="46.05379691177581" lon="12.145087725850342"><ele>486.0</ele><time>2026-04-06T13:58:24Z</time></trkpt><trkpt lat="46.053900732191074" lon="12.144974211859422"><ele>486.0</ele><time>2026-04-06T13:58:25Z</time></trkpt><trkpt lat="46.05397390345232" lon="12.144813302087544"><ele>486.0</ele><time>2026-04-06T13:58:26Z</time></trkpt><trkpt lat="46.054024596013164" lon="12.144638438690404"><ele>485.25</ele><time>2026-04-06T13:58:27Z</time></trkpt><trkpt lat="46.05405593266293" lon="12.144467157133134"><ele>484.5</ele><time>2026-04-06T13:58:28Z</time></trkpt><trkpt lat="46.05407599600566" lon="12.144306968999075"><ele>483.75</ele><time>2026-04-06T13:58:29Z</time></trkpt><trkpt lat="46.05413621039058" lon="12.14415736429516"><ele>483.0</ele><time>2026-04-06T13:58:30Z</time></trkpt><trkpt lat="46.05423962005648" lon="12.144031738623566"><ele>477.33333333333337</ele><time>2026-04-06T13:58:31Z</time></trkpt><trkpt lat="46.05436827748541" lon="12.143912195762253"><ele>471.6666666666667</ele><time>2026-04-06T13:58:32Z</time></trkpt><trkpt lat="46.05450205161644" lon="12.143773991055783"><ele>466.0</ele><time>2026-04-06T13:58:33Z</time></trkpt><trkpt lat="46.054637442360836" lon="12.143619585478724"><ele>466.0</ele><time>2026-04-06T13:58:34Z</time></trkpt><trkpt lat="46.05477736384834" lon="12.143448324539802"><ele>466.0</ele><time>2026-04-06T13:58:35Z</time></trkpt><trkpt lat="46.05491570495347" lon="12.143280681290896"><ele>466.0</ele><time>2026-04-06T13:58:36Z</time></trkpt><trkpt lat="46.055052064301805" lon="12.14311784779569"><ele>465.0</ele><time>2026-04-06T13:58:37Z</time></trkpt><trkpt lat="46.05518606555088" lon="12.142956572711231"><ele>464.0</ele><time>2026-04-06T13:58:38Z</time></trkpt><trkpt lat="46.05531940959293" lon="12.142794776981045"><ele>463.0</ele><time>2026-04-06T13:58:39Z</time></trkpt><trkpt lat="46.05545251489794" lon="12.142632130799862"><ele>463.0</ele><time>2026-04-06T13:58:40Z</time></trkpt><trkpt lat="46.055581397945794" lon="12.14246596429814"><ele>463.0</ele><time>2026-04-06T13:58:41Z</time></trkpt><trkpt lat="46.05570781942861" lon="12.142297433330956"><ele>463.0</ele><time>2026-04-06T13:58:42Z</time></trkpt><trkpt lat="46.05583208164529" lon="12.142127374211832"><ele>461.0</ele><time>2026-04-06T13:58:43Z</time></trkpt><trkpt lat="46.055952793089396" lon="12.141951577271337"><ele>459.0</ele><time>2026-04-06T13:58:44Z</time></trkpt><trkpt lat="46.056072228858646" lon="12.141774658715148"><ele>457.0</ele><time>2026-04-06T13:58:45Z</time></trkpt><trkpt lat="46.0561904369399" lon="12.14160410968043"><ele>455.25</ele><time>2026-04-06T13:58:46Z</time></trkpt><trkpt lat="46.05630028632646" lon="12.141445600787094"><ele>453.5</ele><time>2026-04-06T13:58:47Z</time></trkpt><trkpt lat="46.056406980608216" lon="12.141303607432171"><ele>451.75</ele><time>2026-04-06T13:58:48Z</time></trkpt><trkpt lat="46.056520149836814" lon="12.14119643329462"><ele>450.0</ele><time>2026-04-06T13:58:49Z</time></trkpt><trkpt lat="46.05663434829612" lon="12.141127361657954"><ele>450.0</ele><time>2026-04-06T13:58:50Z</time></trkpt><trkpt lat="46.05673575676609" lon="12.141088378400411"><ele>450.0</ele><time>2026-04-06T13:58:51Z</time></trkpt><trkpt lat="46.05683557196237" lon="12.141093022500147"><ele>450.0</ele><time>2026-04-06T13:58:52Z</time></trkpt><trkpt lat="46.05693640599494" lon="12.141114623349132"><ele>450.0</ele><time>2026-04-06T13:58:53Z</time></trkpt><trkpt lat="46.057037095028626" lon="12.141098343281842"><ele>450.0</ele><time>2026-04-06T13:58:54Z</time></trkpt><trkpt lat="46.05715318102937" lon="12.14108660583411"><ele>450.0</ele><time>2026-04-06T13:58:55Z</time></trkpt><trkpt lat="46.05731935862553" lon="12.14146624321959"><ele>450.0</ele><time>2026-04-06T13:58:56Z</time></trkpt><trkpt lat="46.057462048749414" lon="12.141575911323583"><ele>449.66666666666663</ele><time>2026-04-06T13:58:57Z</time></trkpt><trkpt lat="46.057615108388354" lon="12.141698673789273"><ele>449.3333333333333</ele><time>2026-04-06T13:58:58Z</time></trkpt><trkpt lat="46.05777501335352" lon="12.141830696667327"><ele>449.0</ele><time>2026-04-06T13:58:59Z</time></trkpt><trkpt lat="46.05793176716796" lon="12.14196203465257"><ele>449.0</ele><time>2026-04-06T13:59:00Z</time></trkpt><trkpt lat="46.058087153231284" lon="12.142086355519481"><ele>449.0</ele><time>2026-04-06T13:59:01Z</time></trkpt><trkpt lat="46.05823755582582" lon="12.142205684640023"><ele>449.0</ele><time>2026-04-06T13:59:02Z</time></trkpt><trkpt lat="46.05838407576229" lon="12.142325347013893"><ele>449.66666666666663</ele><time>2026-04-06T13:59:03Z</time></trkpt><trkpt lat="46.05852541645986" lon="12.142439726068622"><ele>450.33333333333337</ele><time>2026-04-06T13:59:04Z</time></trkpt><trkpt lat="46.05866452203353" lon="12.142549275613982"><ele>451.0</ele><time>2026-04-06T13:59:05Z</time></trkpt><trkpt lat="46.058801268741284" lon="12.142658480524133"><ele>451.0</ele><time>2026-04-06T13:59:06Z</time></trkpt><trkpt lat="46.058931641370684" lon="12.142769655068353"><ele>451.0</ele><time>2026-04-06T13:59:07Z</time></trkpt><trkpt lat="46.05905967601182" lon="12.142897101717601"><ele>451.0</ele><time>2026-04-06T13:59:08Z</time></trkpt><trkpt lat="46.05918575778677" lon="12.143044309488612"><ele>449.33333333333337</ele><time>2026-04-06T13:59:09Z</time></trkpt><trkpt lat="46.059311104686785" lon="12.143188045594876"><ele>447.66666666666663</ele><time>2026-04-06T13:59:10Z</time></trkpt><trkpt lat="46.0594353688908" lon="12.143323831340012"><ele>446.0</ele><time>2026-04-06T13:59:11Z</time></trkpt><trkpt lat="46.05955178207941" lon="12.143452703110434"><ele>446.0</ele><time>2026-04-06T13:59:12Z</time></trkpt><trkpt lat="46.05965909096121" lon="12.143562573796912"><ele>446.0</ele><time>2026-04-06T13:59:13Z</time></trkpt><trkpt lat="46.05977263139142" lon="12.143625853205092"><ele>446.0</ele><time>2026-04-06T13:59:14Z</time></trkpt><trkpt lat="46.05990123565039" lon="12.143630933016304"><ele>446.0</ele><time>2026-04-06T13:59:15Z</time></trkpt><trkpt lat="46.06004114739822" lon="12.143587424076348"><ele>442.75</ele><time>2026-04-06T13:59:16Z</time></trkpt><trkpt lat="46.060187327406624" lon="12.1435357297533"><ele>439.5</ele><time>2026-04-06T13:59:17Z</time></trkpt><trkpt lat="46.06032871765992" lon="12.143499612681564"><ele>436.25</ele><time>2026-04-06T13:59:18Z</time></trkpt><trkpt lat="46.06047102677501" lon="12.143462316905765"><ele>433.0</ele><time>2026-04-06T13:59:19Z</time></trkpt><trkpt lat="46.06060387556226" lon="12.143426364235067"><ele>433.0</ele><time>2026-04-06T13:59:20Z</time></trkpt><trkpt lat="46.06072717324134" lon="12.143398140916359"><ele>433.0</ele><time>2026-04-06T13:59:21Z</time></trkpt><trkpt lat="46.0608514265727" lon="12.143408839719257"><ele>433.0</ele><time>2026-04-06T13:59:22Z</time></trkpt><trkpt lat="46.06097224427314" lon="12.143472773821248"><ele>433.0</ele><time>2026-04-06T13:59:23Z</time></trkpt><trkpt lat="46.061096645962365" lon="12.143560147942324"><ele>431.33333333333337</ele><time>2026-04-06T13:59:24Z</time></trkpt><trkpt lat="46.06123160647168" lon="12.143648039754629"><ele>429.66666666666663</ele><time>2026-04-06T13:59:25Z</time></trkpt><trkpt lat="46.06138109440097" lon="12.14373615553868"><ele>428.0</ele><time>2026-04-06T13:59:26Z</time></trkpt><trkpt lat="46.06153211104607" lon="12.143832105161142"><ele>427.66666666666663</ele><time>2026-04-06T13:59:27Z</time></trkpt><trkpt lat="46.06167727336837" lon="12.143924510074767"><ele>427.33333333333337</ele><time>2026-04-06T13:59:28Z</time></trkpt><trkpt lat="46.06182073549141" lon="12.144011700240913"><ele>427.0</ele><time>2026-04-06T13:59:29Z</time></trkpt><trkpt lat="46.0619618546756" lon="12.144100687798709"><ele>427.0</ele><time>2026-04-06T13:59:30Z</time></trkpt><trkpt lat="46.062087719193165" lon="12.144188620790228"><ele>427.00000000000006</ele><time>2026-04-06T13:59:31Z</time></trkpt><trkpt lat="46.06219804333504" lon="12.144265099659853"><ele>427.00000000000006</ele><time>2026-04-06T13:59:32Z</time></trkpt><trkpt lat="46.06228966291801" lon="12.14431534081568"><ele>427.0</ele><time>2026-04-06T13:59:33Z</time></trkpt><trkpt lat="46.06237843596234" lon="12.144310238980802"><ele>427.0</ele><time>2026-04-06T13:59:34Z</time></trkpt><trkpt lat="46.0624730555309" lon="12.1442387809728"><ele>424.75</ele><time>2026-04-06T13:59:35Z</time></trkpt><trkpt lat="46.062565518236624" lon="12.144112178773945"><ele>422.5</ele><time>2026-04-06T13:59:36Z</time></trkpt><trkpt lat="46.062665725068584" lon="12.143958893322681"><ele>420.25</ele><time>2026-04-06T13:59:37Z</time></trkpt><trkpt lat="46.06278022231054" lon="12.14379688708031"><ele>418.0</ele><time>2026-04-06T13:59:38Z</time></trkpt><trkpt lat="46.06289414277243" lon="12.143639829038532"><ele>416.0</ele><time>2026-04-06T13:59:39Z</time></trkpt><trkpt lat="46.06300748721216" lon="12.143483349268546"><ele>414.0</ele><time>2026-04-06T13:59:40Z</time></trkpt><trkpt lat="46.063117747856275" lon="12.143327686052118"><ele>412.0</ele><time>2026-04-06T13:59:41Z</time></trkpt><trkpt lat="46.063229698301335" lon="12.143170206048561"><ele>410.0</ele><time>2026-04-06T13:59:42Z</time></trkpt><trkpt lat="46.063337080798114" lon="12.143018581951688"><ele>408.0</ele><time>2026-04-06T13:59:43Z</time></trkpt><trkpt lat="46.063446289233184" lon="12.142888223485686"><ele>406.0</ele><time>2026-04-06T13:59:44Z</time></trkpt><trkpt lat="46.063577442989455" lon="12.142796896622112"><ele>404.0</ele><time>2026-04-06T13:59:45Z</time></trkpt><trkpt lat="46.06372253820841" lon="12.142747151062204"><ele>404.0</ele><time>2026-04-06T13:59:46Z</time></trkpt><trkpt lat="46.06388174698208" lon="12.142725424391054"><ele>404.0</ele><time>2026-04-06T13:59:47Z</time></trkpt><trkpt lat="46.064057164222675" lon="12.142710791261733"><ele>404.0</ele><time>2026-04-06T13:59:48Z</time></trkpt><trkpt lat="46.06422865132415" lon="12.142696114924222"><ele>400.66666666666663</ele><time>2026-04-06T13:59:49Z</time></trkpt><trkpt lat="46.06439846517098" lon="12.142668160579017"><ele>397.33333333333337</ele><time>2026-04-06T13:59:50Z</time></trkpt><trkpt lat="46.06456731542921" lon="12.142643710319042"><ele>394.0</ele><time>2026-04-06T13:59:51Z</time></trkpt><trkpt lat="46.064732500268164" lon="12.142637898777217"><ele>394.0</ele><time>2026-04-06T13:59:52Z</time></trkpt><trkpt lat="46.06489843189346" lon="12.142658508662143"><ele>394.0</ele><time>2026-04-06T13:59:53Z</time></trkpt><trkpt lat="46.065059150195765" lon="12.142724718717139"><ele>394.0</ele><time>2026-04-06T13:59:54Z</time></trkpt><trkpt lat="46.06519428748332" lon="12.142860228708498"><ele>391.33333333333337</ele><time>2026-04-06T13:59:55Z</time></trkpt><trkpt lat="46.06533312463828" lon="12.142970520959752"><ele>388.66666666666663</ele><time>2026-04-06T13:59:56Z</time></trkpt><trkpt lat="46.06546114011559" lon="12.14309112529803"><ele>386.0</ele><time>2026-04-06T13:59:57Z</time></trkpt><trkpt lat="46.06559527563339" lon="12.14317294507561"><ele>386.0</ele><time>2026-04-06T13:59:58Z</time></trkpt><trkpt lat="46.06573711589142" lon="12.14320654614328"><ele>386.0</ele><time>2026-04-06T13:59:59Z</time></trkpt><trkpt lat="46.065873438739686" lon="12.143237586552186"><ele>386.0</ele><time>2026-04-06T14:00:00Z</time></trkpt><trkpt lat="46.065996500496325" lon="12.143273571478625"><ele>386.0</ele><time>2026-04-06T14:00:01Z</time></trkpt><trkpt lat="46.06611160737961" lon="12.143301054532525"><ele>385.20000000000005</ele><time>2026-04-06T14:00:02Z</time></trkpt><trkpt lat="46.066220074929504" lon="12.143302997591661"><ele>384.40000000000003</ele><time>2026-04-06T14:00:03Z</time></trkpt><trkpt lat="46.06632307472232" lon="12.14325512124556"><ele>383.6</ele><time>2026-04-06T14:00:04Z</time></trkpt><trkpt lat="46.066415573524175" lon="12.14316642789599"><ele>382.8</ele><time>2026-04-06T14:00:05Z</time></trkpt><trkpt lat="46.06651662949102" lon="12.143073113334985"><ele>382.0</ele><time>2026-04-06T14:00:06Z</time></trkpt><trkpt lat="46.06661570103468" lon="12.142989430711127"><ele>380.40000000000003</ele><time>2026-04-06T14:00:07Z</time></trkpt><trkpt lat="46.06671191955505" lon="12.142909145521282"><ele>378.8</ele><time>2026-04-06T14:00:08Z</time></trkpt><trkpt lat="46.06680748520847" lon="12.142831221318849"><ele>377.2</ele><time>2026-04-06T14:00:09Z</time></trkpt><trkpt lat="46.06689782460424" lon="12.142749418700852"><ele>375.6</ele><time>2026-04-06T14:00:10Z</time></trkpt><trkpt lat="46.06698895729055" lon="12.142672007407246"><ele>374.0</ele><time>2026-04-06T14:00:11Z</time></trkpt><trkpt lat="46.06708609317249" lon="12.142590638888846"><ele>374.0</ele><time>2026-04-06T14:00:12Z</time></trkpt><trkpt lat="46.0671905846525" lon="12.142500070413837"><ele>374.0</ele><time>2026-04-06T14:00:13Z</time></trkpt><trkpt lat="46.06730429133677" lon="12.142399022434619"><ele>374.0</ele><time>2026-04-06T14:00:14Z</time></trkpt><trkpt lat="46.06742363063613" lon="12.14229178863992"><ele>374.0</ele><time>2026-04-06T14:00:15Z</time></trkpt><trkpt lat="46.067544670567365" lon="12.142186024743"><ele>373.0</ele><time>2026-04-06T14:00:16Z</time></trkpt><trkpt lat="46.067677141333014" lon="12.14207174693954"><ele>372.0</ele><time>2026-04-06T14:00:17Z</time></trkpt><trkpt lat="46.06781660936485" lon="12.14194862070956"><ele>371.0</ele><time>2026-04-06T14:00:18Z</time></trkpt><trkpt lat="46.067963714743335" lon="12.141821027847058"><ele>371.0</ele><time>2026-04-06T14:00:19Z</time></trkpt><trkpt lat="46.068113563068245" lon="12.141691531155889"><ele>371.0</ele><time>2026-04-06T14:00:20Z</time></trkpt><trkpt lat="46.06826628227296" lon="12.141569293446803"><ele>371.0</ele><time>2026-04-06T14:00:21Z</time></trkpt><trkpt lat="46.068410292886306" lon="12.141441211065809"><ele>370.33333333333337</ele><time>2026-04-06T14:00:22Z</time></trkpt><trkpt lat="46.0685487481127" lon="12.14131867923677"><ele>369.6666666666667</ele><time>2026-04-06T14:00:23Z</time></trkpt><trkpt lat="46.06868463800245" lon="12.141202132912971"><ele>369.0</ele><time>2026-04-06T14:00:24Z</time></trkpt><trkpt lat="46.068816425137385" lon="12.141089835706214"><ele>369.0</ele><time>2026-04-06T14:00:25Z</time></trkpt><trkpt lat="46.06894172814747" lon="12.140981050461532"><ele>369.0</ele><time>2026-04-06T14:00:26Z</time></trkpt><trkpt lat="46.06906590967616" lon="12.140880353463665"><ele>369.0</ele><time>2026-04-06T14:00:27Z</time></trkpt><trkpt lat="46.06918510050664" lon="12.140783162861872"><ele>369.0</ele><time>2026-04-06T14:00:28Z</time></trkpt><trkpt lat="46.06930048307324" lon="12.140686462362579"><ele>369.0</ele><time>2026-04-06T14:00:29Z</time></trkpt><trkpt lat="46.06940697574892" lon="12.140588950886428"><ele>369.0</ele><time>2026-04-06T14:00:30Z</time></trkpt><trkpt lat="46.06950547501794" lon="12.140487456705586"><ele>369.0</ele><time>2026-04-06T14:00:31Z</time></trkpt><trkpt lat="46.069575198134636" lon="12.140363171108804"><ele>369.0</ele><time>2026-04-06T14:00:32Z</time></trkpt><trkpt lat="46.06961321752615" lon="12.140203580721685"><ele>369.0</ele><time>2026-04-06T14:00:33Z</time></trkpt><trkpt lat="46.06962547264561" lon="12.140013817878696"><ele>369.0</ele><time>2026-04-06T14:00:34Z</time></trkpt><trkpt lat="46.0696295820872" lon="12.13980967781159"><ele>369.0</ele><time>2026-04-06T14:00:35Z</time></trkpt><trkpt lat="46.069638797040035" lon="12.139615104182768"><ele>369.0</ele><time>2026-04-06T14:00:36Z</time></trkpt><trkpt lat="46.069652113278714" lon="12.139438859931523"><ele>369.0</ele><time>2026-04-06T14:00:37Z</time></trkpt><trkpt lat="46.06967739478183" lon="12.13928784651866"><ele>369.0</ele><time>2026-04-06T14:00:38Z</time></trkpt><trkpt lat="46.06972905816989" lon="12.139155412224019"><ele>369.0</ele><time>2026-04-06T14:00:39Z</time></trkpt><trkpt lat="46.06981634947007" lon="12.139060978888292"><ele>369.0</ele><time>2026-04-06T14:00:40Z</time></trkpt><trkpt lat="46.06992910690477" lon="12.139004217622022"><ele>369.0</ele><time>2026-04-06T14:00:41Z</time></trkpt><trkpt lat="46.070051667346256" lon="12.138949004087388"><ele>368.25</ele><time>2026-04-06T14:00:42Z</time></trkpt><trkpt lat="46.070180309251434" lon="12.13887547911846"><ele>367.5</ele><time>2026-04-06T14:00:43Z</time></trkpt><trkpt lat="46.07031580069422" lon="12.138790429309225"><ele>366.75</ele><time>2026-04-06T14:00:44Z</time></trkpt><trkpt lat="46.07045671832935" lon="12.138704959214731"><ele>366.0</ele><time>2026-04-06T14:00:45Z</time></trkpt><trkpt lat="46.070594550369044" lon="12.138620006204697"><ele>366.0</ele><time>2026-04-06T14:00:46Z</time></trkpt><trkpt lat="46.070722728373134" lon="12.138531958509677"><ele>366.0</ele><time>2026-04-06T14:00:47Z</time></trkpt><trkpt lat="46.070843567242214" lon="12.138435373453543"><ele>366.0</ele><time>2026-04-06T14:00:48Z</time></trkpt><trkpt lat="46.070960047615486" lon="12.138312817568934"><ele>366.0</ele><time>2026-04-06T14:00:49Z</time></trkpt><trkpt lat="46.07107028893154" lon="12.13816456718786"><ele>366.0</ele><time>2026-04-06T14:00:50Z</time></trkpt><trkpt lat="46.071179498465405" lon="12.138007666028484"><ele>366.0</ele><time>2026-04-06T14:00:51Z</time></trkpt><trkpt lat="46.071290589152206" lon="12.137860716820535"><ele>366.0</ele><time>2026-04-06T14:00:52Z</time></trkpt><trkpt lat="46.071409730682504" lon="12.137726296715776"><ele>366.0</ele><time>2026-04-06T14:00:53Z</time></trkpt><trkpt lat="46.071536609957334" lon="12.137613289549721"><ele>366.0</ele><time>2026-04-06T14:00:54Z</time></trkpt><trkpt lat="46.07166638297588" lon="12.137526427626474"><ele>366.0</ele><time>2026-04-06T14:00:55Z</time></trkpt><trkpt lat="46.071789198039475" lon="12.137447689150566"><ele>366.0</ele><time>2026-04-06T14:00:56Z</time></trkpt><trkpt lat="46.07190440749582" lon="12.137356851983187"><ele>366.75</ele><time>2026-04-06T14:00:57Z</time></trkpt><trkpt lat="46.07200093709577" lon="12.137243520471818"><ele>367.5</ele><time>2026-04-06T14:00:58Z</time></trkpt><trkpt lat="46.0720792311358" lon="12.137096688096895"><ele>368.25</ele><time>2026-04-06T14:00:59Z</time></trkpt><trkpt lat="46.07214253096286" lon="12.13692110222823"><ele>369.0</ele><time>2026-04-06T14:01:00Z</time></trkpt><trkpt lat="46.07220579463836" lon="12.136728952303896"><ele>369.6666666666667</ele><time>2026-04-06T14:01:01Z</time></trkpt><trkpt lat="46.07227397961156" lon="12.136526374713206"><ele>370.33333333333337</ele><time>2026-04-06T14:01:02Z</time></trkpt><trkpt lat="46.07233735984507" lon="12.136315054421303"><ele>371.0</ele><time>2026-04-06T14:01:03Z</time></trkpt><trkpt lat="46.0723952307212" lon="12.136087860350157"><ele>369.6666666666667</ele><time>2026-04-06T14:01:04Z</time></trkpt><trkpt lat="46.07245046362086" lon="12.13586008938619"><ele>368.3333333333333</ele><time>2026-04-06T14:01:05Z</time></trkpt><trkpt lat="46.07250680790104" lon="12.135648412556584"><ele>367.0</ele><time>2026-04-06T14:01:06Z</time></trkpt><trkpt lat="46.07256355479614" lon="12.135439369430404"><ele>366.3333333333333</ele><time>2026-04-06T14:01:07Z</time></trkpt><trkpt lat="46.07263094500835" lon="12.13523844882399"><ele>365.6666666666667</ele><time>2026-04-06T14:01:08Z</time></trkpt><trkpt lat="46.07270301620754" lon="12.135042134527284"><ele>365.0</ele><time>2026-04-06T14:01:09Z</time></trkpt><trkpt lat="46.072771471550666" lon="12.134841124719053"><ele>364.5</ele><time>2026-04-06T14:01:10Z</time></trkpt><trkpt lat="46.072828027341004" lon="12.134638598344258"><ele>364.0</ele><time>2026-04-06T14:01:11Z</time></trkpt><trkpt lat="46.07286918591334" lon="12.134446972635832"><ele>363.5</ele><time>2026-04-06T14:01:12Z</time></trkpt><trkpt lat="46.07290111038905" lon="12.134265645340287"><ele>363.0</ele><time>2026-04-06T14:01:13Z</time></trkpt><trkpt lat="46.072935403557366" lon="12.134085009054195"><ele>362.25</ele><time>2026-04-06T14:01:14Z</time></trkpt><trkpt lat="46.07300192038147" lon="12.133921426226149"><ele>361.5</ele><time>2026-04-06T14:01:15Z</time></trkpt><trkpt lat="46.073060312363694" lon="12.13376832140612"><ele>360.75</ele><time>2026-04-06T14:01:16Z</time></trkpt><trkpt lat="46.073155797668285" lon="12.133647543153947"><ele>360.0</ele><time>2026-04-06T14:01:17Z</time></trkpt><trkpt lat="46.07328135053168" lon="12.133581298743259"><ele>358.2</ele><time>2026-04-06T14:01:18Z</time></trkpt><trkpt lat="46.07336120509988" lon="12.133436500263224"><ele>356.4</ele><time>2026-04-06T14:01:19Z</time></trkpt><trkpt lat="46.07342972195793" lon="12.133293614731846"><ele>354.6</ele><time>2026-04-06T14:01:20Z</time></trkpt><trkpt lat="46.07348484116629" lon="12.133166156368357"><ele>352.8</ele><time>2026-04-06T14:01:21Z</time></trkpt><trkpt lat="46.07355110167778" lon="12.133077148830754"><ele>351.0</ele><time>2026-04-06T14:01:22Z</time></trkpt><trkpt lat="46.073586949127545" lon="12.13297796901303"><ele>350.8333333333333</ele><time>2026-04-06T14:01:23Z</time></trkpt><trkpt lat="46.07363632554054" lon="12.13290832216415"><ele>350.6666666666667</ele><time>2026-04-06T14:01:24Z</time></trkpt><trkpt lat="46.073723832578004" lon="12.132812545265832"><ele>350.5</ele><time>2026-04-06T14:01:26Z</time></trkpt><trkpt lat="46.073784723631874" lon="12.13276744988587"><ele>350.33333333333337</ele><time>2026-04-06T14:01:28Z</time></trkpt><trkpt lat="46.07379849315487" lon="12.13266378743461"><ele>350.1666666666667</ele><time>2026-04-06T14:01:32Z</time></trkpt><trkpt lat="46.07377242965225" lon="12.132509863139385"><ele>350.0</ele><time>2026-04-06T14:01:34Z</time></trkpt><trkpt lat="46.07374836779151" lon="12.132403994407893"><ele>349.6666666666667</ele><time>2026-04-06T14:01:35Z</time></trkpt><trkpt lat="46.07372374821519" lon="12.132308122660469"><ele>349.33333333333337</ele><time>2026-04-06T14:01:36Z</time></trkpt><trkpt lat="46.07369422897622" lon="12.132209771486144"><ele>349.0</ele><time>2026-04-06T14:01:37Z</time></trkpt><trkpt lat="46.07366416361292" lon="12.13209619981856"><ele>348.6666666666667</ele><time>2026-04-06T14:01:38Z</time></trkpt><trkpt lat="46.07362999873231" lon="12.131962624811525"><ele>348.3333333333333</ele><time>2026-04-06T14:01:39Z</time></trkpt><trkpt lat="46.07359050946062" lon="12.131811512321816"><ele>348.0</ele><time>2026-04-06T14:01:40Z</time></trkpt><trkpt lat="46.073555868050725" lon="12.131671439048892"><ele>347.79999999999995</ele><time>2026-04-06T14:01:41Z</time></trkpt><trkpt lat="46.07352092265825" lon="12.131531438465398"><ele>347.6</ele><time>2026-04-06T14:01:42Z</time></trkpt><trkpt lat="46.073483936948755" lon="12.131388118156814"><ele>347.4</ele><time>2026-04-06T14:01:43Z</time></trkpt><trkpt lat="46.07344404390262" lon="12.131245397146673"><ele>347.20000000000005</ele><time>2026-04-06T14:01:44Z</time></trkpt><trkpt lat="46.07340457879318" lon="12.131100228878031"><ele>347.0</ele><time>2026-04-06T14:01:45Z</time></trkpt><trkpt lat="46.07336750433069" lon="12.13095196718895"><ele>347.0</ele><time>2026-04-06T14:01:46Z</time></trkpt><trkpt lat="46.073331464061866" lon="12.130803547021264"><ele>347.0</ele><time>2026-04-06T14:01:47Z</time></trkpt><trkpt lat="46.07329575609409" lon="12.130655416215042"><ele>347.0</ele><time>2026-04-06T14:01:48Z</time></trkpt><trkpt lat="46.07325827835732" lon="12.130507535183169"><ele>347.0</ele><time>2026-04-06T14:01:49Z</time></trkpt><trkpt lat="46.07321646521302" lon="12.130356619685747"><ele>347.0</ele><time>2026-04-06T14:01:50Z</time></trkpt><trkpt lat="46.07317881814012" lon="12.130204668464566"><ele>347.0</ele><time>2026-04-06T14:01:51Z</time></trkpt><trkpt lat="46.07314029091387" lon="12.130050406053584"><ele>347.0</ele><time>2026-04-06T14:01:52Z</time></trkpt><trkpt lat="46.07310298088356" lon="12.129897487084682"><ele>347.0</ele><time>2026-04-06T14:01:53Z</time></trkpt><trkpt lat="46.0730598845927" lon="12.12974211734534"><ele>347.0</ele><time>2026-04-06T14:01:54Z</time></trkpt><trkpt lat="46.07301550142524" lon="12.12958337167216"><ele>346.75</ele><time>2026-04-06T14:01:55Z</time></trkpt><trkpt lat="46.07297590871214" lon="12.129423997483713"><ele>346.5</ele><time>2026-04-06T14:01:56Z</time></trkpt><trkpt lat="46.072934525743264" lon="12.129264853687003"><ele>346.25</ele><time>2026-04-06T14:01:57Z</time></trkpt><trkpt lat="46.07289107147837" lon="12.129100313433765"><ele>346.0</ele><time>2026-04-06T14:01:58Z</time></trkpt><trkpt lat="46.07284282722847" lon="12.128923963674472"><ele>346.0</ele><time>2026-04-06T14:01:59Z</time></trkpt><trkpt lat="46.07279170849295" lon="12.128737654395273"><ele>346.0</ele><time>2026-04-06T14:02:00Z</time></trkpt><trkpt lat="46.07274188453485" lon="12.128545669333354"><ele>346.0</ele><time>2026-04-06T14:02:01Z</time></trkpt><trkpt lat="46.0726904740933" lon="12.128349183563907"><ele>346.0</ele><time>2026-04-06T14:02:02Z</time></trkpt><trkpt lat="46.07263950619373" lon="12.128150941062822"><ele>345.66666666666663</ele><time>2026-04-06T14:02:03Z</time></trkpt><trkpt lat="46.07258600201718" lon="12.127949363729837"><ele>345.3333333333333</ele><time>2026-04-06T14:02:04Z</time></trkpt><trkpt lat="46.0725318671504" lon="12.127743943290895"><ele>345.0</ele><time>2026-04-06T14:02:05Z</time></trkpt><trkpt lat="46.07247918830765" lon="12.127538421866182"><ele>346.0</ele><time>2026-04-06T14:02:06Z</time></trkpt><trkpt lat="46.07242332122783" lon="12.127328342017732"><ele>347.0</ele><time>2026-04-06T14:02:07Z</time></trkpt><trkpt lat="46.07236803243463" lon="12.127113177997682"><ele>348.0</ele><time>2026-04-06T14:02:08Z</time></trkpt><trkpt lat="46.07231383321236" lon="12.126903699764505"><ele>348.0</ele><time>2026-04-06T14:02:09Z</time></trkpt><trkpt lat="46.07226348076483" lon="12.126705167386188"><ele>348.0</ele><time>2026-04-06T14:02:10Z</time></trkpt><trkpt lat="46.07221508180143" lon="12.126514495551431"><ele>348.0</ele><time>2026-04-06T14:02:11Z</time></trkpt><trkpt lat="46.072165723421776" lon="12.12633136472356"><ele>348.0</ele><time>2026-04-06T14:02:12Z</time></trkpt><trkpt lat="46.07211839538191" lon="12.12614602388244"><ele>347.75</ele><time>2026-04-06T14:02:13Z</time></trkpt><trkpt lat="46.072071602723426" lon="12.1259606071765"><ele>347.5</ele><time>2026-04-06T14:02:14Z</time></trkpt><trkpt lat="46.072027200988025" lon="12.12578463353127"><ele>347.25</ele><time>2026-04-06T14:02:15Z</time></trkpt><trkpt lat="46.07198134795952" lon="12.125614650616837"><ele>347.0</ele><time>2026-04-06T14:02:16Z</time></trkpt><trkpt lat="46.07193709542011" lon="12.12545260178635"><ele>346.6</ele><time>2026-04-06T14:02:17Z</time></trkpt><trkpt lat="46.07189829595748" lon="12.125306850311137"><ele>346.20000000000005</ele><time>2026-04-06T14:02:18Z</time></trkpt><trkpt lat="46.07187130389064" lon="12.125167869724146"><ele>345.8</ele><time>2026-04-06T14:02:19Z</time></trkpt><trkpt lat="46.07186811112211" lon="12.125025586198102"><ele>345.4</ele><time>2026-04-06T14:02:20Z</time></trkpt><trkpt lat="46.07188806603133" lon="12.12488981220634"><ele>345.0</ele><time>2026-04-06T14:02:21Z</time></trkpt><trkpt lat="46.07192240981544" lon="12.124762777620084"><ele>344.25</ele><time>2026-04-06T14:02:22Z</time></trkpt><trkpt lat="46.0719412620658" lon="12.124625880399563"><ele>343.5</ele><time>2026-04-06T14:02:23Z</time></trkpt><trkpt lat="46.07198570304902" lon="12.124479293584754"><ele>342.75</ele><time>2026-04-06T14:02:24Z</time></trkpt><trkpt lat="46.07201782080485" lon="12.124314758474238"><ele>342.0</ele><time>2026-04-06T14:02:25Z</time></trkpt><trkpt lat="46.07207080541594" lon="12.124151318734405"><ele>341.0</ele><time>2026-04-06T14:02:26Z</time></trkpt><trkpt lat="46.07214005523829" lon="12.123992687781532"><ele>340.0</ele><time>2026-04-06T14:02:27Z</time></trkpt><trkpt lat="46.072260530457434" lon="12.123889661374289"><ele>339.0</ele><time>2026-04-06T14:02:28Z</time></trkpt><trkpt lat="46.072354735788004" lon="12.123780296003419"><ele>338.0</ele><time>2026-04-06T14:02:29Z</time></trkpt><trkpt lat="46.0724410152958" lon="12.123669756435165"><ele>337.4</ele><time>2026-04-06T14:02:30Z</time></trkpt><trkpt lat="46.07252408227315" lon="12.123562534354072"><ele>336.79999999999995</ele><time>2026-04-06T14:02:31Z</time></trkpt><trkpt lat="46.07260476989579" lon="12.123464020219354"><ele>336.2</ele><time>2026-04-06T14:02:32Z</time></trkpt><trkpt lat="46.07268231761812" lon="12.123388078643211"><ele>335.6</ele><time>2026-04-06T14:02:33Z</time></trkpt><trkpt lat="46.07276836436894" lon="12.123348792251516"><ele>335.0</ele><time>2026-04-06T14:02:34Z</time></trkpt><trkpt lat="46.07286132259676" lon="12.123347627005314"><ele>335.0</ele><time>2026-04-06T14:02:35Z</time></trkpt><trkpt lat="46.07294986570587" lon="12.12338140864386"><ele>335.0</ele><time>2026-04-06T14:02:36Z</time></trkpt><trkpt lat="46.07302738681062" lon="12.123448774402592"><ele>335.0</ele><time>2026-04-06T14:02:37Z</time></trkpt><trkpt lat="46.07308497078853" lon="12.123541885298952"><ele>335.0</ele><time>2026-04-06T14:02:38Z</time></trkpt><trkpt lat="46.073105336365664" lon="12.12366037035422"><ele>335.0</ele><time>2026-04-06T14:02:39Z</time></trkpt><trkpt lat="46.07311006838439" lon="12.123771677107415"><ele>335.0</ele><time>2026-04-06T14:02:40Z</time></trkpt><trkpt lat="46.073099417084244" lon="12.123884663661503"><ele>335.0</ele><time>2026-04-06T14:02:41Z</time></trkpt><trkpt lat="46.07308701821937" lon="12.124007053205178"><ele>335.0</ele><time>2026-04-06T14:02:42Z</time></trkpt><trkpt lat="46.073022705624474" lon="12.124102353296271"><ele>335.0</ele><time>2026-04-06T14:02:43Z</time></trkpt><trkpt lat="46.07293768442486" lon="12.12417118863077"><ele>335.0</ele><time>2026-04-06T14:02:44Z</time></trkpt><trkpt lat="46.07284035761385" lon="12.124208364097068"><ele>335.0</ele><time>2026-04-06T14:02:45Z</time></trkpt><trkpt lat="46.072743098812225" lon="12.12419888210528"><ele>335.0</ele><time>2026-04-06T14:02:46Z</time></trkpt><trkpt lat="46.07265539947991" lon="12.124135407628128"><ele>335.0</ele><time>2026-04-06T14:02:47Z</time></trkpt><trkpt lat="46.07256847258199" lon="12.124051877486867"><ele>335.0</ele><time>2026-04-06T14:02:48Z</time></trkpt><trkpt lat="46.072466649459294" lon="12.124009939834535"><ele>335.0</ele><time>2026-04-06T14:02:49Z</time></trkpt><trkpt lat="46.07239499525187" lon="12.123818901024288"><ele>335.6</ele><time>2026-04-06T14:02:50Z</time></trkpt><trkpt lat="46.07232470512903" lon="12.123715502953742"><ele>336.2</ele><time>2026-04-06T14:02:51Z</time></trkpt><trkpt lat="46.07224337600816" lon="12.123624812891356"><ele>336.79999999999995</ele><time>2026-04-06T14:02:52Z</time></trkpt><trkpt lat="46.07214902210554" lon="12.123527215644222"><ele>337.4</ele><time>2026-04-06T14:02:53Z</time></trkpt><trkpt lat="46.07205231623093" lon="12.123401790700157"><ele>338.0</ele><time>2026-04-06T14:02:54Z</time></trkpt><trkpt lat="46.071956221244285" lon="12.123248422951422"><ele>336.6666666666667</ele><time>2026-04-06T14:02:55Z</time></trkpt><trkpt lat="46.07185508006683" lon="12.123077982048851"><ele>335.3333333333333</ele><time>2026-04-06T14:02:56Z</time></trkpt><trkpt lat="46.07174411025571" lon="12.122895457650062"><ele>334.0</ele><time>2026-04-06T14:02:57Z</time></trkpt><trkpt lat="46.071624279570806" lon="12.122699874177776"><ele>336.66666666666663</ele><time>2026-04-06T14:02:58Z</time></trkpt><trkpt lat="46.07150185201844" lon="12.12248918970061"><ele>339.3333333333333</ele><time>2026-04-06T14:02:59Z</time></trkpt><trkpt lat="46.071371357644324" lon="12.122259630624805"><ele>342.0</ele><time>2026-04-06T14:03:00Z</time></trkpt><trkpt lat="46.07125297359587" lon="12.121992010200497"><ele>342.0</ele><time>2026-04-06T14:03:01Z</time></trkpt><trkpt lat="46.071113555675474" lon="12.121717388114273"><ele>342.0</ele><time>2026-04-06T14:03:02Z</time></trkpt><trkpt lat="46.07099647353702" lon="12.121418221987081"><ele>341.0</ele><time>2026-04-06T14:03:03Z</time></trkpt><trkpt lat="46.07088158348508" lon="12.121123526646047"><ele>340.0</ele><time>2026-04-06T14:03:04Z</time></trkpt><trkpt lat="46.07076524542494" lon="12.120839039783736"><ele>341.0</ele><time>2026-04-06T14:03:05Z</time></trkpt><trkpt lat="46.070650106570795" lon="12.120558540026888"><ele>342.0</ele><time>2026-04-06T14:03:06Z</time></trkpt><trkpt lat="46.07053665378444" lon="12.120283621411925"><ele>343.0</ele><time>2026-04-06T14:03:07Z</time></trkpt><trkpt lat="46.070425845020644" lon="12.12001203617518"><ele>343.0</ele><time>2026-04-06T14:03:08Z</time></trkpt><trkpt lat="46.07031765586174" lon="12.119743751025203"><ele>343.0</ele><time>2026-04-06T14:03:09Z</time></trkpt><trkpt lat="46.0702090102748" lon="12.11947718801759"><ele>343.0</ele><time>2026-04-06T14:03:10Z</time></trkpt><trkpt lat="46.07009664355284" lon="12.11921426445263"><ele>342.66666666666663</ele><time>2026-04-06T14:03:11Z</time></trkpt><trkpt lat="46.06998601557779" lon="12.118953889073902"><ele>342.3333333333333</ele><time>2026-04-06T14:03:12Z</time></trkpt><trkpt lat="46.069877374593034" lon="12.11869772052001"><ele>342.0</ele><time>2026-04-06T14:03:13Z</time></trkpt><trkpt lat="46.06977477697788" lon="12.118443635213334"><ele>341.3333333333333</ele><time>2026-04-06T14:03:14Z</time></trkpt><trkpt lat="46.06968035145359" lon="12.11818274758126"><ele>340.66666666666663</ele><time>2026-04-06T14:03:15Z</time></trkpt><trkpt lat="46.069594419645696" lon="12.11791893792855"><ele>340.0</ele><time>2026-04-06T14:03:16Z</time></trkpt><trkpt lat="46.06951689520728" lon="12.117648966129432"><ele>337.3333333333333</ele><time>2026-04-06T14:03:17Z</time></trkpt><trkpt lat="46.069450997047284" lon="12.117375188959718"><ele>334.6666666666667</ele><time>2026-04-06T14:03:18Z</time></trkpt><trkpt lat="46.06939213114164" lon="12.117095003095912"><ele>332.0</ele><time>2026-04-06T14:03:19Z</time></trkpt><trkpt lat="46.06933919428899" lon="12.11681771161712"><ele>332.33333333333337</ele><time>2026-04-06T14:03:20Z</time></trkpt><trkpt lat="46.069295370259965" lon="12.11654463397103"><ele>332.6666666666667</ele><time>2026-04-06T14:03:21Z</time></trkpt><trkpt lat="46.06925548482971" lon="12.116271669487977"><ele>333.0</ele><time>2026-04-06T14:03:22Z</time></trkpt><trkpt lat="46.06922200189798" lon="12.115998873671836"><ele>335.3333333333333</ele><time>2026-04-06T14:03:23Z</time></trkpt><trkpt lat="46.06919499626354" lon="12.115723334387402"><ele>337.66666666666663</ele><time>2026-04-06T14:03:24Z</time></trkpt><trkpt lat="46.06917476173664" lon="12.115447813030283"><ele>340.0</ele><time>2026-04-06T14:03:25Z</time></trkpt><trkpt lat="46.06915745760881" lon="12.11517471765677"><ele>340.0</ele><time>2026-04-06T14:03:26Z</time></trkpt><trkpt lat="46.069140648233564" lon="12.114917913038015"><ele>340.0</ele><time>2026-04-06T14:03:27Z</time></trkpt><trkpt lat="46.069122905631716" lon="12.11467003653431"><ele>340.0</ele><time>2026-04-06T14:03:28Z</time></trkpt><trkpt lat="46.069105611511965" lon="12.114424179080201"><ele>343.0</ele><time>2026-04-06T14:03:29Z</time></trkpt><trkpt lat="46.06908779939291" lon="12.114179594087418"><ele>346.0</ele><time>2026-04-06T14:03:30Z</time></trkpt><trkpt lat="46.06907157751713" lon="12.113935901290166"><ele>349.0</ele><time>2026-04-06T14:03:31Z</time></trkpt><trkpt lat="46.06905330940119" lon="12.11368205399108"><ele>349.3333333333333</ele><time>2026-04-06T14:03:32Z</time></trkpt><trkpt lat="46.06903608924383" lon="12.113421143393472"><ele>349.6666666666667</ele><time>2026-04-06T14:03:33Z</time></trkpt><trkpt lat="46.06901853660841" lon="12.1131560759355"><ele>350.0</ele><time>2026-04-06T14:03:34Z</time></trkpt><trkpt lat="46.06899759252298" lon="12.112883653020221"><ele>350.0</ele><time>2026-04-06T14:03:35Z</time></trkpt><trkpt lat="46.06897841206018" lon="12.11261048643434"><ele>350.0</ele><time>2026-04-06T14:03:36Z</time></trkpt><trkpt lat="46.06895987283147" lon="12.112340619965018"><ele>350.0</ele><time>2026-04-06T14:03:37Z</time></trkpt><trkpt lat="46.06894117221169" lon="12.112072852736201"><ele>348.6666666666667</ele><time>2026-04-06T14:03:38Z</time></trkpt><trkpt lat="46.06892149656442" lon="12.111808222998727"><ele>347.3333333333333</ele><time>2026-04-06T14:03:39Z</time></trkpt><trkpt lat="46.068901612788345" lon="12.111547219435485"><ele>346.0</ele><time>2026-04-06T14:03:40Z</time></trkpt><trkpt lat="46.06888225657438" lon="12.111288442206687"><ele>344.0</ele><time>2026-04-06T14:03:41Z</time></trkpt><trkpt lat="46.068861249586234" lon="12.111030766985717"><ele>342.0</ele><time>2026-04-06T14:03:42Z</time></trkpt><trkpt lat="46.068838904951384" lon="12.110771899899879"><ele>340.0</ele><time>2026-04-06T14:03:43Z</time></trkpt><trkpt lat="46.06881263302882" lon="12.110508568288882"><ele>339.3333333333333</ele><time>2026-04-06T14:03:44Z</time></trkpt><trkpt lat="46.06878229138727" lon="12.110239837889734"><ele>338.6666666666667</ele><time>2026-04-06T14:03:45Z</time></trkpt><trkpt lat="46.06874815292614" lon="12.109968412596952"><ele>338.0</ele><time>2026-04-06T14:03:46Z</time></trkpt><trkpt lat="46.06870714667197" lon="12.10969993983299"><ele>338.0</ele><time>2026-04-06T14:03:47Z</time></trkpt><trkpt lat="46.06865900174216" lon="12.109432613768071"><ele>338.0</ele><time>2026-04-06T14:03:48Z</time></trkpt><trkpt lat="46.0686051763119" lon="12.10916903534544"><ele>338.0</ele><time>2026-04-06T14:03:49Z</time></trkpt><trkpt lat="46.06854955866879" lon="12.108915575875812"><ele>337.33333333333337</ele><time>2026-04-06T14:03:50Z</time></trkpt><trkpt lat="46.06849134009073" lon="12.108673511723387"><ele>336.6666666666667</ele><time>2026-04-06T14:03:51Z</time></trkpt><trkpt lat="46.06843170792482" lon="12.108441820794209"><ele>336.0</ele><time>2026-04-06T14:03:52Z</time></trkpt><trkpt lat="46.0683720401133" lon="12.108210758585164"><ele>335.6666666666667</ele><time>2026-04-06T14:03:53Z</time></trkpt><trkpt lat="46.06831474353869" lon="12.107978061366822"><ele>335.33333333333337</ele><time>2026-04-06T14:03:54Z</time></trkpt><trkpt lat="46.068257883983094" lon="12.10774567210297"><ele>335.0</ele><time>2026-04-06T14:03:55Z</time></trkpt><trkpt lat="46.06819629189817" lon="12.107510213107265"><ele>335.33333333333337</ele><time>2026-04-06T14:03:56Z</time></trkpt><trkpt lat="46.068132804208325" lon="12.107266277156487"><ele>335.6666666666667</ele><time>2026-04-06T14:03:57Z</time></trkpt><trkpt lat="46.068065959776845" lon="12.107012578292213"><ele>336.0</ele><time>2026-04-06T14:03:58Z</time></trkpt><trkpt lat="46.06799617379146" lon="12.106751152121422"><ele>335.3333333333333</ele><time>2026-04-06T14:03:59Z</time></trkpt><trkpt lat="46.06792755422828" lon="12.106477068187322"><ele>334.66666666666663</ele><time>2026-04-06T14:04:00Z</time></trkpt><trkpt lat="46.067859393035164" lon="12.106195024931909"><ele>334.0</ele><time>2026-04-06T14:04:01Z</time></trkpt><trkpt lat="46.067787758686464" lon="12.105906726676386"><ele>333.3333333333333</ele><time>2026-04-06T14:04:02Z</time></trkpt><trkpt lat="46.067716151581024" lon="12.105616294268854"><ele>332.6666666666667</ele><time>2026-04-06T14:04:03Z</time></trkpt><trkpt lat="46.06764587844484" lon="12.105332133686177"><ele>332.0</ele><time>2026-04-06T14:04:04Z</time></trkpt><trkpt lat="46.06757880929755" lon="12.105050547093777"><ele>332.0</ele><time>2026-04-06T14:04:05Z</time></trkpt><trkpt lat="46.067510757386366" lon="12.104764431622227"><ele>332.0</ele><time>2026-04-06T14:04:06Z</time></trkpt><trkpt lat="46.067439656908164" lon="12.104471602757556"><ele>332.0</ele><time>2026-04-06T14:04:07Z</time></trkpt><trkpt lat="46.067365098885965" lon="12.104173249157299"><ele>331.0</ele><time>2026-04-06T14:04:08Z</time></trkpt><trkpt lat="46.06728556576695" lon="12.103869632395094"><ele>330.0</ele><time>2026-04-06T14:04:09Z</time></trkpt><trkpt lat="46.06720755051947" lon="12.103565781743136"><ele>330.0</ele><time>2026-04-06T14:04:10Z</time></trkpt><trkpt lat="46.06713487778378" lon="12.10326808637739"><ele>330.0</ele><time>2026-04-06T14:04:11Z</time></trkpt><trkpt lat="46.06706556231812" lon="12.10297562463223"><ele>330.0</ele><time>2026-04-06T14:04:12Z</time></trkpt><trkpt lat="46.06699634272159" lon="12.102686700976411"><ele>329.3333333333333</ele><time>2026-04-06T14:04:13Z</time></trkpt><trkpt lat="46.06692733974704" lon="12.102402872452195"><ele>328.66666666666663</ele><time>2026-04-06T14:04:14Z</time></trkpt><trkpt lat="46.06686060871279" lon="12.102123578398794"><ele>328.0</ele><time>2026-04-06T14:04:15Z</time></trkpt><trkpt lat="46.06679346198389" lon="12.101849273702825"><ele>327.66666666666663</ele><time>2026-04-06T14:04:16Z</time></trkpt><trkpt lat="46.06672419720155" lon="12.101574512958452"><ele>327.3333333333333</ele><time>2026-04-06T14:04:17Z</time></trkpt><trkpt lat="46.06665470065419" lon="12.101300496247203"><ele>327.0</ele><time>2026-04-06T14:04:18Z</time></trkpt><trkpt lat="46.0665867925789" lon="12.101025445556266"><ele>327.0</ele><time>2026-04-06T14:04:19Z</time></trkpt><trkpt lat="46.066519872504465" lon="12.100751365681917"><ele>327.0</ele><time>2026-04-06T14:04:20Z</time></trkpt><trkpt lat="46.06645326199347" lon="12.100477360304366"><ele>327.0</ele><time>2026-04-06T14:04:21Z</time></trkpt><trkpt lat="46.0663877152551" lon="12.100204409584416"><ele>327.0</ele><time>2026-04-06T14:04:22Z</time></trkpt><trkpt lat="46.066320061886294" lon="12.099929692238444"><ele>327.0</ele><time>2026-04-06T14:04:23Z</time></trkpt><trkpt lat="46.066253563343274" lon="12.099649319166906"><ele>327.0</ele><time>2026-04-06T14:04:24Z</time></trkpt><trkpt lat="46.066187291506836" lon="12.099364326608042"><ele>325.3333333333333</ele><time>2026-04-06T14:04:25Z</time></trkpt><trkpt lat="46.06612406799132" lon="12.099082154597475"><ele>323.66666666666663</ele><time>2026-04-06T14:04:26Z</time></trkpt><trkpt lat="46.06606474903148" lon="12.098805215989978"><ele>322.0</ele><time>2026-04-06T14:04:27Z</time></trkpt><trkpt lat="46.0660126999984" lon="12.09854051868483"><ele>322.0</ele><time>2026-04-06T14:04:28Z</time></trkpt><trkpt lat="46.065961743413816" lon="12.098285860971323"><ele>322.0</ele><time>2026-04-06T14:04:29Z</time></trkpt><trkpt lat="46.065909924132214" lon="12.09804323655557"><ele>322.0</ele><time>2026-04-06T14:04:30Z</time></trkpt><trkpt lat="46.065862380078116" lon="12.097812568735574"><ele>322.3333333333333</ele><time>2026-04-06T14:04:31Z</time></trkpt><trkpt lat="46.06581541438636" lon="12.097590844199473"><ele>322.6666666666667</ele><time>2026-04-06T14:04:32Z</time></trkpt><trkpt lat="46.06576989593461" lon="12.097375983263724"><ele>323.0</ele><time>2026-04-06T14:04:33Z</time></trkpt><trkpt lat="46.06572661955021" lon="12.097168347104036"><ele>323.25</ele><time>2026-04-06T14:04:34Z</time></trkpt><trkpt lat="46.06568401072244" lon="12.096970961622405"><ele>323.5</ele><time>2026-04-06T14:04:35Z</time></trkpt><trkpt lat="46.06564275554351" lon="12.096777870094382"><ele>323.75</ele><time>2026-04-06T14:04:36Z</time></trkpt><trkpt lat="46.065603760238616" lon="12.096585092857389"><ele>324.0</ele><time>2026-04-06T14:04:37Z</time></trkpt><trkpt lat="46.0655625199007" lon="12.096390833180545"><ele>324.0</ele><time>2026-04-06T14:04:38Z</time></trkpt><trkpt lat="46.06552393682406" lon="12.096195353505724"><ele>324.0</ele><time>2026-04-06T14:04:39Z</time></trkpt><trkpt lat="46.065484714017074" lon="12.095996831966477"><ele>324.0</ele><time>2026-04-06T14:04:40Z</time></trkpt><trkpt lat="46.065441883207754" lon="12.095792384598353"><ele>324.0</ele><time>2026-04-06T14:04:41Z</time></trkpt><trkpt lat="46.06539627163444" lon="12.095586901992984"><ele>323.5</ele><time>2026-04-06T14:04:42Z</time></trkpt><trkpt lat="46.06535169636297" lon="12.095380968107172"><ele>323.0</ele><time>2026-04-06T14:04:43Z</time></trkpt><trkpt lat="46.06530881045765" lon="12.095176933555193"><ele>322.5</ele><time>2026-04-06T14:04:44Z</time></trkpt><trkpt lat="46.06526605244782" lon="12.094982684108171"><ele>322.0</ele><time>2026-04-06T14:04:45Z</time></trkpt><trkpt lat="46.065226127970355" lon="12.094792335957493"><ele>321.75</ele><time>2026-04-06T14:04:46Z</time></trkpt><trkpt lat="46.065186811439624" lon="12.094605128021506"><ele>321.5</ele><time>2026-04-06T14:04:47Z</time></trkpt><trkpt lat="46.06515188631377" lon="12.09442314781575"><ele>321.25</ele><time>2026-04-06T14:04:48Z</time></trkpt><trkpt lat="46.06511621032107" lon="12.094246071562269"><ele>321.0</ele><time>2026-04-06T14:04:49Z</time></trkpt><trkpt lat="46.065080151858076" lon="12.09406880876704"><ele>321.5</ele><time>2026-04-06T14:04:50Z</time></trkpt><trkpt lat="46.06504385711492" lon="12.093888442202914"><ele>322.0</ele><time>2026-04-06T14:04:51Z</time></trkpt><trkpt lat="46.065004624457934" lon="12.093704825437321"><ele>322.5</ele><time>2026-04-06T14:04:52Z</time></trkpt><trkpt lat="46.06496606927827" lon="12.093521537416311"><ele>323.0</ele><time>2026-04-06T14:04:53Z</time></trkpt><trkpt lat="46.06492919187439" lon="12.093340729366432"><ele>321.5</ele><time>2026-04-06T14:04:54Z</time></trkpt><trkpt lat="46.064894049322" lon="12.093160206354577"><ele>320.0</ele><time>2026-04-06T14:04:55Z</time></trkpt><trkpt lat="46.06485642357672" lon="12.092982159452744"><ele>318.5</ele><time>2026-04-06T14:04:56Z</time></trkpt><trkpt lat="46.06482112091212" lon="12.092810617879579"><ele>317.0</ele><time>2026-04-06T14:04:57Z</time></trkpt><trkpt lat="46.06478525686489" lon="12.09263846435478"><ele>317.0</ele><time>2026-04-06T14:04:58Z</time></trkpt><trkpt lat="46.06474685747419" lon="12.09246547547401"><ele>317.0</ele><time>2026-04-06T14:04:59Z</time></trkpt><trkpt lat="46.06471214058821" lon="12.092290850516793"><ele>317.0</ele><time>2026-04-06T14:05:00Z</time></trkpt><trkpt lat="46.06467569153435" lon="12.09211184882827"><ele>317.0</ele><time>2026-04-06T14:05:01Z</time></trkpt><trkpt lat="46.064638816689104" lon="12.091927734070943"><ele>317.5</ele><time>2026-04-06T14:05:02Z</time></trkpt><trkpt lat="46.064601770036795" lon="12.091738759117682"><ele>318.0</ele><time>2026-04-06T14:05:03Z</time></trkpt><trkpt lat="46.064562787926384" lon="12.091546998697325"><ele>318.5</ele><time>2026-04-06T14:05:04Z</time></trkpt><trkpt lat="46.064524313416655" lon="12.091356659816533"><ele>319.0</ele><time>2026-04-06T14:05:05Z</time></trkpt><trkpt lat="46.06448674995907" lon="12.091165234501005"><ele>319.0</ele><time>2026-04-06T14:05:06Z</time></trkpt><trkpt lat="46.064449734818496" lon="12.090972153875791"><ele>319.0</ele><time>2026-04-06T14:05:07Z</time></trkpt><trkpt lat="46.064411361344945" lon="12.090779631911923"><ele>319.0</ele><time>2026-04-06T14:05:08Z</time></trkpt><trkpt lat="46.06437426631721" lon="12.090586857271475"><ele>319.0</ele><time>2026-04-06T14:05:09Z</time></trkpt><trkpt lat="46.06433880802967" lon="12.090394877686359"><ele>319.0</ele><time>2026-04-06T14:05:10Z</time></trkpt><trkpt lat="46.06429748714471" lon="12.090208681866478"><ele>319.0</ele><time>2026-04-06T14:05:11Z</time></trkpt><trkpt lat="46.06425635816822" lon="12.090023822792896"><ele>319.0</ele><time>2026-04-06T14:05:12Z</time></trkpt><trkpt lat="46.06421946050363" lon="12.089837454259015"><ele>319.0</ele><time>2026-04-06T14:05:13Z</time></trkpt><trkpt lat="46.06418213797283" lon="12.089653621653973"><ele>319.25</ele><time>2026-04-06T14:05:14Z</time></trkpt><trkpt lat="46.064149434389705" lon="12.089476559828201"><ele>319.5</ele><time>2026-04-06T14:05:15Z</time></trkpt><trkpt lat="46.06411163834214" lon="12.089303225006718"><ele>319.75</ele><time>2026-04-06T14:05:16Z</time></trkpt><trkpt lat="46.064074503877166" lon="12.089128324797382"><ele>320.0</ele><time>2026-04-06T14:05:17Z</time></trkpt><trkpt lat="46.064036463295075" lon="12.088950827624"><ele>321.5</ele><time>2026-04-06T14:05:18Z</time></trkpt><trkpt lat="46.064000825722985" lon="12.08877803993585"><ele>323.0</ele><time>2026-04-06T14:05:19Z</time></trkpt><trkpt lat="46.06396832420117" lon="12.08861066519719"><ele>324.5</ele><time>2026-04-06T14:05:20Z</time></trkpt><trkpt lat="46.063932430943794" lon="12.088437400365267"><ele>326.0</ele><time>2026-04-06T14:05:21Z</time></trkpt><trkpt lat="46.063898126982444" lon="12.08825749786938"><ele>326.5</ele><time>2026-04-06T14:05:22Z</time></trkpt><trkpt lat="46.063861815499706" lon="12.088073867858595"><ele>327.0</ele><time>2026-04-06T14:05:23Z</time></trkpt><trkpt lat="46.06382729540117" lon="12.087901559178622"><ele>327.5</ele><time>2026-04-06T14:05:24Z</time></trkpt><trkpt lat="46.063794896565206" lon="12.087736901449917"><ele>328.0</ele><time>2026-04-06T14:05:25Z</time></trkpt><trkpt lat="46.063760498636164" lon="12.087569383125725"><ele>327.5</ele><time>2026-04-06T14:05:26Z</time></trkpt><trkpt lat="46.0637215130219" lon="12.087402043178948"><ele>327.0</ele><time>2026-04-06T14:05:27Z</time></trkpt><trkpt lat="46.0636768086091" lon="12.087238763579276"><ele>326.5</ele><time>2026-04-06T14:05:28Z</time></trkpt><trkpt lat="46.063621556584636" lon="12.087086978434403"><ele>326.0</ele><time>2026-04-06T14:05:29Z</time></trkpt><trkpt lat="46.06355061567874" lon="12.086948940045033"><ele>326.0</ele><time>2026-04-06T14:05:30Z</time></trkpt><trkpt lat="46.063469434522176" lon="12.086819981020708"><ele>326.0</ele><time>2026-04-06T14:05:31Z</time></trkpt><trkpt lat="46.06337651694383" lon="12.086694647449763"><ele>326.0</ele><time>2026-04-06T14:05:32Z</time></trkpt><trkpt lat="46.0632743357118" lon="12.086561138838924"><ele>326.0</ele><time>2026-04-06T14:05:33Z</time></trkpt><trkpt lat="46.06316550570241" lon="12.0864195413425"><ele>326.0</ele><time>2026-04-06T14:05:34Z</time></trkpt><trkpt lat="46.06305864274151" lon="12.086276656897212"><ele>326.0</ele><time>2026-04-06T14:05:35Z</time></trkpt><trkpt lat="46.06295607114113" lon="12.086138887644884"><ele>326.0</ele><time>2026-04-06T14:05:36Z</time></trkpt><trkpt lat="46.0628522160823" lon="12.08600302888383"><ele>326.0</ele><time>2026-04-06T14:05:37Z</time></trkpt><trkpt lat="46.06274699780772" lon="12.085867369080093"><ele>326.0</ele><time>2026-04-06T14:05:38Z</time></trkpt><trkpt lat="46.062639867831535" lon="12.085737927374133"><ele>326.0</ele><time>2026-04-06T14:05:39Z</time></trkpt><trkpt lat="46.062531386003634" lon="12.085621303094305"><ele>326.0</ele><time>2026-04-06T14:05:40Z</time></trkpt><trkpt lat="46.06242137153944" lon="12.085516779928001"><ele>326.0</ele><time>2026-04-06T14:05:41Z</time></trkpt><trkpt lat="46.06231491338658" lon="12.085406425752407"><ele>324.25</ele><time>2026-04-06T14:05:42Z</time></trkpt><trkpt lat="46.062192036838034" lon="12.085342799608071"><ele>322.5</ele><time>2026-04-06T14:05:43Z</time></trkpt><trkpt lat="46.06207952148276" lon="12.085253582656373"><ele>320.75</ele><time>2026-04-06T14:05:44Z</time></trkpt><trkpt lat="46.06196544891747" lon="12.085155119717593"><ele>319.0</ele><time>2026-04-06T14:05:45Z</time></trkpt><trkpt lat="46.06185359034621" lon="12.085044343814348"><ele>317.75</ele><time>2026-04-06T14:05:46Z</time></trkpt><trkpt lat="46.061740343511765" lon="12.084925754904269"><ele>316.5</ele><time>2026-04-06T14:05:47Z</time></trkpt><trkpt lat="46.06162940438809" lon="12.084800326478259"><ele>315.25</ele><time>2026-04-06T14:05:48Z</time></trkpt><trkpt lat="46.06152542405742" lon="12.084667461023045"><ele>314.0</ele><time>2026-04-06T14:05:49Z</time></trkpt><trkpt lat="46.06143124075938" lon="12.084527812945288"><ele>314.0</ele><time>2026-04-06T14:05:50Z</time></trkpt><trkpt lat="46.06134079833287" lon="12.084382976530389"><ele>314.0</ele><time>2026-04-06T14:05:51Z</time></trkpt><trkpt lat="46.061253540628634" lon="12.08422756551888"><ele>314.0</ele><time>2026-04-06T14:05:52Z</time></trkpt><trkpt lat="46.06117333281588" lon="12.084062477246425"><ele>314.0</ele><time>2026-04-06T14:05:53Z</time></trkpt><trkpt lat="46.06109196210768" lon="12.083897228171738"><ele>314.33333333333337</ele><time>2026-04-06T14:05:54Z</time></trkpt><trkpt lat="46.06100864910631" lon="12.083718247278476"><ele>314.6666666666667</ele><time>2026-04-06T14:05:55Z</time></trkpt><trkpt lat="46.060937725681285" lon="12.083501313597935"><ele>315.0</ele><time>2026-04-06T14:05:56Z</time></trkpt><trkpt lat="46.06086268389187" lon="12.08324677048243"><ele>314.6666666666667</ele><time>2026-04-06T14:05:57Z</time></trkpt><trkpt lat="46.06078608821956" lon="12.08298059996523"><ele>314.33333333333337</ele><time>2026-04-06T14:05:58Z</time></trkpt><trkpt lat="46.06070950331501" lon="12.082710674126282"><ele>314.0</ele><time>2026-04-06T14:05:59Z</time></trkpt><trkpt lat="46.06062400244875" lon="12.082429266829308"><ele>313.5</ele><time>2026-04-06T14:06:00Z</time></trkpt><trkpt lat="46.0605431489327" lon="12.082117954524042"><ele>313.0</ele><time>2026-04-06T14:06:01Z</time></trkpt><trkpt lat="46.06044614531408" lon="12.081787934050395"><ele>312.0</ele><time>2026-04-06T14:06:02Z</time></trkpt><trkpt lat="46.06034044210373" lon="12.081428468128125"><ele>311.0</ele><time>2026-04-06T14:06:03Z</time></trkpt><trkpt lat="46.06022702200039" lon="12.081043571750925"><ele>310.5</ele><time>2026-04-06T14:06:04Z</time></trkpt><trkpt lat="46.06010870098065" lon="12.08064204315321"><ele>310.0</ele><time>2026-04-06T14:06:05Z</time></trkpt><trkpt lat="46.05999151393446" lon="12.080244364163832"><ele>307.5</ele><time>2026-04-06T14:06:06Z</time></trkpt><trkpt lat="46.05987768173486" lon="12.07985058601374"><ele>305.0</ele><time>2026-04-06T14:06:07Z</time></trkpt><trkpt lat="46.05975481760056" lon="12.07946487518923"><ele>305.5</ele><time>2026-04-06T14:06:08Z</time></trkpt><trkpt lat="46.05965078337793" lon="12.079083278020576"><ele>306.0</ele><time>2026-04-06T14:06:09Z</time></trkpt><trkpt lat="46.05954501611797" lon="12.078713213759446"><ele>306.0</ele><time>2026-04-06T14:06:10Z</time></trkpt><trkpt lat="46.05944109378764" lon="12.078350631580669"><ele>306.0</ele><time>2026-04-06T14:06:11Z</time></trkpt><trkpt lat="46.0593368294539" lon="12.077995854631302"><ele>306.5</ele><time>2026-04-06T14:06:12Z</time></trkpt><trkpt lat="46.059238710618324" lon="12.077648465825476"><ele>307.0</ele><time>2026-04-06T14:06:13Z</time></trkpt><trkpt lat="46.05914391122738" lon="12.077310193459708"><ele>311.0</ele><time>2026-04-06T14:06:14Z</time></trkpt><trkpt lat="46.05905008305671" lon="12.076980165992483"><ele>315.0</ele><time>2026-04-06T14:06:15Z</time></trkpt><trkpt lat="46.05895937596072" lon="12.076655507694065"><ele>313.0</ele><time>2026-04-06T14:06:16Z</time></trkpt><trkpt lat="46.05886217240125" lon="12.076342368237517"><ele>311.0</ele><time>2026-04-06T14:06:17Z</time></trkpt><trkpt lat="46.05876181373456" lon="12.076039493239362"><ele>311.0</ele><time>2026-04-06T14:06:18Z</time></trkpt><trkpt lat="46.058657624456586" lon="12.075750174260858"><ele>311.0</ele><time>2026-04-06T14:06:19Z</time></trkpt><trkpt lat="46.05853800337484" lon="12.07548080492489"><ele>311.0</ele><time>2026-04-06T14:06:20Z</time></trkpt><trkpt lat="46.0584003724337" lon="12.075239991347447"><ele>310.6666666666667</ele><time>2026-04-06T14:06:21Z</time></trkpt><trkpt lat="46.058250762665566" lon="12.075025362864915"><ele>310.3333333333333</ele><time>2026-04-06T14:06:22Z</time></trkpt><trkpt lat="46.05812138568437" lon="12.074796002056008"><ele>310.0</ele><time>2026-04-06T14:06:23Z</time></trkpt><trkpt lat="46.0579897885845" lon="12.074589392059558"><ele>308.0</ele><time>2026-04-06T14:06:24Z</time></trkpt><trkpt lat="46.05772515187579" lon="12.074583312093338"><ele>306.0</ele><time>2026-04-06T14:06:25Z</time></trkpt><trkpt lat="46.057535833272475" lon="12.074519141936344"><ele>306.3333333333333</ele><time>2026-04-06T14:06:26Z</time></trkpt><trkpt lat="46.057355589814584" lon="12.07447646236898"><ele>306.66666666666663</ele><time>2026-04-06T14:06:27Z</time></trkpt><trkpt lat="46.05717952727384" lon="12.074436346427579"><ele>307.0</ele><time>2026-04-06T14:06:28Z</time></trkpt><trkpt lat="46.05700401198479" lon="12.07439380708671"><ele>307.0</ele><time>2026-04-06T14:06:29Z</time></trkpt><trkpt lat="46.05681884026271" lon="12.074350548868816"><ele>307.0</ele><time>2026-04-06T14:06:30Z</time></trkpt><trkpt lat="46.05662599772651" lon="12.074304661901516"><ele>307.0</ele><time>2026-04-06T14:06:31Z</time></trkpt><trkpt lat="46.05642536677543" lon="12.074253740976667"><ele>307.0</ele><time>2026-04-06T14:06:32Z</time></trkpt><trkpt lat="46.056218104173084" lon="12.074193082724557"><ele>307.0</ele><time>2026-04-06T14:06:33Z</time></trkpt><trkpt lat="46.05600745287044" lon="12.074117765257082"><ele>307.0</ele><time>2026-04-06T14:06:34Z</time></trkpt><trkpt lat="46.05579543041287" lon="12.074028468455676"><ele>305.0</ele><time>2026-04-06T14:06:35Z</time></trkpt><trkpt lat="46.05558145134195" lon="12.073928788232775"><ele>303.0</ele><time>2026-04-06T14:06:36Z</time></trkpt><trkpt lat="46.05536701876848" lon="12.073818175812518"><ele>303.0</ele><time>2026-04-06T14:06:37Z</time></trkpt><trkpt lat="46.0551521202817" lon="12.073694868743"><ele>303.0</ele><time>2026-04-06T14:06:38Z</time></trkpt><trkpt lat="46.054937874965496" lon="12.073559562215515"><ele>303.5</ele><time>2026-04-06T14:06:39Z</time></trkpt><trkpt lat="46.05472640789413" lon="12.073409965020122"><ele>304.0</ele><time>2026-04-06T14:06:40Z</time></trkpt><trkpt lat="46.054517517039265" lon="12.073247612187926"><ele>304.0</ele><time>2026-04-06T14:06:41Z</time></trkpt><trkpt lat="46.05431123040376" lon="12.07307258432119"><ele>304.0</ele><time>2026-04-06T14:06:42Z</time></trkpt><trkpt lat="46.054111123779506" lon="12.072889067344827"><ele>306.5</ele><time>2026-04-06T14:06:43Z</time></trkpt><trkpt lat="46.05391392943175" lon="12.072695700025646"><ele>309.0</ele><time>2026-04-06T14:06:44Z</time></trkpt><trkpt lat="46.05372029381898" lon="12.072495795770914"><ele>306.5</ele><time>2026-04-06T14:06:45Z</time></trkpt><trkpt lat="46.0535264626284" lon="12.07229326519987"><ele>304.0</ele><time>2026-04-06T14:06:46Z</time></trkpt><trkpt lat="46.0533335032701" lon="12.072094042194701"><ele>308.5</ele><time>2026-04-06T14:06:47Z</time></trkpt><trkpt lat="46.05314466263401" lon="12.0718956847336"><ele>313.0</ele><time>2026-04-06T14:06:48Z</time></trkpt><trkpt lat="46.05295007766839" lon="12.071695680010658"><ele>309.5</ele><time>2026-04-06T14:06:49Z</time></trkpt><trkpt lat="46.052753806149965" lon="12.071491257893026"><ele>306.0</ele><time>2026-04-06T14:06:50Z</time></trkpt><trkpt lat="46.0525537971066" lon="12.071284316540451"><ele>309.0</ele><time>2026-04-06T14:06:51Z</time></trkpt><trkpt lat="46.05235590207247" lon="12.071078655482367"><ele>312.0</ele><time>2026-04-06T14:06:52Z</time></trkpt><trkpt lat="46.05215564216964" lon="12.070867139906788"><ele>310.5</ele><time>2026-04-06T14:06:53Z</time></trkpt><trkpt lat="46.05195149633962" lon="12.07065423248203"><ele>309.0</ele><time>2026-04-06T14:06:54Z</time></trkpt><trkpt lat="46.05174186322344" lon="12.070440659750362"><ele>313.0</ele><time>2026-04-06T14:06:55Z</time></trkpt><trkpt lat="46.051531158341255" lon="12.070223096898275"><ele>317.0</ele><time>2026-04-06T14:06:56Z</time></trkpt><trkpt lat="46.05131892181356" lon="12.07000001706248"><ele>315.5</ele><time>2026-04-06T14:06:57Z</time></trkpt><trkpt lat="46.05110382919675" lon="12.069775894058349"><ele>314.0</ele><time>2026-04-06T14:06:58Z</time></trkpt><trkpt lat="46.05089168724509" lon="12.069561232958746"><ele>316.0</ele><time>2026-04-06T14:06:59Z</time></trkpt><trkpt lat="46.05068310115266" lon="12.069348701261564"><ele>318.0</ele><time>2026-04-06T14:07:00Z</time></trkpt><trkpt lat="46.050476914902184" lon="12.06913757975458"><ele>312.5</ele><time>2026-04-06T14:07:01Z</time></trkpt><trkpt lat="46.050273199422435" lon="12.068926977870461"><ele>307.0</ele><time>2026-04-06T14:07:02Z</time></trkpt><trkpt lat="46.05006667318856" lon="12.068717356856862"><ele>309.5</ele><time>2026-04-06T14:07:03Z</time></trkpt><trkpt lat="46.04986422214716" lon="12.068508879662971"><ele>312.0</ele><time>2026-04-06T14:07:04Z</time></trkpt><trkpt lat="46.04966706912562" lon="12.068304586337435"><ele>308.5</ele><time>2026-04-06T14:07:05Z</time></trkpt><trkpt lat="46.04947420146605" lon="12.068101945341526"><ele>305.0</ele><time>2026-04-06T14:07:06Z</time></trkpt><trkpt lat="46.049284046733824" lon="12.067903180436435"><ele>307.0</ele><time>2026-04-06T14:07:07Z</time></trkpt><trkpt lat="46.04910117290199" lon="12.0677048307216"><ele>309.0</ele><time>2026-04-06T14:07:08Z</time></trkpt><trkpt lat="46.04892892219962" lon="12.06749870647639"><ele>310.0</ele><time>2026-04-06T14:07:09Z</time></trkpt><trkpt lat="46.04877183590967" lon="12.067279530863116"><ele>311.0</ele><time>2026-04-06T14:07:10Z</time></trkpt><trkpt lat="46.04863084801379" lon="12.067044564157237"><ele>312.0</ele><time>2026-04-06T14:07:11Z</time></trkpt><trkpt lat="46.04850271310932" lon="12.066788868742313"><ele>312.0</ele><time>2026-04-06T14:07:12Z</time></trkpt><trkpt lat="46.04838760875936" lon="12.06652401567378"><ele>312.0</ele><time>2026-04-06T14:07:13Z</time></trkpt><trkpt lat="46.0482919435137" lon="12.066252320555275"><ele>312.0</ele><time>2026-04-06T14:07:14Z</time></trkpt><trkpt lat="46.04821359677484" lon="12.065978019402275"><ele>312.6666666666667</ele><time>2026-04-06T14:07:15Z</time></trkpt><trkpt lat="46.04815072598555" lon="12.065696327117296"><ele>313.33333333333337</ele><time>2026-04-06T14:07:16Z</time></trkpt><trkpt lat="46.04809592215506" lon="12.065406117675582"><ele>314.0</ele><time>2026-04-06T14:07:17Z</time></trkpt><trkpt lat="46.04805907888762" lon="12.06511338689225"><ele>313.0</ele><time>2026-04-06T14:07:18Z</time></trkpt><trkpt lat="46.04803974404844" lon="12.064820063242728"><ele>312.0</ele><time>2026-04-06T14:07:19Z</time></trkpt><trkpt lat="46.04803409112549" lon="12.064526666977628"><ele>311.0</ele><time>2026-04-06T14:07:20Z</time></trkpt><trkpt lat="46.04803400400522" lon="12.064229032182311"><ele>311.0</ele><time>2026-04-06T14:07:21Z</time></trkpt><trkpt lat="46.04803695283329" lon="12.063931670993103"><ele>311.0</ele><time>2026-04-06T14:07:22Z</time></trkpt><trkpt lat="46.04803851056461" lon="12.063632176785461"><ele>311.0</ele><time>2026-04-06T14:07:23Z</time></trkpt><trkpt lat="46.04803849040009" lon="12.06333407263177"><ele>311.0</ele><time>2026-04-06T14:07:24Z</time></trkpt><trkpt lat="46.04803991710374" lon="12.063041948115815"><ele>311.0</ele><time>2026-04-06T14:07:25Z</time></trkpt><trkpt lat="46.04804207461878" lon="12.062760697362743"><ele>311.0</ele><time>2026-04-06T14:07:26Z</time></trkpt><trkpt lat="46.048041083374294" lon="12.062489111374163"><ele>311.6666666666667</ele><time>2026-04-06T14:07:27Z</time></trkpt><trkpt lat="46.048041059810544" lon="12.06222813429131"><ele>312.3333333333333</ele><time>2026-04-06T14:07:28Z</time></trkpt><trkpt lat="46.048041378224674" lon="12.061987026438452"><ele>313.0</ele><time>2026-04-06T14:07:29Z</time></trkpt><trkpt lat="46.048044229277565" lon="12.061773269453953"><ele>313.5</ele><time>2026-04-06T14:07:30Z</time></trkpt><trkpt lat="46.04804828768537" lon="12.06158160009029"><ele>314.0</ele><time>2026-04-06T14:07:31Z</time></trkpt><trkpt lat="46.0480516068277" lon="12.061404527257398"><ele>314.5</ele><time>2026-04-06T14:07:32Z</time></trkpt><trkpt lat="46.04805934800557" lon="12.061242908056025"><ele>315.0</ele><time>2026-04-06T14:07:33Z</time></trkpt><trkpt lat="46.04805289454833" lon="12.061078523327335"><ele>315.0</ele><time>2026-04-06T14:07:34Z</time></trkpt><trkpt lat="46.04807764059902" lon="12.060931375036896"><ele>315.0</ele><time>2026-04-06T14:07:35Z</time></trkpt><trkpt lat="46.04812595105722" lon="12.060789858363933"><ele>315.0</ele><time>2026-04-06T14:07:36Z</time></trkpt><trkpt lat="46.04812619062921" lon="12.060644102875411"><ele>315.0</ele><time>2026-04-06T14:07:37Z</time></trkpt><trkpt lat="46.04809649270621" lon="12.060475940264894"><ele>315.0</ele><time>2026-04-06T14:07:38Z</time></trkpt><trkpt lat="46.048056972626945" lon="12.060282866319184"><ele>314.6666666666667</ele><time>2026-04-06T14:07:39Z</time></trkpt><trkpt lat="46.04804538013333" lon="12.060060441387261"><ele>314.33333333333337</ele><time>2026-04-06T14:07:40Z</time></trkpt><trkpt lat="46.04805284037404" lon="12.05981192285658"><ele>314.0</ele><time>2026-04-06T14:07:41Z</time></trkpt><trkpt lat="46.048061449183564" lon="12.059556923613332"><ele>314.0</ele><time>2026-04-06T14:07:42Z</time></trkpt><trkpt lat="46.04806920981632" lon="12.059291593132741"><ele>314.0</ele><time>2026-04-06T14:07:43Z</time></trkpt><trkpt lat="46.0480757861361" lon="12.059009731428437"><ele>314.0</ele><time>2026-04-06T14:07:44Z</time></trkpt><trkpt lat="46.048079244605056" lon="12.058718241505025"><ele>313.6666666666667</ele><time>2026-04-06T14:07:45Z</time></trkpt><trkpt lat="46.048083772789234" lon="12.058416499273068"><ele>313.3333333333333</ele><time>2026-04-06T14:07:46Z</time></trkpt><trkpt lat="46.04809044044821" lon="12.058098998593312"><ele>313.0</ele><time>2026-04-06T14:07:47Z</time></trkpt><trkpt lat="46.04809179176705" lon="12.057760043636387"><ele>311.5</ele><time>2026-04-06T14:07:48Z</time></trkpt><trkpt lat="46.04808599841939" lon="12.057405597848126"><ele>310.0</ele><time>2026-04-06T14:07:49Z</time></trkpt><trkpt lat="46.04809030336206" lon="12.057067562728543"><ele>310.0</ele><time>2026-04-06T14:07:50Z</time></trkpt><trkpt lat="46.04810514981733" lon="12.056747725581843"><ele>310.0</ele><time>2026-04-06T14:07:51Z</time></trkpt><trkpt lat="46.04812329285051" lon="12.056440223170013"><ele>310.0</ele><time>2026-04-06T14:07:52Z</time></trkpt><trkpt lat="46.04814122067054" lon="12.056146800430113"><ele>310.0</ele><time>2026-04-06T14:07:53Z</time></trkpt><trkpt lat="46.048170256440486" lon="12.055867482752785"><ele>310.0</ele><time>2026-04-06T14:07:54Z</time></trkpt><trkpt lat="46.04820703187078" lon="12.055603259926079"><ele>310.0</ele><time>2026-04-06T14:07:55Z</time></trkpt><trkpt lat="46.04824764248307" lon="12.055351344382027"><ele>310.0</ele><time>2026-04-06T14:07:56Z</time></trkpt><trkpt lat="46.04829569652101" lon="12.055109699177324"><ele>310.0</ele><time>2026-04-06T14:07:57Z</time></trkpt><trkpt lat="46.04835275073459" lon="12.054870956845136"><ele>310.0</ele><time>2026-04-06T14:07:58Z</time></trkpt><trkpt lat="46.04841752774677" lon="12.054639984010246"><ele>310.0</ele><time>2026-04-06T14:07:59Z</time></trkpt><trkpt lat="46.04848605809789" lon="12.054415621025216"><ele>310.0</ele><time>2026-04-06T14:08:00Z</time></trkpt><trkpt lat="46.04854800304995" lon="12.054200666678945"><ele>310.0</ele><time>2026-04-06T14:08:01Z</time></trkpt><trkpt lat="46.048606225250104" lon="12.053991450533116"><ele>310.0</ele><time>2026-04-06T14:08:02Z</time></trkpt><trkpt lat="46.04866047362" lon="12.053788115727903"><ele>310.0</ele><time>2026-04-06T14:08:03Z</time></trkpt><trkpt lat="46.04870941801015" lon="12.053584346252745"><ele>310.0</ele><time>2026-04-06T14:08:04Z</time></trkpt><trkpt lat="46.04875467002845" lon="12.053373104596687"><ele>309.66666666666663</ele><time>2026-04-06T14:08:05Z</time></trkpt><trkpt lat="46.048793546221816" lon="12.053150582585303"><ele>309.3333333333333</ele><time>2026-04-06T14:08:06Z</time></trkpt><trkpt lat="46.04882282480789" lon="12.05291782897304"><ele>309.0</ele><time>2026-04-06T14:08:07Z</time></trkpt><trkpt lat="46.0488491745449" lon="12.05267425255295"><ele>308.0</ele><time>2026-04-06T14:08:08Z</time></trkpt><trkpt lat="46.04886729806391" lon="12.05241536387535"><ele>307.0</ele><time>2026-04-06T14:08:09Z</time></trkpt><trkpt lat="46.04888284413954" lon="12.052143776617676"><ele>306.0</ele><time>2026-04-06T14:08:10Z</time></trkpt><trkpt lat="46.048899254156474" lon="12.051865573380704"><ele>306.3333333333333</ele><time>2026-04-06T14:08:11Z</time></trkpt><trkpt lat="46.048915586497664" lon="12.051589557263929"><ele>306.66666666666663</ele><time>2026-04-06T14:08:12Z</time></trkpt><trkpt lat="46.048932304992825" lon="12.051321776000629"><ele>307.0</ele><time>2026-04-06T14:08:13Z</time></trkpt><trkpt lat="46.04895163498524" lon="12.05106055213094"><ele>307.0</ele><time>2026-04-06T14:08:14Z</time></trkpt><trkpt lat="46.04897516903424" lon="12.05080360759656"><ele>307.0</ele><time>2026-04-06T14:08:15Z</time></trkpt><trkpt lat="46.04899307934158" lon="12.050543224556572"><ele>307.0</ele><time>2026-04-06T14:08:16Z</time></trkpt><trkpt lat="46.049009931537" lon="12.05027313188628"><ele>306.3333333333333</ele><time>2026-04-06T14:08:17Z</time></trkpt><trkpt lat="46.04903295410698" lon="12.049989474426829"><ele>305.6666666666667</ele><time>2026-04-06T14:08:18Z</time></trkpt><trkpt lat="46.04907108517773" lon="12.049686860268993"><ele>305.0</ele><time>2026-04-06T14:08:19Z</time></trkpt><trkpt lat="46.049126170840445" lon="12.049371042073421"><ele>301.0</ele><time>2026-04-06T14:08:20Z</time></trkpt><trkpt lat="46.04918657473677" lon="12.049046017425276"><ele>297.0</ele><time>2026-04-06T14:08:21Z</time></trkpt><trkpt lat="46.04925606938419" lon="12.048709329790547"><ele>297.0</ele><time>2026-04-06T14:08:22Z</time></trkpt><trkpt lat="46.049332281608564" lon="12.048367087296182"><ele>297.0</ele><time>2026-04-06T14:08:23Z</time></trkpt><trkpt lat="46.04940773714391" lon="12.048022263649846"><ele>295.5</ele><time>2026-04-06T14:08:24Z</time></trkpt><trkpt lat="46.04947891569745" lon="12.047676918488575"><ele>294.0</ele><time>2026-04-06T14:08:25Z</time></trkpt><trkpt lat="46.049545737970725" lon="12.047330819896443"><ele>293.5</ele><time>2026-04-06T14:08:26Z</time></trkpt><trkpt lat="46.04960287433714" lon="12.046980442027557"><ele>293.0</ele><time>2026-04-06T14:08:27Z</time></trkpt><trkpt lat="46.049645796913104" lon="12.046616085354326"><ele>292.0</ele><time>2026-04-06T14:08:28Z</time></trkpt><trkpt lat="46.049671001573024" lon="12.046236151118276"><ele>291.0</ele><time>2026-04-06T14:08:29Z</time></trkpt><trkpt lat="46.04968109508136" lon="12.04584080752189"><ele>290.0</ele><time>2026-04-06T14:08:30Z</time></trkpt><trkpt lat="46.04967482600986" lon="12.045453338759119"><ele>289.0</ele><time>2026-04-06T14:08:31Z</time></trkpt><trkpt lat="46.04966616415965" lon="12.04501725866811"><ele>288.0</ele><time>2026-04-06T14:08:32Z</time></trkpt><trkpt lat="46.049649281800846" lon="12.044601637841838"><ele>287.0</ele><time>2026-04-06T14:08:33Z</time></trkpt><trkpt lat="46.04963648201383" lon="12.044197860459315"><ele>285.0</ele><time>2026-04-06T14:08:34Z</time></trkpt><trkpt lat="46.049623353430334" lon="12.043803917525342"><ele>283.0</ele><time>2026-04-06T14:08:35Z</time></trkpt><trkpt lat="46.04959766817879" lon="12.043419871267862"><ele>283.0</ele><time>2026-04-06T14:08:36Z</time></trkpt><trkpt lat="46.04955938334809" lon="12.043048480540687"><ele>283.0</ele><time>2026-04-06T14:08:37Z</time></trkpt><trkpt lat="46.049506341599105" lon="12.042697363305692"><ele>284.0</ele><time>2026-04-06T14:08:38Z</time></trkpt><trkpt lat="46.04943800735783" lon="12.04236771428039"><ele>285.0</ele><time>2026-04-06T14:08:39Z</time></trkpt><trkpt lat="46.04936241694268" lon="12.04205295879016"><ele>285.0</ele><time>2026-04-06T14:08:40Z</time></trkpt><trkpt lat="46.04928880813818" lon="12.041753969505233"><ele>285.0</ele><time>2026-04-06T14:08:41Z</time></trkpt><trkpt lat="46.04922162822274" lon="12.041463679473814"><ele>285.0</ele><time>2026-04-06T14:08:42Z</time></trkpt><trkpt lat="46.0491559029012" lon="12.041185571402213"><ele>283.6666666666667</ele><time>2026-04-06T14:08:43Z</time></trkpt><trkpt lat="46.04909161851156" lon="12.040926267536019"><ele>282.33333333333337</ele><time>2026-04-06T14:08:44Z</time></trkpt><trkpt lat="46.049032660419826" lon="12.040687661985421"><ele>281.0</ele><time>2026-04-06T14:08:45Z</time></trkpt><trkpt lat="46.0489819414698" lon="12.040461723779268"><ele>281.0</ele><time>2026-04-06T14:08:46Z</time></trkpt><trkpt lat="46.04894968053934" lon="12.040233730550526"><ele>281.0</ele><time>2026-04-06T14:08:47Z</time></trkpt><trkpt lat="46.04893687385137" lon="12.040008599424636"><ele>281.0</ele><time>2026-04-06T14:08:48Z</time></trkpt><trkpt lat="46.04894189725349" lon="12.039790372308056"><ele>281.0</ele><time>2026-04-06T14:08:49Z</time></trkpt><trkpt lat="46.048952777973845" lon="12.039571788886029"><ele>281.0</ele><time>2026-04-06T14:08:50Z</time></trkpt><trkpt lat="46.048937820295535" lon="12.039333716593568"><ele>281.0</ele><time>2026-04-06T14:08:51Z</time></trkpt><trkpt lat="46.04892315917811" lon="12.039071070652717"><ele>281.0</ele><time>2026-04-06T14:08:52Z</time></trkpt><trkpt lat="46.04892610173781" lon="12.038781502528877"><ele>281.0</ele><time>2026-04-06T14:08:53Z</time></trkpt><trkpt lat="46.0489340787415" lon="12.038465801349439"><ele>281.0</ele><time>2026-04-06T14:08:54Z</time></trkpt><trkpt lat="46.04894418904832" lon="12.038126080140454"><ele>282.5</ele><time>2026-04-06T14:08:55Z</time></trkpt><trkpt lat="46.048960965523115" lon="12.037768094910417"><ele>284.0</ele><time>2026-04-06T14:08:56Z</time></trkpt><trkpt lat="46.04897279685679" lon="12.037382537032274"><ele>284.5</ele><time>2026-04-06T14:08:57Z</time></trkpt><trkpt lat="46.04898739176757" lon="12.036977556290585"><ele>285.0</ele><time>2026-04-06T14:08:58Z</time></trkpt><trkpt lat="46.049002908549255" lon="12.03655322997677"><ele>285.0</ele><time>2026-04-06T14:08:59Z</time></trkpt><trkpt lat="46.04901898003677" lon="12.036112932412058"><ele>285.0</ele><time>2026-04-06T14:09:00Z</time></trkpt><trkpt lat="46.04903464562319" lon="12.035654382260423"><ele>281.0</ele><time>2026-04-06T14:09:01Z</time></trkpt><trkpt lat="46.04904951010309" lon="12.035196093181929"><ele>277.0</ele><time>2026-04-06T14:09:02Z</time></trkpt><trkpt lat="46.04906432523299" lon="12.034734046725823"><ele>274.5</ele><time>2026-04-06T14:09:03Z</time></trkpt><trkpt lat="46.04907902314593" lon="12.034272725386788"><ele>272.0</ele><time>2026-04-06T14:09:04Z</time></trkpt><trkpt lat="46.04909362231691" lon="12.03381549784953"><ele>272.0</ele><time>2026-04-06T14:09:05Z</time></trkpt><trkpt lat="46.04910937316564" lon="12.033361690768787"><ele>272.0</ele><time>2026-04-06T14:09:06Z</time></trkpt><trkpt lat="46.049125135050204" lon="12.032908532978414"><ele>266.0</ele><time>2026-04-06T14:09:07Z</time></trkpt><trkpt lat="46.04914003912907" lon="12.032457692295647"><ele>260.0</ele><time>2026-04-06T14:09:08Z</time></trkpt><trkpt lat="46.049153640372474" lon="12.032008991573202"><ele>259.0</ele><time>2026-04-06T14:09:09Z</time></trkpt><trkpt lat="46.04916867127829" lon="12.031561165687883"><ele>258.0</ele><time>2026-04-06T14:09:10Z</time></trkpt><trkpt lat="46.049185316580406" lon="12.031112636976228"><ele>258.5</ele><time>2026-04-06T14:09:11Z</time></trkpt><trkpt lat="46.049204473142694" lon="12.030662037229858"><ele>259.0</ele><time>2026-04-06T14:09:12Z</time></trkpt><trkpt lat="46.04922269518226" lon="12.03020921064493"><ele>259.0</ele><time>2026-04-06T14:09:13Z</time></trkpt><trkpt lat="46.04923586805255" lon="12.029750833824844"><ele>259.0</ele><time>2026-04-06T14:09:14Z</time></trkpt><trkpt lat="46.04925132469199" lon="12.029285476500245"><ele>258.5</ele><time>2026-04-06T14:09:15Z</time></trkpt><trkpt lat="46.04926815846126" lon="12.028821479040102"><ele>258.0</ele><time>2026-04-06T14:09:16Z</time></trkpt><trkpt lat="46.04928351958286" lon="12.028366878185349"><ele>257.5</ele><time>2026-04-06T14:09:17Z</time></trkpt><trkpt lat="46.04929939643326" lon="12.027923238452352"><ele>257.0</ele><time>2026-04-06T14:09:18Z</time></trkpt><trkpt lat="46.04931332212502" lon="12.027490511707462"><ele>255.5</ele><time>2026-04-06T14:09:19Z</time></trkpt><trkpt lat="46.04932910935148" lon="12.02706765714317"><ele>254.0</ele><time>2026-04-06T14:09:20Z</time></trkpt><trkpt lat="46.049346224949375" lon="12.026651780514971"><ele>254.5</ele><time>2026-04-06T14:09:21Z</time></trkpt><trkpt lat="46.049361714993374" lon="12.026235678952121"><ele>255.0</ele><time>2026-04-06T14:09:22Z</time></trkpt><trkpt lat="46.04937640131056" lon="12.025814403002792"><ele>255.5</ele><time>2026-04-06T14:09:23Z</time></trkpt><trkpt lat="46.049393104921535" lon="12.025394649107387"><ele>256.0</ele><time>2026-04-06T14:09:24Z</time></trkpt><trkpt lat="46.04940876385903" lon="12.024975969621014"><ele>256.0</ele><time>2026-04-06T14:09:25Z</time></trkpt><trkpt lat="46.049421046357" lon="12.024561641737597"><ele>256.0</ele><time>2026-04-06T14:09:26Z</time></trkpt><trkpt lat="46.04943609943963" lon="12.024144514282721"><ele>256.0</ele><time>2026-04-06T14:09:27Z</time></trkpt><trkpt lat="46.04945163158442" lon="12.023723108457075"><ele>256.0</ele><time>2026-04-06T14:09:28Z</time></trkpt><trkpt lat="46.04946702612165" lon="12.023295534517457"><ele>256.0</ele><time>2026-04-06T14:09:29Z</time></trkpt><trkpt lat="46.049482800392" lon="12.022865746674857"><ele>256.0</ele><time>2026-04-06T14:09:30Z</time></trkpt><trkpt lat="46.049499365893865" lon="12.022444066010353"><ele>255.5</ele><time>2026-04-06T14:09:31Z</time></trkpt><trkpt lat="46.049515369572184" lon="12.0220307733245"><ele>255.0</ele><time>2026-04-06T14:09:32Z</time></trkpt><trkpt lat="46.04953062475306" lon="12.021622208561167"><ele>253.5</ele><time>2026-04-06T14:09:33Z</time></trkpt><trkpt lat="46.04954202215884" lon="12.021219880474854"><ele>252.0</ele><time>2026-04-06T14:09:34Z</time></trkpt><trkpt lat="46.04954171800635" lon="12.020821206163644"><ele>251.5</ele><time>2026-04-06T14:09:35Z</time></trkpt><trkpt lat="46.04953099884718" lon="12.020428463808953"><ele>251.0</ele><time>2026-04-06T14:09:36Z</time></trkpt><trkpt lat="46.049506140380025" lon="12.020033847498077"><ele>249.0</ele><time>2026-04-06T14:09:37Z</time></trkpt><trkpt lat="46.04946470813666" lon="12.019631817155801"><ele>247.0</ele><time>2026-04-06T14:09:38Z</time></trkpt><trkpt lat="46.04941120058753" lon="12.019233563052275"><ele>247.5</ele><time>2026-04-06T14:09:39Z</time></trkpt><trkpt lat="46.04934398275825" lon="12.018832905060213"><ele>248.0</ele><time>2026-04-06T14:09:40Z</time></trkpt><trkpt lat="46.049262657809976" lon="12.018438521213083"><ele>248.5</ele><time>2026-04-06T14:09:41Z</time></trkpt><trkpt lat="46.049163077949096" lon="12.01805226416299"><ele>249.0</ele><time>2026-04-06T14:09:42Z</time></trkpt><trkpt lat="46.0490498271629" lon="12.017671031846467"><ele>248.5</ele><time>2026-04-06T14:09:43Z</time></trkpt><trkpt lat="46.0489221793478" lon="12.017297294567886"><ele>248.0</ele><time>2026-04-06T14:09:44Z</time></trkpt><trkpt lat="46.04878137992518" lon="12.016925786058996"><ele>245.5</ele><time>2026-04-06T14:09:45Z</time></trkpt><trkpt lat="46.04863412842371" lon="12.01655227928346"><ele>243.0</ele><time>2026-04-06T14:09:46Z</time></trkpt><trkpt lat="46.04847842288853" lon="12.016172561060573"><ele>244.0</ele><time>2026-04-06T14:09:47Z</time></trkpt><trkpt lat="46.04831776882712" lon="12.015782329453527"><ele>245.0</ele><time>2026-04-06T14:09:48Z</time></trkpt><trkpt lat="46.048154624849474" lon="12.015383137784834"><ele>245.5</ele><time>2026-04-06T14:09:49Z</time></trkpt><trkpt lat="46.0479890134435" lon="12.014978891589415"><ele>246.0</ele><time>2026-04-06T14:09:50Z</time></trkpt><trkpt lat="46.04782180986104" lon="12.01457316032355"><ele>246.0</ele><time>2026-04-06T14:09:51Z</time></trkpt><trkpt lat="46.0476559058068" lon="12.014172234656892"><ele>246.0</ele><time>2026-04-06T14:09:52Z</time></trkpt><trkpt lat="46.04749197770481" lon="12.01378092996617"><ele>247.0</ele><time>2026-04-06T14:09:53Z</time></trkpt><trkpt lat="46.04733178469234" lon="12.013395176955727"><ele>248.0</ele><time>2026-04-06T14:09:54Z</time></trkpt><trkpt lat="46.04717440660467" lon="12.013013181087072"><ele>246.0</ele><time>2026-04-06T14:09:55Z</time></trkpt><trkpt lat="46.047020076026875" lon="12.012636628580822"><ele>244.0</ele><time>2026-04-06T14:09:56Z</time></trkpt><trkpt lat="46.04686848591095" lon="12.012269975045289"><ele>243.5</ele><time>2026-04-06T14:09:57Z</time></trkpt><trkpt lat="46.04671934081374" lon="12.011911841106082"><ele>243.0</ele><time>2026-04-06T14:09:58Z</time></trkpt><trkpt lat="46.046573629335896" lon="12.011562218925725"><ele>243.0</ele><time>2026-04-06T14:09:59Z</time></trkpt><trkpt lat="46.04643341554462" lon="12.011230328579046"><ele>243.0</ele><time>2026-04-06T14:10:00Z</time></trkpt><trkpt lat="46.046301288530536" lon="12.010932933118172"><ele>242.33333333333331</ele><time>2026-04-06T14:10:01Z</time></trkpt><trkpt lat="46.04617509395313" lon="12.010674978229629"><ele>241.66666666666666</ele><time>2026-04-06T14:10:02Z</time></trkpt><trkpt lat="46.04603852009164" lon="12.01043976147166"><ele>241.0</ele><time>2026-04-06T14:10:03Z</time></trkpt><trkpt lat="46.04588285477678" lon="12.010238190743685"><ele>241.33333333333331</ele><time>2026-04-06T14:10:04Z</time></trkpt><trkpt lat="46.04571166307572" lon="12.010056206918577"><ele>241.66666666666669</ele><time>2026-04-06T14:10:05Z</time></trkpt><trkpt lat="46.04552328309259" lon="12.009905065125167"><ele>242.0</ele><time>2026-04-06T14:10:06Z</time></trkpt><trkpt lat="46.045319248549696" lon="12.00978487244263"><ele>242.0</ele><time>2026-04-06T14:10:07Z</time></trkpt><trkpt lat="46.04510712673406" lon="12.009691570178724"><ele>242.0</ele><time>2026-04-06T14:10:08Z</time></trkpt><trkpt lat="46.04488636107376" lon="12.009647484119572"><ele>242.0</ele><time>2026-04-06T14:10:09Z</time></trkpt><trkpt lat="46.04466233307465" lon="12.009638307642112"><ele>242.0</ele><time>2026-04-06T14:10:10Z</time></trkpt><trkpt lat="46.044440256986675" lon="12.00966800260908"><ele>242.0</ele><time>2026-04-06T14:10:11Z</time></trkpt><trkpt lat="46.04422309707196" lon="12.009737768351924"><ele>242.0</ele><time>2026-04-06T14:10:12Z</time></trkpt><trkpt lat="46.04401297791686" lon="12.00984462882106"><ele>242.33333333333334</ele><time>2026-04-06T14:10:13Z</time></trkpt><trkpt lat="46.0438210042954" lon="12.009984755628109"><ele>242.66666666666669</ele><time>2026-04-06T14:10:14Z</time></trkpt><trkpt lat="46.043649552723" lon="12.01013662914996"><ele>243.0</ele><time>2026-04-06T14:10:15Z</time></trkpt><trkpt lat="46.04348413754851" lon="12.010268148270454"><ele>243.75</ele><time>2026-04-06T14:10:16Z</time></trkpt><trkpt lat="46.04334285915467" lon="12.010396430094955"><ele>244.5</ele><time>2026-04-06T14:10:17Z</time></trkpt><trkpt lat="46.0432267893558" lon="12.010505744155342"><ele>245.25</ele><time>2026-04-06T14:10:18Z</time></trkpt><trkpt lat="46.043145763930994" lon="12.010610519348742"><ele>246.0</ele><time>2026-04-06T14:10:19Z</time></trkpt><trkpt lat="46.043073526165685" lon="12.010677143746536"><ele>246.60000000000002</ele><time>2026-04-06T14:10:20Z</time></trkpt><trkpt lat="46.04299587117117" lon="12.010726874707851"><ele>247.20000000000002</ele><time>2026-04-06T14:10:21Z</time></trkpt><trkpt lat="46.04291683421307" lon="12.010729153861222"><ele>247.79999999999998</ele><time>2026-04-06T14:10:22Z</time></trkpt><trkpt lat="46.04284513447581" lon="12.01065486092373"><ele>248.39999999999998</ele><time>2026-04-06T14:10:23Z</time></trkpt><trkpt lat="46.04277758011386" lon="12.010545615681325"><ele>249.0</ele><time>2026-04-06T14:10:24Z</time></trkpt><trkpt lat="46.04272319921182" lon="12.010387920956514"><ele>249.0</ele><time>2026-04-06T14:10:25Z</time></trkpt><trkpt lat="46.0426642079108" lon="12.010199931826227"><ele>249.0</ele><time>2026-04-06T14:10:26Z</time></trkpt><trkpt lat="46.04258442255057" lon="12.009988998812691"><ele>249.0</ele><time>2026-04-06T14:10:27Z</time></trkpt><trkpt lat="46.04248810485292" lon="12.009748269042264"><ele>249.5</ele><time>2026-04-06T14:10:28Z</time></trkpt><trkpt lat="46.04237413350185" lon="12.009477850539307"><ele>250.0</ele><time>2026-04-06T14:10:29Z</time></trkpt><trkpt lat="46.04224558962214" lon="12.009178166418623"><ele>249.5</ele><time>2026-04-06T14:10:30Z</time></trkpt><trkpt lat="46.04211134872913" lon="12.008865225606652"><ele>249.0</ele><time>2026-04-06T14:10:31Z</time></trkpt><trkpt lat="46.04197359422466" lon="12.008550209158273"><ele>248.5</ele><time>2026-04-06T14:10:32Z</time></trkpt><trkpt lat="46.041824180925204" lon="12.008202617102981"><ele>248.0</ele><time>2026-04-06T14:10:33Z</time></trkpt><trkpt lat="46.041665167264334" lon="12.007830255712221"><ele>247.5</ele><time>2026-04-06T14:10:34Z</time></trkpt><trkpt lat="46.041505678515556" lon="12.007458393253838"><ele>247.0</ele><time>2026-04-06T14:10:35Z</time></trkpt><trkpt lat="46.041351032966475" lon="12.007103648288052"><ele>247.0</ele><time>2026-04-06T14:10:36Z</time></trkpt><trkpt lat="46.04120087840159" lon="12.006764622495512"><ele>247.0</ele><time>2026-04-06T14:10:37Z</time></trkpt><trkpt lat="46.04106589181626" lon="12.00646140961406"><ele>246.66666666666666</ele><time>2026-04-06T14:10:38Z</time></trkpt><trkpt lat="46.04094283706982" lon="12.00618196925748"><ele>246.33333333333331</ele><time>2026-04-06T14:10:39Z</time></trkpt><trkpt lat="46.04082970239532" lon="12.005911988430467"><ele>246.0</ele><time>2026-04-06T14:10:40Z</time></trkpt><trkpt lat="46.040719193120985" lon="12.00565100626462"><ele>246.0</ele><time>2026-04-06T14:10:41Z</time></trkpt><trkpt lat="46.040610374428354" lon="12.005396310434529"><ele>246.0</ele><time>2026-04-06T14:10:42Z</time></trkpt><trkpt lat="46.04049936395261" lon="12.005142169810387"><ele>246.0</ele><time>2026-04-06T14:10:43Z</time></trkpt><trkpt lat="46.04038740206503" lon="12.004886205546919"><ele>245.66666666666669</ele><time>2026-04-06T14:10:44Z</time></trkpt><trkpt lat="46.04027391432123" lon="12.004628308837226"><ele>245.33333333333334</ele><time>2026-04-06T14:10:45Z</time></trkpt><trkpt lat="46.04016143578065" lon="12.00437107595565"><ele>245.0</ele><time>2026-04-06T14:10:46Z</time></trkpt><trkpt lat="46.040049383750784" lon="12.004116214584656"><ele>244.33333333333334</ele><time>2026-04-06T14:10:47Z</time></trkpt><trkpt lat="46.039937502240946" lon="12.003863549485084"><ele>243.66666666666669</ele><time>2026-04-06T14:10:48Z</time></trkpt><trkpt lat="46.03982195335696" lon="12.003618086415772"><ele>243.0</ele><time>2026-04-06T14:10:49Z</time></trkpt><trkpt lat="46.03970544863076" lon="12.003398323334135"><ele>243.0</ele><time>2026-04-06T14:10:50Z</time></trkpt><trkpt lat="46.03958898228014" lon="12.003191668766416"><ele>243.0</ele><time>2026-04-06T14:10:51Z</time></trkpt><trkpt lat="46.03947459751562" lon="12.002997130860239"><ele>243.0</ele><time>2026-04-06T14:10:52Z</time></trkpt><trkpt lat="46.039363775256206" lon="12.002811368768379"><ele>243.0</ele><time>2026-04-06T14:10:53Z</time></trkpt><trkpt lat="46.03925546531708" lon="12.002636841095523"><ele>243.0</ele><time>2026-04-06T14:10:54Z</time></trkpt><trkpt lat="46.03915298154259" lon="12.002467509235853"><ele>243.0</ele><time>2026-04-06T14:10:55Z</time></trkpt><trkpt lat="46.0390666839727" lon="12.002324083270478"><ele>243.0</ele><time>2026-04-06T14:10:56Z</time></trkpt><trkpt lat="46.039000096317984" lon="12.002214106683494"><ele>243.0</ele><time>2026-04-06T14:10:57Z</time></trkpt><trkpt lat="46.03895396652937" lon="12.002134700284339"><ele>243.0</ele><time>2026-04-06T14:10:58Z</time></trkpt><trkpt lat="46.03889756579656" lon="12.00205138221019"><ele>243.0</ele><time>2026-04-06T14:11:00Z</time></trkpt><trkpt lat="46.03883576328406" lon="12.00195598900131"><ele>243.0</ele><time>2026-04-06T14:11:03Z</time></trkpt><trkpt lat="46.038755437921864" lon="12.0018482997351"><ele>243.0</ele><time>2026-04-06T14:11:05Z</time></trkpt><trkpt lat="46.038710529800426" lon="12.001748776350134"><ele>243.0</ele><time>2026-04-06T14:11:06Z</time></trkpt><trkpt lat="46.03864923536905" lon="12.001641061851961"><ele>243.0</ele><time>2026-04-06T14:11:07Z</time></trkpt><trkpt lat="46.03859163641696" lon="12.001536217976428"><ele>243.0</ele><time>2026-04-06T14:11:08Z</time></trkpt><trkpt lat="46.038501538415495" lon="12.001466475847518"><ele>243.0</ele><time>2026-04-06T14:11:09Z</time></trkpt><trkpt lat="46.03843142003111" lon="12.001354273542315"><ele>243.25</ele><time>2026-04-06T14:11:10Z</time></trkpt><trkpt lat="46.03835262915514" lon="12.001227834105785"><ele>243.5</ele><time>2026-04-06T14:11:11Z</time></trkpt><trkpt lat="46.03826569721173" lon="12.001086446486989"><ele>243.75</ele><time>2026-04-06T14:11:12Z</time></trkpt><trkpt lat="46.0381701146358" lon="12.000929722797945"><ele>244.0</ele><time>2026-04-06T14:11:13Z</time></trkpt><trkpt lat="46.03807220094473" lon="12.000767550605778"><ele>243.0</ele><time>2026-04-06T14:11:14Z</time></trkpt><trkpt lat="46.037969737968886" lon="12.000601496150818"><ele>242.0</ele><time>2026-04-06T14:11:15Z</time></trkpt><trkpt lat="46.037868055301615" lon="12.000434166876536"><ele>241.0</ele><time>2026-04-06T14:11:16Z</time></trkpt><trkpt lat="46.037764936803875" lon="12.000266406920689"><ele>241.0</ele><time>2026-04-06T14:11:17Z</time></trkpt><trkpt lat="46.03766004026265" lon="12.000096081742287"><ele>241.0</ele><time>2026-04-06T14:11:18Z</time></trkpt><trkpt lat="46.037557004767834" lon="11.999922124638523"><ele>241.0</ele><time>2026-04-06T14:11:19Z</time></trkpt><trkpt lat="46.03745166467477" lon="11.999744312273673"><ele>240.66666666666666</ele><time>2026-04-06T14:11:20Z</time></trkpt><trkpt lat="46.03734484737468" lon="11.999567133255928"><ele>240.33333333333331</ele><time>2026-04-06T14:11:21Z</time></trkpt><trkpt lat="46.037241223009346" lon="11.999392853212566"><ele>240.0</ele><time>2026-04-06T14:11:22Z</time></trkpt><trkpt lat="46.037137551005245" lon="11.999221592749231"><ele>240.33333333333331</ele><time>2026-04-06T14:11:23Z</time></trkpt><trkpt lat="46.037032941736534" lon="11.99904901998535"><ele>240.66666666666666</ele><time>2026-04-06T14:11:24Z</time></trkpt><trkpt lat="46.03692260188498" lon="11.998882869652025"><ele>241.0</ele><time>2026-04-06T14:11:25Z</time></trkpt><trkpt lat="46.03680187425726" lon="11.998726096784013"><ele>241.0</ele><time>2026-04-06T14:11:26Z</time></trkpt><trkpt lat="46.03667130899415" lon="11.998576849228478"><ele>241.0</ele><time>2026-04-06T14:11:27Z</time></trkpt><trkpt lat="46.03653409671891" lon="11.998432880505238"><ele>241.0</ele><time>2026-04-06T14:11:28Z</time></trkpt><trkpt lat="46.03638970373653" lon="11.998296808357816"><ele>240.33333333333331</ele><time>2026-04-06T14:11:29Z</time></trkpt><trkpt lat="46.03624751955909" lon="11.998169092140254"><ele>239.66666666666669</ele><time>2026-04-06T14:11:30Z</time></trkpt><trkpt lat="46.0361071302636" lon="11.998056977212322"><ele>239.0</ele><time>2026-04-06T14:11:31Z</time></trkpt><trkpt lat="46.03598146633096" lon="11.997964072547088"><ele>239.00000000000003</ele><time>2026-04-06T14:11:32Z</time></trkpt><trkpt lat="46.03587114171096" lon="11.99789023013116"><ele>239.0</ele><time>2026-04-06T14:11:33Z</time></trkpt><trkpt lat="46.03578194491603" lon="11.9978386246356"><ele>239.0</ele><time>2026-04-06T14:11:34Z</time></trkpt><trkpt lat="46.03570920576182" lon="11.997800469215994"><ele>239.0</ele><time>2026-04-06T14:11:35Z</time></trkpt><trkpt lat="46.03564749913078" lon="11.997763323799449"><ele>239.00000000000003</ele><time>2026-04-06T14:11:36Z</time></trkpt><trkpt lat="46.0355926177706" lon="11.997705702440376"><ele>239.0</ele><time>2026-04-06T14:11:37Z</time></trkpt><trkpt lat="46.03554381643856" lon="11.997619397570524"><ele>239.0</ele><time>2026-04-06T14:11:38Z</time></trkpt><trkpt lat="46.035502658990055" lon="11.99750949701844"><ele>238.99999999999997</ele><time>2026-04-06T14:11:39Z</time></trkpt><trkpt lat="46.035440736656554" lon="11.997467277893012"><ele>238.99999999999997</ele><time>2026-04-06T14:11:40Z</time></trkpt><trkpt lat="46.03536029728638" lon="11.997435834781982"><ele>239.0</ele><time>2026-04-06T14:11:41Z</time></trkpt><trkpt lat="46.035256728064354" lon="11.997493238627367"><ele>239.0</ele><time>2026-04-06T14:11:42Z</time></trkpt><trkpt lat="46.03513524203511" lon="11.99753463642232"><ele>239.0</ele><time>2026-04-06T14:11:43Z</time></trkpt><trkpt lat="46.03499085584641" lon="11.997547021047689"><ele>239.0</ele><time>2026-04-06T14:11:44Z</time></trkpt><trkpt lat="46.03482744049813" lon="11.997539062094603"><ele>239.0</ele><time>2026-04-06T14:11:45Z</time></trkpt><trkpt lat="46.03464187235487" lon="11.997534603314824"><ele>239.0</ele><time>2026-04-06T14:11:46Z</time></trkpt><trkpt lat="46.03443543778197" lon="11.997539906557476"><ele>239.0</ele><time>2026-04-06T14:11:47Z</time></trkpt><trkpt lat="46.03421167237238" lon="11.997547667102651"><ele>239.0</ele><time>2026-04-06T14:11:48Z</time></trkpt><trkpt lat="46.03399422989491" lon="11.99755550955696"><ele>239.0</ele><time>2026-04-06T14:11:49Z</time></trkpt><trkpt lat="46.03376748981042" lon="11.997563426491434"><ele>239.0</ele><time>2026-04-06T14:11:50Z</time></trkpt><trkpt lat="46.033542185264224" lon="11.997570540557861"><ele>239.0</ele><time>2026-04-06T14:11:51Z</time></trkpt><trkpt lat="46.03331776148475" lon="11.997580130493146"><ele>239.0</ele><time>2026-04-06T14:11:52Z</time></trkpt><trkpt lat="46.033094871805474" lon="11.99759340490129"><ele>239.0</ele><time>2026-04-06T14:11:53Z</time></trkpt><trkpt lat="46.032876076336294" lon="11.997607246576399"><ele>238.66666666666669</ele><time>2026-04-06T14:11:54Z</time></trkpt><trkpt lat="46.03266019013261" lon="11.997616863850967"><ele>238.33333333333331</ele><time>2026-04-06T14:11:55Z</time></trkpt><trkpt lat="46.032445558500314" lon="11.99762279609538"><ele>238.0</ele><time>2026-04-06T14:11:56Z</time></trkpt><trkpt lat="46.032229196570924" lon="11.997629124496413"><ele>238.0</ele><time>2026-04-06T14:11:57Z</time></trkpt><trkpt lat="46.03201234753646" lon="11.99763627518636"><ele>238.0</ele><time>2026-04-06T14:11:58Z</time></trkpt><trkpt lat="46.03179878694359" lon="11.997645226247311"><ele>238.0</ele><time>2026-04-06T14:11:59Z</time></trkpt><trkpt lat="46.031586082963734" lon="11.997658610062295"><ele>238.0</ele><time>2026-04-06T14:12:00Z</time></trkpt><trkpt lat="46.031369534050036" lon="11.99766998770185"><ele>238.0</ele><time>2026-04-06T14:12:01Z</time></trkpt><trkpt lat="46.03114347696397" lon="11.997679080329188"><ele>238.0</ele><time>2026-04-06T14:12:02Z</time></trkpt><trkpt lat="46.030914204040066" lon="11.997688377933098"><ele>237.0</ele><time>2026-04-06T14:12:03Z</time></trkpt><trkpt lat="46.03068354220569" lon="11.99766105152683"><ele>236.0</ele><time>2026-04-06T14:12:04Z</time></trkpt><trkpt lat="46.030448838767555" lon="11.997667969726505"><ele>236.0</ele><time>2026-04-06T14:12:05Z</time></trkpt><trkpt lat="46.03020676987559" lon="11.997675105031883"><ele>236.0</ele><time>2026-04-06T14:12:06Z</time></trkpt><trkpt lat="46.02996700838128" lon="11.997682062058043"><ele>237.0</ele><time>2026-04-06T14:12:07Z</time></trkpt><trkpt lat="46.029733303422816" lon="11.997688665626766"><ele>238.0</ele><time>2026-04-06T14:12:08Z</time></trkpt><trkpt lat="46.029504631445995" lon="11.997695126983755"><ele>238.0</ele><time>2026-04-06T14:12:09Z</time></trkpt><trkpt lat="46.02928002978495" lon="11.997701356427529"><ele>238.0</ele><time>2026-04-06T14:12:10Z</time></trkpt><trkpt lat="46.02906120560666" lon="11.997704732361788"><ele>238.0</ele><time>2026-04-06T14:12:11Z</time></trkpt><trkpt lat="46.02885443583868" lon="11.997703089217865"><ele>239.0</ele><time>2026-04-06T14:12:12Z</time></trkpt><trkpt lat="46.028659352059286" lon="11.997696035753592"><ele>240.0</ele><time>2026-04-06T14:12:13Z</time></trkpt><trkpt lat="46.02846345462742" lon="11.997679631450005"><ele>241.0</ele><time>2026-04-06T14:12:14Z</time></trkpt><trkpt lat="46.02826716024147" lon="11.997646419490733"><ele>241.0</ele><time>2026-04-06T14:12:15Z</time></trkpt><trkpt lat="46.02807290358139" lon="11.997589539266896"><ele>241.0</ele><time>2026-04-06T14:12:16Z</time></trkpt><trkpt lat="46.02788358210619" lon="11.997517651310496"><ele>241.0</ele><time>2026-04-06T14:12:17Z</time></trkpt><trkpt lat="46.0276969013484" lon="11.997429037483277"><ele>240.66666666666666</ele><time>2026-04-06T14:12:18Z</time></trkpt><trkpt lat="46.02750614388755" lon="11.997325568793682"><ele>240.33333333333331</ele><time>2026-04-06T14:12:19Z</time></trkpt><trkpt lat="46.02731209831246" lon="11.997194433929968"><ele>240.0</ele><time>2026-04-06T14:12:20Z</time></trkpt><trkpt lat="46.027117907576454" lon="11.99703405926152"><ele>240.0</ele><time>2026-04-06T14:12:21Z</time></trkpt><trkpt lat="46.02691213282892" lon="11.996871169264839"><ele>240.0</ele><time>2026-04-06T14:12:22Z</time></trkpt><trkpt lat="46.02671522159918" lon="11.996664213538637"><ele>243.5</ele><time>2026-04-06T14:12:23Z</time></trkpt><trkpt lat="46.02651412415246" lon="11.996446810073012"><ele>247.0</ele><time>2026-04-06T14:12:24Z</time></trkpt><trkpt lat="46.02630824419262" lon="11.996221497287971"><ele>247.0</ele><time>2026-04-06T14:12:25Z</time></trkpt><trkpt lat="46.02610016171485" lon="11.995991587274641"><ele>247.0</ele><time>2026-04-06T14:12:26Z</time></trkpt><trkpt lat="46.025888277886445" lon="11.995762470675535"><ele>259.0</ele><time>2026-04-06T14:12:27Z</time></trkpt><trkpt lat="46.02566894036575" lon="11.995531519584851"><ele>271.0</ele><time>2026-04-06T14:12:28Z</time></trkpt><trkpt lat="46.02544257821169" lon="11.995295353589524"><ele>271.0</ele><time>2026-04-06T14:12:29Z</time></trkpt><trkpt lat="46.025221499786575" lon="11.99503779783895"><ele>271.0</ele><time>2026-04-06T14:12:30Z</time></trkpt><trkpt lat="46.02498167425277" lon="11.994841455938316"><ele>272.0</ele><time>2026-04-06T14:12:31Z</time></trkpt><trkpt lat="46.02473943347582" lon="11.994652602837276"><ele>273.0</ele><time>2026-04-06T14:12:32Z</time></trkpt><trkpt lat="46.02448277998171" lon="11.994476582733439"><ele>273.0</ele><time>2026-04-06T14:12:33Z</time></trkpt><trkpt lat="46.02420733568611" lon="11.994318810679644"><ele>273.0</ele><time>2026-04-06T14:12:34Z</time></trkpt><trkpt lat="46.02392751362884" lon="11.99416204402142"><ele>266.5</ele><time>2026-04-06T14:12:35Z</time></trkpt><trkpt lat="46.023661885239065" lon="11.994007030663978"><ele>260.0</ele><time>2026-04-06T14:12:36Z</time></trkpt><trkpt lat="46.0234115064436" lon="11.993860405641254"><ele>269.0</ele><time>2026-04-06T14:12:37Z</time></trkpt><trkpt lat="46.02316948948187" lon="11.99371827480869"><ele>278.0</ele><time>2026-04-06T14:12:38Z</time></trkpt><trkpt lat="46.02292695048173" lon="11.993574710330481"><ele>278.0</ele><time>2026-04-06T14:12:39Z</time></trkpt><trkpt lat="46.022682182574385" lon="11.993430855763927"><ele>278.0</ele><time>2026-04-06T14:12:40Z</time></trkpt><trkpt lat="46.02243689872037" lon="11.993289278659343"><ele>274.0</ele><time>2026-04-06T14:12:41Z</time></trkpt><trkpt lat="46.02219375402769" lon="11.993149597248978"><ele>270.0</ele><time>2026-04-06T14:12:42Z</time></trkpt><trkpt lat="46.021955904911984" lon="11.993009344049545"><ele>270.0</ele><time>2026-04-06T14:12:43Z</time></trkpt><trkpt lat="46.02172385494922" lon="11.992858762399937"><ele>270.0</ele><time>2026-04-06T14:12:44Z</time></trkpt><trkpt lat="46.021500873460816" lon="11.992681910029557"><ele>261.5</ele><time>2026-04-06T14:12:45Z</time></trkpt><trkpt lat="46.021284849242136" lon="11.992472173750883"><ele>253.0</ele><time>2026-04-06T14:12:46Z</time></trkpt><trkpt lat="46.02106498451499" lon="11.992237906924819"><ele>253.0</ele><time>2026-04-06T14:12:47Z</time></trkpt><trkpt lat="46.020838344609636" lon="11.99197212785915"><ele>253.0</ele><time>2026-04-06T14:12:48Z</time></trkpt><trkpt lat="46.02060482596272" lon="11.99168233123203"><ele>252.5</ele><time>2026-04-06T14:12:49Z</time></trkpt><trkpt lat="46.02037131583922" lon="11.99137529698752"><ele>252.0</ele><time>2026-04-06T14:12:50Z</time></trkpt><trkpt lat="46.02014810725475" lon="11.991074210175098"><ele>258.0</ele><time>2026-04-06T14:12:51Z</time></trkpt><trkpt lat="46.01992771050235" lon="11.990782913133652"><ele>264.0</ele><time>2026-04-06T14:12:52Z</time></trkpt><trkpt lat="46.01970881577065" lon="11.99050220147302"><ele>264.0</ele><time>2026-04-06T14:12:53Z</time></trkpt><trkpt lat="46.019491443987945" lon="11.99022887856893"><ele>264.0</ele><time>2026-04-06T14:12:54Z</time></trkpt><trkpt lat="46.019278727128594" lon="11.989961819227732"><ele>266.5</ele><time>2026-04-06T14:12:55Z</time></trkpt><trkpt lat="46.01907055348051" lon="11.989699210382772"><ele>269.0</ele><time>2026-04-06T14:12:56Z</time></trkpt><trkpt lat="46.01886812744578" lon="11.989446019654375"><ele>269.0</ele><time>2026-04-06T14:12:57Z</time></trkpt><trkpt lat="46.01867739155598" lon="11.98920406494249"><ele>269.0</ele><time>2026-04-06T14:12:58Z</time></trkpt><trkpt lat="46.01849198277961" lon="11.988979542275127"><ele>274.0</ele><time>2026-04-06T14:12:59Z</time></trkpt><trkpt lat="46.018306878875464" lon="11.988779868619616"><ele>279.0</ele><time>2026-04-06T14:13:00Z</time></trkpt><trkpt lat="46.01811613116527" lon="11.988607451010363"><ele>279.0</ele><time>2026-04-06T14:13:01Z</time></trkpt><trkpt lat="46.01791824638096" lon="11.98845679941639"><ele>279.0</ele><time>2026-04-06T14:13:02Z</time></trkpt><trkpt lat="46.017718089548445" lon="11.988315282086353"><ele>279.0</ele><time>2026-04-06T14:13:03Z</time></trkpt><trkpt lat="46.01751026292394" lon="11.988164424243307"><ele>283.0</ele><time>2026-04-06T14:13:04Z</time></trkpt><trkpt lat="46.01730177598581" lon="11.988000285274698"><ele>287.0</ele><time>2026-04-06T14:13:05Z</time></trkpt><trkpt lat="46.017107149025215" lon="11.98781320330231"><ele>287.0</ele><time>2026-04-06T14:13:06Z</time></trkpt><trkpt lat="46.016929686657676" lon="11.987595458067089"><ele>287.0</ele><time>2026-04-06T14:13:07Z</time></trkpt><trkpt lat="46.01676097002225" lon="11.987353384345608"><ele>288.0</ele><time>2026-04-06T14:13:08Z</time></trkpt><trkpt lat="46.0165997762917" lon="11.987087842331416"><ele>289.0</ele><time>2026-04-06T14:13:09Z</time></trkpt><trkpt lat="46.01645343842359" lon="11.986805006618829"><ele>277.0</ele><time>2026-04-06T14:13:10Z</time></trkpt><trkpt lat="46.01632259193793" lon="11.986528245755503"><ele>265.0</ele><time>2026-04-06T14:13:11Z</time></trkpt><trkpt lat="46.01619483546246" lon="11.986264347845774"><ele>265.0</ele><time>2026-04-06T14:13:12Z</time></trkpt><trkpt lat="46.01606816480668" lon="11.986015983281366"><ele>265.0</ele><time>2026-04-06T14:13:13Z</time></trkpt><trkpt lat="46.015951170225556" lon="11.985772092026147"><ele>265.0</ele><time>2026-04-06T14:13:14Z</time></trkpt><trkpt lat="46.01584315841209" lon="11.985530771598691"><ele>271.0</ele><time>2026-04-06T14:13:15Z</time></trkpt><trkpt lat="46.0157531788228" lon="11.985287999913941"><ele>277.0</ele><time>2026-04-06T14:13:16Z</time></trkpt><trkpt lat="46.0156830269218" lon="11.985032274666485"><ele>283.0</ele><time>2026-04-06T14:13:17Z</time></trkpt><trkpt lat="46.01562809219803" lon="11.984766078367404"><ele>283.0</ele><time>2026-04-06T14:13:18Z</time></trkpt><trkpt lat="46.015579404233776" lon="11.984503060713994"><ele>283.0</ele><time>2026-04-06T14:13:19Z</time></trkpt><trkpt lat="46.01551993282943" lon="11.98424579475193"><ele>283.0</ele><time>2026-04-06T14:13:20Z</time></trkpt><trkpt lat="46.0154440803289" lon="11.983997888527641"><ele>279.0</ele><time>2026-04-06T14:13:21Z</time></trkpt><trkpt lat="46.015345703804314" lon="11.98376350009314"><ele>275.0</ele><time>2026-04-06T14:13:22Z</time></trkpt><trkpt lat="46.01522751309234" lon="11.98355054437634"><ele>271.0</ele><time>2026-04-06T14:13:23Z</time></trkpt><trkpt lat="46.01509357630311" lon="11.983362080650192"><ele>266.66666666666663</ele><time>2026-04-06T14:13:24Z</time></trkpt><trkpt lat="46.01494767627272" lon="11.983188984830303"><ele>262.3333333333333</ele><time>2026-04-06T14:13:25Z</time></trkpt><trkpt lat="46.01478405916522" lon="11.983032958812244"><ele>258.0</ele><time>2026-04-06T14:13:26Z</time></trkpt><trkpt lat="46.01460833162129" lon="11.98289202981635"><ele>258.0</ele><time>2026-04-06T14:13:27Z</time></trkpt><trkpt lat="46.01442445203639" lon="11.982770362163764"><ele>258.0</ele><time>2026-04-06T14:13:28Z</time></trkpt><trkpt lat="46.0142293623736" lon="11.982669535045762"><ele>258.0</ele><time>2026-04-06T14:13:29Z</time></trkpt><trkpt lat="46.014020318662446" lon="11.982585360153516"><ele>244.5</ele><time>2026-04-06T14:13:30Z</time></trkpt><trkpt lat="46.013789925638946" lon="11.982513551745667"><ele>231.0</ele><time>2026-04-06T14:13:31Z</time></trkpt><trkpt lat="46.013541618497804" lon="11.982442525023515"><ele>234.5</ele><time>2026-04-06T14:13:32Z</time></trkpt><trkpt lat="46.0132769618921" lon="11.982366315473893"><ele>238.0</ele><time>2026-04-06T14:13:33Z</time></trkpt><trkpt lat="46.01300300374111" lon="11.982270529559303"><ele>238.0</ele><time>2026-04-06T14:13:34Z</time></trkpt><trkpt lat="46.01273260073091" lon="11.982163411710797"><ele>238.0</ele><time>2026-04-06T14:13:35Z</time></trkpt><trkpt lat="46.01246696343807" lon="11.982058985270276"><ele>251.0</ele><time>2026-04-06T14:13:36Z</time></trkpt><trkpt lat="46.01220381500801" lon="11.981964780655929"><ele>264.0</ele><time>2026-04-06T14:13:37Z</time></trkpt><trkpt lat="46.01194742444863" lon="11.98188019489245"><ele>264.0</ele><time>2026-04-06T14:13:38Z</time></trkpt><trkpt lat="46.01170171847642" lon="11.981806783183723"><ele>264.0</ele><time>2026-04-06T14:13:39Z</time></trkpt><trkpt lat="46.01146359821183" lon="11.981754610820504"><ele>273.5</ele><time>2026-04-06T14:13:40Z</time></trkpt><trkpt lat="46.01122331366079" lon="11.981734390059241"><ele>283.0</ele><time>2026-04-06T14:13:41Z</time></trkpt><trkpt lat="46.01097340109418" lon="11.981747160330869"><ele>279.0</ele><time>2026-04-06T14:13:42Z</time></trkpt><trkpt lat="46.01071207332021" lon="11.981774340601458"><ele>275.0</ele><time>2026-04-06T14:13:43Z</time></trkpt><trkpt lat="46.01043804810249" lon="11.981811198137732"><ele>275.0</ele><time>2026-04-06T14:13:44Z</time></trkpt><trkpt lat="46.01015272429835" lon="11.981849162663364"><ele>275.0</ele><time>2026-04-06T14:13:45Z</time></trkpt><trkpt lat="46.0098583345858" lon="11.981886659133547"><ele>267.0</ele><time>2026-04-06T14:13:46Z</time></trkpt><trkpt lat="46.00955502765889" lon="11.981921278829125"><ele>259.0</ele><time>2026-04-06T14:13:47Z</time></trkpt><trkpt lat="46.00924261054634" lon="11.981950822565432"><ele>246.0</ele><time>2026-04-06T14:13:48Z</time></trkpt><trkpt lat="46.00892544196067" lon="11.981984256727927"><ele>233.0</ele><time>2026-04-06T14:13:49Z</time></trkpt><trkpt lat="46.008604094047634" lon="11.982024636986768"><ele>226.5</ele><time>2026-04-06T14:13:50Z</time></trkpt><trkpt lat="46.0082800982271" lon="11.982069576950225"><ele>220.0</ele><time>2026-04-06T14:13:51Z</time></trkpt><trkpt lat="46.00795231404411" lon="11.982113908796707"><ele>220.0</ele><time>2026-04-06T14:13:52Z</time></trkpt><trkpt lat="46.007620711932724" lon="11.982157708226522"><ele>220.0</ele><time>2026-04-06T14:13:53Z</time></trkpt><trkpt lat="46.0072884087164" lon="11.982198314720735"><ele>221.0</ele><time>2026-04-06T14:13:54Z</time></trkpt><trkpt lat="46.00695374091517" lon="11.982241440384357"><ele>222.0</ele><time>2026-04-06T14:13:55Z</time></trkpt><trkpt lat="46.00661787353318" lon="11.98228245707965"><ele>222.5</ele><time>2026-04-06T14:13:56Z</time></trkpt><trkpt lat="46.0062806244966" lon="11.98232312690917"><ele>223.0</ele><time>2026-04-06T14:13:57Z</time></trkpt><trkpt lat="46.00594491106103" lon="11.982360499795917"><ele>222.5</ele><time>2026-04-06T14:13:58Z</time></trkpt><trkpt lat="46.00560656476111" lon="11.982394940491828"><ele>222.0</ele><time>2026-04-06T14:13:59Z</time></trkpt><trkpt lat="46.00526280097435" lon="11.98241001562227"><ele>221.0</ele><time>2026-04-06T14:14:00Z</time></trkpt><trkpt lat="46.00492271984839" lon="11.982445499839613"><ele>220.0</ele><time>2026-04-06T14:14:01Z</time></trkpt><trkpt lat="46.00459041695192" lon="11.982480453731727"><ele>224.0</ele><time>2026-04-06T14:14:02Z</time></trkpt><trkpt lat="46.00426376897232" lon="11.982514700491825"><ele>228.0</ele><time>2026-04-06T14:14:03Z</time></trkpt><trkpt lat="46.00394516272677" lon="11.9825476511841"><ele>228.5</ele><time>2026-04-06T14:14:04Z</time></trkpt><trkpt lat="46.003634601570866" lon="11.982578521751986"><ele>229.0</ele><time>2026-04-06T14:14:05Z</time></trkpt><trkpt lat="46.00333173640737" lon="11.982608629365055"><ele>228.5</ele><time>2026-04-06T14:14:06Z</time></trkpt><trkpt lat="46.0030345513827" lon="11.982675886576505"><ele>228.0</ele><time>2026-04-06T14:14:07Z</time></trkpt><trkpt lat="46.002738836681566" lon="11.982705134377902"><ele>234.0</ele><time>2026-04-06T14:14:08Z</time></trkpt><trkpt lat="46.00244899227257" lon="11.982733223901437"><ele>240.0</ele><time>2026-04-06T14:14:09Z</time></trkpt><trkpt lat="46.00216469337281" lon="11.98276093603539"><ele>240.0</ele><time>2026-04-06T14:14:10Z</time></trkpt><trkpt lat="46.001879422666825" lon="11.982752303233667"><ele>240.0</ele><time>2026-04-06T14:14:11Z</time></trkpt><trkpt lat="46.00159569073467" lon="11.982779646965097"><ele>237.0</ele><time>2026-04-06T14:14:12Z</time></trkpt><trkpt lat="46.00131277521957" lon="11.982806911967513"><ele>234.0</ele><time>2026-04-06T14:14:13Z</time></trkpt><trkpt lat="46.001039430202724" lon="11.982833254647895"><ele>229.5</ele><time>2026-04-06T14:14:14Z</time></trkpt><trkpt lat="46.000767200103965" lon="11.98285948988106"><ele>225.0</ele><time>2026-04-06T14:14:15Z</time></trkpt><trkpt lat="46.000491311285934" lon="11.982886812448813"><ele>225.0</ele><time>2026-04-06T14:14:16Z</time></trkpt><trkpt lat="46.00020897797114" lon="11.982916000101552"><ele>225.0</ele><time>2026-04-06T14:14:17Z</time></trkpt><trkpt lat="45.99992165023152" lon="11.982945429811325"><ele>225.0</ele><time>2026-04-06T14:14:18Z</time></trkpt><trkpt lat="45.99963611954144" lon="11.982974483461227"><ele>225.0</ele><time>2026-04-06T14:14:19Z</time></trkpt><trkpt lat="45.99935399184579" lon="11.98300319083512"><ele>225.0</ele><time>2026-04-06T14:14:20Z</time></trkpt><trkpt lat="45.99907402215125" lon="11.983030574179384"><ele>225.0</ele><time>2026-04-06T14:14:21Z</time></trkpt><trkpt lat="45.998798078847024" lon="11.983056880774633"><ele>225.0</ele><time>2026-04-06T14:14:22Z</time></trkpt><trkpt lat="45.99853370236642" lon="11.983082920055567"><ele>225.0</ele><time>2026-04-06T14:14:23Z</time></trkpt><trkpt lat="45.9982806523727" lon="11.983107674227686"><ele>225.0</ele><time>2026-04-06T14:14:24Z</time></trkpt><trkpt lat="45.99803650511279" lon="11.983131930145191"><ele>225.0</ele><time>2026-04-06T14:14:25Z</time></trkpt><trkpt lat="45.99780104424224" lon="11.983155747970656"><ele>225.0</ele><time>2026-04-06T14:14:26Z</time></trkpt><trkpt lat="45.99757325312988" lon="11.983178051914672"><ele>225.0</ele><time>2026-04-06T14:14:27Z</time></trkpt><trkpt lat="45.997348039411314" lon="11.983201274063223"><ele>228.66666666666669</ele><time>2026-04-06T14:14:28Z</time></trkpt><trkpt lat="45.99713028168916" lon="11.983223162031372"><ele>232.33333333333334</ele><time>2026-04-06T14:14:29Z</time></trkpt><trkpt lat="45.99691875217999" lon="11.983244964130986"><ele>236.0</ele><time>2026-04-06T14:14:30Z</time></trkpt><trkpt lat="45.99670985380709" lon="11.98326594414878"><ele>234.66666666666669</ele><time>2026-04-06T14:14:31Z</time></trkpt><trkpt lat="45.99650208684833" lon="11.983286888074682"><ele>233.33333333333331</ele><time>2026-04-06T14:14:32Z</time></trkpt><trkpt lat="45.99629374288278" lon="11.983308284926908"><ele>232.0</ele><time>2026-04-06T14:14:33Z</time></trkpt><trkpt lat="45.996082460181285" lon="11.983332170168131"><ele>230.33333333333331</ele><time>2026-04-06T14:14:34Z</time></trkpt><trkpt lat="45.99587223021432" lon="11.98335222915456"><ele>228.66666666666669</ele><time>2026-04-06T14:14:35Z</time></trkpt><trkpt lat="45.99566787418815" lon="11.983356249596488"><ele>227.0</ele><time>2026-04-06T14:14:36Z</time></trkpt><trkpt lat="45.99547151358393" lon="11.98333481357337"><ele>227.0</ele><time>2026-04-06T14:14:37Z</time></trkpt><trkpt lat="45.99528142879842" lon="11.98329294918812"><ele>227.0</ele><time>2026-04-06T14:14:38Z</time></trkpt><trkpt lat="45.99509133848233" lon="11.983235075395465"><ele>227.0</ele><time>2026-04-06T14:14:39Z</time></trkpt><trkpt lat="45.99489362290873" lon="11.983170230822196"><ele>228.66666666666669</ele><time>2026-04-06T14:14:40Z</time></trkpt><trkpt lat="45.99469411549675" lon="11.983110106092969"><ele>230.33333333333331</ele><time>2026-04-06T14:14:41Z</time></trkpt><trkpt lat="45.99446735833116" lon="11.983062918894957"><ele>232.0</ele><time>2026-04-06T14:14:42Z</time></trkpt><trkpt lat="45.994223917809784" lon="11.983040802685844"><ele>233.0</ele><time>2026-04-06T14:14:43Z</time></trkpt><trkpt lat="45.9939951388318" lon="11.983042293457418"><ele>234.0</ele><time>2026-04-06T14:14:44Z</time></trkpt><trkpt lat="45.993798199441706" lon="11.983039856229444"><ele>235.0</ele><time>2026-04-06T14:14:45Z</time></trkpt><trkpt lat="45.99362154900878" lon="11.983032653396707"><ele>235.0</ele><time>2026-04-06T14:14:46Z</time></trkpt><trkpt lat="45.99345494026355" lon="11.983015171662807"><ele>235.0</ele><time>2026-04-06T14:14:47Z</time></trkpt><trkpt lat="45.993289587365055" lon="11.982987639158848"><ele>235.0</ele><time>2026-04-06T14:14:48Z</time></trkpt><trkpt lat="45.99311066050387" lon="11.982957867247002"><ele>236.33333333333331</ele><time>2026-04-06T14:14:49Z</time></trkpt><trkpt lat="45.99293020582409" lon="11.982927886209488"><ele>237.66666666666669</ele><time>2026-04-06T14:14:50Z</time></trkpt><trkpt lat="45.99275981199236" lon="11.982899576717905"><ele>239.0</ele><time>2026-04-06T14:14:51Z</time></trkpt><trkpt lat="45.992599318303526" lon="11.982872896496021"><ele>241.0</ele><time>2026-04-06T14:14:52Z</time></trkpt><trkpt lat="45.99243509554195" lon="11.982845584577396"><ele>243.0</ele><time>2026-04-06T14:14:53Z</time></trkpt><trkpt lat="45.99225861860433" lon="11.98281623463126"><ele>245.0</ele><time>2026-04-06T14:14:54Z</time></trkpt><trkpt lat="45.99206397279139" lon="11.98278383195046"><ele>245.0</ele><time>2026-04-06T14:14:55Z</time></trkpt><trkpt lat="45.99185020529632" lon="11.982748238629787"><ele>245.0</ele><time>2026-04-06T14:14:56Z</time></trkpt><trkpt lat="45.99165065875333" lon="11.982712294658402"><ele>245.0</ele><time>2026-04-06T14:14:57Z</time></trkpt><trkpt lat="45.99146447144198" lon="11.98266362125008"><ele>244.33333333333334</ele><time>2026-04-06T14:14:58Z</time></trkpt><trkpt lat="45.99127888932799" lon="11.982626145835674"><ele>243.66666666666669</ele><time>2026-04-06T14:14:59Z</time></trkpt><trkpt lat="45.991094721939525" lon="11.982549749302613"><ele>243.0</ele><time>2026-04-06T14:15:00Z</time></trkpt><trkpt lat="45.99090289508382" lon="11.98245701940415"><ele>237.0</ele><time>2026-04-06T14:15:01Z</time></trkpt><trkpt lat="45.99071354627273" lon="11.982312527412121"><ele>231.0</ele><time>2026-04-06T14:15:02Z</time></trkpt><trkpt lat="45.99052196903047" lon="11.98215290144039"><ele>225.0</ele><time>2026-04-06T14:15:03Z</time></trkpt><trkpt lat="45.990317227372294" lon="11.9820187467365"><ele>225.0</ele><time>2026-04-06T14:15:04Z</time></trkpt><trkpt lat="45.990119848849055" lon="11.9818387163798"><ele>225.0</ele><time>2026-04-06T14:15:05Z</time></trkpt><trkpt lat="45.98990818632337" lon="11.981640472527983"><ele>223.0</ele><time>2026-04-06T14:15:06Z</time></trkpt><trkpt lat="45.98969868131629" lon="11.981427087693618"><ele>221.0</ele><time>2026-04-06T14:15:07Z</time></trkpt><trkpt lat="45.989505878985455" lon="11.981221972909854"><ele>221.0</ele><time>2026-04-06T14:15:08Z</time></trkpt><trkpt lat="45.989315721615874" lon="11.98103600959359"><ele>221.0</ele><time>2026-04-06T14:15:09Z</time></trkpt><trkpt lat="45.989127333497585" lon="11.980871328676512"><ele>219.66666666666669</ele><time>2026-04-06T14:15:10Z</time></trkpt><trkpt lat="45.988942304992186" lon="11.98072702740194"><ele>218.33333333333331</ele><time>2026-04-06T14:15:11Z</time></trkpt><trkpt lat="45.98875781627242" lon="11.980606915831348"><ele>217.0</ele><time>2026-04-06T14:15:12Z</time></trkpt><trkpt lat="45.98857438790096" lon="11.980519792176159"><ele>217.0</ele><time>2026-04-06T14:15:13Z</time></trkpt><trkpt lat="45.98839776922328" lon="11.980456114137315"><ele>217.0</ele><time>2026-04-06T14:15:14Z</time></trkpt><trkpt lat="45.98822693413854" lon="11.980404844286316"><ele>217.0</ele><time>2026-04-06T14:15:15Z</time></trkpt><trkpt lat="45.98805414969078" lon="11.980371874407123"><ele>221.0</ele><time>2026-04-06T14:15:16Z</time></trkpt><trkpt lat="45.987863926314006" lon="11.98032153735018"><ele>225.0</ele><time>2026-04-06T14:15:17Z</time></trkpt><trkpt lat="45.98765349703208" lon="11.98028936440966"><ele>229.0</ele><time>2026-04-06T14:15:18Z</time></trkpt><trkpt lat="45.98744594512091" lon="11.980256480018287"><ele>232.0</ele><time>2026-04-06T14:15:19Z</time></trkpt><trkpt lat="45.987250199182654" lon="11.980223431112455"><ele>235.0</ele><time>2026-04-06T14:15:20Z</time></trkpt><trkpt lat="45.98706260918938" lon="11.980191760006582"><ele>238.0</ele><time>2026-04-06T14:15:21Z</time></trkpt><trkpt lat="45.98686712019849" lon="11.980169069085989"><ele>233.0</ele><time>2026-04-06T14:15:22Z</time></trkpt><trkpt lat="45.98666340201199" lon="11.980091708105244"><ele>228.0</ele><time>2026-04-06T14:15:23Z</time></trkpt><trkpt lat="45.98645195487188" lon="11.979966548034874"><ele>223.0</ele><time>2026-04-06T14:15:24Z</time></trkpt><trkpt lat="45.98624707673914" lon="11.979817830311845"><ele>223.0</ele><time>2026-04-06T14:15:25Z</time></trkpt><trkpt lat="45.986051085769766" lon="11.979652325349864"><ele>223.0</ele><time>2026-04-06T14:15:26Z</time></trkpt><trkpt lat="45.985870525012054" lon="11.97947921489642"><ele>223.0</ele><time>2026-04-06T14:15:27Z</time></trkpt><trkpt lat="45.98570901426693" lon="11.97930493257813"><ele>221.66666666666666</ele><time>2026-04-06T14:15:28Z</time></trkpt><trkpt lat="45.9855480250755" lon="11.979118716458622"><ele>220.33333333333331</ele><time>2026-04-06T14:15:29Z</time></trkpt><trkpt lat="45.98539643918553" lon="11.978908732938207"><ele>219.0</ele><time>2026-04-06T14:15:30Z</time></trkpt><trkpt lat="45.985250434837845" lon="11.978695911200546"><ele>219.0</ele><time>2026-04-06T14:15:31Z</time></trkpt><trkpt lat="45.98510310399051" lon="11.978502060225958"><ele>219.0</ele><time>2026-04-06T14:15:32Z</time></trkpt><trkpt lat="45.984957206840846" lon="11.978333624761072"><ele>219.0</ele><time>2026-04-06T14:15:33Z</time></trkpt><trkpt lat="45.984819186992034" lon="11.978208218460487"><ele>220.33333333333331</ele><time>2026-04-06T14:15:34Z</time></trkpt><trkpt lat="45.984680377076394" lon="11.97810175104192"><ele>221.66666666666666</ele><time>2026-04-06T14:15:35Z</time></trkpt><trkpt lat="45.98454245152326" lon="11.978002198324468"><ele>223.0</ele><time>2026-04-06T14:15:36Z</time></trkpt><trkpt lat="45.984401463161795" lon="11.97789221532518"><ele>223.0</ele><time>2026-04-06T14:15:37Z</time></trkpt><trkpt lat="45.984256133054515" lon="11.977768762470687"><ele>223.0</ele><time>2026-04-06T14:15:38Z</time></trkpt><trkpt lat="45.9841201380975" lon="11.977642071942974"><ele>223.0</ele><time>2026-04-06T14:15:39Z</time></trkpt><trkpt lat="45.983988359470686" lon="11.977486446213538"><ele>223.0</ele><time>2026-04-06T14:15:40Z</time></trkpt><trkpt lat="45.98385071090516" lon="11.977295541705681"><ele>223.0</ele><time>2026-04-06T14:15:41Z</time></trkpt><trkpt lat="45.98371371121545" lon="11.97708780891736"><ele>223.0</ele><time>2026-04-06T14:15:42Z</time></trkpt><trkpt lat="45.98360511735738" lon="11.976878510128577"><ele>227.0</ele><time>2026-04-06T14:15:43Z</time></trkpt><trkpt lat="45.98351367263247" lon="11.976661759289813"><ele>231.0</ele><time>2026-04-06T14:15:44Z</time></trkpt><trkpt lat="45.98342813829853" lon="11.976447267849148"><ele>235.0</ele><time>2026-04-06T14:15:45Z</time></trkpt><trkpt lat="45.98334199190976" lon="11.976239990152642"><ele>235.0</ele><time>2026-04-06T14:15:46Z</time></trkpt><trkpt lat="45.9832545673151" lon="11.976041214763596"><ele>235.0</ele><time>2026-04-06T14:15:47Z</time></trkpt><trkpt lat="45.98316436467835" lon="11.975842557504661"><ele>235.0</ele><time>2026-04-06T14:15:48Z</time></trkpt><trkpt lat="45.98307554221913" lon="11.975635564613864"><ele>228.0</ele><time>2026-04-06T14:15:49Z</time></trkpt><trkpt lat="45.98297962014908" lon="11.975415371640002"><ele>221.0</ele><time>2026-04-06T14:15:50Z</time></trkpt><trkpt lat="45.98286746421708" lon="11.975184100235381"><ele>214.0</ele><time>2026-04-06T14:15:51Z</time></trkpt><trkpt lat="45.98274673777108" lon="11.974923833407656"><ele>210.5</ele><time>2026-04-06T14:15:52Z</time></trkpt><trkpt lat="45.98262423518051" lon="11.974636767710129"><ele>207.0</ele><time>2026-04-06T14:15:53Z</time></trkpt><trkpt lat="45.982491727558774" lon="11.974330158886623"><ele>212.5</ele><time>2026-04-06T14:15:54Z</time></trkpt><trkpt lat="45.98235024899743" lon="11.974011065248893"><ele>218.0</ele><time>2026-04-06T14:15:55Z</time></trkpt><trkpt lat="45.98220823581416" lon="11.973688824034756"><ele>218.0</ele><time>2026-04-06T14:15:56Z</time></trkpt><trkpt lat="45.98206828142322" lon="11.973356890507622"><ele>218.0</ele><time>2026-04-06T14:15:57Z</time></trkpt><trkpt lat="45.98192946859678" lon="11.973025978500623"><ele>221.5</ele><time>2026-04-06T14:15:58Z</time></trkpt><trkpt lat="45.981779467847005" lon="11.972702699730405"><ele>225.0</ele><time>2026-04-06T14:15:59Z</time></trkpt><trkpt lat="45.98163495829063" lon="11.972370599556879"><ele>225.0</ele><time>2026-04-06T14:16:00Z</time></trkpt><trkpt lat="45.981495103927536" lon="11.972027194082305"><ele>225.0</ele><time>2026-04-06T14:16:01Z</time></trkpt><trkpt lat="45.98135997078101" lon="11.971692527641856"><ele>217.5</ele><time>2026-04-06T14:16:02Z</time></trkpt><trkpt lat="45.98123038290797" lon="11.971383650641318"><ele>210.0</ele><time>2026-04-06T14:16:03Z</time></trkpt><trkpt lat="45.98110508386663" lon="11.971093219232797"><ele>207.66666666666669</ele><time>2026-04-06T14:16:04Z</time></trkpt><trkpt lat="45.98098582785634" lon="11.970816683685358"><ele>205.33333333333334</ele><time>2026-04-06T14:16:05Z</time></trkpt><trkpt lat="45.980869843088804" lon="11.970545220896396"><ele>203.0</ele><time>2026-04-06T14:16:06Z</time></trkpt><trkpt lat="45.980756216149146" lon="11.970272672561723"><ele>205.5</ele><time>2026-04-06T14:16:07Z</time></trkpt><trkpt lat="45.98064247793575" lon="11.969992056423564"><ele>208.0</ele><time>2026-04-06T14:16:08Z</time></trkpt><trkpt lat="45.98053050837724" lon="11.969697656535319"><ele>208.0</ele><time>2026-04-06T14:16:09Z</time></trkpt><trkpt lat="45.9804247296312" lon="11.96938625838158"><ele>208.0</ele><time>2026-04-06T14:16:10Z</time></trkpt><trkpt lat="45.98032716981998" lon="11.969058120892422"><ele>206.5</ele><time>2026-04-06T14:16:11Z</time></trkpt><trkpt lat="45.98023959824183" lon="11.968722138894647"><ele>205.0</ele><time>2026-04-06T14:16:12Z</time></trkpt><trkpt lat="45.98016111902166" lon="11.968372887373267"><ele>204.5</ele><time>2026-04-06T14:16:13Z</time></trkpt><trkpt lat="45.980088393310446" lon="11.968016919917703"><ele>204.0</ele><time>2026-04-06T14:16:14Z</time></trkpt><trkpt lat="45.98001882473954" lon="11.967657319907028"><ele>208.0</ele><time>2026-04-06T14:16:15Z</time></trkpt><trkpt lat="45.979948732322946" lon="11.967296802737012"><ele>212.0</ele><time>2026-04-06T14:16:16Z</time></trkpt><trkpt lat="45.97987787717646" lon="11.966934357531184"><ele>210.0</ele><time>2026-04-06T14:16:17Z</time></trkpt><trkpt lat="45.97980431297447" lon="11.966570875097716"><ele>208.0</ele><time>2026-04-06T14:16:18Z</time></trkpt><trkpt lat="45.97973080261836" lon="11.966205532493468"><ele>208.0</ele><time>2026-04-06T14:16:19Z</time></trkpt><trkpt lat="45.979656709880935" lon="11.965840265669422"><ele>208.0</ele><time>2026-04-06T14:16:20Z</time></trkpt><trkpt lat="45.97958468949787" lon="11.965474850013402"><ele>208.0</ele><time>2026-04-06T14:16:21Z</time></trkpt><trkpt lat="45.979515413899954" lon="11.96511056923283"><ele>208.0</ele><time>2026-04-06T14:16:22Z</time></trkpt><trkpt lat="45.97944580440658" lon="11.964744900759442"><ele>207.0</ele><time>2026-04-06T14:16:23Z</time></trkpt><trkpt lat="45.97937566665635" lon="11.964399286940221"><ele>206.0</ele><time>2026-04-06T14:16:24Z</time></trkpt><trkpt lat="45.979298405314644" lon="11.96406916874781"><ele>206.0</ele><time>2026-04-06T14:16:25Z</time></trkpt><trkpt lat="45.97920551201352" lon="11.963749389543176"><ele>206.0</ele><time>2026-04-06T14:16:26Z</time></trkpt><trkpt lat="45.97909020074994" lon="11.963434036536059"><ele>208.0</ele><time>2026-04-06T14:16:27Z</time></trkpt><trkpt lat="45.97895754051222" lon="11.963124145452852"><ele>210.0</ele><time>2026-04-06T14:16:28Z</time></trkpt><trkpt lat="45.97880845903485" lon="11.962820638398446"><ele>209.0</ele><time>2026-04-06T14:16:29Z</time></trkpt><trkpt lat="45.97864870774543" lon="11.962523076653264"><ele>208.0</ele><time>2026-04-06T14:16:30Z</time></trkpt><trkpt lat="45.9784834149831" lon="11.96222620392332"><ele>208.5</ele><time>2026-04-06T14:16:31Z</time></trkpt><trkpt lat="45.97832186907032" lon="11.96192648251389"><ele>209.0</ele><time>2026-04-06T14:16:32Z</time></trkpt><trkpt lat="45.978171624416724" lon="11.961633763287615"><ele>209.0</ele><time>2026-04-06T14:16:33Z</time></trkpt><trkpt lat="45.97802859348755" lon="11.961350746241973"><ele>209.0</ele><time>2026-04-06T14:16:34Z</time></trkpt><trkpt lat="45.977888762366305" lon="11.9610833113978"><ele>209.33333333333334</ele><time>2026-04-06T14:16:35Z</time></trkpt><trkpt lat="45.97775105503351" lon="11.960828105431956"><ele>209.66666666666669</ele><time>2026-04-06T14:16:36Z</time></trkpt><trkpt lat="45.977622170958774" lon="11.960586010346262"><ele>210.0</ele><time>2026-04-06T14:16:37Z</time></trkpt><trkpt lat="45.9774963597043" lon="11.960347264436376"><ele>210.33333333333331</ele><time>2026-04-06T14:16:38Z</time></trkpt><trkpt lat="45.97737363349331" lon="11.960109899633574"><ele>210.66666666666666</ele><time>2026-04-06T14:16:39Z</time></trkpt><trkpt lat="45.97724966886837" lon="11.95987730216789"><ele>211.0</ele><time>2026-04-06T14:16:40Z</time></trkpt><trkpt lat="45.97712836203791" lon="11.959649611511297"><ele>211.0</ele><time>2026-04-06T14:16:41Z</time></trkpt><trkpt lat="45.97701159484595" lon="11.959428797506398"><ele>211.0</ele><time>2026-04-06T14:16:42Z</time></trkpt><trkpt lat="45.97689886801303" lon="11.959221274156326"><ele>211.0</ele><time>2026-04-06T14:16:43Z</time></trkpt><trkpt lat="45.976791150361684" lon="11.959021715552403"><ele>210.33333333333331</ele><time>2026-04-06T14:16:44Z</time></trkpt><trkpt lat="45.976690950377844" lon="11.958835640120526"><ele>209.66666666666669</ele><time>2026-04-06T14:16:45Z</time></trkpt><trkpt lat="45.97659503945664" lon="11.95865722152942"><ele>209.0</ele><time>2026-04-06T14:16:46Z</time></trkpt><trkpt lat="45.97650349300817" lon="11.958480344965968"><ele>210.0</ele><time>2026-04-06T14:16:47Z</time></trkpt><trkpt lat="45.976409483786966" lon="11.95830095403237"><ele>211.0</ele><time>2026-04-06T14:16:48Z</time></trkpt><trkpt lat="45.97631376390007" lon="11.958122091877119"><ele>212.0</ele><time>2026-04-06T14:16:49Z</time></trkpt><trkpt lat="45.97621485987272" lon="11.957940065353286"><ele>212.0</ele><time>2026-04-06T14:16:50Z</time></trkpt><trkpt lat="45.97611778250003" lon="11.957751530181396"><ele>212.0</ele><time>2026-04-06T14:16:51Z</time></trkpt><trkpt lat="45.976019036037485" lon="11.95754593814295"><ele>212.0</ele><time>2026-04-06T14:16:52Z</time></trkpt><trkpt lat="45.975927644240336" lon="11.957304859161875"><ele>213.33333333333334</ele><time>2026-04-06T14:16:53Z</time></trkpt><trkpt lat="45.97584504824973" lon="11.957032875457733"><ele>214.66666666666669</ele><time>2026-04-06T14:16:54Z</time></trkpt><trkpt lat="45.97577244701598" lon="11.95673621565262"><ele>216.0</ele><time>2026-04-06T14:16:55Z</time></trkpt><trkpt lat="45.97570691216461" lon="11.956429730488642"><ele>216.0</ele><time>2026-04-06T14:16:56Z</time></trkpt><trkpt lat="45.975643610936885" lon="11.956120829547315"><ele>216.0</ele><time>2026-04-06T14:16:57Z</time></trkpt><trkpt lat="45.975580509446644" lon="11.95580992452194"><ele>216.0</ele><time>2026-04-06T14:16:58Z</time></trkpt><trkpt lat="45.97550893958653" lon="11.955491983003933"><ele>213.5</ele><time>2026-04-06T14:16:59Z</time></trkpt><trkpt lat="45.975435915015424" lon="11.955176128710553"><ele>211.0</ele><time>2026-04-06T14:17:00Z</time></trkpt><trkpt lat="45.97537309753747" lon="11.954866224171079"><ele>210.33333333333331</ele><time>2026-04-06T14:17:01Z</time></trkpt><trkpt lat="45.97532441408611" lon="11.954579929789867"><ele>209.66666666666669</ele><time>2026-04-06T14:17:02Z</time></trkpt><trkpt lat="45.975281639223894" lon="11.954317361203689"><ele>209.0</ele><time>2026-04-06T14:17:03Z</time></trkpt><trkpt lat="45.97524033119731" lon="11.954068676549575"><ele>208.33333333333334</ele><time>2026-04-06T14:17:04Z</time></trkpt><trkpt lat="45.975211827429916" lon="11.953822173280942"><ele>207.66666666666669</ele><time>2026-04-06T14:17:05Z</time></trkpt><trkpt lat="45.97519623147931" lon="11.953565888935302"><ele>207.0</ele><time>2026-04-06T14:17:06Z</time></trkpt><trkpt lat="45.975192862967546" lon="11.953307201637756"><ele>207.0</ele><time>2026-04-06T14:17:07Z</time></trkpt><trkpt lat="45.97520347382101" lon="11.953041433886098"><ele>207.0</ele><time>2026-04-06T14:17:08Z</time></trkpt><trkpt lat="45.97523121492212" lon="11.952758948440831"><ele>207.0</ele><time>2026-04-06T14:17:09Z</time></trkpt><trkpt lat="45.97527917541971" lon="11.952454235254551"><ele>207.0</ele><time>2026-04-06T14:17:10Z</time></trkpt><trkpt lat="45.97534742007714" lon="11.952136625477868"><ele>207.0</ele><time>2026-04-06T14:17:11Z</time></trkpt><trkpt lat="45.975428904152245" lon="11.951850178127778"><ele>207.0</ele><time>2026-04-06T14:17:12Z</time></trkpt><trkpt lat="45.975509159183716" lon="11.951581426789744"><ele>206.66666666666669</ele><time>2026-04-06T14:17:13Z</time></trkpt><trkpt lat="45.97557334360379" lon="11.951313739479039"><ele>206.33333333333334</ele><time>2026-04-06T14:17:14Z</time></trkpt><trkpt lat="45.97562121179823" lon="11.951040632344354"><ele>206.0</ele><time>2026-04-06T14:17:15Z</time></trkpt><trkpt lat="45.97565071896667" lon="11.950776290649987"><ele>207.0</ele><time>2026-04-06T14:17:16Z</time></trkpt><trkpt lat="45.97566804852103" lon="11.950523629734947"><ele>208.0</ele><time>2026-04-06T14:17:17Z</time></trkpt><trkpt lat="45.97567274335678" lon="11.95028317511418"><ele>209.0</ele><time>2026-04-06T14:17:18Z</time></trkpt><trkpt lat="45.97566373610085" lon="11.950045583539392"><ele>207.66666666666669</ele><time>2026-04-06T14:17:19Z</time></trkpt><trkpt lat="45.97564294195861" lon="11.949796903617493"><ele>206.33333333333331</ele><time>2026-04-06T14:17:20Z</time></trkpt><trkpt lat="45.97560442108254" lon="11.94954157078378"><ele>205.0</ele><time>2026-04-06T14:17:21Z</time></trkpt><trkpt lat="45.97554171509066" lon="11.949279066573872"><ele>204.66666666666666</ele><time>2026-04-06T14:17:22Z</time></trkpt><trkpt lat="45.97545962373097" lon="11.948999520061713"><ele>204.33333333333331</ele><time>2026-04-06T14:17:23Z</time></trkpt><trkpt lat="45.97537315523566" lon="11.94870292969966"><ele>204.0</ele><time>2026-04-06T14:17:24Z</time></trkpt><trkpt lat="45.97527767961546" lon="11.948395547222088"><ele>202.5</ele><time>2026-04-06T14:17:25Z</time></trkpt><trkpt lat="45.975173536992116" lon="11.948071493408435"><ele>201.0</ele><time>2026-04-06T14:17:26Z</time></trkpt><trkpt lat="45.97506330823983" lon="11.947740036521651"><ele>201.5</ele><time>2026-04-06T14:17:27Z</time></trkpt><trkpt lat="45.974950710096905" lon="11.947401633972905"><ele>202.0</ele><time>2026-04-06T14:17:28Z</time></trkpt><trkpt lat="45.97483592367248" lon="11.947057764228276"><ele>201.5</ele><time>2026-04-06T14:17:29Z</time></trkpt><trkpt lat="45.97472122625483" lon="11.946710112054118"><ele>201.0</ele><time>2026-04-06T14:17:30Z</time></trkpt><trkpt lat="45.97460318231024" lon="11.946358389702194"><ele>201.0</ele><time>2026-04-06T14:17:31Z</time></trkpt><trkpt lat="45.97448138940662" lon="11.946007649160945"><ele>201.0</ele><time>2026-04-06T14:17:32Z</time></trkpt><trkpt lat="45.97436072874239" lon="11.945654344431496"><ele>201.0</ele><time>2026-04-06T14:17:33Z</time></trkpt><trkpt lat="45.974242761617674" lon="11.945301458081596"><ele>201.0</ele><time>2026-04-06T14:17:34Z</time></trkpt><trkpt lat="45.974128440368176" lon="11.944960842218094"><ele>206.0</ele><time>2026-04-06T14:17:35Z</time></trkpt><trkpt lat="45.97401858383992" lon="11.944637951395451"><ele>211.0</ele><time>2026-04-06T14:17:36Z</time></trkpt><trkpt lat="45.97391649248467" lon="11.944332977952385"><ele>206.5</ele><time>2026-04-06T14:17:37Z</time></trkpt><trkpt lat="45.97381162333781" lon="11.944042678288655"><ele>202.0</ele><time>2026-04-06T14:17:38Z</time></trkpt><trkpt lat="45.97369623388204" lon="11.943749567330615"><ele>202.0</ele><time>2026-04-06T14:17:39Z</time></trkpt><trkpt lat="45.973587396981756" lon="11.943441451204881"><ele>202.0</ele><time>2026-04-06T14:17:40Z</time></trkpt><trkpt lat="45.973485903167756" lon="11.94313067825346"><ele>199.0</ele><time>2026-04-06T14:17:41Z</time></trkpt><trkpt lat="45.97337560019036" lon="11.942823827658314"><ele>196.0</ele><time>2026-04-06T14:17:42Z</time></trkpt><trkpt lat="45.97325574992175" lon="11.942519467020249"><ele>204.0</ele><time>2026-04-06T14:17:43Z</time></trkpt><trkpt lat="45.9731349594595" lon="11.942217772544511"><ele>212.0</ele><time>2026-04-06T14:17:44Z</time></trkpt><trkpt lat="45.97302062124085" lon="11.941927214795374"><ele>207.33333333333334</ele><time>2026-04-06T14:17:45Z</time></trkpt><trkpt lat="45.972914988537305" lon="11.94164402910092"><ele>202.66666666666669</ele><time>2026-04-06T14:17:46Z</time></trkpt><trkpt lat="45.97281174102232" lon="11.941373597532866"><ele>198.0</ele><time>2026-04-06T14:17:47Z</time></trkpt><trkpt lat="45.972709585980745" lon="11.941117173297247"><ele>197.33333333333331</ele><time>2026-04-06T14:17:48Z</time></trkpt><trkpt lat="45.972606823531926" lon="11.94086222064598"><ele>196.66666666666666</ele><time>2026-04-06T14:17:49Z</time></trkpt><trkpt lat="45.97250563636149" lon="11.940612119408438"><ele>196.0</ele><time>2026-04-06T14:17:50Z</time></trkpt><trkpt lat="45.97240484468236" lon="11.940373133629128"><ele>199.0</ele><time>2026-04-06T14:17:51Z</time></trkpt><trkpt lat="45.97230541405159" lon="11.940149715984347"><ele>202.0</ele><time>2026-04-06T14:17:52Z</time></trkpt><trkpt lat="45.97220269771959" lon="11.939938482396878"><ele>205.0</ele><time>2026-04-06T14:17:53Z</time></trkpt><trkpt lat="45.97209489525773" lon="11.939739693202533"><ele>205.0</ele><time>2026-04-06T14:17:54Z</time></trkpt><trkpt lat="45.97198802803376" lon="11.939537157916817"><ele>205.0</ele><time>2026-04-06T14:17:55Z</time></trkpt><trkpt lat="45.97188250927327" lon="11.939345754168654"><ele>205.0</ele><time>2026-04-06T14:17:56Z</time></trkpt><trkpt lat="45.97177437993135" lon="11.939165671361106"><ele>208.33333333333331</ele><time>2026-04-06T14:17:57Z</time></trkpt><trkpt lat="45.971658810562246" lon="11.93898569479779"><ele>211.66666666666669</ele><time>2026-04-06T14:17:58Z</time></trkpt><trkpt lat="45.97153018504634" lon="11.938795376703366"><ele>215.0</ele><time>2026-04-06T14:17:59Z</time></trkpt><trkpt lat="45.97138927459905" lon="11.938594857655756"><ele>215.0</ele><time>2026-04-06T14:18:00Z</time></trkpt><trkpt lat="45.9712336410982" lon="11.938386053832101"><ele>215.0</ele><time>2026-04-06T14:18:01Z</time></trkpt><trkpt lat="45.97107849227695" lon="11.938182216460081"><ele>215.0</ele><time>2026-04-06T14:18:02Z</time></trkpt><trkpt lat="45.970928180820515" lon="11.937990416202304"><ele>211.33333333333334</ele><time>2026-04-06T14:18:03Z</time></trkpt><trkpt lat="45.97078412579884" lon="11.937812740177424"><ele>207.66666666666669</ele><time>2026-04-06T14:18:04Z</time></trkpt><trkpt lat="45.97064426762433" lon="11.937652104072214"><ele>204.0</ele><time>2026-04-06T14:18:05Z</time></trkpt><trkpt lat="45.97050551414093" lon="11.937509541244003"><ele>204.0</ele><time>2026-04-06T14:18:06Z</time></trkpt><trkpt lat="45.9703682942687" lon="11.93737126889598"><ele>204.0</ele><time>2026-04-06T14:18:07Z</time></trkpt><trkpt lat="45.97022475526534" lon="11.937238505279778"><ele>204.0</ele><time>2026-04-06T14:18:08Z</time></trkpt><trkpt lat="45.97007340130594" lon="11.937117209191713"><ele>212.66666666666669</ele><time>2026-04-06T14:18:09Z</time></trkpt><trkpt lat="45.96991221210997" lon="11.937007600735875"><ele>221.33333333333334</ele><time>2026-04-06T14:18:10Z</time></trkpt><trkpt lat="45.96974568954305" lon="11.936908494180969"><ele>230.0</ele><time>2026-04-06T14:18:11Z</time></trkpt><trkpt lat="45.969567838411635" lon="11.936825749133826"><ele>230.0</ele><time>2026-04-06T14:18:12Z</time></trkpt><trkpt lat="45.96936767155798" lon="11.936765362189865"><ele>230.0</ele><time>2026-04-06T14:18:13Z</time></trkpt><trkpt lat="45.96915373613276" lon="11.936701324676763"><ele>230.0</ele><time>2026-04-06T14:18:14Z</time></trkpt><trkpt lat="45.96892733324561" lon="11.936628428755645"><ele>222.5</ele><time>2026-04-06T14:18:15Z</time></trkpt><trkpt lat="45.9686902058121" lon="11.936560080337015"><ele>215.0</ele><time>2026-04-06T14:18:16Z</time></trkpt><trkpt lat="45.96844656056196" lon="11.93650230971161"><ele>216.5</ele><time>2026-04-06T14:18:17Z</time></trkpt><trkpt lat="45.96820173956129" lon="11.93645492087856"><ele>218.0</ele><time>2026-04-06T14:18:18Z</time></trkpt><trkpt lat="45.967967611402685" lon="11.936410068435238"><ele>218.0</ele><time>2026-04-06T14:18:19Z</time></trkpt><trkpt lat="45.96774814388609" lon="11.936370094748863"><ele>218.0</ele><time>2026-04-06T14:18:20Z</time></trkpt><trkpt lat="45.967539728494614" lon="11.93633983998418"><ele>218.0</ele><time>2026-04-06T14:18:21Z</time></trkpt><trkpt lat="45.967339111195166" lon="11.936324960295549"><ele>218.0</ele><time>2026-04-06T14:18:22Z</time></trkpt><trkpt lat="45.96714749962443" lon="11.93633179790574"><ele>218.0</ele><time>2026-04-06T14:18:23Z</time></trkpt><trkpt lat="45.966948755973405" lon="11.936357292615254"><ele>218.0</ele><time>2026-04-06T14:18:24Z</time></trkpt><trkpt lat="45.96673640883418" lon="11.93639417178475"><ele>217.66666666666669</ele><time>2026-04-06T14:18:25Z</time></trkpt><trkpt lat="45.9665128020027" lon="11.936436554141505"><ele>217.33333333333331</ele><time>2026-04-06T14:18:26Z</time></trkpt><trkpt lat="45.96629988492691" lon="11.936484074285788"><ele>217.0</ele><time>2026-04-06T14:18:27Z</time></trkpt><trkpt lat="45.96609361105657" lon="11.936550638840968"><ele>217.0</ele><time>2026-04-06T14:18:28Z</time></trkpt><trkpt lat="45.96588334952631" lon="11.936660043251546"><ele>217.0</ele><time>2026-04-06T14:18:29Z</time></trkpt><trkpt lat="45.965658350671525" lon="11.936805109151999"><ele>224.0</ele><time>2026-04-06T14:18:30Z</time></trkpt><trkpt lat="45.965416795780186" lon="11.936953904465033"><ele>231.0</ele><time>2026-04-06T14:18:31Z</time></trkpt><trkpt lat="45.96515517807984" lon="11.937103637478359"><ele>221.5</ele><time>2026-04-06T14:18:32Z</time></trkpt><trkpt lat="45.96489071116381" lon="11.93725087759993"><ele>212.0</ele><time>2026-04-06T14:18:33Z</time></trkpt><trkpt lat="45.96463535451714" lon="11.937391203047625"><ele>212.0</ele><time>2026-04-06T14:18:34Z</time></trkpt><trkpt lat="45.964387262880486" lon="11.937520914267068"><ele>212.0</ele><time>2026-04-06T14:18:35Z</time></trkpt><trkpt lat="45.96414974882206" lon="11.93763705285152"><ele>219.0</ele><time>2026-04-06T14:18:36Z</time></trkpt><trkpt lat="45.96392309365535" lon="11.93774930074477"><ele>226.0</ele><time>2026-04-06T14:18:37Z</time></trkpt><trkpt lat="45.96370784153058" lon="11.937860831084867"><ele>226.0</ele><time>2026-04-06T14:18:38Z</time></trkpt><trkpt lat="45.96350371817383" lon="11.937972951076775"><ele>226.0</ele><time>2026-04-06T14:18:39Z</time></trkpt><trkpt lat="45.96331085951374" lon="11.938084716015126"><ele>226.0</ele><time>2026-04-06T14:18:40Z</time></trkpt><trkpt lat="45.96312611909712" lon="11.938192667429956"><ele>228.66666666666666</ele><time>2026-04-06T14:18:41Z</time></trkpt><trkpt lat="45.96293970681918" lon="11.938295048088662"><ele>231.33333333333331</ele><time>2026-04-06T14:18:42Z</time></trkpt><trkpt lat="45.9627504750235" lon="11.93839554890612"><ele>234.0</ele><time>2026-04-06T14:18:43Z</time></trkpt><trkpt lat="45.962559612227466" lon="11.938478258623665"><ele>229.0</ele><time>2026-04-06T14:18:44Z</time></trkpt><trkpt lat="45.96237512137768" lon="11.938541350520467"><ele>224.0</ele><time>2026-04-06T14:18:45Z</time></trkpt><trkpt lat="45.962215936641115" lon="11.93858765716966"><ele>219.0</ele><time>2026-04-06T14:18:46Z</time></trkpt><trkpt lat="45.96207900669444" lon="11.938622760841254"><ele>219.0</ele><time>2026-04-06T14:18:47Z</time></trkpt><trkpt lat="45.96194831104553" lon="11.938649560960364"><ele>219.0</ele><time>2026-04-06T14:18:48Z</time></trkpt><trkpt lat="45.961818772933476" lon="11.938668389410509"><ele>219.0</ele><time>2026-04-06T14:18:49Z</time></trkpt><trkpt lat="45.96169524410562" lon="11.938684189805016"><ele>219.0</ele><time>2026-04-06T14:18:50Z</time></trkpt><trkpt lat="45.961568384612356" lon="11.938696891970906"><ele>216.6</ele><time>2026-04-06T14:18:51Z</time></trkpt><trkpt lat="45.96144752247315" lon="11.93870726978478"><ele>214.2</ele><time>2026-04-06T14:18:52Z</time></trkpt><trkpt lat="45.9613492393621" lon="11.938710073861637"><ele>211.79999999999998</ele><time>2026-04-06T14:18:53Z</time></trkpt><trkpt lat="45.96127407331565" lon="11.938723966430537"><ele>209.39999999999998</ele><time>2026-04-06T14:18:54Z</time></trkpt><trkpt lat="45.961220446116165" lon="11.938828267118305"><ele>207.0</ele><time>2026-04-06T14:18:56Z</time></trkpt><trkpt lat="45.96128115571854" lon="11.938930719407995"><ele>207.0</ele><time>2026-04-06T14:18:58Z</time></trkpt><trkpt lat="45.9613036427949" lon="11.93904106464625"><ele>207.0</ele><time>2026-04-06T14:18:59Z</time></trkpt><trkpt lat="45.9613830235939" lon="11.939036707669592"><ele>207.0</ele><time>2026-04-06T14:19:00Z</time></trkpt><trkpt lat="45.96144468065285" lon="11.938959337631177"><ele>207.0</ele><time>2026-04-06T14:19:01Z</time></trkpt><trkpt lat="45.96153738099871" lon="11.938979666783661"><ele>207.0</ele><time>2026-04-06T14:19:03Z</time></trkpt><trkpt lat="45.96162062966275" lon="11.938992620961617"><ele>207.0</ele><time>2026-04-06T14:19:05Z</time></trkpt><trkpt lat="45.96168851337556" lon="11.938983117138564"><ele>209.39999999999998</ele><time>2026-04-06T14:19:08Z</time></trkpt><trkpt lat="45.9617457185478" lon="11.939077542986889"><ele>211.79999999999998</ele><time>2026-04-06T14:22:12Z</time></trkpt><trkpt lat="45.96181911314581" lon="11.939007036155886"><ele>214.2</ele><time>2026-04-06T14:22:14Z</time></trkpt><trkpt lat="45.961905129301606" lon="11.93895589642577"><ele>216.6</ele><time>2026-04-06T14:22:16Z</time></trkpt><trkpt lat="45.96200334741242" lon="11.938883083367413"><ele>219.0</ele><time>2026-04-06T14:22:18Z</time></trkpt><trkpt lat="45.962071524182875" lon="11.93882170515404"><ele>219.0</ele><time>2026-04-06T14:22:20Z</time></trkpt><trkpt lat="45.9621228324163" lon="11.93875229842661"><ele>219.0</ele><time>2026-04-06T14:22:22Z</time></trkpt><trkpt lat="45.9621673934955" lon="11.938668154876474"><ele>219.0</ele><time>2026-04-06T14:22:26Z</time></trkpt><trkpt lat="45.96211713357944" lon="11.938608760605478"><ele>219.0</ele><time>2026-04-06T14:22:30Z</time></trkpt><trkpt lat="45.96199473494004" lon="11.93863312734753"><ele>219.0</ele><time>2026-04-06T14:22:32Z</time></trkpt><trkpt lat="45.961901215665456" lon="11.938646631328686"><ele>219.0</ele><time>2026-04-06T14:22:33Z</time></trkpt><trkpt lat="45.96180561199682" lon="11.938659344162874"><ele>219.0</ele><time>2026-04-06T14:22:34Z</time></trkpt><trkpt lat="45.96171624795964" lon="11.938669900401575"><ele>218.99999999999997</ele><time>2026-04-06T14:22:35Z</time></trkpt><trkpt lat="45.961632991880855" lon="11.938675291783717"><ele>218.99999999999997</ele><time>2026-04-06T14:22:36Z</time></trkpt><trkpt lat="45.96154557514389" lon="11.9386798568796"><ele>219.0</ele><time>2026-04-06T14:22:37Z</time></trkpt><trkpt lat="45.961442690169186" lon="11.938677135515464"><ele>219.0</ele><time>2026-04-06T14:22:38Z</time></trkpt><trkpt lat="45.96131611509535" lon="11.938670727475145"><ele>216.33333333333331</ele><time>2026-04-06T14:22:39Z</time></trkpt><trkpt lat="45.9611708599818" lon="11.938683490241727"><ele>213.66666666666666</ele><time>2026-04-06T14:22:40Z</time></trkpt><trkpt lat="45.961009818783666" lon="11.938660457833114"><ele>211.0</ele><time>2026-04-06T14:22:41Z</time></trkpt><trkpt lat="45.96083571305123" lon="11.938653306048245"><ele>211.0</ele><time>2026-04-06T14:22:42Z</time></trkpt><trkpt lat="45.96066653793082" lon="11.93864283060024"><ele>211.0</ele><time>2026-04-06T14:22:43Z</time></trkpt><trkpt lat="45.96048870035027" lon="11.938634309858806"><ele>211.0</ele><time>2026-04-06T14:22:44Z</time></trkpt><trkpt lat="45.96030417459363" lon="11.938622697619644"><ele>211.0</ele><time>2026-04-06T14:22:45Z</time></trkpt><trkpt lat="45.96011296806785" lon="11.938608249485497"><ele>211.0</ele><time>2026-04-06T14:22:46Z</time></trkpt><trkpt lat="45.95991809359848" lon="11.938593751245454"><ele>211.0</ele><time>2026-04-06T14:22:47Z</time></trkpt><trkpt lat="45.95971841471927" lon="11.938583264524729"><ele>211.66666666666666</ele><time>2026-04-06T14:22:48Z</time></trkpt><trkpt lat="45.95951705009442" lon="11.938570964387942"><ele>212.33333333333331</ele><time>2026-04-06T14:22:49Z</time></trkpt><trkpt lat="45.95931745724059" lon="11.938557611062814"><ele>213.0</ele><time>2026-04-06T14:22:50Z</time></trkpt><trkpt lat="45.95912021827253" lon="11.938540356569332"><ele>213.33333333333331</ele><time>2026-04-06T14:22:51Z</time></trkpt><trkpt lat="45.958924496499826" lon="11.938521960752537"><ele>213.66666666666666</ele><time>2026-04-06T14:22:52Z</time></trkpt><trkpt lat="45.95873167658709" lon="11.938509591754883"><ele>214.0</ele><time>2026-04-06T14:22:53Z</time></trkpt><trkpt lat="45.958541588089005" lon="11.938500786508763"><ele>211.0</ele><time>2026-04-06T14:22:54Z</time></trkpt><trkpt lat="45.95834823367131" lon="11.938491636153307"><ele>208.0</ele><time>2026-04-06T14:22:55Z</time></trkpt><trkpt lat="45.95815287427906" lon="11.938483316226456"><ele>205.0</ele><time>2026-04-06T14:22:56Z</time></trkpt><trkpt lat="45.95795555892061" lon="11.938473944661954"><ele>205.0</ele><time>2026-04-06T14:22:57Z</time></trkpt><trkpt lat="45.957759890253165" lon="11.938459212059012"><ele>205.0</ele><time>2026-04-06T14:22:58Z</time></trkpt><trkpt lat="45.957564501843514" lon="11.93844830198349"><ele>205.0</ele><time>2026-04-06T14:22:59Z</time></trkpt><trkpt lat="45.9573696023531" lon="11.93843846184215"><ele>206.66666666666666</ele><time>2026-04-06T14:23:00Z</time></trkpt><trkpt lat="45.95717560770676" lon="11.93842541843031"><ele>208.33333333333331</ele><time>2026-04-06T14:23:01Z</time></trkpt><trkpt lat="45.956984722338746" lon="11.938413746076892"><ele>210.0</ele><time>2026-04-06T14:23:02Z</time></trkpt><trkpt lat="45.95680189313989" lon="11.938401355482151"><ele>210.0</ele><time>2026-04-06T14:23:03Z</time></trkpt><trkpt lat="45.95662627896589" lon="11.938389632265075"><ele>210.0</ele><time>2026-04-06T14:23:04Z</time></trkpt><trkpt lat="45.95645154408253" lon="11.938375262450409"><ele>210.0</ele><time>2026-04-06T14:23:05Z</time></trkpt><trkpt lat="45.956277158277615" lon="11.938363087158905"><ele>206.66666666666669</ele><time>2026-04-06T14:23:06Z</time></trkpt><trkpt lat="45.95610250305819" lon="11.938345527571055"><ele>203.33333333333334</ele><time>2026-04-06T14:23:07Z</time></trkpt><trkpt lat="45.95593155745189" lon="11.938309931060896"><ele>200.0</ele><time>2026-04-06T14:23:08Z</time></trkpt><trkpt lat="45.95576178891678" lon="11.938257408022457"><ele>200.0</ele><time>2026-04-06T14:23:09Z</time></trkpt><trkpt lat="45.95559059798629" lon="11.93818800987527"><ele>200.0</ele><time>2026-04-06T14:23:10Z</time></trkpt><trkpt lat="45.95541908588704" lon="11.938108260458419"><ele>200.0</ele><time>2026-04-06T14:23:11Z</time></trkpt><trkpt lat="45.95525065493006" lon="11.938022375276754"><ele>200.0</ele><time>2026-04-06T14:23:12Z</time></trkpt><trkpt lat="45.95508720856332" lon="11.937946676393636"><ele>200.0</ele><time>2026-04-06T14:23:13Z</time></trkpt><trkpt lat="45.954933350007195" lon="11.937873716266633"><ele>200.0</ele><time>2026-04-06T14:23:14Z</time></trkpt><trkpt lat="45.95478533862098" lon="11.937801985211042"><ele>203.66666666666669</ele><time>2026-04-06T14:23:15Z</time></trkpt><trkpt lat="45.954641967475204" lon="11.937730534863542"><ele>207.33333333333331</ele><time>2026-04-06T14:23:16Z</time></trkpt><trkpt lat="45.95449737920153" lon="11.937652687329722"><ele>211.0</ele><time>2026-04-06T14:23:17Z</time></trkpt><trkpt lat="45.95435176439109" lon="11.937565946144508"><ele>208.33333333333331</ele><time>2026-04-06T14:23:18Z</time></trkpt><trkpt lat="45.95420856268755" lon="11.937470495923854"><ele>205.66666666666669</ele><time>2026-04-06T14:23:19Z</time></trkpt><trkpt lat="45.954067444784755" lon="11.937356602105261"><ele>203.0</ele><time>2026-04-06T14:23:20Z</time></trkpt><trkpt lat="45.95393120275659" lon="11.937232192171649"><ele>203.0</ele><time>2026-04-06T14:23:21Z</time></trkpt><trkpt lat="45.953800021107405" lon="11.937101289983081"><ele>203.0</ele><time>2026-04-06T14:23:22Z</time></trkpt><trkpt lat="45.95367303222989" lon="11.936961521328627"><ele>203.0</ele><time>2026-04-06T14:23:23Z</time></trkpt><trkpt lat="45.95354736509306" lon="11.936818463340162"><ele>203.66666666666669</ele><time>2026-04-06T14:23:24Z</time></trkpt><trkpt lat="45.9534250998993" lon="11.93667255638637"><ele>204.33333333333331</ele><time>2026-04-06T14:23:25Z</time></trkpt><trkpt lat="45.953307587227144" lon="11.936525872248863"><ele>205.0</ele><time>2026-04-06T14:23:26Z</time></trkpt><trkpt lat="45.95319487970662" lon="11.936379037891095"><ele>205.0</ele><time>2026-04-06T14:23:27Z</time></trkpt><trkpt lat="45.95307965580759" lon="11.936225957810565"><ele>205.0</ele><time>2026-04-06T14:23:28Z</time></trkpt><trkpt lat="45.952954475135854" lon="11.936068060510843"><ele>205.0</ele><time>2026-04-06T14:23:29Z</time></trkpt><trkpt lat="45.95282575014626" lon="11.935903390551674"><ele>201.33333333333331</ele><time>2026-04-06T14:23:30Z</time></trkpt><trkpt lat="45.95269265220253" lon="11.935737212863824"><ele>197.66666666666669</ele><time>2026-04-06T14:23:31Z</time></trkpt><trkpt lat="45.95256292900906" lon="11.935573253110123"><ele>194.0</ele><time>2026-04-06T14:23:32Z</time></trkpt><trkpt lat="45.95244167553312" lon="11.935412591679405"><ele>194.66666666666669</ele><time>2026-04-06T14:23:33Z</time></trkpt><trkpt lat="45.9523160053664" lon="11.935249595987203"><ele>195.33333333333331</ele><time>2026-04-06T14:23:34Z</time></trkpt><trkpt lat="45.95219105218275" lon="11.935080997148813"><ele>196.0</ele><time>2026-04-06T14:23:35Z</time></trkpt><trkpt lat="45.95205843663939" lon="11.934903442328084"><ele>196.0</ele><time>2026-04-06T14:23:36Z</time></trkpt><trkpt lat="45.95191806868941" lon="11.934712625246382"><ele>196.0</ele><time>2026-04-06T14:23:37Z</time></trkpt><trkpt lat="45.951775610903084" lon="11.934499144285006"><ele>196.0</ele><time>2026-04-06T14:23:38Z</time></trkpt><trkpt lat="45.9516351923741" lon="11.934259769779505"><ele>198.66666666666666</ele><time>2026-04-06T14:23:39Z</time></trkpt><trkpt lat="45.95149894105851" lon="11.934008413375041"><ele>201.33333333333331</ele><time>2026-04-06T14:23:40Z</time></trkpt><trkpt lat="45.95137030501443" lon="11.933753084612004"><ele>204.0</ele><time>2026-04-06T14:23:41Z</time></trkpt><trkpt lat="45.95124775332528" lon="11.933497445906294"><ele>200.33333333333331</ele><time>2026-04-06T14:23:42Z</time></trkpt><trkpt lat="45.95113418975075" lon="11.933246405227464"><ele>196.66666666666666</ele><time>2026-04-06T14:23:43Z</time></trkpt><trkpt lat="45.951031967692415" lon="11.933003812260901"><ele>193.0</ele><time>2026-04-06T14:23:44Z</time></trkpt><trkpt lat="45.95093340439732" lon="11.932773853687118"><ele>199.66666666666666</ele><time>2026-04-06T14:23:45Z</time></trkpt><trkpt lat="45.95083775208225" lon="11.932559511270217"><ele>206.33333333333331</ele><time>2026-04-06T14:23:46Z</time></trkpt><trkpt lat="45.95075139358142" lon="11.932356978970061"><ele>213.0</ele><time>2026-04-06T14:23:47Z</time></trkpt><trkpt lat="45.95066633696784" lon="11.932162756947076"><ele>213.0</ele><time>2026-04-06T14:23:48Z</time></trkpt><trkpt lat="45.950580607877974" lon="11.931985140588232"><ele>213.0</ele><time>2026-04-06T14:23:49Z</time></trkpt><trkpt lat="45.950488583194094" lon="11.93182102946029"><ele>213.0</ele><time>2026-04-06T14:23:50Z</time></trkpt><trkpt lat="45.95039754447365" lon="11.931669258674658"><ele>213.0</ele><time>2026-04-06T14:23:51Z</time></trkpt><trkpt lat="45.95030836601765" lon="11.931527754077605"><ele>209.25</ele><time>2026-04-06T14:23:52Z</time></trkpt><trkpt lat="45.950218568903104" lon="11.931391063599806"><ele>205.5</ele><time>2026-04-06T14:23:53Z</time></trkpt><trkpt lat="45.95012525698864" lon="11.931255950792067"><ele>201.75</ele><time>2026-04-06T14:23:54Z</time></trkpt><trkpt lat="45.9500258335167" lon="11.931108937625163"><ele>198.0</ele><time>2026-04-06T14:23:55Z</time></trkpt><trkpt lat="45.94992317567651" lon="11.930960926124248"><ele>198.66666666666669</ele><time>2026-04-06T14:23:56Z</time></trkpt><trkpt lat="45.94981247094847" lon="11.930802567410609"><ele>199.33333333333334</ele><time>2026-04-06T14:23:57.02Z</time></trkpt><trkpt lat="45.94969943417837" lon="11.93064226764864"><ele>200.0</ele><time>2026-04-06T14:23:58.014Z</time></trkpt><trkpt lat="45.949584494034866" lon="11.930474008241495"><ele>200.0</ele><time>2026-04-06T14:23:59.017Z</time></trkpt><trkpt lat="45.949467911203264" lon="11.930303864781623"><ele>200.0</ele><time>2026-04-06T14:24:00.019Z</time></trkpt><trkpt lat="45.94934878729567" lon="11.93013769196052"><ele>200.0</ele><time>2026-04-06T14:24:01.014Z</time></trkpt><trkpt lat="45.948684462388925" lon="11.929141609009289"><ele>201.33333333333334</ele><time>2026-04-06T14:24:07Z</time></trkpt><trkpt lat="45.94856418075974" lon="11.928973360470858"><ele>202.66666666666669</ele><time>2026-04-06T14:24:08Z</time></trkpt><trkpt lat="45.9484284546405" lon="11.928811091266244"><ele>204.0</ele><time>2026-04-06T14:24:09Z</time></trkpt><trkpt lat="45.94828936080129" lon="11.928679133609455"><ele>201.33333333333331</ele><time>2026-04-06T14:24:10Z</time></trkpt><trkpt lat="45.948162425580904" lon="11.928551716501314"><ele>198.66666666666666</ele><time>2026-04-06T14:24:11Z</time></trkpt><trkpt lat="45.94803681037385" lon="11.928437420277083"><ele>196.0</ele><time>2026-04-06T14:24:12Z</time></trkpt><trkpt lat="45.94789725321997" lon="11.928318752387833"><ele>196.0</ele><time>2026-04-06T14:24:13Z</time></trkpt><trkpt lat="45.94774736506009" lon="11.9282171661165"><ele>196.0</ele><time>2026-04-06T14:24:14Z</time></trkpt><trkpt lat="45.947589463459074" lon="11.928089284646195"><ele>196.0</ele><time>2026-04-06T14:24:15Z</time></trkpt><trkpt lat="45.94740539777583" lon="11.92798030846447"><ele>202.66666666666666</ele><time>2026-04-06T14:24:16Z</time></trkpt><trkpt lat="45.94720480471417" lon="11.927872330798536"><ele>209.33333333333331</ele><time>2026-04-06T14:24:17Z</time></trkpt><trkpt lat="45.94699096428406" lon="11.927771529989784"><ele>216.0</ele><time>2026-04-06T14:24:18Z</time></trkpt><trkpt lat="45.946772150844275" lon="11.927680246730898"><ele>217.0</ele><time>2026-04-06T14:24:19Z</time></trkpt><trkpt lat="45.94656533564089" lon="11.927565849043793"><ele>218.0</ele><time>2026-04-06T14:24:20Z</time></trkpt><trkpt lat="45.946366066495564" lon="11.927460490499149"><ele>219.0</ele><time>2026-04-06T14:24:21Z</time></trkpt><trkpt lat="45.94617147385009" lon="11.92735595335886"><ele>216.33333333333331</ele><time>2026-04-06T14:24:22Z</time></trkpt><trkpt lat="45.94598333572047" lon="11.927269179264849"><ele>213.66666666666666</ele><time>2026-04-06T14:24:23Z</time></trkpt><trkpt lat="45.94579293150715" lon="11.927129113202797"><ele>211.0</ele><time>2026-04-06T14:24:24Z</time></trkpt><trkpt lat="45.94561168130265" lon="11.926976430436023"><ele>211.0</ele><time>2026-04-06T14:24:25Z</time></trkpt><trkpt lat="45.9454349179078" lon="11.926795440453649"><ele>211.0</ele><time>2026-04-06T14:24:26Z</time></trkpt><trkpt lat="45.9452682216427" lon="11.926594476756495"><ele>211.0</ele><time>2026-04-06T14:24:27Z</time></trkpt><trkpt lat="45.94511335384214" lon="11.926378813865492"><ele>212.0</ele><time>2026-04-06T14:24:28Z</time></trkpt><trkpt lat="45.944965059003735" lon="11.926156812928781"><ele>213.0</ele><time>2026-04-06T14:24:29Z</time></trkpt><trkpt lat="45.944813923849956" lon="11.925934301423183"><ele>214.0</ele><time>2026-04-06T14:24:30Z</time></trkpt><trkpt lat="45.944660099160096" lon="11.925713097486392"><ele>208.66666666666666</ele><time>2026-04-06T14:24:31Z</time></trkpt><trkpt lat="45.944508508548694" lon="11.925496067286293"><ele>203.33333333333331</ele><time>2026-04-06T14:24:32Z</time></trkpt><trkpt lat="45.94435194797496" lon="11.92528749759232"><ele>198.0</ele><time>2026-04-06T14:24:33Z</time></trkpt><trkpt lat="45.94419182392641" lon="11.92509028423923"><ele>198.66666666666669</ele><time>2026-04-06T14:24:34Z</time></trkpt><trkpt lat="45.94402414987682" lon="11.924914185216144"><ele>199.33333333333334</ele><time>2026-04-06T14:24:35Z</time></trkpt><trkpt lat="45.94385075221323" lon="11.924762890599768"><ele>200.0</ele><time>2026-04-06T14:24:36Z</time></trkpt><trkpt lat="45.94367687690563" lon="11.924636930814952"><ele>200.0</ele><time>2026-04-06T14:24:37Z</time></trkpt><trkpt lat="45.943503967322094" lon="11.92453763315813"><ele>200.0</ele><time>2026-04-06T14:24:38Z</time></trkpt><trkpt lat="45.94333681734466" lon="11.924451288807365"><ele>200.0</ele><time>2026-04-06T14:24:39Z</time></trkpt><trkpt lat="45.94316906145128" lon="11.92438169208576"><ele>197.0</ele><time>2026-04-06T14:24:40Z</time></trkpt><trkpt lat="45.94300008162921" lon="11.924324528844453"><ele>194.0</ele><time>2026-04-06T14:24:41Z</time></trkpt><trkpt lat="45.94283586561202" lon="11.924269727709651"><ele>191.0</ele><time>2026-04-06T14:24:42Z</time></trkpt><trkpt lat="45.9426802440318" lon="11.92422702994251"><ele>193.0</ele><time>2026-04-06T14:24:43Z</time></trkpt><trkpt lat="45.94254523850133" lon="11.92417646935188"><ele>195.0</ele><time>2026-04-06T14:24:44Z</time></trkpt><trkpt lat="45.942416509542575" lon="11.924145721664813"><ele>197.0</ele><time>2026-04-06T14:24:45Z</time></trkpt><trkpt lat="45.94229656170771" lon="11.924146311381692"><ele>199.0</ele><time>2026-04-06T14:24:46Z</time></trkpt><trkpt lat="45.94218002243056" lon="11.924131357790264"><ele>199.0</ele><time>2026-04-06T14:24:47Z</time></trkpt><trkpt lat="45.94206823168454" lon="11.924141855775236"><ele>199.0</ele><time>2026-04-06T14:24:48Z</time></trkpt><trkpt lat="45.941963450286266" lon="11.924152216082852"><ele>199.0</ele><time>2026-04-06T14:24:49Z</time></trkpt><trkpt lat="45.941878935160666" lon="11.924166596252528"><ele>199.0</ele><time>2026-04-06T14:24:50Z</time></trkpt><trkpt lat="45.94181007697091" lon="11.924171027947992"><ele>199.0</ele><time>2026-04-06T14:24:51Z</time></trkpt><trkpt lat="45.94168656892205" lon="11.92418753804374"><ele>198.49999999999997</ele><time>2026-04-06T14:24:53Z</time></trkpt><trkpt lat="45.94162376999477" lon="11.924201712111232"><ele>198.0</ele><time>2026-04-06T14:24:54Z</time></trkpt><trkpt lat="45.9415142382359" lon="11.92419573258718"><ele>197.5</ele><time>2026-04-06T14:24:56Z</time></trkpt><trkpt lat="45.9414070663393" lon="11.924136919393282"><ele>197.0</ele><time>2026-04-06T14:24:58Z</time></trkpt><trkpt lat="45.941351028516536" lon="11.92408727722825"><ele>196.49999999999997</ele><time>2026-04-06T14:24:59Z</time></trkpt><trkpt lat="45.94129074700308" lon="11.924046915331328"><ele>196.0</ele><time>2026-04-06T14:25:00Z</time></trkpt><trkpt lat="45.94122736737057" lon="11.924006444714182"><ele>196.0</ele><time>2026-04-06T14:25:01Z</time></trkpt><trkpt lat="45.941156893897336" lon="11.924017482064938"><ele>196.0</ele><time>2026-04-06T14:25:02Z</time></trkpt><trkpt lat="45.94108979534642" lon="11.924086286666853"><ele>196.0</ele><time>2026-04-06T14:25:03Z</time></trkpt><trkpt lat="45.94103405378948" lon="11.92418436559154"><ele>196.0</ele><time>2026-04-06T14:25:04Z</time></trkpt><trkpt lat="45.94098692090483" lon="11.924314055517797"><ele>196.0</ele><time>2026-04-06T14:25:05Z</time></trkpt><trkpt lat="45.94089726117407" lon="11.924428401784755"><ele>199.25</ele><time>2026-04-06T14:25:06Z</time></trkpt><trkpt lat="45.94078199072007" lon="11.924527924142183"><ele>202.5</ele><time>2026-04-06T14:25:07Z</time></trkpt><trkpt lat="45.940697770963496" lon="11.924665695742421"><ele>205.75</ele><time>2026-04-06T14:25:08Z</time></trkpt><trkpt lat="45.94060412062164" lon="11.92478243607442"><ele>209.0</ele><time>2026-04-06T14:25:09Z</time></trkpt><trkpt lat="45.94049198896348" lon="11.924895194867508"><ele>209.0</ele><time>2026-04-06T14:25:10Z</time></trkpt><trkpt lat="45.9403517148906" lon="11.924976638972916"><ele>209.0</ele><time>2026-04-06T14:25:11Z</time></trkpt><trkpt lat="45.9402049483301" lon="11.925085632661307"><ele>209.0</ele><time>2026-04-06T14:25:12Z</time></trkpt><trkpt lat="45.9400496423074" lon="11.925202112729862"><ele>206.0</ele><time>2026-04-06T14:25:13Z</time></trkpt><trkpt lat="45.939884824657234" lon="11.925322989271848"><ele>203.0</ele><time>2026-04-06T14:25:14Z</time></trkpt><trkpt lat="45.93972497947986" lon="11.925440473157826"><ele>200.0</ele><time>2026-04-06T14:25:15Z</time></trkpt><trkpt lat="45.939571445776686" lon="11.92555470757256"><ele>200.0</ele><time>2026-04-06T14:25:16Z</time></trkpt><trkpt lat="45.93941402222397" lon="11.925671729352572"><ele>200.0</ele><time>2026-04-06T14:25:17Z</time></trkpt><trkpt lat="45.939255529039954" lon="11.925788260083424"><ele>200.0</ele><time>2026-04-06T14:25:18Z</time></trkpt><trkpt lat="45.93909773743918" lon="11.92590427507148"><ele>198.33333333333334</ele><time>2026-04-06T14:25:19Z</time></trkpt><trkpt lat="45.938936648320336" lon="11.926022714432799"><ele>196.66666666666669</ele><time>2026-04-06T14:25:20Z</time></trkpt><trkpt lat="45.93877626403579" lon="11.926140635442094"><ele>195.0</ele><time>2026-04-06T14:25:21Z</time></trkpt><trkpt lat="45.93861824617" lon="11.926256816856998"><ele>195.0</ele><time>2026-04-06T14:25:22Z</time></trkpt><trkpt lat="45.938461364736284" lon="11.926372162523775"><ele>195.0</ele><time>2026-04-06T14:25:23Z</time></trkpt><trkpt lat="45.93830900846726" lon="11.926484246712047"><ele>195.0</ele><time>2026-04-06T14:25:24Z</time></trkpt><trkpt lat="45.938160380346915" lon="11.926598217142695"><ele>193.33333333333334</ele><time>2026-04-06T14:25:25Z</time></trkpt><trkpt lat="45.93801668547287" lon="11.926714703951479"><ele>191.66666666666669</ele><time>2026-04-06T14:25:26Z</time></trkpt><trkpt lat="45.93787601920134" lon="11.926844591659842"><ele>190.0</ele><time>2026-04-06T14:25:27Z</time></trkpt><trkpt lat="45.93774691827004" lon="11.927000905820352"><ele>190.0</ele><time>2026-04-06T14:25:28Z</time></trkpt><trkpt lat="45.93760951923879" lon="11.92715408359475"><ele>190.0</ele><time>2026-04-06T14:25:29Z</time></trkpt><trkpt lat="45.93747871375047" lon="11.927317557391552"><ele>190.0</ele><time>2026-04-06T14:25:30Z</time></trkpt><trkpt lat="45.937360716232334" lon="11.92748473048676"><ele>190.33333333333334</ele><time>2026-04-06T14:25:31Z</time></trkpt><trkpt lat="45.93723807877615" lon="11.927630383453353"><ele>190.66666666666666</ele><time>2026-04-06T14:25:32Z</time></trkpt><trkpt lat="45.93713366376149" lon="11.927799152548038"><ele>191.0</ele><time>2026-04-06T14:25:33Z</time></trkpt><trkpt lat="45.93703374758431" lon="11.927976577552197"><ele>191.0</ele><time>2026-04-06T14:25:34Z</time></trkpt><trkpt lat="45.93694475409649" lon="11.928146039575482"><ele>191.0</ele><time>2026-04-06T14:25:35Z</time></trkpt><trkpt lat="45.936863415085526" lon="11.928313525153838"><ele>191.0</ele><time>2026-04-06T14:25:36Z</time></trkpt><trkpt lat="45.93679180495099" lon="11.928477098372289"><ele>191.0</ele><time>2026-04-06T14:25:37Z</time></trkpt><trkpt lat="45.93672641495785" lon="11.928639560738889"><ele>193.0</ele><time>2026-04-06T14:25:38Z</time></trkpt><trkpt lat="45.936664526749546" lon="11.92880622293313"><ele>195.0</ele><time>2026-04-06T14:25:39Z</time></trkpt><trkpt lat="45.936626681372616" lon="11.928985002096894"><ele>197.0</ele><time>2026-04-06T14:25:40Z</time></trkpt><trkpt lat="45.93658117760439" lon="11.929147978076893"><ele>199.0</ele><time>2026-04-06T14:25:41Z</time></trkpt><trkpt lat="45.93653797039503" lon="11.929305599862836"><ele>200.75</ele><time>2026-04-06T14:25:42Z</time></trkpt><trkpt lat="45.93649688069386" lon="11.929466730949244"><ele>202.5</ele><time>2026-04-06T14:25:43Z</time></trkpt><trkpt lat="45.93645903362983" lon="11.929627576866963"><ele>204.25</ele><time>2026-04-06T14:25:44Z</time></trkpt><trkpt lat="45.93642392247361" lon="11.929789600525517"><ele>206.0</ele><time>2026-04-06T14:25:45Z</time></trkpt><trkpt lat="45.936396198667445" lon="11.929948565325216"><ele>206.60000000000002</ele><time>2026-04-06T14:25:46Z</time></trkpt><trkpt lat="45.936373207745106" lon="11.930100581388443"><ele>207.2</ele><time>2026-04-06T14:25:47Z</time></trkpt><trkpt lat="45.936351496061015" lon="11.9302513328571"><ele>207.8</ele><time>2026-04-06T14:25:48Z</time></trkpt><trkpt lat="45.936307269956046" lon="11.930402989267394"><ele>208.39999999999998</ele><time>2026-04-06T14:25:49Z</time></trkpt><trkpt lat="45.93631297525316" lon="11.93057415024657"><ele>209.0</ele><time>2026-04-06T14:25:50Z</time></trkpt><trkpt lat="45.93630201155498" lon="11.930743927964954"><ele>209.2</ele><time>2026-04-06T14:25:51Z</time></trkpt><trkpt lat="45.93629761631721" lon="11.930906671019429"><ele>209.39999999999998</ele><time>2026-04-06T14:25:52Z</time></trkpt><trkpt lat="45.93629371250434" lon="11.931062234466"><ele>209.6</ele><time>2026-04-06T14:25:53Z</time></trkpt><trkpt lat="45.93629269868321" lon="11.931216536743547"><ele>209.8</ele><time>2026-04-06T14:25:54Z</time></trkpt><trkpt lat="45.936264456368676" lon="11.931383578579577"><ele>210.0</ele><time>2026-04-06T14:25:55Z</time></trkpt><trkpt lat="45.93627527631051" lon="11.93156530393351"><ele>209.75</ele><time>2026-04-06T14:25:56Z</time></trkpt><trkpt lat="45.936289235081325" lon="11.931747927117739"><ele>209.5</ele><time>2026-04-06T14:25:57Z</time></trkpt><trkpt lat="45.936306310269245" lon="11.931936581321855"><ele>209.25</ele><time>2026-04-06T14:25:58Z</time></trkpt><trkpt lat="45.93632925765291" lon="11.93214296524081"><ele>209.0</ele><time>2026-04-06T14:25:59Z</time></trkpt><trkpt lat="45.936359113034165" lon="11.932367391606581"><ele>207.66666666666669</ele><time>2026-04-06T14:26:00Z</time></trkpt><trkpt lat="45.93642226202784" lon="11.93259962460316"><ele>206.33333333333331</ele><time>2026-04-06T14:26:01Z</time></trkpt><trkpt lat="45.936460320614074" lon="11.932858554358736"><ele>205.0</ele><time>2026-04-06T14:26:02Z</time></trkpt><trkpt lat="45.936500700291624" lon="11.93313213358891"><ele>204.66666666666666</ele><time>2026-04-06T14:26:03Z</time></trkpt><trkpt lat="45.936536955104316" lon="11.933419165620984"><ele>204.33333333333331</ele><time>2026-04-06T14:26:04Z</time></trkpt><trkpt lat="45.936540325001815" lon="11.933718016690582"><ele>204.0</ele><time>2026-04-06T14:26:05Z</time></trkpt><trkpt lat="45.936575533957345" lon="11.933993349418872"><ele>204.33333333333331</ele><time>2026-04-06T14:26:06Z</time></trkpt><trkpt lat="45.93660721700607" lon="11.934251048377435"><ele>204.66666666666666</ele><time>2026-04-06T14:26:07Z</time></trkpt><trkpt lat="45.93663692070445" lon="11.93449445578091"><ele>205.0</ele><time>2026-04-06T14:26:08Z</time></trkpt><trkpt lat="45.93666051610518" lon="11.934723052600493"><ele>205.0</ele><time>2026-04-06T14:26:09Z</time></trkpt><trkpt lat="45.93667769741465" lon="11.93494289260507"><ele>205.0</ele><time>2026-04-06T14:26:10Z</time></trkpt><trkpt lat="45.936680456379946" lon="11.935171574791116"><ele>205.0</ele><time>2026-04-06T14:26:11Z</time></trkpt><trkpt lat="45.93667555527297" lon="11.935414038700888"><ele>205.66666666666666</ele><time>2026-04-06T14:26:12Z</time></trkpt><trkpt lat="45.9366550983426" lon="11.935666324730704"><ele>206.33333333333331</ele><time>2026-04-06T14:26:13Z</time></trkpt><trkpt lat="45.9366175200873" lon="11.93593035593737"><ele>207.0</ele><time>2026-04-06T14:26:14Z</time></trkpt><trkpt lat="45.936561510667794" lon="11.936209040492859"><ele>208.66666666666669</ele><time>2026-04-06T14:26:15Z</time></trkpt><trkpt lat="45.93649105705155" lon="11.936474690920367"><ele>210.33333333333334</ele><time>2026-04-06T14:26:16Z</time></trkpt><trkpt lat="45.93640722147442" lon="11.93672300581931"><ele>212.0</ele><time>2026-04-06T14:26:17Z</time></trkpt><trkpt lat="45.93631853330593" lon="11.936948171824818"><ele>213.0</ele><time>2026-04-06T14:26:18Z</time></trkpt><trkpt lat="45.936223930036796" lon="11.937156083721355"><ele>214.0</ele><time>2026-04-06T14:26:19Z</time></trkpt><trkpt lat="45.936134097228056" lon="11.937356651108589"><ele>215.0</ele><time>2026-04-06T14:26:20Z</time></trkpt><trkpt lat="45.93602153562648" lon="11.937527405624067"><ele>215.66666666666669</ele><time>2026-04-06T14:26:21Z</time></trkpt><trkpt lat="45.935899874242345" lon="11.93768645370363"><ele>216.33333333333331</ele><time>2026-04-06T14:26:22Z</time></trkpt><trkpt lat="45.93577161548179" lon="11.93782654795801"><ele>217.0</ele><time>2026-04-06T14:26:23Z</time></trkpt><trkpt lat="45.93564111824222" lon="11.93795172744727"><ele>217.0</ele><time>2026-04-06T14:26:24Z</time></trkpt><trkpt lat="45.93550884087328" lon="11.93806809512778"><ele>217.0</ele><time>2026-04-06T14:26:25Z</time></trkpt><trkpt lat="45.93537548548121" lon="11.938166380088639"><ele>217.0</ele><time>2026-04-06T14:26:26Z</time></trkpt><trkpt lat="45.93524139001654" lon="11.938252572110464"><ele>217.0</ele><time>2026-04-06T14:26:27Z</time></trkpt><trkpt lat="45.93510858355661" lon="11.938327810739402"><ele>217.0</ele><time>2026-04-06T14:26:28Z</time></trkpt><trkpt lat="45.93497557752287" lon="11.938392458885632"><ele>217.0</ele><time>2026-04-06T14:26:29Z</time></trkpt><trkpt lat="45.93484336421746" lon="11.938446360158117"><ele>217.0</ele><time>2026-04-06T14:26:30Z</time></trkpt><trkpt lat="45.93471093187329" lon="11.938498891540235"><ele>216.75</ele><time>2026-04-06T14:26:31Z</time></trkpt><trkpt lat="45.93457883354397" lon="11.938553166129562"><ele>216.5</ele><time>2026-04-06T14:26:32Z</time></trkpt><trkpt lat="45.9344443452011" lon="11.938607564131681"><ele>216.25</ele><time>2026-04-06T14:26:33Z</time></trkpt><trkpt lat="45.934311573509234" lon="11.938657021050707"><ele>216.0</ele><time>2026-04-06T14:26:34Z</time></trkpt><trkpt lat="45.93418264044756" lon="11.93870452073446"><ele>216.0</ele><time>2026-04-06T14:26:35Z</time></trkpt><trkpt lat="45.93405976331061" lon="11.938749258380238"><ele>216.0</ele><time>2026-04-06T14:26:36Z</time></trkpt><trkpt lat="45.93394426856531" lon="11.938793355764483"><ele>216.0</ele><time>2026-04-06T14:26:37Z</time></trkpt><trkpt lat="45.93383799605729" lon="11.938833971158372"><ele>216.0</ele><time>2026-04-06T14:26:38Z</time></trkpt><trkpt lat="45.93374081241869" lon="11.938880624682321"><ele>216.0</ele><time>2026-04-06T14:26:39Z</time></trkpt><trkpt lat="45.933650462365506" lon="11.938924834493122"><ele>216.0</ele><time>2026-04-06T14:26:40Z</time></trkpt><trkpt lat="45.93356543818628" lon="11.938959946435027"><ele>216.0</ele><time>2026-04-06T14:26:41Z</time></trkpt><trkpt lat="45.93348267796136" lon="11.938989970824553"><ele>216.0</ele><time>2026-04-06T14:26:42Z</time></trkpt><trkpt lat="45.933401976386115" lon="11.939010600450823"><ele>216.0</ele><time>2026-04-06T14:26:43Z</time></trkpt><trkpt lat="45.93332523157579" lon="11.939052588690375"><ele>216.0</ele><time>2026-04-06T14:26:44Z</time></trkpt><trkpt lat="45.933235784635016" lon="11.939055503546232"><ele>215.20000000000002</ele><time>2026-04-06T14:26:45Z</time></trkpt><trkpt lat="45.93314859092994" lon="11.939090575405336"><ele>214.40000000000003</ele><time>2026-04-06T14:26:46Z</time></trkpt><trkpt lat="45.93307615027338" lon="11.939193167671874"><ele>213.6</ele><time>2026-04-06T14:26:47Z</time></trkpt><trkpt lat="45.933037681539844" lon="11.939288209509689"><ele>212.8</ele><time>2026-04-06T14:26:48Z</time></trkpt><trkpt lat="45.93308459043868" lon="11.939472571816484"><ele>212.0</ele><time>2026-04-06T14:26:49Z</time></trkpt><trkpt lat="45.93308466115712" lon="11.939630629105336"><ele>214.75</ele><time>2026-04-06T14:26:50Z</time></trkpt><trkpt lat="45.93304898443459" lon="11.939773626401221"><ele>217.5</ele><time>2026-04-06T14:26:51Z</time></trkpt><trkpt lat="45.932976002418464" lon="11.93990694018219"><ele>220.25</ele><time>2026-04-06T14:26:52Z</time></trkpt><trkpt lat="45.9328727237595" lon="11.940028125738277"><ele>223.0</ele><time>2026-04-06T14:26:53Z</time></trkpt><trkpt lat="45.932755040786816" lon="11.940157608865674"><ele>224.0</ele><time>2026-04-06T14:26:54Z</time></trkpt><trkpt lat="45.932629763226615" lon="11.940301823987395"><ele>225.0</ele><time>2026-04-06T14:26:55Z</time></trkpt><trkpt lat="45.932494265551206" lon="11.940460640360799"><ele>226.0</ele><time>2026-04-06T14:26:56Z</time></trkpt><trkpt lat="45.932345378494546" lon="11.94059576817403"><ele>226.0</ele><time>2026-04-06T14:26:57Z</time></trkpt><trkpt lat="45.932199586607105" lon="11.94074547410211"><ele>226.0</ele><time>2026-04-06T14:26:58Z</time></trkpt><trkpt lat="45.93204339615065" lon="11.940899061971066"><ele>226.0</ele><time>2026-04-06T14:26:59Z</time></trkpt><trkpt lat="45.931877164050086" lon="11.941045686424864"><ele>231.33333333333331</ele><time>2026-04-06T14:27:00Z</time></trkpt><trkpt lat="45.931708702404485" lon="11.94118590117558"><ele>236.66666666666669</ele><time>2026-04-06T14:27:01Z</time></trkpt><trkpt lat="45.93152886993885" lon="11.941277621321625"><ele>242.0</ele><time>2026-04-06T14:27:02Z</time></trkpt><trkpt lat="45.931356403408984" lon="11.941354827988635"><ele>242.0</ele><time>2026-04-06T14:27:03Z</time></trkpt><trkpt lat="45.93119316609513" lon="11.941432519849316"><ele>242.0</ele><time>2026-04-06T14:27:04Z</time></trkpt><trkpt lat="45.93102513665121" lon="11.941505500284867"><ele>242.0</ele><time>2026-04-06T14:27:05Z</time></trkpt><trkpt lat="45.930894215500025" lon="11.941651886767753"><ele>245.33333333333334</ele><time>2026-04-06T14:27:06Z</time></trkpt><trkpt lat="45.93076537507564" lon="11.94177966870823"><ele>248.66666666666669</ele><time>2026-04-06T14:27:07Z</time></trkpt><trkpt lat="45.930657208108336" lon="11.941952910533617"><ele>252.0</ele><time>2026-04-06T14:27:08Z</time></trkpt><trkpt lat="45.93057055808222" lon="11.942139030231841"><ele>252.0</ele><time>2026-04-06T14:27:09Z</time></trkpt><trkpt lat="45.93049756023608" lon="11.94233074549818"><ele>252.0</ele><time>2026-04-06T14:27:10Z</time></trkpt><trkpt lat="45.93042070884759" lon="11.942512562549048"><ele>252.0</ele><time>2026-04-06T14:27:11Z</time></trkpt><trkpt lat="45.930330139993536" lon="11.942688028507941"><ele>255.66666666666669</ele><time>2026-04-06T14:27:12Z</time></trkpt><trkpt lat="45.930240308813474" lon="11.9428578478312"><ele>259.33333333333337</ele><time>2026-04-06T14:27:13Z</time></trkpt><trkpt lat="45.93014229302118" lon="11.943043140062969"><ele>263.0</ele><time>2026-04-06T14:27:14Z</time></trkpt><trkpt lat="45.93003551901414" lon="11.943244988641041"><ele>272.0</ele><time>2026-04-06T14:27:15.014Z</time></trkpt><trkpt lat="45.92992248652851" lon="11.943457761528968"><ele>281.0</ele><time>2026-04-06T14:27:16.022Z</time></trkpt><trkpt lat="45.92980437111349" lon="11.943678760910748"><ele>290.0</ele><time>2026-04-06T14:27:17.016Z</time></trkpt><trkpt lat="45.929679684293916" lon="11.94391205541965"><ele>290.0</ele><time>2026-04-06T14:27:18.021Z</time></trkpt><trkpt lat="45.929567388722674" lon="11.94415938219074"><ele>290.0</ele><time>2026-04-06T14:27:19.021Z</time></trkpt><trkpt lat="45.929439604358464" lon="11.944388791754747"><ele>290.0</ele><time>2026-04-06T14:27:20.021Z</time></trkpt><trkpt lat="45.929311709830806" lon="11.944619303041122"><ele>300.0</ele><time>2026-04-06T14:27:21.022Z</time></trkpt><trkpt lat="45.928744255515724" lon="11.945675347540512"><ele>299.6666666666667</ele><time>2026-04-06T14:27:25.552Z</time></trkpt><trkpt lat="45.92860786686703" lon="11.94589506598181"><ele>299.33333333333337</ele><time>2026-04-06T14:27:26.552Z</time></trkpt><trkpt lat="45.92847076742905" lon="11.946113842766414"><ele>299.0</ele><time>2026-04-06T14:27:27.552Z</time></trkpt><trkpt lat="45.92831512688143" lon="11.946306076576827"><ele>299.0</ele><time>2026-04-06T14:27:28.552Z</time></trkpt><trkpt lat="45.92817781038533" lon="11.946526227294758"><ele>299.0</ele><time>2026-04-06T14:27:29.553Z</time></trkpt><trkpt lat="45.92801604532726" lon="11.946707821971215"><ele>299.0</ele><time>2026-04-06T14:27:30.552Z</time></trkpt><trkpt lat="45.927874071186004" lon="11.946921334230492"><ele>293.6666666666667</ele><time>2026-04-06T14:27:31.552Z</time></trkpt><trkpt lat="45.927715844295385" lon="11.947108586981699"><ele>288.3333333333333</ele><time>2026-04-06T14:27:32.552Z</time></trkpt><trkpt lat="45.927543606486246" lon="11.947269406372328"><ele>283.0</ele><time>2026-04-06T14:27:33.552Z</time></trkpt><trkpt lat="45.92737854500771" lon="11.947444551597863"><ele>294.0</ele><time>2026-04-06T14:27:34.553Z</time></trkpt><trkpt lat="45.92722153437362" lon="11.947634463475389"><ele>305.0</ele><time>2026-04-06T14:27:35.552Z</time></trkpt><trkpt lat="45.92705116105292" lon="11.947798461188322"><ele>316.0</ele><time>2026-04-06T14:27:36.552Z</time></trkpt><trkpt lat="45.9268687199491" lon="11.947934653592892"><ele>304.3333333333333</ele><time>2026-04-06T14:27:37.553Z</time></trkpt><trkpt lat="45.926692633369086" lon="11.94808518160991"><ele>292.6666666666667</ele><time>2026-04-06T14:27:38.552Z</time></trkpt><trkpt lat="45.92651481995126" lon="11.94822962051042"><ele>281.0</ele><time>2026-04-06T14:27:39.552Z</time></trkpt><trkpt lat="45.92633326542622" lon="11.948366587917443"><ele>295.33333333333337</ele><time>2026-04-06T14:27:40.552Z</time></trkpt><trkpt lat="45.92615757240233" lon="11.948519633623073"><ele>309.6666666666667</ele><time>2026-04-06T14:27:41.552Z</time></trkpt><trkpt lat="45.92597018691653" lon="11.94863959887206"><ele>324.0</ele><time>2026-04-06T14:27:42.552Z</time></trkpt><trkpt lat="45.925774943065846" lon="11.948733894027532"><ele>324.0</ele><time>2026-04-06T14:27:43.553Z</time></trkpt><trkpt lat="45.92559147967535" lon="11.948866470014638"><ele>324.0</ele><time>2026-04-06T14:27:44.552Z</time></trkpt><trkpt lat="45.925400549434265" lon="11.948974738069445"><ele>324.0</ele><time>2026-04-06T14:27:45.553Z</time></trkpt><trkpt lat="45.925201999876336" lon="11.949050979105355"><ele>334.6666666666667</ele><time>2026-04-06T14:27:46.552Z</time></trkpt><trkpt lat="45.925011670953424" lon="11.949162185931106"><ele>345.33333333333337</ele><time>2026-04-06T14:27:47.552Z</time></trkpt><trkpt lat="45.924809574337196" lon="11.949218038305359"><ele>356.0</ele><time>2026-04-06T14:27:48.552Z</time></trkpt><trkpt lat="45.92461189976209" lon="11.949295046300664"><ele>356.0</ele><time>2026-04-06T14:27:49.552Z</time></trkpt><trkpt lat="45.924416448700846" lon="11.94938747347308"><ele>356.0</ele><time>2026-04-06T14:27:50.552Z</time></trkpt><trkpt lat="45.92421564120375" lon="11.949448189690056"><ele>356.0</ele><time>2026-04-06T14:27:51.552Z</time></trkpt><trkpt lat="45.92401103373616" lon="11.949477951221002"><ele>341.6666666666667</ele><time>2026-04-06T14:27:52.552Z</time></trkpt><trkpt lat="45.92381133020892" lon="11.949549562104437"><ele>327.3333333333333</ele><time>2026-04-06T14:27:53.552Z</time></trkpt><trkpt lat="45.92360623398545" lon="11.949566215938225"><ele>313.0</ele><time>2026-04-06T14:27:54.552Z</time></trkpt><trkpt lat="45.923403866915216" lon="11.949619384971308"><ele>298.66666666666663</ele><time>2026-04-06T14:27:55.552Z</time></trkpt><trkpt lat="45.9231991366604" lon="11.949640043763955"><ele>284.3333333333333</ele><time>2026-04-06T14:27:56.552Z</time></trkpt><trkpt lat="45.92299422073815" lon="11.949656699131802"><ele>270.0</ele><time>2026-04-06T14:27:57.552Z</time></trkpt><trkpt lat="45.92278917907879" lon="11.949668729069852"><ele>270.0</ele><time>2026-04-06T14:27:58.552Z</time></trkpt><trkpt lat="45.92258363189062" lon="11.949653038251707"><ele>270.0</ele><time>2026-04-06T14:27:59.552Z</time></trkpt><trkpt lat="45.922378448330086" lon="11.949659586133118"><ele>270.0</ele><time>2026-04-06T14:28:00.552Z</time></trkpt><trkpt lat="45.922173627722344" lon="11.949689976562325"><ele>261.6666666666667</ele><time>2026-04-06T14:28:01.552Z</time></trkpt><trkpt lat="45.921968390005354" lon="11.949696526182253"><ele>253.33333333333334</ele><time>2026-04-06T14:28:02.552Z</time></trkpt><trkpt lat="45.92176323482939" lon="11.94970413419545"><ele>245.0</ele><time>2026-04-06T14:28:03.552Z</time></trkpt><trkpt lat="45.921557204674926" lon="11.949692530842977"><ele>227.0</ele><time>2026-04-06T14:28:04.553Z</time></trkpt><trkpt lat="45.92115133539394" lon="11.949731418874068"><ele>209.0</ele><time>2026-04-06T14:28:13Z</time></trkpt><trkpt lat="45.92098472166924" lon="11.949777384176269"><ele>204.0</ele><time>2026-04-06T14:28:14Z</time></trkpt><trkpt lat="45.92077272116448" lon="11.949773297380169"><ele>199.0</ele><time>2026-04-06T14:28:15Z</time></trkpt><trkpt lat="45.92060722707883" lon="11.94980909042828"><ele>194.0</ele><time>2026-04-06T14:28:16Z</time></trkpt><trkpt lat="45.92043028234395" lon="11.94983090229501"><ele>194.0</ele><time>2026-04-06T14:28:17Z</time></trkpt><trkpt lat="45.92025180128458" lon="11.949858351461334"><ele>194.0</ele><time>2026-04-06T14:28:18Z</time></trkpt><trkpt lat="45.920069190995726" lon="11.949858056508827"><ele>194.0</ele><time>2026-04-06T14:28:19Z</time></trkpt><trkpt lat="45.919897401076355" lon="11.949878219657277"><ele>192.0</ele><time>2026-04-06T14:28:20Z</time></trkpt><trkpt lat="45.91971664228298" lon="11.949901321521864"><ele>190.0</ele><time>2026-04-06T14:28:21Z</time></trkpt><trkpt lat="45.919529351414965" lon="11.94992488493562"><ele>188.0</ele><time>2026-04-06T14:28:22Z</time></trkpt><trkpt lat="45.92226559137169" lon="11.94917463018931"><ele>187.0</ele><time>2026-04-06T14:28:23Z</time></trkpt><trkpt lat="45.919166462662545" lon="11.949998173394082"><ele>187.0</ele><time>2026-04-06T14:28:24Z</time></trkpt><trkpt lat="45.91897645471242" lon="11.950015202511377"><ele>187.0</ele><time>2026-04-06T14:28:25Z</time></trkpt><trkpt lat="45.91878646142758" lon="11.950036255396231"><ele>187.0</ele><time>2026-04-06T14:28:26Z</time></trkpt><trkpt lat="45.918597877476856" lon="11.950037433133666"><ele>188.0</ele><time>2026-04-06T14:28:27Z</time></trkpt><trkpt lat="45.918415215848476" lon="11.950084485538952"><ele>189.0</ele><time>2026-04-06T14:28:28Z</time></trkpt><trkpt lat="45.91822949142121" lon="11.950084366561178"><ele>190.0</ele><time>2026-04-06T14:28:29Z</time></trkpt><trkpt lat="45.9180415369694" lon="11.950107632835188"><ele>190.0</ele><time>2026-04-06T14:28:30Z</time></trkpt><trkpt lat="45.917861417287504" lon="11.950148045731584"><ele>190.0</ele><time>2026-04-06T14:28:31Z</time></trkpt><trkpt lat="45.9176895683826" lon="11.950154094156835"><ele>190.0</ele><time>2026-04-06T14:28:32Z</time></trkpt><trkpt lat="45.91752650542305" lon="11.950164350270322"><ele>187.33333333333334</ele><time>2026-04-06T14:28:33Z</time></trkpt><trkpt lat="45.91735769685497" lon="11.950168371238448"><ele>184.66666666666666</ele><time>2026-04-06T14:28:34Z</time></trkpt><trkpt lat="45.91718753761974" lon="11.950165937810091"><ele>182.0</ele><time>2026-04-06T14:28:35Z</time></trkpt><trkpt lat="45.91701204643698" lon="11.950158557674811"><ele>182.0</ele><time>2026-04-06T14:28:36Z</time></trkpt><trkpt lat="45.91683083419424" lon="11.950131904287586"><ele>182.0</ele><time>2026-04-06T14:28:37Z</time></trkpt><trkpt lat="45.91664611601621" lon="11.950123897319976"><ele>182.0</ele><time>2026-04-06T14:28:38Z</time></trkpt><trkpt lat="45.916449724430564" lon="11.950135577286021"><ele>181.33333333333331</ele><time>2026-04-06T14:28:39Z</time></trkpt><trkpt lat="45.91625346314915" lon="11.950140634171023"><ele>180.66666666666666</ele><time>2026-04-06T14:28:40Z</time></trkpt><trkpt lat="45.91603042045756" lon="11.950115302114815"><ele>180.0</ele><time>2026-04-06T14:28:41Z</time></trkpt><trkpt lat="45.91578072218145" lon="11.950111575436754"><ele>180.0</ele><time>2026-04-06T14:28:42Z</time></trkpt><trkpt lat="45.91555245684007" lon="11.95010961364277"><ele>180.0</ele><time>2026-04-06T14:28:43Z</time></trkpt><trkpt lat="45.91532342506665" lon="11.950108669581365"><ele>180.0</ele><time>2026-04-06T14:28:44Z</time></trkpt><trkpt lat="45.915101359228586" lon="11.950107846883666"><ele>180.0</ele><time>2026-04-06T14:28:45Z</time></trkpt><trkpt lat="45.91488342965814" lon="11.950106161496159"><ele>180.0</ele><time>2026-04-06T14:28:46Z</time></trkpt><trkpt lat="45.91467811291337" lon="11.950103789264892"><ele>179.0</ele><time>2026-04-06T14:28:47Z</time></trkpt><trkpt lat="45.91446457601597" lon="11.950101321980775"><ele>178.0</ele><time>2026-04-06T14:28:48Z</time></trkpt><trkpt lat="45.914230674439196" lon="11.950154013831076"><ele>178.0</ele><time>2026-04-06T14:28:49Z</time></trkpt><trkpt lat="45.913985203127496" lon="11.950145764494094"><ele>178.0</ele><time>2026-04-06T14:28:50Z</time></trkpt><trkpt lat="45.91376077079606" lon="11.950132129656781"><ele>178.0</ele><time>2026-04-06T14:28:51Z</time></trkpt><trkpt lat="45.91359558938038" lon="11.95011191663155"><ele>178.0</ele><time>2026-04-06T14:28:52Z</time></trkpt><trkpt lat="45.91343371886207" lon="11.950105102786656"><ele>178.0</ele><time>2026-04-06T14:28:53Z</time></trkpt><trkpt lat="45.91328382083347" lon="11.950113810423547"><ele>177.75</ele><time>2026-04-06T14:28:54Z</time></trkpt><trkpt lat="45.913135916084535" lon="11.950132802518684"><ele>177.5</ele><time>2026-04-06T14:28:55Z</time></trkpt><trkpt lat="45.91299556972776" lon="11.950158543308065"><ele>177.25</ele><time>2026-04-06T14:28:56Z</time></trkpt><trkpt lat="45.91286026329383" lon="11.950183292178492"><ele>177.0</ele><time>2026-04-06T14:28:57Z</time></trkpt><trkpt lat="45.912723120890455" lon="11.950209193541756"><ele>177.0</ele><time>2026-04-06T14:28:58Z</time></trkpt><trkpt lat="45.912572951511684" lon="11.95021965566838"><ele>177.0</ele><time>2026-04-06T14:28:59Z</time></trkpt><trkpt lat="45.9124107933125" lon="11.950257084424075"><ele>177.0</ele><time>2026-04-06T14:29:00Z</time></trkpt><trkpt lat="45.91224112745053" lon="11.950320936986367"><ele>177.66666666666666</ele><time>2026-04-06T14:29:01Z</time></trkpt><trkpt lat="45.912060458003154" lon="11.950351605452687"><ele>178.33333333333331</ele><time>2026-04-06T14:29:02Z</time></trkpt><trkpt lat="45.911871900139495" lon="11.950388957040918"><ele>179.0</ele><time>2026-04-06T14:29:03Z</time></trkpt><trkpt lat="45.91167418339205" lon="11.950435469039778"><ele>177.66666666666666</ele><time>2026-04-06T14:29:04Z</time></trkpt><trkpt lat="45.911469380575795" lon="11.950487537588325"><ele>176.33333333333334</ele><time>2026-04-06T14:29:05Z</time></trkpt><trkpt lat="45.91125707822893" lon="11.950543508961267"><ele>175.0</ele><time>2026-04-06T14:29:06Z</time></trkpt><trkpt lat="45.91103388292542" lon="11.950573710681509"><ele>175.0</ele><time>2026-04-06T14:29:07Z</time></trkpt><trkpt lat="45.910810249247895" lon="11.950652315849865"><ele>175.0</ele><time>2026-04-06T14:29:08Z</time></trkpt><trkpt lat="45.91057488448214" lon="11.950685402274217"><ele>175.0</ele><time>2026-04-06T14:29:09Z</time></trkpt><trkpt lat="45.910337686676755" lon="11.950742938977474"><ele>175.0</ele><time>2026-04-06T14:29:10Z</time></trkpt><trkpt lat="45.91010070773758" lon="11.950823726995555"><ele>176.0</ele><time>2026-04-06T14:29:11Z</time></trkpt><trkpt lat="45.90985780294829" lon="11.950880496785597"><ele>177.0</ele><time>2026-04-06T14:29:12Z</time></trkpt><trkpt lat="45.909612554726436" lon="11.950937351693314"><ele>177.0</ele><time>2026-04-06T14:29:13Z</time></trkpt><trkpt lat="45.90936629150495" lon="11.950991086914675"><ele>177.0</ele><time>2026-04-06T14:29:14Z</time></trkpt><trkpt lat="45.90912216019522" lon="11.951046534033557"><ele>178.0</ele><time>2026-04-06T14:29:15Z</time></trkpt><trkpt lat="45.90888095361433" lon="11.951105977456631"><ele>179.0</ele><time>2026-04-06T14:29:16Z</time></trkpt><trkpt lat="45.90864091907787" lon="11.951166404488426"><ele>178.0</ele><time>2026-04-06T14:29:17Z</time></trkpt><trkpt lat="45.90840546807459" lon="11.95122452416956"><ele>177.0</ele><time>2026-04-06T14:29:18Z</time></trkpt><trkpt lat="45.908177785748975" lon="11.951277006843144"><ele>177.0</ele><time>2026-04-06T14:29:19Z</time></trkpt><trkpt lat="45.90795732311213" lon="11.95132775256575"><ele>177.0</ele><time>2026-04-06T14:29:20Z</time></trkpt><trkpt lat="45.90774250121496" lon="11.951382972196749"><ele>177.0</ele><time>2026-04-06T14:29:21Z</time></trkpt><trkpt lat="45.90753311876602" lon="11.951434546555593"><ele>176.0</ele><time>2026-04-06T14:29:22Z</time></trkpt><trkpt lat="45.907326933892044" lon="11.951485592279202"><ele>175.0</ele><time>2026-04-06T14:29:23Z</time></trkpt><trkpt lat="45.907128888335315" lon="11.951532673152212"><ele>174.0</ele><time>2026-04-06T14:29:24Z</time></trkpt><trkpt lat="45.90693851854616" lon="11.951575877202206"><ele>174.0</ele><time>2026-04-06T14:29:25Z</time></trkpt><trkpt lat="45.9067564780102" lon="11.951617614603585"><ele>174.0</ele><time>2026-04-06T14:29:26Z</time></trkpt><trkpt lat="45.9065836271366" lon="11.951658667277199"><ele>174.0</ele><time>2026-04-06T14:29:27Z</time></trkpt><trkpt lat="45.90641721498198" lon="11.951699275015079"><ele>174.0</ele><time>2026-04-06T14:29:28Z</time></trkpt><trkpt lat="45.906257475605834" lon="11.951723138466999"><ele>174.0</ele><time>2026-04-06T14:29:29Z</time></trkpt><trkpt lat="45.90610430240146" lon="11.951717346309817"><ele>174.0</ele><time>2026-04-06T14:29:30Z</time></trkpt><trkpt lat="45.90596004182267" lon="11.951684406387376"><ele>174.5</ele><time>2026-04-06T14:29:31Z</time></trkpt><trkpt lat="45.90581850759822" lon="11.951645454749137"><ele>175.0</ele><time>2026-04-06T14:29:32Z</time></trkpt><trkpt lat="45.9056771595744" lon="11.951606540773284"><ele>175.5</ele><time>2026-04-06T14:29:33Z</time></trkpt><trkpt lat="45.905525044352586" lon="11.951588206505168"><ele>176.0</ele><time>2026-04-06T14:29:34Z</time></trkpt><trkpt lat="45.90536383826475" lon="11.95159395717802"><ele>176.0</ele><time>2026-04-06T14:29:35Z</time></trkpt><trkpt lat="45.90519582508943" lon="11.951614095394582"><ele>176.0</ele><time>2026-04-06T14:29:36Z</time></trkpt><trkpt lat="45.90502180494495" lon="11.95164127888439"><ele>176.0</ele><time>2026-04-06T14:29:37Z</time></trkpt><trkpt lat="45.90484007556183" lon="11.951669933426096"><ele>179.33333333333331</ele><time>2026-04-06T14:29:38Z</time></trkpt><trkpt lat="45.90465158039015" lon="11.951689061515358"><ele>182.66666666666666</ele><time>2026-04-06T14:29:39Z</time></trkpt><trkpt lat="45.90445741816635" lon="11.951697090492255"><ele>186.0</ele><time>2026-04-06T14:29:40Z</time></trkpt><trkpt lat="45.904253754006845" lon="11.95169341223053"><ele>185.33333333333334</ele><time>2026-04-06T14:29:41Z</time></trkpt><trkpt lat="45.90404822844163" lon="11.95168602582955"><ele>184.66666666666669</ele><time>2026-04-06T14:29:42Z</time></trkpt><trkpt lat="45.903851130736356" lon="11.951684457258917"><ele>184.0</ele><time>2026-04-06T14:29:43Z</time></trkpt><trkpt lat="45.90366498288699" lon="11.951682656766163"><ele>184.0</ele><time>2026-04-06T14:29:44Z</time></trkpt><trkpt lat="45.903482322226935" lon="11.95165467666109"><ele>184.0</ele><time>2026-04-06T14:29:45Z</time></trkpt><trkpt lat="45.9032989692771" lon="11.951646577799202"><ele>184.0</ele><time>2026-04-06T14:29:46Z</time></trkpt><trkpt lat="45.90312115903478" lon="11.951637019669876"><ele>184.66666666666669</ele><time>2026-04-06T14:29:47Z</time></trkpt><trkpt lat="45.902953722365105" lon="11.95162929862514"><ele>185.33333333333334</ele><time>2026-04-06T14:29:48Z</time></trkpt><trkpt lat="45.90279577389157" lon="11.951622737094384"><ele>186.0</ele><time>2026-04-06T14:29:49Z</time></trkpt><trkpt lat="45.902644429920656" lon="11.951617017953033"><ele>186.75</ele><time>2026-04-06T14:29:50Z</time></trkpt><trkpt lat="45.902500238429106" lon="11.95161175260628"><ele>187.5</ele><time>2026-04-06T14:29:51Z</time></trkpt><trkpt lat="45.90236269231776" lon="11.951606753646955"><ele>188.25</ele><time>2026-04-06T14:29:52Z</time></trkpt><trkpt lat="45.902226342672684" lon="11.951601703450509"><ele>189.0</ele><time>2026-04-06T14:29:53Z</time></trkpt><trkpt lat="45.90209140535067" lon="11.951596402342826"><ele>189.0</ele><time>2026-04-06T14:29:54Z</time></trkpt><trkpt lat="45.901956081405025" lon="11.951591086046129"><ele>189.0</ele><time>2026-04-06T14:29:55Z</time></trkpt><trkpt lat="45.90182122344087" lon="11.951586241334045"><ele>189.0</ele><time>2026-04-06T14:29:56Z</time></trkpt><trkpt lat="45.90168650055703" lon="11.951581420898902"><ele>189.0</ele><time>2026-04-06T14:29:57Z</time></trkpt><trkpt lat="45.90155001760012" lon="11.951576537485051"><ele>188.75</ele><time>2026-04-06T14:29:58Z</time></trkpt><trkpt lat="45.901404676946974" lon="11.95157128703111"><ele>188.5</ele><time>2026-04-06T14:29:59Z</time></trkpt><trkpt lat="45.901258771077195" lon="11.951565943653245"><ele>188.25</ele><time>2026-04-06T14:30:00Z</time></trkpt><trkpt lat="45.90112133615821" lon="11.951560910507267"><ele>188.0</ele><time>2026-04-06T14:30:01Z</time></trkpt><trkpt lat="45.90099087982828" lon="11.95155703862655"><ele>189.4</ele><time>2026-04-06T14:30:02Z</time></trkpt><trkpt lat="45.90086806516861" lon="11.951556060021526"><ele>190.8</ele><time>2026-04-06T14:30:03Z</time></trkpt><trkpt lat="45.900750934492386" lon="11.951559619973882"><ele>192.2</ele><time>2026-04-06T14:30:04Z</time></trkpt><trkpt lat="45.900649249286786" lon="11.951591960745029"><ele>193.6</ele><time>2026-04-06T14:30:05Z</time></trkpt><trkpt lat="45.90056281127476" lon="11.951600640368712"><ele>195.0</ele><time>2026-04-06T14:30:06Z</time></trkpt><trkpt lat="45.90049166866785" lon="11.951600725175469"><ele>195.0</ele><time>2026-04-06T14:30:07Z</time></trkpt><trkpt lat="45.900420535498895" lon="11.951572876293024"><ele>195.0</ele><time>2026-04-06T14:30:08Z</time></trkpt><trkpt lat="45.900359620514934" lon="11.951528351538448"><ele>195.0</ele><time>2026-04-06T14:30:09Z</time></trkpt><trkpt lat="45.90031187162787" lon="11.951461395164385"><ele>195.0</ele><time>2026-04-06T14:30:10Z</time></trkpt><trkpt lat="45.900272326088476" lon="11.951370717782474"><ele>195.0</ele><time>2026-04-06T14:30:11Z</time></trkpt><trkpt lat="45.90024637438717" lon="11.9512447693713"><ele>195.0</ele><time>2026-04-06T14:30:12Z</time></trkpt><trkpt lat="45.900228007927815" lon="11.951085589933685"><ele>195.0</ele><time>2026-04-06T14:30:13Z</time></trkpt><trkpt lat="45.90021511699821" lon="11.950898342819574"><ele>195.0</ele><time>2026-04-06T14:30:14Z</time></trkpt><trkpt lat="45.900201223903835" lon="11.950682827784785"><ele>195.0</ele><time>2026-04-06T14:30:15Z</time></trkpt><trkpt lat="45.90018600022829" lon="11.950447958269283"><ele>195.0</ele><time>2026-04-06T14:30:16Z</time></trkpt><trkpt lat="45.900171956679856" lon="11.950212929598187"><ele>188.33333333333334</ele><time>2026-04-06T14:30:17Z</time></trkpt><trkpt lat="45.90015804818834" lon="11.949953875518943"><ele>181.66666666666669</ele><time>2026-04-06T14:30:18Z</time></trkpt><trkpt lat="45.900140870710224" lon="11.94968196333155"><ele>175.0</ele><time>2026-04-06T14:30:19Z</time></trkpt><trkpt lat="45.90011795989533" lon="11.949401267681749"><ele>174.33333333333334</ele><time>2026-04-06T14:30:20Z</time></trkpt><trkpt lat="45.9000958695689" lon="11.949131891187575"><ele>173.66666666666666</ele><time>2026-04-06T14:30:21Z</time></trkpt><trkpt lat="45.9000891643676" lon="11.948909126133495"><ele>173.0</ele><time>2026-04-06T14:30:22Z</time></trkpt><trkpt lat="45.90008487634252" lon="11.948719528160533"><ele>172.75</ele><time>2026-04-06T14:30:23Z</time></trkpt><trkpt lat="45.90007833967068" lon="11.94855296991613"><ele>172.5</ele><time>2026-04-06T14:30:24Z</time></trkpt><trkpt lat="45.90006624820994" lon="11.948380300904894"><ele>172.25</ele><time>2026-04-06T14:30:25Z</time></trkpt><trkpt lat="45.90004462215106" lon="11.948174970474629"><ele>172.0</ele><time>2026-04-06T14:30:26Z</time></trkpt><trkpt lat="45.90002209681798" lon="11.947930839387618"><ele>172.0</ele><time>2026-04-06T14:30:27Z</time></trkpt><trkpt lat="45.90001308380293" lon="11.94766710014194"><ele>172.0</ele><time>2026-04-06T14:30:28Z</time></trkpt><trkpt lat="45.900006384520914" lon="11.947404662619881"><ele>172.0</ele><time>2026-04-06T14:30:29Z</time></trkpt><trkpt lat="45.89999553279271" lon="11.94715263735342"><ele>171.66666666666669</ele><time>2026-04-06T14:30:30Z</time></trkpt><trkpt lat="45.89997879880909" lon="11.946912938938638"><ele>171.33333333333334</ele><time>2026-04-06T14:30:31Z</time></trkpt><trkpt lat="45.8999634210302" lon="11.946683362867834"><ele>171.0</ele><time>2026-04-06T14:30:32Z</time></trkpt><trkpt lat="45.899950577486464" lon="11.946459478347082"><ele>172.66666666666666</ele><time>2026-04-06T14:30:33Z</time></trkpt><trkpt lat="45.899938218081644" lon="11.94624404958115"><ele>174.33333333333331</ele><time>2026-04-06T14:30:34Z</time></trkpt><trkpt lat="45.89992625889965" lon="11.946030241561946"><ele>176.0</ele><time>2026-04-06T14:30:35Z</time></trkpt><trkpt lat="45.89991417185955" lon="11.94581388396042"><ele>176.75</ele><time>2026-04-06T14:30:36Z</time></trkpt><trkpt lat="45.89989910644212" lon="11.94559421166038"><ele>177.5</ele><time>2026-04-06T14:30:37Z</time></trkpt><trkpt lat="45.899885399417904" lon="11.945381284297593"><ele>178.25</ele><time>2026-04-06T14:30:38Z</time></trkpt><trkpt lat="45.89987262343568" lon="11.945171886407527"><ele>179.0</ele><time>2026-04-06T14:30:39Z</time></trkpt><trkpt lat="45.89986342025141" lon="11.944966781868114"><ele>179.0</ele><time>2026-04-06T14:30:40Z</time></trkpt><trkpt lat="45.899850426817494" lon="11.944768597323996"><ele>179.0</ele><time>2026-04-06T14:30:41Z</time></trkpt><trkpt lat="45.8998357968576" lon="11.944582814992287"><ele>179.0</ele><time>2026-04-06T14:30:42Z</time></trkpt><trkpt lat="45.89981997380625" lon="11.944411134434755"><ele>179.0</ele><time>2026-04-06T14:30:43Z</time></trkpt><trkpt lat="45.89980954336911" lon="11.944255771023812"><ele>178.5</ele><time>2026-04-06T14:30:44Z</time></trkpt><trkpt lat="45.89979893223471" lon="11.944119947536056"><ele>178.0</ele><time>2026-04-06T14:30:45Z</time></trkpt><trkpt lat="45.89979221902823" lon="11.943992970345432"><ele>177.5</ele><time>2026-04-06T14:30:46Z</time></trkpt><trkpt lat="45.89978711808598" lon="11.943873394262631"><ele>177.0</ele><time>2026-04-06T14:30:47Z</time></trkpt><trkpt lat="45.89977999875326" lon="11.943756613175813"><ele>176.5</ele><time>2026-04-06T14:30:48Z</time></trkpt><trkpt lat="45.899769560693976" lon="11.94364356834549"><ele>176.0</ele><time>2026-04-06T14:30:49Z</time></trkpt><trkpt lat="45.89976203574597" lon="11.943546649314962"><ele>176.0</ele><time>2026-04-06T14:30:50Z</time></trkpt><trkpt lat="45.89974682771668" lon="11.943412820733162"><ele>176.0</ele><time>2026-04-06T14:30:52Z</time></trkpt><trkpt lat="45.89975140978399" lon="11.94332083755641"><ele>176.0</ele><time>2026-04-06T14:30:54Z</time></trkpt><trkpt lat="45.899760240238564" lon="11.943202723113409"><ele>176.0</ele><time>2026-04-06T14:30:58Z</time></trkpt><trkpt lat="45.89979579325891" lon="11.943047918984451"><ele>176.0</ele><time>2026-04-06T14:31:00Z</time></trkpt><trkpt lat="45.89973574145275" lon="11.942906753958797"><ele>176.66666666666666</ele><time>2026-04-06T14:31:02Z</time></trkpt><trkpt lat="45.899661679488766" lon="11.942871925601626"><ele>177.33333333333331</ele><time>2026-04-06T14:31:03Z</time></trkpt><trkpt lat="45.89957546037044" lon="11.942856040805447"><ele>178.0</ele><time>2026-04-06T14:31:04Z</time></trkpt><trkpt lat="45.899484897634785" lon="11.942837318331463"><ele>178.66666666666666</ele><time>2026-04-06T14:31:05Z</time></trkpt><trkpt lat="45.899399651335045" lon="11.942799573578228"><ele>179.33333333333334</ele><time>2026-04-06T14:31:06Z</time></trkpt><trkpt lat="45.899304421432824" lon="11.942756444876656"><ele>180.0</ele><time>2026-04-06T14:31:07Z</time></trkpt><trkpt lat="45.899187964528956" lon="11.942720069995154"><ele>180.0</ele><time>2026-04-06T14:31:08Z</time></trkpt><trkpt lat="45.89905886821733" lon="11.942684760377132"><ele>180.0</ele><time>2026-04-06T14:31:09Z</time></trkpt><trkpt lat="45.89891556970514" lon="11.942639607267273"><ele>180.0</ele><time>2026-04-06T14:31:10Z</time></trkpt><trkpt lat="45.89875805251663" lon="11.942609676867884"><ele>180.0</ele><time>2026-04-06T14:31:11Z</time></trkpt><trkpt lat="45.89860205508784" lon="11.942577907840315"><ele>180.0</ele><time>2026-04-06T14:31:12Z</time></trkpt><trkpt lat="45.89843171393583" lon="11.942577169707423"><ele>180.0</ele><time>2026-04-06T14:31:13Z</time></trkpt><trkpt lat="45.898252799624494" lon="11.942594891328348"><ele>180.0</ele><time>2026-04-06T14:31:14Z</time></trkpt><trkpt lat="45.89806735744553" lon="11.942618802379775"><ele>178.0</ele><time>2026-04-06T14:31:15Z</time></trkpt><trkpt lat="45.897874352935176" lon="11.94264215443341"><ele>176.0</ele><time>2026-04-06T14:31:16Z</time></trkpt><trkpt lat="45.897678300673036" lon="11.94266012153"><ele>174.0</ele><time>2026-04-06T14:31:17Z</time></trkpt><trkpt lat="45.89748190752959" lon="11.942672423532159"><ele>174.0</ele><time>2026-04-06T14:31:18Z</time></trkpt><trkpt lat="45.89729781160415" lon="11.942681823533762"><ele>174.0</ele><time>2026-04-06T14:31:19Z</time></trkpt><trkpt lat="45.89713095293433" lon="11.942686705033294"><ele>174.0</ele><time>2026-04-06T14:31:20Z</time></trkpt><trkpt lat="45.89697620215485" lon="11.942679692424774"><ele>174.0</ele><time>2026-04-06T14:31:21Z</time></trkpt><trkpt lat="45.89683042992732" lon="11.942666599482976"><ele>174.0</ele><time>2026-04-06T14:31:22Z</time></trkpt><trkpt lat="45.89669039494052" lon="11.942630272918985"><ele>174.0</ele><time>2026-04-06T14:31:23Z</time></trkpt><trkpt lat="45.89655587695339" lon="11.942617295912845"><ele>174.0</ele><time>2026-04-06T14:31:24Z</time></trkpt><trkpt lat="45.89642296218062" lon="11.942601184027312"><ele>174.5</ele><time>2026-04-06T14:31:25Z</time></trkpt><trkpt lat="45.89628545542808" lon="11.942597783909942"><ele>175.0</ele><time>2026-04-06T14:31:26Z</time></trkpt><trkpt lat="45.89614206331068" lon="11.942569899602585"><ele>175.5</ele><time>2026-04-06T14:31:27Z</time></trkpt><trkpt lat="45.89599038097276" lon="11.942545858066545"><ele>176.0</ele><time>2026-04-06T14:31:28Z</time></trkpt><trkpt lat="45.89583433440362" lon="11.94251792424627"><ele>178.33333333333331</ele><time>2026-04-06T14:31:29Z</time></trkpt><trkpt lat="45.89567740315277" lon="11.942489162646954"><ele>180.66666666666666</ele><time>2026-04-06T14:31:30Z</time></trkpt><trkpt lat="45.895522516900606" lon="11.94246562735875"><ele>183.0</ele><time>2026-04-06T14:31:31Z</time></trkpt><trkpt lat="45.89537418863776" lon="11.942447965982652"><ele>183.0</ele><time>2026-04-06T14:31:32Z</time></trkpt><trkpt lat="45.8952269977807" lon="11.942427858490618"><ele>183.0</ele><time>2026-04-06T14:31:33Z</time></trkpt><trkpt lat="45.89507500507168" lon="11.942405648723199"><ele>183.0</ele><time>2026-04-06T14:31:34Z</time></trkpt><trkpt lat="45.89491851483383" lon="11.942384834374774"><ele>181.33333333333334</ele><time>2026-04-06T14:31:35Z</time></trkpt><trkpt lat="45.894759723030745" lon="11.942365594120147"><ele>179.66666666666669</ele><time>2026-04-06T14:31:36Z</time></trkpt><trkpt lat="45.894608889840484" lon="11.94235595693909"><ele>178.0</ele><time>2026-04-06T14:31:37Z</time></trkpt><trkpt lat="45.89446669662535" lon="11.94235885512142"><ele>178.0</ele><time>2026-04-06T14:31:38Z</time></trkpt><trkpt lat="45.89432668117198" lon="11.942354875161804"><ele>178.0</ele><time>2026-04-06T14:31:39Z</time></trkpt><trkpt lat="45.894184365150934" lon="11.942394192877378"><ele>178.0</ele><time>2026-04-06T14:31:40Z</time></trkpt><trkpt lat="45.89404929844366" lon="11.942454951655282"><ele>178.0</ele><time>2026-04-06T14:31:41Z</time></trkpt><trkpt lat="45.89391579242924" lon="11.942519288076646"><ele>175.33333333333334</ele><time>2026-04-06T14:31:42Z</time></trkpt><trkpt lat="45.89379691429599" lon="11.942645426924747"><ele>172.66666666666666</ele><time>2026-04-06T14:31:43Z</time></trkpt><trkpt lat="45.89365874226474" lon="11.942739826999286"><ele>170.0</ele><time>2026-04-06T14:31:44Z</time></trkpt><trkpt lat="45.893510428345245" lon="11.942848741895117"><ele>172.66666666666666</ele><time>2026-04-06T14:31:45Z</time></trkpt><trkpt lat="45.8933500192039" lon="11.942970610335985"><ele>175.33333333333334</ele><time>2026-04-06T14:31:46Z</time></trkpt><trkpt lat="45.89317471425181" lon="11.943096639008298"><ele>178.0</ele><time>2026-04-06T14:31:47Z</time></trkpt><trkpt lat="45.89298515899734" lon="11.943216877982174"><ele>178.0</ele><time>2026-04-06T14:31:48Z</time></trkpt><trkpt lat="45.892791114892525" lon="11.943326980075607"><ele>178.0</ele><time>2026-04-06T14:31:49Z</time></trkpt><trkpt lat="45.89260180318115" lon="11.943429636906494"><ele>178.0</ele><time>2026-04-06T14:31:50Z</time></trkpt><trkpt lat="45.89240953648804" lon="11.943520243257758"><ele>177.33333333333334</ele><time>2026-04-06T14:31:51Z</time></trkpt><trkpt lat="45.89221428805389" lon="11.94360131837114"><ele>176.66666666666666</ele><time>2026-04-06T14:31:52Z</time></trkpt><trkpt lat="45.892019960032115" lon="11.943669097857299"><ele>176.0</ele><time>2026-04-06T14:31:53Z</time></trkpt><trkpt lat="45.89182041809622" lon="11.943725822174178"><ele>175.66666666666666</ele><time>2026-04-06T14:31:54Z</time></trkpt><trkpt lat="45.89160160827436" lon="11.943715341626866"><ele>175.33333333333334</ele><time>2026-04-06T14:31:55Z</time></trkpt><trkpt lat="45.89138207499681" lon="11.943759216141967"><ele>175.0</ele><time>2026-04-06T14:31:56Z</time></trkpt><trkpt lat="45.89117980159472" lon="11.943797750538044"><ele>175.0</ele><time>2026-04-06T14:31:57Z</time></trkpt><trkpt lat="45.8909865378528" lon="11.94383139994288"><ele>175.0</ele><time>2026-04-06T14:31:58Z</time></trkpt><trkpt lat="45.89079779007878" lon="11.943864116326788"><ele>175.0</ele><time>2026-04-06T14:31:59Z</time></trkpt><trkpt lat="45.89061796701826" lon="11.943893859579894"><ele>175.33333333333334</ele><time>2026-04-06T14:32:00Z</time></trkpt><trkpt lat="45.890438813526515" lon="11.943936261185396"><ele>175.66666666666666</ele><time>2026-04-06T14:32:01Z</time></trkpt><trkpt lat="45.890256767245184" lon="11.94400742035153"><ele>176.0</ele><time>2026-04-06T14:32:02Z</time></trkpt><trkpt lat="45.89007883406955" lon="11.944115890526534"><ele>175.33333333333331</ele><time>2026-04-06T14:32:03Z</time></trkpt><trkpt lat="45.889915447666496" lon="11.944276172461656"><ele>174.66666666666666</ele><time>2026-04-06T14:32:04Z</time></trkpt><trkpt lat="45.88974710742481" lon="11.944432985716267"><ele>174.0</ele><time>2026-04-06T14:32:05Z</time></trkpt><trkpt lat="45.88956230514414" lon="11.944577394034335"><ele>174.0</ele><time>2026-04-06T14:32:06Z</time></trkpt><trkpt lat="45.88937982736502" lon="11.94474626386855"><ele>174.0</ele><time>2026-04-06T14:32:07Z</time></trkpt><trkpt lat="45.88919472645963" lon="11.94491295641271"><ele>174.0</ele><time>2026-04-06T14:32:08Z</time></trkpt><trkpt lat="45.88901137464638" lon="11.945069597329525"><ele>172.33333333333334</ele><time>2026-04-06T14:32:09Z</time></trkpt><trkpt lat="45.88883228493918" lon="11.945223321322587"><ele>170.66666666666669</ele><time>2026-04-06T14:32:10Z</time></trkpt><trkpt lat="45.88866287883938" lon="11.945370158049151"><ele>169.0</ele><time>2026-04-06T14:32:11Z</time></trkpt><trkpt lat="45.88850188845363" lon="11.945515064094279"><ele>169.33333333333334</ele><time>2026-04-06T14:32:12Z</time></trkpt><trkpt lat="45.888355480044574" lon="11.945678099855714"><ele>169.66666666666666</ele><time>2026-04-06T14:32:13Z</time></trkpt><trkpt lat="45.888186825788274" lon="11.945803208573537"><ele>170.0</ele><time>2026-04-06T14:32:14Z</time></trkpt><trkpt lat="45.88802367896978" lon="11.945949269136385"><ele>170.0</ele><time>2026-04-06T14:32:15Z</time></trkpt><trkpt lat="45.887863566901245" lon="11.94609371160296"><ele>170.0</ele><time>2026-04-06T14:32:16Z</time></trkpt><trkpt lat="45.887707479706215" lon="11.946236682568218"><ele>170.0</ele><time>2026-04-06T14:32:17Z</time></trkpt><trkpt lat="45.8875602324146" lon="11.94637229270284"><ele>170.0</ele><time>2026-04-06T14:32:18Z</time></trkpt><trkpt lat="45.88741685287544" lon="11.946504268042267"><ele>170.0</ele><time>2026-04-06T14:32:19Z</time></trkpt><trkpt lat="45.887279926734834" lon="11.946657042268265"><ele>170.0</ele><time>2026-04-06T14:32:20Z</time></trkpt><trkpt lat="45.88712855258957" lon="11.946789005171631"><ele>170.0</ele><time>2026-04-06T14:32:21Z</time></trkpt><trkpt lat="45.88697916450563" lon="11.946923320020264"><ele>170.0</ele><time>2026-04-06T14:32:22Z</time></trkpt><trkpt lat="45.886838601346305" lon="11.947053135879925"><ele>170.0</ele><time>2026-04-06T14:32:23Z</time></trkpt><trkpt lat="45.88670210389118" lon="11.94718730441689"><ele>169.66666666666666</ele><time>2026-04-06T14:32:24Z</time></trkpt><trkpt lat="45.886560984725314" lon="11.947322104144313"><ele>169.33333333333334</ele><time>2026-04-06T14:32:25Z</time></trkpt><trkpt lat="45.88644283382776" lon="11.947502060470867"><ele>169.0</ele><time>2026-04-06T14:32:26Z</time></trkpt><trkpt lat="45.88633812539324" lon="11.947685223295583"><ele>169.0</ele><time>2026-04-06T14:32:27Z</time></trkpt><trkpt lat="45.886239920509475" lon="11.947871938064614"><ele>169.0</ele><time>2026-04-06T14:32:28Z</time></trkpt><trkpt lat="45.886143509721784" lon="11.948069499298743"><ele>169.0</ele><time>2026-04-06T14:32:29Z</time></trkpt><trkpt lat="45.886046043851216" lon="11.948279299677024"><ele>169.0</ele><time>2026-04-06T14:32:30Z</time></trkpt><trkpt lat="45.885964680383736" lon="11.948504758015824"><ele>169.0</ele><time>2026-04-06T14:32:31Z</time></trkpt><trkpt lat="45.88586299873439" lon="11.948696256932848"><ele>169.0</ele><time>2026-04-06T14:32:32Z</time></trkpt><trkpt lat="45.885803026790214" lon="11.948903630612723"><ele>169.33333333333334</ele><time>2026-04-06T14:32:33Z</time></trkpt><trkpt lat="45.88573411323934" lon="11.949096789164413"><ele>169.66666666666666</ele><time>2026-04-06T14:32:34Z</time></trkpt><trkpt lat="45.885665373172415" lon="11.949293941502486"><ele>170.0</ele><time>2026-04-06T14:32:35Z</time></trkpt><trkpt lat="45.88559601450017" lon="11.949497649540781"><ele>170.0</ele><time>2026-04-06T14:32:36Z</time></trkpt><trkpt lat="45.885526506518715" lon="11.949708074219588"><ele>170.0</ele><time>2026-04-06T14:32:37Z</time></trkpt><trkpt lat="45.88546045653452" lon="11.949930749828534"><ele>170.0</ele><time>2026-04-06T14:32:38Z</time></trkpt><trkpt lat="45.88540170049893" lon="11.950166536709943"><ele>167.33333333333331</ele><time>2026-04-06T14:32:39Z</time></trkpt><trkpt lat="45.88534730322981" lon="11.950403840630981"><ele>164.66666666666666</ele><time>2026-04-06T14:32:40Z</time></trkpt><trkpt lat="45.88529862524875" lon="11.950629743528722"><ele>162.0</ele><time>2026-04-06T14:32:41Z</time></trkpt><trkpt lat="45.88525203307116" lon="11.950851719448146"><ele>163.33333333333334</ele><time>2026-04-06T14:32:42Z</time></trkpt><trkpt lat="45.8852073356151" lon="11.95105798184224"><ele>164.66666666666669</ele><time>2026-04-06T14:32:43Z</time></trkpt><trkpt lat="45.88516537454523" lon="11.951260928946553"><ele>166.0</ele><time>2026-04-06T14:32:44Z</time></trkpt><trkpt lat="45.88512204875681" lon="11.951471742186417"><ele>172.0</ele><time>2026-04-06T14:32:45Z</time></trkpt><trkpt lat="45.88508279454102" lon="11.951671731072013"><ele>178.0</ele><time>2026-04-06T14:32:46Z</time></trkpt><trkpt lat="45.885044352884925" lon="11.951876935680316"><ele>184.0</ele><time>2026-04-06T14:32:47Z</time></trkpt><trkpt lat="45.885005177414804" lon="11.95210004832259"><ele>184.0</ele><time>2026-04-06T14:32:48Z</time></trkpt><trkpt lat="45.88496920777932" lon="11.952332618235818"><ele>184.0</ele><time>2026-04-06T14:32:49Z</time></trkpt><trkpt lat="45.88493287905424" lon="11.952550275889292"><ele>184.0</ele><time>2026-04-06T14:32:50Z</time></trkpt><trkpt lat="45.884894535216496" lon="11.952758933709257"><ele>181.66666666666669</ele><time>2026-04-06T14:32:51Z</time></trkpt><trkpt lat="45.884856109282154" lon="11.952969699662903"><ele>179.33333333333334</ele><time>2026-04-06T14:32:52Z</time></trkpt><trkpt lat="45.88481719066617" lon="11.95319390308743"><ele>177.0</ele><time>2026-04-06T14:32:53Z</time></trkpt><trkpt lat="45.88477719964558" lon="11.95343002431043"><ele>175.33333333333334</ele><time>2026-04-06T14:32:54Z</time></trkpt><trkpt lat="45.88473982983359" lon="11.953659751836957"><ele>173.66666666666669</ele><time>2026-04-06T14:32:55Z</time></trkpt><trkpt lat="45.88469449753382" lon="11.953878127503035"><ele>172.0</ele><time>2026-04-06T14:32:56Z</time></trkpt><trkpt lat="45.88463285580412" lon="11.95407820490966"><ele>172.0</ele><time>2026-04-06T14:32:57Z</time></trkpt><trkpt lat="45.88455283214666" lon="11.954267384579266"><ele>172.0</ele><time>2026-04-06T14:32:58Z</time></trkpt><trkpt lat="45.884440056806625" lon="11.954434486501015"><ele>172.0</ele><time>2026-04-06T14:32:59Z</time></trkpt><trkpt lat="45.884333294503456" lon="11.954613905905392"><ele>171.0</ele><time>2026-04-06T14:33:00Z</time></trkpt><trkpt lat="45.88422541077039" lon="11.954795198705076"><ele>170.0</ele><time>2026-04-06T14:33:01Z</time></trkpt><trkpt lat="45.8841056096457" lon="11.954995996568933"><ele>169.0</ele><time>2026-04-06T14:33:02Z</time></trkpt><trkpt lat="45.883971685955984" lon="11.95522046507523"><ele>169.0</ele><time>2026-04-06T14:33:03Z</time></trkpt><trkpt lat="45.8838267327318" lon="11.955463310766277"><ele>169.0</ele><time>2026-04-06T14:33:04Z</time></trkpt><trkpt lat="45.883672572874765" lon="11.955721427513442"><ele>167.5</ele><time>2026-04-06T14:33:05Z</time></trkpt><trkpt lat="45.8835181342631" lon="11.955980125975204"><ele>166.0</ele><time>2026-04-06T14:33:06Z</time></trkpt><trkpt lat="45.88336505582445" lon="11.956234401472955"><ele>166.66666666666669</ele><time>2026-04-06T14:33:07Z</time></trkpt><trkpt lat="45.88321744639627" lon="11.956479343000726"><ele>167.33333333333334</ele><time>2026-04-06T14:33:08Z</time></trkpt><trkpt lat="45.883073334938615" lon="11.956717458843976"><ele>168.0</ele><time>2026-04-06T14:33:09Z</time></trkpt><trkpt lat="45.882939609370396" lon="11.95695736136678"><ele>168.0</ele><time>2026-04-06T14:33:10Z</time></trkpt><trkpt lat="45.882800606242505" lon="11.957171030549423"><ele>168.0</ele><time>2026-04-06T14:33:11Z</time></trkpt><trkpt lat="45.88266976874765" lon="11.957379395559956"><ele>168.0</ele><time>2026-04-06T14:33:12Z</time></trkpt><trkpt lat="45.882543767503726" lon="11.957579107803248"><ele>168.33333333333334</ele><time>2026-04-06T14:33:13Z</time></trkpt><trkpt lat="45.882422392816515" lon="11.95776673304635"><ele>168.66666666666669</ele><time>2026-04-06T14:33:14Z</time></trkpt><trkpt lat="45.88230571233234" lon="11.957944832543783"><ele>169.0</ele><time>2026-04-06T14:33:15Z</time></trkpt><trkpt lat="45.88219566372693" lon="11.95811565478229"><ele>169.0</ele><time>2026-04-06T14:33:16Z</time></trkpt><trkpt lat="45.882081728738314" lon="11.958267673471138"><ele>169.0</ele><time>2026-04-06T14:33:17Z</time></trkpt><trkpt lat="45.881979922364856" lon="11.95842403531947"><ele>169.0</ele><time>2026-04-06T14:33:18Z</time></trkpt><trkpt lat="45.88188481007343" lon="11.958586100133859"><ele>170.0</ele><time>2026-04-06T14:33:19Z</time></trkpt><trkpt lat="45.88179106260579" lon="11.958757950871993"><ele>171.0</ele><time>2026-04-06T14:33:20Z</time></trkpt><trkpt lat="45.88169218272228" lon="11.95894932709028"><ele>172.0</ele><time>2026-04-06T14:33:21Z</time></trkpt><trkpt lat="45.881594773855525" lon="11.959153487120753"><ele>170.66666666666669</ele><time>2026-04-06T14:33:22Z</time></trkpt><trkpt lat="45.881496380145855" lon="11.959362068476732"><ele>169.33333333333334</ele><time>2026-04-06T14:33:23Z</time></trkpt><trkpt lat="45.88139494594147" lon="11.959581619637364"><ele>168.0</ele><time>2026-04-06T14:33:24Z</time></trkpt><trkpt lat="45.88128923347322" lon="11.959812255208764"><ele>168.0</ele><time>2026-04-06T14:33:25Z</time></trkpt><trkpt lat="45.88118147094484" lon="11.960053948715327"><ele>168.0</ele><time>2026-04-06T14:33:26Z</time></trkpt><trkpt lat="45.881079648823174" lon="11.960280806133147"><ele>168.0</ele><time>2026-04-06T14:33:27Z</time></trkpt><trkpt lat="45.880991824297574" lon="11.960492051214546"><ele>169.33333333333334</ele><time>2026-04-06T14:33:28Z</time></trkpt><trkpt lat="45.88089273887518" lon="11.960670465017248"><ele>170.66666666666669</ele><time>2026-04-06T14:33:29Z</time></trkpt><trkpt lat="45.880798549889576" lon="11.960845306102103"><ele>172.0</ele><time>2026-04-06T14:33:30Z</time></trkpt><trkpt lat="45.88070277362282" lon="11.961007111492354"><ele>172.0</ele><time>2026-04-06T14:33:31Z</time></trkpt><trkpt lat="45.880600403786225" lon="11.961162556324686"><ele>172.0</ele><time>2026-04-06T14:33:32Z</time></trkpt><trkpt lat="45.88049480733596" lon="11.96131885753169"><ele>172.0</ele><time>2026-04-06T14:33:33Z</time></trkpt><trkpt lat="45.8803859538724" lon="11.961465694468421"><ele>172.0</ele><time>2026-04-06T14:33:34Z</time></trkpt><trkpt lat="45.880276074051075" lon="11.96160624337058"><ele>172.0</ele><time>2026-04-06T14:33:35Z</time></trkpt><trkpt lat="45.88015602967481" lon="11.961726348195262"><ele>172.0</ele><time>2026-04-06T14:33:36Z</time></trkpt><trkpt lat="45.88005116630464" lon="11.961859705705791"><ele>172.0</ele><time>2026-04-06T14:33:37Z</time></trkpt><trkpt lat="45.879952327342025" lon="11.961986034122011"><ele>171.75</ele><time>2026-04-06T14:33:38Z</time></trkpt><trkpt lat="45.87986523863362" lon="11.962126187316766"><ele>171.5</ele><time>2026-04-06T14:33:39Z</time></trkpt><trkpt lat="45.879759746001255" lon="11.962241649253635"><ele>171.25</ele><time>2026-04-06T14:33:40Z</time></trkpt><trkpt lat="45.879658320611156" lon="11.962367188099579"><ele>171.0</ele><time>2026-04-06T14:33:41Z</time></trkpt><trkpt lat="45.87955386418469" lon="11.962492211079338"><ele>170.25</ele><time>2026-04-06T14:33:42Z</time></trkpt><trkpt lat="45.87945147085899" lon="11.962605695250184"><ele>169.5</ele><time>2026-04-06T14:33:43Z</time></trkpt><trkpt lat="45.87934523069554" lon="11.962697958777861"><ele>168.75</ele><time>2026-04-06T14:33:44Z</time></trkpt><trkpt lat="45.87921942267564" lon="11.962755208954627"><ele>168.0</ele><time>2026-04-06T14:33:45Z</time></trkpt><trkpt lat="45.87908062226886" lon="11.962802608559844"><ele>168.0</ele><time>2026-04-06T14:33:46Z</time></trkpt><trkpt lat="45.878928627470444" lon="11.962852176908068"><ele>168.0</ele><time>2026-04-06T14:33:47Z</time></trkpt><trkpt lat="45.87876487977822" lon="11.962904760463305"><ele>168.0</ele><time>2026-04-06T14:33:48Z</time></trkpt><trkpt lat="45.87858570415069" lon="11.96295953231226"><ele>171.33333333333334</ele><time>2026-04-06T14:33:49Z</time></trkpt><trkpt lat="45.878389155023434" lon="11.962978207359068"><ele>174.66666666666669</ele><time>2026-04-06T14:33:50Z</time></trkpt><trkpt lat="45.878190311636615" lon="11.963016303891205"><ele>178.0</ele><time>2026-04-06T14:33:51Z</time></trkpt><trkpt lat="45.877997048032626" lon="11.963077167605087"><ele>178.0</ele><time>2026-04-06T14:33:52Z</time></trkpt><trkpt lat="45.87780391762078" lon="11.963117638672978"><ele>178.0</ele><time>2026-04-06T14:33:53Z</time></trkpt><trkpt lat="45.87760665464607" lon="11.963163175515609"><ele>178.0</ele><time>2026-04-06T14:33:54Z</time></trkpt><trkpt lat="45.877402083994696" lon="11.963179049599054"><ele>178.33333333333334</ele><time>2026-04-06T14:33:55Z</time></trkpt><trkpt lat="45.87719847968577" lon="11.963212142674019"><ele>178.66666666666666</ele><time>2026-04-06T14:33:56Z</time></trkpt><trkpt lat="45.877005184060145" lon="11.963244432943425"><ele>179.0</ele><time>2026-04-06T14:33:57Z</time></trkpt><trkpt lat="45.87681804608178" lon="11.963279861688216"><ele>179.66666666666666</ele><time>2026-04-06T14:33:58Z</time></trkpt><trkpt lat="45.876636196845965" lon="11.963342514765563"><ele>180.33333333333334</ele><time>2026-04-06T14:33:59Z</time></trkpt><trkpt lat="45.876451853630705" lon="11.96338413022054"><ele>181.0</ele><time>2026-04-06T14:34:00Z</time></trkpt><trkpt lat="45.8762743988445" lon="11.96343866319921"><ele>180.66666666666669</ele><time>2026-04-06T14:34:01Z</time></trkpt><trkpt lat="45.87611260866347" lon="11.963504712908515"><ele>180.33333333333334</ele><time>2026-04-06T14:34:02Z</time></trkpt><trkpt lat="45.87595455270695" lon="11.963549415921786"><ele>180.0</ele><time>2026-04-06T14:34:03Z</time></trkpt><trkpt lat="45.87581838278028" lon="11.963645028273653"><ele>180.0</ele><time>2026-04-06T14:34:04Z</time></trkpt><trkpt lat="45.87568822050635" lon="11.963721802995401"><ele>180.0</ele><time>2026-04-06T14:34:05Z</time></trkpt><trkpt lat="45.875566230958064" lon="11.963801816983452"><ele>180.0</ele><time>2026-04-06T14:34:06Z</time></trkpt><trkpt lat="45.87544452109794" lon="11.963855706703477"><ele>180.0</ele><time>2026-04-06T14:34:07Z</time></trkpt><trkpt lat="45.87532894452813" lon="11.963929207180536"><ele>180.0</ele><time>2026-04-06T14:34:08Z</time></trkpt><trkpt lat="45.87520886139261" lon="11.96400557717496"><ele>180.0</ele><time>2026-04-06T14:34:09Z</time></trkpt><trkpt lat="45.875086649648665" lon="11.964084022880876"><ele>180.0</ele><time>2026-04-06T14:34:10Z</time></trkpt><trkpt lat="45.87496061004949" lon="11.964164198118006"><ele>180.0</ele><time>2026-04-06T14:34:11Z</time></trkpt><trkpt lat="45.874824406910214" lon="11.964249565798648"><ele>177.66666666666666</ele><time>2026-04-06T14:34:12Z</time></trkpt><trkpt lat="45.87467592815888" lon="11.964341668755477"><ele>175.33333333333331</ele><time>2026-04-06T14:34:13Z</time></trkpt><trkpt lat="45.87451945569282" lon="11.964441645751167"><ele>173.0</ele><time>2026-04-06T14:34:14Z</time></trkpt><trkpt lat="45.87436029517529" lon="11.964544405212637"><ele>175.33333333333331</ele><time>2026-04-06T14:34:15Z</time></trkpt><trkpt lat="45.87420529547476" lon="11.964644975659509"><ele>177.66666666666666</ele><time>2026-04-06T14:34:16Z</time></trkpt><trkpt lat="45.87405435304474" lon="11.964743736357576"><ele>180.0</ele><time>2026-04-06T14:34:17Z</time></trkpt><trkpt lat="45.87390573702247" lon="11.96484154842611"><ele>180.0</ele><time>2026-04-06T14:34:18Z</time></trkpt><trkpt lat="45.87376010902049" lon="11.964933287680562"><ele>180.0</ele><time>2026-04-06T14:34:19Z</time></trkpt><trkpt lat="45.87361321449754" lon="11.965023247494596"><ele>180.0</ele><time>2026-04-06T14:34:20Z</time></trkpt><trkpt lat="45.87346868581776" lon="11.965117424312263"><ele>178.75</ele><time>2026-04-06T14:34:21Z</time></trkpt><trkpt lat="45.87332900543855" lon="11.965210493552037"><ele>177.5</ele><time>2026-04-06T14:34:22Z</time></trkpt><trkpt lat="45.8732003631926" lon="11.965301205637008"><ele>176.25</ele><time>2026-04-06T14:34:23Z</time></trkpt><trkpt lat="45.87309020298027" lon="11.965383256121008"><ele>175.0</ele><time>2026-04-06T14:34:24Z</time></trkpt><trkpt lat="45.87299158030892" lon="11.965465873399824"><ele>175.0</ele><time>2026-04-06T14:34:25Z</time></trkpt><trkpt lat="45.87290698002833" lon="11.96554630174091"><ele>175.0</ele><time>2026-04-06T14:34:26Z</time></trkpt><trkpt lat="45.87281940102079" lon="11.965631652326012"><ele>175.0</ele><time>2026-04-06T14:34:27Z</time></trkpt><trkpt lat="45.87272281608473" lon="11.965731103189981"><ele>175.0</ele><time>2026-04-06T14:34:28Z</time></trkpt><trkpt lat="45.87262078578673" lon="11.965843816784513"><ele>175.4</ele><time>2026-04-06T14:34:29Z</time></trkpt><trkpt lat="45.87252887546124" lon="11.96595165552636"><ele>175.8</ele><time>2026-04-06T14:34:30Z</time></trkpt><trkpt lat="45.87244283138406" lon="11.966057823546507"><ele>176.2</ele><time>2026-04-06T14:34:31Z</time></trkpt><trkpt lat="45.87236211643776" lon="11.966159564781698"><ele>176.6</ele><time>2026-04-06T14:34:32Z</time></trkpt><trkpt lat="45.872285300932795" lon="11.966258567298347"><ele>177.0</ele><time>2026-04-06T14:34:33Z</time></trkpt><trkpt lat="45.87221346199504" lon="11.966356164481754"><ele>177.0</ele><time>2026-04-06T14:34:34Z</time></trkpt><trkpt lat="45.8721443190464" lon="11.96645401741812"><ele>177.0</ele><time>2026-04-06T14:34:35Z</time></trkpt><trkpt lat="45.872074066327365" lon="11.966555231407437"><ele>177.0</ele><time>2026-04-06T14:34:36Z</time></trkpt><trkpt lat="45.87200246110206" lon="11.96665990100297"><ele>177.0</ele><time>2026-04-06T14:34:37Z</time></trkpt><trkpt lat="45.871933874607535" lon="11.966760157922883"><ele>177.0</ele><time>2026-04-06T14:34:38Z</time></trkpt><trkpt lat="45.87187183022729" lon="11.96684899468505"><ele>176.6</ele><time>2026-04-06T14:34:39Z</time></trkpt><trkpt lat="45.871813451854116" lon="11.966918759145715"><ele>176.2</ele><time>2026-04-06T14:34:40Z</time></trkpt><trkpt lat="45.871720233010535" lon="11.967020580524592"><ele>175.8</ele><time>2026-04-06T14:34:42Z</time></trkpt><trkpt lat="45.87158691101877" lon="11.967007261644646"><ele>175.4</ele><time>2026-04-06T14:34:44Z</time></trkpt><trkpt lat="45.87150705907013" lon="11.966956539213385"><ele>175.0</ele><time>2026-04-06T14:34:45Z</time></trkpt><trkpt lat="45.871424552043266" lon="11.966884693261978"><ele>175.0</ele><time>2026-04-06T14:34:46Z</time></trkpt><trkpt lat="45.87134690286852" lon="11.966825354143225"><ele>175.0</ele><time>2026-04-06T14:34:47Z</time></trkpt><trkpt lat="45.8712615617857" lon="11.96680104085516"><ele>175.0</ele><time>2026-04-06T14:34:48Z</time></trkpt><trkpt lat="45.871177361202044" lon="11.966808038611157"><ele>175.0</ele><time>2026-04-06T14:34:49Z</time></trkpt><trkpt lat="45.871098556273495" lon="11.966866866110315"><ele>175.0</ele><time>2026-04-06T14:34:50Z</time></trkpt><trkpt lat="45.87103916903716" lon="11.966955764873969"><ele>175.0</ele><time>2026-04-06T14:34:51Z</time></trkpt><trkpt lat="45.8710035038923" lon="11.967067045802054"><ele>175.0</ele><time>2026-04-06T14:34:52Z</time></trkpt><trkpt lat="45.87099458176358" lon="11.967172721776565"><ele>175.0</ele><time>2026-04-06T14:34:53Z</time></trkpt><trkpt lat="45.87100198182972" lon="11.96726767003586"><ele>175.0</ele><time>2026-04-06T14:34:54Z</time></trkpt><trkpt lat="45.87102456344187" lon="11.96736020636879"><ele>175.0</ele><time>2026-04-06T14:34:55Z</time></trkpt><trkpt lat="45.871043583920915" lon="11.967459425980277"><ele>175.0</ele><time>2026-04-06T14:34:56Z</time></trkpt><trkpt lat="45.87103840206855" lon="11.967570818256348"><ele>175.0</ele><time>2026-04-06T14:34:57Z</time></trkpt><trkpt lat="45.87100698277764" lon="11.96768603688362"><ele>175.0</ele><time>2026-04-06T14:34:58Z</time></trkpt><trkpt lat="45.87094142955689" lon="11.967778360784738"><ele>175.75</ele><time>2026-04-06T14:34:59Z</time></trkpt><trkpt lat="45.870867420145906" lon="11.967861564345432"><ele>176.5</ele><time>2026-04-06T14:35:00Z</time></trkpt><trkpt lat="45.870783018015096" lon="11.967943740885959"><ele>177.25</ele><time>2026-04-06T14:35:01Z</time></trkpt><trkpt lat="45.87068379677453" lon="11.968036207981104"><ele>178.0</ele><time>2026-04-06T14:35:02Z</time></trkpt><trkpt lat="45.870567418124416" lon="11.968144664538693"><ele>178.0</ele><time>2026-04-06T14:35:03Z</time></trkpt><trkpt lat="45.870442360317455" lon="11.968261368623676"><ele>178.0</ele><time>2026-04-06T14:35:04Z</time></trkpt><trkpt lat="45.87031067592489" lon="11.968387088155925"><ele>178.0</ele><time>2026-04-06T14:35:05Z</time></trkpt><trkpt lat="45.87016735052795" lon="11.968528886130178"><ele>179.33333333333334</ele><time>2026-04-06T14:35:06Z</time></trkpt><trkpt lat="45.870026448085305" lon="11.968671028166087"><ele>180.66666666666666</ele><time>2026-04-06T14:35:07Z</time></trkpt><trkpt lat="45.86989545765447" lon="11.968808912485283"><ele>182.0</ele><time>2026-04-06T14:35:08Z</time></trkpt><trkpt lat="45.86977635744413" lon="11.968946618232904"><ele>182.0</ele><time>2026-04-06T14:35:09Z</time></trkpt><trkpt lat="45.86967915752599" lon="11.969118218592225"><ele>182.0</ele><time>2026-04-06T14:35:10Z</time></trkpt><trkpt lat="45.86956912065422" lon="11.969272135859018"><ele>182.0</ele><time>2026-04-06T14:35:11Z</time></trkpt><trkpt lat="45.869464728813035" lon="11.96943418193168"><ele>181.5</ele><time>2026-04-06T14:35:12Z</time></trkpt><trkpt lat="45.86936786142985" lon="11.969596355130461"><ele>181.0</ele><time>2026-04-06T14:35:13Z</time></trkpt><trkpt lat="45.869281111091446" lon="11.969755038399141"><ele>180.5</ele><time>2026-04-06T14:35:14Z</time></trkpt><trkpt lat="45.86919946954654" lon="11.969904463895727"><ele>180.0</ele><time>2026-04-06T14:35:15Z</time></trkpt><trkpt lat="45.869123016311484" lon="11.970055461046078"><ele>180.0</ele><time>2026-04-06T14:35:16Z</time></trkpt><trkpt lat="45.86905049635651" lon="11.970215732666976"><ele>180.0</ele><time>2026-04-06T14:35:17Z</time></trkpt><trkpt lat="45.868982147403464" lon="11.970382086580516"><ele>180.0</ele><time>2026-04-06T14:35:18Z</time></trkpt><trkpt lat="45.86891605744106" lon="11.97054800678247"><ele>180.0</ele><time>2026-04-06T14:35:19Z</time></trkpt><trkpt lat="45.86884870587599" lon="11.970711745725916"><ele>177.75</ele><time>2026-04-06T14:35:20Z</time></trkpt><trkpt lat="45.868765057155656" lon="11.970867749384862"><ele>175.5</ele><time>2026-04-06T14:35:21Z</time></trkpt><trkpt lat="45.868696420146456" lon="11.971044765821732"><ele>173.25</ele><time>2026-04-06T14:35:22Z</time></trkpt><trkpt lat="45.868617735122776" lon="11.971245408948631"><ele>171.0</ele><time>2026-04-06T14:35:23Z</time></trkpt><trkpt lat="45.86853035606327" lon="11.971468285740658"><ele>175.33333333333334</ele><time>2026-04-06T14:35:24Z</time></trkpt><trkpt lat="45.8684407490851" lon="11.971697566282618"><ele>179.66666666666669</ele><time>2026-04-06T14:35:25Z</time></trkpt><trkpt lat="45.868347898809766" lon="11.971940432736623"><ele>184.0</ele><time>2026-04-06T14:35:26Z</time></trkpt><trkpt lat="45.86824988135576" lon="11.972200382066546"><ele>184.0</ele><time>2026-04-06T14:35:27Z</time></trkpt><trkpt lat="45.868145642809104" lon="11.972474240909081"><ele>184.0</ele><time>2026-04-06T14:35:28Z</time></trkpt><trkpt lat="45.86803703519237" lon="11.972758431763058"><ele>184.0</ele><time>2026-04-06T14:35:29Z</time></trkpt><trkpt lat="45.86793870742945" lon="11.973061939794524"><ele>176.5</ele><time>2026-04-06T14:35:30Z</time></trkpt><trkpt lat="45.86782272054619" lon="11.973361419138365"><ele>169.0</ele><time>2026-04-06T14:35:31Z</time></trkpt><trkpt lat="45.86770454822709" lon="11.973665387036313"><ele>175.0</ele><time>2026-04-06T14:35:32Z</time></trkpt><trkpt lat="45.86758731818431" lon="11.97396948814807"><ele>181.0</ele><time>2026-04-06T14:35:33Z</time></trkpt><trkpt lat="45.86747049350308" lon="11.974273159298711"><ele>181.0</ele><time>2026-04-06T14:35:34Z</time></trkpt><trkpt lat="45.86735281223999" lon="11.974574146213518"><ele>181.0</ele><time>2026-04-06T14:35:35Z</time></trkpt><trkpt lat="45.86723382766344" lon="11.97487489423857"><ele>178.5</ele><time>2026-04-06T14:35:36Z</time></trkpt><trkpt lat="45.86711701773196" lon="11.975171884117442"><ele>176.0</ele><time>2026-04-06T14:35:37Z</time></trkpt><trkpt lat="45.86700105172733" lon="11.975462482424426"><ele>176.0</ele><time>2026-04-06T14:35:38Z</time></trkpt><trkpt lat="45.8668895645377" lon="11.975747497283676"><ele>176.0</ele><time>2026-04-06T14:35:39Z</time></trkpt><trkpt lat="45.86677855237909" lon="11.97602552319176"><ele>176.33333333333331</ele><time>2026-04-06T14:35:40Z</time></trkpt><trkpt lat="45.8666729315123" lon="11.976298251359115"><ele>176.66666666666666</ele><time>2026-04-06T14:35:41Z</time></trkpt><trkpt lat="45.86656922214562" lon="11.976565730248417"><ele>177.0</ele><time>2026-04-06T14:35:42Z</time></trkpt><trkpt lat="45.86646797064485" lon="11.976829069292405"><ele>177.0</ele><time>2026-04-06T14:35:43Z</time></trkpt><trkpt lat="45.86636605014041" lon="11.977085571005066"><ele>177.0</ele><time>2026-04-06T14:35:44Z</time></trkpt><trkpt lat="45.86626665583111" lon="11.977337960849198"><ele>177.0</ele><time>2026-04-06T14:35:45Z</time></trkpt><trkpt lat="45.86617095237418" lon="11.977584057933422"><ele>176.66666666666666</ele><time>2026-04-06T14:35:46Z</time></trkpt><trkpt lat="45.866075640620124" lon="11.977833537637501"><ele>176.33333333333331</ele><time>2026-04-06T14:35:47Z</time></trkpt><trkpt lat="45.86598054505538" lon="11.978088094442843"><ele>176.0</ele><time>2026-04-06T14:35:48Z</time></trkpt><trkpt lat="45.865887717917076" lon="11.978346661526558"><ele>177.33333333333331</ele><time>2026-04-06T14:35:49Z</time></trkpt><trkpt lat="45.86579929927633" lon="11.978608180203109"><ele>178.66666666666666</ele><time>2026-04-06T14:35:50Z</time></trkpt><trkpt lat="45.86571769486317" lon="11.978874608094273"><ele>180.0</ele><time>2026-04-06T14:35:51Z</time></trkpt><trkpt lat="45.865642842304126" lon="11.979142303882394"><ele>179.33333333333334</ele><time>2026-04-06T14:35:52Z</time></trkpt><trkpt lat="45.86557535869741" lon="11.9794035846891"><ele>178.66666666666669</ele><time>2026-04-06T14:35:53Z</time></trkpt><trkpt lat="45.86551439691551" lon="11.97965689632828"><ele>178.0</ele><time>2026-04-06T14:35:54Z</time></trkpt><trkpt lat="45.865461029102875" lon="11.979903518337384"><ele>176.66666666666669</ele><time>2026-04-06T14:35:55Z</time></trkpt><trkpt lat="45.865416137037414" lon="11.980134700045957"><ele>175.33333333333334</ele><time>2026-04-06T14:35:56Z</time></trkpt><trkpt lat="45.8653767724605" lon="11.980364881101584"><ele>174.0</ele><time>2026-04-06T14:35:57Z</time></trkpt><trkpt lat="45.865347662949546" lon="11.98060978168305"><ele>174.66666666666666</ele><time>2026-04-06T14:35:58Z</time></trkpt><trkpt lat="45.86532397831223" lon="11.980872055196558"><ele>175.33333333333331</ele><time>2026-04-06T14:35:59Z</time></trkpt><trkpt lat="45.865299494123676" lon="11.981146982109802"><ele>176.0</ele><time>2026-04-06T14:36:00Z</time></trkpt><trkpt lat="45.86527373595895" lon="11.981430730575827"><ele>175.66666666666666</ele><time>2026-04-06T14:36:01Z</time></trkpt><trkpt lat="45.86524828184148" lon="11.981727692928029"><ele>175.33333333333334</ele><time>2026-04-06T14:36:02Z</time></trkpt><trkpt lat="45.865223448961814" lon="11.982031242785865"><ele>175.0</ele><time>2026-04-06T14:36:03Z</time></trkpt><trkpt lat="45.86519771920863" lon="11.98234051249273"><ele>173.33333333333334</ele><time>2026-04-06T14:36:04Z</time></trkpt><trkpt lat="45.86517301807257" lon="11.98265083153621"><ele>171.66666666666666</ele><time>2026-04-06T14:36:05Z</time></trkpt><trkpt lat="45.86514710289495" lon="11.982968932006631"><ele>170.0</ele><time>2026-04-06T14:36:06Z</time></trkpt><trkpt lat="45.86511906578925" lon="11.983291037578274"><ele>172.5</ele><time>2026-04-06T14:36:07Z</time></trkpt><trkpt lat="45.865088678158166" lon="11.98361669533705"><ele>175.0</ele><time>2026-04-06T14:36:08Z</time></trkpt><trkpt lat="45.86505783390489" lon="11.98394457816059"><ele>174.5</ele><time>2026-04-06T14:36:09Z</time></trkpt><trkpt lat="45.865029162332824" lon="11.984275857089175"><ele>174.0</ele><time>2026-04-06T14:36:10Z</time></trkpt><trkpt lat="45.865001058876885" lon="11.984607127928708"><ele>174.0</ele><time>2026-04-06T14:36:11Z</time></trkpt><trkpt lat="45.864972477695886" lon="11.984931258135365"><ele>174.0</ele><time>2026-04-06T14:36:12Z</time></trkpt><trkpt lat="45.86494383160956" lon="11.98525112265908"><ele>174.33333333333334</ele><time>2026-04-06T14:36:13Z</time></trkpt><trkpt lat="45.86491579548183" lon="11.985568494021495"><ele>174.66666666666669</ele><time>2026-04-06T14:36:14Z</time></trkpt><trkpt lat="45.86488900459979" lon="11.985881967480902"><ele>175.0</ele><time>2026-04-06T14:36:15Z</time></trkpt><trkpt lat="45.86486304043376" lon="11.986195896651223"><ele>174.33333333333334</ele><time>2026-04-06T14:36:16Z</time></trkpt><trkpt lat="45.86483394839562" lon="11.986512886173477"><ele>173.66666666666666</ele><time>2026-04-06T14:36:17Z</time></trkpt><trkpt lat="45.86480152789576" lon="11.986831960603256"><ele>173.0</ele><time>2026-04-06T14:36:18Z</time></trkpt><trkpt lat="45.86476378641887" lon="11.987155272658056"><ele>172.0</ele><time>2026-04-06T14:36:19Z</time></trkpt><trkpt lat="45.86472049234295" lon="11.987477432457084"><ele>171.0</ele><time>2026-04-06T14:36:20Z</time></trkpt><trkpt lat="45.864672241778585" lon="11.987792706809309"><ele>169.33333333333334</ele><time>2026-04-06T14:36:21Z</time></trkpt><trkpt lat="45.86461577997288" lon="11.988101781594809"><ele>167.66666666666669</ele><time>2026-04-06T14:36:22Z</time></trkpt><trkpt lat="45.86455133485514" lon="11.98840597053185"><ele>166.0</ele><time>2026-04-06T14:36:23Z</time></trkpt><trkpt lat="45.8644794196971" lon="11.988709297989617"><ele>166.0</ele><time>2026-04-06T14:36:24Z</time></trkpt><trkpt lat="45.86439820191831" lon="11.989013282828703"><ele>166.0</ele><time>2026-04-06T14:36:25Z</time></trkpt><trkpt lat="45.86430420561641" lon="11.989314037605183"><ele>168.5</ele><time>2026-04-06T14:36:26Z</time></trkpt><trkpt lat="45.86419780525035" lon="11.989610395833152"><ele>171.0</ele><time>2026-04-06T14:36:27Z</time></trkpt><trkpt lat="45.86407715141419" lon="11.989902423021206"><ele>171.0</ele><time>2026-04-06T14:36:28Z</time></trkpt><trkpt lat="45.8639451599913" lon="11.990189095562846"><ele>171.0</ele><time>2026-04-06T14:36:29Z</time></trkpt><trkpt lat="45.86380111382269" lon="11.99047002319618"><ele>171.0</ele><time>2026-04-06T14:36:30Z</time></trkpt><trkpt lat="45.86364742185892" lon="11.990742465389314"><ele>171.0</ele><time>2026-04-06T14:36:31Z</time></trkpt><trkpt lat="45.86348343626071" lon="11.991005342113938"><ele>166.0</ele><time>2026-04-06T14:36:32Z</time></trkpt><trkpt lat="45.863310280542095" lon="11.991262206421544"><ele>161.0</ele><time>2026-04-06T14:36:33Z</time></trkpt><trkpt lat="45.863129572001135" lon="11.991510175310014"><ele>160.0</ele><time>2026-04-06T14:36:34Z</time></trkpt><trkpt lat="45.86294360119164" lon="11.991750742426214"><ele>159.0</ele><time>2026-04-06T14:36:35Z</time></trkpt><trkpt lat="45.86275760617352" lon="11.991981806219613"><ele>157.5</ele><time>2026-04-06T14:36:36Z</time></trkpt><trkpt lat="45.8625779826911" lon="11.992199862414871"><ele>156.0</ele><time>2026-04-06T14:36:37Z</time></trkpt><trkpt lat="45.86240290692284" lon="11.992408329205995"><ele>155.33333333333334</ele><time>2026-04-06T14:36:38Z</time></trkpt><trkpt lat="45.86222982997049" lon="11.992611583684873"><ele>154.66666666666669</ele><time>2026-04-06T14:36:39Z</time></trkpt><trkpt lat="45.86205841890184" lon="11.992813035138617"><ele>154.0</ele><time>2026-04-06T14:36:40Z</time></trkpt><trkpt lat="45.86188609667425" lon="11.993013598162678"><ele>155.0</ele><time>2026-04-06T14:36:41Z</time></trkpt><trkpt lat="45.8617143529458" lon="11.99321941955556"><ele>156.0</ele><time>2026-04-06T14:36:42Z</time></trkpt><trkpt lat="45.86154197169935" lon="11.993430063825022"><ele>156.0</ele><time>2026-04-06T14:36:43Z</time></trkpt><trkpt lat="45.8613694133101" lon="11.993645998981362"><ele>156.0</ele><time>2026-04-06T14:36:44Z</time></trkpt><trkpt lat="45.861200818830106" lon="11.993870560528382"><ele>156.0</ele><time>2026-04-06T14:36:45Z</time></trkpt><trkpt lat="45.86103735477484" lon="11.994100094184704"><ele>156.0</ele><time>2026-04-06T14:36:46Z</time></trkpt><trkpt lat="45.860879549834536" lon="11.994338550277487"><ele>161.0</ele><time>2026-04-06T14:36:47Z</time></trkpt><trkpt lat="45.86072717040157" lon="11.994583631735255"><ele>166.0</ele><time>2026-04-06T14:36:48Z</time></trkpt><trkpt lat="45.860582016299034" lon="11.994838554553032"><ele>167.5</ele><time>2026-04-06T14:36:49Z</time></trkpt><trkpt lat="45.86044191157822" lon="11.995103411922882"><ele>169.0</ele><time>2026-04-06T14:36:50Z</time></trkpt><trkpt lat="45.860306133676005" lon="11.995373273003471"><ele>169.0</ele><time>2026-04-06T14:36:51Z</time></trkpt><trkpt lat="45.860183270546734" lon="11.99562595526902"><ele>169.0</ele><time>2026-04-06T14:36:52Z</time></trkpt><trkpt lat="45.860068572401765" lon="11.995873131980144"><ele>169.0</ele><time>2026-04-06T14:36:53Z</time></trkpt><trkpt lat="45.8599502973949" lon="11.99612832202511"><ele>168.0</ele><time>2026-04-06T14:36:54Z</time></trkpt><trkpt lat="45.859830512131836" lon="11.996389907844584"><ele>167.0</ele><time>2026-04-06T14:36:55Z</time></trkpt><trkpt lat="45.85970764676952" lon="11.99665429525996"><ele>166.0</ele><time>2026-04-06T14:36:56Z</time></trkpt><trkpt lat="45.85958371457811" lon="11.99692219947747"><ele>166.0</ele><time>2026-04-06T14:36:57Z</time></trkpt><trkpt lat="45.85945588741788" lon="11.997194161095203"><ele>166.0</ele><time>2026-04-06T14:36:58Z</time></trkpt><trkpt lat="45.85932343051558" lon="11.99746782334928"><ele>165.5</ele><time>2026-04-06T14:36:59Z</time></trkpt><trkpt lat="45.85918492649488" lon="11.997741066100168"><ele>165.0</ele><time>2026-04-06T14:37:00Z</time></trkpt><trkpt lat="45.85904060057321" lon="11.998011707465222"><ele>165.0</ele><time>2026-04-06T14:37:01Z</time></trkpt><trkpt lat="45.858891825600494" lon="11.99827797815187"><ele>165.0</ele><time>2026-04-06T14:37:02Z</time></trkpt><trkpt lat="45.85873945841902" lon="11.99853727294265"><ele>165.5</ele><time>2026-04-06T14:37:03Z</time></trkpt><trkpt lat="45.85857275877172" lon="11.998778580743839"><ele>166.0</ele><time>2026-04-06T14:37:04Z</time></trkpt><trkpt lat="45.85837655760615" lon="11.998986411587195"><ele>165.5</ele><time>2026-04-06T14:37:05Z</time></trkpt><trkpt lat="45.85820256183767" lon="11.999207719330045"><ele>165.0</ele><time>2026-04-06T14:37:06Z</time></trkpt><trkpt lat="45.85802394703289" lon="11.999418270240483"><ele>165.0</ele><time>2026-04-06T14:37:07Z</time></trkpt><trkpt lat="45.85784804665824" lon="11.99962746845846"><ele>165.0</ele><time>2026-04-06T14:37:08Z</time></trkpt><trkpt lat="45.85767049842028" lon="11.999830654424196"><ele>165.33333333333334</ele><time>2026-04-06T14:37:09Z</time></trkpt><trkpt lat="45.85749461948965" lon="12.0000242962407"><ele>165.66666666666669</ele><time>2026-04-06T14:37:10Z</time></trkpt><trkpt lat="45.857320329754714" lon="12.000214489039605"><ele>166.0</ele><time>2026-04-06T14:37:11Z</time></trkpt><trkpt lat="45.85715008671987" lon="12.000401829242945"><ele>166.0</ele><time>2026-04-06T14:37:12Z</time></trkpt><trkpt lat="45.85698274889806" lon="12.000581694221594"><ele>166.0</ele><time>2026-04-06T14:37:13Z</time></trkpt><trkpt lat="45.85682339277398" lon="12.000750407937213"><ele>166.0</ele><time>2026-04-06T14:37:14Z</time></trkpt><trkpt lat="45.85667647468442" lon="12.000909615082449"><ele>165.33333333333334</ele><time>2026-04-06T14:37:15Z</time></trkpt><trkpt lat="45.856541147231795" lon="12.001057675411182"><ele>164.66666666666666</ele><time>2026-04-06T14:37:16Z</time></trkpt><trkpt lat="45.85641515968981" lon="12.001194718378624"><ele>164.0</ele><time>2026-04-06T14:37:17Z</time></trkpt><trkpt lat="45.85629469926178" lon="12.001330753040765"><ele>164.0</ele><time>2026-04-06T14:37:18Z</time></trkpt><trkpt lat="45.85616050846029" lon="12.001439553773888"><ele>164.0</ele><time>2026-04-06T14:37:19Z</time></trkpt><trkpt lat="45.856026711221475" lon="12.00157878316394"><ele>164.0</ele><time>2026-04-06T14:37:20Z</time></trkpt><trkpt lat="45.85588657703873" lon="12.001721672307378"><ele>164.66666666666666</ele><time>2026-04-06T14:37:21Z</time></trkpt><trkpt lat="45.85574419036845" lon="12.00186528180016"><ele>165.33333333333334</ele><time>2026-04-06T14:37:22Z</time></trkpt><trkpt lat="45.85559352713751" lon="12.002014169893123"><ele>166.0</ele><time>2026-04-06T14:37:23Z</time></trkpt><trkpt lat="45.85542967244851" lon="12.002172478889712"><ele>166.0</ele><time>2026-04-06T14:37:24Z</time></trkpt><trkpt lat="45.85525248436089" lon="12.002340346797585"><ele>166.0</ele><time>2026-04-06T14:37:25Z</time></trkpt><trkpt lat="45.85506387682774" lon="12.002514274143707"><ele>166.0</ele><time>2026-04-06T14:37:26Z</time></trkpt><trkpt lat="45.85486442976067" lon="12.002696317411159"><ele>165.33333333333334</ele><time>2026-04-06T14:37:27Z</time></trkpt><trkpt lat="45.854679406064854" lon="12.00286519602562"><ele>164.66666666666666</ele><time>2026-04-06T14:37:28Z</time></trkpt><trkpt lat="45.85450313888468" lon="12.00302608217282"><ele>164.0</ele><time>2026-04-06T14:37:29Z</time></trkpt><trkpt lat="45.85433727258046" lon="12.003178687988983"><ele>164.66666666666666</ele><time>2026-04-06T14:37:30Z</time></trkpt><trkpt lat="45.8541758751198" lon="12.003331787468296"><ele>165.33333333333334</ele><time>2026-04-06T14:37:31Z</time></trkpt><trkpt lat="45.85403292460763" lon="12.003501752499163"><ele>166.0</ele><time>2026-04-06T14:37:32Z</time></trkpt><trkpt lat="45.85387667203756" lon="12.003637999336869"><ele>166.0</ele><time>2026-04-06T14:37:33Z</time></trkpt><trkpt lat="45.853732672061525" lon="12.003800527432803"><ele>166.0</ele><time>2026-04-06T14:37:34Z</time></trkpt><trkpt lat="45.85359455649583" lon="12.003967461371031"><ele>166.0</ele><time>2026-04-06T14:37:35Z</time></trkpt><trkpt lat="45.85348044763002" lon="12.004151574520316"><ele>165.33333333333334</ele><time>2026-04-06T14:37:36Z</time></trkpt><trkpt lat="45.85335855350257" lon="12.004300918966369"><ele>164.66666666666666</ele><time>2026-04-06T14:37:37Z</time></trkpt><trkpt lat="45.85325350665639" lon="12.004466405735926"><ele>164.0</ele><time>2026-04-06T14:37:38Z</time></trkpt><trkpt lat="45.85315232374341" lon="12.004630444020743"><ele>164.0</ele><time>2026-04-06T14:37:39Z</time></trkpt><trkpt lat="45.853054990582784" lon="12.004795961047401"><ele>164.0</ele><time>2026-04-06T14:37:40Z</time></trkpt><trkpt lat="45.85295740668632" lon="12.004966431179957"><ele>164.0</ele><time>2026-04-06T14:37:41Z</time></trkpt><trkpt lat="45.852871785524606" lon="12.005156025317927"><ele>163.66666666666666</ele><time>2026-04-06T14:37:42Z</time></trkpt><trkpt lat="45.852769986748285" lon="12.005330431163019"><ele>163.33333333333334</ele><time>2026-04-06T14:37:43Z</time></trkpt><trkpt lat="45.852662062598085" lon="12.005491934172149"><ele>163.0</ele><time>2026-04-06T14:37:44Z</time></trkpt><trkpt lat="45.85256111620365" lon="12.005669902131457"><ele>162.33333333333334</ele><time>2026-04-06T14:37:45Z</time></trkpt><trkpt lat="45.852460500330004" lon="12.005846838190944"><ele>161.66666666666666</ele><time>2026-04-06T14:37:46Z</time></trkpt><trkpt lat="45.852356032672596" lon="12.00602591278205"><ele>161.0</ele><time>2026-04-06T14:37:47Z</time></trkpt><trkpt lat="45.85225193114656" lon="12.006230056488974"><ele>161.0</ele><time>2026-04-06T14:37:48Z</time></trkpt><trkpt lat="45.852117101282474" lon="12.006394498960859"><ele>161.0</ele><time>2026-04-06T14:37:49Z</time></trkpt><trkpt lat="45.851986534239224" lon="12.006576600294963"><ele>161.0</ele><time>2026-04-06T14:37:50Z</time></trkpt><trkpt lat="45.85185444060875" lon="12.006759446596405"><ele>161.33333333333331</ele><time>2026-04-06T14:37:51Z</time></trkpt><trkpt lat="45.85172000284541" lon="12.006938939925227"><ele>161.66666666666666</ele><time>2026-04-06T14:37:52Z</time></trkpt><trkpt lat="45.85158113150298" lon="12.007109459149111"><ele>162.0</ele><time>2026-04-06T14:37:53Z</time></trkpt><trkpt lat="45.85144739076884" lon="12.007273676916707"><ele>162.0</ele><time>2026-04-06T14:37:54Z</time></trkpt><trkpt lat="45.85131402990497" lon="12.007437428184234"><ele>162.0</ele><time>2026-04-06T14:37:55Z</time></trkpt><trkpt lat="45.85118395571805" lon="12.007597143929122"><ele>162.0</ele><time>2026-04-06T14:37:56Z</time></trkpt><trkpt lat="45.85105493907438" lon="12.007755561167064"><ele>162.33333333333334</ele><time>2026-04-06T14:37:57Z</time></trkpt><trkpt lat="45.85093744895556" lon="12.00793063174464"><ele>162.66666666666669</ele><time>2026-04-06T14:37:58Z</time></trkpt><trkpt lat="45.85080059671709" lon="12.008082587772575"><ele>163.0</ele><time>2026-04-06T14:37:59Z</time></trkpt><trkpt lat="45.850671978263684" lon="12.008244471992624"><ele>163.0</ele><time>2026-04-06T14:38:00Z</time></trkpt><trkpt lat="45.8505440485043" lon="12.008409184403874"><ele>163.0</ele><time>2026-04-06T14:38:01Z</time></trkpt><trkpt lat="45.850411756098815" lon="12.008576329176549"><ele>163.0</ele><time>2026-04-06T14:38:02Z</time></trkpt><trkpt lat="45.85027584156841" lon="12.008747651022043"><ele>163.0</ele><time>2026-04-06T14:38:03Z</time></trkpt><trkpt lat="45.850127353813214" lon="12.008902180794124"><ele>163.0</ele><time>2026-04-06T14:38:04Z</time></trkpt><trkpt lat="45.84998624927795" lon="12.009075235589663"><ele>163.0</ele><time>2026-04-06T14:38:05Z</time></trkpt><trkpt lat="45.84984485744785" lon="12.009247516360482"><ele>161.66666666666669</ele><time>2026-04-06T14:38:06Z</time></trkpt><trkpt lat="45.84970140517982" lon="12.009420832416001"><ele>160.33333333333334</ele><time>2026-04-06T14:38:07Z</time></trkpt><trkpt lat="45.849555567447915" lon="12.009594479425333"><ele>159.0</ele><time>2026-04-06T14:38:08Z</time></trkpt><trkpt lat="45.84940549574899" lon="12.009769873302861"><ele>160.0</ele><time>2026-04-06T14:38:09Z</time></trkpt><trkpt lat="45.84925070035787" lon="12.00994889492597"><ele>161.0</ele><time>2026-04-06T14:38:10Z</time></trkpt><trkpt lat="45.84910132105534" lon="12.01011592467992"><ele>162.0</ele><time>2026-04-06T14:38:11Z</time></trkpt><trkpt lat="45.84895566260075" lon="12.010272667774933"><ele>162.66666666666666</ele><time>2026-04-06T14:38:12Z</time></trkpt><trkpt lat="45.84881205009561" lon="12.010421624098704"><ele>163.33333333333331</ele><time>2026-04-06T14:38:13Z</time></trkpt><trkpt lat="45.84866643823813" lon="12.010567738726937"><ele>164.0</ele><time>2026-04-06T14:38:14Z</time></trkpt><trkpt lat="45.84851838810357" lon="12.010710984942651"><ele>163.0</ele><time>2026-04-06T14:38:15Z</time></trkpt><trkpt lat="45.84837012138577" lon="12.010843358396349"><ele>162.0</ele><time>2026-04-06T14:38:16Z</time></trkpt><trkpt lat="45.84822500361348" lon="12.010963945116979"><ele>161.0</ele><time>2026-04-06T14:38:17Z</time></trkpt><trkpt lat="45.84807877458388" lon="12.011078741808035"><ele>161.0</ele><time>2026-04-06T14:38:18Z</time></trkpt><trkpt lat="45.84792830372358" lon="12.01119194156961"><ele>161.0</ele><time>2026-04-06T14:38:19Z</time></trkpt><trkpt lat="45.84777428637181" lon="12.011300341847772"><ele>161.0</ele><time>2026-04-06T14:38:20Z</time></trkpt><trkpt lat="45.84761675123144" lon="12.011402781898203"><ele>160.33333333333331</ele><time>2026-04-06T14:38:21Z</time></trkpt><trkpt lat="45.84745487073339" lon="12.011502840995853"><ele>159.66666666666666</ele><time>2026-04-06T14:38:22Z</time></trkpt><trkpt lat="45.84729043868325" lon="12.011600177636138"><ele>159.0</ele><time>2026-04-06T14:38:23Z</time></trkpt><trkpt lat="45.847123409910914" lon="12.011694428474847"><ele>158.66666666666666</ele><time>2026-04-06T14:38:24Z</time></trkpt><trkpt lat="45.846949650977685" lon="12.011786550904985"><ele>158.33333333333331</ele><time>2026-04-06T14:38:25Z</time></trkpt><trkpt lat="45.846763109513255" lon="12.011881242216301"><ele>158.0</ele><time>2026-04-06T14:38:26Z</time></trkpt><trkpt lat="45.84656648969614" lon="12.011974641424727"><ele>158.0</ele><time>2026-04-06T14:38:27Z</time></trkpt><trkpt lat="45.84636955777603" lon="12.01206280509176"><ele>158.0</ele><time>2026-04-06T14:38:28Z</time></trkpt><trkpt lat="45.84616766955202" lon="12.01214631402331"><ele>158.0</ele><time>2026-04-06T14:38:29Z</time></trkpt><trkpt lat="45.845968303540594" lon="12.012226167363764"><ele>158.0</ele><time>2026-04-06T14:38:30Z</time></trkpt><trkpt lat="45.84577967897783" lon="12.01230171834066"><ele>158.0</ele><time>2026-04-06T14:38:31Z</time></trkpt><trkpt lat="45.845599423004586" lon="12.012373917432479"><ele>158.0</ele><time>2026-04-06T14:38:32Z</time></trkpt><trkpt lat="45.84542898145954" lon="12.012442185458484"><ele>158.66666666666666</ele><time>2026-04-06T14:38:33Z</time></trkpt><trkpt lat="45.845259540772304" lon="12.012509525187822"><ele>159.33333333333334</ele><time>2026-04-06T14:38:34Z</time></trkpt><trkpt lat="45.84507981467554" lon="12.012580859589704"><ele>160.0</ele><time>2026-04-06T14:38:35Z</time></trkpt><trkpt lat="45.84489405423866" lon="12.012654589112827"><ele>160.0</ele><time>2026-04-06T14:38:36Z</time></trkpt><trkpt lat="45.844702554323874" lon="12.012730596629545"><ele>160.0</ele><time>2026-04-06T14:38:37Z</time></trkpt><trkpt lat="45.84450436603918" lon="12.01280925881371"><ele>160.0</ele><time>2026-04-06T14:38:38Z</time></trkpt><trkpt lat="45.84430471951616" lon="12.01288849976537"><ele>160.33333333333334</ele><time>2026-04-06T14:38:39Z</time></trkpt><trkpt lat="45.84411715421273" lon="12.012963986964692"><ele>160.66666666666666</ele><time>2026-04-06T14:38:40Z</time></trkpt><trkpt lat="45.843939181559406" lon="12.013036083888947"><ele>161.0</ele><time>2026-04-06T14:38:41Z</time></trkpt><trkpt lat="45.84376918347974" lon="12.01310497969358"><ele>161.0</ele><time>2026-04-06T14:38:42Z</time></trkpt><trkpt lat="45.84360030980603" lon="12.013174881508638"><ele>161.0</ele><time>2026-04-06T14:38:43Z</time></trkpt><trkpt lat="45.84342713643328" lon="12.013247354642116"><ele>161.0</ele><time>2026-04-06T14:38:44Z</time></trkpt><trkpt lat="45.84324734320762" lon="12.013325366819135"><ele>160.33333333333331</ele><time>2026-04-06T14:38:45Z</time></trkpt><trkpt lat="45.84306232019132" lon="12.013407788639649"><ele>159.66666666666666</ele><time>2026-04-06T14:38:46Z</time></trkpt><trkpt lat="45.84287166546801" lon="12.013496928133192"><ele>159.0</ele><time>2026-04-06T14:38:47Z</time></trkpt><trkpt lat="45.842684505927586" lon="12.013589797171585"><ele>158.33333333333334</ele><time>2026-04-06T14:38:48Z</time></trkpt><trkpt lat="45.84250540944803" lon="12.013684830365987"><ele>157.66666666666669</ele><time>2026-04-06T14:38:49Z</time></trkpt><trkpt lat="45.84233040669533" lon="12.013782038928404"><ele>157.0</ele><time>2026-04-06T14:38:50Z</time></trkpt><trkpt lat="45.842152547890535" lon="12.013884436305652"><ele>157.0</ele><time>2026-04-06T14:38:51Z</time></trkpt><trkpt lat="45.84196766549197" lon="12.013994947198878"><ele>157.0</ele><time>2026-04-06T14:38:52Z</time></trkpt><trkpt lat="45.84178888405786" lon="12.014109389020101"><ele>157.0</ele><time>2026-04-06T14:38:53Z</time></trkpt><trkpt lat="45.84162059998879" lon="12.01422030065993"><ele>158.33333333333334</ele><time>2026-04-06T14:38:54Z</time></trkpt><trkpt lat="45.84145413823541" lon="12.01433067198017"><ele>159.66666666666666</ele><time>2026-04-06T14:38:55Z</time></trkpt><trkpt lat="45.84127753771279" lon="12.014449063451364"><ele>161.0</ele><time>2026-04-06T14:38:56Z</time></trkpt><trkpt lat="45.84109319986451" lon="12.014572746495494"><ele>161.0</ele><time>2026-04-06T14:38:57Z</time></trkpt><trkpt lat="45.840910753827345" lon="12.014697084086778"><ele>161.0</ele><time>2026-04-06T14:38:58Z</time></trkpt><trkpt lat="45.84072704227318" lon="12.014821170407993"><ele>161.0</ele><time>2026-04-06T14:38:59Z</time></trkpt><trkpt lat="45.84054604194616" lon="12.014944924726104"><ele>161.0</ele><time>2026-04-06T14:39:00Z</time></trkpt><trkpt lat="45.840364649058046" lon="12.015069774088499"><ele>161.0</ele><time>2026-04-06T14:39:01Z</time></trkpt><trkpt lat="45.8401824636265" lon="12.01519516894412"><ele>161.0</ele><time>2026-04-06T14:39:02Z</time></trkpt><trkpt lat="45.84000318954026" lon="12.01531855997986"><ele>161.0</ele><time>2026-04-06T14:39:03Z</time></trkpt><trkpt lat="45.839825732212645" lon="12.015441326489187"><ele>161.0</ele><time>2026-04-06T14:39:04Z</time></trkpt><trkpt lat="45.83965085391112" lon="12.01556244979094"><ele>161.0</ele><time>2026-04-06T14:39:05Z</time></trkpt><trkpt lat="45.83948043716839" lon="12.015679970249815"><ele>161.0</ele><time>2026-04-06T14:39:06Z</time></trkpt><trkpt lat="45.83930966597348" lon="12.015797753916535"><ele>161.0</ele><time>2026-04-06T14:39:07Z</time></trkpt><trkpt lat="45.83913818535753" lon="12.015916026890139"><ele>161.0</ele><time>2026-04-06T14:39:08Z</time></trkpt><trkpt lat="45.838966982756794" lon="12.016034149584346"><ele>160.66666666666666</ele><time>2026-04-06T14:39:09Z</time></trkpt><trkpt lat="45.83879649295411" lon="12.016152115641521"><ele>160.33333333333334</ele><time>2026-04-06T14:39:10Z</time></trkpt><trkpt lat="45.83862461555447" lon="12.01627104180958"><ele>160.0</ele><time>2026-04-06T14:39:11Z</time></trkpt><trkpt lat="45.83845410819999" lon="12.016389020012864"><ele>160.0</ele><time>2026-04-06T14:39:12Z</time></trkpt><trkpt lat="45.838297055892916" lon="12.016497688335818"><ele>160.0</ele><time>2026-04-06T14:39:13Z</time></trkpt><trkpt lat="45.83812731517515" lon="12.016615136086086"><ele>160.0</ele><time>2026-04-06T14:39:14Z</time></trkpt><trkpt lat="45.83794716285534" lon="12.016740134668039"><ele>160.0</ele><time>2026-04-06T14:39:15Z</time></trkpt><trkpt lat="45.83775879104025" lon="12.016870141778965"><ele>160.0</ele><time>2026-04-06T14:39:16Z</time></trkpt><trkpt lat="45.83756106722651" lon="12.017006427657611"><ele>160.0</ele><time>2026-04-06T14:39:17Z</time></trkpt><trkpt lat="45.83737159833793" lon="12.017138327879021"><ele>159.33333333333334</ele><time>2026-04-06T14:39:18Z</time></trkpt><trkpt lat="45.837191338737966" lon="12.017264435260401"><ele>158.66666666666666</ele><time>2026-04-06T14:39:19Z</time></trkpt><trkpt lat="45.83702016294391" lon="12.017384189642229"><ele>158.0</ele><time>2026-04-06T14:39:20Z</time></trkpt><trkpt lat="45.83685683750628" lon="12.017496535960458"><ele>158.0</ele><time>2026-04-06T14:39:21Z</time></trkpt><trkpt lat="45.836696549141635" lon="12.0176012706711"><ele>158.0</ele><time>2026-04-06T14:39:22Z</time></trkpt><trkpt lat="45.836541004050844" lon="12.017704319317051"><ele>158.0</ele><time>2026-04-06T14:39:23Z</time></trkpt><trkpt lat="45.83639366168632" lon="12.01782371956346"><ele>158.0</ele><time>2026-04-06T14:39:24Z</time></trkpt><trkpt lat="45.83623688421213" lon="12.017919899540967"><ele>158.0</ele><time>2026-04-06T14:39:25Z</time></trkpt><trkpt lat="45.836074751653506" lon="12.017987973093966"><ele>158.0</ele><time>2026-04-06T14:39:26Z</time></trkpt><trkpt lat="45.83592045222922" lon="12.018072615408885"><ele>157.66666666666666</ele><time>2026-04-06T14:39:27Z</time></trkpt><trkpt lat="45.83577216278287" lon="12.0181732246213"><ele>157.33333333333334</ele><time>2026-04-06T14:39:28Z</time></trkpt><trkpt lat="45.835615114374704" lon="12.018248734809074"><ele>157.0</ele><time>2026-04-06T14:39:29Z</time></trkpt><trkpt lat="45.8354673197508" lon="12.018318669074104"><ele>157.0</ele><time>2026-04-06T14:39:30Z</time></trkpt><trkpt lat="45.83532854178384" lon="12.018380785569462"><ele>157.0</ele><time>2026-04-06T14:39:31Z</time></trkpt><trkpt lat="45.83519482017935" lon="12.018434373961625"><ele>157.0</ele><time>2026-04-06T14:39:32Z</time></trkpt><trkpt lat="45.835067221431956" lon="12.018488858473798"><ele>157.0</ele><time>2026-04-06T14:39:33Z</time></trkpt><trkpt lat="45.83494097600253" lon="12.018542735985868"><ele>157.0</ele><time>2026-04-06T14:39:34Z</time></trkpt><trkpt lat="45.834809598528466" lon="12.018602364878548"><ele>157.0</ele><time>2026-04-06T14:39:35Z</time></trkpt><trkpt lat="45.8346717285657" lon="12.018661377551663"><ele>157.0</ele><time>2026-04-06T14:39:36Z</time></trkpt><trkpt lat="45.83452499390575" lon="12.01871535358663"><ele>157.0</ele><time>2026-04-06T14:39:37Z</time></trkpt><trkpt lat="45.83437437699552" lon="12.018783438119701"><ele>156.66666666666669</ele><time>2026-04-06T14:39:38Z</time></trkpt><trkpt lat="45.83421685265418" lon="12.018851947102144"><ele>156.33333333333334</ele><time>2026-04-06T14:39:39Z</time></trkpt><trkpt lat="45.834056088346024" lon="12.018897855324568"><ele>156.0</ele><time>2026-04-06T14:39:40Z</time></trkpt><trkpt lat="45.83389581749633" lon="12.018966079496556"><ele>156.0</ele><time>2026-04-06T14:39:41Z</time></trkpt><trkpt lat="45.83373260264002" lon="12.019036831074501"><ele>156.0</ele><time>2026-04-06T14:39:42Z</time></trkpt><trkpt lat="45.83356558869358" lon="12.019107515190273"><ele>156.0</ele><time>2026-04-06T14:39:43Z</time></trkpt><trkpt lat="45.8334058342122" lon="12.019174948818433"><ele>155.66666666666666</ele><time>2026-04-06T14:39:44Z</time></trkpt><trkpt lat="45.83324643737274" lon="12.019242871972075"><ele>155.33333333333331</ele><time>2026-04-06T14:39:45Z</time></trkpt><trkpt lat="45.8330767036908" lon="12.01930834603547"><ele>155.0</ele><time>2026-04-06T14:39:46Z</time></trkpt><trkpt lat="45.8328936765222" lon="12.01937349260546"><ele>155.0</ele><time>2026-04-06T14:39:47Z</time></trkpt><trkpt lat="45.832694793649615" lon="12.0194420243798"><ele>155.0</ele><time>2026-04-06T14:39:48Z</time></trkpt><trkpt lat="45.83247969842827" lon="12.019508981093942"><ele>155.0</ele><time>2026-04-06T14:39:49Z</time></trkpt><trkpt lat="45.832256759388514" lon="12.01956428290968"><ele>154.0</ele><time>2026-04-06T14:39:50Z</time></trkpt><trkpt lat="45.832039490436635" lon="12.01961063341334"><ele>153.0</ele><time>2026-04-06T14:39:51Z</time></trkpt><trkpt lat="45.83183101005144" lon="12.019643921447168"><ele>152.0</ele><time>2026-04-06T14:39:52Z</time></trkpt><trkpt lat="45.83162626966799" lon="12.019663386728503"><ele>152.0</ele><time>2026-04-06T14:39:53Z</time></trkpt><trkpt lat="45.83142362083915" lon="12.019660615482914"><ele>152.0</ele><time>2026-04-06T14:39:54Z</time></trkpt><trkpt lat="45.831213263004265" lon="12.0196402691377"><ele>152.0</ele><time>2026-04-06T14:39:55Z</time></trkpt><trkpt lat="45.830996256532345" lon="12.019611971901554"><ele>151.33333333333331</ele><time>2026-04-06T14:39:56Z</time></trkpt><trkpt lat="45.83078297685849" lon="12.019568505283134"><ele>150.66666666666666</ele><time>2026-04-06T14:39:57Z</time></trkpt><trkpt lat="45.830572098744355" lon="12.019507276417166"><ele>150.0</ele><time>2026-04-06T14:39:58Z</time></trkpt><trkpt lat="45.83035326257261" lon="12.019429209554502"><ele>151.0</ele><time>2026-04-06T14:39:59Z</time></trkpt><trkpt lat="45.83013134556897" lon="12.019337268461145"><ele>152.0</ele><time>2026-04-06T14:40:00Z</time></trkpt><trkpt lat="45.829933794457396" lon="12.019243976669085"><ele>153.0</ele><time>2026-04-06T14:40:01Z</time></trkpt><trkpt lat="45.829761708052864" lon="12.01914242483573"><ele>153.0</ele><time>2026-04-06T14:40:02Z</time></trkpt><trkpt lat="45.8296086048498" lon="12.01904404738597"><ele>153.0</ele><time>2026-04-06T14:40:03Z</time></trkpt><trkpt lat="45.82947871071689" lon="12.018958674867795"><ele>153.0</ele><time>2026-04-06T14:40:04Z</time></trkpt><trkpt lat="45.8293605979192" lon="12.01887930311078"><ele>153.0</ele><time>2026-04-06T14:40:05Z</time></trkpt><trkpt lat="45.82924468356084" lon="12.018796522210264"><ele>153.75</ele><time>2026-04-06T14:40:06Z</time></trkpt><trkpt lat="45.82912739500824" lon="12.018711261340188"><ele>154.5</ele><time>2026-04-06T14:40:07Z</time></trkpt><trkpt lat="45.82900296926501" lon="12.018617533534695"><ele>155.25</ele><time>2026-04-06T14:40:08Z</time></trkpt><trkpt lat="45.82887258859383" lon="12.01851931998507"><ele>156.0</ele><time>2026-04-06T14:40:09Z</time></trkpt><trkpt lat="45.82873426044418" lon="12.018414930310886"><ele>155.0</ele><time>2026-04-06T14:40:10Z</time></trkpt><trkpt lat="45.82859051695009" lon="12.018304939130656"><ele>154.0</ele><time>2026-04-06T14:40:11Z</time></trkpt><trkpt lat="45.82844420408923" lon="12.018192981899524"><ele>153.0</ele><time>2026-04-06T14:40:12Z</time></trkpt><trkpt lat="45.828302485501034" lon="12.018084540151495"><ele>152.5</ele><time>2026-04-06T14:40:13Z</time></trkpt><trkpt lat="45.82816858017167" lon="12.017981461229835"><ele>152.0</ele><time>2026-04-06T14:40:14Z</time></trkpt><trkpt lat="45.828040505240594" lon="12.017879494673744"><ele>151.5</ele><time>2026-04-06T14:40:15Z</time></trkpt><trkpt lat="45.827920894488216" lon="12.017784721530166"><ele>151.0</ele><time>2026-04-06T14:40:16Z</time></trkpt><trkpt lat="45.8278071100674" lon="12.017695596862568"><ele>151.0</ele><time>2026-04-06T14:40:17Z</time></trkpt><trkpt lat="45.82770341876732" lon="12.017615854690334"><ele>151.0</ele><time>2026-04-06T14:40:18Z</time></trkpt><trkpt lat="45.827607567753596" lon="12.01754214196059"><ele>151.0</ele><time>2026-04-06T14:40:19Z</time></trkpt><trkpt lat="45.827515828490746" lon="12.01747159319064"><ele>151.0</ele><time>2026-04-06T14:40:20Z</time></trkpt><trkpt lat="45.82743446446216" lon="12.017409021462152"><ele>151.0</ele><time>2026-04-06T14:40:21Z</time></trkpt><trkpt lat="45.8273633450595" lon="12.017354001101953"><ele>151.2</ele><time>2026-04-06T14:40:22Z</time></trkpt><trkpt lat="45.82728421461453" lon="12.017318787152607"><ele>151.39999999999998</ele><time>2026-04-06T14:40:23Z</time></trkpt><trkpt lat="45.827212770513746" lon="12.01726356523874"><ele>151.6</ele><time>2026-04-06T14:40:24Z</time></trkpt><trkpt lat="45.82713794531964" lon="12.017178018578015"><ele>151.79999999999998</ele><time>2026-04-06T14:40:25Z</time></trkpt><trkpt lat="45.8270384404958" lon="12.017121281785156"><ele>152.0</ele><time>2026-04-06T14:40:26Z</time></trkpt><trkpt lat="45.826939138553584" lon="12.017039514788918"><ele>152.0</ele><time>2026-04-06T14:40:27Z</time></trkpt><trkpt lat="45.82682792353517" lon="12.016954376657823"><ele>152.0</ele><time>2026-04-06T14:40:28Z</time></trkpt><trkpt lat="45.82670727489602" lon="12.016860672879922"><ele>152.0</ele><time>2026-04-06T14:40:29Z</time></trkpt><trkpt lat="45.826586925180244" lon="12.0167682832026"><ele>152.0</ele><time>2026-04-06T14:40:30Z</time></trkpt><trkpt lat="45.82646108621019" lon="12.016670258492203"><ele>151.66666666666666</ele><time>2026-04-06T14:40:31Z</time></trkpt><trkpt lat="45.82632020520328" lon="12.01656975286509"><ele>151.33333333333334</ele><time>2026-04-06T14:40:32Z</time></trkpt><trkpt lat="45.8261738745004" lon="12.01645636433669"><ele>151.0</ele><time>2026-04-06T14:40:33Z</time></trkpt><trkpt lat="45.826036298828676" lon="12.016341823147139"><ele>151.25</ele><time>2026-04-06T14:40:34Z</time></trkpt><trkpt lat="45.82590838720189" lon="12.01623250849096"><ele>151.5</ele><time>2026-04-06T14:40:35Z</time></trkpt><trkpt lat="45.82578285844187" lon="12.016127731600752"><ele>151.75</ele><time>2026-04-06T14:40:36Z</time></trkpt><trkpt lat="45.825664991252104" lon="12.016025082291236"><ele>152.0</ele><time>2026-04-06T14:40:37Z</time></trkpt><trkpt lat="45.82554761827611" lon="12.015923507824363"><ele>152.0</ele><time>2026-04-06T14:40:38Z</time></trkpt><trkpt lat="45.8254378944377" lon="12.015829839988305"><ele>152.0</ele><time>2026-04-06T14:40:39Z</time></trkpt><trkpt lat="45.825347677758394" lon="12.015737845587545"><ele>152.0</ele><time>2026-04-06T14:40:40Z</time></trkpt><trkpt lat="45.82526023745856" lon="12.015648885935416"><ele>152.0</ele><time>2026-04-06T14:40:41Z</time></trkpt><trkpt lat="45.825172677053075" lon="12.015563334226488"><ele>151.75</ele><time>2026-04-06T14:40:42Z</time></trkpt><trkpt lat="45.82508505225021" lon="12.01547788625609"><ele>151.5</ele><time>2026-04-06T14:40:43Z</time></trkpt><trkpt lat="45.82498963348483" lon="12.015381769810276"><ele>151.25</ele><time>2026-04-06T14:40:44Z</time></trkpt><trkpt lat="45.82488409489652" lon="12.015270956532653"><ele>151.0</ele><time>2026-04-06T14:40:45Z</time></trkpt><trkpt lat="45.8247742708379" lon="12.015143410631673"><ele>151.0</ele><time>2026-04-06T14:40:46Z</time></trkpt><trkpt lat="45.824654429564355" lon="12.015004916647682"><ele>151.0</ele><time>2026-04-06T14:40:47Z</time></trkpt><trkpt lat="45.82452412672187" lon="12.014860371078369"><ele>151.0</ele><time>2026-04-06T14:40:48Z</time></trkpt><trkpt lat="45.82439119708023" lon="12.014713457242312"><ele>151.66666666666669</ele><time>2026-04-06T14:40:49Z</time></trkpt><trkpt lat="45.82425827962858" lon="12.014563871910621"><ele>152.33333333333334</ele><time>2026-04-06T14:40:50Z</time></trkpt><trkpt lat="45.82413233584472" lon="12.014414967097121"><ele>153.0</ele><time>2026-04-06T14:40:51Z</time></trkpt><trkpt lat="45.82400746299113" lon="12.014270917096745"><ele>152.0</ele><time>2026-04-06T14:40:52Z</time></trkpt><trkpt lat="45.82388263030497" lon="12.01414194160938"><ele>151.0</ele><time>2026-04-06T14:40:53Z</time></trkpt><trkpt lat="45.82375600242197" lon="12.014009668587844"><ele>150.0</ele><time>2026-04-06T14:40:54Z</time></trkpt><trkpt lat="45.82363042414522" lon="12.013871591676047"><ele>150.0</ele><time>2026-04-06T14:40:55Z</time></trkpt><trkpt lat="45.82350947779379" lon="12.01371766634049"><ele>150.0</ele><time>2026-04-06T14:40:56Z</time></trkpt><trkpt lat="45.8233769542797" lon="12.013583220960692"><ele>150.0</ele><time>2026-04-06T14:40:57Z</time></trkpt><trkpt lat="45.82323977654633" lon="12.01345389565146"><ele>149.66666666666666</ele><time>2026-04-06T14:40:58Z</time></trkpt><trkpt lat="45.82309550112229" lon="12.013326553824161"><ele>149.33333333333331</ele><time>2026-04-06T14:40:59Z</time></trkpt><trkpt lat="45.82293941357794" lon="12.013225149105088"><ele>149.0</ele><time>2026-04-06T14:41:00Z</time></trkpt><trkpt lat="45.82279176682706" lon="12.013089032100059"><ele>149.33333333333331</ele><time>2026-04-06T14:41:01Z</time></trkpt><trkpt lat="45.82262670724457" lon="12.012971635762003"><ele>149.66666666666666</ele><time>2026-04-06T14:41:02Z</time></trkpt><trkpt lat="45.82245522893092" lon="12.01286282885146"><ele>150.0</ele><time>2026-04-06T14:41:03Z</time></trkpt><trkpt lat="45.82229054132321" lon="12.012762960880607"><ele>150.0</ele><time>2026-04-06T14:41:04Z</time></trkpt><trkpt lat="45.82213280652343" lon="12.012678641163468"><ele>150.0</ele><time>2026-04-06T14:41:05Z</time></trkpt><trkpt lat="45.8219739691124" lon="12.012622082429187"><ele>150.0</ele><time>2026-04-06T14:41:06Z</time></trkpt><trkpt lat="45.82182896904204" lon="12.012549835063353"><ele>150.0</ele><time>2026-04-06T14:41:07Z</time></trkpt><trkpt lat="45.82168729734102" lon="12.012485434420874"><ele>150.0</ele><time>2026-04-06T14:41:08Z</time></trkpt><trkpt lat="45.82154975030193" lon="12.01242935847502"><ele>150.0</ele><time>2026-04-06T14:41:09Z</time></trkpt><trkpt lat="45.821416282278854" lon="12.012387739391178"><ele>150.0</ele><time>2026-04-06T14:41:10Z</time></trkpt><trkpt lat="45.82128657496196" lon="12.012351056930568"><ele>150.0</ele><time>2026-04-06T14:41:11Z</time></trkpt><trkpt lat="45.82116021041663" lon="12.012321609595418"><ele>150.0</ele><time>2026-04-06T14:41:12Z</time></trkpt><trkpt lat="45.82103633802546" lon="12.01229499201228"><ele>150.0</ele><time>2026-04-06T14:41:13Z</time></trkpt><trkpt lat="45.82090973446192" lon="12.012267278890825"><ele>150.0</ele><time>2026-04-06T14:41:14Z</time></trkpt><trkpt lat="45.82077862973686" lon="12.012244190638663"><ele>149.5</ele><time>2026-04-06T14:41:15Z</time></trkpt><trkpt lat="45.82064246592134" lon="12.012218756576098"><ele>149.0</ele><time>2026-04-06T14:41:16Z</time></trkpt><trkpt lat="45.820502273830826" lon="12.01220298018008"><ele>148.5</ele><time>2026-04-06T14:41:17Z</time></trkpt><trkpt lat="45.82036306949304" lon="12.012200497099942"><ele>148.0</ele><time>2026-04-06T14:41:18Z</time></trkpt><trkpt lat="45.82022280622364" lon="12.012202808743474"><ele>148.5</ele><time>2026-04-06T14:41:19Z</time></trkpt><trkpt lat="45.820081532005126" lon="12.012204363514337"><ele>149.0</ele><time>2026-04-06T14:41:20Z</time></trkpt><trkpt lat="45.81993217457629" lon="12.012210823242093"><ele>149.5</ele><time>2026-04-06T14:41:21Z</time></trkpt><trkpt lat="45.81977540710827" lon="12.012200620378298"><ele>150.0</ele><time>2026-04-06T14:41:22Z</time></trkpt><trkpt lat="45.81961668754829" lon="12.012221007029074"><ele>150.0</ele><time>2026-04-06T14:41:23Z</time></trkpt><trkpt lat="45.81944809104736" lon="12.012250276591537"><ele>150.0</ele><time>2026-04-06T14:41:24Z</time></trkpt><trkpt lat="45.81927915132367" lon="12.012287756566407"><ele>150.0</ele><time>2026-04-06T14:41:25Z</time></trkpt><trkpt lat="45.81911766964187" lon="12.012329199464027"><ele>149.0</ele><time>2026-04-06T14:41:26Z</time></trkpt><trkpt lat="45.81895955194764" lon="12.012377052798634"><ele>148.0</ele><time>2026-04-06T14:41:27Z</time></trkpt><trkpt lat="45.818803833257775" lon="12.012428762925891"><ele>147.0</ele><time>2026-04-06T14:41:28Z</time></trkpt><trkpt lat="45.818643324762355" lon="12.012491271591186"><ele>146.0</ele><time>2026-04-06T14:41:29Z</time></trkpt><trkpt lat="45.818476625901994" lon="12.012566109539717"><ele>145.0</ele><time>2026-04-06T14:41:30Z</time></trkpt><trkpt lat="45.81830467592742" lon="12.01264541328277"><ele>144.0</ele><time>2026-04-06T14:41:31Z</time></trkpt><trkpt lat="45.81813192193927" lon="12.012737817619735"><ele>144.0</ele><time>2026-04-06T14:41:32Z</time></trkpt><trkpt lat="45.817960134226986" lon="12.012835285209789"><ele>144.0</ele><time>2026-04-06T14:41:33Z</time></trkpt><trkpt lat="45.81780060826318" lon="12.01293284981345"><ele>144.0</ele><time>2026-04-06T14:41:34Z</time></trkpt><trkpt lat="45.81765206555222" lon="12.013040887108064"><ele>144.0</ele><time>2026-04-06T14:41:35Z</time></trkpt><trkpt lat="45.81750998438432" lon="12.013146225095634"><ele>144.0</ele><time>2026-04-06T14:41:36Z</time></trkpt><trkpt lat="45.81736824066782" lon="12.013252864942638"><ele>144.0</ele><time>2026-04-06T14:41:37Z</time></trkpt><trkpt lat="45.81722550343502" lon="12.01336002330504"><ele>144.0</ele><time>2026-04-06T14:41:38Z</time></trkpt><trkpt lat="45.81708376669791" lon="12.01346643046631"><ele>144.0</ele><time>2026-04-06T14:41:39Z</time></trkpt><trkpt lat="45.816942983394746" lon="12.01357212178605"><ele>144.0</ele><time>2026-04-06T14:41:40Z</time></trkpt><trkpt lat="45.81680991432024" lon="12.013672021791402"><ele>144.0</ele><time>2026-04-06T14:41:41Z</time></trkpt><trkpt lat="45.81667312005487" lon="12.01377467713521"><ele>144.0</ele><time>2026-04-06T14:41:42Z</time></trkpt><trkpt lat="45.816523664299844" lon="12.013886489625468"><ele>144.0</ele><time>2026-04-06T14:41:43Z</time></trkpt><trkpt lat="45.816371086809156" lon="12.014000341831709"><ele>144.0</ele><time>2026-04-06T14:41:44Z</time></trkpt><trkpt lat="45.816221161186306" lon="12.014112199084888"><ele>144.0</ele><time>2026-04-06T14:41:45Z</time></trkpt><trkpt lat="45.81607214725786" lon="12.014222527627789"><ele>144.0</ele><time>2026-04-06T14:41:46Z</time></trkpt><trkpt lat="45.81592341595434" lon="12.014332632302377"><ele>144.0</ele><time>2026-04-06T14:41:47Z</time></trkpt><trkpt lat="45.81577324694113" lon="12.01444446148765"><ele>144.0</ele><time>2026-04-06T14:41:48Z</time></trkpt><trkpt lat="45.81562990927088" lon="12.014552656449371"><ele>144.0</ele><time>2026-04-06T14:41:49Z</time></trkpt><trkpt lat="45.815494813762356" lon="12.01465700112643"><ele>144.0</ele><time>2026-04-06T14:41:50Z</time></trkpt><trkpt lat="45.81536423361231" lon="12.014753009594143"><ele>144.0</ele><time>2026-04-06T14:41:51Z</time></trkpt><trkpt lat="45.81523867775128" lon="12.01484594042465"><ele>144.0</ele><time>2026-04-06T14:41:52Z</time></trkpt><trkpt lat="45.815122721044574" lon="12.014931766287166"><ele>144.0</ele><time>2026-04-06T14:41:53Z</time></trkpt><trkpt lat="45.81501492220758" lon="12.015010907129914"><ele>144.5</ele><time>2026-04-06T14:41:54Z</time></trkpt><trkpt lat="45.81491193793963" lon="12.015085391433697"><ele>145.0</ele><time>2026-04-06T14:41:55Z</time></trkpt><trkpt lat="45.81480960190966" lon="12.015159406957295"><ele>145.5</ele><time>2026-04-06T14:41:56Z</time></trkpt><trkpt lat="45.81471216769694" lon="12.015254448615826"><ele>146.0</ele><time>2026-04-06T14:41:57Z</time></trkpt><trkpt lat="45.81460209198181" lon="12.01531883940327"><ele>146.0</ele><time>2026-04-06T14:41:58Z</time></trkpt><trkpt lat="45.81449888546748" lon="12.015382650713592"><ele>146.0</ele><time>2026-04-06T14:41:59Z</time></trkpt><trkpt lat="45.81439800298138" lon="12.015438590997867"><ele>146.0</ele><time>2026-04-06T14:42:00Z</time></trkpt><trkpt lat="45.8143009528742" lon="12.015480664572038"><ele>146.0</ele><time>2026-04-06T14:42:01Z</time></trkpt><trkpt lat="45.81420805941156" lon="12.015505306698067"><ele>146.0</ele><time>2026-04-06T14:42:02Z</time></trkpt><trkpt lat="45.814110404483834" lon="12.015511721411933"><ele>145.0</ele><time>2026-04-06T14:42:03Z</time></trkpt><trkpt lat="45.814006428552304" lon="12.01547297921784"><ele>144.0</ele><time>2026-04-06T14:42:04Z</time></trkpt><trkpt lat="45.81389769998844" lon="12.015432604498645"><ele>143.0</ele><time>2026-04-06T14:42:05Z</time></trkpt><trkpt lat="45.8138105515199" lon="12.015288715588794"><ele>142.0</ele><time>2026-04-06T14:42:06Z</time></trkpt><trkpt lat="45.81374613931694" lon="12.015137802315154"><ele>142.0</ele><time>2026-04-06T14:42:07Z</time></trkpt><trkpt lat="45.813657256604536" lon="12.015057356280874"><ele>142.0</ele><time>2026-04-06T14:42:08Z</time></trkpt><trkpt lat="45.813708176707195" lon="12.014781361840704"><ele>142.0</ele><time>2026-04-06T14:42:09Z</time></trkpt><trkpt lat="45.813713441900354" lon="12.014585543617976"><ele>142.0</ele><time>2026-04-06T14:42:10Z</time></trkpt><trkpt lat="45.81371550190947" lon="12.01439705370609"><ele>142.0</ele><time>2026-04-06T14:42:11Z</time></trkpt><trkpt lat="45.8137118448713" lon="12.014218125592247"><ele>142.0</ele><time>2026-04-06T14:42:12Z</time></trkpt><trkpt lat="45.813713455759846" lon="12.014050973659634"><ele>142.0</ele><time>2026-04-06T14:42:13Z</time></trkpt><trkpt lat="45.81371419941466" lon="12.01389212055665"><ele>142.0</ele><time>2026-04-06T14:42:14Z</time></trkpt><trkpt lat="45.813716781225914" lon="12.013750969337343"><ele>142.2</ele><time>2026-04-06T14:42:15Z</time></trkpt><trkpt lat="45.813728729772066" lon="12.013619255195145"><ele>142.39999999999998</ele><time>2026-04-06T14:42:16Z</time></trkpt><trkpt lat="45.813758076358525" lon="12.01349411773052"><ele>142.60000000000002</ele><time>2026-04-06T14:42:17Z</time></trkpt><trkpt lat="45.81380072225729" lon="12.013373566325136"><ele>142.8</ele><time>2026-04-06T14:42:18Z</time></trkpt><trkpt lat="45.813847483336716" lon="12.01325278815026"><ele>143.0</ele><time>2026-04-06T14:42:19Z</time></trkpt><trkpt lat="45.813875985761705" lon="12.013122790729367"><ele>143.16666666666666</ele><time>2026-04-06T14:42:20Z</time></trkpt><trkpt lat="45.813867222260114" lon="12.01299313369561"><ele>143.33333333333331</ele><time>2026-04-06T14:42:21Z</time></trkpt><trkpt lat="45.81382847725143" lon="12.012876807419852"><ele>143.5</ele><time>2026-04-06T14:42:22Z</time></trkpt><trkpt lat="45.81376457153781" lon="12.012796493456975"><ele>143.66666666666666</ele><time>2026-04-06T14:42:23Z</time></trkpt><trkpt lat="45.81368610409781" lon="12.012754916766866"><ele>143.83333333333334</ele><time>2026-04-06T14:42:24Z</time></trkpt><trkpt lat="45.81359859659033" lon="12.012753805886872"><ele>144.0</ele><time>2026-04-06T14:42:25Z</time></trkpt><trkpt lat="45.81350650080272" lon="12.01277206665204"><ele>144.0</ele><time>2026-04-06T14:42:26Z</time></trkpt><trkpt lat="45.81340698282903" lon="12.01277508940526"><ele>144.0</ele><time>2026-04-06T14:42:27Z</time></trkpt><trkpt lat="45.81329778500792" lon="12.012757646157525"><ele>144.0</ele><time>2026-04-06T14:42:28Z</time></trkpt><trkpt lat="45.813172939304685" lon="12.012710142804432"><ele>144.0</ele><time>2026-04-06T14:42:29Z</time></trkpt><trkpt lat="45.81303673164344" lon="12.012641120140742"><ele>144.0</ele><time>2026-04-06T14:42:30Z</time></trkpt><trkpt lat="45.812886917981466" lon="12.012556190983704"><ele>144.0</ele><time>2026-04-06T14:42:31Z</time></trkpt><trkpt lat="45.812738494257445" lon="12.012426537075404"><ele>144.0</ele><time>2026-04-06T14:42:32Z</time></trkpt><trkpt lat="45.81259281159629" lon="12.012306622227893"><ele>143.0</ele><time>2026-04-06T14:42:33Z</time></trkpt><trkpt lat="45.812434790416326" lon="12.012181424972267"><ele>142.0</ele><time>2026-04-06T14:42:34Z</time></trkpt><trkpt lat="45.81228794450332" lon="12.012022863868859"><ele>141.0</ele><time>2026-04-06T14:42:35Z</time></trkpt><trkpt lat="45.81214203101051" lon="12.011860918489049"><ele>141.0</ele><time>2026-04-06T14:42:36Z</time></trkpt><trkpt lat="45.81199820839421" lon="12.01170481777443"><ele>141.0</ele><time>2026-04-06T14:42:37Z</time></trkpt><trkpt lat="45.811860443628845" lon="12.01155743919701"><ele>141.0</ele><time>2026-04-06T14:42:38Z</time></trkpt><trkpt lat="45.811727801945445" lon="12.011417588014679"><ele>140.33333333333334</ele><time>2026-04-06T14:42:39Z</time></trkpt><trkpt lat="45.81160181834188" lon="12.01128063840586"><ele>139.66666666666669</ele><time>2026-04-06T14:42:40Z</time></trkpt><trkpt lat="45.81147993349078" lon="12.011145135413118"><ele>139.0</ele><time>2026-04-06T14:42:41Z</time></trkpt><trkpt lat="45.81136036417471" lon="12.011020698618374"><ele>139.0</ele><time>2026-04-06T14:42:42Z</time></trkpt><trkpt lat="45.811241240122165" lon="12.010900087146018"><ele>139.0</ele><time>2026-04-06T14:42:43Z</time></trkpt><trkpt lat="45.811123973981104" lon="12.010775138591784"><ele>139.0</ele><time>2026-04-06T14:42:44Z</time></trkpt><trkpt lat="45.81100937105617" lon="12.010650875210034"><ele>139.0</ele><time>2026-04-06T14:42:45Z</time></trkpt><trkpt lat="45.810894768186856" lon="12.010530488735585"><ele>139.0</ele><time>2026-04-06T14:42:46Z</time></trkpt><trkpt lat="45.8107803298321" lon="12.010411278744318"><ele>139.0</ele><time>2026-04-06T14:42:47Z</time></trkpt><trkpt lat="45.8106655599559" lon="12.010287984290926"><ele>139.0</ele><time>2026-04-06T14:42:48Z</time></trkpt><trkpt lat="45.810546914197126" lon="12.010161121211839"><ele>139.0</ele><time>2026-04-06T14:42:49Z</time></trkpt><trkpt lat="45.81042395932164" lon="12.01002982418417"><ele>139.0</ele><time>2026-04-06T14:42:50Z</time></trkpt><trkpt lat="45.81029786412351" lon="12.009895979789121"><ele>139.0</ele><time>2026-04-06T14:42:51Z</time></trkpt><trkpt lat="45.81016833652075" lon="12.009758173195422"><ele>139.0</ele><time>2026-04-06T14:42:52Z</time></trkpt><trkpt lat="45.8100361570069" lon="12.009617453802335"><ele>139.0</ele><time>2026-04-06T14:42:53Z</time></trkpt><trkpt lat="45.80990193309426" lon="12.009477269402572"><ele>139.0</ele><time>2026-04-06T14:42:54Z</time></trkpt><trkpt lat="45.80976526889863" lon="12.009335478983866"><ele>139.0</ele><time>2026-04-06T14:42:55Z</time></trkpt><trkpt lat="45.80962728734751" lon="12.009192817252972"><ele>138.66666666666669</ele><time>2026-04-06T14:42:56Z</time></trkpt><trkpt lat="45.80949173574066" lon="12.00904729030546"><ele>138.33333333333334</ele><time>2026-04-06T14:42:57Z</time></trkpt><trkpt lat="45.809355977940506" lon="12.008904145171106"><ele>138.0</ele><time>2026-04-06T14:42:58Z</time></trkpt><trkpt lat="45.80922132880743" lon="12.00876242754749"><ele>137.33333333333334</ele><time>2026-04-06T14:42:59Z</time></trkpt><trkpt lat="45.80908766609578" lon="12.00862353646652"><ele>136.66666666666669</ele><time>2026-04-06T14:43:00Z</time></trkpt><trkpt lat="45.80895350774232" lon="12.008484496838639"><ele>136.0</ele><time>2026-04-06T14:43:01Z</time></trkpt><trkpt lat="45.80882480800054" lon="12.00833610210854"><ele>136.0</ele><time>2026-04-06T14:43:02Z</time></trkpt><trkpt lat="45.80870134348096" lon="12.008190023460548"><ele>136.0</ele><time>2026-04-06T14:43:03Z</time></trkpt><trkpt lat="45.80858030841324" lon="12.00805507092812"><ele>136.0</ele><time>2026-04-06T14:43:04Z</time></trkpt><trkpt lat="45.80845141549881" lon="12.007923432030916"><ele>136.0</ele><time>2026-04-06T14:43:05Z</time></trkpt><trkpt lat="45.80830663791662" lon="12.007787967386967"><ele>136.0</ele><time>2026-04-06T14:43:06Z</time></trkpt><trkpt lat="45.808151601195604" lon="12.00763664798456"><ele>136.0</ele><time>2026-04-06T14:43:07Z</time></trkpt><trkpt lat="45.807988092966696" lon="12.007468019548712"><ele>136.0</ele><time>2026-04-06T14:43:08Z</time></trkpt><trkpt lat="45.80782050742525" lon="12.007289436135869"><ele>136.0</ele><time>2026-04-06T14:43:09Z</time></trkpt><trkpt lat="45.80765237986372" lon="12.007106148637574"><ele>136.0</ele><time>2026-04-06T14:43:10Z</time></trkpt><trkpt lat="45.80748284039548" lon="12.006923554010166"><ele>136.0</ele><time>2026-04-06T14:43:11Z</time></trkpt><trkpt lat="45.80731124023719" lon="12.00673819384689"><ele>136.0</ele><time>2026-04-06T14:43:12Z</time></trkpt><trkpt lat="45.80713408730085" lon="12.006549662153473"><ele>136.0</ele><time>2026-04-06T14:43:13Z</time></trkpt><trkpt lat="45.80695508427569" lon="12.00636364998581"><ele>134.5</ele><time>2026-04-06T14:43:14Z</time></trkpt><trkpt lat="45.80676497120059" lon="12.006182464346441"><ele>133.0</ele><time>2026-04-06T14:43:15Z</time></trkpt><trkpt lat="45.80657645815717" lon="12.005967794473877"><ele>133.0</ele><time>2026-04-06T14:43:16Z</time></trkpt><trkpt lat="45.806380832778714" lon="12.00575795957057"><ele>133.0</ele><time>2026-04-06T14:43:17Z</time></trkpt><trkpt lat="45.806180054037796" lon="12.005569562517358"><ele>133.0</ele><time>2026-04-06T14:43:18Z</time></trkpt><trkpt lat="45.805997888496826" lon="12.005355197988306"><ele>133.0</ele><time>2026-04-06T14:43:19Z</time></trkpt><trkpt lat="45.8058131242026" lon="12.005149691754811"><ele>134.5</ele><time>2026-04-06T14:43:20Z</time></trkpt><trkpt lat="45.8056262292966" lon="12.004954157552769"><ele>136.0</ele><time>2026-04-06T14:43:21Z</time></trkpt><trkpt lat="45.805442557919996" lon="12.00476465749445"><ele>136.0</ele><time>2026-04-06T14:43:22Z</time></trkpt><trkpt lat="45.80526447361033" lon="12.004574696959928"><ele>136.0</ele><time>2026-04-06T14:43:23Z</time></trkpt><trkpt lat="45.80509130893955" lon="12.004389035220699"><ele>136.0</ele><time>2026-04-06T14:43:24Z</time></trkpt><trkpt lat="45.80492125095998" lon="12.00420837112282"><ele>136.0</ele><time>2026-04-06T14:43:25Z</time></trkpt><trkpt lat="45.80475864182864" lon="12.004034776509089"><ele>136.0</ele><time>2026-04-06T14:43:26Z</time></trkpt><trkpt lat="45.80460270084307" lon="12.003870949197637"><ele>136.0</ele><time>2026-04-06T14:43:27Z</time></trkpt><trkpt lat="45.80445163900393" lon="12.003713922304586"><ele>135.66666666666669</ele><time>2026-04-06T14:43:28Z</time></trkpt><trkpt lat="45.80430592079417" lon="12.003561383248417"><ele>135.33333333333334</ele><time>2026-04-06T14:43:29Z</time></trkpt><trkpt lat="45.80416624893625" lon="12.003411426431452"><ele>135.0</ele><time>2026-04-06T14:43:30Z</time></trkpt><trkpt lat="45.80402897404595" lon="12.003264370071015"><ele>135.0</ele><time>2026-04-06T14:43:31Z</time></trkpt><trkpt lat="45.80388912461969" lon="12.00312068408307"><ele>135.0</ele><time>2026-04-06T14:43:32Z</time></trkpt><trkpt lat="45.80374543529376" lon="12.002973102719713"><ele>135.0</ele><time>2026-04-06T14:43:33Z</time></trkpt><trkpt lat="45.80359957960585" lon="12.002819645921248"><ele>134.33333333333334</ele><time>2026-04-06T14:43:34Z</time></trkpt><trkpt lat="45.80345099235984" lon="12.002662023242891"><ele>133.66666666666669</ele><time>2026-04-06T14:43:35Z</time></trkpt><trkpt lat="45.80329905835942" lon="12.00250035693486"><ele>133.0</ele><time>2026-04-06T14:43:36Z</time></trkpt><trkpt lat="45.80314558037651" lon="12.002336871465205"><ele>133.0</ele><time>2026-04-06T14:43:37Z</time></trkpt><trkpt lat="45.802993223902384" lon="12.002173252362445"><ele>133.0</ele><time>2026-04-06T14:43:38Z</time></trkpt><trkpt lat="45.80284233345989" lon="12.00201090176298"><ele>133.0</ele><time>2026-04-06T14:43:39Z</time></trkpt><trkpt lat="45.802690860790705" lon="12.001850184227427"><ele>133.0</ele><time>2026-04-06T14:43:40Z</time></trkpt><trkpt lat="45.802533376648235" lon="12.001684897014922"><ele>133.0</ele><time>2026-04-06T14:43:41Z</time></trkpt><trkpt lat="45.80237117477398" lon="12.001513246571065"><ele>133.0</ele><time>2026-04-06T14:43:42Z</time></trkpt><trkpt lat="45.802209202383416" lon="12.00133992608423"><ele>132.33333333333334</ele><time>2026-04-06T14:43:43Z</time></trkpt><trkpt lat="45.80204632762921" lon="12.00116591895259"><ele>131.66666666666666</ele><time>2026-04-06T14:43:44Z</time></trkpt><trkpt lat="45.801883119128306" lon="12.000990228521406"><ele>131.0</ele><time>2026-04-06T14:43:45Z</time></trkpt><trkpt lat="45.8017213445876" lon="12.000815819941906"><ele>130.66666666666666</ele><time>2026-04-06T14:43:46Z</time></trkpt><trkpt lat="45.80155795337724" lon="12.000644866685388"><ele>130.33333333333334</ele><time>2026-04-06T14:43:47Z</time></trkpt><trkpt lat="45.80139689872558" lon="12.00047804801402"><ele>130.0</ele><time>2026-04-06T14:43:48Z</time></trkpt><trkpt lat="45.80123798080428" lon="12.000312513331071"><ele>130.0</ele><time>2026-04-06T14:43:49Z</time></trkpt><trkpt lat="45.80107408099655" lon="12.00015260152494"><ele>130.0</ele><time>2026-04-06T14:43:50Z</time></trkpt><trkpt lat="45.80090271560619" lon="11.999986566655563"><ele>130.0</ele><time>2026-04-06T14:43:51Z</time></trkpt><trkpt lat="45.80073466966414" lon="11.999788824543675"><ele>129.5</ele><time>2026-04-06T14:43:52Z</time></trkpt><trkpt lat="45.8005569263158" lon="11.999587409218718"><ele>129.0</ele><time>2026-04-06T14:43:53Z</time></trkpt><trkpt lat="45.80037422453313" lon="11.999392833506109"><ele>129.0</ele><time>2026-04-06T14:43:54Z</time></trkpt><trkpt lat="45.80019364627463" lon="11.999199839167858"><ele>129.0</ele><time>2026-04-06T14:43:55Z</time></trkpt><trkpt lat="45.800014000200804" lon="11.999009443899116"><ele>129.0</ele><time>2026-04-06T14:43:56Z</time></trkpt><trkpt lat="45.79983816973025" lon="11.998823388981293"><ele>129.0</ele><time>2026-04-06T14:43:57Z</time></trkpt><trkpt lat="45.79966667712451" lon="11.998643415168434"><ele>129.0</ele><time>2026-04-06T14:43:58Z</time></trkpt><trkpt lat="45.79949992139099" lon="11.998467725265286"><ele>129.0</ele><time>2026-04-06T14:43:59Z</time></trkpt><trkpt lat="45.79933845860571" lon="11.998290433142824"><ele>129.0</ele><time>2026-04-06T14:44:00Z</time></trkpt><trkpt lat="45.79918123639611" lon="11.998117089553059"><ele>129.0</ele><time>2026-04-06T14:44:01Z</time></trkpt><trkpt lat="45.79902413022534" lon="11.99794879787734"><ele>129.0</ele><time>2026-04-06T14:44:02Z</time></trkpt><trkpt lat="45.798865778760444" lon="11.99778216538167"><ele>129.0</ele><time>2026-04-06T14:44:03Z</time></trkpt><trkpt lat="45.798706123213044" lon="11.997618654920618"><ele>129.0</ele><time>2026-04-06T14:44:04Z</time></trkpt><trkpt lat="45.79854211582826" lon="11.997453571529348"><ele>129.0</ele><time>2026-04-06T14:44:05Z</time></trkpt><trkpt lat="45.79837261997466" lon="11.997283200456181"><ele>129.0</ele><time>2026-04-06T14:44:06Z</time></trkpt><trkpt lat="45.7981976152627" lon="11.997104567577432"><ele>129.0</ele><time>2026-04-06T14:44:07Z</time></trkpt><trkpt lat="45.79801980698288" lon="11.996915798303116"><ele>129.0</ele><time>2026-04-06T14:44:08Z</time></trkpt><trkpt lat="45.79783874133738" lon="11.99671909230811"><ele>128.66666666666666</ele><time>2026-04-06T14:44:09Z</time></trkpt><trkpt lat="45.79765752561928" lon="11.996522243534871"><ele>128.33333333333331</ele><time>2026-04-06T14:44:10Z</time></trkpt><trkpt lat="45.797480219580734" lon="11.996332982522336"><ele>128.0</ele><time>2026-04-06T14:44:11Z</time></trkpt><trkpt lat="45.797305174062025" lon="11.996151468581584"><ele>128.0</ele><time>2026-04-06T14:44:12Z</time></trkpt><trkpt lat="45.79713089194493" lon="11.995974981437795"><ele>128.0</ele><time>2026-04-06T14:44:13Z</time></trkpt><trkpt lat="45.79696239375811" lon="11.995797561244887"><ele>128.0</ele><time>2026-04-06T14:44:14Z</time></trkpt><trkpt lat="45.79680250545978" lon="11.99562340519599"><ele>127.33333333333333</ele><time>2026-04-06T14:44:15Z</time></trkpt><trkpt lat="45.796648890261345" lon="11.995456119760737"><ele>126.66666666666666</ele><time>2026-04-06T14:44:16Z</time></trkpt><trkpt lat="45.796499780393574" lon="11.995300802353361"><ele>126.0</ele><time>2026-04-06T14:44:17Z</time></trkpt><trkpt lat="45.796353645307114" lon="11.995152407128323"><ele>126.0</ele><time>2026-04-06T14:44:18Z</time></trkpt><trkpt lat="45.796210187922505" lon="11.995010931677673"><ele>126.0</ele><time>2026-04-06T14:44:19Z</time></trkpt><trkpt lat="45.79605936859661" lon="11.994884062720292"><ele>126.0</ele><time>2026-04-06T14:44:20Z</time></trkpt><trkpt lat="45.79589550492149" lon="11.994773704476609"><ele>126.0</ele><time>2026-04-06T14:44:21Z</time></trkpt><trkpt lat="45.795718560354004" lon="11.994677760597785"><ele>126.0</ele><time>2026-04-06T14:44:22Z</time></trkpt><trkpt lat="45.79553046853075" lon="11.994596681435826"><ele>126.0</ele><time>2026-04-06T14:44:23Z</time></trkpt><trkpt lat="45.79533443316563" lon="11.994532250145"><ele>125.66666666666666</ele><time>2026-04-06T14:44:24Z</time></trkpt><trkpt lat="45.79513169829737" lon="11.994492202620352"><ele>125.33333333333333</ele><time>2026-04-06T14:44:25Z</time></trkpt><trkpt lat="45.794926006534006" lon="11.994468739514105"><ele>125.0</ele><time>2026-04-06T14:44:26Z</time></trkpt><trkpt lat="45.794722690499455" lon="11.994453191256763"><ele>125.0</ele><time>2026-04-06T14:44:27Z</time></trkpt><trkpt lat="45.79452842809833" lon="11.994439072824889"><ele>125.0</ele><time>2026-04-06T14:44:28Z</time></trkpt><trkpt lat="45.79434324031257" lon="11.994426040481997"><ele>125.0</ele><time>2026-04-06T14:44:29Z</time></trkpt><trkpt lat="45.79416581992042" lon="11.994414940711826"><ele>125.0</ele><time>2026-04-06T14:44:30Z</time></trkpt><trkpt lat="45.79399417526319" lon="11.994406767305572"><ele>125.0</ele><time>2026-04-06T14:44:31Z</time></trkpt><trkpt lat="45.79381848981149" lon="11.994398498769275"><ele>125.0</ele><time>2026-04-06T14:44:32Z</time></trkpt><trkpt lat="45.79363900496787" lon="11.994386884424836"><ele>125.33333333333333</ele><time>2026-04-06T14:44:33Z</time></trkpt><trkpt lat="45.793457526344895" lon="11.994373036139931"><ele>125.66666666666666</ele><time>2026-04-06T14:44:34Z</time></trkpt><trkpt lat="45.79327389226937" lon="11.994357523624558"><ele>126.0</ele><time>2026-04-06T14:44:35Z</time></trkpt><trkpt lat="45.793085497265444" lon="11.994344343677692"><ele>126.0</ele><time>2026-04-06T14:44:36Z</time></trkpt><trkpt lat="45.7928924969748" lon="11.994332641210038"><ele>126.0</ele><time>2026-04-06T14:44:37Z</time></trkpt><trkpt lat="45.792693929441725" lon="11.994320836061087"><ele>126.0</ele><time>2026-04-06T14:44:38Z</time></trkpt><trkpt lat="45.79248931210754" lon="11.994310427393694"><ele>125.0</ele><time>2026-04-06T14:44:39Z</time></trkpt><trkpt lat="45.79228150279269" lon="11.994299050460208"><ele>124.0</ele><time>2026-04-06T14:44:40Z</time></trkpt><trkpt lat="45.7920740799135" lon="11.99428688486594"><ele>123.0</ele><time>2026-04-06T14:44:41Z</time></trkpt><trkpt lat="45.79186512451641" lon="11.994273355864374"><ele>123.0</ele><time>2026-04-06T14:44:42Z</time></trkpt><trkpt lat="45.79165613084325" lon="11.994260453685992"><ele>123.0</ele><time>2026-04-06T14:44:43Z</time></trkpt><trkpt lat="45.79144651508204" lon="11.99424608454909"><ele>123.0</ele><time>2026-04-06T14:44:44Z</time></trkpt><trkpt lat="45.79123708876748" lon="11.99423448840548"><ele>123.0</ele><time>2026-04-06T14:44:45Z</time></trkpt><trkpt lat="45.79102368814502" lon="11.99421821611046"><ele>123.0</ele><time>2026-04-06T14:44:46Z</time></trkpt><trkpt lat="45.7908115830873" lon="11.994203671514486"><ele>123.0</ele><time>2026-04-06T14:44:47Z</time></trkpt><trkpt lat="45.79060306973272" lon="11.994191281469778"><ele>122.66666666666666</ele><time>2026-04-06T14:44:48Z</time></trkpt><trkpt lat="45.790398027114" lon="11.994178887775385"><ele>122.33333333333333</ele><time>2026-04-06T14:44:49Z</time></trkpt><trkpt lat="45.79019417051387" lon="11.994164698052508"><ele>122.0</ele><time>2026-04-06T14:44:50Z</time></trkpt><trkpt lat="45.789990393504006" lon="11.994149721703867"><ele>121.0</ele><time>2026-04-06T14:44:51Z</time></trkpt><trkpt lat="45.789789783031715" lon="11.99413395351856"><ele>120.0</ele><time>2026-04-06T14:44:52Z</time></trkpt><trkpt lat="45.78958706766856" lon="11.994121899089787"><ele>119.0</ele><time>2026-04-06T14:44:53Z</time></trkpt><trkpt lat="45.78938985906765" lon="11.994111788052146"><ele>119.66666666666666</ele><time>2026-04-06T14:44:54Z</time></trkpt><trkpt lat="45.789199442317646" lon="11.994102639839559"><ele>120.33333333333334</ele><time>2026-04-06T14:44:55Z</time></trkpt><trkpt lat="45.78901899552202" lon="11.994091404618121"><ele>121.0</ele><time>2026-04-06T14:44:56Z</time></trkpt><trkpt lat="45.78885129755031" lon="11.994079057921912"><ele>121.0</ele><time>2026-04-06T14:44:57Z</time></trkpt><trkpt lat="45.788702761600135" lon="11.994067274017276"><ele>121.0</ele><time>2026-04-06T14:44:58Z</time></trkpt><trkpt lat="45.78856854295375" lon="11.99405796682331"><ele>121.0</ele><time>2026-04-06T14:44:59Z</time></trkpt><trkpt lat="45.788441704164015" lon="11.994050357476631"><ele>121.0</ele><time>2026-04-06T14:45:00Z</time></trkpt><trkpt lat="45.7883202243994" lon="11.994036482603557"><ele>121.25</ele><time>2026-04-06T14:45:01Z</time></trkpt><trkpt lat="45.78819526568497" lon="11.994027964520285"><ele>121.5</ele><time>2026-04-06T14:45:02Z</time></trkpt><trkpt lat="45.788063452730746" lon="11.99402024028448"><ele>121.75</ele><time>2026-04-06T14:45:03Z</time></trkpt><trkpt lat="45.787923974755664" lon="11.994018862786497"><ele>122.0</ele><time>2026-04-06T14:45:04Z</time></trkpt><trkpt lat="45.78777702874493" lon="11.994011402557097"><ele>122.0</ele><time>2026-04-06T14:45:05Z</time></trkpt><trkpt lat="45.78762610960157" lon="11.993975892381728"><ele>122.0</ele><time>2026-04-06T14:45:06Z</time></trkpt><trkpt lat="45.78747132562219" lon="11.993990934540333"><ele>122.0</ele><time>2026-04-06T14:45:07Z</time></trkpt><trkpt lat="45.787322092357236" lon="11.993979467618747"><ele>122.0</ele><time>2026-04-06T14:45:08Z</time></trkpt><trkpt lat="45.78717683535899" lon="11.993970872001666"><ele>122.0</ele><time>2026-04-06T14:45:09Z</time></trkpt><trkpt lat="45.78703880921318" lon="11.993960002187016"><ele>122.0</ele><time>2026-04-06T14:45:10Z</time></trkpt><trkpt lat="45.78691385084092" lon="11.993943313596061"><ele>122.0</ele><time>2026-04-06T14:45:11Z</time></trkpt><trkpt lat="45.78680849331132" lon="11.993918155996896"><ele>121.85714285714283</ele><time>2026-04-06T14:45:12Z</time></trkpt><trkpt lat="45.7867230925351" lon="11.993882929377724"><ele>121.71428571428571</ele><time>2026-04-06T14:45:13Z</time></trkpt><trkpt lat="45.78665492768576" lon="11.993836846769986"><ele>121.57142857142856</ele><time>2026-04-06T14:45:14Z</time></trkpt><trkpt lat="45.786597119958344" lon="11.99377963817399"><ele>121.42857142857142</ele><time>2026-04-06T14:45:15Z</time></trkpt><trkpt lat="45.78654314242534" lon="11.99370915761832"><ele>121.28571428571428</ele><time>2026-04-06T14:45:16Z</time></trkpt><trkpt lat="45.78650211060515" lon="11.993626667068225"><ele>121.14285714285714</ele><time>2026-04-06T14:45:17Z</time></trkpt><trkpt lat="45.78646399691322" lon="11.993543650102824"><ele>121.0</ele><time>2026-04-06T14:45:18Z</time></trkpt><trkpt lat="45.78640749946063" lon="11.993470153562562"><ele>121.00000000000001</ele><time>2026-04-06T14:45:19Z</time></trkpt><trkpt lat="45.78633764121492" lon="11.993421288829762"><ele>121.0</ele><time>2026-04-06T14:45:20Z</time></trkpt><trkpt lat="45.78625945740419" lon="11.993415115468588"><ele>121.0</ele><time>2026-04-06T14:45:21Z</time></trkpt><trkpt lat="45.78618026549628" lon="11.99345171765385"><ele>121.0</ele><time>2026-04-06T14:45:22Z</time></trkpt><trkpt lat="45.78610660963371" lon="11.99350984453774"><ele>121.00000000000001</ele><time>2026-04-06T14:45:23Z</time></trkpt><trkpt lat="45.78603589438159" lon="11.993587455563105"><ele>121.0</ele><time>2026-04-06T14:45:24Z</time></trkpt><trkpt lat="45.785947881960794" lon="11.993645855920231"><ele>120.8</ele><time>2026-04-06T14:45:25Z</time></trkpt><trkpt lat="45.78587701657629" lon="11.993737199017115"><ele>120.6</ele><time>2026-04-06T14:45:26Z</time></trkpt><trkpt lat="45.785782598115006" lon="11.993795578913419"><ele>120.4</ele><time>2026-04-06T14:45:27Z</time></trkpt><trkpt lat="45.785676987726056" lon="11.99383162422482"><ele>120.2</ele><time>2026-04-06T14:45:28Z</time></trkpt><trkpt lat="45.78557138451104" lon="11.993844740603096"><ele>120.0</ele><time>2026-04-06T14:45:29Z</time></trkpt><trkpt lat="45.78546077746762" lon="11.993816664648913"><ele>120.0</ele><time>2026-04-06T14:45:30Z</time></trkpt><trkpt lat="45.78534174008488" lon="11.993830312601592"><ele>120.0</ele><time>2026-04-06T14:45:31Z</time></trkpt><trkpt lat="45.785208935076895" lon="11.993817601488319"><ele>120.0</ele><time>2026-04-06T14:45:32Z</time></trkpt><trkpt lat="45.78506676689417" lon="11.993805419320871"><ele>120.0</ele><time>2026-04-06T14:45:33Z</time></trkpt><trkpt lat="45.784923927136155" lon="11.993792746380636"><ele>120.0</ele><time>2026-04-06T14:45:34Z</time></trkpt><trkpt lat="45.784775322884684" lon="11.993786866060296"><ele>120.0</ele><time>2026-04-06T14:45:35Z</time></trkpt><trkpt lat="45.784625866765936" lon="11.993787108820907"><ele>120.0</ele><time>2026-04-06T14:45:36Z</time></trkpt><trkpt lat="45.78447766920919" lon="11.993787471968757"><ele>120.0</ele><time>2026-04-06T14:45:37Z</time></trkpt><trkpt lat="45.78432119891018" lon="11.99378321891067"><ele>119.33333333333334</ele><time>2026-04-06T14:45:38Z</time></trkpt><trkpt lat="45.784158540187356" lon="11.993773966023053"><ele>118.66666666666667</ele><time>2026-04-06T14:45:39Z</time></trkpt><trkpt lat="45.783991172710245" lon="11.99376433999817"><ele>118.0</ele><time>2026-04-06T14:45:40Z</time></trkpt><trkpt lat="45.78382087573271" lon="11.993728333766356"><ele>118.0</ele><time>2026-04-06T14:45:41Z</time></trkpt><trkpt lat="45.78364681301483" lon="11.993716185607148"><ele>118.0</ele><time>2026-04-06T14:45:42Z</time></trkpt><trkpt lat="45.78346855811073" lon="11.993704881153139"><ele>118.0</ele><time>2026-04-06T14:45:43Z</time></trkpt><trkpt lat="45.783289123393246" lon="11.993714899695101"><ele>118.0</ele><time>2026-04-06T14:45:44Z</time></trkpt><trkpt lat="45.78311262026073" lon="11.99370288708356"><ele>118.0</ele><time>2026-04-06T14:45:45Z</time></trkpt><trkpt lat="45.782937725053415" lon="11.993692014363065"><ele>118.0</ele><time>2026-04-06T14:45:46Z</time></trkpt><trkpt lat="45.78276427272667" lon="11.99367972251956"><ele>117.0</ele><time>2026-04-06T14:45:47Z</time></trkpt><trkpt lat="45.782589779757636" lon="11.993667226021541"><ele>116.0</ele><time>2026-04-06T14:45:48Z</time></trkpt><trkpt lat="45.782414478738744" lon="11.993658704263929"><ele>115.0</ele><time>2026-04-06T14:45:49Z</time></trkpt><trkpt lat="45.78223937111107" lon="11.99364771157185"><ele>115.0</ele><time>2026-04-06T14:45:50Z</time></trkpt><trkpt lat="45.782064170229795" lon="11.993633595174709"><ele>115.0</ele><time>2026-04-06T14:45:51Z</time></trkpt><trkpt lat="45.78188998365738" lon="11.993618672039615"><ele>115.0</ele><time>2026-04-06T14:45:52Z</time></trkpt><trkpt lat="45.78171869737081" lon="11.99360561662733"><ele>114.66666666666667</ele><time>2026-04-06T14:45:53Z</time></trkpt><trkpt lat="45.78154905879581" lon="11.993596540547253"><ele>114.33333333333334</ele><time>2026-04-06T14:45:54Z</time></trkpt><trkpt lat="45.781381495464565" lon="11.993586656831987"><ele>114.0</ele><time>2026-04-06T14:45:55Z</time></trkpt><trkpt lat="45.7812161963051" lon="11.993576821607402"><ele>114.0</ele><time>2026-04-06T14:45:56Z</time></trkpt><trkpt lat="45.78105384084392" lon="11.993567227529944"><ele>114.0</ele><time>2026-04-06T14:45:57Z</time></trkpt><trkpt lat="45.78089428714166" lon="11.993557317789332"><ele>114.0</ele><time>2026-04-06T14:45:58Z</time></trkpt><trkpt lat="45.78073546343252" lon="11.993549279414282"><ele>113.75</ele><time>2026-04-06T14:45:59Z</time></trkpt><trkpt lat="45.78057740281241" lon="11.993539070688774"><ele>113.5</ele><time>2026-04-06T14:46:00Z</time></trkpt><trkpt lat="45.78042464717529" lon="11.993529481443817"><ele>113.25</ele><time>2026-04-06T14:46:01Z</time></trkpt><trkpt lat="45.7802889786142" lon="11.993497068209393"><ele>113.0</ele><time>2026-04-06T14:46:02Z</time></trkpt><trkpt lat="45.780160608759836" lon="11.993488768185534"><ele>113.4</ele><time>2026-04-06T14:46:03Z</time></trkpt><trkpt lat="45.78004439412181" lon="11.993481254082253"><ele>113.80000000000001</ele><time>2026-04-06T14:46:04Z</time></trkpt><trkpt lat="45.77994217086244" lon="11.993495388040838"><ele>114.2</ele><time>2026-04-06T14:46:05Z</time></trkpt><trkpt lat="45.779851812947115" lon="11.993476827980604"><ele>114.6</ele><time>2026-04-06T14:46:06Z</time></trkpt><trkpt lat="45.77976620772644" lon="11.993439208377387"><ele>115.0</ele><time>2026-04-06T14:46:07Z</time></trkpt><trkpt lat="45.77969047565593" lon="11.993373994967985"><ele>115.0</ele><time>2026-04-06T14:46:08Z</time></trkpt><trkpt lat="45.77961314565355" lon="11.993308405029339"><ele>115.0</ele><time>2026-04-06T14:46:09Z</time></trkpt><trkpt lat="45.77952903625974" lon="11.993238580311028"><ele>115.0</ele><time>2026-04-06T14:46:10Z</time></trkpt><trkpt lat="45.77941157092377" lon="11.993241652091706"><ele>115.0</ele><time>2026-04-06T14:46:11Z</time></trkpt><trkpt lat="45.779303503150935" lon="11.993337455187865"><ele>115.0</ele><time>2026-04-06T14:46:12Z</time></trkpt><trkpt lat="45.77917881236028" lon="11.993396389606241"><ele>115.0</ele><time>2026-04-06T14:46:13Z</time></trkpt><trkpt lat="45.77903339117017" lon="11.993428286780675"><ele>115.0</ele><time>2026-04-06T14:46:14Z</time></trkpt><trkpt lat="45.7788725261794" lon="11.993437200013847"><ele>115.0</ele><time>2026-04-06T14:46:15Z</time></trkpt><trkpt lat="45.7787099331194" lon="11.993409011903719"><ele>115.0</ele><time>2026-04-06T14:46:16Z</time></trkpt><trkpt lat="45.77854320665416" lon="11.993415058726242"><ele>115.0</ele><time>2026-04-06T14:46:17Z</time></trkpt><trkpt lat="45.77836725361317" lon="11.993448014466443"><ele>115.0</ele><time>2026-04-06T14:46:18Z</time></trkpt><trkpt lat="45.778184379186804" lon="11.99346387645403"><ele>114.33333333333334</ele><time>2026-04-06T14:46:19Z</time></trkpt><trkpt lat="45.77799897163703" lon="11.99346086296799"><ele>113.66666666666666</ele><time>2026-04-06T14:46:20Z</time></trkpt><trkpt lat="45.777813049983216" lon="11.993479306213548"><ele>113.0</ele><time>2026-04-06T14:46:21Z</time></trkpt><trkpt lat="45.77762694059929" lon="11.993497965336758"><ele>112.66666666666666</ele><time>2026-04-06T14:46:22Z</time></trkpt><trkpt lat="45.7774410206984" lon="11.99351467995867"><ele>112.33333333333334</ele><time>2026-04-06T14:46:23Z</time></trkpt><trkpt lat="45.777254147045625" lon="11.993531616295531"><ele>112.0</ele><time>2026-04-06T14:46:24Z</time></trkpt><trkpt lat="45.7770703286304" lon="11.993549530233812"><ele>112.0</ele><time>2026-04-06T14:46:25Z</time></trkpt><trkpt lat="45.77689475184699" lon="11.993566600165083"><ele>112.0</ele><time>2026-04-06T14:46:26Z</time></trkpt><trkpt lat="45.776725029230306" lon="11.993582143447723"><ele>112.0</ele><time>2026-04-06T14:46:27Z</time></trkpt><trkpt lat="45.776562312984304" lon="11.993597045084242"><ele>112.0</ele><time>2026-04-06T14:46:28Z</time></trkpt><trkpt lat="45.77640495746368" lon="11.993611455782895"><ele>112.0</ele><time>2026-04-06T14:46:29Z</time></trkpt><trkpt lat="45.77624673330029" lon="11.993626915295039"><ele>112.0</ele><time>2026-04-06T14:46:30Z</time></trkpt><trkpt lat="45.77607808937569" lon="11.993643798746614"><ele>110.66666666666667</ele><time>2026-04-06T14:46:31Z</time></trkpt><trkpt lat="45.77589558523497" lon="11.993661752503058"><ele>109.33333333333334</ele><time>2026-04-06T14:46:32Z</time></trkpt><trkpt lat="45.7756984616959" lon="11.993678648818724"><ele>108.0</ele><time>2026-04-06T14:46:33Z</time></trkpt><trkpt lat="45.77549011992687" lon="11.993697215907638"><ele>108.0</ele><time>2026-04-06T14:46:34Z</time></trkpt><trkpt lat="45.77527479956807" lon="11.993718072633586"><ele>108.0</ele><time>2026-04-06T14:46:35Z</time></trkpt><trkpt lat="45.775061945750785" lon="11.993760133486559"><ele>108.0</ele><time>2026-04-06T14:46:36Z</time></trkpt><trkpt lat="45.77485397024625" lon="11.993776811106253"><ele>107.66666666666666</ele><time>2026-04-06T14:46:37Z</time></trkpt><trkpt lat="45.774647483859624" lon="11.99379422064738"><ele>107.33333333333333</ele><time>2026-04-06T14:46:38Z</time></trkpt><trkpt lat="45.774443919662595" lon="11.993813841443005"><ele>107.0</ele><time>2026-04-06T14:46:39Z</time></trkpt><trkpt lat="45.77424566966517" lon="11.993809353144425"><ele>106.33333333333333</ele><time>2026-04-06T14:46:40Z</time></trkpt><trkpt lat="45.774056213023286" lon="11.993826783256035"><ele>105.66666666666666</ele><time>2026-04-06T14:46:41Z</time></trkpt><trkpt lat="45.77386766658716" lon="11.993844129632091"><ele>105.0</ele><time>2026-04-06T14:46:42Z</time></trkpt><trkpt lat="45.77368730514086" lon="11.99386072298225"><ele>105.0</ele><time>2026-04-06T14:46:43Z</time></trkpt><trkpt lat="45.77351555750443" lon="11.993876523858454"><ele>105.0</ele><time>2026-04-06T14:46:44Z</time></trkpt><trkpt lat="45.77334847072515" lon="11.993891895935104"><ele>105.0</ele><time>2026-04-06T14:46:45Z</time></trkpt><trkpt lat="45.77318481759321" lon="11.993906952112491"><ele>105.0</ele><time>2026-04-06T14:46:46Z</time></trkpt><trkpt lat="45.77302086172609" lon="11.993922036142111"><ele>105.0</ele><time>2026-04-06T14:46:47Z</time></trkpt><trkpt lat="45.77285327594013" lon="11.99393745412598"><ele>105.0</ele><time>2026-04-06T14:46:48Z</time></trkpt><trkpt lat="45.77267384670394" lon="11.993953783586518"><ele>105.33333333333334</ele><time>2026-04-06T14:46:49Z</time></trkpt><trkpt lat="45.77248072912396" lon="11.99397132116215"><ele>105.66666666666667</ele><time>2026-04-06T14:46:50Z</time></trkpt><trkpt lat="45.77227532222003" lon="11.993989974764451"><ele>106.0</ele><time>2026-04-06T14:46:51Z</time></trkpt><trkpt lat="45.77205642738592" lon="11.994009853249514"><ele>105.5</ele><time>2026-04-06T14:46:52Z</time></trkpt><trkpt lat="45.7718261936061" lon="11.994030761456122"><ele>105.0</ele><time>2026-04-06T14:46:53Z</time></trkpt><trkpt lat="45.77159386345899" lon="11.994051860046222"><ele>105.0</ele><time>2026-04-06T14:46:54Z</time></trkpt><trkpt lat="45.77136313893943" lon="11.994072813229204"><ele>105.0</ele><time>2026-04-06T14:46:55Z</time></trkpt><trkpt lat="45.771144830115006" lon="11.994093260179763"><ele>104.33333333333334</ele><time>2026-04-06T14:46:56Z</time></trkpt><trkpt lat="45.770933878857775" lon="11.994112918972698"><ele>103.66666666666667</ele><time>2026-04-06T14:46:57Z</time></trkpt><trkpt lat="45.77070946920403" lon="11.99413383197323"><ele>103.0</ele><time>2026-04-06T14:46:58Z</time></trkpt><trkpt lat="45.77046672925637" lon="11.994156453191577"><ele>102.5</ele><time>2026-04-06T14:46:59Z</time></trkpt><trkpt lat="45.770218068950314" lon="11.994179626137255"><ele>102.0</ele><time>2026-04-06T14:47:00Z</time></trkpt><trkpt lat="45.769968648033306" lon="11.994202869964266"><ele>102.0</ele><time>2026-04-06T14:47:01Z</time></trkpt><trkpt lat="45.76972919823071" lon="11.994224403914231"><ele>102.0</ele><time>2026-04-06T14:47:02Z</time></trkpt><trkpt lat="45.7694985768732" lon="11.994262175751388"><ele>102.33333333333334</ele><time>2026-04-06T14:47:03Z</time></trkpt><trkpt lat="45.76927611839896" lon="11.994284165489558"><ele>102.66666666666667</ele><time>2026-04-06T14:47:04Z</time></trkpt><trkpt lat="45.76905564064161" lon="11.994306635598484"><ele>103.0</ele><time>2026-04-06T14:47:05Z</time></trkpt><trkpt lat="45.76883772338911" lon="11.994327431117863"><ele>103.0</ele><time>2026-04-06T14:47:06Z</time></trkpt><trkpt lat="45.76862051840465" lon="11.994347237952326"><ele>103.0</ele><time>2026-04-06T14:47:07Z</time></trkpt><trkpt lat="45.768402151934914" lon="11.99436993371701"><ele>103.0</ele><time>2026-04-06T14:47:08Z</time></trkpt><trkpt lat="45.768179452662196" lon="11.994369703171884"><ele>102.5</ele><time>2026-04-06T14:47:09Z</time></trkpt><trkpt lat="45.767955223389926" lon="11.994390952073447"><ele>102.0</ele><time>2026-04-06T14:47:10Z</time></trkpt><trkpt lat="45.76773012583085" lon="11.99441238975232"><ele>101.66666666666666</ele><time>2026-04-06T14:47:11Z</time></trkpt><trkpt lat="45.767509566941776" lon="11.994432992857034"><ele>101.33333333333333</ele><time>2026-04-06T14:47:12Z</time></trkpt><trkpt lat="45.76729174588497" lon="11.994479728819963"><ele>101.0</ele><time>2026-04-06T14:47:13Z</time></trkpt><trkpt lat="45.76707413088747" lon="11.994498257726885"><ele>101.0</ele><time>2026-04-06T14:47:14Z</time></trkpt><trkpt lat="45.76685967292003" lon="11.994515465903971"><ele>101.0</ele><time>2026-04-06T14:47:15Z</time></trkpt><trkpt lat="45.76664835799865" lon="11.994534099382161"><ele>101.0</ele><time>2026-04-06T14:47:16Z</time></trkpt><trkpt lat="45.76643969054313" lon="11.994554180654232"><ele>101.0</ele><time>2026-04-06T14:47:17Z</time></trkpt><trkpt lat="45.76623543721945" lon="11.994573099534845"><ele>101.0</ele><time>2026-04-06T14:47:18Z</time></trkpt><trkpt lat="45.766035864216654" lon="11.99459113322094"><ele>101.0</ele><time>2026-04-06T14:47:19Z</time></trkpt><trkpt lat="45.76584067793713" lon="11.994609774203118"><ele>101.33333333333333</ele><time>2026-04-06T14:47:20Z</time></trkpt><trkpt lat="45.76565082217978" lon="11.994625808959565"><ele>101.66666666666666</ele><time>2026-04-06T14:47:21Z</time></trkpt><trkpt lat="45.76546399312993" lon="11.994640049908455"><ele>102.0</ele><time>2026-04-06T14:47:22Z</time></trkpt><trkpt lat="45.765280953429865" lon="11.99465633412643"><ele>101.66666666666666</ele><time>2026-04-06T14:47:23Z</time></trkpt><trkpt lat="45.76510123486818" lon="11.994674756602587"><ele>101.33333333333333</ele><time>2026-04-06T14:47:24Z</time></trkpt><trkpt lat="45.76492144354711" lon="11.994694489632561"><ele>101.0</ele><time>2026-04-06T14:47:25Z</time></trkpt><trkpt lat="45.76473887620947" lon="11.994714583936362"><ele>101.0</ele><time>2026-04-06T14:47:26Z</time></trkpt><trkpt lat="45.76456075221249" lon="11.994731683203076"><ele>101.0</ele><time>2026-04-06T14:47:27Z</time></trkpt><trkpt lat="45.764393053432066" lon="11.994743864384183"><ele>101.0</ele><time>2026-04-06T14:47:28Z</time></trkpt><trkpt lat="45.76423100352273" lon="11.994760060170492"><ele>100.25</ele><time>2026-04-06T14:47:29Z</time></trkpt><trkpt lat="45.764075910284674" lon="11.994779066842057"><ele>99.5</ele><time>2026-04-06T14:47:30Z</time></trkpt><trkpt lat="45.76392763265284" lon="11.994795397479123"><ele>98.75</ele><time>2026-04-06T14:47:31Z</time></trkpt><trkpt lat="45.76379317974846" lon="11.994810584153262"><ele>98.0</ele><time>2026-04-06T14:47:32Z</time></trkpt><trkpt lat="45.76368539780844" lon="11.994836937886634"><ele>98.0</ele><time>2026-04-06T14:47:33Z</time></trkpt><trkpt lat="45.76358565456891" lon="11.99486947325636"><ele>98.0</ele><time>2026-04-06T14:47:34Z</time></trkpt><trkpt lat="45.763485201592864" lon="11.99488804761404"><ele>98.0</ele><time>2026-04-06T14:47:35Z</time></trkpt><trkpt lat="45.76338764963622" lon="11.994866979453466"><ele>98.0</ele><time>2026-04-06T14:47:36Z</time></trkpt><trkpt lat="45.76329254876055" lon="11.994847944706624"><ele>98.0</ele><time>2026-04-06T14:47:37Z</time></trkpt><trkpt lat="45.76318785320954" lon="11.994841736830116"><ele>98.25</ele><time>2026-04-06T14:47:38Z</time></trkpt><trkpt lat="45.76306757998959" lon="11.994818152462582"><ele>98.5</ele><time>2026-04-06T14:47:39Z</time></trkpt><trkpt lat="45.76293788237378" lon="11.994768445236536"><ele>98.75</ele><time>2026-04-06T14:47:40Z</time></trkpt><trkpt lat="45.76279660365898" lon="11.99470345022404"><ele>99.0</ele><time>2026-04-06T14:47:41Z</time></trkpt><trkpt lat="45.76264701584077" lon="11.994621696014418"><ele>99.33333333333334</ele><time>2026-04-06T14:47:42Z</time></trkpt><trkpt lat="45.762499623002824" lon="11.99453495872742"><ele>99.66666666666667</ele><time>2026-04-06T14:47:43Z</time></trkpt><trkpt lat="45.76234853459914" lon="11.994432870128893"><ele>100.0</ele><time>2026-04-06T14:47:44Z</time></trkpt><trkpt lat="45.7621931773567" lon="11.994320341791294"><ele>100.0</ele><time>2026-04-06T14:47:45Z</time></trkpt><trkpt lat="45.76204310674033" lon="11.994200517622021"><ele>100.0</ele><time>2026-04-06T14:47:46Z</time></trkpt><trkpt lat="45.76189457678659" lon="11.99407710696246"><ele>100.0</ele><time>2026-04-06T14:47:47Z</time></trkpt><trkpt lat="45.76175238631037" lon="11.9939518072279"><ele>99.0</ele><time>2026-04-06T14:47:48Z</time></trkpt><trkpt lat="45.761616784952366" lon="11.993835314742553"><ele>98.0</ele><time>2026-04-06T14:47:49Z</time></trkpt><trkpt lat="45.761486469756015" lon="11.993721952778511"><ele>97.0</ele><time>2026-04-06T14:47:50Z</time></trkpt><trkpt lat="45.76136122065987" lon="11.993612283258564"><ele>97.0</ele><time>2026-04-06T14:47:51Z</time></trkpt><trkpt lat="45.76124363597003" lon="11.993510836212657"><ele>97.0</ele><time>2026-04-06T14:47:52Z</time></trkpt><trkpt lat="45.76114623425009" lon="11.993424069979046"><ele>97.0</ele><time>2026-04-06T14:47:53Z</time></trkpt><trkpt lat="45.76107280964078" lon="11.993355362255011"><ele>97.0</ele><time>2026-04-06T14:47:54Z</time></trkpt><trkpt lat="45.76100323670595" lon="11.993259641665254"><ele>97.0</ele><time>2026-04-06T14:47:56Z</time></trkpt><trkpt lat="45.76098525237998" lon="11.993153657010671"><ele>96.83333333333334</ele><time>2026-04-06T14:47:58Z</time></trkpt><trkpt lat="45.760935144643405" lon="11.99305718794108"><ele>96.66666666666667</ele><time>2026-04-06T14:48:01Z</time></trkpt><trkpt lat="45.7608447765558" lon="11.992957466998"><ele>96.5</ele><time>2026-04-06T14:51:10Z</time></trkpt><trkpt lat="45.76088864349531" lon="11.993050002393845"><ele>96.33333333333334</ele><time>2026-04-06T14:56:56Z</time></trkpt><trkpt lat="45.76083396357054" lon="11.993002386679173"><ele>96.16666666666667</ele><time>2026-04-06T14:56:58Z</time></trkpt><trkpt lat="45.76074355197272" lon="11.992955121865513"><ele>96.0</ele><time>2026-04-06T14:57:00Z</time></trkpt><trkpt lat="45.76065401464443" lon="11.99294228820511"><ele>96.0</ele><time>2026-04-06T14:57:02Z</time></trkpt><trkpt lat="45.760590312512555" lon="11.992906375116165"><ele>96.0</ele><time>2026-04-06T14:57:04Z</time></trkpt><trkpt lat="45.76052375171383" lon="11.992854652828488"><ele>96.0</ele><time>2026-04-06T14:57:06Z</time></trkpt><trkpt lat="45.760415059264396" lon="11.992774681599514"><ele>96.0</ele><time>2026-04-06T14:57:08Z</time></trkpt><trkpt lat="45.76033402801765" lon="11.992705327541724"><ele>96.0</ele><time>2026-04-06T14:57:09Z</time></trkpt><trkpt lat="45.76023881651361" lon="11.992626761951914"><ele>96.0</ele><time>2026-04-06T14:57:10Z</time></trkpt><trkpt lat="45.76013532673287" lon="11.992549247908158"><ele>96.0</ele><time>2026-04-06T14:57:11Z</time></trkpt><trkpt lat="45.76001238421975" lon="11.992443679016057"><ele>96.0</ele><time>2026-04-06T14:57:12Z</time></trkpt><trkpt lat="45.7598962861061" lon="11.99234744039839"><ele>96.0</ele><time>2026-04-06T14:57:13Z</time></trkpt><trkpt lat="45.75976686150173" lon="11.992241490301238"><ele>96.33333333333334</ele><time>2026-04-06T14:57:14Z</time></trkpt><trkpt lat="45.75962870595591" lon="11.992131598556764"><ele>96.66666666666667</ele><time>2026-04-06T14:57:15Z</time></trkpt><trkpt lat="45.759492340106995" lon="11.99201391638007"><ele>97.0</ele><time>2026-04-06T14:57:16Z</time></trkpt><trkpt lat="45.75932960579962" lon="11.991892268542662"><ele>96.33333333333334</ele><time>2026-04-06T14:57:17Z</time></trkpt><trkpt lat="45.75916275292219" lon="11.991721070620317"><ele>95.66666666666667</ele><time>2026-04-06T14:57:18Z</time></trkpt><trkpt lat="45.75899862341328" lon="11.991579600092024"><ele>95.0</ele><time>2026-04-06T14:57:19Z</time></trkpt><trkpt lat="45.75882375968835" lon="11.99145528433636"><ele>95.0</ele><time>2026-04-06T14:57:20Z</time></trkpt><trkpt lat="45.75866893402475" lon="11.99130533590684"><ele>95.0</ele><time>2026-04-06T14:57:21Z</time></trkpt><trkpt lat="45.75851093130918" lon="11.991166890082225"><ele>95.0</ele><time>2026-04-06T14:57:22Z</time></trkpt><trkpt lat="45.75835102564177" lon="11.991030857622976"><ele>94.66666666666667</ele><time>2026-04-06T14:57:23Z</time></trkpt><trkpt lat="45.75820214111371" lon="11.990902555396048"><ele>94.33333333333333</ele><time>2026-04-06T14:57:24Z</time></trkpt><trkpt lat="45.75805727320644" lon="11.990780647568842"><ele>94.0</ele><time>2026-04-06T14:57:25Z</time></trkpt><trkpt lat="45.75791406363557" lon="11.990655976591215"><ele>93.33333333333333</ele><time>2026-04-06T14:57:26Z</time></trkpt><trkpt lat="45.75776839547473" lon="11.99052682740828"><ele>92.66666666666667</ele><time>2026-04-06T14:57:27Z</time></trkpt><trkpt lat="45.75761962036563" lon="11.99040040790237"><ele>92.0</ele><time>2026-04-06T14:57:28Z</time></trkpt><trkpt lat="45.75746952448661" lon="11.990273238470122"><ele>92.66666666666667</ele><time>2026-04-06T14:57:29Z</time></trkpt><trkpt lat="45.75731848631785" lon="11.99014491682931"><ele>93.33333333333333</ele><time>2026-04-06T14:57:30Z</time></trkpt><trkpt lat="45.75716614167054" lon="11.990019176491957"><ele>94.0</ele><time>2026-04-06T14:57:31Z</time></trkpt><trkpt lat="45.7570152590321" lon="11.989889842988436"><ele>93.66666666666666</ele><time>2026-04-06T14:57:32Z</time></trkpt><trkpt lat="45.75686359923757" lon="11.989758451022546"><ele>93.33333333333333</ele><time>2026-04-06T14:57:33Z</time></trkpt><trkpt lat="45.7567111806824" lon="11.989627321721047"><ele>93.0</ele><time>2026-04-06T14:57:34Z</time></trkpt><trkpt lat="45.75655932764157" lon="11.989495276137262"><ele>93.0</ele><time>2026-04-06T14:57:35Z</time></trkpt><trkpt lat="45.75641013914372" lon="11.989360773849098"><ele>93.0</ele><time>2026-04-06T14:57:36Z</time></trkpt><trkpt lat="45.75626442498957" lon="11.989225890843667"><ele>93.0</ele><time>2026-04-06T14:57:37Z</time></trkpt><trkpt lat="45.75611922297662" lon="11.989096945627162"><ele>92.66666666666667</ele><time>2026-04-06T14:57:38Z</time></trkpt><trkpt lat="45.755974052855045" lon="11.98897454421855"><ele>92.33333333333334</ele><time>2026-04-06T14:57:39Z</time></trkpt><trkpt lat="45.755831773505975" lon="11.988855494712809"><ele>92.0</ele><time>2026-04-06T14:57:40Z</time></trkpt><trkpt lat="45.75569679938045" lon="11.988740140144447"><ele>92.0</ele><time>2026-04-06T14:57:41Z</time></trkpt><trkpt lat="45.75556766824657" lon="11.988626667042304"><ele>92.0</ele><time>2026-04-06T14:57:42Z</time></trkpt><trkpt lat="45.7554433371028" lon="11.988518049913626"><ele>92.0</ele><time>2026-04-06T14:57:43Z</time></trkpt><trkpt lat="45.75531848725988" lon="11.988417222332892"><ele>92.0</ele><time>2026-04-06T14:57:44Z</time></trkpt><trkpt lat="45.7551930785599" lon="11.988318080005588"><ele>91.75</ele><time>2026-04-06T14:57:45Z</time></trkpt><trkpt lat="45.75506935135938" lon="11.988213694190794"><ele>91.5</ele><time>2026-04-06T14:57:46Z</time></trkpt><trkpt lat="45.754945003731756" lon="11.988106731784024"><ele>91.25</ele><time>2026-04-06T14:57:47Z</time></trkpt><trkpt lat="45.75482037042711" lon="11.987998510283564"><ele>91.0</ele><time>2026-04-06T14:57:48Z</time></trkpt><trkpt lat="45.754694016917064" lon="11.987891894648833"><ele>91.0</ele><time>2026-04-06T14:57:49Z</time></trkpt><trkpt lat="45.75456723948035" lon="11.98778461597007"><ele>91.0</ele><time>2026-04-06T14:57:50Z</time></trkpt><trkpt lat="45.75444023604728" lon="11.987674473785491"><ele>91.0</ele><time>2026-04-06T14:57:51Z</time></trkpt><trkpt lat="45.754310121205506" lon="11.9875648480541"><ele>91.0</ele><time>2026-04-06T14:57:52Z</time></trkpt><trkpt lat="45.754180818255065" lon="11.987452868297407"><ele>91.0</ele><time>2026-04-06T14:57:53.001Z</time></trkpt><trkpt lat="45.754057518152074" lon="11.98734537449089"><ele>91.0</ele><time>2026-04-06T14:57:54.001Z</time></trkpt><trkpt lat="45.75393423510606" lon="11.987236101522424"><ele>91.0</ele><time>2026-04-06T14:57:55.001Z</time></trkpt><trkpt lat="45.753810673976886" lon="11.987126662239106"><ele>91.0</ele><time>2026-04-06T14:57:56.001Z</time></trkpt><trkpt lat="45.753683035459076" lon="11.987016522866513"><ele>91.0</ele><time>2026-04-06T14:57:57.001Z</time></trkpt><trkpt lat="45.753554375060645" lon="11.986898471691065"><ele>91.0</ele><time>2026-04-06T14:57:58.001Z</time></trkpt><trkpt lat="45.75342593392821" lon="11.986773475827547"><ele>91.0</ele><time>2026-04-06T14:57:59.001Z</time></trkpt><trkpt lat="45.75329488984947" lon="11.986647578700921"><ele>90.66666666666666</ele><time>2026-04-06T14:58:00.001Z</time></trkpt><trkpt lat="45.75316102623584" lon="11.986519998981768"><ele>90.33333333333333</ele><time>2026-04-06T14:58:01.001Z</time></trkpt><trkpt lat="45.75302622687453" lon="11.98638658489995"><ele>90.0</ele><time>2026-04-06T14:58:02.001Z</time></trkpt><trkpt lat="45.752887532410234" lon="11.986253297928021"><ele>90.0</ele><time>2026-04-06T14:58:03.001Z</time></trkpt><trkpt lat="45.75274602876534" lon="11.986115877883433"><ele>90.0</ele><time>2026-04-06T14:58:04.001Z</time></trkpt><trkpt lat="45.752603243836056" lon="11.985977934490654"><ele>90.0</ele><time>2026-04-06T14:58:05.001Z</time></trkpt><trkpt lat="45.752465030471406" lon="11.985846137642298"><ele>90.0</ele><time>2026-04-06T14:58:06.001Z</time></trkpt><trkpt lat="45.75233293996718" lon="11.985719304354296"><ele>90.0</ele><time>2026-04-06T14:58:07.001Z</time></trkpt><trkpt lat="45.75220328677149" lon="11.985593125811429"><ele>90.0</ele><time>2026-04-06T14:58:08.001Z</time></trkpt><trkpt lat="45.75207320383367" lon="11.98546318888944"><ele>90.0</ele><time>2026-04-06T14:58:09.001Z</time></trkpt><trkpt lat="45.7519410451085" lon="11.985334832355196"><ele>90.0</ele><time>2026-04-06T14:58:10.001Z</time></trkpt><trkpt lat="45.75181344520631" lon="11.985211537978484"><ele>90.0</ele><time>2026-04-06T14:58:11.001Z</time></trkpt><trkpt lat="45.751692579896" lon="11.98509501216106"><ele>90.0</ele><time>2026-04-06T14:58:12.001Z</time></trkpt><trkpt lat="45.75157920447833" lon="11.98498500875648"><ele>90.0</ele><time>2026-04-06T14:58:13.001Z</time></trkpt><trkpt lat="45.75147356771197" lon="11.984882760907245"><ele>90.0</ele><time>2026-04-06T14:58:14.001Z</time></trkpt><trkpt lat="45.75137130644081" lon="11.984786806833094"><ele>90.0</ele><time>2026-04-06T14:58:15.001Z</time></trkpt><trkpt lat="45.75127130749197" lon="11.984694990135422"><ele>90.0</ele><time>2026-04-06T14:58:16.001Z</time></trkpt><trkpt lat="45.75117424384316" lon="11.984602142449535"><ele>90.0</ele><time>2026-04-06T14:58:17.001Z</time></trkpt><trkpt lat="45.75108950592876" lon="11.984483119933655"><ele>90.0</ele><time>2026-04-06T14:58:18.001Z</time></trkpt><trkpt lat="45.75099743042663" lon="11.984372854186859"><ele>90.0</ele><time>2026-04-06T14:58:19.001Z</time></trkpt><trkpt lat="45.75090927787727" lon="11.984259035989611"><ele>90.0</ele><time>2026-04-06T14:58:20.001Z</time></trkpt><trkpt lat="45.75082596754136" lon="11.984144272204095"><ele>90.0</ele><time>2026-04-06T14:58:21.001Z</time></trkpt><trkpt lat="45.750746762649214" lon="11.98402122181073"><ele>90.0</ele><time>2026-04-06T14:58:22.001Z</time></trkpt><trkpt lat="45.75067383565549" lon="11.983889790268956"><ele>90.0</ele><time>2026-04-06T14:58:23.001Z</time></trkpt><trkpt lat="45.7506007288704" lon="11.983749447588627"><ele>90.0</ele><time>2026-04-06T14:58:24.001Z</time></trkpt><trkpt lat="45.75052047761513" lon="11.983593166870255"><ele>90.0</ele><time>2026-04-06T14:58:25.001Z</time></trkpt><trkpt lat="45.750432325203725" lon="11.983418484470896"><ele>90.0</ele><time>2026-04-06T14:58:26.001Z</time></trkpt><trkpt lat="45.75033759640624" lon="11.98323026465369"><ele>90.0</ele><time>2026-04-06T14:58:27.001Z</time></trkpt><trkpt lat="45.75023703213532" lon="11.983028557690398"><ele>89.66666666666667</ele><time>2026-04-06T14:58:28.001Z</time></trkpt><trkpt lat="45.75012409921699" lon="11.982833696784118"><ele>89.33333333333334</ele><time>2026-04-06T14:58:29.001Z</time></trkpt><trkpt lat="45.75002675532862" lon="11.982635531935479"><ele>89.0</ele><time>2026-04-06T14:58:30Z</time></trkpt><trkpt lat="45.74993116746892" lon="11.982431157248763"><ele>89.0</ele><time>2026-04-06T14:58:31Z</time></trkpt><trkpt lat="45.74983590574083" lon="11.982248673749172"><ele>89.0</ele><time>2026-04-06T14:58:32Z</time></trkpt><trkpt lat="45.74974667182178" lon="11.982080345190887"><ele>89.0</ele><time>2026-04-06T14:58:33Z</time></trkpt><trkpt lat="45.74966523160964" lon="11.981915007814594"><ele>89.0</ele><time>2026-04-06T14:58:34Z</time></trkpt><trkpt lat="45.74958564553556" lon="11.981755770778753"><ele>88.75</ele><time>2026-04-06T14:58:35Z</time></trkpt><trkpt lat="45.74950815278684" lon="11.981604538457145"><ele>88.5</ele><time>2026-04-06T14:58:36Z</time></trkpt><trkpt lat="45.74943510142086" lon="11.981456210287378"><ele>88.25</ele><time>2026-04-06T14:58:37Z</time></trkpt><trkpt lat="45.74936556844911" lon="11.981313648784923"><ele>88.0</ele><time>2026-04-06T14:58:38Z</time></trkpt><trkpt lat="45.749299599324814" lon="11.98117412698148"><ele>87.75</ele><time>2026-04-06T14:58:39Z</time></trkpt><trkpt lat="45.749234448296335" lon="11.981039539308654"><ele>87.5</ele><time>2026-04-06T14:58:40Z</time></trkpt><trkpt lat="45.74916962470395" lon="11.980905545271545"><ele>87.25</ele><time>2026-04-06T14:58:41Z</time></trkpt><trkpt lat="45.749104481656566" lon="11.98077408014476"><ele>87.0</ele><time>2026-04-06T14:58:42Z</time></trkpt><trkpt lat="45.74903926723452" lon="11.980640678774215"><ele>87.0</ele><time>2026-04-06T14:58:43Z</time></trkpt><trkpt lat="45.74897196886509" lon="11.980507858189362"><ele>87.0</ele><time>2026-04-06T14:58:44Z</time></trkpt><trkpt lat="45.74890193810626" lon="11.98037012492314"><ele>87.0</ele><time>2026-04-06T14:58:45Z</time></trkpt><trkpt lat="45.74882304421713" lon="11.980223622262116"><ele>87.0</ele><time>2026-04-06T14:58:46Z</time></trkpt><trkpt lat="45.74875629869442" lon="11.980047702193993"><ele>86.66666666666667</ele><time>2026-04-06T14:58:47Z</time></trkpt><trkpt lat="45.74864559611882" lon="11.97989158429652"><ele>86.33333333333334</ele><time>2026-04-06T14:58:48Z</time></trkpt><trkpt lat="45.748552290956496" lon="11.97970164449072"><ele>86.0</ele><time>2026-04-06T14:58:49Z</time></trkpt><trkpt lat="45.748459733498414" lon="11.979510831850847"><ele>86.0</ele><time>2026-04-06T14:58:50Z</time></trkpt><trkpt lat="45.748378672671535" lon="11.979335011188509"><ele>86.0</ele><time>2026-04-06T14:58:51Z</time></trkpt><trkpt lat="45.74830944091338" lon="11.979182952842157"><ele>86.0</ele><time>2026-04-06T14:58:52Z</time></trkpt><trkpt lat="45.74825275127822" lon="11.979058724186254"><ele>86.0</ele><time>2026-04-06T14:58:53Z</time></trkpt><trkpt lat="45.74820016590616" lon="11.978948368305709"><ele>86.0</ele><time>2026-04-06T14:58:54Z</time></trkpt><trkpt lat="45.74814858624592" lon="11.978844289441637"><ele>86.0</ele><time>2026-04-06T14:58:55Z</time></trkpt><trkpt lat="45.748103463751775" lon="11.97875886956202"><ele>86.0</ele><time>2026-04-06T14:58:56Z</time></trkpt><trkpt lat="45.748043631836964" lon="11.978635103256824"><ele>86.0</ele><time>2026-04-06T14:58:58Z</time></trkpt><trkpt lat="45.74799641752638" lon="11.978543917375934"><ele>86.0</ele><time>2026-04-06T14:59:00Z</time></trkpt><trkpt lat="45.747959496216154" lon="11.978442381299134"><ele>86.0</ele><time>2026-04-06T14:59:03Z</time></trkpt><trkpt lat="45.74791847164227" lon="11.97835986859593"><ele>86.0</ele><time>2026-04-06T14:59:07Z</time></trkpt><trkpt lat="45.747869128390434" lon="11.978273346065501"><ele>86.0</ele><time>2026-04-06T14:59:10Z</time></trkpt><trkpt lat="45.74783238104458" lon="11.978170430256029"><ele>86.0</ele><time>2026-04-06T14:59:12Z</time></trkpt><trkpt lat="45.74779236372876" lon="11.97809712874948"><ele>86.0</ele><time>2026-04-06T14:59:13Z</time></trkpt><trkpt lat="45.747713377047724" lon="11.977954102779112"><ele>86.0</ele><time>2026-04-06T14:59:15Z</time></trkpt><trkpt lat="45.74766057770817" lon="11.97785431562912"><ele>86.0</ele><time>2026-04-06T14:59:16Z</time></trkpt><trkpt lat="45.747596869190424" lon="11.977733255791167"><ele>86.0</ele><time>2026-04-06T14:59:17Z</time></trkpt><trkpt lat="45.747529024977595" lon="11.977599925923517"><ele>86.0</ele><time>2026-04-06T14:59:18Z</time></trkpt><trkpt lat="45.74746640854445" lon="11.977474416952216"><ele>86.0</ele><time>2026-04-06T14:59:19Z</time></trkpt><trkpt lat="45.747401960318285" lon="11.977346818030274"><ele>86.0</ele><time>2026-04-06T14:59:20Z</time></trkpt><trkpt lat="45.74733046403824" lon="11.977205302111154"><ele>86.0</ele><time>2026-04-06T14:59:21Z</time></trkpt><trkpt lat="45.74725170518107" lon="11.977048753049328"><ele>86.0</ele><time>2026-04-06T14:59:22Z</time></trkpt><trkpt lat="45.747164400402916" lon="11.97687734682897"><ele>86.0</ele><time>2026-04-06T14:59:23Z</time></trkpt><trkpt lat="45.747071778641526" lon="11.976691653182664"><ele>86.0</ele><time>2026-04-06T14:59:24Z</time></trkpt><trkpt lat="45.74698219524123" lon="11.97650140037773"><ele>86.0</ele><time>2026-04-06T14:59:25Z</time></trkpt><trkpt lat="45.7468910916245" lon="11.97631863308495"><ele>86.0</ele><time>2026-04-06T14:59:26Z</time></trkpt><trkpt lat="45.746799014927184" lon="11.976132156506266"><ele>86.0</ele><time>2026-04-06T14:59:27Z</time></trkpt><trkpt lat="45.74670088576852" lon="11.97593628560557"><ele>85.66666666666667</ele><time>2026-04-06T14:59:28Z</time></trkpt><trkpt lat="45.74659609669754" lon="11.975731269934133"><ele>85.33333333333333</ele><time>2026-04-06T14:59:29Z</time></trkpt><trkpt lat="45.74649792044484" lon="11.975521021334474"><ele>85.0</ele><time>2026-04-06T14:59:30Z</time></trkpt><trkpt lat="45.74639218997056" lon="11.97530698680938"><ele>85.0</ele><time>2026-04-06T14:59:31Z</time></trkpt><trkpt lat="45.746283830483065" lon="11.975092548407813"><ele>85.0</ele><time>2026-04-06T14:59:32Z</time></trkpt><trkpt lat="45.74617539282099" lon="11.97487820850399"><ele>85.0</ele><time>2026-04-06T14:59:33Z</time></trkpt><trkpt lat="45.74606594178281" lon="11.974660718590261"><ele>85.0</ele><time>2026-04-06T14:59:34Z</time></trkpt><trkpt lat="45.74595510000691" lon="11.974438234042267"><ele>85.0</ele><time>2026-04-06T14:59:35Z</time></trkpt><trkpt lat="45.74584103824235" lon="11.974212452994982"><ele>85.0</ele><time>2026-04-06T14:59:36Z</time></trkpt><trkpt lat="45.745723967536435" lon="11.973983355361325"><ele>85.33333333333333</ele><time>2026-04-06T14:59:37Z</time></trkpt><trkpt lat="45.745606408342006" lon="11.973749686057374"><ele>85.66666666666667</ele><time>2026-04-06T14:59:38Z</time></trkpt><trkpt lat="45.74548807198487" lon="11.973510302116312"><ele>86.0</ele><time>2026-04-06T14:59:39Z</time></trkpt><trkpt lat="45.74536766109434" lon="11.973265529317604"><ele>86.0</ele><time>2026-04-06T14:59:40Z</time></trkpt><trkpt lat="45.74524662271579" lon="11.973018398530236"><ele>86.0</ele><time>2026-04-06T14:59:41Z</time></trkpt><trkpt lat="45.74512478985606" lon="11.972772056818282"><ele>86.0</ele><time>2026-04-06T14:59:42Z</time></trkpt><trkpt lat="45.74500070364427" lon="11.972524390860618"><ele>85.33333333333334</ele><time>2026-04-06T14:59:43Z</time></trkpt><trkpt lat="45.744879012926106" lon="11.972281232724043"><ele>84.66666666666667</ele><time>2026-04-06T14:59:44Z</time></trkpt><trkpt lat="45.74475735416096" lon="11.972038069049662"><ele>84.0</ele><time>2026-04-06T14:59:45Z</time></trkpt><trkpt lat="45.74464005702798" lon="11.971796988121351"><ele>84.0</ele><time>2026-04-06T14:59:46Z</time></trkpt><trkpt lat="45.74452543031788" lon="11.971555829152228"><ele>84.0</ele><time>2026-04-06T14:59:47Z</time></trkpt><trkpt lat="45.744417605986584" lon="11.971316209020236"><ele>84.0</ele><time>2026-04-06T14:59:48Z</time></trkpt><trkpt lat="45.74431720890211" lon="11.971070921469234"><ele>83.33333333333333</ele><time>2026-04-06T14:59:49Z</time></trkpt><trkpt lat="45.74422791482679" lon="11.970819736377239"><ele>82.66666666666666</ele><time>2026-04-06T14:59:50Z</time></trkpt><trkpt lat="45.74417270961247" lon="11.970560731674086"><ele>82.0</ele><time>2026-04-06T14:59:51Z</time></trkpt><trkpt lat="45.7441010471413" lon="11.970321422636747"><ele>82.0</ele><time>2026-04-06T14:59:52Z</time></trkpt><trkpt lat="45.744055359375054" lon="11.970079452013078"><ele>82.0</ele><time>2026-04-06T14:59:53.001Z</time></trkpt><trkpt lat="45.74401705937185" lon="11.969846863783648"><ele>82.0</ele><time>2026-04-06T14:59:54.001Z</time></trkpt><trkpt lat="45.74398948934912" lon="11.969634120791756"><ele>81.75</ele><time>2026-04-06T14:59:55.001Z</time></trkpt><trkpt lat="45.74396784153272" lon="11.969439324157143"><ele>81.5</ele><time>2026-04-06T14:59:56.001Z</time></trkpt><trkpt lat="45.74395189502289" lon="11.96926456434327"><ele>81.25</ele><time>2026-04-06T14:59:57.001Z</time></trkpt><trkpt lat="45.74394059594954" lon="11.969093961377443"><ele>81.0</ele><time>2026-04-06T14:59:58.001Z</time></trkpt><trkpt lat="45.7439442261242" lon="11.968921893751972"><ele>81.0</ele><time>2026-04-06T14:59:59.001Z</time></trkpt><trkpt lat="45.743970650947965" lon="11.96876180558897"><ele>81.0</ele><time>2026-04-06T15:00:00.001Z</time></trkpt><trkpt lat="45.744010405804744" lon="11.968616040694583"><ele>81.0</ele><time>2026-04-06T15:00:01.001Z</time></trkpt><trkpt lat="45.74404838254959" lon="11.968471897877595"><ele>81.0</ele><time>2026-04-06T15:00:02.001Z</time></trkpt><trkpt lat="45.74406786924559" lon="11.968320638688441"><ele>81.0</ele><time>2026-04-06T15:00:03.001Z</time></trkpt><trkpt lat="45.74405558849183" lon="11.968169285079512"><ele>81.19999999999999</ele><time>2026-04-06T15:00:04.001Z</time></trkpt><trkpt lat="45.744013392537816" lon="11.96803345099231"><ele>81.39999999999999</ele><time>2026-04-06T15:00:05.001Z</time></trkpt><trkpt lat="45.743950890592664" lon="11.967928085850897"><ele>81.6</ele><time>2026-04-06T15:00:06.001Z</time></trkpt><trkpt lat="45.74386983523372" lon="11.967869429886722"><ele>81.8</ele><time>2026-04-06T15:00:07.001Z</time></trkpt><trkpt lat="45.74378117536545" lon="11.967843327694489"><ele>82.0</ele><time>2026-04-06T15:00:08.001Z</time></trkpt><trkpt lat="45.74368034765406" lon="11.96785455817697"><ele>82.0</ele><time>2026-04-06T15:00:09.001Z</time></trkpt><trkpt lat="45.74356846288361" lon="11.967868011599235"><ele>82.0</ele><time>2026-04-06T15:00:10.001Z</time></trkpt><trkpt lat="45.74344926951173" lon="11.967856063983497"><ele>82.0</ele><time>2026-04-06T15:00:11.001Z</time></trkpt><trkpt lat="45.743321532167165" lon="11.967824646431223"><ele>82.0</ele><time>2026-04-06T15:00:12.001Z</time></trkpt><trkpt lat="45.743185554887575" lon="11.96779342811921"><ele>82.0</ele><time>2026-04-06T15:00:13.001Z</time></trkpt><trkpt lat="45.74304360068739" lon="11.967786722544254"><ele>82.0</ele><time>2026-04-06T15:00:14.001Z</time></trkpt><trkpt lat="45.74290437404108" lon="11.967807780091011"><ele>82.0</ele><time>2026-04-06T15:00:15.001Z</time></trkpt><trkpt lat="45.742755240983406" lon="11.9678451402018"><ele>82.0</ele><time>2026-04-06T15:00:16.001Z</time></trkpt><trkpt lat="45.742600501763754" lon="11.967890260167431"><ele>82.0</ele><time>2026-04-06T15:00:17.001Z</time></trkpt><trkpt lat="45.74244925066558" lon="11.96793594233016"><ele>82.0</ele><time>2026-04-06T15:00:18.001Z</time></trkpt><trkpt lat="45.7423144083945" lon="11.967973274135597"><ele>82.0</ele><time>2026-04-06T15:00:19.001Z</time></trkpt><trkpt lat="45.742202108864326" lon="11.967998404739292"><ele>82.0</ele><time>2026-04-06T15:00:20.001Z</time></trkpt><trkpt lat="45.74210870471245" lon="11.968014999231258"><ele>82.0</ele><time>2026-04-06T15:00:21.001Z</time></trkpt><trkpt lat="45.742042049202674" lon="11.968027120795918"><ele>82.0</ele><time>2026-04-06T15:00:22.001Z</time></trkpt><trkpt lat="45.74197737237531" lon="11.968038613850668"><ele>82.0</ele><time>2026-04-06T15:00:24.001Z</time></trkpt><trkpt lat="45.74189066686487" lon="11.9680669491055"><ele>82.0</ele><time>2026-04-06T15:03:59Z</time></trkpt><trkpt lat="45.74177440416599" lon="11.968107920634374"><ele>82.0</ele><time>2026-04-06T15:04:01Z</time></trkpt><trkpt lat="45.74171106849556" lon="11.968125230340888"><ele>82.0</ele><time>2026-04-06T15:04:02Z</time></trkpt><trkpt lat="45.741621957237015" lon="11.968147089919428"><ele>81.5</ele><time>2026-04-06T15:04:03Z</time></trkpt><trkpt lat="45.74151267741584" lon="11.968172783810886"><ele>81.0</ele><time>2026-04-06T15:04:04Z</time></trkpt><trkpt lat="45.741387417732305" lon="11.968195536033358"><ele>80.5</ele><time>2026-04-06T15:04:05Z</time></trkpt><trkpt lat="45.74126634947746" lon="11.968202988587207"><ele>80.0</ele><time>2026-04-06T15:04:06Z</time></trkpt><trkpt lat="45.74113974296775" lon="11.96819052274557"><ele>79.66666666666667</ele><time>2026-04-06T15:04:07Z</time></trkpt><trkpt lat="45.741000531004545" lon="11.968157916048336"><ele>79.33333333333333</ele><time>2026-04-06T15:04:08Z</time></trkpt><trkpt lat="45.74085375510655" lon="11.968105264001068"><ele>79.0</ele><time>2026-04-06T15:04:09Z</time></trkpt><trkpt lat="45.74069902185189" lon="11.968024207138708"><ele>79.0</ele><time>2026-04-06T15:04:10Z</time></trkpt><trkpt lat="45.74054262849745" lon="11.967914811619462"><ele>79.0</ele><time>2026-04-06T15:04:11Z</time></trkpt><trkpt lat="45.74039243193359" lon="11.967778103266705"><ele>79.0</ele><time>2026-04-06T15:04:12Z</time></trkpt><trkpt lat="45.740250258299476" lon="11.967611724923756"><ele>79.66666666666666</ele><time>2026-04-06T15:04:13Z</time></trkpt><trkpt lat="45.740108459379506" lon="11.967434322642923"><ele>80.33333333333333</ele><time>2026-04-06T15:04:14Z</time></trkpt><trkpt lat="45.73996556518647" lon="11.967246208290138"><ele>81.0</ele><time>2026-04-06T15:04:15Z</time></trkpt><trkpt lat="45.739817381699325" lon="11.967060707726722"><ele>81.0</ele><time>2026-04-06T15:04:16Z</time></trkpt><trkpt lat="45.739666200241274" lon="11.96687467785583"><ele>81.0</ele><time>2026-04-06T15:04:17Z</time></trkpt><trkpt lat="45.73951363834064" lon="11.966685492410326"><ele>81.0</ele><time>2026-04-06T15:04:18Z</time></trkpt><trkpt lat="45.73935701023161" lon="11.96648942125564"><ele>80.0</ele><time>2026-04-06T15:04:19Z</time></trkpt><trkpt lat="45.73919591697653" lon="11.966284721946352"><ele>79.0</ele><time>2026-04-06T15:04:20Z</time></trkpt><trkpt lat="45.739029075442325" lon="11.966076282072363"><ele>78.0</ele><time>2026-04-06T15:04:21Z</time></trkpt><trkpt lat="45.738859186460466" lon="11.965862670208447"><ele>78.0</ele><time>2026-04-06T15:04:22Z</time></trkpt><trkpt lat="45.73869039372343" lon="11.96564965122876"><ele>78.0</ele><time>2026-04-06T15:04:23Z</time></trkpt><trkpt lat="45.738520989145" lon="11.96544054171397"><ele>78.0</ele><time>2026-04-06T15:04:24Z</time></trkpt><trkpt lat="45.73835399551968" lon="11.965235676519226"><ele>78.0</ele><time>2026-04-06T15:04:25Z</time></trkpt><trkpt lat="45.738189472604226" lon="11.965032798973425"><ele>78.0</ele><time>2026-04-06T15:04:26Z</time></trkpt><trkpt lat="45.73802767967004" lon="11.96483172948203"><ele>78.0</ele><time>2026-04-06T15:04:27Z</time></trkpt><trkpt lat="45.737869225277656" lon="11.96463141836671"><ele>78.0</ele><time>2026-04-06T15:04:28Z</time></trkpt><trkpt lat="45.73771507982972" lon="11.964439180453141"><ele>78.0</ele><time>2026-04-06T15:04:29Z</time></trkpt><trkpt lat="45.73756886986457" lon="11.96425863524473"><ele>78.0</ele><time>2026-04-06T15:04:30Z</time></trkpt><trkpt lat="45.73742787378109" lon="11.96408493563518"><ele>77.66666666666667</ele><time>2026-04-06T15:04:31Z</time></trkpt><trkpt lat="45.73729322933911" lon="11.963916398276373"><ele>77.33333333333334</ele><time>2026-04-06T15:04:32Z</time></trkpt><trkpt lat="45.73716110795759" lon="11.963751970502166"><ele>77.0</ele><time>2026-04-06T15:04:33Z</time></trkpt><trkpt lat="45.73702640911481" lon="11.963584538079331"><ele>77.0</ele><time>2026-04-06T15:04:34Z</time></trkpt><trkpt lat="45.73689219621849" lon="11.963412349717274"><ele>77.0</ele><time>2026-04-06T15:04:35Z</time></trkpt><trkpt lat="45.73675515805283" lon="11.963241246767907"><ele>77.0</ele><time>2026-04-06T15:04:36Z</time></trkpt><trkpt lat="45.73661654954261" lon="11.963072627390234"><ele>76.33333333333334</ele><time>2026-04-06T15:04:37Z</time></trkpt><trkpt lat="45.736477119616886" lon="11.962904397320925"><ele>75.66666666666667</ele><time>2026-04-06T15:04:38Z</time></trkpt><trkpt lat="45.73633698573918" lon="11.96273290764047"><ele>75.0</ele><time>2026-04-06T15:04:39.001Z</time></trkpt><trkpt lat="45.73619691160451" lon="11.962562051900694"><ele>75.0</ele><time>2026-04-06T15:04:40.001Z</time></trkpt><trkpt lat="45.73605965610474" lon="11.96239018885971"><ele>75.0</ele><time>2026-04-06T15:04:41.001Z</time></trkpt><trkpt lat="45.73592366176655" lon="11.962215265817335"><ele>75.0</ele><time>2026-04-06T15:04:42.001Z</time></trkpt><trkpt lat="45.73578888028386" lon="11.962042942020219"><ele>75.0</ele><time>2026-04-06T15:04:43.001Z</time></trkpt><trkpt lat="45.73565478211748" lon="11.961875642798638"><ele>75.0</ele><time>2026-04-06T15:04:44.001Z</time></trkpt><trkpt lat="45.73551971097055" lon="11.961708728564012"><ele>75.0</ele><time>2026-04-06T15:04:45.001Z</time></trkpt><trkpt lat="45.73538585068869" lon="11.9615425934214"><ele>75.0</ele><time>2026-04-06T15:04:46.001Z</time></trkpt><trkpt lat="45.73525643202945" lon="11.961384005398948"><ele>75.0</ele><time>2026-04-06T15:04:47.001Z</time></trkpt><trkpt lat="45.73513026427826" lon="11.96122456305331"><ele>75.0</ele><time>2026-04-06T15:04:48Z</time></trkpt><trkpt lat="45.735004755344356" lon="11.961067539172031"><ele>75.0</ele><time>2026-04-06T15:04:49Z</time></trkpt><trkpt lat="45.734881411968274" lon="11.96091368348288"><ele>75.0</ele><time>2026-04-06T15:04:50Z</time></trkpt><trkpt lat="45.734769033064026" lon="11.960771428824945"><ele>75.0</ele><time>2026-04-06T15:04:51Z</time></trkpt><trkpt lat="45.734664170413545" lon="11.960641897913248"><ele>74.8</ele><time>2026-04-06T15:04:52Z</time></trkpt><trkpt lat="45.73456727153222" lon="11.96052562756892"><ele>74.6</ele><time>2026-04-06T15:04:53Z</time></trkpt><trkpt lat="45.73448038375271" lon="11.960418889041275"><ele>74.4</ele><time>2026-04-06T15:04:54Z</time></trkpt><trkpt lat="45.73440078980846" lon="11.960319303959558"><ele>74.2</ele><time>2026-04-06T15:04:55Z</time></trkpt><trkpt lat="45.73433171265879" lon="11.960236307237206"><ele>74.0</ele><time>2026-04-06T15:04:56Z</time></trkpt><trkpt lat="45.73427114518655" lon="11.960162893065387"><ele>74.0</ele><time>2026-04-06T15:04:57Z</time></trkpt><trkpt lat="45.73422321583996" lon="11.960098993620925"><ele>74.0</ele><time>2026-04-06T15:04:58Z</time></trkpt><trkpt lat="45.734156827291656" lon="11.960017681494957"><ele>74.0</ele><time>2026-04-06T15:05:00Z</time></trkpt><trkpt lat="45.734096067592546" lon="11.95993439915874"><ele>74.0</ele><time>2026-04-06T15:05:02Z</time></trkpt><trkpt lat="45.73402812366529" lon="11.95984806538044"><ele>74.0</ele><time>2026-04-06T15:05:05Z</time></trkpt><trkpt lat="45.73395383854053" lon="11.9597617701381"><ele>74.0</ele><time>2026-04-06T15:05:08Z</time></trkpt><trkpt lat="45.73390239755366" lon="11.959665702529655"><ele>74.2</ele><time>2026-04-06T15:05:10Z</time></trkpt><trkpt lat="45.73382419670346" lon="11.959527179023107"><ele>74.4</ele><time>2026-04-06T15:05:12Z</time></trkpt><trkpt lat="45.73378746512967" lon="11.959430051346477"><ele>74.6</ele><time>2026-04-06T15:05:13Z</time></trkpt><trkpt lat="45.73374678584248" lon="11.959320961650148"><ele>74.8</ele><time>2026-04-06T15:05:14Z</time></trkpt><trkpt lat="45.73370576209631" lon="11.959233176707228"><ele>75.0</ele><time>2026-04-06T15:05:15Z</time></trkpt><trkpt lat="45.733588835329954" lon="11.959171655322331"><ele>74.6</ele><time>2026-04-06T15:05:17Z</time></trkpt><trkpt lat="45.733517839197326" lon="11.959188253289618"><ele>74.2</ele><time>2026-04-06T15:05:18Z</time></trkpt><trkpt lat="45.73344285752286" lon="11.959236364403841"><ele>73.8</ele><time>2026-04-06T15:05:19Z</time></trkpt><trkpt lat="45.73336843491778" lon="11.95931473629437"><ele>73.4</ele><time>2026-04-06T15:05:20Z</time></trkpt><trkpt lat="45.733307529701655" lon="11.959432495925286"><ele>73.0</ele><time>2026-04-06T15:05:21Z</time></trkpt><trkpt lat="45.73325747668755" lon="11.959585360495877"><ele>73.0</ele><time>2026-04-06T15:05:22Z</time></trkpt><trkpt lat="45.73319596130699" lon="11.959711314382192"><ele>73.0</ele><time>2026-04-06T15:05:23Z</time></trkpt><trkpt lat="45.73310293298842" lon="11.959829294694373"><ele>73.0</ele><time>2026-04-06T15:05:24Z</time></trkpt><trkpt lat="45.73298449879335" lon="11.959928324744068"><ele>73.0</ele><time>2026-04-06T15:05:25Z</time></trkpt><trkpt lat="45.73285003460004" lon="11.960024509703318"><ele>72.66666666666666</ele><time>2026-04-06T15:05:26Z</time></trkpt><trkpt lat="45.732718997678155" lon="11.96013580850595"><ele>72.33333333333333</ele><time>2026-04-06T15:05:27Z</time></trkpt><trkpt lat="45.73259843050445" lon="11.960263375620745"><ele>72.0</ele><time>2026-04-06T15:05:28Z</time></trkpt><trkpt lat="45.73248621366779" lon="11.960412198665173"><ele>72.0</ele><time>2026-04-06T15:05:29Z</time></trkpt><trkpt lat="45.73238637706409" lon="11.960595005403414"><ele>72.0</ele><time>2026-04-06T15:05:30Z</time></trkpt><trkpt lat="45.7323047589566" lon="11.96079754818612"><ele>72.0</ele><time>2026-04-06T15:05:31Z</time></trkpt><trkpt lat="45.73224145209239" lon="11.961032430129228"><ele>72.0</ele><time>2026-04-06T15:05:32Z</time></trkpt><trkpt lat="45.732190222410225" lon="11.961293643894313"><ele>72.0</ele><time>2026-04-06T15:05:33Z</time></trkpt><trkpt lat="45.73213768549555" lon="11.961569843012297"><ele>72.0</ele><time>2026-04-06T15:05:34Z</time></trkpt><trkpt lat="45.73208016962864" lon="11.961855627817545"><ele>72.33333333333333</ele><time>2026-04-06T15:05:35Z</time></trkpt><trkpt lat="45.73201913313729" lon="11.96214365099167"><ele>72.66666666666666</ele><time>2026-04-06T15:05:36Z</time></trkpt><trkpt lat="45.731959047171664" lon="11.962422440534409"><ele>73.0</ele><time>2026-04-06T15:05:37Z</time></trkpt><trkpt lat="45.731901646722655" lon="11.962700442775613"><ele>72.66666666666666</ele><time>2026-04-06T15:05:38Z</time></trkpt><trkpt lat="45.731849184323956" lon="11.962976550268408"><ele>72.33333333333333</ele><time>2026-04-06T15:05:39Z</time></trkpt><trkpt lat="45.73180330113032" lon="11.963246956625579"><ele>72.0</ele><time>2026-04-06T15:05:40Z</time></trkpt><trkpt lat="45.73176690294694" lon="11.963483808520225"><ele>71.75</ele><time>2026-04-06T15:05:41Z</time></trkpt><trkpt lat="45.73173440749276" lon="11.963707659519132"><ele>71.5</ele><time>2026-04-06T15:05:42Z</time></trkpt><trkpt lat="45.73170503945477" lon="11.963910148610482"><ele>71.25</ele><time>2026-04-06T15:05:43Z</time></trkpt><trkpt lat="45.73167889881917" lon="11.964095146310633"><ele>71.0</ele><time>2026-04-06T15:05:44Z</time></trkpt><trkpt lat="45.73165214575874" lon="11.964260887472241"><ele>70.8</ele><time>2026-04-06T15:05:45Z</time></trkpt><trkpt lat="45.73162053343783" lon="11.964410097189756"><ele>70.6</ele><time>2026-04-06T15:05:46Z</time></trkpt><trkpt lat="45.73158794957432" lon="11.96455455109269"><ele>70.4</ele><time>2026-04-06T15:05:47Z</time></trkpt><trkpt lat="45.73158274518685" lon="11.964698067829472"><ele>70.2</ele><time>2026-04-06T15:05:48Z</time></trkpt><trkpt lat="45.731565640373056" lon="11.96482258921225"><ele>70.0</ele><time>2026-04-06T15:05:49Z</time></trkpt><trkpt lat="45.73155038603869" lon="11.964933639527176"><ele>70.0</ele><time>2026-04-06T15:05:50Z</time></trkpt><trkpt lat="45.73153741295037" lon="11.965028082777964"><ele>70.0</ele><time>2026-04-06T15:05:51Z</time></trkpt><trkpt lat="45.731515115775444" lon="11.965190403902636"><ele>70.0</ele><time>2026-04-06T15:05:53Z</time></trkpt><trkpt lat="45.73149685552457" lon="11.965323337125126"><ele>70.0</ele><time>2026-04-06T15:05:55Z</time></trkpt><trkpt lat="45.731472926539965" lon="11.965501876208291"><ele>70.0</ele><time>2026-04-06T15:05:57Z</time></trkpt><trkpt lat="45.73145589407744" lon="11.965629477201766"><ele>70.0</ele><time>2026-04-06T15:05:58Z</time></trkpt><trkpt lat="45.73143770473651" lon="11.965769719596674"><ele>70.0</ele><time>2026-04-06T15:05:59Z</time></trkpt><trkpt lat="45.73141629506752" lon="11.965940941479767"><ele>70.0</ele><time>2026-04-06T15:06:00Z</time></trkpt><trkpt lat="45.7313943564624" lon="11.966124142559302"><ele>70.0</ele><time>2026-04-06T15:06:01Z</time></trkpt><trkpt lat="45.73137435502718" lon="11.96629627265529"><ele>70.0</ele><time>2026-04-06T15:06:02Z</time></trkpt><trkpt lat="45.731354950839034" lon="11.966464641004716"><ele>70.0</ele><time>2026-04-06T15:06:03Z</time></trkpt><trkpt lat="45.73133356070478" lon="11.966655431557973"><ele>70.0</ele><time>2026-04-06T15:06:04Z</time></trkpt><trkpt lat="45.73131178072438" lon="11.96684969950382"><ele>70.0</ele><time>2026-04-06T15:06:05Z</time></trkpt><trkpt lat="45.73128987973999" lon="11.967045047084193"><ele>70.25</ele><time>2026-04-06T15:06:06Z</time></trkpt><trkpt lat="45.73125622753357" lon="11.967242576921631"><ele>70.5</ele><time>2026-04-06T15:06:07Z</time></trkpt><trkpt lat="45.73125055964025" lon="11.967446763968114"><ele>70.75</ele><time>2026-04-06T15:06:08Z</time></trkpt><trkpt lat="45.731232355039545" lon="11.96764298420562"><ele>71.0</ele><time>2026-04-06T15:06:09Z</time></trkpt><trkpt lat="45.73119963355005" lon="11.967849203388846"><ele>71.0</ele><time>2026-04-06T15:06:10Z</time></trkpt><trkpt lat="45.73116119847047" lon="11.968070900339539"><ele>71.0</ele><time>2026-04-06T15:06:11Z</time></trkpt><trkpt lat="45.73111849828677" lon="11.968302704903534"><ele>71.0</ele><time>2026-04-06T15:06:12Z</time></trkpt><trkpt lat="45.73107114365546" lon="11.968546226847048"><ele>71.0</ele><time>2026-04-06T15:06:13Z</time></trkpt><trkpt lat="45.73101907853165" lon="11.968790586435126"><ele>71.0</ele><time>2026-04-06T15:06:14Z</time></trkpt><trkpt lat="45.73094681888983" lon="11.96901730898345"><ele>71.0</ele><time>2026-04-06T15:06:15Z</time></trkpt><trkpt lat="45.730910633450975" lon="11.969245299000496"><ele>71.5</ele><time>2026-04-06T15:06:16Z</time></trkpt><trkpt lat="45.73085750626528" lon="11.969450747669962"><ele>72.0</ele><time>2026-04-06T15:06:17Z</time></trkpt><trkpt lat="45.730803519299016" lon="11.969640524447877"><ele>72.5</ele><time>2026-04-06T15:06:18Z</time></trkpt><trkpt lat="45.73074264742531" lon="11.969817173860397"><ele>73.0</ele><time>2026-04-06T15:06:19Z</time></trkpt><trkpt lat="45.730656749027105" lon="11.969944980988604"><ele>73.0</ele><time>2026-04-06T15:06:20Z</time></trkpt><trkpt lat="45.730548931777506" lon="11.970024211749756"><ele>73.0</ele><time>2026-04-06T15:06:21Z</time></trkpt><trkpt lat="45.73042881940149" lon="11.970058996303557"><ele>73.0</ele><time>2026-04-06T15:06:22Z</time></trkpt><trkpt lat="45.730310169952396" lon="11.97004995589823"><ele>73.0</ele><time>2026-04-06T15:06:23Z</time></trkpt><trkpt lat="45.73019352609085" lon="11.970016675894822"><ele>72.75</ele><time>2026-04-06T15:06:24Z</time></trkpt><trkpt lat="45.730109889263794" lon="11.969876709252652"><ele>72.5</ele><time>2026-04-06T15:06:25Z</time></trkpt><trkpt lat="45.73003957117233" lon="11.96973679141844"><ele>72.25</ele><time>2026-04-06T15:06:26Z</time></trkpt><trkpt lat="45.729996913926776" lon="11.96957647943401"><ele>72.0</ele><time>2026-04-06T15:06:27Z</time></trkpt><trkpt lat="45.72998986757335" lon="11.969400522882172"><ele>72.0</ele><time>2026-04-06T15:06:28Z</time></trkpt><trkpt lat="45.73001675678027" lon="11.969207083328548"><ele>72.0</ele><time>2026-04-06T15:06:29Z</time></trkpt><trkpt lat="45.73002987595031" lon="11.968985371749305"><ele>72.0</ele><time>2026-04-06T15:06:30Z</time></trkpt><trkpt lat="45.73007464772253" lon="11.968763276077746"><ele>72.0</ele><time>2026-04-06T15:06:31Z</time></trkpt><trkpt lat="45.73012635648858" lon="11.968561987390748"><ele>72.0</ele><time>2026-04-06T15:06:32Z</time></trkpt><trkpt lat="45.73016984469949" lon="11.968369787671081"><ele>72.0</ele><time>2026-04-06T15:06:33Z</time></trkpt><trkpt lat="45.73023537286888" lon="11.968205982427419"><ele>72.0</ele><time>2026-04-06T15:06:34Z</time></trkpt><trkpt lat="45.73033919384434" lon="11.968105580273518"><ele>71.75</ele><time>2026-04-06T15:06:35Z</time></trkpt><trkpt lat="45.73045424455828" lon="11.968032357279405"><ele>71.5</ele><time>2026-04-06T15:06:36Z</time></trkpt><trkpt lat="45.73058597347652" lon="11.967965195322506"><ele>71.25</ele><time>2026-04-06T15:06:37Z</time></trkpt><trkpt lat="45.730731779023095" lon="11.967930852363025"><ele>71.0</ele><time>2026-04-06T15:06:38Z</time></trkpt><trkpt lat="45.73086163107489" lon="11.967861303622149"><ele>71.0</ele><time>2026-04-06T15:06:39Z</time></trkpt><trkpt lat="45.7309677534301" lon="11.967755998295717"><ele>71.0</ele><time>2026-04-06T15:06:40Z</time></trkpt><trkpt lat="45.73104273534713" lon="11.967611848150415"><ele>71.0</ele><time>2026-04-06T15:06:41Z</time></trkpt><trkpt lat="45.73108870750634" lon="11.967428024343073"><ele>71.0</ele><time>2026-04-06T15:06:42Z</time></trkpt><trkpt lat="45.73109331171235" lon="11.967205397839052"><ele>71.0</ele><time>2026-04-06T15:06:43Z</time></trkpt><trkpt lat="45.73110946303951" lon="11.966952775054962"><ele>71.0</ele><time>2026-04-06T15:06:44Z</time></trkpt><trkpt lat="45.73112734269867" lon="11.96666550257919"><ele>71.0</ele><time>2026-04-06T15:06:45Z</time></trkpt><trkpt lat="45.73115233152792" lon="11.966347782020625"><ele>70.5</ele><time>2026-04-06T15:06:46Z</time></trkpt><trkpt lat="45.731168735567564" lon="11.966030951948772"><ele>70.0</ele><time>2026-04-06T15:06:47Z</time></trkpt><trkpt lat="45.73121357533862" lon="11.96569401313997"><ele>70.0</ele><time>2026-04-06T15:06:48Z</time></trkpt><trkpt lat="45.73127751100314" lon="11.96534234065032"><ele>70.0</ele><time>2026-04-06T15:06:49Z</time></trkpt><trkpt lat="45.73135253980764" lon="11.96497901236803"><ele>70.0</ele><time>2026-04-06T15:06:50Z</time></trkpt><trkpt lat="45.731430555294786" lon="11.964603014408313"><ele>70.0</ele><time>2026-04-06T15:06:51Z</time></trkpt><trkpt lat="45.73150551946847" lon="11.964214949047017"><ele>70.5</ele><time>2026-04-06T15:06:52Z</time></trkpt><trkpt lat="45.731580615718634" lon="11.963831284139207"><ele>71.0</ele><time>2026-04-06T15:06:53Z</time></trkpt><trkpt lat="45.731655288290845" lon="11.963449982906475"><ele>71.5</ele><time>2026-04-06T15:06:54Z</time></trkpt><trkpt lat="45.731724226706234" lon="11.963064603149002"><ele>72.0</ele><time>2026-04-06T15:06:55Z</time></trkpt><trkpt lat="45.73179471594855" lon="11.96267455969289"><ele>71.5</ele><time>2026-04-06T15:06:56Z</time></trkpt><trkpt lat="45.73186925127746" lon="11.962270743843002"><ele>71.0</ele><time>2026-04-06T15:06:57Z</time></trkpt><trkpt lat="45.73195388992527" lon="11.961878940949436"><ele>71.5</ele><time>2026-04-06T15:06:58Z</time></trkpt><trkpt lat="45.73203292782575" lon="11.961475204282769"><ele>72.0</ele><time>2026-04-06T15:06:59Z</time></trkpt><trkpt lat="45.73210869012512" lon="11.96106989593877"><ele>72.0</ele><time>2026-04-06T15:07:00Z</time></trkpt><trkpt lat="45.732179380340675" lon="11.960659676772288"><ele>72.0</ele><time>2026-04-06T15:07:01Z</time></trkpt><trkpt lat="45.73225965267801" lon="11.960244037010352"><ele>72.5</ele><time>2026-04-06T15:07:02Z</time></trkpt><trkpt lat="45.73235465817583" lon="11.959825999967524"><ele>73.0</ele><time>2026-04-06T15:07:03Z</time></trkpt><trkpt lat="45.732461881623486" lon="11.959405424710075"><ele>72.5</ele><time>2026-04-06T15:07:04Z</time></trkpt><trkpt lat="45.732579284977554" lon="11.958985286333242"><ele>72.0</ele><time>2026-04-06T15:07:05Z</time></trkpt><trkpt lat="45.73270636693688" lon="11.958566545154715"><ele>71.5</ele><time>2026-04-06T15:07:06Z</time></trkpt><trkpt lat="45.73283758015806" lon="11.9581543160907"><ele>71.0</ele><time>2026-04-06T15:07:07Z</time></trkpt><trkpt lat="45.73297841248028" lon="11.957743706334512"><ele>71.5</ele><time>2026-04-06T15:07:08Z</time></trkpt><trkpt lat="45.73313490141425" lon="11.95733182076528"><ele>72.0</ele><time>2026-04-06T15:07:09.021Z</time></trkpt><trkpt lat="45.73329997648241" lon="11.956930222852627"><ele>72.5</ele><time>2026-04-06T15:07:10.022Z</time></trkpt><trkpt lat="45.733472616910504" lon="11.956528324530268"><ele>73.0</ele><time>2026-04-06T15:07:11.022Z</time></trkpt><trkpt lat="45.7336522576157" lon="11.95613949986541"><ele>73.0</ele><time>2026-04-06T15:07:12Z</time></trkpt><trkpt lat="45.73392212838699" lon="11.955694148436544"><ele>73.0</ele><time>2026-04-06T15:07:13Z</time></trkpt><trkpt lat="45.73409385844507" lon="11.95532675370187"><ele>73.0</ele><time>2026-04-06T15:07:14Z</time></trkpt><trkpt lat="45.73430987076594" lon="11.954947432288895"><ele>73.0</ele><time>2026-04-06T15:07:15Z</time></trkpt><trkpt lat="45.734538034988574" lon="11.954571929098119"><ele>73.0</ele><time>2026-04-06T15:07:16Z</time></trkpt><trkpt lat="45.734746760211834" lon="11.954205075755443"><ele>73.0</ele><time>2026-04-06T15:07:17Z</time></trkpt><trkpt lat="45.7349776436658" lon="11.953843639627705"><ele>73.0</ele><time>2026-04-06T15:07:18Z</time></trkpt><trkpt lat="45.73520606539234" lon="11.953485381421034"><ele>73.0</ele><time>2026-04-06T15:07:19Z</time></trkpt><trkpt lat="45.73543215708881" lon="11.953123800957732"><ele>72.5</ele><time>2026-04-06T15:07:20Z</time></trkpt><trkpt lat="45.735659523826634" lon="11.952762176433453"><ele>72.0</ele><time>2026-04-06T15:07:21Z</time></trkpt><trkpt lat="45.7358895122264" lon="11.952398953849471"><ele>73.0</ele><time>2026-04-06T15:07:22Z</time></trkpt><trkpt lat="45.73612042083694" lon="11.952037486988358"><ele>74.0</ele><time>2026-04-06T15:07:23Z</time></trkpt><trkpt lat="45.736348591700846" lon="11.95167350157305"><ele>74.5</ele><time>2026-04-06T15:07:24Z</time></trkpt><trkpt lat="45.73657727813239" lon="11.95130866337395"><ele>75.0</ele><time>2026-04-06T15:07:25Z</time></trkpt><trkpt lat="45.736810867908936" lon="11.95093339543228"><ele>74.5</ele><time>2026-04-06T15:07:26.018Z</time></trkpt><trkpt lat="45.737040113969215" lon="11.950567354275805"><ele>74.0</ele><time>2026-04-06T15:07:27.018Z</time></trkpt><trkpt lat="45.73726590063139" lon="11.950209784711843"><ele>73.5</ele><time>2026-04-06T15:07:28Z</time></trkpt><trkpt lat="45.73750604172869" lon="11.949860408886487"><ele>73.0</ele><time>2026-04-06T15:07:29Z</time></trkpt><trkpt lat="45.73774319437176" lon="11.949502237938749"><ele>74.5</ele><time>2026-04-06T15:07:30Z</time></trkpt><trkpt lat="45.73796997752557" lon="11.949134343465262"><ele>76.0</ele><time>2026-04-06T15:07:31Z</time></trkpt><trkpt lat="45.738184926954375" lon="11.948757170701803"><ele>75.5</ele><time>2026-04-06T15:07:32Z</time></trkpt><trkpt lat="45.738393892550405" lon="11.948370972174747"><ele>75.0</ele><time>2026-04-06T15:07:33Z</time></trkpt><trkpt lat="45.738590342120304" lon="11.947985858885964"><ele>74.5</ele><time>2026-04-06T15:07:34Z</time></trkpt><trkpt lat="45.738772810383495" lon="11.94760468780722"><ele>74.0</ele><time>2026-04-06T15:07:35Z</time></trkpt><trkpt lat="45.73894305278637" lon="11.947223609149834"><ele>74.0</ele><time>2026-04-06T15:07:36Z</time></trkpt><trkpt lat="45.73910361964596" lon="11.94684257687439"><ele>74.0</ele><time>2026-04-06T15:07:37Z</time></trkpt><trkpt lat="45.73925462143541" lon="11.94645813263555"><ele>74.5</ele><time>2026-04-06T15:07:38Z</time></trkpt><trkpt lat="45.73939295749814" lon="11.946075424352474"><ele>75.0</ele><time>2026-04-06T15:07:39Z</time></trkpt><trkpt lat="45.73952359711241" lon="11.945699399688639"><ele>75.0</ele><time>2026-04-06T15:07:40Z</time></trkpt><trkpt lat="45.73964529579649" lon="11.94532257389967"><ele>75.0</ele><time>2026-04-06T15:07:41Z</time></trkpt><trkpt lat="45.7397618773825" lon="11.944940862544597"><ele>75.0</ele><time>2026-04-06T15:07:42Z</time></trkpt><trkpt lat="45.7398730123854" lon="11.944550004359835"><ele>75.0</ele><time>2026-04-06T15:07:43Z</time></trkpt><trkpt lat="45.739998317181964" lon="11.944159783694019"><ele>75.0</ele><time>2026-04-06T15:07:44Z</time></trkpt><trkpt lat="45.740092163651155" lon="11.943751060039709"><ele>75.0</ele><time>2026-04-06T15:07:45Z</time></trkpt><trkpt lat="45.740199492176856" lon="11.943357779225053"><ele>75.5</ele><time>2026-04-06T15:07:46Z</time></trkpt><trkpt lat="45.74030402988184" lon="11.942968438445568"><ele>76.0</ele><time>2026-04-06T15:07:47Z</time></trkpt><trkpt lat="45.74041231942403" lon="11.942585922480408"><ele>76.0</ele><time>2026-04-06T15:07:48Z</time></trkpt><trkpt lat="45.74052159520091" lon="11.942206881852456"><ele>76.0</ele><time>2026-04-06T15:07:49Z</time></trkpt><trkpt lat="45.74063048057044" lon="11.94182354060788"><ele>75.5</ele><time>2026-04-06T15:07:50Z</time></trkpt><trkpt lat="45.7407368082071" lon="11.941436043022913"><ele>75.0</ele><time>2026-04-06T15:07:51Z</time></trkpt><trkpt lat="45.7408437093085" lon="11.941052277243484"><ele>75.5</ele><time>2026-04-06T15:07:52Z</time></trkpt><trkpt lat="45.740953552412144" lon="11.940668081145112"><ele>76.0</ele><time>2026-04-06T15:07:53Z</time></trkpt><trkpt lat="45.74106205544261" lon="11.940280616241704"><ele>76.0</ele><time>2026-04-06T15:07:54Z</time></trkpt><trkpt lat="45.74117106010229" lon="11.939896386851967"><ele>76.0</ele><time>2026-04-06T15:07:55Z</time></trkpt><trkpt lat="45.741278881129354" lon="11.939499203910966"><ele>75.5</ele><time>2026-04-06T15:07:56Z</time></trkpt><trkpt lat="45.74139201051569" lon="11.939093403948291"><ele>75.0</ele><time>2026-04-06T15:07:57Z</time></trkpt><trkpt lat="45.74150410321161" lon="11.938678317140361"><ele>74.0</ele><time>2026-04-06T15:07:58Z</time></trkpt><trkpt lat="45.74162108586921" lon="11.938261399835072"><ele>73.0</ele><time>2026-04-06T15:07:59Z</time></trkpt><trkpt lat="45.741740963422735" lon="11.937832640036643"><ele>73.0</ele><time>2026-04-06T15:08:00Z</time></trkpt><trkpt lat="45.74186172459191" lon="11.937398743989661"><ele>73.0</ele><time>2026-04-06T15:08:01Z</time></trkpt><trkpt lat="45.74198364778963" lon="11.936964996503962"><ele>73.5</ele><time>2026-04-06T15:08:02Z</time></trkpt><trkpt lat="45.742107396490006" lon="11.93651997726035"><ele>74.0</ele><time>2026-04-06T15:08:03Z</time></trkpt><trkpt lat="45.742235867266935" lon="11.936073184581032"><ele>74.5</ele><time>2026-04-06T15:08:04Z</time></trkpt><trkpt lat="45.74236364168608" lon="11.935621230640923"><ele>75.0</ele><time>2026-04-06T15:08:05Z</time></trkpt><trkpt lat="45.74249104509065" lon="11.935168220633665"><ele>75.0</ele><time>2026-04-06T15:08:06Z</time></trkpt><trkpt lat="45.7426191108668" lon="11.93471457858705"><ele>75.0</ele><time>2026-04-06T15:08:07Z</time></trkpt><trkpt lat="45.7427438548761" lon="11.934263632465232"><ele>75.0</ele><time>2026-04-06T15:08:08Z</time></trkpt><trkpt lat="45.74286907200388" lon="11.933808963724587"><ele>75.0</ele><time>2026-04-06T15:08:09Z</time></trkpt><trkpt lat="45.74299275466869" lon="11.933354108165585"><ele>75.0</ele><time>2026-04-06T15:08:10Z</time></trkpt><trkpt lat="45.743112075551544" lon="11.932895535450355"><ele>75.0</ele><time>2026-04-06T15:08:11Z</time></trkpt><trkpt lat="45.74323111885441" lon="11.932443051471228"><ele>75.0</ele><time>2026-04-06T15:08:12Z</time></trkpt><trkpt lat="45.74334476925338" lon="11.931981868348814"><ele>75.0</ele><time>2026-04-06T15:08:13Z</time></trkpt><trkpt lat="45.743444683791665" lon="11.931510871464289"><ele>75.0</ele><time>2026-04-06T15:08:14Z</time></trkpt><trkpt lat="45.74354160374414" lon="11.931043288692484"><ele>75.0</ele><time>2026-04-06T15:08:15Z</time></trkpt><trkpt lat="45.74362636143573" lon="11.930569880002134"><ele>74.5</ele><time>2026-04-06T15:08:16Z</time></trkpt><trkpt lat="45.74370268350225" lon="11.930095600105101"><ele>74.0</ele><time>2026-04-06T15:08:17Z</time></trkpt><trkpt lat="45.743770355383994" lon="11.929618872233066"><ele>74.5</ele><time>2026-04-06T15:08:18Z</time></trkpt><trkpt lat="45.74383506952723" lon="11.92914169729899"><ele>75.0</ele><time>2026-04-06T15:08:19Z</time></trkpt><trkpt lat="45.74390078363217" lon="11.928663793286576"><ele>75.5</ele><time>2026-04-06T15:08:20Z</time></trkpt><trkpt lat="45.74396180369555" lon="11.928184597142941"><ele>76.0</ele><time>2026-04-06T15:08:21Z</time></trkpt><trkpt lat="45.74402700033068" lon="11.927706526552567"><ele>75.0</ele><time>2026-04-06T15:08:22Z</time></trkpt><trkpt lat="45.74409579421558" lon="11.92722787782773"><ele>74.0</ele><time>2026-04-06T15:08:23Z</time></trkpt><trkpt lat="45.744165667817704" lon="11.926750963539746"><ele>73.5</ele><time>2026-04-06T15:08:24Z</time></trkpt><trkpt lat="45.74423094118475" lon="11.926274446447975"><ele>73.0</ele><time>2026-04-06T15:08:25Z</time></trkpt><trkpt lat="45.74429163292773" lon="11.925795474722275"><ele>73.0</ele><time>2026-04-06T15:08:26Z</time></trkpt><trkpt lat="45.74435804530456" lon="11.92531910073715"><ele>73.0</ele><time>2026-04-06T15:08:27Z</time></trkpt><trkpt lat="45.7444242430042" lon="11.92484017008081"><ele>73.5</ele><time>2026-04-06T15:08:28Z</time></trkpt><trkpt lat="45.7444909437345" lon="11.924360819419826"><ele>74.0</ele><time>2026-04-06T15:08:29Z</time></trkpt><trkpt lat="45.74455542331012" lon="11.923881594392883"><ele>74.0</ele><time>2026-04-06T15:08:30Z</time></trkpt><trkpt lat="45.74462012909744" lon="11.92340146648824"><ele>74.0</ele><time>2026-04-06T15:08:31Z</time></trkpt><trkpt lat="45.74468875628833" lon="11.92292160780463"><ele>73.5</ele><time>2026-04-06T15:08:32Z</time></trkpt><trkpt lat="45.74475872822385" lon="11.922442529944439"><ele>73.0</ele><time>2026-04-06T15:08:33Z</time></trkpt><trkpt lat="45.744832905486824" lon="11.921964955208558"><ele>73.0</ele><time>2026-04-06T15:08:34Z</time></trkpt><trkpt lat="45.74491386623637" lon="11.921494141055646"><ele>73.0</ele><time>2026-04-06T15:08:35Z</time></trkpt><trkpt lat="45.745009475317666" lon="11.9210230596365"><ele>72.5</ele><time>2026-04-06T15:08:36Z</time></trkpt><trkpt lat="45.745117224752384" lon="11.920557130291137"><ele>72.0</ele><time>2026-04-06T15:08:37Z</time></trkpt><trkpt lat="45.74523702532886" lon="11.920100246957364"><ele>73.0</ele><time>2026-04-06T15:08:38Z</time></trkpt><trkpt lat="45.74536577340294" lon="11.919648605101711"><ele>74.0</ele><time>2026-04-06T15:08:39Z</time></trkpt><trkpt lat="45.74550437611671" lon="11.919202118504796"><ele>74.0</ele><time>2026-04-06T15:08:40Z</time></trkpt><trkpt lat="45.74565561847229" lon="11.918761246349312"><ele>74.0</ele><time>2026-04-06T15:08:41Z</time></trkpt><trkpt lat="45.74581711789893" lon="11.918333027626481"><ele>73.0</ele><time>2026-04-06T15:08:42Z</time></trkpt><trkpt lat="45.745985604217736" lon="11.917910261496244"><ele>72.0</ele><time>2026-04-06T15:08:43Z</time></trkpt><trkpt lat="45.7461575748942" lon="11.917490722406535"><ele>72.0</ele><time>2026-04-06T15:08:44Z</time></trkpt><trkpt lat="45.74633141240606" lon="11.917072229869182"><ele>72.0</ele><time>2026-04-06T15:08:45Z</time></trkpt><trkpt lat="45.74650737149398" lon="11.916655846471105"><ele>71.0</ele><time>2026-04-06T15:08:46Z</time></trkpt><trkpt lat="45.746680516513734" lon="11.916234371524254"><ele>70.0</ele><time>2026-04-06T15:08:47Z</time></trkpt><trkpt lat="45.746853241667104" lon="11.915813709707058"><ele>70.5</ele><time>2026-04-06T15:08:48Z</time></trkpt><trkpt lat="45.74702446068745" lon="11.915392221354452"><ele>71.0</ele><time>2026-04-06T15:08:49Z</time></trkpt><trkpt lat="45.74719883967405" lon="11.914971761087882"><ele>71.5</ele><time>2026-04-06T15:08:50Z</time></trkpt><trkpt lat="45.747373499493044" lon="11.914550480880283"><ele>72.0</ele><time>2026-04-06T15:08:51Z</time></trkpt><trkpt lat="45.74754786090569" lon="11.914129844962455"><ele>72.0</ele><time>2026-04-06T15:08:52Z</time></trkpt><trkpt lat="45.747720518531736" lon="11.913713146009282"><ele>72.0</ele><time>2026-04-06T15:08:53Z</time></trkpt><trkpt lat="45.747894500504835" lon="11.91329281018151"><ele>72.0</ele><time>2026-04-06T15:08:54Z</time></trkpt><trkpt lat="45.74807145020699" lon="11.912864019799942"><ele>72.0</ele><time>2026-04-06T15:08:55.021Z</time></trkpt><trkpt lat="45.748244082865966" lon="11.912445549431117"><ele>71.5</ele><time>2026-04-06T15:08:56.018Z</time></trkpt><trkpt lat="45.748414772964914" lon="11.91202790362245"><ele>71.0</ele><time>2026-04-06T15:08:57.013Z</time></trkpt><trkpt lat="45.74858531709939" lon="11.911603886324354"><ele>73.0</ele><time>2026-04-06T15:08:58.019Z</time></trkpt><trkpt lat="45.749590457459675" lon="11.908458424743179"><ele>72.5</ele><time>2026-04-06T15:09:05Z</time></trkpt><trkpt lat="45.74970461679339" lon="11.908011351966158"><ele>72.0</ele><time>2026-04-06T15:09:06Z</time></trkpt><trkpt lat="45.74973289550336" lon="11.907523231512178"><ele>72.0</ele><time>2026-04-06T15:09:07Z</time></trkpt><trkpt lat="45.749857075425666" lon="11.907070675686382"><ele>72.0</ele><time>2026-04-06T15:09:08Z</time></trkpt><trkpt lat="45.749982216063664" lon="11.906619264487743"><ele>71.5</ele><time>2026-04-06T15:09:09Z</time></trkpt><trkpt lat="45.750105565988605" lon="11.90616640609474"><ele>71.0</ele><time>2026-04-06T15:09:10Z</time></trkpt><trkpt lat="45.750227632745094" lon="11.90571423971198"><ele>71.0</ele><time>2026-04-06T15:09:11Z</time></trkpt><trkpt lat="45.75034778638778" lon="11.905261793785616"><ele>71.0</ele><time>2026-04-06T15:09:12Z</time></trkpt><trkpt lat="45.75046609397113" lon="11.904805895431275"><ele>71.5</ele><time>2026-04-06T15:09:13Z</time></trkpt><trkpt lat="45.75058468780362" lon="11.904353310469043"><ele>72.0</ele><time>2026-04-06T15:09:14Z</time></trkpt><trkpt lat="45.75070204478728" lon="11.903897872296627"><ele>72.0</ele><time>2026-04-06T15:09:15Z</time></trkpt><trkpt lat="45.75081757948344" lon="11.903441966898663"><ele>72.0</ele><time>2026-04-06T15:09:16Z</time></trkpt><trkpt lat="45.75093170943758" lon="11.902985717226736"><ele>71.5</ele><time>2026-04-06T15:09:17Z</time></trkpt><trkpt lat="45.751045609154545" lon="11.902528697135548"><ele>71.0</ele><time>2026-04-06T15:09:18Z</time></trkpt><trkpt lat="45.751161910613135" lon="11.902071711573077"><ele>71.5</ele><time>2026-04-06T15:09:19Z</time></trkpt><trkpt lat="45.75127832925768" lon="11.901613567801137"><ele>72.0</ele><time>2026-04-06T15:09:20Z</time></trkpt><trkpt lat="45.75139665300742" lon="11.90115516846734"><ele>71.5</ele><time>2026-04-06T15:09:21Z</time></trkpt><trkpt lat="45.751514515262485" lon="11.90069731032943"><ele>71.0</ele><time>2026-04-06T15:09:22Z</time></trkpt><trkpt lat="45.7516328764631" lon="11.90024031421615"><ele>71.0</ele><time>2026-04-06T15:09:23Z</time></trkpt><trkpt lat="45.75174936471425" lon="11.899781102346502"><ele>71.0</ele><time>2026-04-06T15:09:24Z</time></trkpt><trkpt lat="45.75186649797203" lon="11.899320812516134"><ele>71.0</ele><time>2026-04-06T15:09:25Z</time></trkpt><trkpt lat="45.751985375527966" lon="11.898861050324603"><ele>71.0</ele><time>2026-04-06T15:09:26Z</time></trkpt><trkpt lat="45.7521051558866" lon="11.898404398776089"><ele>71.0</ele><time>2026-04-06T15:09:27Z</time></trkpt><trkpt lat="45.75222394843783" lon="11.897945540670566"><ele>71.0</ele><time>2026-04-06T15:09:28Z</time></trkpt><trkpt lat="45.75234146098631" lon="11.897483712382115"><ele>71.0</ele><time>2026-04-06T15:09:29Z</time></trkpt><trkpt lat="45.75245710437576" lon="11.897021442420701"><ele>71.0</ele><time>2026-04-06T15:09:30Z</time></trkpt><trkpt lat="45.752572098787255" lon="11.896560703380688"><ele>71.0</ele><time>2026-04-06T15:09:31Z</time></trkpt><trkpt lat="45.752688307413585" lon="11.896100760611208"><ele>71.0</ele><time>2026-04-06T15:09:32Z</time></trkpt><trkpt lat="45.75280512643075" lon="11.895641389867864"><ele>71.5</ele><time>2026-04-06T15:09:33Z</time></trkpt><trkpt lat="45.75292201609212" lon="11.89518250723045"><ele>72.0</ele><time>2026-04-06T15:09:34Z</time></trkpt><trkpt lat="45.75303805542937" lon="11.894723363298267"><ele>72.0</ele><time>2026-04-06T15:09:35Z</time></trkpt><trkpt lat="45.753154223101106" lon="11.894264254066487"><ele>72.0</ele><time>2026-04-06T15:09:36Z</time></trkpt><trkpt lat="45.75327043765165" lon="11.893806958667199"><ele>72.5</ele><time>2026-04-06T15:09:37Z</time></trkpt><trkpt lat="45.75338340198901" lon="11.893347384318567"><ele>73.0</ele><time>2026-04-06T15:09:38Z</time></trkpt><trkpt lat="45.75349406426477" lon="11.892885426377996"><ele>73.5</ele><time>2026-04-06T15:09:39Z</time></trkpt><trkpt lat="45.7536021860935" lon="11.892422687407636"><ele>74.0</ele><time>2026-04-06T15:09:40Z</time></trkpt><trkpt lat="45.75370872669641" lon="11.891961595351164"><ele>74.0</ele><time>2026-04-06T15:09:41Z</time></trkpt><trkpt lat="45.7538114218727" lon="11.891498189263597"><ele>74.0</ele><time>2026-04-06T15:09:42Z</time></trkpt><trkpt lat="45.753912478288726" lon="11.891033022760482"><ele>73.5</ele><time>2026-04-06T15:09:43Z</time></trkpt><trkpt lat="45.75401197601005" lon="11.890567234702289"><ele>73.0</ele><time>2026-04-06T15:09:44Z</time></trkpt><trkpt lat="45.75410693597772" lon="11.890096730505165"><ele>73.0</ele><time>2026-04-06T15:09:45Z</time></trkpt><trkpt lat="45.75419539077187" lon="11.889624121911739"><ele>73.0</ele><time>2026-04-06T15:09:46Z</time></trkpt><trkpt lat="45.754279171644534" lon="11.88915038055064"><ele>73.0</ele><time>2026-04-06T15:09:47Z</time></trkpt><trkpt lat="45.754357115654436" lon="11.888675492039033"><ele>73.0</ele><time>2026-04-06T15:09:48Z</time></trkpt><trkpt lat="45.75443039289967" lon="11.88819963101254"><ele>73.0</ele><time>2026-04-06T15:09:49Z</time></trkpt><trkpt lat="45.7544979658365" lon="11.887721412491189"><ele>73.0</ele><time>2026-04-06T15:09:50Z</time></trkpt><trkpt lat="45.75455776832247" lon="11.887242103704047"><ele>74.0</ele><time>2026-04-06T15:09:51Z</time></trkpt><trkpt lat="45.75461365242929" lon="11.88676352915869"><ele>75.0</ele><time>2026-04-06T15:09:52Z</time></trkpt><trkpt lat="45.754666290145245" lon="11.886281330785403"><ele>74.5</ele><time>2026-04-06T15:09:53Z</time></trkpt><trkpt lat="45.754714314744575" lon="11.88579835595447"><ele>74.0</ele><time>2026-04-06T15:09:54Z</time></trkpt><trkpt lat="45.75475708218409" lon="11.885313933642585"><ele>72.5</ele><time>2026-04-06T15:09:55Z</time></trkpt><trkpt lat="45.754795562273536" lon="11.884829104038158"><ele>71.0</ele><time>2026-04-06T15:09:56Z</time></trkpt><trkpt lat="45.75482857987562" lon="11.884342686081977"><ele>71.0</ele><time>2026-04-06T15:09:57Z</time></trkpt><trkpt lat="45.754857643931985" lon="11.883854497043174"><ele>71.0</ele><time>2026-04-06T15:09:58Z</time></trkpt><trkpt lat="45.75488065451458" lon="11.883365263145974"><ele>71.0</ele><time>2026-04-06T15:09:59Z</time></trkpt><trkpt lat="45.75489719273212" lon="11.882877594092774"><ele>71.0</ele><time>2026-04-06T15:10:00Z</time></trkpt><trkpt lat="45.75490779949236" lon="11.882388359085336"><ele>72.0</ele><time>2026-04-06T15:10:01Z</time></trkpt><trkpt lat="45.75491147740003" lon="11.881901586308224"><ele>73.0</ele><time>2026-04-06T15:10:02Z</time></trkpt><trkpt lat="45.75490859435242" lon="11.881414143717896"><ele>73.5</ele><time>2026-04-06T15:10:03Z</time></trkpt><trkpt lat="45.75490287661364" lon="11.880927806594832"><ele>74.0</ele><time>2026-04-06T15:10:04Z</time></trkpt><trkpt lat="45.7548910432676" lon="11.880440824045639"><ele>74.0</ele><time>2026-04-06T15:10:05Z</time></trkpt><trkpt lat="45.75487770868221" lon="11.879956775161844"><ele>74.0</ele><time>2026-04-06T15:10:06Z</time></trkpt><trkpt lat="45.75485685811902" lon="11.879469421677904"><ele>74.0</ele><time>2026-04-06T15:10:07Z</time></trkpt><trkpt lat="45.75483168108685" lon="11.878980907339812"><ele>74.0</ele><time>2026-04-06T15:10:08Z</time></trkpt><trkpt lat="45.754799140758536" lon="11.878492458781418"><ele>74.0</ele><time>2026-04-06T15:10:09Z</time></trkpt><trkpt lat="45.75476290427042" lon="11.878003280344338"><ele>74.0</ele><time>2026-04-06T15:10:10Z</time></trkpt><trkpt lat="45.75473990387845" lon="11.877514135011094"><ele>74.0</ele><time>2026-04-06T15:10:11Z</time></trkpt><trkpt lat="45.75467742676606" lon="11.877031564006634"><ele>74.0</ele><time>2026-04-06T15:10:12Z</time></trkpt><trkpt lat="45.75462580125003" lon="11.876547232042384"><ele>74.0</ele><time>2026-04-06T15:10:13Z</time></trkpt><trkpt lat="45.75457057259643" lon="11.876063309447838"><ele>74.0</ele><time>2026-04-06T15:10:14Z</time></trkpt><trkpt lat="45.75450843200006" lon="11.875582601632189"><ele>74.5</ele><time>2026-04-06T15:10:15Z</time></trkpt><trkpt lat="45.75443953844317" lon="11.875104706049601"><ele>75.0</ele><time>2026-04-06T15:10:16Z</time></trkpt><trkpt lat="45.754366591116984" lon="11.87462742227994"><ele>73.0</ele><time>2026-04-06T15:10:17Z</time></trkpt><trkpt lat="45.754289531839795" lon="11.874149563963186"><ele>71.0</ele><time>2026-04-06T15:10:18Z</time></trkpt><trkpt lat="45.754207373875914" lon="11.873675319044844"><ele>72.0</ele><time>2026-04-06T15:10:19Z</time></trkpt><trkpt lat="45.75411929333828" lon="11.873200810971625"><ele>73.0</ele><time>2026-04-06T15:10:20Z</time></trkpt><trkpt lat="45.75402671758535" lon="11.87272900961444"><ele>73.0</ele><time>2026-04-06T15:10:21Z</time></trkpt><trkpt lat="45.75392816678665" lon="11.87225863554334"><ele>73.0</ele><time>2026-04-06T15:10:22Z</time></trkpt><trkpt lat="45.753825426677686" lon="11.871791869946474"><ele>73.0</ele><time>2026-04-06T15:10:23Z</time></trkpt><trkpt lat="45.753716973887286" lon="11.871327781685363"><ele>73.0</ele><time>2026-04-06T15:10:24Z</time></trkpt><trkpt lat="45.753603959843225" lon="11.870865226906954"><ele>73.0</ele><time>2026-04-06T15:10:25Z</time></trkpt><trkpt lat="45.75348711714578" lon="11.870405405239186"><ele>73.0</ele><time>2026-04-06T15:10:26Z</time></trkpt><trkpt lat="45.75336636658857" lon="11.869948277869758"><ele>73.0</ele><time>2026-04-06T15:10:27Z</time></trkpt><trkpt lat="45.75324245740904" lon="11.869493340458412"><ele>73.0</ele><time>2026-04-06T15:10:28Z</time></trkpt><trkpt lat="45.75311342963968" lon="11.86903879174507"><ele>73.5</ele><time>2026-04-06T15:10:29Z</time></trkpt><trkpt lat="45.7529777311745" lon="11.868590487547477"><ele>74.0</ele><time>2026-04-06T15:10:30Z</time></trkpt><trkpt lat="45.75283774817873" lon="11.868147211432705"><ele>73.5</ele><time>2026-04-06T15:10:31Z</time></trkpt><trkpt lat="45.752691257606536" lon="11.867706928475561"><ele>73.0</ele><time>2026-04-06T15:10:32Z</time></trkpt><trkpt lat="45.7525409577186" lon="11.86726995732199"><ele>73.0</ele><time>2026-04-06T15:10:33Z</time></trkpt><trkpt lat="45.75238578063932" lon="11.866836885047238"><ele>73.0</ele><time>2026-04-06T15:10:34Z</time></trkpt><trkpt lat="45.75222751303421" lon="11.866406616908282"><ele>73.0</ele><time>2026-04-06T15:10:35Z</time></trkpt><trkpt lat="45.75206457730809" lon="11.86598043520878"><ele>73.0</ele><time>2026-04-06T15:10:36Z</time></trkpt><trkpt lat="45.751897982780555" lon="11.865556560810553"><ele>73.5</ele><time>2026-04-06T15:10:37Z</time></trkpt><trkpt lat="45.75172673415722" lon="11.865134244156138"><ele>74.0</ele><time>2026-04-06T15:10:38Z</time></trkpt><trkpt lat="45.75155378293776" lon="11.864714239060538"><ele>74.5</ele><time>2026-04-06T15:10:39Z</time></trkpt><trkpt lat="45.751376408429934" lon="11.864301445017041"><ele>75.0</ele><time>2026-04-06T15:10:40Z</time></trkpt><trkpt lat="45.751200235911845" lon="11.863885489969281"><ele>74.0</ele><time>2026-04-06T15:10:41Z</time></trkpt><trkpt lat="45.75102768962362" lon="11.863459502854727"><ele>73.0</ele><time>2026-04-06T15:10:42Z</time></trkpt><trkpt lat="45.75085426839018" lon="11.863038207722255"><ele>73.0</ele><time>2026-04-06T15:10:43Z</time></trkpt><trkpt lat="45.750677998745125" lon="11.862621256796766"><ele>73.0</ele><time>2026-04-06T15:10:44Z</time></trkpt><trkpt lat="45.75049992647061" lon="11.862205441131518"><ele>73.0</ele><time>2026-04-06T15:10:45Z</time></trkpt><trkpt lat="45.750319798838724" lon="11.861790248299512"><ele>73.0</ele><time>2026-04-06T15:10:46Z</time></trkpt><trkpt lat="45.75014059929914" lon="11.861378078024755"><ele>73.5</ele><time>2026-04-06T15:10:47Z</time></trkpt><trkpt lat="45.74996260951164" lon="11.860961553695644"><ele>74.0</ele><time>2026-04-06T15:10:48Z</time></trkpt><trkpt lat="45.74978516749378" lon="11.860547719468308"><ele>74.5</ele><time>2026-04-06T15:10:49Z</time></trkpt><trkpt lat="45.74960691676942" lon="11.860130076334823"><ele>75.0</ele><time>2026-04-06T15:10:50Z</time></trkpt><trkpt lat="45.749429191171586" lon="11.859713758379513"><ele>75.0</ele><time>2026-04-06T15:10:51Z</time></trkpt><trkpt lat="45.749250287084585" lon="11.859296477695981"><ele>75.0</ele><time>2026-04-06T15:10:52Z</time></trkpt><trkpt lat="45.749072856044144" lon="11.858879920359135"><ele>74.5</ele><time>2026-04-06T15:10:53Z</time></trkpt><trkpt lat="45.7488942184249" lon="11.858462256231363"><ele>74.0</ele><time>2026-04-06T15:10:54Z</time></trkpt><trkpt lat="45.748712935446356" lon="11.85803767516908"><ele>75.0</ele><time>2026-04-06T15:10:55.014Z</time></trkpt><trkpt lat="45.74853367927917" lon="11.85761785957358"><ele>76.0</ele><time>2026-04-06T15:10:56.016Z</time></trkpt><trkpt lat="45.74835493045644" lon="11.857198621418421"><ele>76.0</ele><time>2026-04-06T15:10:57.017Z</time></trkpt><trkpt lat="45.74817709739576" lon="11.856775452654452"><ele>76.0</ele><time>2026-04-06T15:10:58.022Z</time></trkpt><trkpt lat="45.74800573521642" lon="11.856362287181534"><ele>76.0</ele><time>2026-04-06T15:10:59Z</time></trkpt><trkpt lat="45.747853148705765" lon="11.855925769980887"><ele>76.0</ele><time>2026-04-06T15:11:00Z</time></trkpt><trkpt lat="45.74770425832445" lon="11.855498261164074"><ele>76.5</ele><time>2026-04-06T15:11:01Z</time></trkpt><trkpt lat="45.7475589808967" lon="11.855057928457152"><ele>77.0</ele><time>2026-04-06T15:11:02Z</time></trkpt><trkpt lat="45.747423701614025" lon="11.854614221093632"><ele>76.0</ele><time>2026-04-06T15:11:03Z</time></trkpt><trkpt lat="45.747294249474564" lon="11.854164186486283"><ele>75.0</ele><time>2026-04-06T15:11:04Z</time></trkpt><trkpt lat="45.7471725325188" lon="11.853710522421302"><ele>76.5</ele><time>2026-04-06T15:11:05Z</time></trkpt><trkpt lat="45.7470588009407" lon="11.85325251112614"><ele>78.0</ele><time>2026-04-06T15:11:06Z</time></trkpt><trkpt lat="45.74695210966436" lon="11.852791263750573"><ele>77.5</ele><time>2026-04-06T15:11:07Z</time></trkpt><trkpt lat="45.746855398472015" lon="11.85232428040265"><ele>77.0</ele><time>2026-04-06T15:11:08Z</time></trkpt><trkpt lat="45.74676573198942" lon="11.851854304988915"><ele>77.0</ele><time>2026-04-06T15:11:09Z</time></trkpt><trkpt lat="45.746683932081254" lon="11.851380035173674"><ele>77.0</ele><time>2026-04-06T15:11:10Z</time></trkpt><trkpt lat="45.74661041466147" lon="11.85090316238136"><ele>77.0</ele><time>2026-04-06T15:11:11Z</time></trkpt><trkpt lat="45.746547115806045" lon="11.85042380495672"><ele>77.0</ele><time>2026-04-06T15:11:12Z</time></trkpt><trkpt lat="45.7464862278139" lon="11.849943339077765"><ele>77.5</ele><time>2026-04-06T15:11:13Z</time></trkpt><trkpt lat="45.746439682474005" lon="11.849458827139022"><ele>78.0</ele><time>2026-04-06T15:11:14Z</time></trkpt><trkpt lat="45.74639836645035" lon="11.848973194852455"><ele>78.5</ele><time>2026-04-06T15:11:15Z</time></trkpt><trkpt lat="45.7463655119902" lon="11.848488174083878"><ele>79.0</ele><time>2026-04-06T15:11:16Z</time></trkpt><trkpt lat="45.746342419016365" lon="11.848000789634053"><ele>79.0</ele><time>2026-04-06T15:11:17Z</time></trkpt><trkpt lat="45.74632802665604" lon="11.847512388803441"><ele>79.0</ele><time>2026-04-06T15:11:18Z</time></trkpt><trkpt lat="45.74632398239294" lon="11.847024309414996"><ele>79.0</ele><time>2026-04-06T15:11:19Z</time></trkpt><trkpt lat="45.746327259819516" lon="11.846534326620569"><ele>79.0</ele><time>2026-04-06T15:11:20Z</time></trkpt><trkpt lat="45.7463411687392" lon="11.846044700122961"><ele>79.0</ele><time>2026-04-06T15:11:21Z</time></trkpt><trkpt lat="45.74636457431357" lon="11.845555334195957"><ele>79.0</ele><time>2026-04-06T15:11:22Z</time></trkpt><trkpt lat="45.746393162683354" lon="11.845068543859014"><ele>79.0</ele><time>2026-04-06T15:11:23Z</time></trkpt><trkpt lat="45.746424746946246" lon="11.84458371124194"><ele>79.0</ele><time>2026-04-06T15:11:24Z</time></trkpt><trkpt lat="45.7464590267253" lon="11.844098396355413"><ele>78.5</ele><time>2026-04-06T15:11:25Z</time></trkpt><trkpt lat="45.746496657687786" lon="11.843613746110178"><ele>78.0</ele><time>2026-04-06T15:11:26Z</time></trkpt><trkpt lat="45.74653127365827" lon="11.843130238304212"><ele>79.5</ele><time>2026-04-06T15:11:27Z</time></trkpt><trkpt lat="45.74656483250983" lon="11.842645527093712"><ele>81.0</ele><time>2026-04-06T15:11:28Z</time></trkpt><trkpt lat="45.74659872272837" lon="11.84216143697913"><ele>80.5</ele><time>2026-04-06T15:11:29Z</time></trkpt><trkpt lat="45.746632099210906" lon="11.84167473293201"><ele>80.0</ele><time>2026-04-06T15:11:30Z</time></trkpt><trkpt lat="45.746664905347224" lon="11.84119056754854"><ele>80.0</ele><time>2026-04-06T15:11:31Z</time></trkpt><trkpt lat="45.74669718979682" lon="11.84070587276984"><ele>80.0</ele><time>2026-04-06T15:11:32Z</time></trkpt><trkpt lat="45.74672807702636" lon="11.840222356774678"><ele>80.5</ele><time>2026-04-06T15:11:33Z</time></trkpt><trkpt lat="45.746757364518736" lon="11.839738504583638"><ele>81.0</ele><time>2026-04-06T15:11:34Z</time></trkpt><trkpt lat="45.74678533541916" lon="11.839253295931663"><ele>81.0</ele><time>2026-04-06T15:11:35Z</time></trkpt><trkpt lat="45.74681264355012" lon="11.838769690654523"><ele>81.0</ele><time>2026-04-06T15:11:36Z</time></trkpt><trkpt lat="45.74683725191792" lon="11.838282445230119"><ele>82.5</ele><time>2026-04-06T15:11:37Z</time></trkpt><trkpt lat="45.746859015745414" lon="11.837797472938927"><ele>84.0</ele><time>2026-04-06T15:11:38Z</time></trkpt><trkpt lat="45.74687960789096" lon="11.837310774313833"><ele>84.0</ele><time>2026-04-06T15:11:39Z</time></trkpt><trkpt lat="45.746897921588115" lon="11.836822882569841"><ele>84.0</ele><time>2026-04-06T15:11:40Z</time></trkpt><trkpt lat="45.74691483314772" lon="11.836334442050559"><ele>84.0</ele><time>2026-04-06T15:11:41Z</time></trkpt><trkpt lat="45.74693144556873" lon="11.835846524044886"><ele>84.0</ele><time>2026-04-06T15:11:42Z</time></trkpt><trkpt lat="45.74694526141903" lon="11.83535745494206"><ele>83.5</ele><time>2026-04-06T15:11:43Z</time></trkpt><trkpt lat="45.746955472083386" lon="11.834868976342579"><ele>83.0</ele><time>2026-04-06T15:11:44Z</time></trkpt><trkpt lat="45.74696174785075" lon="11.834378797942065"><ele>83.5</ele><time>2026-04-06T15:11:45Z</time></trkpt><trkpt lat="45.746965235199326" lon="11.833888961403423"><ele>84.0</ele><time>2026-04-06T15:11:46Z</time></trkpt><trkpt lat="45.74696549162816" lon="11.833399797586189"><ele>84.0</ele><time>2026-04-06T15:11:47Z</time></trkpt><trkpt lat="45.746964671182354" lon="11.832909187802727"><ele>84.0</ele><time>2026-04-06T15:11:48Z</time></trkpt><trkpt lat="45.746961955974015" lon="11.83241929134817"><ele>84.0</ele><time>2026-04-06T15:11:49Z</time></trkpt><trkpt lat="45.7469570924203" lon="11.83193065248705"><ele>84.0</ele><time>2026-04-06T15:11:50Z</time></trkpt><trkpt lat="45.746948842189035" lon="11.831443732469515"><ele>83.5</ele><time>2026-04-06T15:11:51Z</time></trkpt><trkpt lat="45.74693819342233" lon="11.830958144833858"><ele>83.0</ele><time>2026-04-06T15:11:52Z</time></trkpt><trkpt lat="45.746925546097906" lon="11.830471649142172"><ele>84.0</ele><time>2026-04-06T15:11:53Z</time></trkpt><trkpt lat="45.7469094634606" lon="11.829986470792397"><ele>85.0</ele><time>2026-04-06T15:11:54Z</time></trkpt><trkpt lat="45.74689151178108" lon="11.829501077318609"><ele>84.5</ele><time>2026-04-06T15:11:55Z</time></trkpt><trkpt lat="45.74687031619344" lon="11.829014538194738"><ele>84.0</ele><time>2026-04-06T15:11:56Z</time></trkpt><trkpt lat="45.74684669058787" lon="11.828526117898766"><ele>84.5</ele><time>2026-04-06T15:11:57Z</time></trkpt><trkpt lat="45.746820891586" lon="11.828038247191971"><ele>85.0</ele><time>2026-04-06T15:11:58Z</time></trkpt><trkpt lat="45.746792408475855" lon="11.827550434987122"><ele>85.0</ele><time>2026-04-06T15:11:59Z</time></trkpt><trkpt lat="45.74676184832214" lon="11.82706269064128"><ele>85.0</ele><time>2026-04-06T15:12:00Z</time></trkpt><trkpt lat="45.74672864268425" lon="11.826574697364961"><ele>84.5</ele><time>2026-04-06T15:12:01Z</time></trkpt><trkpt lat="45.74669490819945" lon="11.826088734074704"><ele>84.0</ele><time>2026-04-06T15:12:02Z</time></trkpt><trkpt lat="45.746660456211366" lon="11.82560196015292"><ele>85.0</ele><time>2026-04-06T15:12:03Z</time></trkpt><trkpt lat="45.74662401961449" lon="11.825114690791843"><ele>86.0</ele><time>2026-04-06T15:12:04Z</time></trkpt><trkpt lat="45.74658708044422" lon="11.824628118491983"><ele>87.5</ele><time>2026-04-06T15:12:05Z</time></trkpt><trkpt lat="45.7465485465008" lon="11.824139991371545"><ele>89.0</ele><time>2026-04-06T15:12:06Z</time></trkpt><trkpt lat="45.74651017446624" lon="11.823652820609707"><ele>89.0</ele><time>2026-04-06T15:12:07Z</time></trkpt><trkpt lat="45.746472541620136" lon="11.823166163393731"><ele>89.0</ele><time>2026-04-06T15:12:08Z</time></trkpt><trkpt lat="45.746433870110216" lon="11.822679816675755"><ele>88.0</ele><time>2026-04-06T15:12:09Z</time></trkpt><trkpt lat="45.74639604221573" lon="11.82219354616722"><ele>87.0</ele><time>2026-04-06T15:12:10Z</time></trkpt><trkpt lat="45.74635778726419" lon="11.821706649893315"><ele>87.0</ele><time>2026-04-06T15:12:11Z</time></trkpt><trkpt lat="45.74631853027159" lon="11.821222057621213"><ele>87.0</ele><time>2026-04-06T15:12:12Z</time></trkpt><trkpt lat="45.74627855793577" lon="11.820737799683785"><ele>87.5</ele><time>2026-04-06T15:12:13Z</time></trkpt><trkpt lat="45.74623582598414" lon="11.820253279877388"><ele>88.0</ele><time>2026-04-06T15:12:14Z</time></trkpt><trkpt lat="45.746190330410954" lon="11.819771551938997"><ele>89.0</ele><time>2026-04-06T15:12:15Z</time></trkpt><trkpt lat="45.7461376501515" lon="11.819290991792636"><ele>90.0</ele><time>2026-04-06T15:12:16Z</time></trkpt><trkpt lat="45.74608024504601" lon="11.818808475021166"><ele>89.0</ele><time>2026-04-06T15:12:17Z</time></trkpt><trkpt lat="45.74601740471776" lon="11.818328673326945"><ele>88.0</ele><time>2026-04-06T15:12:18Z</time></trkpt><trkpt lat="45.74594867075767" lon="11.817851174313558"><ele>88.5</ele><time>2026-04-06T15:12:19Z</time></trkpt><trkpt lat="45.74587689793031" lon="11.817371322060952"><ele>89.0</ele><time>2026-04-06T15:12:20Z</time></trkpt><trkpt lat="45.745802182642485" lon="11.816898272153367"><ele>89.0</ele><time>2026-04-06T15:12:21Z</time></trkpt><trkpt lat="45.745722713970224" lon="11.816423703423785"><ele>89.0</ele><time>2026-04-06T15:12:22Z</time></trkpt><trkpt lat="45.745636117842395" lon="11.815951136812714"><ele>89.0</ele><time>2026-04-06T15:12:23Z</time></trkpt><trkpt lat="45.74554410131968" lon="11.815480632105716"><ele>89.0</ele><time>2026-04-06T15:12:24Z</time></trkpt><trkpt lat="45.74544832525428" lon="11.815010912976234"><ele>89.0</ele><time>2026-04-06T15:12:25Z</time></trkpt><trkpt lat="45.74535145735557" lon="11.814543305990306"><ele>89.0</ele><time>2026-04-06T15:12:26Z</time></trkpt><trkpt lat="45.74525115304358" lon="11.814078201651483"><ele>89.0</ele><time>2026-04-06T15:12:27Z</time></trkpt><trkpt lat="45.74515016030098" lon="11.813613060676303"><ele>89.0</ele><time>2026-04-06T15:12:28Z</time></trkpt><trkpt lat="45.745046442440426" lon="11.813151197142322"><ele>89.0</ele><time>2026-04-06T15:12:29Z</time></trkpt><trkpt lat="45.744941438582245" lon="11.812688711273706"><ele>89.0</ele><time>2026-04-06T15:12:30Z</time></trkpt><trkpt lat="45.74483274572935" lon="11.812221321946899"><ele>90.5</ele><time>2026-04-06T15:12:31.015Z</time></trkpt><trkpt lat="45.744723548139106" lon="11.811758931127304"><ele>92.0</ele><time>2026-04-06T15:12:32.022Z</time></trkpt><trkpt lat="45.744616399459154" lon="11.81129965745639"><ele>92.0</ele><time>2026-04-06T15:12:33.022Z</time></trkpt><trkpt lat="45.74451077640727" lon="11.810840247201481"><ele>92.0</ele><time>2026-04-06T15:12:34.023Z</time></trkpt><trkpt lat="45.74411466613839" lon="11.808961296550182"><ele>91.5</ele><time>2026-04-06T15:12:38Z</time></trkpt><trkpt lat="45.74403045650601" lon="11.808477788610704"><ele>91.0</ele><time>2026-04-06T15:12:39Z</time></trkpt><trkpt lat="45.74396163811723" lon="11.808002033661124"><ele>91.5</ele><time>2026-04-06T15:12:40Z</time></trkpt><trkpt lat="45.74390781251127" lon="11.807521328197899"><ele>92.0</ele><time>2026-04-06T15:12:41Z</time></trkpt><trkpt lat="45.743869526501825" lon="11.80703823654239"><ele>92.5</ele><time>2026-04-06T15:12:42Z</time></trkpt><trkpt lat="45.74384537482351" lon="11.806551035761892"><ele>93.0</ele><time>2026-04-06T15:12:43Z</time></trkpt><trkpt lat="45.74382541549608" lon="11.806067118389128"><ele>94.5</ele><time>2026-04-06T15:12:44Z</time></trkpt><trkpt lat="45.7438114580112" lon="11.805579723894589"><ele>96.0</ele><time>2026-04-06T15:12:45Z</time></trkpt><trkpt lat="45.74379228189003" lon="11.805093221232555"><ele>96.0</ele><time>2026-04-06T15:12:46Z</time></trkpt><trkpt lat="45.7437710066555" lon="11.804608277929697"><ele>96.0</ele><time>2026-04-06T15:12:47Z</time></trkpt><trkpt lat="45.74374229495621" lon="11.804122494410834"><ele>96.0</ele><time>2026-04-06T15:12:48Z</time></trkpt><trkpt lat="45.74370400997802" lon="11.803638401812641"><ele>96.0</ele><time>2026-04-06T15:12:49Z</time></trkpt><trkpt lat="45.74365406631014" lon="11.803155688728383"><ele>96.0</ele><time>2026-04-06T15:12:50Z</time></trkpt><trkpt lat="45.74359092883529" lon="11.802677753671475"><ele>96.0</ele><time>2026-04-06T15:12:51Z</time></trkpt><trkpt lat="45.74351368538143" lon="11.802203240287731"><ele>95.0</ele><time>2026-04-06T15:12:52Z</time></trkpt><trkpt lat="45.7434223612234" lon="11.80173874870823"><ele>94.0</ele><time>2026-04-06T15:12:53Z</time></trkpt><trkpt lat="45.74332193178997" lon="11.801273106575934"><ele>95.0</ele><time>2026-04-06T15:12:54Z</time></trkpt><trkpt lat="45.74320941589925" lon="11.800811687902778"><ele>96.0</ele><time>2026-04-06T15:12:55Z</time></trkpt><trkpt lat="45.7430840819683" lon="11.80035963835511"><ele>96.0</ele><time>2026-04-06T15:12:56Z</time></trkpt><trkpt lat="45.74294530681478" lon="11.799917442287432"><ele>96.0</ele><time>2026-04-06T15:12:57Z</time></trkpt><trkpt lat="45.74279502285858" lon="11.799480047272958"><ele>96.5</ele><time>2026-04-06T15:12:58Z</time></trkpt><trkpt lat="45.74264133138244" lon="11.79904677772741"><ele>97.0</ele><time>2026-04-06T15:12:59Z</time></trkpt><trkpt lat="45.74248748124106" lon="11.798612130141"><ele>96.0</ele><time>2026-04-06T15:13:00Z</time></trkpt><trkpt lat="45.742338918560854" lon="11.79817415768833"><ele>95.0</ele><time>2026-04-06T15:13:01Z</time></trkpt><trkpt lat="45.7421975229271" lon="11.797732201358501"><ele>94.5</ele><time>2026-04-06T15:13:02Z</time></trkpt><trkpt lat="45.742063600163625" lon="11.79729182247037"><ele>94.0</ele><time>2026-04-06T15:13:03Z</time></trkpt><trkpt lat="45.74192799459233" lon="11.79684120168021"><ele>95.5</ele><time>2026-04-06T15:13:04Z</time></trkpt><trkpt lat="45.74180078094196" lon="11.796387001893775"><ele>97.0</ele><time>2026-04-06T15:13:05Z</time></trkpt><trkpt lat="45.74169182407699" lon="11.79592642385673"><ele>97.5</ele><time>2026-04-06T15:13:06Z</time></trkpt><trkpt lat="45.74159251571231" lon="11.795455377328304"><ele>98.0</ele><time>2026-04-06T15:13:07Z</time></trkpt><trkpt lat="45.741507676737896" lon="11.79498187239467"><ele>98.0</ele><time>2026-04-06T15:13:08Z</time></trkpt><trkpt lat="45.74143553763228" lon="11.794504930162521"><ele>98.0</ele><time>2026-04-06T15:13:09Z</time></trkpt><trkpt lat="45.741376502511166" lon="11.794025267139501"><ele>98.0</ele><time>2026-04-06T15:13:10Z</time></trkpt><trkpt lat="45.74133361075314" lon="11.793542002863333"><ele>98.0</ele><time>2026-04-06T15:13:11Z</time></trkpt><trkpt lat="45.74130195186398" lon="11.793052481168504"><ele>98.0</ele><time>2026-04-06T15:13:12Z</time></trkpt><trkpt lat="45.74127754684203" lon="11.792563947972738"><ele>98.0</ele><time>2026-04-06T15:13:13Z</time></trkpt><trkpt lat="45.741262458739975" lon="11.792075311514637"><ele>98.0</ele><time>2026-04-06T15:13:14Z</time></trkpt><trkpt lat="45.74125964167846" lon="11.791583258291809"><ele>98.0</ele><time>2026-04-06T15:13:15Z</time></trkpt><trkpt lat="45.74126387795719" lon="11.791095732416846"><ele>98.0</ele><time>2026-04-06T15:13:16Z</time></trkpt><trkpt lat="45.741267960921235" lon="11.790605273179795"><ele>98.0</ele><time>2026-04-06T15:13:17Z</time></trkpt><trkpt lat="45.741274384164555" lon="11.790117949407026"><ele>98.0</ele><time>2026-04-06T15:13:18Z</time></trkpt><trkpt lat="45.74128044491931" lon="11.789630299414096"><ele>98.0</ele><time>2026-04-06T15:13:19Z</time></trkpt><trkpt lat="45.741286541610805" lon="11.789145525222013"><ele>98.0</ele><time>2026-04-06T15:13:20Z</time></trkpt><trkpt lat="45.74128690440517" lon="11.788656318412892"><ele>98.0</ele><time>2026-04-06T15:13:21Z</time></trkpt><trkpt lat="45.74127313514301" lon="11.788159387000523"><ele>97.5</ele><time>2026-04-06T15:13:22.015Z</time></trkpt><trkpt lat="45.741247023829686" lon="11.787667305098918"><ele>97.0</ele><time>2026-04-06T15:13:23.023Z</time></trkpt><trkpt lat="45.74121260830329" lon="11.78718415205224"><ele>97.5</ele><time>2026-04-06T15:13:24.014Z</time></trkpt><trkpt lat="45.74116346676897" lon="11.78669255367114"><ele>98.0</ele><time>2026-04-06T15:13:25.028Z</time></trkpt><trkpt lat="45.74111162438773" lon="11.78621085038031"><ele>99.0</ele><time>2026-04-06T15:13:26.024Z</time></trkpt><trkpt lat="45.74048588916068" lon="11.781996237030445"><ele>100.0</ele><time>2026-04-06T15:13:30.558Z</time></trkpt><trkpt lat="45.7403231319466" lon="11.779602756734732"><ele>100.0</ele><time>2026-04-06T15:13:40Z</time></trkpt><trkpt lat="45.74025234142641" lon="11.779125204755898"><ele>100.0</ele><time>2026-04-06T15:13:41Z</time></trkpt><trkpt lat="45.74008675411038" lon="11.778547779560075"><ele>100.0</ele><time>2026-04-06T15:13:42Z</time></trkpt><trkpt lat="45.74001605928121" lon="11.778064288378998"><ele>100.0</ele><time>2026-04-06T15:13:43Z</time></trkpt><trkpt lat="45.739950950980095" lon="11.777586348193323"><ele>100.0</ele><time>2026-04-06T15:13:44Z</time></trkpt><trkpt lat="45.73988459675844" lon="11.777110991706921"><ele>100.0</ele><time>2026-04-06T15:13:45Z</time></trkpt><trkpt lat="45.73981336274973" lon="11.776635903858214"><ele>100.5</ele><time>2026-04-06T15:13:46Z</time></trkpt><trkpt lat="45.73973579190382" lon="11.776160539406312"><ele>101.0</ele><time>2026-04-06T15:13:47Z</time></trkpt><trkpt lat="45.73966260757128" lon="11.7756855876206"><ele>101.0</ele><time>2026-04-06T15:13:48Z</time></trkpt><trkpt lat="45.739590997969046" lon="11.775210204088301"><ele>101.0</ele><time>2026-04-06T15:13:49Z</time></trkpt><trkpt lat="45.73951790918094" lon="11.774735073842667"><ele>101.0</ele><time>2026-04-06T15:13:50Z</time></trkpt><trkpt lat="45.73944285819081" lon="11.774260016036472"><ele>101.0</ele><time>2026-04-06T15:13:51Z</time></trkpt><trkpt lat="45.73936808707698" lon="11.773781406814589"><ele>101.5</ele><time>2026-04-06T15:13:52Z</time></trkpt><trkpt lat="45.739286096279606" lon="11.773308832977733"><ele>102.0</ele><time>2026-04-06T15:13:53Z</time></trkpt><trkpt lat="45.73920518412374" lon="11.77283297716928"><ele>101.5</ele><time>2026-04-06T15:13:54Z</time></trkpt><trkpt lat="45.739124913102664" lon="11.772360496990428"><ele>101.0</ele><time>2026-04-06T15:13:55Z</time></trkpt><trkpt lat="45.73904382790568" lon="11.771888829619346"><ele>101.0</ele><time>2026-04-06T15:13:56Z</time></trkpt><trkpt lat="45.738962128144756" lon="11.77141529079681"><ele>101.0</ele><time>2026-04-06T15:13:57Z</time></trkpt><trkpt lat="45.73888284043219" lon="11.770941827734163"><ele>101.5</ele><time>2026-04-06T15:13:58Z</time></trkpt><trkpt lat="45.73880807587448" lon="11.770465618273272"><ele>102.0</ele><time>2026-04-06T15:13:59Z</time></trkpt><trkpt lat="45.73873356463888" lon="11.769990093396087"><ele>102.0</ele><time>2026-04-06T15:14:00Z</time></trkpt><trkpt lat="45.738653067128624" lon="11.769513444064318"><ele>102.0</ele><time>2026-04-06T15:14:01Z</time></trkpt><trkpt lat="45.73856918016474" lon="11.769038800148428"><ele>102.5</ele><time>2026-04-06T15:14:02Z</time></trkpt><trkpt lat="45.73848320099091" lon="11.768566603281883"><ele>103.0</ele><time>2026-04-06T15:14:03Z</time></trkpt><trkpt lat="45.73839750770742" lon="11.768096631773616"><ele>103.0</ele><time>2026-04-06T15:14:04Z</time></trkpt><trkpt lat="45.73830759442664" lon="11.767622491977663"><ele>103.0</ele><time>2026-04-06T15:14:05Z</time></trkpt><trkpt lat="45.73821579119923" lon="11.767151707263361"><ele>102.5</ele><time>2026-04-06T15:14:06Z</time></trkpt><trkpt lat="45.738119874892284" lon="11.76668287447881"><ele>102.0</ele><time>2026-04-06T15:14:07Z</time></trkpt><trkpt lat="45.73802817254171" lon="11.766212531945518"><ele>102.0</ele><time>2026-04-06T15:14:08Z</time></trkpt><trkpt lat="45.73794240787579" lon="11.765738153364339"><ele>102.0</ele><time>2026-04-06T15:14:09Z</time></trkpt><trkpt lat="45.73785936615896" lon="11.76526209602431"><ele>102.0</ele><time>2026-04-06T15:14:10Z</time></trkpt><trkpt lat="45.73778047362116" lon="11.764787042377202"><ele>102.0</ele><time>2026-04-06T15:14:11Z</time></trkpt><trkpt lat="45.737703412004564" lon="11.764311578416523"><ele>102.5</ele><time>2026-04-06T15:14:12Z</time></trkpt><trkpt lat="45.737626669646865" lon="11.763837108572972"><ele>103.0</ele><time>2026-04-06T15:14:13Z</time></trkpt><trkpt lat="45.73755006285865" lon="11.763364275795428"><ele>102.0</ele><time>2026-04-06T15:14:14Z</time></trkpt><trkpt lat="45.737475792644396" lon="11.762890441542282"><ele>101.0</ele><time>2026-04-06T15:14:15Z</time></trkpt><trkpt lat="45.7374040662263" lon="11.762413754582138"><ele>101.0</ele><time>2026-04-06T15:14:16Z</time></trkpt><trkpt lat="45.73733327314674" lon="11.761939863599778"><ele>101.0</ele><time>2026-04-06T15:14:17Z</time></trkpt><trkpt lat="45.73726020697586" lon="11.76146351670988"><ele>102.0</ele><time>2026-04-06T15:14:18Z</time></trkpt><trkpt lat="45.73718869622" lon="11.760985387908406"><ele>103.0</ele><time>2026-04-06T15:14:19Z</time></trkpt><trkpt lat="45.73711969545061" lon="11.760505211807201"><ele>103.5</ele><time>2026-04-06T15:14:20Z</time></trkpt><trkpt lat="45.73705413323259" lon="11.760026464872135"><ele>104.0</ele><time>2026-04-06T15:14:21Z</time></trkpt><trkpt lat="45.736989949260156" lon="11.75954681677825"><ele>103.5</ele><time>2026-04-06T15:14:22Z</time></trkpt><trkpt lat="45.73692470175404" lon="11.75906613271024"><ele>103.0</ele><time>2026-04-06T15:14:23Z</time></trkpt><trkpt lat="45.7368599707735" lon="11.758582478283193"><ele>102.0</ele><time>2026-04-06T15:14:24Z</time></trkpt><trkpt lat="45.736793552355046" lon="11.758101758408488"><ele>101.0</ele><time>2026-04-06T15:14:25Z</time></trkpt><trkpt lat="45.736728880718694" lon="11.757623642396739"><ele>101.0</ele><time>2026-04-06T15:14:26Z</time></trkpt><trkpt lat="45.73666729759715" lon="11.757142695228069"><ele>101.0</ele><time>2026-04-06T15:14:27Z</time></trkpt><trkpt lat="45.73660561267273" lon="11.756663360399477"><ele>101.0</ele><time>2026-04-06T15:14:28Z</time></trkpt><trkpt lat="45.73654203435182" lon="11.756181786943943"><ele>101.0</ele><time>2026-04-06T15:14:29Z</time></trkpt><trkpt lat="45.736479543252344" lon="11.755701722816118"><ele>101.0</ele><time>2026-04-06T15:14:30Z</time></trkpt><trkpt lat="45.736418671801204" lon="11.755221003928423"><ele>101.0</ele><time>2026-04-06T15:14:31Z</time></trkpt><trkpt lat="45.73635909984161" lon="11.75473808965903"><ele>101.0</ele><time>2026-04-06T15:14:32Z</time></trkpt><trkpt lat="45.736296425873206" lon="11.754258096438864"><ele>101.0</ele><time>2026-04-06T15:14:33Z</time></trkpt><trkpt lat="45.7362329226478" lon="11.753778624115657"><ele>100.5</ele><time>2026-04-06T15:14:34Z</time></trkpt><trkpt lat="45.73616951081306" lon="11.75329939243402"><ele>100.0</ele><time>2026-04-06T15:14:35Z</time></trkpt><trkpt lat="45.736110073203996" lon="11.752819126526374"><ele>100.5</ele><time>2026-04-06T15:14:36Z</time></trkpt><trkpt lat="45.736060293546565" lon="11.752339332991891"><ele>101.0</ele><time>2026-04-06T15:14:37Z</time></trkpt><trkpt lat="45.73602045437367" lon="11.751855347153656"><ele>101.0</ele><time>2026-04-06T15:14:38Z</time></trkpt><trkpt lat="45.73598713151916" lon="11.751368501805162"><ele>101.0</ele><time>2026-04-06T15:14:39Z</time></trkpt><trkpt lat="45.735961825104084" lon="11.750880374416328"><ele>101.0</ele><time>2026-04-06T15:14:40Z</time></trkpt><trkpt lat="45.73594735699082" lon="11.750392019880534"><ele>101.0</ele><time>2026-04-06T15:14:41Z</time></trkpt><trkpt lat="45.73594277117092" lon="11.749900776493247"><ele>101.0</ele><time>2026-04-06T15:14:42Z</time></trkpt><trkpt lat="45.73594928026148" lon="11.749415669886679"><ele>101.0</ele><time>2026-04-06T15:14:43Z</time></trkpt><trkpt lat="45.735963567337286" lon="11.74892723823623"><ele>101.5</ele><time>2026-04-06T15:14:44Z</time></trkpt><trkpt lat="45.73598637927854" lon="11.748439177161789"><ele>102.0</ele><time>2026-04-06T15:14:45Z</time></trkpt><trkpt lat="45.73601284295367" lon="11.747954661878204"><ele>101.5</ele><time>2026-04-06T15:14:46Z</time></trkpt><trkpt lat="45.7360377379346" lon="11.747466158525953"><ele>101.0</ele><time>2026-04-06T15:14:47Z</time></trkpt><trkpt lat="45.73606247229497" lon="11.746977468460159"><ele>101.5</ele><time>2026-04-06T15:14:48Z</time></trkpt><trkpt lat="45.736090213104994" lon="11.74649016523952"><ele>102.0</ele><time>2026-04-06T15:14:49Z</time></trkpt><trkpt lat="45.73611681827011" lon="11.746002736969022"><ele>102.0</ele><time>2026-04-06T15:14:50Z</time></trkpt><trkpt lat="45.736143635121145" lon="11.745515630767379"><ele>102.0</ele><time>2026-04-06T15:14:51Z</time></trkpt><trkpt lat="45.73617051915943" lon="11.745027560528207"><ele>102.0</ele><time>2026-04-06T15:14:52Z</time></trkpt><trkpt lat="45.73619822964141" lon="11.744540577151689"><ele>102.0</ele><time>2026-04-06T15:14:53Z</time></trkpt><trkpt lat="45.73622658202523" lon="11.744054752669156"><ele>102.0</ele><time>2026-04-06T15:14:54Z</time></trkpt><trkpt lat="45.73625395808056" lon="11.74356760458977"><ele>102.0</ele><time>2026-04-06T15:14:55Z</time></trkpt><trkpt lat="45.73627960747333" lon="11.743080678575938"><ele>102.5</ele><time>2026-04-06T15:14:56Z</time></trkpt><trkpt lat="45.73630662320931" lon="11.742598122098256"><ele>103.0</ele><time>2026-04-06T15:14:57Z</time></trkpt><trkpt lat="45.73633593287987" lon="11.74211042260391"><ele>103.0</ele><time>2026-04-06T15:14:58Z</time></trkpt><trkpt lat="45.736364904182814" lon="11.741623581592421"><ele>103.0</ele><time>2026-04-06T15:14:59Z</time></trkpt><trkpt lat="45.736394574210884" lon="11.741136694651608"><ele>102.0</ele><time>2026-04-06T15:15:00Z</time></trkpt><trkpt lat="45.73642783103839" lon="11.740650762405378"><ele>101.0</ele><time>2026-04-06T15:15:01Z</time></trkpt><trkpt lat="45.73647206169328" lon="11.740168100493614"><ele>100.5</ele><time>2026-04-06T15:15:02Z</time></trkpt><trkpt lat="45.73651910964883" lon="11.739677895699904"><ele>100.0</ele><time>2026-04-06T15:15:03Z</time></trkpt><trkpt lat="45.73657917145249" lon="11.739196744712553"><ele>100.0</ele><time>2026-04-06T15:15:04Z</time></trkpt><trkpt lat="45.736651221372725" lon="11.738720895635302"><ele>100.0</ele><time>2026-04-06T15:15:05Z</time></trkpt><trkpt lat="45.73673872293658" lon="11.738249215835442"><ele>100.5</ele><time>2026-04-06T15:15:06Z</time></trkpt><trkpt lat="45.73683668467219" lon="11.737782938214014"><ele>101.0</ele><time>2026-04-06T15:15:07Z</time></trkpt><trkpt lat="45.73693967516959" lon="11.737317494929583"><ele>100.5</ele><time>2026-04-06T15:15:08Z</time></trkpt><trkpt lat="45.73704564921593" lon="11.736850655967174"><ele>100.0</ele><time>2026-04-06T15:15:09Z</time></trkpt><trkpt lat="45.73715209519219" lon="11.736384621100814"><ele>100.5</ele><time>2026-04-06T15:15:10Z</time></trkpt><trkpt lat="45.73726119264019" lon="11.735920941732466"><ele>101.0</ele><time>2026-04-06T15:15:11Z</time></trkpt><trkpt lat="45.737368018098365" lon="11.735455436989321"><ele>100.5</ele><time>2026-04-06T15:15:12Z</time></trkpt><trkpt lat="45.73747359692473" lon="11.734989624647369"><ele>100.0</ele><time>2026-04-06T15:15:13Z</time></trkpt><trkpt lat="45.73757969278963" lon="11.73452397528203"><ele>101.0</ele><time>2026-04-06T15:15:14Z</time></trkpt><trkpt lat="45.73768667012273" lon="11.73406098024166"><ele>102.0</ele><time>2026-04-06T15:15:15Z</time></trkpt><trkpt lat="45.73779399988091" lon="11.733597512156445"><ele>101.0</ele><time>2026-04-06T15:15:16Z</time></trkpt><trkpt lat="45.737900708381595" lon="11.73313220224777"><ele>100.0</ele><time>2026-04-06T15:15:17Z</time></trkpt><trkpt lat="45.73800770439131" lon="11.732667231777143"><ele>100.0</ele><time>2026-04-06T15:15:18Z</time></trkpt><trkpt lat="45.73811117029101" lon="11.732201451895971"><ele>100.0</ele><time>2026-04-06T15:15:19Z</time></trkpt><trkpt lat="45.73821980092387" lon="11.731738664716701"><ele>100.0</ele><time>2026-04-06T15:15:20Z</time></trkpt><trkpt lat="45.73832694116411" lon="11.731276482564432"><ele>100.0</ele><time>2026-04-06T15:15:21Z</time></trkpt><trkpt lat="45.73843311111674" lon="11.730814618676852"><ele>99.0</ele><time>2026-04-06T15:15:22Z</time></trkpt><trkpt lat="45.73853042582472" lon="11.730345932294908"><ele>98.0</ele><time>2026-04-06T15:15:23Z</time></trkpt><trkpt lat="45.738608924351134" lon="11.729872627518057"><ele>97.5</ele><time>2026-04-06T15:15:24Z</time></trkpt><trkpt lat="45.73867716246246" lon="11.729395698021712"><ele>97.0</ele><time>2026-04-06T15:15:25Z</time></trkpt><trkpt lat="45.738735691046834" lon="11.728918449333463"><ele>96.0</ele><time>2026-04-06T15:15:26Z</time></trkpt><trkpt lat="45.738787774463276" lon="11.728438287993022"><ele>95.0</ele><time>2026-04-06T15:15:27Z</time></trkpt><trkpt lat="45.738830514485805" lon="11.727956915045134"><ele>96.5</ele><time>2026-04-06T15:15:28Z</time></trkpt><trkpt lat="45.7388624805062" lon="11.727471590109849"><ele>98.0</ele><time>2026-04-06T15:15:29Z</time></trkpt><trkpt lat="45.73888576910318" lon="11.726986564196519"><ele>98.0</ele><time>2026-04-06T15:15:30Z</time></trkpt><trkpt lat="45.738898966491604" lon="11.72650201969157"><ele>98.0</ele><time>2026-04-06T15:15:31Z</time></trkpt><trkpt lat="45.738902546796105" lon="11.726015108261947"><ele>98.0</ele><time>2026-04-06T15:15:32Z</time></trkpt><trkpt lat="45.738897117321685" lon="11.725529380108174"><ele>98.0</ele><time>2026-04-06T15:15:33Z</time></trkpt><trkpt lat="45.73887998351023" lon="11.725042301135243"><ele>98.0</ele><time>2026-04-06T15:15:34Z</time></trkpt><trkpt lat="45.73885160713927" lon="11.724556906729555"><ele>98.0</ele><time>2026-04-06T15:15:35Z</time></trkpt><trkpt lat="45.7388148022158" lon="11.724071605133718"><ele>97.0</ele><time>2026-04-06T15:15:36Z</time></trkpt><trkpt lat="45.7387687889628" lon="11.723586843143838"><ele>96.0</ele><time>2026-04-06T15:15:37Z</time></trkpt><trkpt lat="45.738722169071046" lon="11.723103189021616"><ele>95.5</ele><time>2026-04-06T15:15:38Z</time></trkpt><trkpt lat="45.7386760877995" lon="11.722617250078285"><ele>95.0</ele><time>2026-04-06T15:15:39Z</time></trkpt><trkpt lat="45.738630914646954" lon="11.722132030772258"><ele>95.5</ele><time>2026-04-06T15:15:40Z</time></trkpt><trkpt lat="45.73858700954691" lon="11.721646428565972"><ele>96.0</ele><time>2026-04-06T15:15:41Z</time></trkpt><trkpt lat="45.7385458576935" lon="11.721161435459361"><ele>96.0</ele><time>2026-04-06T15:15:42Z</time></trkpt><trkpt lat="45.73850238411404" lon="11.720674751569716"><ele>96.0</ele><time>2026-04-06T15:15:43Z</time></trkpt><trkpt lat="45.73845871206508" lon="11.720189545715913"><ele>96.0</ele><time>2026-04-06T15:15:44Z</time></trkpt><trkpt lat="45.73841686991846" lon="11.719705202742892"><ele>96.0</ele><time>2026-04-06T15:15:45Z</time></trkpt><trkpt lat="45.73837244604275" lon="11.71922130526318"><ele>96.0</ele><time>2026-04-06T15:15:46Z</time></trkpt><trkpt lat="45.73832688717056" lon="11.718737473190393"><ele>96.0</ele><time>2026-04-06T15:15:47Z</time></trkpt><trkpt lat="45.73828277094383" lon="11.718255790721999"><ele>96.0</ele><time>2026-04-06T15:15:48Z</time></trkpt><trkpt lat="45.73823914543213" lon="11.717772477438293"><ele>96.0</ele><time>2026-04-06T15:15:49Z</time></trkpt><trkpt lat="45.73819388155164" lon="11.717290444906915"><ele>95.5</ele><time>2026-04-06T15:15:50Z</time></trkpt><trkpt lat="45.738148438906165" lon="11.716808336657541"><ele>95.0</ele><time>2026-04-06T15:15:51Z</time></trkpt><trkpt lat="45.73810268576599" lon="11.716325580394615"><ele>95.0</ele><time>2026-04-06T15:15:52Z</time></trkpt><trkpt lat="45.738059266360985" lon="11.71584184279112"><ele>95.0</ele><time>2026-04-06T15:15:53Z</time></trkpt><trkpt lat="45.7380170479762" lon="11.715358025834174"><ele>94.5</ele><time>2026-04-06T15:15:54Z</time></trkpt><trkpt lat="45.737975700408015" lon="11.714874197875426"><ele>94.0</ele><time>2026-04-06T15:15:55Z</time></trkpt><trkpt lat="45.73793226919164" lon="11.714390271356713"><ele>93.5</ele><time>2026-04-06T15:15:56Z</time></trkpt><trkpt lat="45.737888795396316" lon="11.713906161579029"><ele>93.0</ele><time>2026-04-06T15:15:57Z</time></trkpt><trkpt lat="45.73785164342359" lon="11.713419748098675"><ele>93.0</ele><time>2026-04-06T15:15:58Z</time></trkpt><trkpt lat="45.737820505213676" lon="11.71293029714839"><ele>93.0</ele><time>2026-04-06T15:15:59Z</time></trkpt><trkpt lat="45.73779697894809" lon="11.712444192629858"><ele>92.5</ele><time>2026-04-06T15:16:00Z</time></trkpt><trkpt lat="45.737780734214084" lon="11.711955314486943"><ele>92.0</ele><time>2026-04-06T15:16:01Z</time></trkpt><trkpt lat="45.73777033661672" lon="11.711465642903173"><ele>94.0</ele><time>2026-04-06T15:16:02Z</time></trkpt><trkpt lat="45.737765913589904" lon="11.710976565217655"><ele>96.0</ele><time>2026-04-06T15:16:03Z</time></trkpt><trkpt lat="45.737768798996186" lon="11.710488269072858"><ele>95.0</ele><time>2026-04-06T15:16:04Z</time></trkpt><trkpt lat="45.737781452054705" lon="11.710002641455654"><ele>94.0</ele><time>2026-04-06T15:16:05Z</time></trkpt><trkpt lat="45.737806392479904" lon="11.709518385884698"><ele>93.5</ele><time>2026-04-06T15:16:06Z</time></trkpt><trkpt lat="45.73783538379559" lon="11.70903380170094"><ele>93.0</ele><time>2026-04-06T15:16:07Z</time></trkpt><trkpt lat="45.737870186172856" lon="11.7085477715411"><ele>92.5</ele><time>2026-04-06T15:16:08Z</time></trkpt><trkpt lat="45.73790499463774" lon="11.708060687446093"><ele>92.0</ele><time>2026-04-06T15:16:09Z</time></trkpt><trkpt lat="45.73793908632505" lon="11.70757616698393"><ele>92.0</ele><time>2026-04-06T15:16:10Z</time></trkpt><trkpt lat="45.737974437039156" lon="11.707090678256321"><ele>92.0</ele><time>2026-04-06T15:16:11Z</time></trkpt><trkpt lat="45.73801133979574" lon="11.706602665209111"><ele>91.5</ele><time>2026-04-06T15:16:12Z</time></trkpt><trkpt lat="45.738046798821465" lon="11.706117989416356"><ele>91.0</ele><time>2026-04-06T15:16:13Z</time></trkpt><trkpt lat="45.73808288100556" lon="11.705631133404667"><ele>92.5</ele><time>2026-04-06T15:16:14Z</time></trkpt><trkpt lat="45.738118174253835" lon="11.705144355536504"><ele>94.0</ele><time>2026-04-06T15:16:15Z</time></trkpt><trkpt lat="45.73815544176794" lon="11.704660800490064"><ele>92.5</ele><time>2026-04-06T15:16:16Z</time></trkpt><trkpt lat="45.73819354024098" lon="11.704176584806385"><ele>91.0</ele><time>2026-04-06T15:16:17Z</time></trkpt><trkpt lat="45.73823051702462" lon="11.703690343006956"><ele>91.0</ele><time>2026-04-06T15:16:18Z</time></trkpt><trkpt lat="45.738269232585324" lon="11.70320561491508"><ele>91.0</ele><time>2026-04-06T15:16:19Z</time></trkpt><trkpt lat="45.73830702075906" lon="11.702722759141114"><ele>91.0</ele><time>2026-04-06T15:16:20Z</time></trkpt><trkpt lat="45.73834413505652" lon="11.702238106333652"><ele>91.0</ele><time>2026-04-06T15:16:21Z</time></trkpt><trkpt lat="45.738379786024204" lon="11.701754266030076"><ele>90.0</ele><time>2026-04-06T15:16:22Z</time></trkpt><trkpt lat="45.738414496378994" lon="11.701269598838575"><ele>89.0</ele><time>2026-04-06T15:16:23Z</time></trkpt><trkpt lat="45.73844557946301" lon="11.70078541859576"><ele>88.5</ele><time>2026-04-06T15:16:24Z</time></trkpt><trkpt lat="45.73847693062378" lon="11.700299738176053"><ele>88.0</ele><time>2026-04-06T15:16:25Z</time></trkpt><trkpt lat="45.73850725977958" lon="11.699814046176012"><ele>87.5</ele><time>2026-04-06T15:16:26Z</time></trkpt><trkpt lat="45.73853686707218" lon="11.699325895171526"><ele>87.0</ele><time>2026-04-06T15:16:27Z</time></trkpt><trkpt lat="45.738564164663416" lon="11.698839650431529"><ele>86.5</ele><time>2026-04-06T15:16:28Z</time></trkpt><trkpt lat="45.73858883185552" lon="11.698352364111804"><ele>86.0</ele><time>2026-04-06T15:16:29Z</time></trkpt><trkpt lat="45.73861465037657" lon="11.697864377146947"><ele>86.0</ele><time>2026-04-06T15:16:30Z</time></trkpt><trkpt lat="45.73863929317914" lon="11.697376615677749"><ele>86.0</ele><time>2026-04-06T15:16:31Z</time></trkpt><trkpt lat="45.73866005394124" lon="11.696887475289872"><ele>86.0</ele><time>2026-04-06T15:16:32Z</time></trkpt><trkpt lat="45.73867820136121" lon="11.696397909157106"><ele>86.0</ele><time>2026-04-06T15:16:33Z</time></trkpt><trkpt lat="45.73869338148103" lon="11.695910264225791"><ele>87.0</ele><time>2026-04-06T15:16:34Z</time></trkpt><trkpt lat="45.738705916776865" lon="11.695423162117619"><ele>88.0</ele><time>2026-04-06T15:16:35Z</time></trkpt><trkpt lat="45.73871597501253" lon="11.694934831018031"><ele>88.0</ele><time>2026-04-06T15:16:36Z</time></trkpt><trkpt lat="45.73872493398281" lon="11.69444746732704"><ele>88.0</ele><time>2026-04-06T15:16:37Z</time></trkpt><trkpt lat="45.738732552462174" lon="11.693960721613342"><ele>87.5</ele><time>2026-04-06T15:16:38Z</time></trkpt><trkpt lat="45.738738310758826" lon="11.693473631086624"><ele>87.0</ele><time>2026-04-06T15:16:39Z</time></trkpt><trkpt lat="45.7387415181354" lon="11.692984993940575"><ele>87.5</ele><time>2026-04-06T15:16:40Z</time></trkpt><trkpt lat="45.73874363879794" lon="11.692495930046652"><ele>88.0</ele><time>2026-04-06T15:16:41Z</time></trkpt><trkpt lat="45.738745821437604" lon="11.692008247879453"><ele>88.0</ele><time>2026-04-06T15:16:42Z</time></trkpt><trkpt lat="45.73874348164038" lon="11.691518521732753"><ele>88.0</ele><time>2026-04-06T15:16:43Z</time></trkpt><trkpt lat="45.738740580765935" lon="11.691029482770727"><ele>88.0</ele><time>2026-04-06T15:16:44Z</time></trkpt><trkpt lat="45.738736395102606" lon="11.690542143060249"><ele>88.0</ele><time>2026-04-06T15:16:45Z</time></trkpt><trkpt lat="45.738730902677545" lon="11.69005374505211"><ele>88.0</ele><time>2026-04-06T15:16:46Z</time></trkpt><trkpt lat="45.73872354824966" lon="11.689567150111413"><ele>88.0</ele><time>2026-04-06T15:16:47Z</time></trkpt><trkpt lat="45.73871040647345" lon="11.689076297257806"><ele>88.0</ele><time>2026-04-06T15:16:48Z</time></trkpt><trkpt lat="45.738698233589574" lon="11.688586316403137"><ele>88.0</ele><time>2026-04-06T15:16:49Z</time></trkpt><trkpt lat="45.738687573015646" lon="11.688096024536161"><ele>88.0</ele><time>2026-04-06T15:16:50Z</time></trkpt><trkpt lat="45.738680207604105" lon="11.687608021815786"><ele>88.0</ele><time>2026-04-06T15:16:51Z</time></trkpt><trkpt lat="45.738673172807246" lon="11.687120200886815"><ele>88.0</ele><time>2026-04-06T15:16:52Z</time></trkpt><trkpt lat="45.73866204343129" lon="11.686631872432832"><ele>88.0</ele><time>2026-04-06T15:16:53Z</time></trkpt><trkpt lat="45.73863807752052" lon="11.686144546795967"><ele>88.0</ele><time>2026-04-06T15:16:54Z</time></trkpt><trkpt lat="45.73859966628891" lon="11.685661721661182"><ele>88.0</ele><time>2026-04-06T15:16:55Z</time></trkpt><trkpt lat="45.7385454853221" lon="11.685180297751767"><ele>87.5</ele><time>2026-04-06T15:16:56Z</time></trkpt><trkpt lat="45.73847721136034" lon="11.684703358347258"><ele>87.0</ele><time>2026-04-06T15:16:57Z</time></trkpt><trkpt lat="45.73839446598975" lon="11.684232545471124"><ele>87.0</ele><time>2026-04-06T15:16:58Z</time></trkpt><trkpt lat="45.738297077288365" lon="11.68376486469922"><ele>87.0</ele><time>2026-04-06T15:16:59Z</time></trkpt><trkpt lat="45.73818986632137" lon="11.683300521507164"><ele>87.5</ele><time>2026-04-06T15:17:00Z</time></trkpt><trkpt lat="45.73807225422938" lon="11.682841522770497"><ele>88.0</ele><time>2026-04-06T15:17:01Z</time></trkpt><trkpt lat="45.73794029110051" lon="11.682390229922158"><ele>88.0</ele><time>2026-04-06T15:17:02Z</time></trkpt><trkpt lat="45.737794933210644" lon="11.681947474626691"><ele>88.0</ele><time>2026-04-06T15:17:03Z</time></trkpt><trkpt lat="45.73763839775949" lon="11.681513000038025"><ele>87.5</ele><time>2026-04-06T15:17:04Z</time></trkpt><trkpt lat="45.73747571595466" lon="11.681084216188912"><ele>87.0</ele><time>2026-04-06T15:17:05Z</time></trkpt><trkpt lat="45.737309205485545" lon="11.680658241683375"><ele>87.0</ele><time>2026-04-06T15:17:06Z</time></trkpt><trkpt lat="45.73714100155882" lon="11.680232844434288"><ele>87.0</ele><time>2026-04-06T15:17:07Z</time></trkpt><trkpt lat="45.73697153204391" lon="11.67980569487417"><ele>87.5</ele><time>2026-04-06T15:17:08Z</time></trkpt><trkpt lat="45.73680793841564" lon="11.679378022114955"><ele>88.0</ele><time>2026-04-06T15:17:09Z</time></trkpt><trkpt lat="45.73664762827836" lon="11.678946887458435"><ele>87.5</ele><time>2026-04-06T15:17:10Z</time></trkpt><trkpt lat="45.73648918242132" lon="11.67851589371543"><ele>87.0</ele><time>2026-04-06T15:17:11Z</time></trkpt><trkpt lat="45.73632907577623" lon="11.678085017568122"><ele>87.0</ele><time>2026-04-06T15:17:12Z</time></trkpt><trkpt lat="45.73616544763199" lon="11.677655233259761"><ele>87.0</ele><time>2026-04-06T15:17:13Z</time></trkpt><trkpt lat="45.73599998855208" lon="11.677226699619304"><ele>87.0</ele><time>2026-04-06T15:17:14Z</time></trkpt><trkpt lat="45.73583404108611" lon="11.676797884520068"><ele>87.0</ele><time>2026-04-06T15:17:15Z</time></trkpt><trkpt lat="45.7356693373408" lon="11.6763684504602"><ele>87.5</ele><time>2026-04-06T15:17:16Z</time></trkpt><trkpt lat="45.73550712151073" lon="11.675936973056213"><ele>88.0</ele><time>2026-04-06T15:17:17Z</time></trkpt><trkpt lat="45.735347074911395" lon="11.675505207268653"><ele>88.0</ele><time>2026-04-06T15:17:18Z</time></trkpt><trkpt lat="45.735184359866" lon="11.675077044394554"><ele>88.0</ele><time>2026-04-06T15:17:19Z</time></trkpt><trkpt lat="45.73501059257544" lon="11.674657486799148"><ele>87.0</ele><time>2026-04-06T15:17:20Z</time></trkpt><trkpt lat="45.734825093300884" lon="11.674248912103128"><ele>86.0</ele><time>2026-04-06T15:17:21Z</time></trkpt><trkpt lat="45.73463073803675" lon="11.673847831444764"><ele>86.0</ele><time>2026-04-06T15:17:22Z</time></trkpt><trkpt lat="45.73442918223665" lon="11.673455596664779"><ele>86.0</ele><time>2026-04-06T15:17:23Z</time></trkpt><trkpt lat="45.73421662409626" lon="11.673074267943909"><ele>87.0</ele><time>2026-04-06T15:17:24Z</time></trkpt><trkpt lat="45.73399416859771" lon="11.672706116059196"><ele>88.0</ele><time>2026-04-06T15:17:25Z</time></trkpt><trkpt lat="45.73376287868205" lon="11.672347745415223"><ele>88.0</ele><time>2026-04-06T15:17:26Z</time></trkpt><trkpt lat="45.733523797035815" lon="11.671999542715668"><ele>88.0</ele><time>2026-04-06T15:17:27Z</time></trkpt><trkpt lat="45.733277667138815" lon="11.671662139738794"><ele>88.0</ele><time>2026-04-06T15:17:28Z</time></trkpt><trkpt lat="45.73302602582545" lon="11.671334513540081"><ele>88.0</ele><time>2026-04-06T15:17:29Z</time></trkpt><trkpt lat="45.73276910311893" lon="11.671013136756963"><ele>87.5</ele><time>2026-04-06T15:17:30Z</time></trkpt><trkpt lat="45.73251339472157" lon="11.670689331749326"><ele>87.0</ele><time>2026-04-06T15:17:31Z</time></trkpt><trkpt lat="45.73225872525935" lon="11.67036134796099"><ele>86.5</ele><time>2026-04-06T15:17:32Z</time></trkpt><trkpt lat="45.732008927506286" lon="11.670029978183855"><ele>86.0</ele><time>2026-04-06T15:17:33Z</time></trkpt><trkpt lat="45.731762911640324" lon="11.66969404215087"><ele>86.0</ele><time>2026-04-06T15:17:34Z</time></trkpt><trkpt lat="45.731516589455" lon="11.669354191931292"><ele>86.0</ele><time>2026-04-06T15:17:35Z</time></trkpt><trkpt lat="45.73127098308732" lon="11.669015357444971"><ele>86.0</ele><time>2026-04-06T15:17:36Z</time></trkpt><trkpt lat="45.73102623669632" lon="11.668674295399297"><ele>86.0</ele><time>2026-04-06T15:17:37Z</time></trkpt><trkpt lat="45.73078783686786" lon="11.66832682372506"><ele>85.5</ele><time>2026-04-06T15:17:38Z</time></trkpt><trkpt lat="45.73055711614433" lon="11.667968570211768"><ele>85.0</ele><time>2026-04-06T15:17:39Z</time></trkpt><trkpt lat="45.73033518279318" lon="11.667599112264954"><ele>85.0</ele><time>2026-04-06T15:17:40Z</time></trkpt><trkpt lat="45.730120995610584" lon="11.667218035729645"><ele>85.0</ele><time>2026-04-06T15:17:41Z</time></trkpt><trkpt lat="45.72991267612839" lon="11.666830431359774"><ele>85.5</ele><time>2026-04-06T15:17:42Z</time></trkpt><trkpt lat="45.7297126292181" lon="11.666433676008557"><ele>86.0</ele><time>2026-04-06T15:17:43Z</time></trkpt><trkpt lat="45.72952215828051" lon="11.666028709026364"><ele>86.0</ele><time>2026-04-06T15:17:44Z</time></trkpt><trkpt lat="45.729334682884975" lon="11.665620043109968"><ele>86.0</ele><time>2026-04-06T15:17:45Z</time></trkpt><trkpt lat="45.72915026630538" lon="11.665207448090804"><ele>86.0</ele><time>2026-04-06T15:17:46Z</time></trkpt><trkpt lat="45.728967714645535" lon="11.664781344306267"><ele>86.0</ele><time>2026-04-06T15:17:47.022Z</time></trkpt><trkpt lat="45.728819660229505" lon="11.664345290579117"><ele>86.0</ele><time>2026-04-06T15:17:48.021Z</time></trkpt><trkpt lat="45.72864059607047" lon="11.663925973026915"><ele>86.0</ele><time>2026-04-06T15:17:49.024Z</time></trkpt><trkpt lat="45.7284878722998" lon="11.663492556646716"><ele>86.0</ele><time>2026-04-06T15:17:50.02Z</time></trkpt><trkpt lat="45.72836257521596" lon="11.66303671897544"><ele>86.0</ele><time>2026-04-06T15:17:51Z</time></trkpt><trkpt lat="45.7282200531191" lon="11.66259243174866"><ele>86.5</ele><time>2026-04-06T15:17:52Z</time></trkpt><trkpt lat="45.728107146047314" lon="11.662142629708221"><ele>87.0</ele><time>2026-04-06T15:17:53Z</time></trkpt><trkpt lat="45.727992571819854" lon="11.661689171122035"><ele>86.0</ele><time>2026-04-06T15:17:54Z</time></trkpt><trkpt lat="45.727862886587204" lon="11.661223083913292"><ele>85.0</ele><time>2026-04-06T15:17:55Z</time></trkpt><trkpt lat="45.72776143779106" lon="11.660756137107695"><ele>86.5</ele><time>2026-04-06T15:17:56Z</time></trkpt><trkpt lat="45.72766972819607" lon="11.660288223087738"><ele>88.0</ele><time>2026-04-06T15:17:57Z</time></trkpt><trkpt lat="45.7275873897308" lon="11.659830493156507"><ele>87.0</ele><time>2026-04-06T15:17:58Z</time></trkpt><trkpt lat="45.72751796829333" lon="11.65939640561662"><ele>86.0</ele><time>2026-04-06T15:17:59Z</time></trkpt><trkpt lat="45.72745647702638" lon="11.658974528471518"><ele>85.5</ele><time>2026-04-06T15:18:00Z</time></trkpt><trkpt lat="45.72740421447034" lon="11.658568285862177"><ele>85.0</ele><time>2026-04-06T15:18:01Z</time></trkpt><trkpt lat="45.72735717316244" lon="11.658171312329378"><ele>86.0</ele><time>2026-04-06T15:18:02Z</time></trkpt><trkpt lat="45.72731493027323" lon="11.657775683719132"><ele>87.0</ele><time>2026-04-06T15:18:03Z</time></trkpt><trkpt lat="45.727277153852384" lon="11.657369103115055"><ele>88.0</ele><time>2026-04-06T15:18:04Z</time></trkpt><trkpt lat="45.727244162463556" lon="11.65694523256241"><ele>89.0</ele><time>2026-04-06T15:18:05.016Z</time></trkpt><trkpt lat="45.72721837295155" lon="11.656510337775352"><ele>88.5</ele><time>2026-04-06T15:18:06.024Z</time></trkpt><trkpt lat="45.727185266790684" lon="11.65607582382011"><ele>88.0</ele><time>2026-04-06T15:18:07.022Z</time></trkpt><trkpt lat="45.727192004711156" lon="11.655623862241125"><ele>88.0</ele><time>2026-04-06T15:18:08.023Z</time></trkpt><trkpt lat="45.72718194332531" lon="11.655173601015488"><ele>88.0</ele><time>2026-04-06T15:18:09.025Z</time></trkpt><trkpt lat="45.72639274415162" lon="11.649537077184439"><ele>85.0</ele><time>2026-04-06T15:18:21Z</time></trkpt><trkpt lat="45.72625804287871" lon="11.649088417505302"><ele>82.0</ele><time>2026-04-06T15:18:22Z</time></trkpt><trkpt lat="45.726118786067836" lon="11.648662624859336"><ele>82.0</ele><time>2026-04-06T15:18:23Z</time></trkpt><trkpt lat="45.72593825475733" lon="11.64824140158374"><ele>82.0</ele><time>2026-04-06T15:18:24Z</time></trkpt><trkpt lat="45.72575699738781" lon="11.647830863686274"><ele>82.5</ele><time>2026-04-06T15:18:25Z</time></trkpt><trkpt lat="45.72556350154504" lon="11.647426094988544"><ele>83.0</ele><time>2026-04-06T15:18:26Z</time></trkpt><trkpt lat="45.725359668949004" lon="11.6470341827387"><ele>83.0</ele><time>2026-04-06T15:18:27Z</time></trkpt><trkpt lat="45.72514509724888" lon="11.646658464138357"><ele>83.0</ele><time>2026-04-06T15:18:28Z</time></trkpt><trkpt lat="45.72491917584492" lon="11.64629739002795"><ele>83.0</ele><time>2026-04-06T15:18:29Z</time></trkpt><trkpt lat="45.72468253287921" lon="11.645944087677611"><ele>83.0</ele><time>2026-04-06T15:18:30Z</time></trkpt><trkpt lat="45.72443999757521" lon="11.645603983049977"><ele>82.5</ele><time>2026-04-06T15:18:31Z</time></trkpt><trkpt lat="45.72418882012077" lon="11.645277621842109"><ele>82.0</ele><time>2026-04-06T15:18:32Z</time></trkpt><trkpt lat="45.723905527150855" lon="11.644966103427066"><ele>82.0</ele><time>2026-04-06T15:18:33Z</time></trkpt><trkpt lat="45.72363314545115" lon="11.644674995735079"><ele>82.0</ele><time>2026-04-06T15:18:34Z</time></trkpt><trkpt lat="45.72335387409475" lon="11.644393570733834"><ele>81.5</ele><time>2026-04-06T15:18:35Z</time></trkpt><trkpt lat="45.72307300822777" lon="11.644118511383075"><ele>81.0</ele><time>2026-04-06T15:18:36Z</time></trkpt><trkpt lat="45.722792551749095" lon="11.643842849225168"><ele>80.5</ele><time>2026-04-06T15:18:37Z</time></trkpt><trkpt lat="45.72251508293271" lon="11.64356090754495"><ele>80.0</ele><time>2026-04-06T15:18:38Z</time></trkpt><trkpt lat="45.722237401442946" lon="11.643277620916763"><ele>80.0</ele><time>2026-04-06T15:18:39Z</time></trkpt><trkpt lat="45.72196135538079" lon="11.642991844441966"><ele>80.0</ele><time>2026-04-06T15:18:40Z</time></trkpt><trkpt lat="45.72168608768408" lon="11.642705404523458"><ele>81.0</ele><time>2026-04-06T15:18:41Z</time></trkpt><trkpt lat="45.7214108712068" lon="11.642419656412176"><ele>82.0</ele><time>2026-04-06T15:18:42Z</time></trkpt><trkpt lat="45.721137262914716" lon="11.642135788408568"><ele>81.5</ele><time>2026-04-06T15:18:43Z</time></trkpt><trkpt lat="45.72086093952069" lon="11.641853287348637"><ele>81.0</ele><time>2026-04-06T15:18:44Z</time></trkpt><trkpt lat="45.72058461039401" lon="11.641570809160774"><ele>81.0</ele><time>2026-04-06T15:18:45Z</time></trkpt><trkpt lat="45.720306813341665" lon="11.641285654243267"><ele>81.0</ele><time>2026-04-06T15:18:46Z</time></trkpt><trkpt lat="45.72003106562432" lon="11.640999476231496"><ele>81.0</ele><time>2026-04-06T15:18:47Z</time></trkpt><trkpt lat="45.719752927453186" lon="11.640712339765534"><ele>81.0</ele><time>2026-04-06T15:18:48Z</time></trkpt><trkpt lat="45.71947608548844" lon="11.640425865770963"><ele>81.5</ele><time>2026-04-06T15:18:49Z</time></trkpt><trkpt lat="45.719197679256354" lon="11.64014059871321"><ele>82.0</ele><time>2026-04-06T15:18:50Z</time></trkpt><trkpt lat="45.71891874827998" lon="11.639856074667279"><ele>82.0</ele><time>2026-04-06T15:18:51Z</time></trkpt><trkpt lat="45.71864069049619" lon="11.639570368467373"><ele>82.0</ele><time>2026-04-06T15:18:52Z</time></trkpt><trkpt lat="45.71836319488768" lon="11.63928547661882"><ele>82.5</ele><time>2026-04-06T15:18:53Z</time></trkpt><trkpt lat="45.71808604348699" lon="11.639000171249187"><ele>83.0</ele><time>2026-04-06T15:18:54Z</time></trkpt><trkpt lat="45.717809221522536" lon="11.638714943401963"><ele>82.0</ele><time>2026-04-06T15:18:55Z</time></trkpt><trkpt lat="45.71753187372624" lon="11.638428714017383"><ele>81.0</ele><time>2026-04-06T15:18:56Z</time></trkpt><trkpt lat="45.71725277665297" lon="11.638143370757742"><ele>81.0</ele><time>2026-04-06T15:18:57Z</time></trkpt><trkpt lat="45.7169741614014" lon="11.637858425655388"><ele>81.0</ele><time>2026-04-06T15:18:58Z</time></trkpt><trkpt lat="45.71669715513788" lon="11.637570302947331"><ele>81.0</ele><time>2026-04-06T15:18:59Z</time></trkpt><trkpt lat="45.71641980466" lon="11.63728271252407"><ele>81.0</ele><time>2026-04-06T15:19:00Z</time></trkpt><trkpt lat="45.71614287445609" lon="11.63699611982226"><ele>79.5</ele><time>2026-04-06T15:19:01Z</time></trkpt><trkpt lat="45.7158634496964" lon="11.636711464174473"><ele>78.0</ele><time>2026-04-06T15:19:02Z</time></trkpt><trkpt lat="45.71558552575625" lon="11.63642666861969"><ele>78.0</ele><time>2026-04-06T15:19:03Z</time></trkpt><trkpt lat="45.71530678087909" lon="11.636140081984218"><ele>78.0</ele><time>2026-04-06T15:19:04Z</time></trkpt><trkpt lat="45.71502751856562" lon="11.635853036240082"><ele>78.5</ele><time>2026-04-06T15:19:05Z</time></trkpt><trkpt lat="45.71475088954094" lon="11.635559827257955"><ele>79.0</ele><time>2026-04-06T15:19:06Z</time></trkpt><trkpt lat="45.71447859563912" lon="11.635258483413207"><ele>79.5</ele><time>2026-04-06T15:19:07Z</time></trkpt><trkpt lat="45.71421209861437" lon="11.634950145977845"><ele>80.0</ele><time>2026-04-06T15:19:08Z</time></trkpt><trkpt lat="45.713954242909494" lon="11.634629682257804"><ele>80.0</ele><time>2026-04-06T15:19:09Z</time></trkpt><trkpt lat="45.71369842315347" lon="11.634303976098366"><ele>80.0</ele><time>2026-04-06T15:19:10Z</time></trkpt><trkpt lat="45.71345134439733" lon="11.633966062438079"><ele>78.5</ele><time>2026-04-06T15:19:11Z</time></trkpt><trkpt lat="45.71321103369628" lon="11.633618026460706"><ele>77.0</ele><time>2026-04-06T15:19:12Z</time></trkpt><trkpt lat="45.712973874569656" lon="11.633264920146818"><ele>77.0</ele><time>2026-04-06T15:19:13Z</time></trkpt><trkpt lat="45.71274203060333" lon="11.632905932383462"><ele>77.0</ele><time>2026-04-06T15:19:14Z</time></trkpt><trkpt lat="45.71251698251595" lon="11.632539253967298"><ele>76.5</ele><time>2026-04-06T15:19:15Z</time></trkpt><trkpt lat="45.71229813904129" lon="11.632165341339892"><ele>76.0</ele><time>2026-04-06T15:19:16Z</time></trkpt><trkpt lat="45.7120878276951" lon="11.631783335281272"><ele>75.5</ele><time>2026-04-06T15:19:17Z</time></trkpt><trkpt lat="45.71188387954352" lon="11.631391842157575"><ele>75.0</ele><time>2026-04-06T15:19:18Z</time></trkpt><trkpt lat="45.71168706948171" lon="11.630997586468277"><ele>75.0</ele><time>2026-04-06T15:19:19Z</time></trkpt><trkpt lat="45.71150012842776" lon="11.630595077106335"><ele>75.0</ele><time>2026-04-06T15:19:20Z</time></trkpt><trkpt lat="45.7113188386636" lon="11.630184490079415"><ele>76.5</ele><time>2026-04-06T15:19:21Z</time></trkpt><trkpt lat="45.71114564835035" lon="11.629765267099264"><ele>78.0</ele><time>2026-04-06T15:19:22Z</time></trkpt><trkpt lat="45.710977355999525" lon="11.629340412196814"><ele>78.0</ele><time>2026-04-06T15:19:23Z</time></trkpt><trkpt lat="45.710815788589855" lon="11.628910172698749"><ele>78.0</ele><time>2026-04-06T15:19:24Z</time></trkpt><trkpt lat="45.71066202318634" lon="11.628473163888197"><ele>78.0</ele><time>2026-04-06T15:19:25Z</time></trkpt><trkpt lat="45.71051577150909" lon="11.628030562419182"><ele>78.0</ele><time>2026-04-06T15:19:26Z</time></trkpt><trkpt lat="45.71037900116127" lon="11.627581659096032"><ele>78.0</ele><time>2026-04-06T15:19:27Z</time></trkpt><trkpt lat="45.71025117693941" lon="11.62712810730962"><ele>78.0</ele><time>2026-04-06T15:19:28Z</time></trkpt><trkpt lat="45.710131230101766" lon="11.626671773313479"><ele>78.0</ele><time>2026-04-06T15:19:29Z</time></trkpt><trkpt lat="45.710021412523766" lon="11.626209202835474"><ele>78.0</ele><time>2026-04-06T15:19:30Z</time></trkpt><trkpt lat="45.70992198061775" lon="11.62574299610783"><ele>77.5</ele><time>2026-04-06T15:19:31Z</time></trkpt><trkpt lat="45.709827905190224" lon="11.625273043452326"><ele>77.0</ele><time>2026-04-06T15:19:32Z</time></trkpt><trkpt lat="45.7097393601819" lon="11.624801049610701"><ele>76.5</ele><time>2026-04-06T15:19:33Z</time></trkpt><trkpt lat="45.709652902215105" lon="11.62432733614769"><ele>76.0</ele><time>2026-04-06T15:19:34Z</time></trkpt><trkpt lat="45.70956995326836" lon="11.623852686974294"><ele>76.0</ele><time>2026-04-06T15:19:35Z</time></trkpt><trkpt lat="45.709489289502535" lon="11.623378568775316"><ele>76.0</ele><time>2026-04-06T15:19:36Z</time></trkpt><trkpt lat="45.70940909214067" lon="11.622901780672029"><ele>77.0</ele><time>2026-04-06T15:19:37Z</time></trkpt><trkpt lat="45.70932834929727" lon="11.622425256309688"><ele>78.0</ele><time>2026-04-06T15:19:38Z</time></trkpt><trkpt lat="45.709248846349965" lon="11.621949039770936"><ele>78.0</ele><time>2026-04-06T15:19:39Z</time></trkpt><trkpt lat="45.70916920743999" lon="11.621474474390231"><ele>78.0</ele><time>2026-04-06T15:19:40Z</time></trkpt><trkpt lat="45.709089774661805" lon="11.620999990654187"><ele>78.0</ele><time>2026-04-06T15:19:41Z</time></trkpt><trkpt lat="45.70901068751762" lon="11.620525794503662"><ele>78.0</ele><time>2026-04-06T15:19:42Z</time></trkpt><trkpt lat="45.70893271535543" lon="11.620050976050342"><ele>78.0</ele><time>2026-04-06T15:19:43Z</time></trkpt><trkpt lat="45.70885256983908" lon="11.619577853363293"><ele>78.0</ele><time>2026-04-06T15:19:44Z</time></trkpt><trkpt lat="45.70877336678308" lon="11.619104715855336"><ele>78.0</ele><time>2026-04-06T15:19:45Z</time></trkpt><trkpt lat="45.70868929670962" lon="11.618632914954745"><ele>78.0</ele><time>2026-04-06T15:19:46Z</time></trkpt><trkpt lat="45.70860323280194" lon="11.618161539869128"><ele>77.0</ele><time>2026-04-06T15:19:47Z</time></trkpt><trkpt lat="45.70851468309701" lon="11.617691286262307"><ele>76.0</ele><time>2026-04-06T15:19:48Z</time></trkpt><trkpt lat="45.70842439877233" lon="11.617220883702235"><ele>75.5</ele><time>2026-04-06T15:19:49Z</time></trkpt><trkpt lat="45.70833065809731" lon="11.616752794475518"><ele>75.0</ele><time>2026-04-06T15:19:50Z</time></trkpt><trkpt lat="45.70823382814774" lon="11.616284736803435"><ele>76.5</ele><time>2026-04-06T15:19:51Z</time></trkpt><trkpt lat="45.70813575751635" lon="11.615818241165462"><ele>78.0</ele><time>2026-04-06T15:19:52Z</time></trkpt><trkpt lat="45.708034597058166" lon="11.615352981675962"><ele>78.0</ele><time>2026-04-06T15:19:53Z</time></trkpt><trkpt lat="45.70793222197674" lon="11.614889599680627"><ele>78.0</ele><time>2026-04-06T15:19:54Z</time></trkpt><trkpt lat="45.707827221695254" lon="11.61442516820453"><ele>78.0</ele><time>2026-04-06T15:19:55Z</time></trkpt><trkpt lat="45.7077183063672" lon="11.613962754325126"><ele>78.0</ele><time>2026-04-06T15:19:56Z</time></trkpt><trkpt lat="45.70760931458963" lon="11.613503302244997"><ele>78.0</ele><time>2026-04-06T15:19:57Z</time></trkpt><trkpt lat="45.70749751880637" lon="11.613043920969819"><ele>78.0</ele><time>2026-04-06T15:19:58Z</time></trkpt><trkpt lat="45.70738389907859" lon="11.612585959354803"><ele>77.5</ele><time>2026-04-06T15:19:59Z</time></trkpt><trkpt lat="45.70726649504276" lon="11.612128586309948"><ele>77.0</ele><time>2026-04-06T15:20:00Z</time></trkpt><trkpt lat="45.70714686646757" lon="11.611672792973232"><ele>77.0</ele><time>2026-04-06T15:20:01Z</time></trkpt><trkpt lat="45.70702373532373" lon="11.611216125604757"><ele>77.0</ele><time>2026-04-06T15:20:02Z</time></trkpt><trkpt lat="45.70689988598553" lon="11.610759799571035"><ele>77.0</ele><time>2026-04-06T15:20:03Z</time></trkpt><trkpt lat="45.706773800381754" lon="11.610307279910772"><ele>77.0</ele><time>2026-04-06T15:20:04Z</time></trkpt><trkpt lat="45.706644009781094" lon="11.609857027208484"><ele>77.5</ele><time>2026-04-06T15:20:05Z</time></trkpt><trkpt lat="45.706510406323716" lon="11.609406885242786"><ele>78.0</ele><time>2026-04-06T15:20:06Z</time></trkpt><trkpt lat="45.70637618281807" lon="11.608958333426706"><ele>79.5</ele><time>2026-04-06T15:20:07Z</time></trkpt><trkpt lat="45.70623885852722" lon="11.608510024593546"><ele>81.0</ele><time>2026-04-06T15:20:08Z</time></trkpt><trkpt lat="45.7060998263924" lon="11.608064777391661"><ele>80.0</ele><time>2026-04-06T15:20:09Z</time></trkpt><trkpt lat="45.70596243835028" lon="11.60763221904085"><ele>79.0</ele><time>2026-04-06T15:20:10Z</time></trkpt><trkpt lat="45.70582226718929" lon="11.607202503869857"><ele>78.0</ele><time>2026-04-06T15:20:11Z</time></trkpt><trkpt lat="45.70569142887325" lon="11.606794202930404"><ele>77.0</ele><time>2026-04-06T15:20:12Z</time></trkpt><trkpt lat="45.70555160097846" lon="11.606391314421083"><ele>77.5</ele><time>2026-04-06T15:20:13Z</time></trkpt><trkpt lat="45.70540945428967" lon="11.605984775165453"><ele>78.0</ele><time>2026-04-06T15:20:14Z</time></trkpt><trkpt lat="45.70526487385213" lon="11.605571768796256"><ele>78.0</ele><time>2026-04-06T15:20:15Z</time></trkpt><trkpt lat="45.705115873962065" lon="11.605154027550942"><ele>78.0</ele><time>2026-04-06T15:20:16Z</time></trkpt><trkpt lat="45.70496699934268" lon="11.60473849951456"><ele>78.0</ele><time>2026-04-06T15:20:17Z</time></trkpt><trkpt lat="45.704819591832624" lon="11.60432032325339"><ele>78.0</ele><time>2026-04-06T15:20:18Z</time></trkpt><trkpt lat="45.70467171662811" lon="11.603900756704718"><ele>78.0</ele><time>2026-04-06T15:20:19Z</time></trkpt><trkpt lat="45.704525033495095" lon="11.603481026031512"><ele>78.0</ele><time>2026-04-06T15:20:20Z</time></trkpt><trkpt lat="45.70437877308247" lon="11.603061553825146"><ele>77.0</ele><time>2026-04-06T15:20:21Z</time></trkpt><trkpt lat="45.70423361624569" lon="11.60264811158628"><ele>76.0</ele><time>2026-04-06T15:20:22Z</time></trkpt><trkpt lat="45.70409463082752" lon="11.60225048580481"><ele>76.5</ele><time>2026-04-06T15:20:23Z</time></trkpt><trkpt lat="45.703958234513166" lon="11.601862059396861"><ele>77.0</ele><time>2026-04-06T15:20:24Z</time></trkpt><trkpt lat="45.703824862874214" lon="11.60147615566392"><ele>77.0</ele><time>2026-04-06T15:20:25Z</time></trkpt><trkpt lat="45.70368658904817" lon="11.60108016276748"><ele>77.0</ele><time>2026-04-06T15:20:26Z</time></trkpt><trkpt lat="45.70354833719027" lon="11.600674664773724"><ele>77.5</ele><time>2026-04-06T15:20:27Z</time></trkpt><trkpt lat="45.703418114307475" lon="11.600273109930665"><ele>78.0</ele><time>2026-04-06T15:20:28Z</time></trkpt><trkpt lat="45.703290644175205" lon="11.599874834281504"><ele>77.5</ele><time>2026-04-06T15:20:29Z</time></trkpt><trkpt lat="45.7031652708357" lon="11.599475714188669"><ele>77.0</ele><time>2026-04-06T15:20:30Z</time></trkpt><trkpt lat="45.7030455714313" lon="11.599080903209082"><ele>77.0</ele><time>2026-04-06T15:20:31Z</time></trkpt><trkpt lat="45.70292800572911" lon="11.598696973782497"><ele>77.0</ele><time>2026-04-06T15:20:32Z</time></trkpt><trkpt lat="45.70281321806792" lon="11.598322490888169"><ele>78.5</ele><time>2026-04-06T15:20:33Z</time></trkpt><trkpt lat="45.7026999260806" lon="11.597944336787792"><ele>80.0</ele><time>2026-04-06T15:20:34Z</time></trkpt><trkpt lat="45.702589476675236" lon="11.597560719189454"><ele>80.0</ele><time>2026-04-06T15:20:35Z</time></trkpt><trkpt lat="45.70247844719166" lon="11.597177853489528"><ele>80.0</ele><time>2026-04-06T15:20:36Z</time></trkpt><trkpt lat="45.70236975899203" lon="11.596807194783375"><ele>80.5</ele><time>2026-04-06T15:20:37Z</time></trkpt><trkpt lat="45.70226297040862" lon="11.596432851910844"><ele>81.0</ele><time>2026-04-06T15:20:38Z</time></trkpt><trkpt lat="45.7021536719116" lon="11.596050623624961"><ele>81.0</ele><time>2026-04-06T15:20:39Z</time></trkpt><trkpt lat="45.702038633488" lon="11.595663019782847"><ele>81.0</ele><time>2026-04-06T15:20:40Z</time></trkpt><trkpt lat="45.70192136967767" lon="11.59527177123973"><ele>81.5</ele><time>2026-04-06T15:20:41Z</time></trkpt><trkpt lat="45.7018054719761" lon="11.594879754713824"><ele>82.0</ele><time>2026-04-06T15:20:42Z</time></trkpt><trkpt lat="45.701691763019284" lon="11.59449145621807"><ele>82.0</ele><time>2026-04-06T15:20:43Z</time></trkpt><trkpt lat="45.7015785851913" lon="11.594102174835617"><ele>82.0</ele><time>2026-04-06T15:20:44Z</time></trkpt><trkpt lat="45.701468700394166" lon="11.59370969070166"><ele>82.0</ele><time>2026-04-06T15:20:45Z</time></trkpt><trkpt lat="45.70136004605436" lon="11.593308400449576"><ele>82.0</ele><time>2026-04-06T15:20:46Z</time></trkpt><trkpt lat="45.70124700946584" lon="11.592911492284543"><ele>82.5</ele><time>2026-04-06T15:20:47Z</time></trkpt><trkpt lat="45.70113035354566" lon="11.592517792047133"><ele>83.0</ele><time>2026-04-06T15:20:48Z</time></trkpt><trkpt lat="45.70101093567604" lon="11.592123807778599"><ele>83.5</ele><time>2026-04-06T15:20:49Z</time></trkpt><trkpt lat="45.70088876825183" lon="11.591727264827757"><ele>84.0</ele><time>2026-04-06T15:20:50Z</time></trkpt><trkpt lat="45.70076782557455" lon="11.591331119243483"><ele>84.0</ele><time>2026-04-06T15:20:51Z</time></trkpt><trkpt lat="45.70064956198946" lon="11.590935018946965"><ele>84.0</ele><time>2026-04-06T15:20:52Z</time></trkpt><trkpt lat="45.700533687553126" lon="11.590539311441841"><ele>84.0</ele><time>2026-04-06T15:20:53Z</time></trkpt><trkpt lat="45.70041886307082" lon="11.590146459544362"><ele>84.0</ele><time>2026-04-06T15:20:54Z</time></trkpt><trkpt lat="45.70029953498338" lon="11.589747672276033"><ele>86.0</ele><time>2026-04-06T15:20:55Z</time></trkpt><trkpt lat="45.700177314230984" lon="11.58934519781504"><ele>88.0</ele><time>2026-04-06T15:20:56Z</time></trkpt><trkpt lat="45.70005725952597" lon="11.588946167090224"><ele>88.0</ele><time>2026-04-06T15:20:57Z</time></trkpt><trkpt lat="45.699938294553654" lon="11.588542819742445"><ele>88.0</ele><time>2026-04-06T15:20:58Z</time></trkpt><trkpt lat="45.69981755590952" lon="11.588132743561099"><ele>88.5</ele><time>2026-04-06T15:20:59Z</time></trkpt><trkpt lat="45.699693957615196" lon="11.587714530315138"><ele>89.0</ele><time>2026-04-06T15:21:00Z</time></trkpt><trkpt lat="45.69956672140813" lon="11.58729118022569"><ele>89.5</ele><time>2026-04-06T15:21:01Z</time></trkpt><trkpt lat="45.6994395783735" lon="11.586864694488813"><ele>90.0</ele><time>2026-04-06T15:21:02Z</time></trkpt><trkpt lat="45.699312312075854" lon="11.586434936648615"><ele>90.0</ele><time>2026-04-06T15:21:03Z</time></trkpt><trkpt lat="45.69918587286119" lon="11.585997812225601"><ele>90.0</ele><time>2026-04-06T15:21:04Z</time></trkpt><trkpt lat="45.69905887968222" lon="11.585552352726825"><ele>90.0</ele><time>2026-04-06T15:21:05Z</time></trkpt><trkpt lat="45.69892955799658" lon="11.585107077778845"><ele>90.0</ele><time>2026-04-06T15:21:06Z</time></trkpt><trkpt lat="45.69879911488999" lon="11.584665602599205"><ele>90.0</ele><time>2026-04-06T15:21:07Z</time></trkpt><trkpt lat="45.698668526085065" lon="11.584225394299127"><ele>90.0</ele><time>2026-04-06T15:21:08Z</time></trkpt><trkpt lat="45.698538747600104" lon="11.583785523490953"><ele>90.5</ele><time>2026-04-06T15:21:09Z</time></trkpt><trkpt lat="45.69841034562975" lon="11.58333585666794"><ele>91.0</ele><time>2026-04-06T15:21:10Z</time></trkpt><trkpt lat="45.698279623202026" lon="11.582884279563029"><ele>91.5</ele><time>2026-04-06T15:21:11Z</time></trkpt><trkpt lat="45.69814756987675" lon="11.582430957513887"><ele>92.0</ele><time>2026-04-06T15:21:12Z</time></trkpt><trkpt lat="45.69801644250884" lon="11.581977903450227"><ele>92.5</ele><time>2026-04-06T15:21:13Z</time></trkpt><trkpt lat="45.697888465952836" lon="11.5815239184713"><ele>93.0</ele><time>2026-04-06T15:21:14Z</time></trkpt><trkpt lat="45.69776509698146" lon="11.581069369255527"><ele>93.5</ele><time>2026-04-06T15:21:15Z</time></trkpt><trkpt lat="45.69764698053166" lon="11.58061186639676"><ele>94.0</ele><time>2026-04-06T15:21:16Z</time></trkpt><trkpt lat="45.697530957062966" lon="11.580152520677643"><ele>94.5</ele><time>2026-04-06T15:21:17Z</time></trkpt><trkpt lat="45.69741924019965" lon="11.579691881115892"><ele>95.0</ele><time>2026-04-06T15:21:18Z</time></trkpt><trkpt lat="45.69731301199729" lon="11.579228865205458"><ele>95.0</ele><time>2026-04-06T15:21:19Z</time></trkpt><trkpt lat="45.69721224051733" lon="11.578763120528883"><ele>95.0</ele><time>2026-04-06T15:21:20Z</time></trkpt><trkpt lat="45.697115133329" lon="11.578293407509491"><ele>94.5</ele><time>2026-04-06T15:21:21Z</time></trkpt><trkpt lat="45.69701811623765" lon="11.57782369429826"><ele>94.0</ele><time>2026-04-06T15:21:22Z</time></trkpt><trkpt lat="45.69692477436141" lon="11.57735143476982"><ele>93.5</ele><time>2026-04-06T15:21:23Z</time></trkpt><trkpt lat="45.69683445799313" lon="11.576882673185656"><ele>93.0</ele><time>2026-04-06T15:21:24Z</time></trkpt><trkpt lat="45.696750993552456" lon="11.576410279619084"><ele>93.5</ele><time>2026-04-06T15:21:25Z</time></trkpt><trkpt lat="45.69667143098159" lon="11.575937467962008"><ele>94.0</ele><time>2026-04-06T15:21:26Z</time></trkpt><trkpt lat="45.69659543463957" lon="11.575462118078175"><ele>94.5</ele><time>2026-04-06T15:21:27Z</time></trkpt><trkpt lat="45.696524980101806" lon="11.57498435496796"><ele>95.0</ele><time>2026-04-06T15:21:28Z</time></trkpt><trkpt lat="45.696458990570775" lon="11.574506074645237"><ele>95.0</ele><time>2026-04-06T15:21:29Z</time></trkpt><trkpt lat="45.696397313128465" lon="11.57402603229379"><ele>95.0</ele><time>2026-04-06T15:21:30Z</time></trkpt><trkpt lat="45.69634087109187" lon="11.573544527298811"><ele>95.0</ele><time>2026-04-06T15:21:31Z</time></trkpt><trkpt lat="45.696287716075254" lon="11.573061828467049"><ele>95.0</ele><time>2026-04-06T15:21:32Z</time></trkpt><trkpt lat="45.69623785812176" lon="11.572579351234172"><ele>95.5</ele><time>2026-04-06T15:21:33Z</time></trkpt><trkpt lat="45.69619290291188" lon="11.572095782103082"><ele>96.0</ele><time>2026-04-06T15:21:34Z</time></trkpt><trkpt lat="45.69615216782152" lon="11.57161254779146"><ele>95.5</ele><time>2026-04-06T15:21:35Z</time></trkpt><trkpt lat="45.69611562247626" lon="11.571129787835527"><ele>95.0</ele><time>2026-04-06T15:21:36Z</time></trkpt><trkpt lat="45.696080820101336" lon="11.57064535226184"><ele>95.5</ele><time>2026-04-06T15:21:37Z</time></trkpt><trkpt lat="45.69605129154071" lon="11.570159813825509"><ele>96.0</ele><time>2026-04-06T15:21:38Z</time></trkpt><trkpt lat="45.6960275031658" lon="11.569673947424885"><ele>96.0</ele><time>2026-04-06T15:21:39Z</time></trkpt><trkpt lat="45.69600659409295" lon="11.569188350297104"><ele>96.0</ele><time>2026-04-06T15:21:40Z</time></trkpt><trkpt lat="45.695986768850304" lon="11.568701997770258"><ele>96.5</ele><time>2026-04-06T15:21:41Z</time></trkpt><trkpt lat="45.695969080698774" lon="11.568215745852543"><ele>97.0</ele><time>2026-04-06T15:21:42Z</time></trkpt><trkpt lat="45.69595455717661" lon="11.567728455159935"><ele>97.5</ele><time>2026-04-06T15:21:43Z</time></trkpt><trkpt lat="45.69594091832708" lon="11.567239561193313"><ele>98.0</ele><time>2026-04-06T15:21:44Z</time></trkpt><trkpt lat="45.695927020322024" lon="11.566752591913414"><ele>97.5</ele><time>2026-04-06T15:21:45Z</time></trkpt><trkpt lat="45.69591442997737" lon="11.566265284164382"><ele>97.0</ele><time>2026-04-06T15:21:46Z</time></trkpt><trkpt lat="45.6959025558558" lon="11.565779039078917"><ele>98.5</ele><time>2026-04-06T15:21:47Z</time></trkpt><trkpt lat="45.69589133295472" lon="11.565291489548121"><ele>100.0</ele><time>2026-04-06T15:21:48Z</time></trkpt><trkpt lat="45.69588122818774" lon="11.564804707755512"><ele>101.0</ele><time>2026-04-06T15:21:49Z</time></trkpt><trkpt lat="45.69587162605275" lon="11.564316667695378"><ele>102.0</ele><time>2026-04-06T15:21:50Z</time></trkpt><trkpt lat="45.69586100005634" lon="11.563828742190296"><ele>101.5</ele><time>2026-04-06T15:21:51Z</time></trkpt><trkpt lat="45.695849662465456" lon="11.563342509440938"><ele>101.0</ele><time>2026-04-06T15:21:52Z</time></trkpt><trkpt lat="45.695836216616485" lon="11.562855676633609"><ele>101.0</ele><time>2026-04-06T15:21:53Z</time></trkpt><trkpt lat="45.6958217591625" lon="11.562365081176635"><ele>101.0</ele><time>2026-04-06T15:21:54Z</time></trkpt><trkpt lat="45.69579881240186" lon="11.561878358932352"><ele>101.0</ele><time>2026-04-06T15:21:55Z</time></trkpt><trkpt lat="45.69577637622711" lon="11.561393798740514"><ele>101.0</ele><time>2026-04-06T15:21:56Z</time></trkpt><trkpt lat="45.69575494214336" lon="11.560908973372834"><ele>101.5</ele><time>2026-04-06T15:21:57Z</time></trkpt><trkpt lat="45.695735867576175" lon="11.560423624274874"><ele>102.0</ele><time>2026-04-06T15:21:58Z</time></trkpt><trkpt lat="45.69571408637613" lon="11.55993788895686"><ele>102.5</ele><time>2026-04-06T15:21:59Z</time></trkpt><trkpt lat="45.69569361570025" lon="11.559453483199304"><ele>103.0</ele><time>2026-04-06T15:22:00Z</time></trkpt><trkpt lat="45.69567069292582" lon="11.558968741672793"><ele>103.0</ele><time>2026-04-06T15:22:01Z</time></trkpt><trkpt lat="45.695646337791" lon="11.558482312391433"><ele>103.0</ele><time>2026-04-06T15:22:02Z</time></trkpt><trkpt lat="45.695619427436846" lon="11.557997529054601"><ele>103.0</ele><time>2026-04-06T15:22:03Z</time></trkpt><trkpt lat="45.69559130792556" lon="11.55751366162119"><ele>103.0</ele><time>2026-04-06T15:22:04Z</time></trkpt><trkpt lat="45.69556284088375" lon="11.55702948755944"><ele>104.0</ele><time>2026-04-06T15:22:05Z</time></trkpt><trkpt lat="45.69553063258066" lon="11.556544780344787"><ele>105.0</ele><time>2026-04-06T15:22:06Z</time></trkpt><trkpt lat="45.69549672788154" lon="11.556059902915482"><ele>105.0</ele><time>2026-04-06T15:22:07Z</time></trkpt><trkpt lat="45.695462987088675" lon="11.555576754782487"><ele>105.0</ele><time>2026-04-06T15:22:08Z</time></trkpt><trkpt lat="45.69542649265697" lon="11.555093588175463"><ele>104.5</ele><time>2026-04-06T15:22:09Z</time></trkpt><trkpt lat="45.69539121385395" lon="11.55461039426814"><ele>104.0</ele><time>2026-04-06T15:22:10Z</time></trkpt><trkpt lat="45.6953511494547" lon="11.554125631163252"><ele>102.5</ele><time>2026-04-06T15:22:11Z</time></trkpt><trkpt lat="45.69531199143815" lon="11.553641231527587"><ele>101.0</ele><time>2026-04-06T15:22:12Z</time></trkpt><trkpt lat="45.69527220586384" lon="11.553157259186847"><ele>101.0</ele><time>2026-04-06T15:22:13Z</time></trkpt><trkpt lat="45.695230760899804" lon="11.552675651006096"><ele>101.0</ele><time>2026-04-06T15:22:14Z</time></trkpt><trkpt lat="45.69518861965339" lon="11.552193208738883"><ele>101.5</ele><time>2026-04-06T15:22:15Z</time></trkpt><trkpt lat="45.69514277814373" lon="11.55171087271789"><ele>102.0</ele><time>2026-04-06T15:22:16Z</time></trkpt><trkpt lat="45.695096956673986" lon="11.551228447457204"><ele>101.0</ele><time>2026-04-06T15:22:17Z</time></trkpt><trkpt lat="45.69504879864653" lon="11.550747195867938"><ele>100.0</ele><time>2026-04-06T15:22:18Z</time></trkpt><trkpt lat="45.69499891383444" lon="11.550264487326652"><ele>98.0</ele><time>2026-04-06T15:22:19Z</time></trkpt><trkpt lat="45.69494656183333" lon="11.549782187168503"><ele>96.0</ele><time>2026-04-06T15:22:20Z</time></trkpt><trkpt lat="45.69489375580689" lon="11.549297875879336"><ele>95.5</ele><time>2026-04-06T15:22:21Z</time></trkpt><trkpt lat="45.69484162169102" lon="11.548814673076345"><ele>95.0</ele><time>2026-04-06T15:22:22Z</time></trkpt><trkpt lat="45.694789708112694" lon="11.548328395161802"><ele>99.0</ele><time>2026-04-06T15:22:23Z</time></trkpt><trkpt lat="45.694736252031326" lon="11.547845095017449"><ele>103.0</ele><time>2026-04-06T15:22:24Z</time></trkpt><trkpt lat="45.694683918682465" lon="11.547361653174468"><ele>102.5</ele><time>2026-04-06T15:22:25Z</time></trkpt><trkpt lat="45.6946317888186" lon="11.546878713955936"><ele>102.0</ele><time>2026-04-06T15:22:26Z</time></trkpt><trkpt lat="45.69458004251732" lon="11.54639595815775"><ele>100.0</ele><time>2026-04-06T15:22:27Z</time></trkpt><trkpt lat="45.694527001365564" lon="11.545912551244513"><ele>98.0</ele><time>2026-04-06T15:22:28Z</time></trkpt><trkpt lat="45.69447371926949" lon="11.545430178656192"><ele>100.0</ele><time>2026-04-06T15:22:29Z</time></trkpt><trkpt lat="45.6944209587267" lon="11.544946834127925"><ele>102.0</ele><time>2026-04-06T15:22:30Z</time></trkpt><trkpt lat="45.69436734348851" lon="11.54446440477765"><ele>102.0</ele><time>2026-04-06T15:22:31Z</time></trkpt><trkpt lat="45.69431225111246" lon="11.543982620465224"><ele>102.0</ele><time>2026-04-06T15:22:32Z</time></trkpt><trkpt lat="45.694255918005254" lon="11.54349892213806"><ele>102.0</ele><time>2026-04-06T15:22:33Z</time></trkpt><trkpt lat="45.69419369587437" lon="11.543016232694036"><ele>102.0</ele><time>2026-04-06T15:22:34Z</time></trkpt><trkpt lat="45.694122757660885" lon="11.542538004397345"><ele>102.5</ele><time>2026-04-06T15:22:35Z</time></trkpt><trkpt lat="45.694042779894964" lon="11.542061520476059"><ele>103.0</ele><time>2026-04-06T15:22:36Z</time></trkpt><trkpt lat="45.69395487413208" lon="11.541590373586708"><ele>103.5</ele><time>2026-04-06T15:22:37Z</time></trkpt><trkpt lat="45.693858474773506" lon="11.541121525452345"><ele>104.0</ele><time>2026-04-06T15:22:38Z</time></trkpt><trkpt lat="45.69375335694052" lon="11.54065556400164"><ele>104.0</ele><time>2026-04-06T15:22:39Z</time></trkpt><trkpt lat="45.69363852320988" lon="11.540195416412969"><ele>104.0</ele><time>2026-04-06T15:22:40Z</time></trkpt><trkpt lat="45.69351873598694" lon="11.5397351184435"><ele>105.0</ele><time>2026-04-06T15:22:41Z</time></trkpt><trkpt lat="45.69339155318756" lon="11.539280039718696"><ele>106.0</ele><time>2026-04-06T15:22:42Z</time></trkpt><trkpt lat="45.69325305252616" lon="11.53882365976148"><ele>105.0</ele><time>2026-04-06T15:22:43.015Z</time></trkpt><trkpt lat="45.69310773751539" lon="11.538380215345994"><ele>104.0</ele><time>2026-04-06T15:22:44.014Z</time></trkpt><trkpt lat="45.69295590597044" lon="11.537940501236667"><ele>104.0</ele><time>2026-04-06T15:22:45.014Z</time></trkpt><trkpt lat="45.692795919774035" lon="11.537518000389477"><ele>104.0</ele><time>2026-04-06T15:22:46Z</time></trkpt><trkpt lat="45.69263357030958" lon="11.537100724484008"><ele>103.0</ele><time>2026-04-06T15:22:47Z</time></trkpt><trkpt lat="45.6924602714779" lon="11.536679793724986"><ele>102.0</ele><time>2026-04-06T15:22:48Z</time></trkpt><trkpt lat="45.692280613897516" lon="11.536266724438583"><ele>102.0</ele><time>2026-04-06T15:22:49Z</time></trkpt><trkpt lat="45.692095930385904" lon="11.535861796628007"><ele>102.0</ele><time>2026-04-06T15:22:50Z</time></trkpt><trkpt lat="45.691902430621504" lon="11.53546119048862"><ele>102.5</ele><time>2026-04-06T15:22:51Z</time></trkpt><trkpt lat="45.69169802186002" lon="11.535069502919468"><ele>103.0</ele><time>2026-04-06T15:22:52Z</time></trkpt><trkpt lat="45.691489092048144" lon="11.534686732599825"><ele>102.5</ele><time>2026-04-06T15:22:53Z</time></trkpt><trkpt lat="45.69126896571361" lon="11.53430900881673"><ele>102.0</ele><time>2026-04-06T15:22:54Z</time></trkpt><trkpt lat="45.691043492739574" lon="11.53394247966229"><ele>102.5</ele><time>2026-04-06T15:22:55Z</time></trkpt><trkpt lat="45.690811697073656" lon="11.533582947257344"><ele>103.0</ele><time>2026-04-06T15:22:56Z</time></trkpt><trkpt lat="45.690579382480834" lon="11.533224648997768"><ele>102.5</ele><time>2026-04-06T15:22:57Z</time></trkpt><trkpt lat="45.690346800167404" lon="11.53286654675152"><ele>102.0</ele><time>2026-04-06T15:22:58Z</time></trkpt><trkpt lat="45.69011429936141" lon="11.532505610070933"><ele>102.0</ele><time>2026-04-06T15:22:59Z</time></trkpt><trkpt lat="45.68988547242291" lon="11.53214415418385"><ele>102.0</ele><time>2026-04-06T15:23:00Z</time></trkpt><trkpt lat="45.68965762655489" lon="11.531781391660193"><ele>101.5</ele><time>2026-04-06T15:23:01Z</time></trkpt><trkpt lat="45.68942731962438" lon="11.531419244566317"><ele>101.0</ele><time>2026-04-06T15:23:02Z</time></trkpt><trkpt lat="45.689195685401565" lon="11.531058605500677"><ele>100.0</ele><time>2026-04-06T15:23:03Z</time></trkpt><trkpt lat="45.68895726913746" lon="11.530692012911885"><ele>99.0</ele><time>2026-04-06T15:23:04.02Z</time></trkpt><trkpt lat="45.688722177123196" lon="11.530335080825456"><ele>98.0</ele><time>2026-04-06T15:23:05.016Z</time></trkpt><trkpt lat="45.68848601170229" lon="11.529976073607973"><ele>97.0</ele><time>2026-04-06T15:23:06.017Z</time></trkpt><trkpt lat="45.68824848828738" lon="11.529615489580397"><ele>94.0</ele><time>2026-04-06T15:23:07.022Z</time></trkpt><trkpt lat="45.68552970890485" lon="11.525233536969427"><ele>94.0</ele><time>2026-04-06T15:23:19Z</time></trkpt><trkpt lat="45.68530323637781" lon="11.524868118329097"><ele>94.0</ele><time>2026-04-06T15:23:20Z</time></trkpt><trkpt lat="45.68508507227607" lon="11.524488578484297"><ele>91.5</ele><time>2026-04-06T15:23:21Z</time></trkpt><trkpt lat="45.68486799212351" lon="11.524120902485706"><ele>89.0</ele><time>2026-04-06T15:23:22Z</time></trkpt><trkpt lat="45.68464465033222" lon="11.52375644903713"><ele>89.5</ele><time>2026-04-06T15:23:23Z</time></trkpt><trkpt lat="45.6844130339729" lon="11.523401945629317"><ele>90.0</ele><time>2026-04-06T15:23:24Z</time></trkpt><trkpt lat="45.68416930845837" lon="11.52306372412461"><ele>89.0</ele><time>2026-04-06T15:23:25Z</time></trkpt><trkpt lat="45.68391645891666" lon="11.52273459433833"><ele>88.0</ele><time>2026-04-06T15:23:26Z</time></trkpt><trkpt lat="45.68365406818173" lon="11.522421375321105"><ele>88.5</ele><time>2026-04-06T15:23:27Z</time></trkpt><trkpt lat="45.683387504602145" lon="11.52211698350606"><ele>89.0</ele><time>2026-04-06T15:23:28Z</time></trkpt><trkpt lat="45.683114393681684" lon="11.52181986285916"><ele>89.5</ele><time>2026-04-06T15:23:29Z</time></trkpt><trkpt lat="45.68283816846843" lon="11.521534920735093"><ele>90.0</ele><time>2026-04-06T15:23:30Z</time></trkpt><trkpt lat="45.682554933094174" lon="11.521265823783688"><ele>89.0</ele><time>2026-04-06T15:23:31Z</time></trkpt><trkpt lat="45.68226687453491" lon="11.521009168023937"><ele>88.0</ele><time>2026-04-06T15:23:32Z</time></trkpt><trkpt lat="45.68197221913922" lon="11.52076592972646"><ele>87.5</ele><time>2026-04-06T15:23:33Z</time></trkpt><trkpt lat="45.68167060180284" lon="11.520536242514755"><ele>87.0</ele><time>2026-04-06T15:23:34Z</time></trkpt><trkpt lat="45.68136479973363" lon="11.5203157843985"><ele>87.0</ele><time>2026-04-06T15:23:35Z</time></trkpt><trkpt lat="45.68105586024508" lon="11.520109788887448"><ele>87.0</ele><time>2026-04-06T15:23:36Z</time></trkpt><trkpt lat="45.68074347437617" lon="11.519915368783128"><ele>87.0</ele><time>2026-04-06T15:23:37Z</time></trkpt><trkpt lat="45.68042412671009" lon="11.519735429475762"><ele>87.0</ele><time>2026-04-06T15:23:38Z</time></trkpt><trkpt lat="45.680103035339116" lon="11.51956961405308"><ele>87.0</ele><time>2026-04-06T15:23:39Z</time></trkpt><trkpt lat="45.67977762411734" lon="11.519420351370512"><ele>87.0</ele><time>2026-04-06T15:23:40Z</time></trkpt><trkpt lat="45.67945041230982" lon="11.519284523056257"><ele>86.5</ele><time>2026-04-06T15:23:41Z</time></trkpt><trkpt lat="45.67911814030156" lon="11.519165743765388"><ele>86.0</ele><time>2026-04-06T15:23:42Z</time></trkpt><trkpt lat="45.678784809608665" lon="11.519058213762682"><ele>85.0</ele><time>2026-04-06T15:23:43Z</time></trkpt><trkpt lat="45.678449804982755" lon="11.518967711651015"><ele>84.0</ele><time>2026-04-06T15:23:44Z</time></trkpt><trkpt lat="45.678112741676614" lon="11.518895807712173"><ele>84.0</ele><time>2026-04-06T15:23:45Z</time></trkpt><trkpt lat="45.67777255037322" lon="11.518837359837542"><ele>84.0</ele><time>2026-04-06T15:23:46Z</time></trkpt><trkpt lat="45.67743234625859" lon="11.518787086356975"><ele>84.0</ele><time>2026-04-06T15:23:47Z</time></trkpt><trkpt lat="45.67709301620582" lon="11.518739275756483"><ele>84.0</ele><time>2026-04-06T15:23:48Z</time></trkpt><trkpt lat="45.67675259524161" lon="11.518695871610868"><ele>84.5</ele><time>2026-04-06T15:23:49Z</time></trkpt><trkpt lat="45.6764101352546" lon="11.518650668940845"><ele>85.0</ele><time>2026-04-06T15:23:50Z</time></trkpt><trkpt lat="45.67606959244367" lon="11.51860056817076"><ele>83.5</ele><time>2026-04-06T15:23:51Z</time></trkpt><trkpt lat="45.675730486619756" lon="11.518545797113264"><ele>82.0</ele><time>2026-04-06T15:23:52Z</time></trkpt><trkpt lat="45.67539005865705" lon="11.518489035762444"><ele>82.5</ele><time>2026-04-06T15:23:53Z</time></trkpt><trkpt lat="45.67505063294109" lon="11.518433281285517"><ele>83.0</ele><time>2026-04-06T15:23:54Z</time></trkpt><trkpt lat="45.67471272141987" lon="11.518372049698407"><ele>81.0</ele><time>2026-04-06T15:23:55Z</time></trkpt><trkpt lat="45.67437324752528" lon="11.518308180731731"><ele>79.0</ele><time>2026-04-06T15:23:56Z</time></trkpt><trkpt lat="45.674035590741084" lon="11.518233815640844"><ele>79.0</ele><time>2026-04-06T15:23:57Z</time></trkpt><trkpt lat="45.673700004492844" lon="11.518143758780166"><ele>79.0</ele><time>2026-04-06T15:23:58Z</time></trkpt><trkpt lat="45.67336576903579" lon="11.518040106341806"><ele>78.0</ele><time>2026-04-06T15:23:59Z</time></trkpt><trkpt lat="45.67303428682978" lon="11.517920610828257"><ele>77.0</ele><time>2026-04-06T15:24:00Z</time></trkpt><trkpt lat="45.672706809836185" lon="11.517781380848776"><ele>79.0</ele><time>2026-04-06T15:24:01Z</time></trkpt><trkpt lat="45.67238249597483" lon="11.517625452685976"><ele>81.0</ele><time>2026-04-06T15:24:02Z</time></trkpt><trkpt lat="45.67206110795847" lon="11.517450978559907"><ele>81.0</ele><time>2026-04-06T15:24:03Z</time></trkpt><trkpt lat="45.671744743342266" lon="11.517261938564623"><ele>81.0</ele><time>2026-04-06T15:24:04Z</time></trkpt><trkpt lat="45.67143450239846" lon="11.51705451085932"><ele>81.0</ele><time>2026-04-06T15:24:05Z</time></trkpt><trkpt lat="45.67112745164201" lon="11.51683745588646"><ele>81.0</ele><time>2026-04-06T15:24:06Z</time></trkpt><trkpt lat="45.670826985885284" lon="11.516604462364104"><ele>81.0</ele><time>2026-04-06T15:24:07Z</time></trkpt><trkpt lat="45.670531796945944" lon="11.516362587971523"><ele>81.0</ele><time>2026-04-06T15:24:08Z</time></trkpt><trkpt lat="45.67024099844102" lon="11.516108378655584"><ele>80.0</ele><time>2026-04-06T15:24:09Z</time></trkpt><trkpt lat="45.669956448199706" lon="11.515842386669766"><ele>79.0</ele><time>2026-04-06T15:24:10Z</time></trkpt><trkpt lat="45.66968087349527" lon="11.51555894859966"><ele>79.0</ele><time>2026-04-06T15:24:11Z</time></trkpt><trkpt lat="45.669412860321685" lon="11.515246034284493"><ele>79.0</ele><time>2026-04-06T15:24:12Z</time></trkpt><trkpt lat="45.66915428609856" lon="11.514926048010697"><ele>79.0</ele><time>2026-04-06T15:24:13Z</time></trkpt><trkpt lat="45.6689048456849" lon="11.514595566606133"><ele>79.0</ele><time>2026-04-06T15:24:14Z</time></trkpt><trkpt lat="45.66866319045698" lon="11.514254331239385"><ele>79.0</ele><time>2026-04-06T15:24:15Z</time></trkpt><trkpt lat="45.66843030731321" lon="11.513901263042293"><ele>79.0</ele><time>2026-04-06T15:24:16Z</time></trkpt><trkpt lat="45.668206989804425" lon="11.51353570516322"><ele>78.5</ele><time>2026-04-06T15:24:17Z</time></trkpt><trkpt lat="45.66799147271641" lon="11.51315986968936"><ele>78.0</ele><time>2026-04-06T15:24:18Z</time></trkpt><trkpt lat="45.66778325866782" lon="11.512776839555805"><ele>77.5</ele><time>2026-04-06T15:24:19Z</time></trkpt><trkpt lat="45.667584717867655" lon="11.512385759127415"><ele>77.0</ele><time>2026-04-06T15:24:20Z</time></trkpt><trkpt lat="45.66739701044522" lon="11.511985833783717"><ele>77.0</ele><time>2026-04-06T15:24:21Z</time></trkpt><trkpt lat="45.66722062463273" lon="11.511567931594518"><ele>77.0</ele><time>2026-04-06T15:24:22Z</time></trkpt><trkpt lat="45.667049735529574" lon="11.511144077673384"><ele>77.0</ele><time>2026-04-06T15:24:23Z</time></trkpt><trkpt lat="45.66688797777706" lon="11.510710151770196"><ele>77.0</ele><time>2026-04-06T15:24:24Z</time></trkpt><trkpt lat="45.66673689749561" lon="11.510271844287995"><ele>76.5</ele><time>2026-04-06T15:24:25Z</time></trkpt><trkpt lat="45.66660071926373" lon="11.509821518607469"><ele>76.0</ele><time>2026-04-06T15:24:26Z</time></trkpt><trkpt lat="45.66647138216342" lon="11.509367722635268"><ele>76.0</ele><time>2026-04-06T15:24:27Z</time></trkpt><trkpt lat="45.66634709776481" lon="11.508911430112507"><ele>76.0</ele><time>2026-04-06T15:24:28Z</time></trkpt><trkpt lat="45.666231814825764" lon="11.508449961011486"><ele>75.5</ele><time>2026-04-06T15:24:29Z</time></trkpt><trkpt lat="45.66611988533078" lon="11.507989841633727"><ele>75.0</ele><time>2026-04-06T15:24:30Z</time></trkpt><trkpt lat="45.666007281874194" lon="11.507527914930723"><ele>76.0</ele><time>2026-04-06T15:24:31Z</time></trkpt><trkpt lat="45.66589580477932" lon="11.50706545171414"><ele>77.0</ele><time>2026-04-06T15:24:32Z</time></trkpt><trkpt lat="45.66578711154168" lon="11.506600551936778"><ele>77.5</ele><time>2026-04-06T15:24:33Z</time></trkpt><trkpt lat="45.66567265727694" lon="11.50613930715331"><ele>78.0</ele><time>2026-04-06T15:24:34Z</time></trkpt><trkpt lat="45.66556140370329" lon="11.50567947680223"><ele>78.5</ele><time>2026-04-06T15:24:35Z</time></trkpt><trkpt lat="45.66545246673237" lon="11.505217461450151"><ele>79.0</ele><time>2026-04-06T15:24:36Z</time></trkpt><trkpt lat="45.66534646093381" lon="11.504754008355349"><ele>76.5</ele><time>2026-04-06T15:24:37Z</time></trkpt><trkpt lat="45.66523935521509" lon="11.504289499258986"><ele>74.0</ele><time>2026-04-06T15:24:38Z</time></trkpt><trkpt lat="45.66513178955591" lon="11.503827704328275"><ele>75.5</ele><time>2026-04-06T15:24:39Z</time></trkpt><trkpt lat="45.665020628974574" lon="11.503366408335518"><ele>77.0</ele><time>2026-04-06T15:24:40Z</time></trkpt><trkpt lat="45.664908714562465" lon="11.50290517420079"><ele>76.5</ele><time>2026-04-06T15:24:41Z</time></trkpt><trkpt lat="45.66479789743349" lon="11.502444297730204"><ele>76.0</ele><time>2026-04-06T15:24:42Z</time></trkpt><trkpt lat="45.664687150251645" lon="11.501982715510785"><ele>76.0</ele><time>2026-04-06T15:24:43Z</time></trkpt><trkpt lat="45.66457928159882" lon="11.501519056175411"><ele>76.0</ele><time>2026-04-06T15:24:44Z</time></trkpt><trkpt lat="45.66447310447582" lon="11.50105618299555"><ele>76.0</ele><time>2026-04-06T15:24:45Z</time></trkpt><trkpt lat="45.66436613132647" lon="11.500592283644579"><ele>76.0</ele><time>2026-04-06T15:24:46Z</time></trkpt><trkpt lat="45.664253936618195" lon="11.50012307011871"><ele>76.5</ele><time>2026-04-06T15:24:47.017Z</time></trkpt><trkpt lat="45.66414167046762" lon="11.499657355384036"><ele>77.0</ele><time>2026-04-06T15:24:48.024Z</time></trkpt><trkpt lat="45.664030255766775" lon="11.499195319255929"><ele>76.5</ele><time>2026-04-06T15:24:49.022Z</time></trkpt><trkpt lat="45.66391926085778" lon="11.498734606436743"><ele>76.0</ele><time>2026-04-06T15:24:50.017Z</time></trkpt><trkpt lat="45.66380966637243" lon="11.498279122419818"><ele>76.0</ele><time>2026-04-06T15:24:51Z</time></trkpt><trkpt lat="45.66369736682981" lon="11.49782551824768"><ele>76.0</ele><time>2026-04-06T15:24:52Z</time></trkpt><trkpt lat="45.66358837566682" lon="11.497361869728662"><ele>77.5</ele><time>2026-04-06T15:24:53Z</time></trkpt><trkpt lat="45.663481984248264" lon="11.496899459508494"><ele>79.0</ele><time>2026-04-06T15:24:54Z</time></trkpt><trkpt lat="45.663374876002905" lon="11.496437475374025"><ele>79.0</ele><time>2026-04-06T15:24:55Z</time></trkpt><trkpt lat="45.66326740077788" lon="11.495978061466637"><ele>79.0</ele><time>2026-04-06T15:24:56Z</time></trkpt><trkpt lat="45.66315720859841" lon="11.495518368910632"><ele>79.5</ele><time>2026-04-06T15:24:57Z</time></trkpt><trkpt lat="45.66304397412163" lon="11.49504656266567"><ele>80.0</ele><time>2026-04-06T15:24:58.025Z</time></trkpt><trkpt lat="45.662935515632576" lon="11.494590510903476"><ele>79.5</ele><time>2026-04-06T15:24:59.016Z</time></trkpt><trkpt lat="45.66282443833433" lon="11.494126705556027"><ele>79.0</ele><time>2026-04-06T15:25:00.025Z</time></trkpt><trkpt lat="45.66271515874682" lon="11.493668322779039"><ele>80.0</ele><time>2026-04-06T15:25:01.021Z</time></trkpt><trkpt lat="45.661816299004165" lon="11.489967349927397"><ele>79.5</ele><time>2026-04-06T15:25:09Z</time></trkpt><trkpt lat="45.66170663226489" lon="11.489503499707004"><ele>79.0</ele><time>2026-04-06T15:25:10Z</time></trkpt><trkpt lat="45.66159891465131" lon="11.489033736830109"><ele>79.0</ele><time>2026-04-06T15:25:11Z</time></trkpt><trkpt lat="45.66148757621774" lon="11.4885755513455"><ele>79.0</ele><time>2026-04-06T15:25:12Z</time></trkpt><trkpt lat="45.661377334275855" lon="11.488115276276435"><ele>79.0</ele><time>2026-04-06T15:25:13Z</time></trkpt><trkpt lat="45.66126664594385" lon="11.48765274860884"><ele>79.0</ele><time>2026-04-06T15:25:14Z</time></trkpt><trkpt lat="45.66115580311364" lon="11.48719160867648"><ele>78.5</ele><time>2026-04-06T15:25:15Z</time></trkpt><trkpt lat="45.66104082874224" lon="11.486732233085503"><ele>78.0</ele><time>2026-04-06T15:25:16Z</time></trkpt><trkpt lat="45.660922190838434" lon="11.48627577712806"><ele>79.0</ele><time>2026-04-06T15:25:17Z</time></trkpt><trkpt lat="45.66080066909409" lon="11.485818750260266"><ele>80.0</ele><time>2026-04-06T15:25:18Z</time></trkpt><trkpt lat="45.66067635024698" lon="11.485363642191391"><ele>80.5</ele><time>2026-04-06T15:25:19Z</time></trkpt><trkpt lat="45.66054849745086" lon="11.484922924297226"><ele>81.0</ele><time>2026-04-06T15:25:20Z</time></trkpt><trkpt lat="45.660417845909414" lon="11.484495060452508"><ele>80.5</ele><time>2026-04-06T15:25:21Z</time></trkpt><trkpt lat="45.660281659345735" lon="11.484076619703108"><ele>80.0</ele><time>2026-04-06T15:25:22Z</time></trkpt><trkpt lat="45.66014048500298" lon="11.483662651148526"><ele>80.0</ele><time>2026-04-06T15:25:23Z</time></trkpt><trkpt lat="45.65999356149507" lon="11.483246500401133"><ele>80.0</ele><time>2026-04-06T15:25:24Z</time></trkpt><trkpt lat="45.659840154070444" lon="11.482829230311465"><ele>80.0</ele><time>2026-04-06T15:25:25Z</time></trkpt><trkpt lat="45.65967962656183" lon="11.482410349308314"><ele>80.0</ele><time>2026-04-06T15:25:26Z</time></trkpt><trkpt lat="45.659511580349836" lon="11.481997366118117"><ele>80.0</ele><time>2026-04-06T15:25:27Z</time></trkpt><trkpt lat="45.65933670225375" lon="11.481588088879663"><ele>80.0</ele><time>2026-04-06T15:25:28Z</time></trkpt><trkpt lat="45.65915694169013" lon="11.481182021331051"><ele>80.0</ele><time>2026-04-06T15:25:29Z</time></trkpt><trkpt lat="45.65897185822393" lon="11.480776457349746"><ele>80.0</ele><time>2026-04-06T15:25:30Z</time></trkpt><trkpt lat="45.658780548785906" lon="11.480371915230162"><ele>79.5</ele><time>2026-04-06T15:25:31Z</time></trkpt><trkpt lat="45.65858268423764" lon="11.479972375138345"><ele>79.0</ele><time>2026-04-06T15:25:32Z</time></trkpt><trkpt lat="45.65837886229459" lon="11.479577866063806"><ele>79.0</ele><time>2026-04-06T15:25:33Z</time></trkpt><trkpt lat="45.658169810298716" lon="11.479191614588302"><ele>79.0</ele><time>2026-04-06T15:25:34Z</time></trkpt><trkpt lat="45.65795388441104" lon="11.478812672147313"><ele>80.0</ele><time>2026-04-06T15:25:35Z</time></trkpt><trkpt lat="45.65773364666911" lon="11.478440623139955"><ele>81.0</ele><time>2026-04-06T15:25:36Z</time></trkpt><trkpt lat="45.65751368661786" lon="11.478068018543004"><ele>81.0</ele><time>2026-04-06T15:25:37Z</time></trkpt><trkpt lat="45.657291741086794" lon="11.477696855520524"><ele>81.0</ele><time>2026-04-06T15:25:38Z</time></trkpt><trkpt lat="45.657064839135415" lon="11.477320618805571"><ele>80.5</ele><time>2026-04-06T15:25:39.017Z</time></trkpt><trkpt lat="45.65684064699975" lon="11.476948791301744"><ele>80.0</ele><time>2026-04-06T15:25:40.02Z</time></trkpt><trkpt lat="45.65662154863523" lon="11.47658438885841"><ele>80.5</ele><time>2026-04-06T15:25:41Z</time></trkpt><trkpt lat="45.65640073714392" lon="11.476217270090535"><ele>81.0</ele><time>2026-04-06T15:25:42Z</time></trkpt><trkpt lat="45.65617526467924" lon="11.475855520267306"><ele>81.0</ele><time>2026-04-06T15:25:43Z</time></trkpt><trkpt lat="45.65595553972039" lon="11.475485422598927"><ele>81.0</ele><time>2026-04-06T15:25:44Z</time></trkpt><trkpt lat="45.65573273583289" lon="11.475116715926118"><ele>81.0</ele><time>2026-04-06T15:25:45Z</time></trkpt><trkpt lat="45.655509204397546" lon="11.474744356972437"><ele>81.0</ele><time>2026-04-06T15:25:46Z</time></trkpt><trkpt lat="45.65528856833239" lon="11.474367179189812"><ele>81.0</ele><time>2026-04-06T15:25:47Z</time></trkpt><trkpt lat="45.65507214561669" lon="11.473986412344503"><ele>81.0</ele><time>2026-04-06T15:25:48Z</time></trkpt><trkpt lat="45.65485408033087" lon="11.473608657001716"><ele>81.0</ele><time>2026-04-06T15:25:49Z</time></trkpt><trkpt lat="45.65463713186692" lon="11.473221314089598"><ele>81.0</ele><time>2026-04-06T15:25:50.013Z</time></trkpt><trkpt lat="45.65443021868569" lon="11.472825095934787"><ele>81.0</ele><time>2026-04-06T15:25:51.023Z</time></trkpt><trkpt lat="45.65423024709499" lon="11.472425968945702"><ele>81.0</ele><time>2026-04-06T15:25:52.022Z</time></trkpt><trkpt lat="45.65403254596512" lon="11.472029027435852"><ele>81.0</ele><time>2026-04-06T15:25:53.017Z</time></trkpt><trkpt lat="45.65387897197684" lon="11.47162917071159"><ele>81.0</ele><time>2026-04-06T15:25:54Z</time></trkpt><trkpt lat="45.653687588977235" lon="11.471226125233272"><ele>81.0</ele><time>2026-04-06T15:25:55Z</time></trkpt><trkpt lat="45.65349626742142" lon="11.470815291543534"><ele>81.0</ele><time>2026-04-06T15:25:56Z</time></trkpt><trkpt lat="45.653331532626176" lon="11.470390569742655"><ele>81.0</ele><time>2026-04-06T15:25:57Z</time></trkpt><trkpt lat="45.653163322735274" lon="11.469969390085343"><ele>81.0</ele><time>2026-04-06T15:25:58Z</time></trkpt><trkpt lat="45.65299561019069" lon="11.469548451102415"><ele>81.0</ele><time>2026-04-06T15:25:59Z</time></trkpt><trkpt lat="45.652834750027495" lon="11.469122541948305"><ele>81.0</ele><time>2026-04-06T15:26:00Z</time></trkpt><trkpt lat="45.652677707220555" lon="11.468693774120192"><ele>81.0</ele><time>2026-04-06T15:26:01Z</time></trkpt><trkpt lat="45.65252251615351" lon="11.468260595559665"><ele>81.0</ele><time>2026-04-06T15:26:02Z</time></trkpt><trkpt lat="45.652374997581255" lon="11.467823726021985"><ele>82.0</ele><time>2026-04-06T15:26:03Z</time></trkpt><trkpt lat="45.652227260321226" lon="11.467387352519065"><ele>83.0</ele><time>2026-04-06T15:26:04Z</time></trkpt><trkpt lat="45.65207715618664" lon="11.466953515114245"><ele>83.0</ele><time>2026-04-06T15:26:05Z</time></trkpt><trkpt lat="45.65193463366597" lon="11.466513728646865"><ele>83.0</ele><time>2026-04-06T15:26:06Z</time></trkpt><trkpt lat="45.65179251226755" lon="11.466069231443159"><ele>82.0</ele><time>2026-04-06T15:26:07Z</time></trkpt><trkpt lat="45.65165244276341" lon="11.465624725080305"><ele>81.0</ele><time>2026-04-06T15:26:08Z</time></trkpt><trkpt lat="45.65151176050943" lon="11.465178877644721"><ele>81.0</ele><time>2026-04-06T15:26:09Z</time></trkpt><trkpt lat="45.65136891725149" lon="11.46473532640175"><ele>81.0</ele><time>2026-04-06T15:26:10Z</time></trkpt><trkpt lat="45.65122488471276" lon="11.464290041083673"><ele>81.0</ele><time>2026-04-06T15:26:11Z</time></trkpt><trkpt lat="45.65108252184904" lon="11.463843597981217"><ele>81.0</ele><time>2026-04-06T15:26:12Z</time></trkpt><trkpt lat="45.650943445846664" lon="11.463396528694547"><ele>81.0</ele><time>2026-04-06T15:26:13Z</time></trkpt><trkpt lat="45.650803689495255" lon="11.462950117285251"><ele>81.0</ele><time>2026-04-06T15:26:14Z</time></trkpt><trkpt lat="45.65066458282124" lon="11.46250502634997"><ele>82.5</ele><time>2026-04-06T15:26:15Z</time></trkpt><trkpt lat="45.6505278119485" lon="11.462058318018059"><ele>84.0</ele><time>2026-04-06T15:26:16Z</time></trkpt><trkpt lat="45.65039244130935" lon="11.461610452866601"><ele>84.0</ele><time>2026-04-06T15:26:17Z</time></trkpt><trkpt lat="45.650260522815984" lon="11.46116154335995"><ele>84.0</ele><time>2026-04-06T15:26:18Z</time></trkpt><trkpt lat="45.65013312315826" lon="11.460708506658731"><ele>85.0</ele><time>2026-04-06T15:26:19Z</time></trkpt><trkpt lat="45.65001032155192" lon="11.460253464586689"><ele>86.0</ele><time>2026-04-06T15:26:20Z</time></trkpt><trkpt lat="45.64989385058473" lon="11.459794465305077"><ele>86.0</ele><time>2026-04-06T15:26:21Z</time></trkpt><trkpt lat="45.649782359027704" lon="11.459333612216646"><ele>86.0</ele><time>2026-04-06T15:26:22Z</time></trkpt><trkpt lat="45.649674456384105" lon="11.458869492058815"><ele>86.0</ele><time>2026-04-06T15:26:23Z</time></trkpt><trkpt lat="45.64957508537213" lon="11.458402161481795"><ele>86.0</ele><time>2026-04-06T15:26:24Z</time></trkpt><trkpt lat="45.64948371764377" lon="11.457933631501447"><ele>86.5</ele><time>2026-04-06T15:26:25Z</time></trkpt><trkpt lat="45.64939705085805" lon="11.457458636804057"><ele>87.0</ele><time>2026-04-06T15:26:26Z</time></trkpt><trkpt lat="45.649317512690295" lon="11.456983535868059"><ele>86.0</ele><time>2026-04-06T15:26:27Z</time></trkpt><trkpt lat="45.6492434775535" lon="11.456505286175815"><ele>85.0</ele><time>2026-04-06T15:26:28Z</time></trkpt><trkpt lat="45.649174406841524" lon="11.456024794539214"><ele>85.0</ele><time>2026-04-06T15:26:29Z</time></trkpt><trkpt lat="45.64911153417679" lon="11.45554130579231"><ele>85.0</ele><time>2026-04-06T15:26:30Z</time></trkpt><trkpt lat="45.649056745286835" lon="11.455059562778045"><ele>85.0</ele><time>2026-04-06T15:26:31Z</time></trkpt><trkpt lat="45.64900677767741" lon="11.454573852022557"><ele>85.0</ele><time>2026-04-06T15:26:32Z</time></trkpt><trkpt lat="45.64896528743315" lon="11.454088798353332"><ele>85.5</ele><time>2026-04-06T15:26:33Z</time></trkpt><trkpt lat="45.64893194828496" lon="11.45360539514402"><ele>86.0</ele><time>2026-04-06T15:26:34Z</time></trkpt><trkpt lat="45.64890317944683" lon="11.453119740295604"><ele>86.5</ele><time>2026-04-06T15:26:35Z</time></trkpt><trkpt lat="45.648881278643096" lon="11.452632300542287"><ele>87.0</ele><time>2026-04-06T15:26:36Z</time></trkpt><trkpt lat="45.64886739567195" lon="11.45214491190673"><ele>87.5</ele><time>2026-04-06T15:26:37Z</time></trkpt><trkpt lat="45.648861155907056" lon="11.451656903138055"><ele>88.0</ele><time>2026-04-06T15:26:38Z</time></trkpt><trkpt lat="45.64885984407905" lon="11.45116815344711"><ele>88.0</ele><time>2026-04-06T15:26:39Z</time></trkpt><trkpt lat="45.64886190556221" lon="11.450680120571336"><ele>88.0</ele><time>2026-04-06T15:26:40Z</time></trkpt><trkpt lat="45.64886907569586" lon="11.450192759904072"><ele>88.0</ele><time>2026-04-06T15:26:41Z</time></trkpt><trkpt lat="45.64887937570137" lon="11.449704760219548"><ele>88.0</ele><time>2026-04-06T15:26:42Z</time></trkpt><trkpt lat="45.64889074727589" lon="11.449216882502075"><ele>88.5</ele><time>2026-04-06T15:26:43Z</time></trkpt><trkpt lat="45.64890472234554" lon="11.448729729093543"><ele>89.0</ele><time>2026-04-06T15:26:44Z</time></trkpt><trkpt lat="45.64892029172009" lon="11.44824208955369"><ele>89.0</ele><time>2026-04-06T15:26:45Z</time></trkpt><trkpt lat="45.64893501000042" lon="11.447755682044932"><ele>89.0</ele><time>2026-04-06T15:26:46Z</time></trkpt><trkpt lat="45.648948418741675" lon="11.447269373166147"><ele>89.0</ele><time>2026-04-06T15:26:47Z</time></trkpt><trkpt lat="45.64895773722576" lon="11.446782031773958"><ele>89.0</ele><time>2026-04-06T15:26:48Z</time></trkpt><trkpt lat="45.64896452828289" lon="11.44629450031864"><ele>89.0</ele><time>2026-04-06T15:26:49Z</time></trkpt><trkpt lat="45.648969725731796" lon="11.445807046780095"><ele>89.0</ele><time>2026-04-06T15:26:50Z</time></trkpt><trkpt lat="45.64897398877375" lon="11.445321554294216"><ele>89.0</ele><time>2026-04-06T15:26:51Z</time></trkpt><trkpt lat="45.6489728451455" lon="11.444835347394264"><ele>89.0</ele><time>2026-04-06T15:26:52Z</time></trkpt><trkpt lat="45.64896774706271" lon="11.44434891195899"><ele>89.0</ele><time>2026-04-06T15:26:53Z</time></trkpt><trkpt lat="45.64895722065896" lon="11.443860834299857"><ele>89.0</ele><time>2026-04-06T15:26:54Z</time></trkpt><trkpt lat="45.648937514880714" lon="11.443374930978903"><ele>89.5</ele><time>2026-04-06T15:26:55Z</time></trkpt><trkpt lat="45.64891269024427" lon="11.442889727792885"><ele>90.0</ele><time>2026-04-06T15:26:56Z</time></trkpt><trkpt lat="45.64888116138859" lon="11.442405341310696"><ele>91.0</ele><time>2026-04-06T15:26:57Z</time></trkpt><trkpt lat="45.64884401580296" lon="11.441921872312715"><ele>92.0</ele><time>2026-04-06T15:26:58Z</time></trkpt><trkpt lat="45.6488041424067" lon="11.44144019074617"><ele>92.0</ele><time>2026-04-06T15:26:59Z</time></trkpt><trkpt lat="45.6487592288269" lon="11.44095806166699"><ele>92.0</ele><time>2026-04-06T15:27:00Z</time></trkpt><trkpt lat="45.648707588900955" lon="11.440476479914434"><ele>92.0</ele><time>2026-04-06T15:27:01Z</time></trkpt><trkpt lat="45.64864890782876" lon="11.439995795193056"><ele>92.0</ele><time>2026-04-06T15:27:02Z</time></trkpt><trkpt lat="45.64858560326795" lon="11.439515550505138"><ele>91.5</ele><time>2026-04-06T15:27:03Z</time></trkpt><trkpt lat="45.64851706408768" lon="11.439038598340439"><ele>91.0</ele><time>2026-04-06T15:27:04Z</time></trkpt><trkpt lat="45.64844490016907" lon="11.438560809355456"><ele>90.5</ele><time>2026-04-06T15:27:05Z</time></trkpt><trkpt lat="45.648371501379195" lon="11.438084635385371"><ele>90.0</ele><time>2026-04-06T15:27:06Z</time></trkpt><trkpt lat="45.64829621711735" lon="11.437606730189739"><ele>89.0</ele><time>2026-04-06T15:27:07Z</time></trkpt><trkpt lat="45.64821871759554" lon="11.437131289833141"><ele>88.0</ele><time>2026-04-06T15:27:08Z</time></trkpt><trkpt lat="45.64813988607314" lon="11.436654758109142"><ele>88.5</ele><time>2026-04-06T15:27:09Z</time></trkpt><trkpt lat="45.64805889452468" lon="11.43618106403977"><ele>89.0</ele><time>2026-04-06T15:27:10Z</time></trkpt><trkpt lat="45.647979275858845" lon="11.435705286971427"><ele>89.0</ele><time>2026-04-06T15:27:11Z</time></trkpt><trkpt lat="45.647898224231135" lon="11.435231950118075"><ele>89.0</ele><time>2026-04-06T15:27:12Z</time></trkpt><trkpt lat="45.64781724193814" lon="11.434758846225405"><ele>89.0</ele><time>2026-04-06T15:27:13Z</time></trkpt><trkpt lat="45.6477380365355" lon="11.43428514287884"><ele>89.0</ele><time>2026-04-06T15:27:14Z</time></trkpt><trkpt lat="45.64765675789053" lon="11.433810212287653"><ele>89.0</ele><time>2026-04-06T15:27:15Z</time></trkpt><trkpt lat="45.647572777688026" lon="11.43333553457337"><ele>89.0</ele><time>2026-04-06T15:27:16Z</time></trkpt><trkpt lat="45.64748442249002" lon="11.432864203612567"><ele>89.0</ele><time>2026-04-06T15:27:17Z</time></trkpt><trkpt lat="45.647389997346295" lon="11.432395313956874"><ele>89.0</ele><time>2026-04-06T15:27:18Z</time></trkpt><trkpt lat="45.64728860679526" lon="11.43193112715333"><ele>90.0</ele><time>2026-04-06T15:27:19Z</time></trkpt><trkpt lat="45.64718254292391" lon="11.431468589112628"><ele>91.0</ele><time>2026-04-06T15:27:20Z</time></trkpt><trkpt lat="45.64707031706288" lon="11.431006128486107"><ele>91.5</ele><time>2026-04-06T15:27:21Z</time></trkpt><trkpt lat="45.64695334290954" lon="11.430547205966901"><ele>92.0</ele><time>2026-04-06T15:27:22Z</time></trkpt><trkpt lat="45.646830440852696" lon="11.430090656345387"><ele>92.5</ele><time>2026-04-06T15:27:23Z</time></trkpt><trkpt lat="45.6467022056505" lon="11.429636420726942"><ele>93.0</ele><time>2026-04-06T15:27:24Z</time></trkpt><trkpt lat="45.64656790742667" lon="11.429184922339333"><ele>93.5</ele><time>2026-04-06T15:27:25Z</time></trkpt><trkpt lat="45.64642843368472" lon="11.42873637228365"><ele>94.0</ele><time>2026-04-06T15:27:26Z</time></trkpt><trkpt lat="45.64628593981506" lon="11.42829154830904"><ele>94.5</ele><time>2026-04-06T15:27:27Z</time></trkpt><trkpt lat="45.646141629570884" lon="11.427847696041221"><ele>95.0</ele><time>2026-04-06T15:27:28Z</time></trkpt><trkpt lat="45.64599497632854" lon="11.42740538720716"><ele>94.5</ele><time>2026-04-06T15:27:29Z</time></trkpt><trkpt lat="45.64584336462952" lon="11.426969096847092"><ele>94.0</ele><time>2026-04-06T15:27:30Z</time></trkpt><trkpt lat="45.64569068124395" lon="11.426531131017672"><ele>95.0</ele><time>2026-04-06T15:27:31Z</time></trkpt><trkpt lat="45.645536322315756" lon="11.426086298620715"><ele>96.0</ele><time>2026-04-06T15:27:32.015Z</time></trkpt><trkpt lat="45.645387454023975" lon="11.425643047128393"><ele>94.5</ele><time>2026-04-06T15:27:33.023Z</time></trkpt><trkpt lat="45.645241610365595" lon="11.42520051391771"><ele>93.0</ele><time>2026-04-06T15:27:34.026Z</time></trkpt><trkpt lat="45.64509408767626" lon="11.424762489367188"><ele>92.5</ele><time>2026-04-06T15:27:35.023Z</time></trkpt><trkpt lat="45.64494588093541" lon="11.424322458945547"><ele>92.0</ele><time>2026-04-06T15:27:36.024Z</time></trkpt><trkpt lat="45.64367235914259" lon="11.420428597874752"><ele>151.0</ele><time>2026-04-06T15:27:40.562Z</time></trkpt><trkpt lat="45.64324469893689" lon="11.419155548243335"><ele>157.0</ele><time>2026-04-06T15:27:41.562Z</time></trkpt><trkpt lat="45.64277362800745" lon="11.417915714594056"><ele>166.0</ele><time>2026-04-06T15:27:42.562Z</time></trkpt><trkpt lat="45.642318350739906" lon="11.416662830223238"><ele>203.0</ele><time>2026-04-06T15:27:43.562Z</time></trkpt><trkpt lat="45.64181612120825" lon="11.415447479584913"><ele>231.0</ele><time>2026-04-06T15:27:44.562Z</time></trkpt><trkpt lat="45.64127458478799" lon="11.414264690869688"><ele>259.0</ele><time>2026-04-06T15:27:45.563Z</time></trkpt><trkpt lat="45.64070753751346" lon="11.413109658517032"><ele>298.0</ele><time>2026-04-06T15:27:46.562Z</time></trkpt><trkpt lat="45.64010088103446" lon="11.411995997412657"><ele>293.0</ele><time>2026-04-06T15:27:47.562Z</time></trkpt><trkpt lat="45.6394678606372" lon="11.410911498406573"><ele>267.0</ele><time>2026-04-06T15:27:48.562Z</time></trkpt><trkpt lat="45.63883941432782" lon="11.409821542168135"><ele>277.0</ele><time>2026-04-06T15:27:49.562Z</time></trkpt><trkpt lat="45.638203814398075" lon="11.408740112470577"><ele>306.0</ele><time>2026-04-06T15:27:50.562Z</time></trkpt><trkpt lat="45.63752885809287" lon="11.407708356776329"><ele>317.0</ele><time>2026-04-06T15:27:51.562Z</time></trkpt><trkpt lat="45.636852618551096" lon="11.406678235311665"><ele>328.0</ele><time>2026-04-06T15:27:52.562Z</time></trkpt><trkpt lat="45.63617624896696" lon="11.40564730055704"><ele>357.0</ele><time>2026-04-06T15:27:53.562Z</time></trkpt><trkpt lat="45.635499850107" lon="11.404618304550274"><ele>358.0</ele><time>2026-04-06T15:27:54.562Z</time></trkpt><trkpt lat="45.63482327853787" lon="11.403588637385704"><ele>312.0</ele><time>2026-04-06T15:27:55.562Z</time></trkpt><trkpt lat="45.634144139516515" lon="11.402562339557136"><ele>272.0</ele><time>2026-04-06T15:27:56.562Z</time></trkpt><trkpt lat="45.63345200090995" lon="11.401554210345985"><ele>253.0</ele><time>2026-04-06T15:27:57.562Z</time></trkpt><trkpt lat="45.63270265806578" lon="11.400633324253922"><ele>233.0</ele><time>2026-04-06T15:27:58.562Z</time></trkpt><trkpt lat="45.631925353729024" lon="11.399760088104141"><ele>255.0</ele><time>2026-04-06T15:27:59.562Z</time></trkpt><trkpt lat="45.63112989390621" lon="11.398921065911948"><ele>290.0</ele><time>2026-04-06T15:28:00.562Z</time></trkpt><trkpt lat="45.63031306197761" lon="11.398123034975992"><ele>303.0</ele><time>2026-04-06T15:28:01.562Z</time></trkpt><trkpt lat="45.629490127669136" lon="11.39734092316818"><ele>262.0</ele><time>2026-04-06T15:28:02.562Z</time></trkpt><trkpt lat="45.628661912403736" lon="11.396568272013697"><ele>257.0</ele><time>2026-04-06T15:28:03.562Z</time></trkpt><trkpt lat="45.6278376524298" lon="11.395787806549626"><ele>257.0</ele><time>2026-04-06T15:28:04.562Z</time></trkpt><trkpt lat="45.626998042159826" lon="11.395041636407447"><ele>187.0</ele><time>2026-04-06T15:28:05.562Z</time></trkpt><trkpt lat="45.626131885078834" lon="11.394359354058015"><ele>224.0</ele><time>2026-04-06T15:28:06.562Z</time></trkpt><trkpt lat="45.62525196078898" lon="11.393710587044316"><ele>259.0</ele><time>2026-04-06T15:28:07.563Z</time></trkpt><trkpt lat="45.62436603976765" lon="11.393084950368221"><ele>338.0</ele><time>2026-04-06T15:28:08.562Z</time></trkpt><trkpt lat="45.62347879744791" lon="11.392458136287186"><ele>424.0</ele><time>2026-04-06T15:28:09.562Z</time></trkpt><trkpt lat="45.62259147789636" lon="11.391835129843296"><ele>448.0</ele><time>2026-04-06T15:28:10.562Z</time></trkpt><trkpt lat="45.621699192961145" lon="11.391224836807757"><ele>464.0</ele><time>2026-04-06T15:28:11.562Z</time></trkpt><trkpt lat="45.620799178542" lon="11.390638352232633"><ele>475.0</ele><time>2026-04-06T15:28:12.562Z</time></trkpt><trkpt lat="45.6198868029763" lon="11.39009212492682"><ele>427.0</ele><time>2026-04-06T15:28:13.562Z</time></trkpt><trkpt lat="45.61896550861564" lon="11.389576852782605"><ele>390.0</ele><time>2026-04-06T15:28:14.562Z</time></trkpt><trkpt lat="45.61805311767006" lon="11.38903009385098"><ele>329.0</ele><time>2026-04-06T15:28:15.562Z</time></trkpt><trkpt lat="45.617137620880946" lon="11.388494814185417"><ele>274.0</ele><time>2026-04-06T15:28:16.562Z</time></trkpt><trkpt lat="45.61621272546358" lon="11.387990660069777"><ele>214.0</ele><time>2026-04-06T15:28:17.562Z</time></trkpt><trkpt lat="45.61528364680692" lon="11.38750719829428"><ele>192.0</ele><time>2026-04-06T15:28:18.562Z</time></trkpt><trkpt lat="45.61434656353772" lon="11.387052780534711"><ele>182.0</ele><time>2026-04-06T15:28:19.562Z</time></trkpt><trkpt lat="45.61340137602133" lon="11.386635740011672"><ele>170.0</ele><time>2026-04-06T15:28:20.562Z</time></trkpt><trkpt lat="45.61243901481855" lon="11.386309964458754"><ele>166.0</ele><time>2026-04-06T15:28:21.562Z</time></trkpt><trkpt lat="45.611459697332364" lon="11.386105426958668"><ele>165.0</ele><time>2026-04-06T15:28:22.562Z</time></trkpt><trkpt lat="45.61047803984469" lon="11.38592713736086"><ele>162.0</ele><time>2026-04-06T15:28:23.562Z</time></trkpt><trkpt lat="45.60949441235337" lon="11.385772040863326"><ele>157.0</ele><time>2026-04-06T15:28:24.562Z</time></trkpt><trkpt lat="45.60851409212923" lon="11.385566783665514"><ele>155.0</ele><time>2026-04-06T15:28:25.563Z</time></trkpt><trkpt lat="45.60753690143699" lon="11.38535365916999"><ele>154.0</ele><time>2026-04-06T15:28:26.562Z</time></trkpt><trkpt lat="45.60655749264786" lon="11.385150744685966"><ele>152.0</ele><time>2026-04-06T15:28:27.562Z</time></trkpt><trkpt lat="45.60557446021015" lon="11.384987242110572"><ele>154.0</ele><time>2026-04-06T15:28:28.562Z</time></trkpt><trkpt lat="45.6045975072" lon="11.384761457451207"><ele>152.0</ele><time>2026-04-06T15:28:29.562Z</time></trkpt><trkpt lat="45.603626338108526" lon="11.384490691626686"><ele>149.0</ele><time>2026-04-06T15:28:30.562Z</time></trkpt><trkpt lat="45.602657711637704" lon="11.384200959416177"><ele>148.0</ele><time>2026-04-06T15:28:31.562Z</time></trkpt><trkpt lat="45.60169080768502" lon="11.383900276423903"><ele>151.0</ele><time>2026-04-06T15:28:32.562Z</time></trkpt><trkpt lat="45.600072108503674" lon="11.383401763795211"><ele>151.0</ele><time>2026-04-06T15:30:19.627Z</time></trkpt><trkpt lat="45.59973460694696" lon="11.383180624498797"><ele>151.0</ele><time>2026-04-06T15:30:22.001Z</time></trkpt><trkpt lat="45.59940633570579" lon="11.383025941642261"><ele>151.5</ele><time>2026-04-06T15:30:23.001Z</time></trkpt><trkpt lat="45.59908186137489" lon="11.382859191614703"><ele>152.0</ele><time>2026-04-06T15:30:24.001Z</time></trkpt><trkpt lat="45.59875943404557" lon="11.382695404264476"><ele>152.5</ele><time>2026-04-06T15:30:25.001Z</time></trkpt><trkpt lat="45.59844096225493" lon="11.382510360807009"><ele>153.0</ele><time>2026-04-06T15:30:26Z</time></trkpt><trkpt lat="45.59812659607331" lon="11.38231955723729"><ele>152.5</ele><time>2026-04-06T15:30:27Z</time></trkpt><trkpt lat="45.59780721087727" lon="11.382123628206116"><ele>152.0</ele><time>2026-04-06T15:30:28.019Z</time></trkpt><trkpt lat="45.59749224614544" lon="11.381927989891315"><ele>152.0</ele><time>2026-04-06T15:30:29.024Z</time></trkpt><trkpt lat="45.59718083271844" lon="11.381733271595058"><ele>152.0</ele><time>2026-04-06T15:30:30.024Z</time></trkpt><trkpt lat="45.59688074581985" lon="11.381545240055944"><ele>151.0</ele><time>2026-04-06T15:30:31Z</time></trkpt><trkpt lat="45.59658122781896" lon="11.381448312816234"><ele>150.0</ele><time>2026-04-06T15:30:32Z</time></trkpt><trkpt lat="45.59628341685728" lon="11.381273456505154"><ele>149.5</ele><time>2026-04-06T15:30:33Z</time></trkpt><trkpt lat="45.59599278091713" lon="11.381102253802409"><ele>149.0</ele><time>2026-04-06T15:30:34Z</time></trkpt><trkpt lat="45.59572154018823" lon="11.380945114510054"><ele>149.0</ele><time>2026-04-06T15:30:35Z</time></trkpt><trkpt lat="45.5954380414668" lon="11.380788301333453"><ele>149.0</ele><time>2026-04-06T15:30:36Z</time></trkpt><trkpt lat="45.595174713287726" lon="11.380640020833088"><ele>150.0</ele><time>2026-04-06T15:30:37Z</time></trkpt><trkpt lat="45.59491949527547" lon="11.38048966197664"><ele>151.0</ele><time>2026-04-06T15:30:38Z</time></trkpt><trkpt lat="45.59467120793375" lon="11.380332957707617"><ele>152.5</ele><time>2026-04-06T15:30:39Z</time></trkpt><trkpt lat="45.59443197065208" lon="11.380169000549188"><ele>154.0</ele><time>2026-04-06T15:30:40Z</time></trkpt><trkpt lat="45.594192949096836" lon="11.379999848154458"><ele>154.0</ele><time>2026-04-06T15:30:41Z</time></trkpt><trkpt lat="45.593951522678076" lon="11.379835079931773"><ele>154.0</ele><time>2026-04-06T15:30:42Z</time></trkpt><trkpt lat="45.59370112714949" lon="11.379670931385107"><ele>153.5</ele><time>2026-04-06T15:30:43.02Z</time></trkpt><trkpt lat="45.59345298499001" lon="11.379510377639313"><ele>153.0</ele><time>2026-04-06T15:30:44.023Z</time></trkpt><trkpt lat="45.59320833805043" lon="11.379352077689736"><ele>153.0</ele><time>2026-04-06T15:30:45.018Z</time></trkpt><trkpt lat="45.59296148395756" lon="11.379194661046535"><ele>153.0</ele><time>2026-04-06T15:30:46.022Z</time></trkpt><trkpt lat="45.59123497460558" lon="11.378107583160864"><ele>152.33333333333334</ele><time>2026-04-06T15:30:54Z</time></trkpt><trkpt lat="45.59103240544528" lon="11.378000335315255"><ele>151.66666666666669</ele><time>2026-04-06T15:30:55Z</time></trkpt><trkpt lat="45.59083099511569" lon="11.377867917701762"><ele>151.0</ele><time>2026-04-06T15:30:56Z</time></trkpt><trkpt lat="45.590645180681115" lon="11.377784974686374"><ele>151.0</ele><time>2026-04-06T15:30:57Z</time></trkpt><trkpt lat="45.590454015986836" lon="11.377711995529289"><ele>151.0</ele><time>2026-04-06T15:30:58Z</time></trkpt><trkpt lat="45.590276124223884" lon="11.377647520912083"><ele>151.0</ele><time>2026-04-06T15:30:59Z</time></trkpt><trkpt lat="45.590088679742216" lon="11.37760846703332"><ele>150.0</ele><time>2026-04-06T15:31:00Z</time></trkpt><trkpt lat="45.58991018084399" lon="11.377554958972615"><ele>149.0</ele><time>2026-04-06T15:31:01Z</time></trkpt><trkpt lat="45.58972435805173" lon="11.377499222307945"><ele>148.0</ele><time>2026-04-06T15:31:02.025Z</time></trkpt><trkpt lat="45.589425195982294" lon="11.377475420023666"><ele>148.0</ele><time>2026-04-06T15:31:04Z</time></trkpt><trkpt lat="45.5892640191796" lon="11.37744710629256"><ele>148.0</ele><time>2026-04-06T15:31:05Z</time></trkpt><trkpt lat="45.589104533254286" lon="11.377441349222575"><ele>148.0</ele><time>2026-04-06T15:31:06Z</time></trkpt><trkpt lat="45.58896815445754" lon="11.377412903639419"><ele>148.0</ele><time>2026-04-06T15:31:07Z</time></trkpt><trkpt lat="45.58883148305262" lon="11.3773977141701"><ele>148.0</ele><time>2026-04-06T15:31:08Z</time></trkpt><trkpt lat="45.58869881382006" lon="11.3773775171823"><ele>148.0</ele><time>2026-04-06T15:31:09Z</time></trkpt><trkpt lat="45.58856551400581" lon="11.377353864238831"><ele>148.0</ele><time>2026-04-06T15:31:10Z</time></trkpt><trkpt lat="45.58843412960629" lon="11.377331788064902"><ele>148.0</ele><time>2026-04-06T15:31:11Z</time></trkpt><trkpt lat="45.58830379699252" lon="11.37730208653474"><ele>148.0</ele><time>2026-04-06T15:31:12Z</time></trkpt><trkpt lat="45.58818344940778" lon="11.377243698279315"><ele>148.0</ele><time>2026-04-06T15:31:13Z</time></trkpt><trkpt lat="45.58809305310294" lon="11.377131024297698"><ele>148.0</ele><time>2026-04-06T15:31:14Z</time></trkpt><trkpt lat="45.58803046511264" lon="11.376978052805555"><ele>148.0</ele><time>2026-04-06T15:31:15Z</time></trkpt><trkpt lat="45.587996572667834" lon="11.376801903261615"><ele>148.0</ele><time>2026-04-06T15:31:16Z</time></trkpt><trkpt lat="45.58799648624523" lon="11.376621076986398"><ele>148.0</ele><time>2026-04-06T15:31:17Z</time></trkpt><trkpt lat="45.58803293937208" lon="11.376458547381025"><ele>148.0</ele><time>2026-04-06T15:31:18Z</time></trkpt><trkpt lat="45.58810838342474" lon="11.376328004648352"><ele>148.8</ele><time>2026-04-06T15:31:19Z</time></trkpt><trkpt lat="45.58820627584824" lon="11.376232575461453"><ele>149.60000000000002</ele><time>2026-04-06T15:31:20Z</time></trkpt><trkpt lat="45.58831253398892" lon="11.376174532656583"><ele>150.39999999999998</ele><time>2026-04-06T15:31:21Z</time></trkpt><trkpt lat="45.58841834231486" lon="11.37616201704018"><ele>151.2</ele><time>2026-04-06T15:31:22Z</time></trkpt><trkpt lat="45.5885231934683" lon="11.376190688093994"><ele>152.0</ele><time>2026-04-06T15:31:23Z</time></trkpt><trkpt lat="45.588635993836796" lon="11.376220021058645"><ele>151.5</ele><time>2026-04-06T15:31:24Z</time></trkpt><trkpt lat="45.58872517746934" lon="11.37636211071065"><ele>151.0</ele><time>2026-04-06T15:31:25Z</time></trkpt><trkpt lat="45.58882226235873" lon="11.37647745685549"><ele>150.5</ele><time>2026-04-06T15:31:26Z</time></trkpt><trkpt lat="45.588919458372246" lon="11.376576380404599"><ele>150.0</ele><time>2026-04-06T15:31:27Z</time></trkpt><trkpt lat="45.589017409192536" lon="11.376655925902027"><ele>150.0</ele><time>2026-04-06T15:31:28Z</time></trkpt><trkpt lat="45.58911366849449" lon="11.37672521500708"><ele>150.0</ele><time>2026-04-06T15:31:29Z</time></trkpt><trkpt lat="45.58921168727728" lon="11.376780421683087"><ele>150.0</ele><time>2026-04-06T15:31:30Z</time></trkpt><trkpt lat="45.58930733762272" lon="11.376814149501309"><ele>150.0</ele><time>2026-04-06T15:31:31Z</time></trkpt><trkpt lat="45.58940025079531" lon="11.376824343599486"><ele>150.0</ele><time>2026-04-06T15:31:32Z</time></trkpt><trkpt lat="45.58949149722892" lon="11.376821409218548"><ele>149.8</ele><time>2026-04-06T15:31:33Z</time></trkpt><trkpt lat="45.589579882417624" lon="11.37681067731749"><ele>149.6</ele><time>2026-04-06T15:31:34Z</time></trkpt><trkpt lat="45.58965768683741" lon="11.376806123001828"><ele>149.4</ele><time>2026-04-06T15:31:35Z</time></trkpt><trkpt lat="45.58972484462495" lon="11.376802374055464"><ele>149.2</ele><time>2026-04-06T15:31:36Z</time></trkpt><trkpt lat="45.58984461229955" lon="11.3767998072038"><ele>149.0</ele><time>2026-04-06T15:31:38Z</time></trkpt><trkpt lat="45.589953269245164" lon="11.376791478415388"><ele>149.0</ele><time>2026-04-06T15:31:40Z</time></trkpt><trkpt lat="45.59002911884619" lon="11.376791655017268"><ele>149.0</ele><time>2026-04-06T15:31:42Z</time></trkpt><trkpt lat="45.59011127522808" lon="11.376776250856649"><ele>149.0</ele><time>2026-04-06T15:31:44Z</time></trkpt><trkpt lat="45.59024665365365" lon="11.376761328068417"><ele>149.0</ele><time>2026-04-06T15:31:46Z</time></trkpt><trkpt lat="45.5903341554349" lon="11.37675659245363"><ele>149.0</ele><time>2026-04-06T15:31:47Z</time></trkpt><trkpt lat="45.590428780904574" lon="11.37675504160859"><ele>149.4</ele><time>2026-04-06T15:31:48Z</time></trkpt><trkpt lat="45.59052771356645" lon="11.376750382552434"><ele>149.8</ele><time>2026-04-06T15:31:49Z</time></trkpt><trkpt lat="45.59061857300411" lon="11.376736190818372"><ele>150.2</ele><time>2026-04-06T15:31:50Z</time></trkpt><trkpt lat="45.59071332034951" lon="11.376704889653002"><ele>150.6</ele><time>2026-04-06T15:31:51Z</time></trkpt><trkpt lat="45.59081386607553" lon="11.376653954663817"><ele>151.0</ele><time>2026-04-06T15:31:52Z</time></trkpt><trkpt lat="45.59091084797874" lon="11.376563567193388"><ele>151.0</ele><time>2026-04-06T15:31:53Z</time></trkpt><trkpt lat="45.59100731164795" lon="11.376494848795332"><ele>151.0</ele><time>2026-04-06T15:31:54Z</time></trkpt><trkpt lat="45.591104576138484" lon="11.37644513693101"><ele>151.0</ele><time>2026-04-06T15:31:55Z</time></trkpt><trkpt lat="45.59118293243532" lon="11.376391603353985"><ele>151.0</ele><time>2026-04-06T15:31:56Z</time></trkpt><trkpt lat="45.5912323809011" lon="11.376329787756061"><ele>151.0</ele><time>2026-04-06T15:31:57Z</time></trkpt><trkpt lat="45.59130772529331" lon="11.376373945029721"><ele>151.0</ele><time>2026-04-06T15:31:58Z</time></trkpt><trkpt lat="45.59141847571958" lon="11.376419740180598"><ele>151.66666666666669</ele><time>2026-04-06T15:32:00Z</time></trkpt><trkpt lat="45.59147573730155" lon="11.376459082246539"><ele>152.33333333333334</ele><time>2026-04-06T15:32:01Z</time></trkpt><trkpt lat="45.59154508657981" lon="11.376508140572001"><ele>153.0</ele><time>2026-04-06T15:32:02Z</time></trkpt><trkpt lat="45.59162423079701" lon="11.376563559603786"><ele>153.66666666666666</ele><time>2026-04-06T15:32:03Z</time></trkpt><trkpt lat="45.59171063452804" lon="11.376577825716213"><ele>154.33333333333331</ele><time>2026-04-06T15:32:04Z</time></trkpt><trkpt lat="45.59179303235447" lon="11.376562113372056"><ele>155.0</ele><time>2026-04-06T15:32:05Z</time></trkpt><trkpt lat="45.591868688002" lon="11.376496046363343"><ele>155.0</ele><time>2026-04-06T15:32:06Z</time></trkpt><trkpt lat="45.59194148503365" lon="11.376398024312415"><ele>155.0</ele><time>2026-04-06T15:32:07Z</time></trkpt><trkpt lat="45.59199985083157" lon="11.376277891472869"><ele>155.0</ele><time>2026-04-06T15:32:08Z</time></trkpt><trkpt lat="45.59205306892086" lon="11.376143840261117"><ele>155.0</ele><time>2026-04-06T15:32:09Z</time></trkpt><trkpt lat="45.59211146509093" lon="11.376009343477653"><ele>155.0</ele><time>2026-04-06T15:32:10Z</time></trkpt><trkpt lat="45.59219754685686" lon="11.375897705966398"><ele>155.0</ele><time>2026-04-06T15:32:11Z</time></trkpt><trkpt lat="45.592300862624796" lon="11.375811352503387"><ele>155.0</ele><time>2026-04-06T15:32:12Z</time></trkpt><trkpt lat="45.592409857974566" lon="11.37571651475678"><ele>155.0</ele><time>2026-04-06T15:32:13Z</time></trkpt><trkpt lat="45.592516110502324" lon="11.375610142447664"><ele>155.0</ele><time>2026-04-06T15:32:14Z</time></trkpt><trkpt lat="45.59261486650154" lon="11.37550416130459"><ele>155.0</ele><time>2026-04-06T15:32:15Z</time></trkpt><trkpt lat="45.59271373431605" lon="11.37539729501222"><ele>155.0</ele><time>2026-04-06T15:32:16Z</time></trkpt><trkpt lat="45.59281785067751" lon="11.37528693067214"><ele>155.0</ele><time>2026-04-06T15:32:17Z</time></trkpt><trkpt lat="45.59292094176818" lon="11.375171528679758"><ele>155.0</ele><time>2026-04-06T15:32:18Z</time></trkpt><trkpt lat="45.59302605785619" lon="11.375059148508544"><ele>155.75</ele><time>2026-04-06T15:32:19Z</time></trkpt><trkpt lat="45.593130934359976" lon="11.374945030943692"><ele>156.5</ele><time>2026-04-06T15:32:20Z</time></trkpt><trkpt lat="45.593233646344785" lon="11.374830041549624"><ele>157.25</ele><time>2026-04-06T15:32:21Z</time></trkpt><trkpt lat="45.59333830794477" lon="11.37471600340922"><ele>158.0</ele><time>2026-04-06T15:32:22Z</time></trkpt><trkpt lat="45.593439632037615" lon="11.374596654405938"><ele>158.25</ele><time>2026-04-06T15:32:23Z</time></trkpt><trkpt lat="45.59354714775115" lon="11.374469347669464"><ele>158.5</ele><time>2026-04-06T15:32:24Z</time></trkpt><trkpt lat="45.593662987248635" lon="11.374332725957473"><ele>158.75</ele><time>2026-04-06T15:32:25Z</time></trkpt><trkpt lat="45.59378377355338" lon="11.374185094086656"><ele>159.0</ele><time>2026-04-06T15:32:26Z</time></trkpt><trkpt lat="45.5939119022052" lon="11.37403017281392"><ele>159.0</ele><time>2026-04-06T15:32:27Z</time></trkpt><trkpt lat="45.594047637249254" lon="11.373868866931058"><ele>159.0</ele><time>2026-04-06T15:32:28Z</time></trkpt><trkpt lat="45.59418774137068" lon="11.373697190105787"><ele>159.0</ele><time>2026-04-06T15:32:29Z</time></trkpt><trkpt lat="45.594333512004994" lon="11.373518048426794"><ele>159.0</ele><time>2026-04-06T15:32:30Z</time></trkpt><trkpt lat="45.59448109840107" lon="11.373327340178436"><ele>159.0</ele><time>2026-04-06T15:32:31Z</time></trkpt><trkpt lat="45.594627238069656" lon="11.373128179374692"><ele>159.0</ele><time>2026-04-06T15:32:32Z</time></trkpt><trkpt lat="45.59477389378491" lon="11.372926810041463"><ele>159.0</ele><time>2026-04-06T15:32:33Z</time></trkpt><trkpt lat="45.59492031963053" lon="11.372722860699882"><ele>159.0</ele><time>2026-04-06T15:32:34Z</time></trkpt><trkpt lat="45.595068792246124" lon="11.372519085104008"><ele>159.0</ele><time>2026-04-06T15:32:35Z</time></trkpt><trkpt lat="45.59521631897985" lon="11.372315921642198"><ele>159.33333333333334</ele><time>2026-04-06T15:32:36Z</time></trkpt><trkpt lat="45.59535948835439" lon="11.372112782176165"><ele>159.66666666666669</ele><time>2026-04-06T15:32:37Z</time></trkpt><trkpt lat="45.59550136023239" lon="11.37191514992769"><ele>160.0</ele><time>2026-04-06T15:32:38Z</time></trkpt><trkpt lat="45.59563804170022" lon="11.371720152561977"><ele>160.0</ele><time>2026-04-06T15:32:39Z</time></trkpt><trkpt lat="45.595768436249315" lon="11.371526315370033"><ele>160.0</ele><time>2026-04-06T15:32:40Z</time></trkpt><trkpt lat="45.595896468459124" lon="11.371336015054567"><ele>160.0</ele><time>2026-04-06T15:32:41Z</time></trkpt><trkpt lat="45.596020968576255" lon="11.371149263750933"><ele>160.0</ele><time>2026-04-06T15:32:42Z</time></trkpt><trkpt lat="45.59614377629896" lon="11.370961492860499"><ele>160.0</ele><time>2026-04-06T15:32:43Z</time></trkpt><trkpt lat="45.59626418633979" lon="11.37077436144749"><ele>160.0</ele><time>2026-04-06T15:32:44Z</time></trkpt><trkpt lat="45.59637862603515" lon="11.370586605112031"><ele>160.66666666666669</ele><time>2026-04-06T15:32:45Z</time></trkpt><trkpt lat="45.59649107262785" lon="11.370400423033026"><ele>161.33333333333334</ele><time>2026-04-06T15:32:46Z</time></trkpt><trkpt lat="45.596603753394476" lon="11.370211293912705"><ele>162.0</ele><time>2026-04-06T15:32:47Z</time></trkpt><trkpt lat="45.59671561742852" lon="11.370024682216426"><ele>162.0</ele><time>2026-04-06T15:32:48Z</time></trkpt><trkpt lat="45.59682793067913" lon="11.369840565104344"><ele>162.0</ele><time>2026-04-06T15:32:49Z</time></trkpt><trkpt lat="45.59693700402748" lon="11.369659169633872"><ele>162.0</ele><time>2026-04-06T15:32:50Z</time></trkpt><trkpt lat="45.59704393174139" lon="11.36948047565612"><ele>162.33333333333334</ele><time>2026-04-06T15:32:51Z</time></trkpt><trkpt lat="45.59714503478193" lon="11.369305668498983"><ele>162.66666666666669</ele><time>2026-04-06T15:32:52Z</time></trkpt><trkpt lat="45.59723527989121" lon="11.369133875093288"><ele>163.0</ele><time>2026-04-06T15:32:53Z</time></trkpt><trkpt lat="45.597318503678565" lon="11.368963323373176"><ele>163.5</ele><time>2026-04-06T15:32:54Z</time></trkpt><trkpt lat="45.59739362150473" lon="11.368796791580143"><ele>164.0</ele><time>2026-04-06T15:32:55Z</time></trkpt><trkpt lat="45.59746726053586" lon="11.368632964475244"><ele>164.5</ele><time>2026-04-06T15:32:56Z</time></trkpt><trkpt lat="45.59754310933476" lon="11.36847103316059"><ele>165.0</ele><time>2026-04-06T15:32:57Z</time></trkpt><trkpt lat="45.59761903195926" lon="11.368309917166087"><ele>165.0</ele><time>2026-04-06T15:32:58Z</time></trkpt><trkpt lat="45.59769553952867" lon="11.368146857709448"><ele>165.0</ele><time>2026-04-06T15:32:59Z</time></trkpt><trkpt lat="45.59776891259726" lon="11.367985192208163"><ele>165.0</ele><time>2026-04-06T15:33:00Z</time></trkpt><trkpt lat="45.5978387176329" lon="11.367829350970009"><ele>165.0</ele><time>2026-04-06T15:33:01Z</time></trkpt><trkpt lat="45.59790719911128" lon="11.367676725707712"><ele>165.25</ele><time>2026-04-06T15:33:02Z</time></trkpt><trkpt lat="45.59797695330311" lon="11.367521066127416"><ele>165.5</ele><time>2026-04-06T15:33:03Z</time></trkpt><trkpt lat="45.598051985893264" lon="11.36736935742732"><ele>165.75</ele><time>2026-04-06T15:33:04Z</time></trkpt><trkpt lat="45.59812223898011" lon="11.367218021884096"><ele>166.0</ele><time>2026-04-06T15:33:05Z</time></trkpt><trkpt lat="45.59818802889909" lon="11.367072032307323"><ele>166.0</ele><time>2026-04-06T15:33:06Z</time></trkpt><trkpt lat="45.59825202718052" lon="11.366926465593194"><ele>166.0</ele><time>2026-04-06T15:33:07Z</time></trkpt><trkpt lat="45.59831518952884" lon="11.366783897605576"><ele>166.0</ele><time>2026-04-06T15:33:08Z</time></trkpt><trkpt lat="45.59837798593843" lon="11.366649904432132"><ele>166.0</ele><time>2026-04-06T15:33:09Z</time></trkpt><trkpt lat="45.59843644469314" lon="11.366520277799099"><ele>166.0</ele><time>2026-04-06T15:33:10Z</time></trkpt><trkpt lat="45.59849178366598" lon="11.366395467582148"><ele>166.0</ele><time>2026-04-06T15:33:11Z</time></trkpt><trkpt lat="45.598545116356775" lon="11.36627335719534"><ele>166.0</ele><time>2026-04-06T15:33:12Z</time></trkpt><trkpt lat="45.59859893140216" lon="11.366157784225212"><ele>166.0</ele><time>2026-04-06T15:33:13Z</time></trkpt><trkpt lat="45.59865460819874" lon="11.366049590539129"><ele>166.0</ele><time>2026-04-06T15:33:14Z</time></trkpt><trkpt lat="45.59871031885006" lon="11.365946069050445"><ele>166.0</ele><time>2026-04-06T15:33:15Z</time></trkpt><trkpt lat="45.59877242950002" lon="11.365858059963948"><ele>166.0</ele><time>2026-04-06T15:33:16Z</time></trkpt><trkpt lat="45.59884629357851" lon="11.365793043500963"><ele>166.0</ele><time>2026-04-06T15:33:17Z</time></trkpt><trkpt lat="45.59892001001785" lon="11.365733766102913"><ele>166.0</ele><time>2026-04-06T15:33:18Z</time></trkpt><trkpt lat="45.59896957659363" lon="11.36564265518446"><ele>166.0</ele><time>2026-04-06T15:33:19Z</time></trkpt><trkpt lat="45.59899493249776" lon="11.3655245118915"><ele>166.0</ele><time>2026-04-06T15:33:20Z</time></trkpt><trkpt lat="45.599010704794296" lon="11.365388535505124"><ele>165.60000000000002</ele><time>2026-04-06T15:33:21Z</time></trkpt><trkpt lat="45.59904032092041" lon="11.365242857701935"><ele>165.2</ele><time>2026-04-06T15:33:22Z</time></trkpt><trkpt lat="45.59907972445471" lon="11.365098331469003"><ele>164.8</ele><time>2026-04-06T15:33:23Z</time></trkpt><trkpt lat="45.59913313611893" lon="11.364962692058235"><ele>164.39999999999998</ele><time>2026-04-06T15:33:24Z</time></trkpt><trkpt lat="45.59919156855813" lon="11.364835996526825"><ele>164.0</ele><time>2026-04-06T15:33:25Z</time></trkpt><trkpt lat="45.59924830934764" lon="11.364702024033473"><ele>164.25</ele><time>2026-04-06T15:33:26Z</time></trkpt><trkpt lat="45.59930484577818" lon="11.364564774747917"><ele>164.5</ele><time>2026-04-06T15:33:27Z</time></trkpt><trkpt lat="45.5993601677719" lon="11.364421438368117"><ele>164.75</ele><time>2026-04-06T15:33:28Z</time></trkpt><trkpt lat="45.599417390704346" lon="11.36427350412033"><ele>165.0</ele><time>2026-04-06T15:33:29Z</time></trkpt><trkpt lat="45.59947752267319" lon="11.364123857988513"><ele>165.5</ele><time>2026-04-06T15:33:30Z</time></trkpt><trkpt lat="45.599534645034296" lon="11.36398599588124"><ele>166.0</ele><time>2026-04-06T15:33:31Z</time></trkpt><trkpt lat="45.599592361587696" lon="11.36384336441729"><ele>166.5</ele><time>2026-04-06T15:33:32Z</time></trkpt><trkpt lat="45.59965373638654" lon="11.363691363584111"><ele>167.0</ele><time>2026-04-06T15:33:33Z</time></trkpt><trkpt lat="45.5997168822322" lon="11.36353912241062"><ele>167.25</ele><time>2026-04-06T15:33:34Z</time></trkpt><trkpt lat="45.59978052839184" lon="11.363393125167125"><ele>167.5</ele><time>2026-04-06T15:33:35Z</time></trkpt><trkpt lat="45.599841043136486" lon="11.363249212345396"><ele>167.75</ele><time>2026-04-06T15:33:36Z</time></trkpt><trkpt lat="45.599899731617086" lon="11.363104592856676"><ele>168.0</ele><time>2026-04-06T15:33:37Z</time></trkpt><trkpt lat="45.59995976294526" lon="11.362960502964075"><ele>168.0</ele><time>2026-04-06T15:33:38Z</time></trkpt><trkpt lat="45.60001791765793" lon="11.362826609332176"><ele>168.0</ele><time>2026-04-06T15:33:39Z</time></trkpt><trkpt lat="45.60007508076454" lon="11.362694683123435"><ele>168.0</ele><time>2026-04-06T15:33:40Z</time></trkpt><trkpt lat="45.600126963263335" lon="11.362567093808442"><ele>168.0</ele><time>2026-04-06T15:33:41Z</time></trkpt><trkpt lat="45.60017219551844" lon="11.36244062602797"><ele>168.0</ele><time>2026-04-06T15:33:42Z</time></trkpt><trkpt lat="45.60020562595513" lon="11.362310932420659"><ele>168.0</ele><time>2026-04-06T15:33:43Z</time></trkpt><trkpt lat="45.60021381143986" lon="11.36217419903516"><ele>168.0</ele><time>2026-04-06T15:33:44Z</time></trkpt><trkpt lat="45.6002025812555" lon="11.362046188675556"><ele>168.0</ele><time>2026-04-06T15:33:45Z</time></trkpt><trkpt lat="45.60018198554415" lon="11.361926063516403"><ele>168.0</ele><time>2026-04-06T15:33:46Z</time></trkpt><trkpt lat="45.60017228609408" lon="11.361806002285114"><ele>168.0</ele><time>2026-04-06T15:33:47Z</time></trkpt><trkpt lat="45.600179622603484" lon="11.361683063695194"><ele>168.0</ele><time>2026-04-06T15:33:48Z</time></trkpt><trkpt lat="45.60019637241269" lon="11.361550522354646"><ele>168.0</ele><time>2026-04-06T15:33:49Z</time></trkpt><trkpt lat="45.600181667297" lon="11.361414015813393"><ele>168.0</ele><time>2026-04-06T15:33:50Z</time></trkpt><trkpt lat="45.60012378431937" lon="11.361295783385165"><ele>168.0</ele><time>2026-04-06T15:33:51Z</time></trkpt><trkpt lat="45.60003866855431" lon="11.361216631277717"><ele>168.0</ele><time>2026-04-06T15:33:52Z</time></trkpt><trkpt lat="45.59993150134794" lon="11.36117726848102"><ele>168.0</ele><time>2026-04-06T15:33:53Z</time></trkpt><trkpt lat="45.599802950340155" lon="11.361154934035216"><ele>168.0</ele><time>2026-04-06T15:33:54Z</time></trkpt><trkpt lat="45.599665343603924" lon="11.361105686667424"><ele>168.0</ele><time>2026-04-06T15:33:55Z</time></trkpt><trkpt lat="45.59952245477465" lon="11.361017193564193"><ele>168.0</ele><time>2026-04-06T15:33:56Z</time></trkpt><trkpt lat="45.59937949078075" lon="11.360911416659548"><ele>167.75</ele><time>2026-04-06T15:33:57Z</time></trkpt><trkpt lat="45.59924398115008" lon="11.36080608052659"><ele>167.5</ele><time>2026-04-06T15:33:58Z</time></trkpt><trkpt lat="45.59912811565722" lon="11.36068268480561"><ele>167.25</ele><time>2026-04-06T15:33:59Z</time></trkpt><trkpt lat="45.599041568652304" lon="11.360529190934962"><ele>167.0</ele><time>2026-04-06T15:34:00Z</time></trkpt><trkpt lat="45.59900130937367" lon="11.360348271652754"><ele>166.75</ele><time>2026-04-06T15:34:01Z</time></trkpt><trkpt lat="45.5989950891044" lon="11.360155810975009"><ele>166.5</ele><time>2026-04-06T15:34:02Z</time></trkpt><trkpt lat="45.599011588977845" lon="11.359960758165448"><ele>166.25</ele><time>2026-04-06T15:34:03Z</time></trkpt><trkpt lat="45.5990460179241" lon="11.359771908647962"><ele>166.0</ele><time>2026-04-06T15:34:04Z</time></trkpt><trkpt lat="45.59909432832654" lon="11.359593776123932"><ele>166.75</ele><time>2026-04-06T15:34:05Z</time></trkpt><trkpt lat="45.59916897600112" lon="11.359438303259523"><ele>167.5</ele><time>2026-04-06T15:34:06Z</time></trkpt><trkpt lat="45.59926829534736" lon="11.359308065895927"><ele>168.25</ele><time>2026-04-06T15:34:07Z</time></trkpt><trkpt lat="45.59939344967043" lon="11.35921003278644"><ele>169.0</ele><time>2026-04-06T15:34:08Z</time></trkpt><trkpt lat="45.59953061532332" lon="11.359136440315092"><ele>169.0</ele><time>2026-04-06T15:34:09Z</time></trkpt><trkpt lat="45.599670823196426" lon="11.35906159519696"><ele>169.0</ele><time>2026-04-06T15:34:10Z</time></trkpt><trkpt lat="45.599801061331505" lon="11.358960621958174"><ele>169.0</ele><time>2026-04-06T15:34:11Z</time></trkpt><trkpt lat="45.59991748651223" lon="11.358840377500425"><ele>169.0</ele><time>2026-04-06T15:34:12Z</time></trkpt><trkpt lat="45.60001977833951" lon="11.35870650760214"><ele>169.0</ele><time>2026-04-06T15:34:13Z</time></trkpt><trkpt lat="45.600121234987576" lon="11.358561239944274"><ele>169.0</ele><time>2026-04-06T15:34:14Z</time></trkpt><trkpt lat="45.6002267400388" lon="11.35839951166791"><ele>169.0</ele><time>2026-04-06T15:34:15Z</time></trkpt><trkpt lat="45.600339979355454" lon="11.358222667451043"><ele>170.33333333333334</ele><time>2026-04-06T15:34:16Z</time></trkpt><trkpt lat="45.60046158390591" lon="11.35802851818914"><ele>171.66666666666666</ele><time>2026-04-06T15:34:17Z</time></trkpt><trkpt lat="45.600596457796" lon="11.35782680739143"><ele>173.0</ele><time>2026-04-06T15:34:18Z</time></trkpt><trkpt lat="45.60074266123828" lon="11.35762053008492"><ele>173.0</ele><time>2026-04-06T15:34:19Z</time></trkpt><trkpt lat="45.60089654127885" lon="11.357398894025287"><ele>173.0</ele><time>2026-04-06T15:34:20Z</time></trkpt><trkpt lat="45.60105476792886" lon="11.357167853188976"><ele>173.0</ele><time>2026-04-06T15:34:21Z</time></trkpt><trkpt lat="45.601215210468204" lon="11.356927327226146"><ele>173.0</ele><time>2026-04-06T15:34:22Z</time></trkpt><trkpt lat="45.6013757463462" lon="11.356681525286348"><ele>173.0</ele><time>2026-04-06T15:34:23Z</time></trkpt><trkpt lat="45.60153795507656" lon="11.356431579680446"><ele>173.0</ele><time>2026-04-06T15:34:24Z</time></trkpt><trkpt lat="45.60170300704782" lon="11.356182416123698"><ele>173.0</ele><time>2026-04-06T15:34:25Z</time></trkpt><trkpt lat="45.60186912014668" lon="11.355932985870353"><ele>174.0</ele><time>2026-04-06T15:34:26Z</time></trkpt><trkpt lat="45.602034259390486" lon="11.355683717691075"><ele>175.0</ele><time>2026-04-06T15:34:27Z</time></trkpt><trkpt lat="45.60219783521433" lon="11.355433566266251"><ele>175.0</ele><time>2026-04-06T15:34:28Z</time></trkpt><trkpt lat="45.6023608193415" lon="11.35518192318073"><ele>175.0</ele><time>2026-04-06T15:34:29Z</time></trkpt><trkpt lat="45.60252367944014" lon="11.354930461244333"><ele>175.0</ele><time>2026-04-06T15:34:30Z</time></trkpt><trkpt lat="45.60268622608232" lon="11.354676037624946"><ele>175.0</ele><time>2026-04-06T15:34:31Z</time></trkpt><trkpt lat="45.602845768193355" lon="11.354414962921663"><ele>175.0</ele><time>2026-04-06T15:34:32Z</time></trkpt><trkpt lat="45.60300498924773" lon="11.354146252893417"><ele>175.0</ele><time>2026-04-06T15:34:33Z</time></trkpt><trkpt lat="45.603165335852765" lon="11.353871754364695"><ele>175.0</ele><time>2026-04-06T15:34:34Z</time></trkpt><trkpt lat="45.6033253689612" lon="11.353585515966493"><ele>175.0</ele><time>2026-04-06T15:34:35Z</time></trkpt><trkpt lat="45.60348407685951" lon="11.353289685503688"><ele>175.0</ele><time>2026-04-06T15:34:36Z</time></trkpt><trkpt lat="45.603641511910936" lon="11.352984297823452"><ele>175.0</ele><time>2026-04-06T15:34:37Z</time></trkpt><trkpt lat="45.60380275493918" lon="11.352676269294836"><ele>175.5</ele><time>2026-04-06T15:34:38Z</time></trkpt><trkpt lat="45.6039686386997" lon="11.352365405861727"><ele>176.0</ele><time>2026-04-06T15:34:39Z</time></trkpt><trkpt lat="45.604136817755595" lon="11.352047850830369"><ele>176.0</ele><time>2026-04-06T15:34:40Z</time></trkpt><trkpt lat="45.60430826022805" lon="11.35172755429857"><ele>176.0</ele><time>2026-04-06T15:34:41Z</time></trkpt><trkpt lat="45.60448135518388" lon="11.351402852502332"><ele>178.0</ele><time>2026-04-06T15:34:42Z</time></trkpt><trkpt lat="45.604655063078475" lon="11.35107654909702"><ele>180.0</ele><time>2026-04-06T15:34:43Z</time></trkpt><trkpt lat="45.604830096380034" lon="11.350748007765796"><ele>179.5</ele><time>2026-04-06T15:34:44Z</time></trkpt><trkpt lat="45.60500553624164" lon="11.35041735420445"><ele>179.0</ele><time>2026-04-06T15:34:45Z</time></trkpt><trkpt lat="45.605180715275935" lon="11.35008565107793"><ele>179.0</ele><time>2026-04-06T15:34:46Z</time></trkpt><trkpt lat="45.605354617769514" lon="11.349752615010075"><ele>179.0</ele><time>2026-04-06T15:34:47Z</time></trkpt><trkpt lat="45.60552830248194" lon="11.349419417729793"><ele>179.0</ele><time>2026-04-06T15:34:48Z</time></trkpt><trkpt lat="45.605704173061746" lon="11.34908674729646"><ele>179.0</ele><time>2026-04-06T15:34:49Z</time></trkpt><trkpt lat="45.60588194954976" lon="11.348756652526294"><ele>179.0</ele><time>2026-04-06T15:34:50Z</time></trkpt><trkpt lat="45.60605977525761" lon="11.348427673469493"><ele>179.0</ele><time>2026-04-06T15:34:51Z</time></trkpt><trkpt lat="45.60623489423449" lon="11.348096713745008"><ele>180.0</ele><time>2026-04-06T15:34:52Z</time></trkpt><trkpt lat="45.606408782440894" lon="11.347765382122548"><ele>181.0</ele><time>2026-04-06T15:34:53Z</time></trkpt><trkpt lat="45.60658166883147" lon="11.34743469654285"><ele>179.0</ele><time>2026-04-06T15:34:54Z</time></trkpt><trkpt lat="45.606752344754696" lon="11.347104594210107"><ele>177.0</ele><time>2026-04-06T15:34:55Z</time></trkpt><trkpt lat="45.60692381322507" lon="11.346778768005054"><ele>178.5</ele><time>2026-04-06T15:34:56Z</time></trkpt><trkpt lat="45.60709490204479" lon="11.346453011338767"><ele>180.0</ele><time>2026-04-06T15:34:57Z</time></trkpt><trkpt lat="45.60726246318473" lon="11.346124358866591"><ele>180.5</ele><time>2026-04-06T15:34:58Z</time></trkpt><trkpt lat="45.6074321466767" lon="11.34579953164103"><ele>181.0</ele><time>2026-04-06T15:34:59Z</time></trkpt><trkpt lat="45.6076010398811" lon="11.345479877125202"><ele>181.0</ele><time>2026-04-06T15:35:00Z</time></trkpt><trkpt lat="45.607766958703344" lon="11.345162134347417"><ele>181.0</ele><time>2026-04-06T15:35:01Z</time></trkpt><trkpt lat="45.60793323870993" lon="11.344852107441138"><ele>183.0</ele><time>2026-04-06T15:35:02Z</time></trkpt><trkpt lat="45.60809986455743" lon="11.344539402630254"><ele>185.0</ele><time>2026-04-06T15:35:03Z</time></trkpt><trkpt lat="45.60827034593213" lon="11.344218367860593"><ele>185.0</ele><time>2026-04-06T15:35:04.016Z</time></trkpt><trkpt lat="45.60843947002935" lon="11.343896266757211"><ele>185.0</ele><time>2026-04-06T15:35:05.024Z</time></trkpt><trkpt lat="45.608606883413614" lon="11.343578042700159"><ele>186.0</ele><time>2026-04-06T15:35:06.017Z</time></trkpt><trkpt lat="45.608776527048995" lon="11.34325790072454"><ele>187.0</ele><time>2026-04-06T15:35:07.021Z</time></trkpt><trkpt lat="45.610336078069764" lon="11.33991949614887"><ele>191.0</ele><time>2026-04-06T15:35:11.563Z</time></trkpt><trkpt lat="45.6105378" lon="11.3392118"><ele>191.0</ele><time>2026-04-06T15:35:12.563Z</time></trkpt><trkpt lat="45.61060982760564" lon="11.338531589146086"><ele>191.0</ele><time>2026-04-06T15:35:22Z</time></trkpt><trkpt lat="45.610710723941494" lon="11.338217723509219"><ele>191.0</ele><time>2026-04-06T15:35:23Z</time></trkpt><trkpt lat="45.61097064236012" lon="11.337798669179424"><ele>190.5</ele><time>2026-04-06T15:35:24Z</time></trkpt><trkpt lat="45.61107653237061" lon="11.337492804273493"><ele>190.0</ele><time>2026-04-06T15:35:25Z</time></trkpt><trkpt lat="45.6111857450302" lon="11.337188866849472"><ele>191.5</ele><time>2026-04-06T15:35:26Z</time></trkpt><trkpt lat="45.61131978073818" lon="11.336907231726085"><ele>193.0</ele><time>2026-04-06T15:35:27Z</time></trkpt><trkpt lat="45.61142950185306" lon="11.336621109538074"><ele>193.0</ele><time>2026-04-06T15:35:28Z</time></trkpt><trkpt lat="45.61154611712593" lon="11.33634690887664"><ele>193.0</ele><time>2026-04-06T15:35:29Z</time></trkpt><trkpt lat="45.61166655187463" lon="11.336072404057685"><ele>193.0</ele><time>2026-04-06T15:35:30Z</time></trkpt><trkpt lat="45.611785284972136" lon="11.335815525537107"><ele>193.0</ele><time>2026-04-06T15:35:31Z</time></trkpt><trkpt lat="45.611898309386234" lon="11.335578484010314"><ele>193.0</ele><time>2026-04-06T15:35:32Z</time></trkpt><trkpt lat="45.612006946303346" lon="11.335354114693532"><ele>193.33333333333331</ele><time>2026-04-06T15:35:33Z</time></trkpt><trkpt lat="45.61210956904935" lon="11.335142166543502"><ele>193.66666666666669</ele><time>2026-04-06T15:35:34Z</time></trkpt><trkpt lat="45.61220914034704" lon="11.334936658272653"><ele>194.0</ele><time>2026-04-06T15:35:35Z</time></trkpt><trkpt lat="45.61230992575432" lon="11.33472873304226"><ele>194.66666666666669</ele><time>2026-04-06T15:35:36Z</time></trkpt><trkpt lat="45.612413157232226" lon="11.334515761639189"><ele>195.33333333333331</ele><time>2026-04-06T15:35:37Z</time></trkpt><trkpt lat="45.61251970044614" lon="11.334295527219345"><ele>196.0</ele><time>2026-04-06T15:35:38Z</time></trkpt><trkpt lat="45.61262712427915" lon="11.334071274613832"><ele>196.33333333333331</ele><time>2026-04-06T15:35:39Z</time></trkpt><trkpt lat="45.61274279514825" lon="11.333829806162782"><ele>196.66666666666669</ele><time>2026-04-06T15:35:40Z</time></trkpt><trkpt lat="45.612866822270476" lon="11.333570893549922"><ele>197.0</ele><time>2026-04-06T15:35:41Z</time></trkpt><trkpt lat="45.61299639333137" lon="11.333302331853186"><ele>196.0</ele><time>2026-04-06T15:35:42Z</time></trkpt><trkpt lat="45.61311507569778" lon="11.333022172933822"><ele>195.0</ele><time>2026-04-06T15:35:43Z</time></trkpt><trkpt lat="45.61323893422634" lon="11.332765445980698"><ele>194.0</ele><time>2026-04-06T15:35:44Z</time></trkpt><trkpt lat="45.61334550237546" lon="11.332526048291106"><ele>194.0</ele><time>2026-04-06T15:35:45Z</time></trkpt><trkpt lat="45.613426576192055" lon="11.332306376344015"><ele>194.0</ele><time>2026-04-06T15:35:46Z</time></trkpt><trkpt lat="45.613497262885126" lon="11.332088256879606"><ele>194.0</ele><time>2026-04-06T15:35:47Z</time></trkpt><trkpt lat="45.613561955388406" lon="11.331877779712045"><ele>194.5</ele><time>2026-04-06T15:35:48Z</time></trkpt><trkpt lat="45.61362364885764" lon="11.331672576975418"><ele>195.0</ele><time>2026-04-06T15:35:49Z</time></trkpt><trkpt lat="45.613696457219746" lon="11.331491728937193"><ele>195.5</ele><time>2026-04-06T15:35:50Z</time></trkpt><trkpt lat="45.61373481420241" lon="11.331311461456403"><ele>196.0</ele><time>2026-04-06T15:35:51Z</time></trkpt><trkpt lat="45.61379329677285" lon="11.33115679924197"><ele>196.0</ele><time>2026-04-06T15:35:52Z</time></trkpt><trkpt lat="45.61388424851381" lon="11.331073931243226"><ele>196.0</ele><time>2026-04-06T15:35:53Z</time></trkpt><trkpt lat="45.61396527725797" lon="11.330982775119807"><ele>196.0</ele><time>2026-04-06T15:35:54Z</time></trkpt><trkpt lat="45.61404674728062" lon="11.330892293789999"><ele>196.0</ele><time>2026-04-06T15:35:55Z</time></trkpt><trkpt lat="45.614142004180515" lon="11.330840158062658"><ele>196.0</ele><time>2026-04-06T15:35:56Z</time></trkpt><trkpt lat="45.61422521587038" lon="11.330756110114892"><ele>196.0</ele><time>2026-04-06T15:35:57Z</time></trkpt><trkpt lat="45.614275769058075" lon="11.330627097389888"><ele>196.0</ele><time>2026-04-06T15:35:58Z</time></trkpt><trkpt lat="45.614349417151544" lon="11.330505577254769"><ele>196.0</ele><time>2026-04-06T15:35:59Z</time></trkpt><trkpt lat="45.61444246354792" lon="11.330360626385133"><ele>196.0</ele><time>2026-04-06T15:36:00Z</time></trkpt><trkpt lat="45.614560434637646" lon="11.33022548397291"><ele>196.5</ele><time>2026-04-06T15:36:01Z</time></trkpt><trkpt lat="45.61469450610764" lon="11.330124567722525"><ele>197.0</ele><time>2026-04-06T15:36:02Z</time></trkpt><trkpt lat="45.61483343655436" lon="11.330055358200303"><ele>197.5</ele><time>2026-04-06T15:36:03Z</time></trkpt><trkpt lat="45.61496829417319" lon="11.329997353306346"><ele>198.0</ele><time>2026-04-06T15:36:04Z</time></trkpt><trkpt lat="45.61508994405931" lon="11.329942606307299"><ele>198.0</ele><time>2026-04-06T15:36:05Z</time></trkpt><trkpt lat="45.615191458569015" lon="11.329907856005235"><ele>198.0</ele><time>2026-04-06T15:36:06Z</time></trkpt><trkpt lat="45.61528829244383" lon="11.329901375284674"><ele>198.0</ele><time>2026-04-06T15:36:07Z</time></trkpt><trkpt lat="45.61538842946044" lon="11.329929793262604"><ele>198.0</ele><time>2026-04-06T15:36:08Z</time></trkpt><trkpt lat="45.615484530989" lon="11.329970741976847"><ele>198.0</ele><time>2026-04-06T15:36:09Z</time></trkpt><trkpt lat="45.615579979282444" lon="11.329966164586486"><ele>198.2</ele><time>2026-04-06T15:36:10Z</time></trkpt><trkpt lat="45.615669622128266" lon="11.32990706477107"><ele>198.4</ele><time>2026-04-06T15:36:11Z</time></trkpt><trkpt lat="45.615737607595136" lon="11.32979902937258"><ele>198.6</ele><time>2026-04-06T15:36:12Z</time></trkpt><trkpt lat="45.61578669328992" lon="11.329651586766147"><ele>198.79999999999998</ele><time>2026-04-06T15:36:13Z</time></trkpt><trkpt lat="45.6158306054739" lon="11.329480979368611"><ele>199.0</ele><time>2026-04-06T15:36:14Z</time></trkpt><trkpt lat="45.6158794899584" lon="11.329303564147255"><ele>199.66666666666666</ele><time>2026-04-06T15:36:15Z</time></trkpt><trkpt lat="45.61600955867246" lon="11.32916725831428"><ele>200.33333333333331</ele><time>2026-04-06T15:36:16Z</time></trkpt><trkpt lat="45.61613113504468" lon="11.32901808690949"><ele>201.0</ele><time>2026-04-06T15:36:17Z</time></trkpt><trkpt lat="45.61624932389857" lon="11.328834569486872"><ele>202.33333333333331</ele><time>2026-04-06T15:36:18Z</time></trkpt><trkpt lat="45.616358550050755" lon="11.328634332192465"><ele>203.66666666666666</ele><time>2026-04-06T15:36:19Z</time></trkpt><trkpt lat="45.61646196583856" lon="11.328422656204433"><ele>205.0</ele><time>2026-04-06T15:36:20Z</time></trkpt><trkpt lat="45.616569867439274" lon="11.328196110962695"><ele>204.33333333333331</ele><time>2026-04-06T15:36:21Z</time></trkpt><trkpt lat="45.61668446143651" lon="11.327959976254858"><ele>203.66666666666669</ele><time>2026-04-06T15:36:22Z</time></trkpt><trkpt lat="45.61680568590618" lon="11.327716949635326"><ele>203.0</ele><time>2026-04-06T15:36:23Z</time></trkpt><trkpt lat="45.61693134879537" lon="11.327468153130733"><ele>204.66666666666669</ele><time>2026-04-06T15:36:24Z</time></trkpt><trkpt lat="45.61705722960065" lon="11.327213579594282"><ele>206.33333333333331</ele><time>2026-04-06T15:36:25Z</time></trkpt><trkpt lat="45.61718271597875" lon="11.326954645027067"><ele>208.0</ele><time>2026-04-06T15:36:26Z</time></trkpt><trkpt lat="45.61731075462602" lon="11.326696544174313"><ele>208.0</ele><time>2026-04-06T15:36:27Z</time></trkpt><trkpt lat="45.61743922344845" lon="11.326439878382265"><ele>208.0</ele><time>2026-04-06T15:36:28Z</time></trkpt><trkpt lat="45.61756556656599" lon="11.326189387500229"><ele>208.0</ele><time>2026-04-06T15:36:29Z</time></trkpt><trkpt lat="45.61768723599475" lon="11.325948368275593"><ele>208.0</ele><time>2026-04-06T15:36:30Z</time></trkpt><trkpt lat="45.617806348204674" lon="11.325714447819765"><ele>208.0</ele><time>2026-04-06T15:36:31Z</time></trkpt><trkpt lat="45.61791699270989" lon="11.325484949199952"><ele>208.0</ele><time>2026-04-06T15:36:32Z</time></trkpt><trkpt lat="45.618022684961154" lon="11.325260756443527"><ele>208.0</ele><time>2026-04-06T15:36:33Z</time></trkpt><trkpt lat="45.618129513209034" lon="11.325042652289548"><ele>208.0</ele><time>2026-04-06T15:36:34Z</time></trkpt><trkpt lat="45.61823846753969" lon="11.324821692155991"><ele>208.0</ele><time>2026-04-06T15:36:35Z</time></trkpt><trkpt lat="45.618350571824536" lon="11.32459387041537"><ele>208.0</ele><time>2026-04-06T15:36:36Z</time></trkpt><trkpt lat="45.61846434405921" lon="11.324360654644323"><ele>208.0</ele><time>2026-04-06T15:36:37Z</time></trkpt><trkpt lat="45.61857499974429" lon="11.324134198260957"><ele>208.0</ele><time>2026-04-06T15:36:38Z</time></trkpt><trkpt lat="45.618684396146946" lon="11.323918030149878"><ele>209.0</ele><time>2026-04-06T15:36:39Z</time></trkpt><trkpt lat="45.61879088535733" lon="11.323704207939192"><ele>210.0</ele><time>2026-04-06T15:36:40Z</time></trkpt><trkpt lat="45.618894995812454" lon="11.323494276004572"><ele>211.0</ele><time>2026-04-06T15:36:41Z</time></trkpt><trkpt lat="45.6189994024796" lon="11.32328287219067"><ele>211.0</ele><time>2026-04-06T15:36:42Z</time></trkpt><trkpt lat="45.61910336700299" lon="11.323072636803328"><ele>211.0</ele><time>2026-04-06T15:36:43Z</time></trkpt><trkpt lat="45.6192048623104" lon="11.322865011263529"><ele>211.0</ele><time>2026-04-06T15:36:44Z</time></trkpt><trkpt lat="45.61930540366269" lon="11.322662949064636"><ele>211.0</ele><time>2026-04-06T15:36:45Z</time></trkpt><trkpt lat="45.61939947428295" lon="11.322460887906969"><ele>211.0</ele><time>2026-04-06T15:36:46Z</time></trkpt><trkpt lat="45.61948949317998" lon="11.322262276708805"><ele>211.0</ele><time>2026-04-06T15:36:47Z</time></trkpt><trkpt lat="45.61957707784143" lon="11.322065967602159"><ele>211.0</ele><time>2026-04-06T15:36:48Z</time></trkpt><trkpt lat="45.619667433388166" lon="11.321874843451576"><ele>211.0</ele><time>2026-04-06T15:36:49Z</time></trkpt><trkpt lat="45.619763139216126" lon="11.321684300298227"><ele>211.0</ele><time>2026-04-06T15:36:50Z</time></trkpt><trkpt lat="45.61986375324752" lon="11.32149275494263"><ele>210.66666666666666</ele><time>2026-04-06T15:36:51Z</time></trkpt><trkpt lat="45.619965913642844" lon="11.321299532709341"><ele>210.33333333333331</ele><time>2026-04-06T15:36:52Z</time></trkpt><trkpt lat="45.62006760653473" lon="11.32110712854066"><ele>210.0</ele><time>2026-04-06T15:36:53Z</time></trkpt><trkpt lat="45.62016521381454" lon="11.320913983757261"><ele>210.0</ele><time>2026-04-06T15:36:54Z</time></trkpt><trkpt lat="45.6202604130679" lon="11.320721063826202"><ele>210.0</ele><time>2026-04-06T15:36:55Z</time></trkpt><trkpt lat="45.62035821301685" lon="11.320525010523156"><ele>210.0</ele><time>2026-04-06T15:36:56Z</time></trkpt><trkpt lat="45.620460699280315" lon="11.320334911244451"><ele>210.66666666666669</ele><time>2026-04-06T15:36:57Z</time></trkpt><trkpt lat="45.62056744181286" lon="11.320152764062408"><ele>211.33333333333334</ele><time>2026-04-06T15:36:58Z</time></trkpt><trkpt lat="45.62067779118488" lon="11.319980467451188"><ele>212.0</ele><time>2026-04-06T15:36:59Z</time></trkpt><trkpt lat="45.62079352185947" lon="11.319819325711148"><ele>212.33333333333334</ele><time>2026-04-06T15:37:00Z</time></trkpt><trkpt lat="45.6209100310144" lon="11.319663564914322"><ele>212.66666666666669</ele><time>2026-04-06T15:37:01Z</time></trkpt><trkpt lat="45.621024633663545" lon="11.319510206768882"><ele>213.0</ele><time>2026-04-06T15:37:02Z</time></trkpt><trkpt lat="45.62113836074156" lon="11.319352809637515"><ele>213.0</ele><time>2026-04-06T15:37:03Z</time></trkpt><trkpt lat="45.6212506747094" lon="11.31919275945318"><ele>213.0</ele><time>2026-04-06T15:37:04Z</time></trkpt><trkpt lat="45.62136213922678" lon="11.319036277633565"><ele>213.0</ele><time>2026-04-06T15:37:05Z</time></trkpt><trkpt lat="45.62147298926049" lon="11.31888346989231"><ele>213.0</ele><time>2026-04-06T15:37:06Z</time></trkpt><trkpt lat="45.621584113508824" lon="11.318734087918534"><ele>213.0</ele><time>2026-04-06T15:37:07Z</time></trkpt><trkpt lat="45.621705991255595" lon="11.318608849371916"><ele>213.0</ele><time>2026-04-06T15:37:08Z</time></trkpt><trkpt lat="45.62179834732294" lon="11.318454015754853"><ele>213.0</ele><time>2026-04-06T15:37:09Z</time></trkpt><trkpt lat="45.62189545564647" lon="11.318320815296389"><ele>213.0</ele><time>2026-04-06T15:37:10Z</time></trkpt><trkpt lat="45.62199400809735" lon="11.318199060786183"><ele>213.0</ele><time>2026-04-06T15:37:11Z</time></trkpt><trkpt lat="45.62208250895963" lon="11.31807811232901"><ele>213.0</ele><time>2026-04-06T15:37:12Z</time></trkpt><trkpt lat="45.62216146719194" lon="11.317969538053669"><ele>213.0</ele><time>2026-04-06T15:37:13Z</time></trkpt><trkpt lat="45.622231846570024" lon="11.317872858766545"><ele>213.16666666666666</ele><time>2026-04-06T15:37:14Z</time></trkpt><trkpt lat="45.62229558033443" lon="11.31778934957097"><ele>213.33333333333331</ele><time>2026-04-06T15:37:15Z</time></trkpt><trkpt lat="45.62234841009883" lon="11.317715952821587"><ele>213.5</ele><time>2026-04-06T15:37:16Z</time></trkpt><trkpt lat="45.62239920276664" lon="11.317644136522176"><ele>213.66666666666666</ele><time>2026-04-06T15:37:17Z</time></trkpt><trkpt lat="45.622458732759696" lon="11.317590740561625"><ele>213.83333333333331</ele><time>2026-04-06T15:37:18Z</time></trkpt><trkpt lat="45.62252002356427" lon="11.317535032744505"><ele>214.0</ele><time>2026-04-06T15:37:19Z</time></trkpt><trkpt lat="45.622578304984025" lon="11.317452446243754"><ele>214.0</ele><time>2026-04-06T15:37:20Z</time></trkpt><trkpt lat="45.62263562339446" lon="11.317357369278206"><ele>213.99999999999997</ele><time>2026-04-06T15:37:21Z</time></trkpt><trkpt lat="45.62269918861725" lon="11.317264876766034"><ele>213.99999999999997</ele><time>2026-04-06T15:37:22Z</time></trkpt><trkpt lat="45.62276499478867" lon="11.317171495016236"><ele>214.0</ele><time>2026-04-06T15:37:23Z</time></trkpt><trkpt lat="45.62282405319454" lon="11.317080550563466"><ele>214.0</ele><time>2026-04-06T15:37:24Z</time></trkpt><trkpt lat="45.62290871672511" lon="11.316997021992675"><ele>214.25</ele><time>2026-04-06T15:37:25Z</time></trkpt><trkpt lat="45.62297619120539" lon="11.316844037143264"><ele>214.5</ele><time>2026-04-06T15:37:26Z</time></trkpt><trkpt lat="45.623080788487826" lon="11.316724097447022"><ele>214.75</ele><time>2026-04-06T15:37:27Z</time></trkpt><trkpt lat="45.62320656808808" lon="11.31658914405866"><ele>215.0</ele><time>2026-04-06T15:37:28Z</time></trkpt><trkpt lat="45.62332404529246" lon="11.316441804610257"><ele>215.66666666666669</ele><time>2026-04-06T15:37:29Z</time></trkpt><trkpt lat="45.62345402252132" lon="11.316265901669485"><ele>216.33333333333331</ele><time>2026-04-06T15:37:30Z</time></trkpt><trkpt lat="45.623591882302115" lon="11.316075261100508"><ele>217.0</ele><time>2026-04-06T15:37:31Z</time></trkpt><trkpt lat="45.62373688986361" lon="11.31587484487547"><ele>217.0</ele><time>2026-04-06T15:37:32Z</time></trkpt><trkpt lat="45.623882417899544" lon="11.315673441050855"><ele>217.0</ele><time>2026-04-06T15:37:33Z</time></trkpt><trkpt lat="45.6240389096931" lon="11.315460684828844"><ele>217.0</ele><time>2026-04-06T15:37:34Z</time></trkpt><trkpt lat="45.624199536093116" lon="11.315247805884164"><ele>216.66666666666666</ele><time>2026-04-06T15:37:35Z</time></trkpt><trkpt lat="45.6243543933847" lon="11.315040244783068"><ele>216.33333333333331</ele><time>2026-04-06T15:37:36Z</time></trkpt><trkpt lat="45.624501255534746" lon="11.314843163868861"><ele>216.0</ele><time>2026-04-06T15:37:37Z</time></trkpt><trkpt lat="45.624643946230435" lon="11.314656716333136"><ele>216.0</ele><time>2026-04-06T15:37:38Z</time></trkpt><trkpt lat="45.624785833510465" lon="11.314469805596767"><ele>216.0</ele><time>2026-04-06T15:37:39Z</time></trkpt><trkpt lat="45.62495020926352" lon="11.314306097523422"><ele>216.0</ele><time>2026-04-06T15:37:40Z</time></trkpt><trkpt lat="45.625110027676484" lon="11.314127879036526"><ele>216.0</ele><time>2026-04-06T15:37:41Z</time></trkpt><trkpt lat="45.62526227312002" lon="11.313963492896795"><ele>216.0</ele><time>2026-04-06T15:37:42Z</time></trkpt><trkpt lat="45.625392670864464" lon="11.313806651028903"><ele>216.0</ele><time>2026-04-06T15:37:43Z</time></trkpt><trkpt lat="45.62552053302712" lon="11.31367650597764"><ele>216.75</ele><time>2026-04-06T15:37:44Z</time></trkpt><trkpt lat="45.62564075877961" lon="11.31354638801434"><ele>217.5</ele><time>2026-04-06T15:37:45Z</time></trkpt><trkpt lat="45.625755240510394" lon="11.313424210374366"><ele>218.25</ele><time>2026-04-06T15:37:46Z</time></trkpt><trkpt lat="45.62586635359299" lon="11.313310137325365"><ele>219.0</ele><time>2026-04-06T15:37:47Z</time></trkpt><trkpt lat="45.62597129664822" lon="11.31319824322103"><ele>219.0</ele><time>2026-04-06T15:37:48Z</time></trkpt><trkpt lat="45.62606963225429" lon="11.313092604445556"><ele>219.0</ele><time>2026-04-06T15:37:49Z</time></trkpt><trkpt lat="45.62616427837316" lon="11.312992827993996"><ele>219.0</ele><time>2026-04-06T15:37:50Z</time></trkpt><trkpt lat="45.62626174081072" lon="11.312893829833612"><ele>219.0</ele><time>2026-04-06T15:37:51Z</time></trkpt><trkpt lat="45.62635957662569" lon="11.312792501559992"><ele>220.0</ele><time>2026-04-06T15:37:52Z</time></trkpt><trkpt lat="45.62645620738266" lon="11.312691120465388"><ele>221.0</ele><time>2026-04-06T15:37:53Z</time></trkpt><trkpt lat="45.62655076767883" lon="11.312591126233606"><ele>222.0</ele><time>2026-04-06T15:37:54Z</time></trkpt><trkpt lat="45.62664521058309" lon="11.312496252047472"><ele>223.0</ele><time>2026-04-06T15:37:55Z</time></trkpt><trkpt lat="45.626740846776755" lon="11.312402732646946"><ele>223.0</ele><time>2026-04-06T15:37:56Z</time></trkpt><trkpt lat="45.626840101293546" lon="11.312311030862151"><ele>223.0</ele><time>2026-04-06T15:37:57Z</time></trkpt><trkpt lat="45.62694824167699" lon="11.31221631685735"><ele>223.0</ele><time>2026-04-06T15:37:58Z</time></trkpt><trkpt lat="45.62706315561234" lon="11.312116369506969"><ele>223.0</ele><time>2026-04-06T15:37:59Z</time></trkpt><trkpt lat="45.62717970549306" lon="11.312007755811674"><ele>223.0</ele><time>2026-04-06T15:38:00Z</time></trkpt><trkpt lat="45.62732020872183" lon="11.311922589221645"><ele>223.0</ele><time>2026-04-06T15:38:01Z</time></trkpt><trkpt lat="45.627469564938025" lon="11.311808268499345"><ele>223.0</ele><time>2026-04-06T15:38:02Z</time></trkpt><trkpt lat="45.62763176637093" lon="11.311692771335943"><ele>223.0</ele><time>2026-04-06T15:38:03Z</time></trkpt><trkpt lat="45.627804659711174" lon="11.311577503216204"><ele>223.0</ele><time>2026-04-06T15:38:04Z</time></trkpt><trkpt lat="45.62797530177467" lon="11.311448867653251"><ele>223.0</ele><time>2026-04-06T15:38:05Z</time></trkpt><trkpt lat="45.62814611517845" lon="11.31134798781"><ele>223.33333333333331</ele><time>2026-04-06T15:38:06Z</time></trkpt><trkpt lat="45.628305957492614" lon="11.311242169182407"><ele>223.66666666666669</ele><time>2026-04-06T15:38:07Z</time></trkpt><trkpt lat="45.628458942389244" lon="11.311140571309329"><ele>224.0</ele><time>2026-04-06T15:38:08Z</time></trkpt><trkpt lat="45.62860685054997" lon="11.311048573742559"><ele>224.75</ele><time>2026-04-06T15:38:09Z</time></trkpt><trkpt lat="45.628736748780966" lon="11.310970547543505"><ele>225.5</ele><time>2026-04-06T15:38:10Z</time></trkpt><trkpt lat="45.62886438515834" lon="11.310895168136335"><ele>226.25</ele><time>2026-04-06T15:38:11Z</time></trkpt><trkpt lat="45.62898540751402" lon="11.31082150206642"><ele>227.0</ele><time>2026-04-06T15:38:12Z</time></trkpt><trkpt lat="45.62910692625515" lon="11.310745913972498"><ele>227.0</ele><time>2026-04-06T15:38:13Z</time></trkpt><trkpt lat="45.629229985121675" lon="11.310667260469256"><ele>227.0</ele><time>2026-04-06T15:38:14Z</time></trkpt><trkpt lat="45.629351589567236" lon="11.310586879740148"><ele>227.0</ele><time>2026-04-06T15:38:15Z</time></trkpt><trkpt lat="45.629477060391814" lon="11.310502934685086"><ele>227.0</ele><time>2026-04-06T15:38:16Z</time></trkpt><trkpt lat="45.62962106888205" lon="11.310434778463966"><ele>227.66666666666669</ele><time>2026-04-06T15:38:17Z</time></trkpt><trkpt lat="45.62976578617433" lon="11.31034291815806"><ele>228.33333333333331</ele><time>2026-04-06T15:38:18Z</time></trkpt><trkpt lat="45.62991142063634" lon="11.310228603325816"><ele>229.0</ele><time>2026-04-06T15:38:19Z</time></trkpt><trkpt lat="45.63006779163737" lon="11.31013800532313"><ele>229.0</ele><time>2026-04-06T15:38:20Z</time></trkpt><trkpt lat="45.63021327306538" lon="11.310044135453262"><ele>229.0</ele><time>2026-04-06T15:38:21Z</time></trkpt><trkpt lat="45.63034809586246" lon="11.309958955376366"><ele>229.0</ele><time>2026-04-06T15:38:22Z</time></trkpt><trkpt lat="45.63047564840369" lon="11.309877736400763"><ele>229.0</ele><time>2026-04-06T15:38:23Z</time></trkpt><trkpt lat="45.63060455289069" lon="11.309791809164617"><ele>229.0</ele><time>2026-04-06T15:38:24Z</time></trkpt><trkpt lat="45.63073815746553" lon="11.309694180668783"><ele>229.0</ele><time>2026-04-06T15:38:25Z</time></trkpt><trkpt lat="45.63087865882185" lon="11.309589176072803"><ele>229.0</ele><time>2026-04-06T15:38:26Z</time></trkpt><trkpt lat="45.631025904691874" lon="11.309486924205304"><ele>229.0</ele><time>2026-04-06T15:38:27Z</time></trkpt><trkpt lat="45.63116165770701" lon="11.3093824913347"><ele>229.0</ele><time>2026-04-06T15:38:28Z</time></trkpt><trkpt lat="45.63128436580554" lon="11.309270775271871"><ele>229.0</ele><time>2026-04-06T15:38:29Z</time></trkpt><trkpt lat="45.631394118478084" lon="11.309144801687559"><ele>229.0</ele><time>2026-04-06T15:38:30Z</time></trkpt><trkpt lat="45.63149334234799" lon="11.309018375365572"><ele>228.0</ele><time>2026-04-06T15:38:31Z</time></trkpt><trkpt lat="45.63157524492065" lon="11.308877354773779"><ele>227.0</ele><time>2026-04-06T15:38:32Z</time></trkpt><trkpt lat="45.631628374169104" lon="11.308714244360013"><ele>226.0</ele><time>2026-04-06T15:38:33Z</time></trkpt><trkpt lat="45.63165766613719" lon="11.308538004399793"><ele>225.0</ele><time>2026-04-06T15:38:34Z</time></trkpt><trkpt lat="45.63166159866291" lon="11.308356866999699"><ele>225.0</ele><time>2026-04-06T15:38:35Z</time></trkpt><trkpt lat="45.63164092387795" lon="11.308187653339749"><ele>225.0</ele><time>2026-04-06T15:38:36Z</time></trkpt><trkpt lat="45.63161485323679" lon="11.308030325004049"><ele>225.0</ele><time>2026-04-06T15:38:37Z</time></trkpt><trkpt lat="45.63159740248147" lon="11.307873415515168"><ele>225.0</ele><time>2026-04-06T15:38:38Z</time></trkpt><trkpt lat="45.631597287030964" lon="11.307718442551447"><ele>225.0</ele><time>2026-04-06T15:38:39Z</time></trkpt><trkpt lat="45.63162994009698" lon="11.307586295622942"><ele>225.0</ele><time>2026-04-06T15:38:40Z</time></trkpt><trkpt lat="45.631696968636774" lon="11.307490952867935"><ele>225.0</ele><time>2026-04-06T15:38:41Z</time></trkpt><trkpt lat="45.63178968409085" lon="11.30743642061063"><ele>225.0</ele><time>2026-04-06T15:38:42Z</time></trkpt><trkpt lat="45.63190046366141" lon="11.307425182390965"><ele>225.0</ele><time>2026-04-06T15:38:43Z</time></trkpt><trkpt lat="45.63202347447452" lon="11.307415683262338"><ele>226.0</ele><time>2026-04-06T15:38:44Z</time></trkpt><trkpt lat="45.632147255853" lon="11.30735666662747"><ele>227.0</ele><time>2026-04-06T15:38:45Z</time></trkpt><trkpt lat="45.63226725420191" lon="11.30726527546689"><ele>228.0</ele><time>2026-04-06T15:38:46Z</time></trkpt><trkpt lat="45.63237880447368" lon="11.307183462300152"><ele>229.0</ele><time>2026-04-06T15:38:47Z</time></trkpt><trkpt lat="45.63249674194323" lon="11.307156347219447"><ele>229.0</ele><time>2026-04-06T15:38:48Z</time></trkpt><trkpt lat="45.63261963458026" lon="11.30719494234995"><ele>229.0</ele><time>2026-04-06T15:38:49Z</time></trkpt><trkpt lat="45.632742320154115" lon="11.307248756116485"><ele>229.0</ele><time>2026-04-06T15:38:50Z</time></trkpt><trkpt lat="45.6328666309304" lon="11.307239035169834"><ele>229.0</ele><time>2026-04-06T15:38:51Z</time></trkpt><trkpt lat="45.63298848436305" lon="11.307167851263651"><ele>230.0</ele><time>2026-04-06T15:38:52Z</time></trkpt><trkpt lat="45.63311793164477" lon="11.307061394116115"><ele>231.0</ele><time>2026-04-06T15:38:53Z</time></trkpt><trkpt lat="45.63325670433739" lon="11.306969220579495"><ele>232.0</ele><time>2026-04-06T15:38:54Z</time></trkpt><trkpt lat="45.633399716646956" lon="11.306908304490312"><ele>232.0</ele><time>2026-04-06T15:38:55Z</time></trkpt><trkpt lat="45.63355577214175" lon="11.306857348991258"><ele>232.0</ele><time>2026-04-06T15:38:56Z</time></trkpt><trkpt lat="45.63372153993296" lon="11.306819872158416"><ele>232.0</ele><time>2026-04-06T15:38:57Z</time></trkpt><trkpt lat="45.63389332054556" lon="11.306796264751465"><ele>232.66666666666666</ele><time>2026-04-06T15:38:58Z</time></trkpt><trkpt lat="45.63406378373533" lon="11.306783489641106"><ele>233.33333333333331</ele><time>2026-04-06T15:38:59Z</time></trkpt><trkpt lat="45.634235315806286" lon="11.306769719249106"><ele>234.0</ele><time>2026-04-06T15:39:00Z</time></trkpt><trkpt lat="45.634401535589674" lon="11.3067529614964"><ele>233.66666666666669</ele><time>2026-04-06T15:39:01Z</time></trkpt><trkpt lat="45.634559534331935" lon="11.306742686841739"><ele>233.33333333333334</ele><time>2026-04-06T15:39:02Z</time></trkpt><trkpt lat="45.634706869644496" lon="11.306732440470295"><ele>233.0</ele><time>2026-04-06T15:39:03Z</time></trkpt><trkpt lat="45.63485394787465" lon="11.30671964483747"><ele>233.0</ele><time>2026-04-06T15:39:04Z</time></trkpt><trkpt lat="45.63500939008963" lon="11.306707540372818"><ele>233.0</ele><time>2026-04-06T15:39:05Z</time></trkpt><trkpt lat="45.63516746266778" lon="11.306695811856146"><ele>233.0</ele><time>2026-04-06T15:39:06Z</time></trkpt><trkpt lat="45.63533171806836" lon="11.306683959825344"><ele>233.33333333333334</ele><time>2026-04-06T15:39:07Z</time></trkpt><trkpt lat="45.63549532996202" lon="11.306668256792149"><ele>233.66666666666669</ele><time>2026-04-06T15:39:08Z</time></trkpt><trkpt lat="45.63566086432342" lon="11.306641378269283"><ele>234.0</ele><time>2026-04-06T15:39:09Z</time></trkpt><trkpt lat="45.63582457369871" lon="11.306594792498016"><ele>234.0</ele><time>2026-04-06T15:39:10Z</time></trkpt><trkpt lat="45.63598314126686" lon="11.306528872179106"><ele>234.0</ele><time>2026-04-06T15:39:11Z</time></trkpt><trkpt lat="45.636138927235535" lon="11.306448559645924"><ele>234.0</ele><time>2026-04-06T15:39:12Z</time></trkpt><trkpt lat="45.636298538712005" lon="11.306369782552178"><ele>235.66666666666669</ele><time>2026-04-06T15:39:13Z</time></trkpt><trkpt lat="45.63646102118431" lon="11.306294184128015"><ele>237.33333333333334</ele><time>2026-04-06T15:39:14Z</time></trkpt><trkpt lat="45.6366262408266" lon="11.3062201159033"><ele>239.0</ele><time>2026-04-06T15:39:15Z</time></trkpt><trkpt lat="45.636789622227255" lon="11.306143152050486"><ele>239.0</ele><time>2026-04-06T15:39:16Z</time></trkpt><trkpt lat="45.63694873592899" lon="11.306067146577757"><ele>239.0</ele><time>2026-04-06T15:39:17Z</time></trkpt><trkpt lat="45.63710467394098" lon="11.30599468072353"><ele>239.0</ele><time>2026-04-06T15:39:18Z</time></trkpt><trkpt lat="45.637261213143724" lon="11.305919434219277"><ele>239.0</ele><time>2026-04-06T15:39:19Z</time></trkpt><trkpt lat="45.63741613445138" lon="11.305844064538373"><ele>239.0</ele><time>2026-04-06T15:39:20Z</time></trkpt><trkpt lat="45.63756990410299" lon="11.305772431499554"><ele>239.0</ele><time>2026-04-06T15:39:21Z</time></trkpt><trkpt lat="45.6377231827133" lon="11.30569677129213"><ele>239.33333333333334</ele><time>2026-04-06T15:39:22Z</time></trkpt><trkpt lat="45.63787483658105" lon="11.305617844645585"><ele>239.66666666666669</ele><time>2026-04-06T15:39:23Z</time></trkpt><trkpt lat="45.63802533204218" lon="11.305544158573912"><ele>240.0</ele><time>2026-04-06T15:39:24Z</time></trkpt><trkpt lat="45.6381740784978" lon="11.305475027355108"><ele>240.33333333333331</ele><time>2026-04-06T15:39:25Z</time></trkpt><trkpt lat="45.638323637484675" lon="11.305406451925968"><ele>240.66666666666666</ele><time>2026-04-06T15:39:26Z</time></trkpt><trkpt lat="45.63846918273486" lon="11.305338571134842"><ele>241.0</ele><time>2026-04-06T15:39:27Z</time></trkpt><trkpt lat="45.638618112978264" lon="11.305265564720013"><ele>241.33333333333331</ele><time>2026-04-06T15:39:28Z</time></trkpt><trkpt lat="45.638769078549124" lon="11.305195899378447"><ele>241.66666666666669</ele><time>2026-04-06T15:39:29Z</time></trkpt><trkpt lat="45.63892065275066" lon="11.30513109469617"><ele>242.0</ele><time>2026-04-06T15:39:30Z</time></trkpt><trkpt lat="45.63907160237073" lon="11.30506372849861"><ele>242.0</ele><time>2026-04-06T15:39:31Z</time></trkpt><trkpt lat="45.63922318376058" lon="11.304995154572339"><ele>242.0</ele><time>2026-04-06T15:39:32Z</time></trkpt><trkpt lat="45.639377276248126" lon="11.304925345867455"><ele>242.0</ele><time>2026-04-06T15:39:33Z</time></trkpt><trkpt lat="45.63952593428201" lon="11.304852466101455"><ele>242.0</ele><time>2026-04-06T15:39:34Z</time></trkpt><trkpt lat="45.63967348705759" lon="11.30478180388938"><ele>242.0</ele><time>2026-04-06T15:39:35Z</time></trkpt><trkpt lat="45.63981594980782" lon="11.30471720200644"><ele>242.0</ele><time>2026-04-06T15:39:36Z</time></trkpt><trkpt lat="45.63996103858687" lon="11.304650947083802"><ele>242.33333333333334</ele><time>2026-04-06T15:39:37Z</time></trkpt><trkpt lat="45.640105480904886" lon="11.304582613129062"><ele>242.66666666666669</ele><time>2026-04-06T15:39:38Z</time></trkpt><trkpt lat="45.64025317562988" lon="11.304514477105917"><ele>243.0</ele><time>2026-04-06T15:39:39Z</time></trkpt><trkpt lat="45.64039799950359" lon="11.304447884295671"><ele>243.5</ele><time>2026-04-06T15:39:40Z</time></trkpt><trkpt lat="45.64054304852633" lon="11.304383288207632"><ele>244.0</ele><time>2026-04-06T15:39:41Z</time></trkpt><trkpt lat="45.64068183729839" lon="11.304319304267603"><ele>244.5</ele><time>2026-04-06T15:39:42Z</time></trkpt><trkpt lat="45.64082068207215" lon="11.304257571790872"><ele>245.0</ele><time>2026-04-06T15:39:43Z</time></trkpt><trkpt lat="45.64095505317487" lon="11.304199684158446"><ele>245.0</ele><time>2026-04-06T15:39:44Z</time></trkpt><trkpt lat="45.64108132772304" lon="11.304152686730689"><ele>245.0</ele><time>2026-04-06T15:39:45Z</time></trkpt><trkpt lat="45.64119633256008" lon="11.30409969194198"><ele>245.0</ele><time>2026-04-06T15:39:46Z</time></trkpt><trkpt lat="45.641293441954545" lon="11.304054525977394"><ele>245.0</ele><time>2026-04-06T15:39:47Z</time></trkpt><trkpt lat="45.64137695140609" lon="11.30401526034877"><ele>245.0</ele><time>2026-04-06T15:39:48Z</time></trkpt><trkpt lat="45.641452303956775" lon="11.303983746945297"><ele>245.00000000000003</ele><time>2026-04-06T15:39:49Z</time></trkpt><trkpt lat="45.641526663222265" lon="11.303952660556607"><ele>245.0</ele><time>2026-04-06T15:39:50Z</time></trkpt><trkpt lat="45.64159920883895" lon="11.303911176162076"><ele>245.0</ele><time>2026-04-06T15:39:51Z</time></trkpt><trkpt lat="45.64167797754468" lon="11.303862315821176"><ele>245.0</ele><time>2026-04-06T15:39:52Z</time></trkpt><trkpt lat="45.6417683036926" lon="11.303813331798677"><ele>245.00000000000003</ele><time>2026-04-06T15:39:53Z</time></trkpt><trkpt lat="45.64187020008838" lon="11.303759385091428"><ele>245.0</ele><time>2026-04-06T15:39:54Z</time></trkpt><trkpt lat="45.641980778761265" lon="11.303704327840151"><ele>246.0</ele><time>2026-04-06T15:39:55Z</time></trkpt><trkpt lat="45.64209695046755" lon="11.303642748162048"><ele>247.0</ele><time>2026-04-06T15:39:56Z</time></trkpt><trkpt lat="45.6422195173692" lon="11.303578228567984"><ele>248.0</ele><time>2026-04-06T15:39:57Z</time></trkpt><trkpt lat="45.64234553954069" lon="11.303512693683086"><ele>249.0</ele><time>2026-04-06T15:39:58Z</time></trkpt><trkpt lat="45.64247706419404" lon="11.303481798148272"><ele>249.0</ele><time>2026-04-06T15:39:59Z</time></trkpt><trkpt lat="45.642603364049556" lon="11.303416715004733"><ele>249.0</ele><time>2026-04-06T15:40:00Z</time></trkpt><trkpt lat="45.642732393315214" lon="11.303350362479911"><ele>249.0</ele><time>2026-04-06T15:40:01Z</time></trkpt><trkpt lat="45.642853285537754" lon="11.303267933629597"><ele>249.0</ele><time>2026-04-06T15:40:02Z</time></trkpt><trkpt lat="45.64297716077862" lon="11.303218286731784"><ele>249.0</ele><time>2026-04-06T15:40:03Z</time></trkpt><trkpt lat="45.64309642679553" lon="11.303162805133407"><ele>249.0</ele><time>2026-04-06T15:40:04Z</time></trkpt><trkpt lat="45.64320609570144" lon="11.303106595127497"><ele>249.0</ele><time>2026-04-06T15:40:05Z</time></trkpt><trkpt lat="45.643310779747736" lon="11.3030362377233"><ele>249.0</ele><time>2026-04-06T15:40:06Z</time></trkpt><trkpt lat="45.64342050252124" lon="11.302977791015321"><ele>249.2</ele><time>2026-04-06T15:40:07Z</time></trkpt><trkpt lat="45.643523478585664" lon="11.302928029132486"><ele>249.39999999999998</ele><time>2026-04-06T15:40:08Z</time></trkpt><trkpt lat="45.64362960986457" lon="11.30287297127093"><ele>249.6</ele><time>2026-04-06T15:40:09Z</time></trkpt><trkpt lat="45.64373300743612" lon="11.302815851476046"><ele>249.8</ele><time>2026-04-06T15:40:10Z</time></trkpt><trkpt lat="45.643846719420225" lon="11.302779521713257"><ele>250.0</ele><time>2026-04-06T15:40:11Z</time></trkpt><trkpt lat="45.64395188997428" lon="11.302726411536595"><ele>250.4</ele><time>2026-04-06T15:40:12Z</time></trkpt><trkpt lat="45.64404598380705" lon="11.30267422722736"><ele>250.8</ele><time>2026-04-06T15:40:13Z</time></trkpt><trkpt lat="45.64413333634232" lon="11.302616143427779"><ele>251.2</ele><time>2026-04-06T15:40:14Z</time></trkpt><trkpt lat="45.64423300062257" lon="11.302582243503437"><ele>251.6</ele><time>2026-04-06T15:40:15Z</time></trkpt><trkpt lat="45.64431728858267" lon="11.302549694741778"><ele>252.0</ele><time>2026-04-06T15:40:16Z</time></trkpt><trkpt lat="45.64439788031705" lon="11.302529062388414"><ele>252.33333333333334</ele><time>2026-04-06T15:40:17Z</time></trkpt><trkpt lat="45.64447770728848" lon="11.302498510337625"><ele>252.66666666666669</ele><time>2026-04-06T15:40:18Z</time></trkpt><trkpt lat="45.64455181739307" lon="11.302470148271244"><ele>253.0</ele><time>2026-04-06T15:40:19Z</time></trkpt><trkpt lat="45.644621657379396" lon="11.302443418521618"><ele>253.33333333333334</ele><time>2026-04-06T15:40:20Z</time></trkpt><trkpt lat="45.6446897049074" lon="11.302417374795452"><ele>253.66666666666669</ele><time>2026-04-06T15:40:21Z</time></trkpt><trkpt lat="45.64475925753394" lon="11.302376489920913"><ele>254.0</ele><time>2026-04-06T15:40:22Z</time></trkpt><trkpt lat="45.64483609724705" lon="11.302345336985967"><ele>254.0</ele><time>2026-04-06T15:40:23Z</time></trkpt><trkpt lat="45.644916224726906" lon="11.302308181129606"><ele>253.99999999999997</ele><time>2026-04-06T15:40:24Z</time></trkpt><trkpt lat="45.64501493549164" lon="11.302295506296666"><ele>253.99999999999997</ele><time>2026-04-06T15:40:25Z</time></trkpt><trkpt lat="45.64511645129479" lon="11.302238744095725"><ele>254.0</ele><time>2026-04-06T15:40:26Z</time></trkpt><trkpt lat="45.64522739957732" lon="11.302221808506573"><ele>254.0</ele><time>2026-04-06T15:40:27Z</time></trkpt><trkpt lat="45.645326816696674" lon="11.302185249050368"><ele>253.5</ele><time>2026-04-06T15:40:28Z</time></trkpt><trkpt lat="45.645428408146365" lon="11.302141532356407"><ele>253.0</ele><time>2026-04-06T15:40:29Z</time></trkpt><trkpt lat="45.64553389577535" lon="11.302099615600747"><ele>252.5</ele><time>2026-04-06T15:40:30Z</time></trkpt><trkpt lat="45.64564503988426" lon="11.302054533753772"><ele>252.0</ele><time>2026-04-06T15:40:31Z</time></trkpt><trkpt lat="45.645763394805506" lon="11.302010767992147"><ele>252.0</ele><time>2026-04-06T15:40:32Z</time></trkpt><trkpt lat="45.6458868365179" lon="11.301979360505417"><ele>252.0</ele><time>2026-04-06T15:40:33Z</time></trkpt><trkpt lat="45.646012041347916" lon="11.30193323411661"><ele>252.0</ele><time>2026-04-06T15:40:34Z</time></trkpt><trkpt lat="45.646134696939804" lon="11.30189379019293"><ele>252.0</ele><time>2026-04-06T15:40:35Z</time></trkpt><trkpt lat="45.64625904303971" lon="11.301842809598208"><ele>251.25</ele><time>2026-04-06T15:40:36Z</time></trkpt><trkpt lat="45.646376596096204" lon="11.301797642108479"><ele>250.5</ele><time>2026-04-06T15:40:37Z</time></trkpt><trkpt lat="45.646493411089615" lon="11.301774494403993"><ele>249.75</ele><time>2026-04-06T15:40:38Z</time></trkpt><trkpt lat="45.64660375506728" lon="11.301736312799344"><ele>249.0</ele><time>2026-04-06T15:40:39Z</time></trkpt><trkpt lat="45.646702691433745" lon="11.301679943193346"><ele>249.0</ele><time>2026-04-06T15:40:40Z</time></trkpt><trkpt lat="45.646806706693724" lon="11.301662999049114"><ele>248.99999999999997</ele><time>2026-04-06T15:40:41Z</time></trkpt><trkpt lat="45.646902700030935" lon="11.301635004208915"><ele>248.99999999999997</ele><time>2026-04-06T15:40:42Z</time></trkpt><trkpt lat="45.646995677486075" lon="11.301599675844487"><ele>249.0</ele><time>2026-04-06T15:40:43Z</time></trkpt><trkpt lat="45.64708708808789" lon="11.301570078729181"><ele>249.0</ele><time>2026-04-06T15:40:44Z</time></trkpt><trkpt lat="45.647180186214015" lon="11.301528163227184"><ele>250.0</ele><time>2026-04-06T15:40:45Z</time></trkpt><trkpt lat="45.64727482942195" lon="11.301491737306295"><ele>250.99999999999997</ele><time>2026-04-06T15:40:46Z</time></trkpt><trkpt lat="45.64737689773312" lon="11.301452637335125"><ele>251.99999999999997</ele><time>2026-04-06T15:40:47Z</time></trkpt><trkpt lat="45.647476872556425" lon="11.301414280832619"><ele>253.0</ele><time>2026-04-06T15:40:48Z</time></trkpt><trkpt lat="45.64757138967539" lon="11.301379221338616"><ele>254.0</ele><time>2026-04-06T15:40:49Z</time></trkpt><trkpt lat="45.64765110316122" lon="11.301350712030864"><ele>254.50000000000003</ele><time>2026-04-06T15:40:50Z</time></trkpt><trkpt lat="45.64773081667966" lon="11.301324015724699"><ele>255.0</ele><time>2026-04-06T15:40:51Z</time></trkpt><trkpt lat="45.64780829318598" lon="11.301301374832823"><ele>255.5</ele><time>2026-04-06T15:40:52Z</time></trkpt><trkpt lat="45.647885726067734" lon="11.301275316583508"><ele>256.0</ele><time>2026-04-06T15:40:53Z</time></trkpt><trkpt lat="45.64796157023397" lon="11.301253254560901"><ele>256.5</ele><time>2026-04-06T15:40:54Z</time></trkpt><trkpt lat="45.648034618930204" lon="11.30123550022464"><ele>257.0</ele><time>2026-04-06T15:40:55Z</time></trkpt><trkpt lat="45.64812863611834" lon="11.30121651507073"><ele>257.0</ele><time>2026-04-06T15:40:57Z</time></trkpt><trkpt lat="45.64811357861" lon="11.301005682419664"><ele>257.0</ele><time>2026-04-06T15:40:58Z</time></trkpt><trkpt lat="45.648067584831466" lon="11.300865926625834"><ele>257.0</ele><time>2026-04-06T15:41:00Z</time></trkpt><trkpt lat="45.64804670428814" lon="11.300698461109176"><ele>257.0</ele><time>2026-04-06T15:41:02Z</time></trkpt><trkpt lat="45.6480328629585" lon="11.300608225412812"><ele>257.0</ele><time>2026-04-06T15:41:03Z</time></trkpt><trkpt lat="45.64801716973958" lon="11.300517424068417"><ele>258.2</ele><time>2026-04-06T15:41:04Z</time></trkpt><trkpt lat="45.6479865379886" lon="11.300377891628818"><ele>259.4</ele><time>2026-04-06T15:41:06Z</time></trkpt><trkpt lat="45.64797892282757" lon="11.300268455157868"><ele>260.6</ele><time>2026-04-06T15:41:08Z</time></trkpt><trkpt lat="45.64795276418117" lon="11.300181468040485"><ele>261.8</ele><time>2026-04-06T15:41:12Z</time></trkpt><trkpt lat="45.64783621455973" lon="11.300337439324501"><ele>263.0</ele><time>2026-04-06T15:41:13Z</time></trkpt><trkpt lat="45.64775803198382" lon="11.300300302137957"><ele>263.5</ele><time>2026-04-06T15:41:15Z</time></trkpt><trkpt lat="45.64768816196668" lon="11.300302434524923"><ele>264.0</ele><time>2026-04-06T15:41:16Z</time></trkpt><trkpt lat="45.64760068548789" lon="11.300308883206938"><ele>264.5</ele><time>2026-04-06T15:41:17Z</time></trkpt><trkpt lat="45.647521012172774" lon="11.300314878559218"><ele>265.0</ele><time>2026-04-06T15:41:18Z</time></trkpt><trkpt lat="45.647451437497075" lon="11.300320323217836"><ele>265.5</ele><time>2026-04-06T15:41:19Z</time></trkpt><trkpt lat="45.6473763712165" lon="11.3003515541077"><ele>266.0</ele><time>2026-04-06T15:41:20Z</time></trkpt><trkpt lat="45.64729578945665" lon="11.300374120031062"><ele>266.0</ele><time>2026-04-06T15:41:21Z</time></trkpt><trkpt lat="45.64721708786685" lon="11.300398098176352"><ele>266.0</ele><time>2026-04-06T15:41:22Z</time></trkpt><trkpt lat="45.647136084539795" lon="11.300405000556408"><ele>266.0</ele><time>2026-04-06T15:41:23Z</time></trkpt><trkpt lat="45.647060342985235" lon="11.300367790694375"><ele>266.0</ele><time>2026-04-06T15:41:24Z</time></trkpt><trkpt lat="45.64698921121585" lon="11.300321621564569"><ele>266.0</ele><time>2026-04-06T15:41:25Z</time></trkpt><trkpt lat="45.646915720565005" lon="11.300292779985337"><ele>266.0</ele><time>2026-04-06T15:41:26Z</time></trkpt><trkpt lat="45.64684530667421" lon="11.30026722002843"><ele>266.2857142857143</ele><time>2026-04-06T15:41:27Z</time></trkpt><trkpt lat="45.64677459625114" lon="11.300244840316033"><ele>266.57142857142856</ele><time>2026-04-06T15:41:28Z</time></trkpt><trkpt lat="45.64670075382648" lon="11.30024998701982"><ele>266.8571428571429</ele><time>2026-04-06T15:41:29Z</time></trkpt><trkpt lat="45.646628911817345" lon="11.300233117983584"><ele>267.1428571428571</ele><time>2026-04-06T15:41:30Z</time></trkpt><trkpt lat="45.646558908002824" lon="11.300215607295362"><ele>267.42857142857144</ele><time>2026-04-06T15:41:31Z</time></trkpt><trkpt lat="45.646493808933165" lon="11.30018826904507"><ele>267.7142857142857</ele><time>2026-04-06T15:41:32Z</time></trkpt><trkpt lat="45.6464305984379" lon="11.300139607380263"><ele>268.0</ele><time>2026-04-06T15:41:33Z</time></trkpt><trkpt lat="45.646360612405246" lon="11.300128744519018"><ele>268.0</ele><time>2026-04-06T15:41:34Z</time></trkpt><trkpt lat="45.64629909136469" lon="11.30009799394158"><ele>268.0</ele><time>2026-04-06T15:41:35Z</time></trkpt><trkpt lat="45.64618130340115" lon="11.300061675473854"><ele>268.0</ele><time>2026-04-06T15:41:37Z</time></trkpt><trkpt lat="45.64609417029586" lon="11.300004375706067"><ele>268.0</ele><time>2026-04-06T15:41:39Z</time></trkpt><trkpt lat="45.64607577058564" lon="11.299872727115604"><ele>268.0</ele><time>2026-04-06T15:41:41Z</time></trkpt><trkpt lat="45.64609505461831" lon="11.299709128931584"><ele>268.6</ele><time>2026-04-06T15:41:43Z</time></trkpt><trkpt lat="45.6461009024043" lon="11.299529629289498"><ele>269.20000000000005</ele><time>2026-04-06T15:41:45Z</time></trkpt><trkpt lat="45.64610248972636" lon="11.299438881336906"><ele>269.8</ele><time>2026-04-06T15:41:46Z</time></trkpt><trkpt lat="45.64610638064974" lon="11.299347112701467"><ele>270.40000000000003</ele><time>2026-04-06T15:41:47Z</time></trkpt><trkpt lat="45.646109771959516" lon="11.299179225561947"><ele>271.0</ele><time>2026-04-06T15:41:49Z</time></trkpt><trkpt lat="45.64612728300542" lon="11.299045765497421"><ele>270.66666666666663</ele><time>2026-04-06T15:41:51Z</time></trkpt><trkpt lat="45.646150733505166" lon="11.298958457857854"><ele>270.3333333333333</ele><time>2026-04-06T15:41:53Z</time></trkpt><trkpt lat="45.6461805699084" lon="11.298873310429485"><ele>270.0</ele><time>2026-04-06T15:42:30Z</time></trkpt><trkpt lat="45.64647124119637" lon="11.298545664972671"><ele>280.0</ele><time>2026-04-06T15:42:32Z</time></trkpt><trkpt lat="45.646546543248355" lon="11.29855421837234"><ele>280.0</ele><time>2026-04-06T15:42:34.023Z</time></trkpt><trkpt lat="45.64669007180994" lon="11.29888107894937"><ele>280.0</ele><time>2026-04-06T15:42:59.497Z</time></trkpt></trkseg></trk></gpx>